<?xml version='1.0' encoding='UTF-8'?><gpx version="1.1" creator="JPX - https://github.com/jenetics/jpx" xmlns="http://www.topografix.com/GPX/1/1"><trk><trkseg><trkpt lat="43.8693092" lon="6.449298"><ele>1055.0</ele><time>2026-05-03T08:29:15.131Z</time></trkpt><trkpt lat="43.8693031" lon="6.4493885"><ele>1055.0</ele><time>2026-05-03T08:29:19.131Z</time></trkpt><trkpt lat="43.8692605" lon="6.4494722"><ele>1055.0</ele><time>2026-05-03T08:29:22.131Z</time></trkpt><trkpt lat="43.86925" lon="6.4495607"><ele>1055.0</ele><time>2026-05-03T08:29:25.131Z</time></trkpt><trkpt lat="43.8693148" lon="6.449625"><ele>1055.0</ele><time>2026-05-03T08:29:31.13Z</time></trkpt><trkpt lat="43.8693675" lon="6.4496967"><ele>1055.0</ele><time>2026-05-03T08:29:34.131Z</time></trkpt><trkpt lat="43.8694202" lon="6.4497447"><ele>1055.0</ele><time>2026-05-03T08:29:37.131Z</time></trkpt><trkpt lat="43.8695004" lon="6.4498205"><ele>1055.1666666666667</ele><time>2026-05-03T08:29:40.131Z</time></trkpt><trkpt lat="43.8695574" lon="6.4498964"><ele>1055.3333333333335</ele><time>2026-05-03T08:29:42.131Z</time></trkpt><trkpt lat="43.8696262" lon="6.4499777"><ele>1055.5</ele><time>2026-05-03T08:29:44.131Z</time></trkpt><trkpt lat="43.86968" lon="6.4500448"><ele>1055.6666666666667</ele><time>2026-05-03T08:29:46.13Z</time></trkpt><trkpt lat="43.8697132" lon="6.4501401"><ele>1055.8333333333333</ele><time>2026-05-03T08:29:48.131Z</time></trkpt><trkpt lat="43.8696802" lon="6.4502557"><ele>1056.0</ele><time>2026-05-03T08:29:50.131Z</time></trkpt><trkpt lat="43.8696059" lon="6.450394"><ele>1056.1666666666667</ele><time>2026-05-03T08:29:52.131Z</time></trkpt><trkpt lat="43.8695586" lon="6.4504692"><ele>1056.3333333333333</ele><time>2026-05-03T08:29:53.131Z</time></trkpt><trkpt lat="43.8695059" lon="6.4505541"><ele>1056.5</ele><time>2026-05-03T08:29:54.131Z</time></trkpt><trkpt lat="43.8694515" lon="6.4506473"><ele>1056.6666666666665</ele><time>2026-05-03T08:29:55.131Z</time></trkpt><trkpt lat="43.8693908" lon="6.4507452"><ele>1056.8333333333333</ele><time>2026-05-03T08:29:56.131Z</time></trkpt><trkpt lat="43.8693322" lon="6.4508443"><ele>1057.0</ele><time>2026-05-03T08:29:57.131Z</time></trkpt><trkpt lat="43.8692729" lon="6.4509465"><ele>1057.0</ele><time>2026-05-03T08:29:58.131Z</time></trkpt><trkpt lat="43.8692106" lon="6.4510631"><ele>1057.0</ele><time>2026-05-03T08:29:59.131Z</time></trkpt><trkpt lat="43.8691509" lon="6.4511811"><ele>1057.0</ele><time>2026-05-03T08:30:00.131Z</time></trkpt><trkpt lat="43.8690925" lon="6.4513008"><ele>1057.0</ele><time>2026-05-03T08:30:01.131Z</time></trkpt><trkpt lat="43.8690293" lon="6.451411"><ele>1057.0</ele><time>2026-05-03T08:30:02.131Z</time></trkpt><trkpt lat="43.8689506" lon="6.4515278"><ele>1058.8</ele><time>2026-05-03T08:30:03.131Z</time></trkpt><trkpt lat="43.8688821" lon="6.4516372"><ele>1060.6</ele><time>2026-05-03T08:30:04.131Z</time></trkpt><trkpt lat="43.8688128" lon="6.4517455"><ele>1062.3999999999999</ele><time>2026-05-03T08:30:05.131Z</time></trkpt><trkpt lat="43.8687388" lon="6.4518673"><ele>1064.2</ele><time>2026-05-03T08:30:06.131Z</time></trkpt><trkpt lat="43.8686692" lon="6.4519843"><ele>1066.0</ele><time>2026-05-03T08:30:07.131Z</time></trkpt><trkpt lat="43.8686003" lon="6.4521019"><ele>1067.0</ele><time>2026-05-03T08:30:08.13Z</time></trkpt><trkpt lat="43.8685229" lon="6.4522251"><ele>1068.0</ele><time>2026-05-03T08:30:09.131Z</time></trkpt><trkpt lat="43.8684502" lon="6.4523655"><ele>1069.0</ele><time>2026-05-03T08:30:10.13Z</time></trkpt><trkpt lat="43.8683754" lon="6.4525113"><ele>1070.0</ele><time>2026-05-03T08:30:11.131Z</time></trkpt><trkpt lat="43.8683068" lon="6.4526607"><ele>1070.0</ele><time>2026-05-03T08:30:12.131Z</time></trkpt><trkpt lat="43.868244" lon="6.4528065"><ele>1070.0</ele><time>2026-05-03T08:30:13.13Z</time></trkpt><trkpt lat="43.868175" lon="6.4529648"><ele>1070.0</ele><time>2026-05-03T08:30:14.131Z</time></trkpt><trkpt lat="43.8681136" lon="6.4531228"><ele>1070.0</ele><time>2026-05-03T08:30:15.131Z</time></trkpt><trkpt lat="43.8680473" lon="6.4532951"><ele>1070.75</ele><time>2026-05-03T08:30:16.131Z</time></trkpt><trkpt lat="43.8680065" lon="6.4534774"><ele>1071.5</ele><time>2026-05-03T08:30:17.131Z</time></trkpt><trkpt lat="43.867938" lon="6.4536439"><ele>1072.25</ele><time>2026-05-03T08:30:18.13Z</time></trkpt><trkpt lat="43.8678284" lon="6.4537566"><ele>1073.0</ele><time>2026-05-03T08:30:19.131Z</time></trkpt><trkpt lat="43.8677168" lon="6.453896"><ele>1072.25</ele><time>2026-05-03T08:30:20.131Z</time></trkpt><trkpt lat="43.8676102" lon="6.4540299"><ele>1071.5</ele><time>2026-05-03T08:30:21.131Z</time></trkpt><trkpt lat="43.8674964" lon="6.4541364"><ele>1070.75</ele><time>2026-05-03T08:30:22.131Z</time></trkpt><trkpt lat="43.8673775" lon="6.4542138"><ele>1070.0</ele><time>2026-05-03T08:30:23.131Z</time></trkpt><trkpt lat="43.8672533" lon="6.4542615"><ele>1070.0</ele><time>2026-05-03T08:30:24.13Z</time></trkpt><trkpt lat="43.8671158" lon="6.4542999"><ele>1070.0</ele><time>2026-05-03T08:30:25.131Z</time></trkpt><trkpt lat="43.8669785" lon="6.4543394"><ele>1070.0</ele><time>2026-05-03T08:30:26.131Z</time></trkpt><trkpt lat="43.8668479" lon="6.4544005"><ele>1070.0</ele><time>2026-05-03T08:30:27.13Z</time></trkpt><trkpt lat="43.866709" lon="6.4544692"><ele>1070.25</ele><time>2026-05-03T08:30:28.131Z</time></trkpt><trkpt lat="43.8665879" lon="6.4545549"><ele>1070.5</ele><time>2026-05-03T08:30:29.131Z</time></trkpt><trkpt lat="43.8664774" lon="6.4546388"><ele>1070.75</ele><time>2026-05-03T08:30:30.13Z</time></trkpt><trkpt lat="43.8663748" lon="6.4547635"><ele>1071.0</ele><time>2026-05-03T08:30:31.131Z</time></trkpt><trkpt lat="43.8662717" lon="6.4549128"><ele>1073.0</ele><time>2026-05-03T08:30:32.131Z</time></trkpt><trkpt lat="43.8661888" lon="6.4550826"><ele>1075.0</ele><time>2026-05-03T08:30:33.131Z</time></trkpt><trkpt lat="43.8661118" lon="6.4552396"><ele>1077.0</ele><time>2026-05-03T08:30:34.131Z</time></trkpt><trkpt lat="43.8660564" lon="6.4554174"><ele>1079.0</ele><time>2026-05-03T08:30:35.131Z</time></trkpt><trkpt lat="43.8660081" lon="6.4556062"><ele>1081.0</ele><time>2026-05-03T08:30:36.131Z</time></trkpt><trkpt lat="43.8659586" lon="6.4558082"><ele>1083.0</ele><time>2026-05-03T08:30:37.131Z</time></trkpt><trkpt lat="43.8658932" lon="6.4560131"><ele>1085.0</ele><time>2026-05-03T08:30:38.131Z</time></trkpt><trkpt lat="43.8658245" lon="6.456197"><ele>1086.0</ele><time>2026-05-03T08:30:39.131Z</time></trkpt><trkpt lat="43.8657553" lon="6.4563789"><ele>1087.0</ele><time>2026-05-03T08:30:40.131Z</time></trkpt><trkpt lat="43.865717" lon="6.4565852"><ele>1088.0</ele><time>2026-05-03T08:30:41.131Z</time></trkpt><trkpt lat="43.8656953" lon="6.4567965"><ele>1088.0</ele><time>2026-05-03T08:30:42.131Z</time></trkpt><trkpt lat="43.8656875" lon="6.4570236"><ele>1088.0</ele><time>2026-05-03T08:30:43.131Z</time></trkpt><trkpt lat="43.8656611" lon="6.4572363"><ele>1088.0</ele><time>2026-05-03T08:30:44.131Z</time></trkpt><trkpt lat="43.8656298" lon="6.4574588"><ele>1090.3333333333335</ele><time>2026-05-03T08:30:45.13Z</time></trkpt><trkpt lat="43.8655857" lon="6.4576792"><ele>1092.6666666666667</ele><time>2026-05-03T08:30:46.131Z</time></trkpt><trkpt lat="43.8655311" lon="6.4578882"><ele>1095.0</ele><time>2026-05-03T08:30:47.131Z</time></trkpt><trkpt lat="43.865472" lon="6.4580978"><ele>1098.6666666666667</ele><time>2026-05-03T08:30:48.131Z</time></trkpt><trkpt lat="43.8654164" lon="6.4583065"><ele>1102.3333333333335</ele><time>2026-05-03T08:30:49.131Z</time></trkpt><trkpt lat="43.8653495" lon="6.4585131"><ele>1106.0</ele><time>2026-05-03T08:30:50.13Z</time></trkpt><trkpt lat="43.8652714" lon="6.458742"><ele>1104.3333333333335</ele><time>2026-05-03T08:30:51.131Z</time></trkpt><trkpt lat="43.8652029" lon="6.4589532"><ele>1102.6666666666667</ele><time>2026-05-03T08:30:52.131Z</time></trkpt><trkpt lat="43.8651461" lon="6.4591677"><ele>1101.0</ele><time>2026-05-03T08:30:53.131Z</time></trkpt><trkpt lat="43.8651096" lon="6.4593947"><ele>1103.3333333333333</ele><time>2026-05-03T08:30:54.131Z</time></trkpt><trkpt lat="43.8650824" lon="6.4596277"><ele>1105.6666666666665</ele><time>2026-05-03T08:30:55.13Z</time></trkpt><trkpt lat="43.8650537" lon="6.4598613"><ele>1108.0</ele><time>2026-05-03T08:30:56.131Z</time></trkpt><trkpt lat="43.8650317" lon="6.4600994"><ele>1108.0</ele><time>2026-05-03T08:30:57.13Z</time></trkpt><trkpt lat="43.8650072" lon="6.4603094"><ele>1108.0</ele><time>2026-05-03T08:30:58.13Z</time></trkpt><trkpt lat="43.8649876" lon="6.4605164"><ele>1108.0</ele><time>2026-05-03T08:30:59.13Z</time></trkpt><trkpt lat="43.8649672" lon="6.4606922"><ele>1108.0</ele><time>2026-05-03T08:31:00.131Z</time></trkpt><trkpt lat="43.8649276" lon="6.460872"><ele>1108.8</ele><time>2026-05-03T08:31:01.131Z</time></trkpt><trkpt lat="43.8649018" lon="6.4610248"><ele>1109.6</ele><time>2026-05-03T08:31:02.131Z</time></trkpt><trkpt lat="43.8648875" lon="6.4611434"><ele>1110.4</ele><time>2026-05-03T08:31:03.131Z</time></trkpt><trkpt lat="43.8649005" lon="6.4612629"><ele>1111.2</ele><time>2026-05-03T08:31:04.131Z</time></trkpt><trkpt lat="43.8649191" lon="6.4613714"><ele>1112.0</ele><time>2026-05-03T08:31:05.131Z</time></trkpt><trkpt lat="43.8650035" lon="6.4614283"><ele>1114.4</ele><time>2026-05-03T08:31:06.131Z</time></trkpt><trkpt lat="43.8650922" lon="6.4614297"><ele>1116.8000000000002</ele><time>2026-05-03T08:31:07.131Z</time></trkpt><trkpt lat="43.8651596" lon="6.4613677"><ele>1119.2</ele><time>2026-05-03T08:31:08.13Z</time></trkpt><trkpt lat="43.8652209" lon="6.4612649"><ele>1121.6000000000001</ele><time>2026-05-03T08:31:09.131Z</time></trkpt><trkpt lat="43.8652792" lon="6.4611075"><ele>1124.0</ele><time>2026-05-03T08:31:10.131Z</time></trkpt><trkpt lat="43.8653453" lon="6.4609116"><ele>1124.0</ele><time>2026-05-03T08:31:11.131Z</time></trkpt><trkpt lat="43.8654198" lon="6.4607173"><ele>1124.0</ele><time>2026-05-03T08:31:12.13Z</time></trkpt><trkpt lat="43.8654666" lon="6.4605401"><ele>1124.0</ele><time>2026-05-03T08:31:13.131Z</time></trkpt><trkpt lat="43.8655384" lon="6.4603777"><ele>1124.0</ele><time>2026-05-03T08:31:14.13Z</time></trkpt><trkpt lat="43.8655984" lon="6.4601945"><ele>1124.0</ele><time>2026-05-03T08:31:15.131Z</time></trkpt><trkpt lat="43.8656597" lon="6.4600157"><ele>1124.0</ele><time>2026-05-03T08:31:16.131Z</time></trkpt><trkpt lat="43.8657067" lon="6.4598229"><ele>1124.0</ele><time>2026-05-03T08:31:17.13Z</time></trkpt><trkpt lat="43.8658277" lon="6.4596919"><ele>1124.0</ele><time>2026-05-03T08:31:18.131Z</time></trkpt><trkpt lat="43.8659525" lon="6.4595722"><ele>1126.6000000000001</ele><time>2026-05-03T08:31:19.131Z</time></trkpt><trkpt lat="43.8660608" lon="6.4594723"><ele>1129.2</ele><time>2026-05-03T08:31:20.131Z</time></trkpt><trkpt lat="43.8661378" lon="6.4593801"><ele>1131.8000000000002</ele><time>2026-05-03T08:31:21.131Z</time></trkpt><trkpt lat="43.8662111" lon="6.4593044"><ele>1134.4</ele><time>2026-05-03T08:31:22.13Z</time></trkpt><trkpt lat="43.8662775" lon="6.4592581"><ele>1137.0</ele><time>2026-05-03T08:31:23.13Z</time></trkpt><trkpt lat="43.8663472" lon="6.4592092"><ele>1137.0</ele><time>2026-05-03T08:31:24.131Z</time></trkpt><trkpt lat="43.8664589" lon="6.4592518"><ele>1137.0</ele><time>2026-05-03T08:31:26.131Z</time></trkpt><trkpt lat="43.8664771" lon="6.45934"><ele>1137.0</ele><time>2026-05-03T08:31:27.131Z</time></trkpt><trkpt lat="43.8664523" lon="6.4594427"><ele>1137.0</ele><time>2026-05-03T08:31:28.131Z</time></trkpt><trkpt lat="43.866417" lon="6.4595455"><ele>1137.0</ele><time>2026-05-03T08:31:29.131Z</time></trkpt><trkpt lat="43.8663483" lon="6.4596915"><ele>1139.0</ele><time>2026-05-03T08:31:30.131Z</time></trkpt><trkpt lat="43.8662882" lon="6.4598603"><ele>1141.0</ele><time>2026-05-03T08:31:31.131Z</time></trkpt><trkpt lat="43.8662348" lon="6.460034"><ele>1143.0</ele><time>2026-05-03T08:31:32.131Z</time></trkpt><trkpt lat="43.8661901" lon="6.4602098"><ele>1145.0</ele><time>2026-05-03T08:31:33.13Z</time></trkpt><trkpt lat="43.8661472" lon="6.4603887"><ele>1145.25</ele><time>2026-05-03T08:31:34.13Z</time></trkpt><trkpt lat="43.8660717" lon="6.4605573"><ele>1145.5</ele><time>2026-05-03T08:31:35.131Z</time></trkpt><trkpt lat="43.8660063" lon="6.4607075"><ele>1145.75</ele><time>2026-05-03T08:31:36.13Z</time></trkpt><trkpt lat="43.8659376" lon="6.4608695"><ele>1146.0</ele><time>2026-05-03T08:31:37.131Z</time></trkpt><trkpt lat="43.8658654" lon="6.461051"><ele>1144.25</ele><time>2026-05-03T08:31:38.131Z</time></trkpt><trkpt lat="43.8657951" lon="6.4612292"><ele>1142.5</ele><time>2026-05-03T08:31:39.131Z</time></trkpt><trkpt lat="43.8657289" lon="6.4614071"><ele>1140.75</ele><time>2026-05-03T08:31:40.131Z</time></trkpt><trkpt lat="43.8656624" lon="6.4615955"><ele>1139.0</ele><time>2026-05-03T08:31:41.13Z</time></trkpt><trkpt lat="43.8655839" lon="6.461778"><ele>1139.0</ele><time>2026-05-03T08:31:42.131Z</time></trkpt><trkpt lat="43.8655224" lon="6.4619628"><ele>1139.0</ele><time>2026-05-03T08:31:43.131Z</time></trkpt><trkpt lat="43.8654827" lon="6.4621516"><ele>1139.0</ele><time>2026-05-03T08:31:44.131Z</time></trkpt><trkpt lat="43.8654461" lon="6.4623369"><ele>1139.0</ele><time>2026-05-03T08:31:45.131Z</time></trkpt><trkpt lat="43.8654344" lon="6.4625661"><ele>1141.3333333333335</ele><time>2026-05-03T08:31:46.131Z</time></trkpt><trkpt lat="43.8654415" lon="6.4627839"><ele>1143.6666666666667</ele><time>2026-05-03T08:31:47.131Z</time></trkpt><trkpt lat="43.8654385" lon="6.4630001"><ele>1146.0</ele><time>2026-05-03T08:31:48.13Z</time></trkpt><trkpt lat="43.8654355" lon="6.4632132"><ele>1146.75</ele><time>2026-05-03T08:31:49.131Z</time></trkpt><trkpt lat="43.8654319" lon="6.4634265"><ele>1147.5</ele><time>2026-05-03T08:31:50.131Z</time></trkpt><trkpt lat="43.8654379" lon="6.4636025"><ele>1148.25</ele><time>2026-05-03T08:31:51.131Z</time></trkpt><trkpt lat="43.8654416" lon="6.46379"><ele>1149.0</ele><time>2026-05-03T08:31:52.13Z</time></trkpt><trkpt lat="43.8654291" lon="6.4639764"><ele>1149.25</ele><time>2026-05-03T08:31:53.131Z</time></trkpt><trkpt lat="43.8654348" lon="6.4641699"><ele>1149.5</ele><time>2026-05-03T08:31:54.131Z</time></trkpt><trkpt lat="43.8654061" lon="6.4643778"><ele>1149.75</ele><time>2026-05-03T08:31:55.131Z</time></trkpt><trkpt lat="43.8653472" lon="6.4645748"><ele>1150.0</ele><time>2026-05-03T08:31:56.131Z</time></trkpt><trkpt lat="43.8652716" lon="6.4647587"><ele>1150.5</ele><time>2026-05-03T08:31:57.131Z</time></trkpt><trkpt lat="43.8652" lon="6.4649282"><ele>1151.0</ele><time>2026-05-03T08:31:58.131Z</time></trkpt><trkpt lat="43.8651401" lon="6.4651176"><ele>1151.5</ele><time>2026-05-03T08:31:59.131Z</time></trkpt><trkpt lat="43.8650838" lon="6.4653173"><ele>1152.0</ele><time>2026-05-03T08:32:00.131Z</time></trkpt><trkpt lat="43.8650554" lon="6.4654935"><ele>1149.25</ele><time>2026-05-03T08:32:01.13Z</time></trkpt><trkpt lat="43.8650147" lon="6.4656746"><ele>1146.5</ele><time>2026-05-03T08:32:02.131Z</time></trkpt><trkpt lat="43.8649696" lon="6.4658401"><ele>1143.75</ele><time>2026-05-03T08:32:03.131Z</time></trkpt><trkpt lat="43.8649371" lon="6.4659992"><ele>1141.0</ele><time>2026-05-03T08:32:04.131Z</time></trkpt><trkpt lat="43.8649334" lon="6.4661368"><ele>1141.0</ele><time>2026-05-03T08:32:05.131Z</time></trkpt><trkpt lat="43.8649466" lon="6.4662708"><ele>1141.0</ele><time>2026-05-03T08:32:06.131Z</time></trkpt><trkpt lat="43.8649872" lon="6.4663858"><ele>1141.0</ele><time>2026-05-03T08:32:07.131Z</time></trkpt><trkpt lat="43.8650744" lon="6.4664862"><ele>1141.0</ele><time>2026-05-03T08:32:08.131Z</time></trkpt><trkpt lat="43.8651853" lon="6.4665768"><ele>1141.0</ele><time>2026-05-03T08:32:09.131Z</time></trkpt><trkpt lat="43.8653216" lon="6.46665"><ele>1142.75</ele><time>2026-05-03T08:32:10.131Z</time></trkpt><trkpt lat="43.8654541" lon="6.4667435"><ele>1144.5</ele><time>2026-05-03T08:32:11.131Z</time></trkpt><trkpt lat="43.8655775" lon="6.4668425"><ele>1146.25</ele><time>2026-05-03T08:32:12.131Z</time></trkpt><trkpt lat="43.8656838" lon="6.4669747"><ele>1148.0</ele><time>2026-05-03T08:32:13.131Z</time></trkpt><trkpt lat="43.8657693" lon="6.4671328"><ele>1144.75</ele><time>2026-05-03T08:32:14.131Z</time></trkpt><trkpt lat="43.865836" lon="6.4673087"><ele>1141.5</ele><time>2026-05-03T08:32:15.131Z</time></trkpt><trkpt lat="43.8658961" lon="6.4674752"><ele>1138.25</ele><time>2026-05-03T08:32:16.13Z</time></trkpt><trkpt lat="43.8659478" lon="6.4676288"><ele>1135.0</ele><time>2026-05-03T08:32:17.131Z</time></trkpt><trkpt lat="43.8660002" lon="6.4677502"><ele>1135.0</ele><time>2026-05-03T08:32:18.131Z</time></trkpt><trkpt lat="43.8660677" lon="6.4678533"><ele>1135.0</ele><time>2026-05-03T08:32:19.131Z</time></trkpt><trkpt lat="43.8661374" lon="6.4679536"><ele>1135.0</ele><time>2026-05-03T08:32:20.13Z</time></trkpt><trkpt lat="43.8662544" lon="6.4679676"><ele>1135.0</ele><time>2026-05-03T08:32:21.131Z</time></trkpt><trkpt lat="43.8663646" lon="6.4679827"><ele>1135.0</ele><time>2026-05-03T08:32:22.131Z</time></trkpt><trkpt lat="43.866506" lon="6.4678885"><ele>1135.0</ele><time>2026-05-03T08:32:23.13Z</time></trkpt><trkpt lat="43.8666369" lon="6.4678307"><ele>1135.0</ele><time>2026-05-03T08:32:24.131Z</time></trkpt><trkpt lat="43.8667748" lon="6.4677434"><ele>1135.0</ele><time>2026-05-03T08:32:25.13Z</time></trkpt><trkpt lat="43.8669098" lon="6.4676668"><ele>1135.0</ele><time>2026-05-03T08:32:26.131Z</time></trkpt><trkpt lat="43.867036" lon="6.4676321"><ele>1133.75</ele><time>2026-05-03T08:32:27.131Z</time></trkpt><trkpt lat="43.867168" lon="6.467622"><ele>1132.5</ele><time>2026-05-03T08:32:28.131Z</time></trkpt><trkpt lat="43.8673058" lon="6.4676362"><ele>1131.25</ele><time>2026-05-03T08:32:29.131Z</time></trkpt><trkpt lat="43.8674498" lon="6.4676595"><ele>1130.0</ele><time>2026-05-03T08:32:30.131Z</time></trkpt><trkpt lat="43.8675786" lon="6.4676723"><ele>1130.0</ele><time>2026-05-03T08:32:31.131Z</time></trkpt><trkpt lat="43.8676989" lon="6.4676775"><ele>1130.0</ele><time>2026-05-03T08:32:32.13Z</time></trkpt><trkpt lat="43.8678175" lon="6.4676797"><ele>1130.0</ele><time>2026-05-03T08:32:33.131Z</time></trkpt><trkpt lat="43.8679463" lon="6.4676016"><ele>1130.0</ele><time>2026-05-03T08:32:34.131Z</time></trkpt><trkpt lat="43.8680645" lon="6.4675262"><ele>1130.0</ele><time>2026-05-03T08:32:35.131Z</time></trkpt><trkpt lat="43.8681638" lon="6.4674466"><ele>1130.0</ele><time>2026-05-03T08:32:36.131Z</time></trkpt><trkpt lat="43.8682686" lon="6.4673958"><ele>1130.0</ele><time>2026-05-03T08:32:37.13Z</time></trkpt><trkpt lat="43.8683815" lon="6.467339"><ele>1130.0</ele><time>2026-05-03T08:32:38.131Z</time></trkpt><trkpt lat="43.8685028" lon="6.4673719"><ele>1132.0</ele><time>2026-05-03T08:32:39.131Z</time></trkpt><trkpt lat="43.8686175" lon="6.4674419"><ele>1134.0</ele><time>2026-05-03T08:32:40.13Z</time></trkpt><trkpt lat="43.8687128" lon="6.4675573"><ele>1136.0</ele><time>2026-05-03T08:32:41.131Z</time></trkpt><trkpt lat="43.8688038" lon="6.4676693"><ele>1138.0</ele><time>2026-05-03T08:32:42.13Z</time></trkpt><trkpt lat="43.8688773" lon="6.4678005"><ele>1136.75</ele><time>2026-05-03T08:32:43.131Z</time></trkpt><trkpt lat="43.8689397" lon="6.4679575"><ele>1135.5</ele><time>2026-05-03T08:32:44.131Z</time></trkpt><trkpt lat="43.8689957" lon="6.4681007"><ele>1134.25</ele><time>2026-05-03T08:32:45.13Z</time></trkpt><trkpt lat="43.8690011" lon="6.4682953"><ele>1133.0</ele><time>2026-05-03T08:32:46.131Z</time></trkpt><trkpt lat="43.8689694" lon="6.4684477"><ele>1133.0</ele><time>2026-05-03T08:32:47.131Z</time></trkpt><trkpt lat="43.8689276" lon="6.4686022"><ele>1133.0</ele><time>2026-05-03T08:32:48.13Z</time></trkpt><trkpt lat="43.8688992" lon="6.468762"><ele>1133.0</ele><time>2026-05-03T08:32:49.131Z</time></trkpt><trkpt lat="43.8688879" lon="6.4689315"><ele>1133.0</ele><time>2026-05-03T08:32:50.131Z</time></trkpt><trkpt lat="43.8689008" lon="6.4690933"><ele>1132.8</ele><time>2026-05-03T08:32:51.13Z</time></trkpt><trkpt lat="43.8689502" lon="6.4692331"><ele>1132.6</ele><time>2026-05-03T08:32:52.13Z</time></trkpt><trkpt lat="43.8689681" lon="6.4693728"><ele>1132.4</ele><time>2026-05-03T08:32:53.131Z</time></trkpt><trkpt lat="43.8689873" lon="6.4695088"><ele>1132.2</ele><time>2026-05-03T08:32:54.131Z</time></trkpt><trkpt lat="43.8689348" lon="6.4696427"><ele>1132.0</ele><time>2026-05-03T08:32:55.131Z</time></trkpt><trkpt lat="43.8688309" lon="6.469817"><ele>1133.5</ele><time>2026-05-03T08:32:56.131Z</time></trkpt><trkpt lat="43.8687682" lon="6.4700094"><ele>1135.0</ele><time>2026-05-03T08:32:57.131Z</time></trkpt><trkpt lat="43.8687246" lon="6.4701889"><ele>1136.5</ele><time>2026-05-03T08:32:58.131Z</time></trkpt><trkpt lat="43.8686829" lon="6.4703744"><ele>1138.0</ele><time>2026-05-03T08:32:59.13Z</time></trkpt><trkpt lat="43.8686481" lon="6.4705476"><ele>1140.25</ele><time>2026-05-03T08:33:00.131Z</time></trkpt><trkpt lat="43.8686266" lon="6.470723"><ele>1142.5</ele><time>2026-05-03T08:33:01.13Z</time></trkpt><trkpt lat="43.8686221" lon="6.4709015"><ele>1144.75</ele><time>2026-05-03T08:33:02.131Z</time></trkpt><trkpt lat="43.8686255" lon="6.4710757"><ele>1147.0</ele><time>2026-05-03T08:33:03.131Z</time></trkpt><trkpt lat="43.8686072" lon="6.4712291"><ele>1149.4</ele><time>2026-05-03T08:33:04.131Z</time></trkpt><trkpt lat="43.8685656" lon="6.4713455"><ele>1151.8000000000002</ele><time>2026-05-03T08:33:05.131Z</time></trkpt><trkpt lat="43.8684878" lon="6.4714355"><ele>1154.2</ele><time>2026-05-03T08:33:06.131Z</time></trkpt><trkpt lat="43.868403" lon="6.4715108"><ele>1156.6000000000001</ele><time>2026-05-03T08:33:07.131Z</time></trkpt><trkpt lat="43.8682948" lon="6.4715515"><ele>1159.0</ele><time>2026-05-03T08:33:08.131Z</time></trkpt><trkpt lat="43.8682012" lon="6.4716283"><ele>1154.5</ele><time>2026-05-03T08:33:09.13Z</time></trkpt><trkpt lat="43.8681194" lon="6.4717213"><ele>1150.0</ele><time>2026-05-03T08:33:10.13Z</time></trkpt><trkpt lat="43.8680635" lon="6.4719059"><ele>1145.5</ele><time>2026-05-03T08:33:11.13Z</time></trkpt><trkpt lat="43.8679958" lon="6.4720897"><ele>1141.0</ele><time>2026-05-03T08:33:12.131Z</time></trkpt><trkpt lat="43.8679011" lon="6.4722761"><ele>1141.0</ele><time>2026-05-03T08:33:13.131Z</time></trkpt><trkpt lat="43.8678122" lon="6.4724507"><ele>1141.0</ele><time>2026-05-03T08:33:14.13Z</time></trkpt><trkpt lat="43.867712" lon="6.4726243"><ele>1141.0</ele><time>2026-05-03T08:33:15.131Z</time></trkpt><trkpt lat="43.8676226" lon="6.4727904"><ele>1132.0</ele><time>2026-05-03T08:33:16.131Z</time></trkpt><trkpt lat="43.8675404" lon="6.4729327"><ele>1123.0</ele><time>2026-05-03T08:33:17.131Z</time></trkpt><trkpt lat="43.8674701" lon="6.4730719"><ele>1114.0</ele><time>2026-05-03T08:33:18.131Z</time></trkpt><trkpt lat="43.8673931" lon="6.4731996"><ele>1105.0</ele><time>2026-05-03T08:33:19.131Z</time></trkpt><trkpt lat="43.8673236" lon="6.4733494"><ele>1105.0</ele><time>2026-05-03T08:33:20.131Z</time></trkpt><trkpt lat="43.8672835" lon="6.4734767"><ele>1105.0</ele><time>2026-05-03T08:33:21.131Z</time></trkpt><trkpt lat="43.8672576" lon="6.4736292"><ele>1105.0</ele><time>2026-05-03T08:33:22.131Z</time></trkpt><trkpt lat="43.8672632" lon="6.47379"><ele>1105.0</ele><time>2026-05-03T08:33:23.131Z</time></trkpt><trkpt lat="43.867273" lon="6.4739455"><ele>1105.0</ele><time>2026-05-03T08:33:24.131Z</time></trkpt><trkpt lat="43.8672439" lon="6.4740971"><ele>1106.0</ele><time>2026-05-03T08:33:25.131Z</time></trkpt><trkpt lat="43.8671819" lon="6.474252"><ele>1107.0</ele><time>2026-05-03T08:33:26.131Z</time></trkpt><trkpt lat="43.8671036" lon="6.474405"><ele>1108.0</ele><time>2026-05-03T08:33:27.131Z</time></trkpt><trkpt lat="43.8669871" lon="6.4745939"><ele>1109.0</ele><time>2026-05-03T08:33:28.131Z</time></trkpt><trkpt lat="43.8668947" lon="6.4747462"><ele>1112.25</ele><time>2026-05-03T08:33:29.131Z</time></trkpt><trkpt lat="43.8668141" lon="6.4748906"><ele>1115.5</ele><time>2026-05-03T08:33:30.131Z</time></trkpt><trkpt lat="43.8667326" lon="6.47505"><ele>1118.75</ele><time>2026-05-03T08:33:31.13Z</time></trkpt><trkpt lat="43.8666782" lon="6.475226"><ele>1122.0</ele><time>2026-05-03T08:33:32.131Z</time></trkpt><trkpt lat="43.8666349" lon="6.475426"><ele>1117.25</ele><time>2026-05-03T08:33:33.131Z</time></trkpt><trkpt lat="43.8666109" lon="6.4756337"><ele>1112.5</ele><time>2026-05-03T08:33:34.131Z</time></trkpt><trkpt lat="43.8665863" lon="6.4758451"><ele>1107.75</ele><time>2026-05-03T08:33:35.131Z</time></trkpt><trkpt lat="43.8665719" lon="6.4760416"><ele>1103.0</ele><time>2026-05-03T08:33:36.131Z</time></trkpt><trkpt lat="43.8665589" lon="6.4762182"><ele>1104.0</ele><time>2026-05-03T08:33:37.131Z</time></trkpt><trkpt lat="43.8665382" lon="6.4764109"><ele>1105.0</ele><time>2026-05-03T08:33:38.131Z</time></trkpt><trkpt lat="43.866506" lon="6.4766018"><ele>1106.0</ele><time>2026-05-03T08:33:39.131Z</time></trkpt><trkpt lat="43.8664404" lon="6.476803"><ele>1107.0</ele><time>2026-05-03T08:33:40.131Z</time></trkpt><trkpt lat="43.8663459" lon="6.4769492"><ele>1107.0</ele><time>2026-05-03T08:33:41.131Z</time></trkpt><trkpt lat="43.8662467" lon="6.4770937"><ele>1107.0</ele><time>2026-05-03T08:33:42.131Z</time></trkpt><trkpt lat="43.8661389" lon="6.4772367"><ele>1107.0</ele><time>2026-05-03T08:33:43.131Z</time></trkpt><trkpt lat="43.8660238" lon="6.4773775"><ele>1107.0</ele><time>2026-05-03T08:33:44.131Z</time></trkpt><trkpt lat="43.8659137" lon="6.4775037"><ele>1106.75</ele><time>2026-05-03T08:33:45.131Z</time></trkpt><trkpt lat="43.8657991" lon="6.477623"><ele>1106.5</ele><time>2026-05-03T08:33:46.131Z</time></trkpt><trkpt lat="43.8656946" lon="6.4777608"><ele>1106.25</ele><time>2026-05-03T08:33:47.13Z</time></trkpt><trkpt lat="43.8655789" lon="6.4778629"><ele>1106.0</ele><time>2026-05-03T08:33:48.131Z</time></trkpt><trkpt lat="43.8654843" lon="6.4779724"><ele>1106.0</ele><time>2026-05-03T08:33:49.131Z</time></trkpt><trkpt lat="43.8654035" lon="6.4780791"><ele>1106.0</ele><time>2026-05-03T08:33:50.13Z</time></trkpt><trkpt lat="43.8653384" lon="6.4781999"><ele>1106.0</ele><time>2026-05-03T08:33:51.131Z</time></trkpt><trkpt lat="43.8653062" lon="6.4783462"><ele>1106.0</ele><time>2026-05-03T08:33:52.131Z</time></trkpt><trkpt lat="43.8652897" lon="6.4785131"><ele>1106.0</ele><time>2026-05-03T08:33:53.131Z</time></trkpt><trkpt lat="43.865283" lon="6.4787111"><ele>1106.0</ele><time>2026-05-03T08:33:54.13Z</time></trkpt><trkpt lat="43.8652725" lon="6.4789256"><ele>1106.0</ele><time>2026-05-03T08:33:55.131Z</time></trkpt><trkpt lat="43.865257" lon="6.4791271"><ele>1106.0</ele><time>2026-05-03T08:33:56.131Z</time></trkpt><trkpt lat="43.8652279" lon="6.479339"><ele>1108.3333333333335</ele><time>2026-05-03T08:33:57.131Z</time></trkpt><trkpt lat="43.8652098" lon="6.4795455"><ele>1110.6666666666667</ele><time>2026-05-03T08:33:58.13Z</time></trkpt><trkpt lat="43.8651731" lon="6.4797718"><ele>1113.0</ele><time>2026-05-03T08:33:59.13Z</time></trkpt><trkpt lat="43.8651186" lon="6.4799808"><ele>1104.0</ele><time>2026-05-03T08:34:00.131Z</time></trkpt><trkpt lat="43.8650693" lon="6.4801582"><ele>1095.0</ele><time>2026-05-03T08:34:01.131Z</time></trkpt><trkpt lat="43.8650058" lon="6.4803516"><ele>1086.0</ele><time>2026-05-03T08:34:02.13Z</time></trkpt><trkpt lat="43.864967" lon="6.4805715"><ele>1086.0</ele><time>2026-05-03T08:34:03.131Z</time></trkpt><trkpt lat="43.864925" lon="6.4807786"><ele>1086.0</ele><time>2026-05-03T08:34:04.131Z</time></trkpt><trkpt lat="43.8648606" lon="6.4809816"><ele>1086.0</ele><time>2026-05-03T08:34:05.13Z</time></trkpt><trkpt lat="43.8647765" lon="6.4811638"><ele>1090.6666666666667</ele><time>2026-05-03T08:34:06.13Z</time></trkpt><trkpt lat="43.8646811" lon="6.4813359"><ele>1095.3333333333335</ele><time>2026-05-03T08:34:07.131Z</time></trkpt><trkpt lat="43.864581" lon="6.4814844"><ele>1100.0</ele><time>2026-05-03T08:34:08.131Z</time></trkpt><trkpt lat="43.8644631" lon="6.4816069"><ele>1100.0</ele><time>2026-05-03T08:34:09.131Z</time></trkpt><trkpt lat="43.8643472" lon="6.4817233"><ele>1100.0</ele><time>2026-05-03T08:34:10.131Z</time></trkpt><trkpt lat="43.8642537" lon="6.4818319"><ele>1100.0</ele><time>2026-05-03T08:34:11.131Z</time></trkpt><trkpt lat="43.8641484" lon="6.4819575"><ele>1100.0</ele><time>2026-05-03T08:34:12.131Z</time></trkpt><trkpt lat="43.864096" lon="6.4821272"><ele>1090.0</ele><time>2026-05-03T08:34:13.131Z</time></trkpt><trkpt lat="43.8640348" lon="6.4823276"><ele>1080.0</ele><time>2026-05-03T08:34:14.131Z</time></trkpt><trkpt lat="43.863999" lon="6.4825384"><ele>1070.0</ele><time>2026-05-03T08:34:15.13Z</time></trkpt><trkpt lat="43.8639665" lon="6.4827395"><ele>1070.5</ele><time>2026-05-03T08:34:16.131Z</time></trkpt><trkpt lat="43.8639379" lon="6.4829447"><ele>1071.0</ele><time>2026-05-03T08:34:17.131Z</time></trkpt><trkpt lat="43.8639104" lon="6.4831482"><ele>1071.5</ele><time>2026-05-03T08:34:18.131Z</time></trkpt><trkpt lat="43.8639106" lon="6.4833147"><ele>1072.0</ele><time>2026-05-03T08:34:19.131Z</time></trkpt><trkpt lat="43.8639009" lon="6.4834852"><ele>1072.0</ele><time>2026-05-03T08:34:20.131Z</time></trkpt><trkpt lat="43.8639156" lon="6.4836562"><ele>1072.0</ele><time>2026-05-03T08:34:21.131Z</time></trkpt><trkpt lat="43.8639539" lon="6.4838369"><ele>1072.0</ele><time>2026-05-03T08:34:22.13Z</time></trkpt><trkpt lat="43.8639928" lon="6.4840113"><ele>1072.0</ele><time>2026-05-03T08:34:23.131Z</time></trkpt><trkpt lat="43.8640581" lon="6.4842064"><ele>1069.5</ele><time>2026-05-03T08:34:24.13Z</time></trkpt><trkpt lat="43.8640898" lon="6.4844023"><ele>1067.0</ele><time>2026-05-03T08:34:25.13Z</time></trkpt><trkpt lat="43.8640936" lon="6.4845758"><ele>1064.5</ele><time>2026-05-03T08:34:26.131Z</time></trkpt><trkpt lat="43.864089" lon="6.4847609"><ele>1062.0</ele><time>2026-05-03T08:34:27.131Z</time></trkpt><trkpt lat="43.8641093" lon="6.4848808"><ele>1061.4</ele><time>2026-05-03T08:34:28.131Z</time></trkpt><trkpt lat="43.8641423" lon="6.4850124"><ele>1060.8000000000002</ele><time>2026-05-03T08:34:29.13Z</time></trkpt><trkpt lat="43.864225" lon="6.4851036"><ele>1060.2</ele><time>2026-05-03T08:34:30.131Z</time></trkpt><trkpt lat="43.8643257" lon="6.4851621"><ele>1059.6000000000001</ele><time>2026-05-03T08:34:31.131Z</time></trkpt><trkpt lat="43.8644292" lon="6.4852149"><ele>1059.0</ele><time>2026-05-03T08:34:32.131Z</time></trkpt><trkpt lat="43.8645293" lon="6.4851949"><ele>1059.0</ele><time>2026-05-03T08:34:33.13Z</time></trkpt><trkpt lat="43.8646333" lon="6.4851347"><ele>1059.0</ele><time>2026-05-03T08:34:34.131Z</time></trkpt><trkpt lat="43.86474" lon="6.4850893"><ele>1059.0</ele><time>2026-05-03T08:34:35.131Z</time></trkpt><trkpt lat="43.864813" lon="6.4850407"><ele>1059.0</ele><time>2026-05-03T08:34:36.131Z</time></trkpt><trkpt lat="43.8648758" lon="6.4850193"><ele>1059.0</ele><time>2026-05-03T08:34:37.131Z</time></trkpt><trkpt lat="43.8649692" lon="6.4851134"><ele>1059.0</ele><time>2026-05-03T08:34:39.13Z</time></trkpt><trkpt lat="43.8649321" lon="6.4852524"><ele>1059.0</ele><time>2026-05-03T08:34:41.131Z</time></trkpt><trkpt lat="43.8648346" lon="6.485311"><ele>1059.0</ele><time>2026-05-03T08:34:42.13Z</time></trkpt><trkpt lat="43.8647174" lon="6.485367"><ele>1059.0</ele><time>2026-05-03T08:34:43.131Z</time></trkpt><trkpt lat="43.8645926" lon="6.4854243"><ele>1056.75</ele><time>2026-05-03T08:34:44.131Z</time></trkpt><trkpt lat="43.8644668" lon="6.4854883"><ele>1054.5</ele><time>2026-05-03T08:34:45.131Z</time></trkpt><trkpt lat="43.8643495" lon="6.4855413"><ele>1052.25</ele><time>2026-05-03T08:34:46.13Z</time></trkpt><trkpt lat="43.8642345" lon="6.4855822"><ele>1050.0</ele><time>2026-05-03T08:34:47.131Z</time></trkpt><trkpt lat="43.8641098" lon="6.4855966"><ele>1050.0</ele><time>2026-05-03T08:34:48.131Z</time></trkpt><trkpt lat="43.863981" lon="6.4855814"><ele>1050.0</ele><time>2026-05-03T08:34:49.131Z</time></trkpt><trkpt lat="43.8638714" lon="6.4855253"><ele>1050.0</ele><time>2026-05-03T08:34:50.13Z</time></trkpt><trkpt lat="43.8637701" lon="6.4854644"><ele>1050.0</ele><time>2026-05-03T08:34:51.13Z</time></trkpt><trkpt lat="43.8636782" lon="6.4853983"><ele>1051.0</ele><time>2026-05-03T08:34:52.13Z</time></trkpt><trkpt lat="43.8635965" lon="6.4853585"><ele>1052.0</ele><time>2026-05-03T08:34:53.131Z</time></trkpt><trkpt lat="43.8635121" lon="6.4853576"><ele>1053.0</ele><time>2026-05-03T08:34:54.131Z</time></trkpt><trkpt lat="43.8634474" lon="6.4854072"><ele>1054.0</ele><time>2026-05-03T08:34:55.131Z</time></trkpt><trkpt lat="43.863407" lon="6.4855001"><ele>1055.0</ele><time>2026-05-03T08:34:56.13Z</time></trkpt><trkpt lat="43.8633691" lon="6.4855998"><ele>1056.0</ele><time>2026-05-03T08:34:57.13Z</time></trkpt><trkpt lat="43.8634018" lon="6.4856878"><ele>1054.5</ele><time>2026-05-03T08:34:58.13Z</time></trkpt><trkpt lat="43.8634898" lon="6.4857751"><ele>1053.0</ele><time>2026-05-03T08:34:59.131Z</time></trkpt><trkpt lat="43.8636008" lon="6.485855"><ele>1051.5</ele><time>2026-05-03T08:35:00.13Z</time></trkpt><trkpt lat="43.8637223" lon="6.4859452"><ele>1050.0</ele><time>2026-05-03T08:35:01.131Z</time></trkpt><trkpt lat="43.8638438" lon="6.4860829"><ele>1050.0</ele><time>2026-05-03T08:35:02.13Z</time></trkpt><trkpt lat="43.863947" lon="6.4862382"><ele>1050.0</ele><time>2026-05-03T08:35:03.131Z</time></trkpt><trkpt lat="43.8640404" lon="6.4863914"><ele>1050.0</ele><time>2026-05-03T08:35:04.131Z</time></trkpt><trkpt lat="43.8641361" lon="6.486534"><ele>1050.0</ele><time>2026-05-03T08:35:05.131Z</time></trkpt><trkpt lat="43.8642367" lon="6.4866772"><ele>1046.0</ele><time>2026-05-03T08:35:06.131Z</time></trkpt><trkpt lat="43.8643464" lon="6.4868006"><ele>1042.0</ele><time>2026-05-03T08:35:07.131Z</time></trkpt><trkpt lat="43.8644535" lon="6.4869065"><ele>1038.0</ele><time>2026-05-03T08:35:08.13Z</time></trkpt><trkpt lat="43.864567" lon="6.4869985"><ele>1034.0</ele><time>2026-05-03T08:35:09.13Z</time></trkpt><trkpt lat="43.8647044" lon="6.4870406"><ele>1034.0</ele><time>2026-05-03T08:35:10.131Z</time></trkpt><trkpt lat="43.8648508" lon="6.4870431"><ele>1034.0</ele><time>2026-05-03T08:35:11.131Z</time></trkpt><trkpt lat="43.8649812" lon="6.487027"><ele>1034.0</ele><time>2026-05-03T08:35:12.131Z</time></trkpt><trkpt lat="43.8651028" lon="6.4869818"><ele>1034.0</ele><time>2026-05-03T08:35:13.13Z</time></trkpt><trkpt lat="43.8652038" lon="6.4869188"><ele>1031.25</ele><time>2026-05-03T08:35:14.131Z</time></trkpt><trkpt lat="43.8652817" lon="6.4867676"><ele>1028.5</ele><time>2026-05-03T08:35:15.131Z</time></trkpt><trkpt lat="43.8653352" lon="6.4866366"><ele>1025.75</ele><time>2026-05-03T08:35:16.13Z</time></trkpt><trkpt lat="43.8654049" lon="6.4865155"><ele>1023.0</ele><time>2026-05-03T08:35:17.13Z</time></trkpt><trkpt lat="43.8654693" lon="6.4864036"><ele>1023.0</ele><time>2026-05-03T08:35:18.13Z</time></trkpt><trkpt lat="43.8655613" lon="6.4863691"><ele>1023.0</ele><time>2026-05-03T08:35:19.131Z</time></trkpt><trkpt lat="43.8656814" lon="6.4863838"><ele>1023.0</ele><time>2026-05-03T08:35:20.131Z</time></trkpt><trkpt lat="43.8658228" lon="6.4864267"><ele>1023.0</ele><time>2026-05-03T08:35:21.131Z</time></trkpt><trkpt lat="43.8659768" lon="6.4864796"><ele>1021.0</ele><time>2026-05-03T08:35:22.13Z</time></trkpt><trkpt lat="43.8661221" lon="6.4865321"><ele>1019.0</ele><time>2026-05-03T08:35:23.131Z</time></trkpt><trkpt lat="43.8662593" lon="6.4865695"><ele>1017.0</ele><time>2026-05-03T08:35:24.131Z</time></trkpt><trkpt lat="43.866401" lon="6.4865735"><ele>1015.0</ele><time>2026-05-03T08:35:25.131Z</time></trkpt><trkpt lat="43.8665465" lon="6.4865385"><ele>1015.0</ele><time>2026-05-03T08:35:26.131Z</time></trkpt><trkpt lat="43.8666887" lon="6.486468"><ele>1015.0</ele><time>2026-05-03T08:35:27.131Z</time></trkpt><trkpt lat="43.8668279" lon="6.4863737"><ele>1015.0</ele><time>2026-05-03T08:35:28.131Z</time></trkpt><trkpt lat="43.8669535" lon="6.4862739"><ele>1015.2</ele><time>2026-05-03T08:35:29.13Z</time></trkpt><trkpt lat="43.8670731" lon="6.4861794"><ele>1015.4</ele><time>2026-05-03T08:35:30.131Z</time></trkpt><trkpt lat="43.867163" lon="6.4860996"><ele>1015.5999999999999</ele><time>2026-05-03T08:35:31.131Z</time></trkpt><trkpt lat="43.8672486" lon="6.4860846"><ele>1015.8</ele><time>2026-05-03T08:35:32.131Z</time></trkpt><trkpt lat="43.8673386" lon="6.4860901"><ele>1016.0</ele><time>2026-05-03T08:35:33.131Z</time></trkpt><trkpt lat="43.8674166" lon="6.4861556"><ele>1016.0</ele><time>2026-05-03T08:35:34.131Z</time></trkpt><trkpt lat="43.8674656" lon="6.4862603"><ele>1015.9999999999999</ele><time>2026-05-03T08:35:35.131Z</time></trkpt><trkpt lat="43.8674886" lon="6.4863913"><ele>1015.9999999999999</ele><time>2026-05-03T08:35:36.131Z</time></trkpt><trkpt lat="43.8674493" lon="6.4865561"><ele>1016.0</ele><time>2026-05-03T08:35:37.131Z</time></trkpt><trkpt lat="43.8673939" lon="6.4867027"><ele>1016.0</ele><time>2026-05-03T08:35:38.131Z</time></trkpt><trkpt lat="43.8672995" lon="6.4868467"><ele>1012.0</ele><time>2026-05-03T08:35:39.131Z</time></trkpt><trkpt lat="43.8671445" lon="6.4870014"><ele>1008.0</ele><time>2026-05-03T08:35:40.131Z</time></trkpt><trkpt lat="43.8670176" lon="6.4871151"><ele>1004.0</ele><time>2026-05-03T08:35:41.131Z</time></trkpt><trkpt lat="43.8668904" lon="6.4872242"><ele>1002.0</ele><time>2026-05-03T08:35:42.13Z</time></trkpt><trkpt lat="43.8667723" lon="6.4873369"><ele>1000.0</ele><time>2026-05-03T08:35:43.131Z</time></trkpt><trkpt lat="43.86663" lon="6.4873631"><ele>998.0</ele><time>2026-05-03T08:35:44.131Z</time></trkpt><trkpt lat="43.8664968" lon="6.4873791"><ele>996.0</ele><time>2026-05-03T08:35:45.131Z</time></trkpt><trkpt lat="43.8663733" lon="6.4874061"><ele>996.0</ele><time>2026-05-03T08:35:46.131Z</time></trkpt><trkpt lat="43.8662724" lon="6.4874512"><ele>996.0</ele><time>2026-05-03T08:35:47.131Z</time></trkpt><trkpt lat="43.8661859" lon="6.4875271"><ele>996.0</ele><time>2026-05-03T08:35:48.131Z</time></trkpt><trkpt lat="43.866119" lon="6.4876396"><ele>996.0</ele><time>2026-05-03T08:35:49.131Z</time></trkpt><trkpt lat="43.8660656" lon="6.4878134"><ele>996.25</ele><time>2026-05-03T08:35:50.131Z</time></trkpt><trkpt lat="43.8660066" lon="6.4880036"><ele>996.5</ele><time>2026-05-03T08:35:51.13Z</time></trkpt><trkpt lat="43.8659498" lon="6.4881962"><ele>996.75</ele><time>2026-05-03T08:35:52.13Z</time></trkpt><trkpt lat="43.865892" lon="6.488368"><ele>997.0</ele><time>2026-05-03T08:35:53.131Z</time></trkpt><trkpt lat="43.8658255" lon="6.4885185"><ele>997.0</ele><time>2026-05-03T08:35:54.131Z</time></trkpt><trkpt lat="43.8657421" lon="6.4886792"><ele>997.0</ele><time>2026-05-03T08:35:55.131Z</time></trkpt><trkpt lat="43.8656474" lon="6.4888244"><ele>997.0</ele><time>2026-05-03T08:35:56.131Z</time></trkpt><trkpt lat="43.8655516" lon="6.4889462"><ele>997.0</ele><time>2026-05-03T08:35:57.131Z</time></trkpt><trkpt lat="43.8654375" lon="6.4890456"><ele>994.75</ele><time>2026-05-03T08:35:58.131Z</time></trkpt><trkpt lat="43.8653276" lon="6.4891244"><ele>992.5</ele><time>2026-05-03T08:35:59.131Z</time></trkpt><trkpt lat="43.8651819" lon="6.4891795"><ele>990.25</ele><time>2026-05-03T08:36:00.131Z</time></trkpt><trkpt lat="43.8650495" lon="6.4892219"><ele>988.0</ele><time>2026-05-03T08:36:01.131Z</time></trkpt><trkpt lat="43.864919" lon="6.489286"><ele>988.0</ele><time>2026-05-03T08:36:02.13Z</time></trkpt><trkpt lat="43.8648077" lon="6.4893698"><ele>988.0</ele><time>2026-05-03T08:36:03.13Z</time></trkpt><trkpt lat="43.8647001" lon="6.4894749"><ele>988.0</ele><time>2026-05-03T08:36:04.131Z</time></trkpt><trkpt lat="43.8645892" lon="6.4895691"><ele>988.0</ele><time>2026-05-03T08:36:05.131Z</time></trkpt><trkpt lat="43.8644615" lon="6.4896432"><ele>983.25</ele><time>2026-05-03T08:36:06.131Z</time></trkpt><trkpt lat="43.8643225" lon="6.4896767"><ele>978.5</ele><time>2026-05-03T08:36:07.131Z</time></trkpt><trkpt lat="43.8641763" lon="6.4897072"><ele>973.75</ele><time>2026-05-03T08:36:08.131Z</time></trkpt><trkpt lat="43.8640323" lon="6.4897471"><ele>969.0</ele><time>2026-05-03T08:36:09.131Z</time></trkpt><trkpt lat="43.8638902" lon="6.4897878"><ele>969.5</ele><time>2026-05-03T08:36:10.131Z</time></trkpt><trkpt lat="43.8637423" lon="6.4898389"><ele>970.0</ele><time>2026-05-03T08:36:11.13Z</time></trkpt><trkpt lat="43.8635993" lon="6.4898981"><ele>970.5</ele><time>2026-05-03T08:36:12.131Z</time></trkpt><trkpt lat="43.8634627" lon="6.4899616"><ele>971.0</ele><time>2026-05-03T08:36:13.131Z</time></trkpt><trkpt lat="43.8633321" lon="6.4900242"><ele>971.0</ele><time>2026-05-03T08:36:14.131Z</time></trkpt><trkpt lat="43.8632122" lon="6.4900483"><ele>971.0</ele><time>2026-05-03T08:36:15.131Z</time></trkpt><trkpt lat="43.8630788" lon="6.4899801"><ele>971.0</ele><time>2026-05-03T08:36:16.131Z</time></trkpt><trkpt lat="43.862935" lon="6.4899169"><ele>971.0</ele><time>2026-05-03T08:36:17.131Z</time></trkpt><trkpt lat="43.8627863" lon="6.4898633"><ele>971.0</ele><time>2026-05-03T08:36:18.131Z</time></trkpt><trkpt lat="43.862637" lon="6.4898257"><ele>971.0</ele><time>2026-05-03T08:36:19.131Z</time></trkpt><trkpt lat="43.8625067" lon="6.4897958"><ele>971.0</ele><time>2026-05-03T08:36:20.131Z</time></trkpt><trkpt lat="43.8623751" lon="6.4897723"><ele>971.0</ele><time>2026-05-03T08:36:21.131Z</time></trkpt><trkpt lat="43.8622315" lon="6.4897711"><ele>970.5999999999999</ele><time>2026-05-03T08:36:22.131Z</time></trkpt><trkpt lat="43.862115" lon="6.4897795"><ele>970.1999999999999</ele><time>2026-05-03T08:36:23.13Z</time></trkpt><trkpt lat="43.8620193" lon="6.4897753"><ele>969.8000000000001</ele><time>2026-05-03T08:36:24.131Z</time></trkpt><trkpt lat="43.8619275" lon="6.4897248"><ele>969.4000000000001</ele><time>2026-05-03T08:36:25.131Z</time></trkpt><trkpt lat="43.8618344" lon="6.4896523"><ele>969.0</ele><time>2026-05-03T08:36:26.131Z</time></trkpt><trkpt lat="43.8617889" lon="6.4895403"><ele>968.1666666666666</ele><time>2026-05-03T08:36:27.131Z</time></trkpt><trkpt lat="43.8617414" lon="6.4894516"><ele>967.3333333333333</ele><time>2026-05-03T08:36:28.131Z</time></trkpt><trkpt lat="43.8616854" lon="6.4893932"><ele>966.5</ele><time>2026-05-03T08:36:29.131Z</time></trkpt><trkpt lat="43.8615755" lon="6.4894165"><ele>965.6666666666666</ele><time>2026-05-03T08:36:31.131Z</time></trkpt><trkpt lat="43.8615458" lon="6.4894961"><ele>964.8333333333333</ele><time>2026-05-03T08:36:32.131Z</time></trkpt><trkpt lat="43.8615276" lon="6.4895813"><ele>964.0</ele><time>2026-05-03T08:36:33.131Z</time></trkpt><trkpt lat="43.8615959" lon="6.4897137"><ele>965.6666666666666</ele><time>2026-05-03T08:36:34.131Z</time></trkpt><trkpt lat="43.8616989" lon="6.4898678"><ele>967.3333333333333</ele><time>2026-05-03T08:36:35.131Z</time></trkpt><trkpt lat="43.8618103" lon="6.490026"><ele>969.0</ele><time>2026-05-03T08:36:36.13Z</time></trkpt><trkpt lat="43.8619328" lon="6.4901919"><ele>969.0</ele><time>2026-05-03T08:36:37.131Z</time></trkpt><trkpt lat="43.8620466" lon="6.4903505"><ele>969.0</ele><time>2026-05-03T08:36:38.13Z</time></trkpt><trkpt lat="43.8621554" lon="6.4905017"><ele>969.0</ele><time>2026-05-03T08:36:39.13Z</time></trkpt><trkpt lat="43.8622643" lon="6.4906296"><ele>964.75</ele><time>2026-05-03T08:36:40.131Z</time></trkpt><trkpt lat="43.8623673" lon="6.4907393"><ele>960.5</ele><time>2026-05-03T08:36:41.131Z</time></trkpt><trkpt lat="43.862461" lon="6.49085"><ele>956.25</ele><time>2026-05-03T08:36:42.13Z</time></trkpt><trkpt lat="43.8626039" lon="6.4908899"><ele>952.0</ele><time>2026-05-03T08:36:43.131Z</time></trkpt><trkpt lat="43.8627333" lon="6.4909371"><ele>950.75</ele><time>2026-05-03T08:36:44.131Z</time></trkpt><trkpt lat="43.8628537" lon="6.490991"><ele>949.5</ele><time>2026-05-03T08:36:45.13Z</time></trkpt><trkpt lat="43.8629631" lon="6.4910019"><ele>948.25</ele><time>2026-05-03T08:36:46.131Z</time></trkpt><trkpt lat="43.8630826" lon="6.4909777"><ele>947.0</ele><time>2026-05-03T08:36:47.13Z</time></trkpt><trkpt lat="43.8632174" lon="6.4909208"><ele>947.0</ele><time>2026-05-03T08:36:48.131Z</time></trkpt><trkpt lat="43.8633488" lon="6.4908546"><ele>947.0</ele><time>2026-05-03T08:36:49.13Z</time></trkpt><trkpt lat="43.8634671" lon="6.4907927"><ele>947.0</ele><time>2026-05-03T08:36:50.131Z</time></trkpt><trkpt lat="43.8636296" lon="6.4907101"><ele>947.0</ele><time>2026-05-03T08:36:51.131Z</time></trkpt><trkpt lat="43.863767" lon="6.4906607"><ele>942.6666666666667</ele><time>2026-05-03T08:36:52.131Z</time></trkpt><trkpt lat="43.8639279" lon="6.4906206"><ele>938.3333333333333</ele><time>2026-05-03T08:36:53.13Z</time></trkpt><trkpt lat="43.8640824" lon="6.4905956"><ele>934.0</ele><time>2026-05-03T08:36:54.131Z</time></trkpt><trkpt lat="43.8642365" lon="6.4905978"><ele>933.0</ele><time>2026-05-03T08:36:55.131Z</time></trkpt><trkpt lat="43.8643672" lon="6.4906286"><ele>932.0</ele><time>2026-05-03T08:36:56.131Z</time></trkpt><trkpt lat="43.8645304" lon="6.4906064"><ele>931.0</ele><time>2026-05-03T08:36:57.131Z</time></trkpt><trkpt lat="43.8646743" lon="6.4906303"><ele>930.0</ele><time>2026-05-03T08:36:58.131Z</time></trkpt><trkpt lat="43.8648272" lon="6.4906709"><ele>930.0</ele><time>2026-05-03T08:36:59.13Z</time></trkpt><trkpt lat="43.8649738" lon="6.4906348"><ele>930.0</ele><time>2026-05-03T08:37:00.13Z</time></trkpt><trkpt lat="43.8651133" lon="6.4906569"><ele>930.0</ele><time>2026-05-03T08:37:01.131Z</time></trkpt><trkpt lat="43.8652423" lon="6.4906949"><ele>930.0</ele><time>2026-05-03T08:37:02.131Z</time></trkpt><trkpt lat="43.8653881" lon="6.490729"><ele>931.75</ele><time>2026-05-03T08:37:03.131Z</time></trkpt><trkpt lat="43.8655245" lon="6.4907687"><ele>933.5</ele><time>2026-05-03T08:37:04.131Z</time></trkpt><trkpt lat="43.8656485" lon="6.4908403"><ele>935.25</ele><time>2026-05-03T08:37:05.131Z</time></trkpt><trkpt lat="43.8657702" lon="6.4909146"><ele>937.0</ele><time>2026-05-03T08:37:06.131Z</time></trkpt><trkpt lat="43.8659077" lon="6.4909967"><ele>934.75</ele><time>2026-05-03T08:37:07.131Z</time></trkpt><trkpt lat="43.8660393" lon="6.4910669"><ele>932.5</ele><time>2026-05-03T08:37:08.131Z</time></trkpt><trkpt lat="43.8661679" lon="6.4911076"><ele>930.25</ele><time>2026-05-03T08:37:09.131Z</time></trkpt><trkpt lat="43.8662794" lon="6.4911264"><ele>928.0</ele><time>2026-05-03T08:37:10.13Z</time></trkpt><trkpt lat="43.8663688" lon="6.4911546"><ele>928.0</ele><time>2026-05-03T08:37:11.131Z</time></trkpt><trkpt lat="43.8664519" lon="6.4911891"><ele>928.0</ele><time>2026-05-03T08:37:12.131Z</time></trkpt><trkpt lat="43.8665325" lon="6.4911988"><ele>928.0</ele><time>2026-05-03T08:37:13.131Z</time></trkpt><trkpt lat="43.8665539" lon="6.4913012"><ele>928.0</ele><time>2026-05-03T08:37:14.13Z</time></trkpt><trkpt lat="43.8665183" lon="6.4914694"><ele>928.0</ele><time>2026-05-03T08:37:16.131Z</time></trkpt><trkpt lat="43.8664256" lon="6.4914966"><ele>922.0</ele><time>2026-05-03T08:37:17.131Z</time></trkpt><trkpt lat="43.8663266" lon="6.4915015"><ele>916.0</ele><time>2026-05-03T08:37:18.13Z</time></trkpt><trkpt lat="43.8661899" lon="6.4914414"><ele>910.0</ele><time>2026-05-03T08:37:19.131Z</time></trkpt><trkpt lat="43.8660237" lon="6.4913772"><ele>904.0</ele><time>2026-05-03T08:37:20.131Z</time></trkpt><trkpt lat="43.8658748" lon="6.491304"><ele>915.0</ele><time>2026-05-03T08:37:21.131Z</time></trkpt><trkpt lat="43.8657154" lon="6.491249"><ele>926.0</ele><time>2026-05-03T08:37:22.131Z</time></trkpt><trkpt lat="43.8655687" lon="6.491201"><ele>937.0</ele><time>2026-05-03T08:37:23.13Z</time></trkpt><trkpt lat="43.86541" lon="6.4911638"><ele>937.0</ele><time>2026-05-03T08:37:24.131Z</time></trkpt><trkpt lat="43.8652718" lon="6.491112"><ele>937.0</ele><time>2026-05-03T08:37:25.131Z</time></trkpt><trkpt lat="43.8651055" lon="6.4911094"><ele>937.0</ele><time>2026-05-03T08:37:26.131Z</time></trkpt><trkpt lat="43.8649259" lon="6.4911251"><ele>934.6666666666666</ele><time>2026-05-03T08:37:27.131Z</time></trkpt><trkpt lat="43.8647581" lon="6.49117"><ele>932.3333333333333</ele><time>2026-05-03T08:37:28.13Z</time></trkpt><trkpt lat="43.8645996" lon="6.4912246"><ele>930.0</ele><time>2026-05-03T08:37:29.131Z</time></trkpt><trkpt lat="43.8644255" lon="6.4912649"><ele>918.6666666666667</ele><time>2026-05-03T08:37:30.131Z</time></trkpt><trkpt lat="43.8642714" lon="6.4913192"><ele>907.3333333333334</ele><time>2026-05-03T08:37:31.131Z</time></trkpt><trkpt lat="43.8641293" lon="6.4913812"><ele>896.0</ele><time>2026-05-03T08:37:32.131Z</time></trkpt><trkpt lat="43.8639794" lon="6.4914785"><ele>896.0</ele><time>2026-05-03T08:37:33.13Z</time></trkpt><trkpt lat="43.8638407" lon="6.4915865"><ele>896.0</ele><time>2026-05-03T08:37:34.131Z</time></trkpt><trkpt lat="43.863707" lon="6.4917069"><ele>896.0</ele><time>2026-05-03T08:37:35.131Z</time></trkpt><trkpt lat="43.8635828" lon="6.4918289"><ele>896.0</ele><time>2026-05-03T08:37:36.131Z</time></trkpt><trkpt lat="43.863454" lon="6.4919459"><ele>896.0</ele><time>2026-05-03T08:37:37.131Z</time></trkpt><trkpt lat="43.8633281" lon="6.4920535"><ele>896.0</ele><time>2026-05-03T08:37:38.131Z</time></trkpt><trkpt lat="43.8631867" lon="6.492162"><ele>890.3333333333334</ele><time>2026-05-03T08:37:39.131Z</time></trkpt><trkpt lat="43.8630339" lon="6.4922289"><ele>884.6666666666667</ele><time>2026-05-03T08:37:40.131Z</time></trkpt><trkpt lat="43.8628854" lon="6.4922916"><ele>879.0</ele><time>2026-05-03T08:37:41.131Z</time></trkpt><trkpt lat="43.862737" lon="6.4923377"><ele>884.0</ele><time>2026-05-03T08:37:42.131Z</time></trkpt><trkpt lat="43.8625862" lon="6.4923998"><ele>889.0</ele><time>2026-05-03T08:37:43.131Z</time></trkpt><trkpt lat="43.8624374" lon="6.4924804"><ele>894.0</ele><time>2026-05-03T08:37:44.131Z</time></trkpt><trkpt lat="43.8622882" lon="6.492562"><ele>894.0</ele><time>2026-05-03T08:37:45.131Z</time></trkpt><trkpt lat="43.8621398" lon="6.4926486"><ele>894.0</ele><time>2026-05-03T08:37:46.131Z</time></trkpt><trkpt lat="43.8620003" lon="6.4927102"><ele>894.0</ele><time>2026-05-03T08:37:47.131Z</time></trkpt><trkpt lat="43.8618758" lon="6.4927607"><ele>894.0</ele><time>2026-05-03T08:37:48.131Z</time></trkpt><trkpt lat="43.8617564" lon="6.4927993"><ele>896.25</ele><time>2026-05-03T08:37:49.131Z</time></trkpt><trkpt lat="43.8616344" lon="6.4927943"><ele>898.5</ele><time>2026-05-03T08:37:50.131Z</time></trkpt><trkpt lat="43.8614931" lon="6.4927498"><ele>900.75</ele><time>2026-05-03T08:37:51.131Z</time></trkpt><trkpt lat="43.8613532" lon="6.4927224"><ele>903.0</ele><time>2026-05-03T08:37:52.131Z</time></trkpt><trkpt lat="43.8612034" lon="6.492718"><ele>903.0</ele><time>2026-05-03T08:37:53.131Z</time></trkpt><trkpt lat="43.861043" lon="6.4926982"><ele>903.0</ele><time>2026-05-03T08:37:54.13Z</time></trkpt><trkpt lat="43.8608792" lon="6.4926779"><ele>903.0</ele><time>2026-05-03T08:37:55.131Z</time></trkpt><trkpt lat="43.8607153" lon="6.4926459"><ele>899.0</ele><time>2026-05-03T08:37:56.131Z</time></trkpt><trkpt lat="43.8605627" lon="6.4926326"><ele>895.0</ele><time>2026-05-03T08:37:57.131Z</time></trkpt><trkpt lat="43.8603904" lon="6.4926173"><ele>891.0</ele><time>2026-05-03T08:37:58.131Z</time></trkpt><trkpt lat="43.8602515" lon="6.4926434"><ele>891.0</ele><time>2026-05-03T08:37:59.131Z</time></trkpt><trkpt lat="43.8601232" lon="6.4927124"><ele>890.9999999999999</ele><time>2026-05-03T08:38:00.13Z</time></trkpt><trkpt lat="43.8600119" lon="6.4927599"><ele>890.9999999999999</ele><time>2026-05-03T08:38:01.131Z</time></trkpt><trkpt lat="43.8599379" lon="6.4928032"><ele>891.0</ele><time>2026-05-03T08:38:02.131Z</time></trkpt><trkpt lat="43.8598519" lon="6.4928169"><ele>891.0</ele><time>2026-05-03T08:38:03.131Z</time></trkpt><trkpt lat="43.8597816" lon="6.4928023"><ele>887.4</ele><time>2026-05-03T08:38:04.131Z</time></trkpt><trkpt lat="43.859706" lon="6.4927684"><ele>883.8</ele><time>2026-05-03T08:38:05.131Z</time></trkpt><trkpt lat="43.8596963" lon="6.4926405"><ele>880.1999999999999</ele><time>2026-05-03T08:38:06.131Z</time></trkpt><trkpt lat="43.8596914" lon="6.4925108"><ele>876.5999999999999</ele><time>2026-05-03T08:38:07.13Z</time></trkpt><trkpt lat="43.8597365" lon="6.4923708"><ele>873.0</ele><time>2026-05-03T08:38:08.131Z</time></trkpt><trkpt lat="43.8598226" lon="6.4922039"><ele>869.75</ele><time>2026-05-03T08:38:09.131Z</time></trkpt><trkpt lat="43.8598862" lon="6.4920354"><ele>866.5</ele><time>2026-05-03T08:38:10.131Z</time></trkpt><trkpt lat="43.8599384" lon="6.4918759"><ele>863.25</ele><time>2026-05-03T08:38:11.13Z</time></trkpt><trkpt lat="43.8599964" lon="6.4916967"><ele>860.0</ele><time>2026-05-03T08:38:12.131Z</time></trkpt><trkpt lat="43.860107" lon="6.4916102"><ele>870.25</ele><time>2026-05-03T08:38:13.13Z</time></trkpt><trkpt lat="43.860211" lon="6.4915147"><ele>880.5</ele><time>2026-05-03T08:38:14.131Z</time></trkpt><trkpt lat="43.8602983" lon="6.4914125"><ele>890.75</ele><time>2026-05-03T08:38:15.131Z</time></trkpt><trkpt lat="43.8603942" lon="6.4913015"><ele>901.0</ele><time>2026-05-03T08:38:16.131Z</time></trkpt><trkpt lat="43.860448" lon="6.4912079"><ele>901.5</ele><time>2026-05-03T08:38:17.131Z</time></trkpt><trkpt lat="43.8604054" lon="6.4910248"><ele>902.0</ele><time>2026-05-03T08:38:18.131Z</time></trkpt><trkpt lat="43.8603611" lon="6.4908686"><ele>902.5</ele><time>2026-05-03T08:38:19.13Z</time></trkpt><trkpt lat="43.8602965" lon="6.4907303"><ele>903.0</ele><time>2026-05-03T08:38:20.131Z</time></trkpt><trkpt lat="43.8602296" lon="6.4906209"><ele>903.0</ele><time>2026-05-03T08:38:21.131Z</time></trkpt><trkpt lat="43.8601853" lon="6.4904869"><ele>903.0</ele><time>2026-05-03T08:38:22.131Z</time></trkpt><trkpt lat="43.8601711" lon="6.4903408"><ele>903.0</ele><time>2026-05-03T08:38:23.13Z</time></trkpt><trkpt lat="43.8601855" lon="6.4901717"><ele>903.0</ele><time>2026-05-03T08:38:24.131Z</time></trkpt><trkpt lat="43.8601838" lon="6.4899692"><ele>904.0</ele><time>2026-05-03T08:38:25.13Z</time></trkpt><trkpt lat="43.860166" lon="6.4897773"><ele>905.0</ele><time>2026-05-03T08:38:26.131Z</time></trkpt><trkpt lat="43.8601346" lon="6.4895957"><ele>906.0</ele><time>2026-05-03T08:38:27.131Z</time></trkpt><trkpt lat="43.8601082" lon="6.4894478"><ele>907.0</ele><time>2026-05-03T08:38:28.131Z</time></trkpt><trkpt lat="43.8600775" lon="6.4893408"><ele>898.9999999999999</ele><time>2026-05-03T08:38:29.131Z</time></trkpt><trkpt lat="43.8600163" lon="6.4892765"><ele>891.0</ele><time>2026-05-03T08:38:30.131Z</time></trkpt><trkpt lat="43.8599439" lon="6.4892514"><ele>883.0</ele><time>2026-05-03T08:38:31.131Z</time></trkpt><trkpt lat="43.8598817" lon="6.4892711"><ele>875.0</ele><time>2026-05-03T08:38:32.131Z</time></trkpt><trkpt lat="43.8598158" lon="6.4893333"><ele>866.9999999999999</ele><time>2026-05-03T08:38:33.131Z</time></trkpt><trkpt lat="43.8597508" lon="6.489419"><ele>859.0</ele><time>2026-05-03T08:38:34.131Z</time></trkpt><trkpt lat="43.8597509" lon="6.4895512"><ele>858.5</ele><time>2026-05-03T08:38:35.131Z</time></trkpt><trkpt lat="43.8598257" lon="6.4897043"><ele>858.0</ele><time>2026-05-03T08:38:36.131Z</time></trkpt><trkpt lat="43.8598903" lon="6.4898678"><ele>857.5</ele><time>2026-05-03T08:38:37.131Z</time></trkpt><trkpt lat="43.8599376" lon="6.4900477"><ele>857.0</ele><time>2026-05-03T08:38:38.131Z</time></trkpt><trkpt lat="43.8599239" lon="6.4902569"><ele>855.0</ele><time>2026-05-03T08:38:39.131Z</time></trkpt><trkpt lat="43.8599112" lon="6.4904314"><ele>853.0</ele><time>2026-05-03T08:38:40.131Z</time></trkpt><trkpt lat="43.8599098" lon="6.4905979"><ele>851.0</ele><time>2026-05-03T08:38:41.131Z</time></trkpt><trkpt lat="43.8599659" lon="6.4907456"><ele>849.0</ele><time>2026-05-03T08:38:42.131Z</time></trkpt><trkpt lat="43.8599992" lon="6.49091"><ele>849.0</ele><time>2026-05-03T08:38:43.131Z</time></trkpt><trkpt lat="43.8599934" lon="6.4910693"><ele>849.0</ele><time>2026-05-03T08:38:44.131Z</time></trkpt><trkpt lat="43.8599926" lon="6.4912297"><ele>849.0</ele><time>2026-05-03T08:38:45.131Z</time></trkpt><trkpt lat="43.8598854" lon="6.4913333"><ele>849.0</ele><time>2026-05-03T08:38:46.131Z</time></trkpt><trkpt lat="43.8597676" lon="6.4914508"><ele>852.6666666666667</ele><time>2026-05-03T08:38:47.13Z</time></trkpt><trkpt lat="43.8596384" lon="6.4915766"><ele>856.3333333333334</ele><time>2026-05-03T08:38:48.131Z</time></trkpt><trkpt lat="43.85951" lon="6.4916967"><ele>860.0</ele><time>2026-05-03T08:38:49.131Z</time></trkpt><trkpt lat="43.8593928" lon="6.4918185"><ele>853.0</ele><time>2026-05-03T08:38:50.131Z</time></trkpt><trkpt lat="43.8592817" lon="6.4919543"><ele>846.0</ele><time>2026-05-03T08:38:51.131Z</time></trkpt><trkpt lat="43.8591691" lon="6.4921008"><ele>839.0</ele><time>2026-05-03T08:38:52.131Z</time></trkpt><trkpt lat="43.8590839" lon="6.4923109"><ele>839.0</ele><time>2026-05-03T08:38:53.131Z</time></trkpt><trkpt lat="43.8590153" lon="6.4924996"><ele>839.0</ele><time>2026-05-03T08:38:54.131Z</time></trkpt><trkpt lat="43.858944" lon="6.4926707"><ele>839.0</ele><time>2026-05-03T08:38:55.131Z</time></trkpt><trkpt lat="43.8588601" lon="6.4928465"><ele>839.0</ele><time>2026-05-03T08:38:56.13Z</time></trkpt><trkpt lat="43.8587539" lon="6.4929935"><ele>840.25</ele><time>2026-05-03T08:38:57.131Z</time></trkpt><trkpt lat="43.858666" lon="6.4931423"><ele>841.5</ele><time>2026-05-03T08:38:58.131Z</time></trkpt><trkpt lat="43.8585941" lon="6.4932862"><ele>842.75</ele><time>2026-05-03T08:38:59.131Z</time></trkpt><trkpt lat="43.8585264" lon="6.4934223"><ele>844.0</ele><time>2026-05-03T08:39:00.131Z</time></trkpt><trkpt lat="43.8584626" lon="6.4935659"><ele>840.0</ele><time>2026-05-03T08:39:01.13Z</time></trkpt><trkpt lat="43.8584415" lon="6.4936892"><ele>836.0</ele><time>2026-05-03T08:39:02.131Z</time></trkpt><trkpt lat="43.8584358" lon="6.493837"><ele>832.0</ele><time>2026-05-03T08:39:03.13Z</time></trkpt><trkpt lat="43.8584674" lon="6.4939593"><ele>828.0</ele><time>2026-05-03T08:39:04.13Z</time></trkpt><trkpt lat="43.8585416" lon="6.4940613"><ele>824.0</ele><time>2026-05-03T08:39:05.131Z</time></trkpt><trkpt lat="43.858661" lon="6.4941252"><ele>824.0</ele><time>2026-05-03T08:39:06.131Z</time></trkpt><trkpt lat="43.858804" lon="6.4941983"><ele>824.0</ele><time>2026-05-03T08:39:07.131Z</time></trkpt><trkpt lat="43.8589567" lon="6.494256"><ele>824.0</ele><time>2026-05-03T08:39:08.131Z</time></trkpt><trkpt lat="43.8591137" lon="6.4943031"><ele>824.0</ele><time>2026-05-03T08:39:09.131Z</time></trkpt><trkpt lat="43.8592748" lon="6.4943475"><ele>824.0</ele><time>2026-05-03T08:39:10.131Z</time></trkpt><trkpt lat="43.8594279" lon="6.4944113"><ele>824.0</ele><time>2026-05-03T08:39:11.131Z</time></trkpt><trkpt lat="43.8595652" lon="6.4944938"><ele>825.5</ele><time>2026-05-03T08:39:12.131Z</time></trkpt><trkpt lat="43.8596936" lon="6.4945605"><ele>827.0</ele><time>2026-05-03T08:39:13.131Z</time></trkpt><trkpt lat="43.8598489" lon="6.49458"><ele>828.5</ele><time>2026-05-03T08:39:14.13Z</time></trkpt><trkpt lat="43.8600003" lon="6.4945858"><ele>830.0</ele><time>2026-05-03T08:39:15.131Z</time></trkpt><trkpt lat="43.860154" lon="6.4945865"><ele>823.25</ele><time>2026-05-03T08:39:16.131Z</time></trkpt><trkpt lat="43.8603046" lon="6.4945896"><ele>816.5</ele><time>2026-05-03T08:39:17.131Z</time></trkpt><trkpt lat="43.8604479" lon="6.4946074"><ele>809.75</ele><time>2026-05-03T08:39:18.13Z</time></trkpt><trkpt lat="43.8605776" lon="6.494632"><ele>803.0</ele><time>2026-05-03T08:39:19.131Z</time></trkpt><trkpt lat="43.8606968" lon="6.4946598"><ele>803.0</ele><time>2026-05-03T08:39:20.131Z</time></trkpt><trkpt lat="43.8608103" lon="6.4946956"><ele>803.0</ele><time>2026-05-03T08:39:21.131Z</time></trkpt><trkpt lat="43.8608841" lon="6.4947487"><ele>803.0</ele><time>2026-05-03T08:39:22.131Z</time></trkpt><trkpt lat="43.8609321" lon="6.4948433"><ele>803.0</ele><time>2026-05-03T08:39:23.131Z</time></trkpt><trkpt lat="43.8609621" lon="6.4949477"><ele>803.0</ele><time>2026-05-03T08:39:24.131Z</time></trkpt><trkpt lat="43.860993" lon="6.4950683"><ele>803.0</ele><time>2026-05-03T08:39:25.13Z</time></trkpt><trkpt lat="43.8609489" lon="6.4952079"><ele>803.0</ele><time>2026-05-03T08:39:26.131Z</time></trkpt><trkpt lat="43.860929" lon="6.495339"><ele>803.0</ele><time>2026-05-03T08:39:27.131Z</time></trkpt><trkpt lat="43.8608243" lon="6.4954013"><ele>803.0</ele><time>2026-05-03T08:39:28.131Z</time></trkpt><trkpt lat="43.8607097" lon="6.4954401"><ele>803.0</ele><time>2026-05-03T08:39:29.131Z</time></trkpt><trkpt lat="43.8605948" lon="6.4954423"><ele>803.0</ele><time>2026-05-03T08:39:30.131Z</time></trkpt><trkpt lat="43.8604794" lon="6.4954023"><ele>803.0</ele><time>2026-05-03T08:39:31.131Z</time></trkpt><trkpt lat="43.8603884" lon="6.4952885"><ele>803.0</ele><time>2026-05-03T08:39:32.131Z</time></trkpt><trkpt lat="43.8602935" lon="6.4951705"><ele>803.0</ele><time>2026-05-03T08:39:33.131Z</time></trkpt><trkpt lat="43.8601726" lon="6.4950942"><ele>801.6666666666667</ele><time>2026-05-03T08:39:34.131Z</time></trkpt><trkpt lat="43.8600197" lon="6.4950453"><ele>800.3333333333333</ele><time>2026-05-03T08:39:35.131Z</time></trkpt><trkpt lat="43.8598556" lon="6.4950273"><ele>799.0</ele><time>2026-05-03T08:39:36.131Z</time></trkpt><trkpt lat="43.8596879" lon="6.4950136"><ele>799.0</ele><time>2026-05-03T08:39:37.131Z</time></trkpt><trkpt lat="43.8595151" lon="6.4949865"><ele>799.0</ele><time>2026-05-03T08:39:38.131Z</time></trkpt><trkpt lat="43.8593396" lon="6.4949745"><ele>799.0</ele><time>2026-05-03T08:39:39.131Z</time></trkpt><trkpt lat="43.859172" lon="6.4949525"><ele>796.3333333333333</ele><time>2026-05-03T08:39:40.13Z</time></trkpt><trkpt lat="43.8589973" lon="6.494952"><ele>793.6666666666667</ele><time>2026-05-03T08:39:41.131Z</time></trkpt><trkpt lat="43.8588316" lon="6.4949517"><ele>791.0</ele><time>2026-05-03T08:39:42.131Z</time></trkpt><trkpt lat="43.8586485" lon="6.4949709"><ele>791.0</ele><time>2026-05-03T08:39:43.131Z</time></trkpt><trkpt lat="43.8584711" lon="6.4949824"><ele>791.0</ele><time>2026-05-03T08:39:44.131Z</time></trkpt><trkpt lat="43.8583233" lon="6.4950362"><ele>791.0</ele><time>2026-05-03T08:39:45.13Z</time></trkpt><trkpt lat="43.8581659" lon="6.4950795"><ele>789.75</ele><time>2026-05-03T08:39:46.131Z</time></trkpt><trkpt lat="43.858008" lon="6.495106"><ele>788.5</ele><time>2026-05-03T08:39:47.131Z</time></trkpt><trkpt lat="43.8578584" lon="6.4951221"><ele>787.25</ele><time>2026-05-03T08:39:48.13Z</time></trkpt><trkpt lat="43.85772" lon="6.4951181"><ele>786.0</ele><time>2026-05-03T08:39:49.131Z</time></trkpt><trkpt lat="43.8575903" lon="6.4951212"><ele>785.5</ele><time>2026-05-03T08:39:50.131Z</time></trkpt><trkpt lat="43.8574866" lon="6.4951775"><ele>785.0</ele><time>2026-05-03T08:39:51.131Z</time></trkpt><trkpt lat="43.8573872" lon="6.4952259"><ele>784.5</ele><time>2026-05-03T08:39:52.13Z</time></trkpt><trkpt lat="43.8573071" lon="6.495361"><ele>784.0</ele><time>2026-05-03T08:39:53.131Z</time></trkpt><trkpt lat="43.8572312" lon="6.4954655"><ele>780.0</ele><time>2026-05-03T08:39:54.131Z</time></trkpt><trkpt lat="43.8571394" lon="6.4955451"><ele>776.0</ele><time>2026-05-03T08:39:55.131Z</time></trkpt><trkpt lat="43.8570401" lon="6.4956032"><ele>772.0</ele><time>2026-05-03T08:39:56.131Z</time></trkpt><trkpt lat="43.8568985" lon="6.4956142"><ele>768.0</ele><time>2026-05-03T08:39:57.131Z</time></trkpt><trkpt lat="43.8567528" lon="6.4955922"><ele>768.0</ele><time>2026-05-03T08:39:58.131Z</time></trkpt><trkpt lat="43.8566035" lon="6.4955639"><ele>768.0</ele><time>2026-05-03T08:39:59.131Z</time></trkpt><trkpt lat="43.8564473" lon="6.4955364"><ele>768.0</ele><time>2026-05-03T08:40:00.131Z</time></trkpt><trkpt lat="43.8563235" lon="6.4955353"><ele>768.0</ele><time>2026-05-03T08:40:01.131Z</time></trkpt><trkpt lat="43.8562128" lon="6.4955658"><ele>768.0</ele><time>2026-05-03T08:40:02.131Z</time></trkpt><trkpt lat="43.8561159" lon="6.4956218"><ele>768.0</ele><time>2026-05-03T08:40:03.131Z</time></trkpt><trkpt lat="43.8560196" lon="6.4956855"><ele>768.0</ele><time>2026-05-03T08:40:04.131Z</time></trkpt><trkpt lat="43.8559339" lon="6.495841"><ele>768.0</ele><time>2026-05-03T08:40:05.131Z</time></trkpt><trkpt lat="43.8558863" lon="6.4960126"><ele>767.0</ele><time>2026-05-03T08:40:06.131Z</time></trkpt><trkpt lat="43.8558543" lon="6.4961948"><ele>766.0</ele><time>2026-05-03T08:40:07.131Z</time></trkpt><trkpt lat="43.8558462" lon="6.4964062"><ele>765.0</ele><time>2026-05-03T08:40:08.131Z</time></trkpt><trkpt lat="43.8558404" lon="6.4966184"><ele>764.0</ele><time>2026-05-03T08:40:09.131Z</time></trkpt><trkpt lat="43.8558263" lon="6.4968202"><ele>762.6666666666666</ele><time>2026-05-03T08:40:10.131Z</time></trkpt><trkpt lat="43.8558267" lon="6.497061"><ele>761.3333333333334</ele><time>2026-05-03T08:40:11.131Z</time></trkpt><trkpt lat="43.8558221" lon="6.4972749"><ele>760.0</ele><time>2026-05-03T08:40:12.13Z</time></trkpt><trkpt lat="43.8558198" lon="6.4974968"><ele>759.75</ele><time>2026-05-03T08:40:13.131Z</time></trkpt><trkpt lat="43.8558077" lon="6.4977061"><ele>759.5</ele><time>2026-05-03T08:40:14.13Z</time></trkpt><trkpt lat="43.8557972" lon="6.497915"><ele>759.25</ele><time>2026-05-03T08:40:15.13Z</time></trkpt><trkpt lat="43.8557915" lon="6.498115"><ele>759.0</ele><time>2026-05-03T08:40:16.13Z</time></trkpt><trkpt lat="43.8557881" lon="6.4983208"><ele>758.3333333333334</ele><time>2026-05-03T08:40:17.131Z</time></trkpt><trkpt lat="43.8557762" lon="6.4985412"><ele>757.6666666666667</ele><time>2026-05-03T08:40:18.131Z</time></trkpt><trkpt lat="43.8557665" lon="6.4987522"><ele>757.0</ele><time>2026-05-03T08:40:19.131Z</time></trkpt><trkpt lat="43.8557525" lon="6.4989618"><ele>756.75</ele><time>2026-05-03T08:40:20.131Z</time></trkpt><trkpt lat="43.8557439" lon="6.4991617"><ele>756.5</ele><time>2026-05-03T08:40:21.131Z</time></trkpt><trkpt lat="43.8557387" lon="6.4993645"><ele>756.25</ele><time>2026-05-03T08:40:22.131Z</time></trkpt><trkpt lat="43.8557408" lon="6.4995572"><ele>756.0</ele><time>2026-05-03T08:40:23.131Z</time></trkpt><trkpt lat="43.8557353" lon="6.4997588"><ele>755.5</ele><time>2026-05-03T08:40:24.131Z</time></trkpt><trkpt lat="43.8557186" lon="6.4999508"><ele>755.0</ele><time>2026-05-03T08:40:25.13Z</time></trkpt><trkpt lat="43.8557056" lon="6.5001381"><ele>754.5</ele><time>2026-05-03T08:40:26.13Z</time></trkpt><trkpt lat="43.8556299" lon="6.5003093"><ele>754.0</ele><time>2026-05-03T08:40:27.131Z</time></trkpt><trkpt lat="43.855548" lon="6.5004795"><ele>753.25</ele><time>2026-05-03T08:40:28.131Z</time></trkpt><trkpt lat="43.8554619" lon="6.5006408"><ele>752.5</ele><time>2026-05-03T08:40:29.13Z</time></trkpt><trkpt lat="43.8553505" lon="6.500785"><ele>751.75</ele><time>2026-05-03T08:40:30.131Z</time></trkpt><trkpt lat="43.8552446" lon="6.5009327"><ele>751.0</ele><time>2026-05-03T08:40:31.131Z</time></trkpt><trkpt lat="43.855144" lon="6.501083"><ele>750.6666666666667</ele><time>2026-05-03T08:40:32.131Z</time></trkpt><trkpt lat="43.855032" lon="6.5012295"><ele>750.3333333333334</ele><time>2026-05-03T08:40:33.131Z</time></trkpt><trkpt lat="43.8549157" lon="6.5013816"><ele>750.0</ele><time>2026-05-03T08:40:34.13Z</time></trkpt><trkpt lat="43.8548008" lon="6.5015369"><ele>749.3333333333334</ele><time>2026-05-03T08:40:35.131Z</time></trkpt><trkpt lat="43.8546856" lon="6.5016881"><ele>748.6666666666667</ele><time>2026-05-03T08:40:36.13Z</time></trkpt><trkpt lat="43.8545782" lon="6.5018323"><ele>748.0</ele><time>2026-05-03T08:40:37.13Z</time></trkpt><trkpt lat="43.8544671" lon="6.5019829"><ele>747.0</ele><time>2026-05-03T08:40:38.131Z</time></trkpt><trkpt lat="43.854353" lon="6.5021422"><ele>746.0</ele><time>2026-05-03T08:40:39.13Z</time></trkpt><trkpt lat="43.854241" lon="6.5023102"><ele>745.0</ele><time>2026-05-03T08:40:40.131Z</time></trkpt><trkpt lat="43.8541463" lon="6.5025048"><ele>745.0</ele><time>2026-05-03T08:40:41.131Z</time></trkpt><trkpt lat="43.8540616" lon="6.5026965"><ele>745.0</ele><time>2026-05-03T08:40:42.131Z</time></trkpt><trkpt lat="43.853982" lon="6.5028943"><ele>745.0</ele><time>2026-05-03T08:40:43.13Z</time></trkpt><trkpt lat="43.8538939" lon="6.5030866"><ele>744.0</ele><time>2026-05-03T08:40:44.131Z</time></trkpt><trkpt lat="43.8538157" lon="6.5032716"><ele>743.0</ele><time>2026-05-03T08:40:45.131Z</time></trkpt><trkpt lat="43.8537392" lon="6.5034503"><ele>742.0</ele><time>2026-05-03T08:40:46.131Z</time></trkpt><trkpt lat="43.8536564" lon="6.5036331"><ele>741.6666666666667</ele><time>2026-05-03T08:40:47.131Z</time></trkpt><trkpt lat="43.8535757" lon="6.503818"><ele>741.3333333333334</ele><time>2026-05-03T08:40:48.131Z</time></trkpt><trkpt lat="43.8534958" lon="6.5039895"><ele>741.0</ele><time>2026-05-03T08:40:49.131Z</time></trkpt><trkpt lat="43.8534162" lon="6.5041605"><ele>741.0</ele><time>2026-05-03T08:40:50.131Z</time></trkpt><trkpt lat="43.853337" lon="6.5043341"><ele>741.0</ele><time>2026-05-03T08:40:51.131Z</time></trkpt><trkpt lat="43.8532552" lon="6.5045108"><ele>741.0</ele><time>2026-05-03T08:40:52.13Z</time></trkpt><trkpt lat="43.8531681" lon="6.5046894"><ele>741.0</ele><time>2026-05-03T08:40:53.13Z</time></trkpt><trkpt lat="43.8530776" lon="6.504865"><ele>741.0</ele><time>2026-05-03T08:40:54.131Z</time></trkpt><trkpt lat="43.8530003" lon="6.505047"><ele>741.0</ele><time>2026-05-03T08:40:55.131Z</time></trkpt><trkpt lat="43.8529332" lon="6.5052278"><ele>741.0</ele><time>2026-05-03T08:40:56.13Z</time></trkpt><trkpt lat="43.8528591" lon="6.505403"><ele>741.0</ele><time>2026-05-03T08:40:57.131Z</time></trkpt><trkpt lat="43.8527841" lon="6.5055727"><ele>741.0</ele><time>2026-05-03T08:40:58.131Z</time></trkpt><trkpt lat="43.8527136" lon="6.5057302"><ele>741.0</ele><time>2026-05-03T08:40:59.13Z</time></trkpt><trkpt lat="43.8526461" lon="6.5058811"><ele>742.0</ele><time>2026-05-03T08:41:00.131Z</time></trkpt><trkpt lat="43.8525745" lon="6.5060381"><ele>743.0</ele><time>2026-05-03T08:41:01.131Z</time></trkpt><trkpt lat="43.8525079" lon="6.5061962"><ele>744.0</ele><time>2026-05-03T08:41:02.131Z</time></trkpt><trkpt lat="43.8524431" lon="6.5063568"><ele>745.0</ele><time>2026-05-03T08:41:03.131Z</time></trkpt><trkpt lat="43.8523725" lon="6.5065063"><ele>745.0</ele><time>2026-05-03T08:41:04.131Z</time></trkpt><trkpt lat="43.8523064" lon="6.5066506"><ele>745.0</ele><time>2026-05-03T08:41:05.131Z</time></trkpt><trkpt lat="43.8522514" lon="6.5067787"><ele>745.0</ele><time>2026-05-03T08:41:06.13Z</time></trkpt><trkpt lat="43.8521948" lon="6.5068978"><ele>745.0</ele><time>2026-05-03T08:41:07.131Z</time></trkpt><trkpt lat="43.8521528" lon="6.5069944"><ele>745.0</ele><time>2026-05-03T08:41:08.131Z</time></trkpt><trkpt lat="43.8521119" lon="6.5070914"><ele>745.0</ele><time>2026-05-03T08:41:09.131Z</time></trkpt><trkpt lat="43.8520679" lon="6.5071757"><ele>745.0</ele><time>2026-05-03T08:41:13.131Z</time></trkpt><trkpt lat="43.8519859" lon="6.5072682"><ele>745.0</ele><time>2026-05-03T08:41:15.131Z</time></trkpt><trkpt lat="43.8519431" lon="6.5073395"><ele>745.0</ele><time>2026-05-03T08:41:16.13Z</time></trkpt><trkpt lat="43.8518889" lon="6.5074246"><ele>745.0</ele><time>2026-05-03T08:41:17.131Z</time></trkpt><trkpt lat="43.8518485" lon="6.5075034"><ele>745.0</ele><time>2026-05-03T08:41:18.13Z</time></trkpt><trkpt lat="43.8517691" lon="6.5075622"><ele>745.2857142857142</ele><time>2026-05-03T08:41:19.131Z</time></trkpt><trkpt lat="43.8517092" lon="6.5076169"><ele>745.5714285714286</ele><time>2026-05-03T08:41:20.131Z</time></trkpt><trkpt lat="43.851636" lon="6.507655"><ele>745.8571428571429</ele><time>2026-05-03T08:41:21.131Z</time></trkpt><trkpt lat="43.8515675" lon="6.5076784"><ele>746.1428571428571</ele><time>2026-05-03T08:41:22.131Z</time></trkpt><trkpt lat="43.8514957" lon="6.5077108"><ele>746.4285714285714</ele><time>2026-05-03T08:41:23.131Z</time></trkpt><trkpt lat="43.8514493" lon="6.5077838"><ele>746.7142857142857</ele><time>2026-05-03T08:41:24.131Z</time></trkpt><trkpt lat="43.8514205" lon="6.5078622"><ele>747.0</ele><time>2026-05-03T08:41:25.131Z</time></trkpt><trkpt lat="43.8514312" lon="6.5080069"><ele>747.0</ele><time>2026-05-03T08:41:27.131Z</time></trkpt><trkpt lat="43.8514942" lon="6.5080522"><ele>747.0</ele><time>2026-05-03T08:41:28.13Z</time></trkpt><trkpt lat="43.8516082" lon="6.5081342"><ele>747.0</ele><time>2026-05-03T08:41:30.13Z</time></trkpt><trkpt lat="43.8517172" lon="6.5081544"><ele>747.0</ele><time>2026-05-03T08:41:31.131Z</time></trkpt><trkpt lat="43.8518052" lon="6.5082023"><ele>747.0</ele><time>2026-05-03T08:41:32.131Z</time></trkpt><trkpt lat="43.8518838" lon="6.5082531"><ele>747.0</ele><time>2026-05-03T08:41:33.131Z</time></trkpt><trkpt lat="43.8519477" lon="6.5082806"><ele>747.0</ele><time>2026-05-03T08:41:34.13Z</time></trkpt><trkpt lat="43.8520041" lon="6.5083194"><ele>747.0</ele><time>2026-05-03T08:41:35.131Z</time></trkpt><trkpt lat="43.852072" lon="6.5083534"><ele>747.0</ele><time>2026-05-03T08:41:47.131Z</time></trkpt><trkpt lat="43.8521349" lon="6.5082706"><ele>747.0</ele><time>2026-05-03T08:41:50.13Z</time></trkpt><trkpt lat="43.8521681" lon="6.5081729"><ele>747.0</ele><time>2026-05-03T08:41:51.13Z</time></trkpt><trkpt lat="43.8521404" lon="6.5080182"><ele>747.0</ele><time>2026-05-03T08:41:53.131Z</time></trkpt><trkpt lat="43.8520934" lon="6.5079492"><ele>747.0</ele><time>2026-05-03T08:41:54.13Z</time></trkpt><trkpt lat="43.8520391" lon="6.5078143"><ele>747.0</ele><time>2026-05-03T08:41:56.131Z</time></trkpt><trkpt lat="43.8519756" lon="6.5077213"><ele>747.0</ele><time>2026-05-03T08:41:58.13Z</time></trkpt><trkpt lat="43.8518991" lon="6.5077178"><ele>747.0</ele><time>2026-05-03T08:42:00.131Z</time></trkpt><trkpt lat="43.8519051" lon="6.5078154"><ele>747.0</ele><time>2026-05-03T08:42:04.131Z</time></trkpt><trkpt lat="43.8519498" lon="6.5079077"><ele>747.0</ele><time>2026-05-03T08:44:46.13Z</time></trkpt><trkpt lat="43.8519779" lon="6.5079912"><ele>747.0</ele><time>2026-05-03T08:44:48.131Z</time></trkpt><trkpt lat="43.8520162" lon="6.5080776"><ele>747.0</ele><time>2026-05-03T08:44:51.13Z</time></trkpt><trkpt lat="43.8520837" lon="6.508134"><ele>747.0</ele><time>2026-05-03T08:46:48.131Z</time></trkpt><trkpt lat="43.852065" lon="6.5082376"><ele>747.0</ele><time>2026-05-03T08:46:51.131Z</time></trkpt><trkpt lat="43.8519703" lon="6.5082282"><ele>747.0</ele><time>2026-05-03T08:46:53.13Z</time></trkpt><trkpt lat="43.8518566" lon="6.5081673"><ele>747.0</ele><time>2026-05-03T08:46:55.131Z</time></trkpt><trkpt lat="43.851796" lon="6.5081147"><ele>747.0</ele><time>2026-05-03T08:46:56.131Z</time></trkpt><trkpt lat="43.851719" lon="6.5079993"><ele>747.0</ele><time>2026-05-03T08:46:58.13Z</time></trkpt><trkpt lat="43.8516596" lon="6.5078396"><ele>747.0</ele><time>2026-05-03T08:47:00.131Z</time></trkpt><trkpt lat="43.8515723" lon="6.5077585"><ele>747.0</ele><time>2026-05-03T08:47:02.131Z</time></trkpt><trkpt lat="43.8515096" lon="6.5077442"><ele>747.0</ele><time>2026-05-03T08:47:03.131Z</time></trkpt><trkpt lat="43.8514174" lon="6.5078159"><ele>747.0</ele><time>2026-05-03T08:47:05.131Z</time></trkpt><trkpt lat="43.8513933" lon="6.5078969"><ele>747.0</ele><time>2026-05-03T08:47:06.131Z</time></trkpt><trkpt lat="43.8514382" lon="6.5080432"><ele>747.0</ele><time>2026-05-03T08:47:08.13Z</time></trkpt><trkpt lat="43.8514959" lon="6.5080811"><ele>747.0</ele><time>2026-05-03T08:47:09.131Z</time></trkpt><trkpt lat="43.8515791" lon="6.5081048"><ele>747.0</ele><time>2026-05-03T08:47:10.131Z</time></trkpt><trkpt lat="43.8516704" lon="6.5081406"><ele>747.0</ele><time>2026-05-03T08:47:11.13Z</time></trkpt><trkpt lat="43.8517556" lon="6.5082035"><ele>747.0</ele><time>2026-05-03T08:47:12.131Z</time></trkpt><trkpt lat="43.8518495" lon="6.5082607"><ele>747.0</ele><time>2026-05-03T08:47:13.13Z</time></trkpt><trkpt lat="43.8519592" lon="6.5083267"><ele>747.0</ele><time>2026-05-03T08:47:14.131Z</time></trkpt><trkpt lat="43.8520631" lon="6.5083961"><ele>747.0</ele><time>2026-05-03T08:47:15.131Z</time></trkpt><trkpt lat="43.8521803" lon="6.5084599"><ele>747.0</ele><time>2026-05-03T08:47:16.131Z</time></trkpt><trkpt lat="43.8523019" lon="6.5085064"><ele>747.0</ele><time>2026-05-03T08:47:17.131Z</time></trkpt><trkpt lat="43.852429" lon="6.50854"><ele>747.0</ele><time>2026-05-03T08:47:18.131Z</time></trkpt><trkpt lat="43.8525569" lon="6.5085821"><ele>747.0</ele><time>2026-05-03T08:47:19.131Z</time></trkpt><trkpt lat="43.8526868" lon="6.5086131"><ele>748.0</ele><time>2026-05-03T08:47:20.13Z</time></trkpt><trkpt lat="43.852815" lon="6.5086323"><ele>749.0</ele><time>2026-05-03T08:47:21.131Z</time></trkpt><trkpt lat="43.8529586" lon="6.5086521"><ele>750.0</ele><time>2026-05-03T08:47:22.131Z</time></trkpt><trkpt lat="43.8531043" lon="6.5086453"><ele>751.0</ele><time>2026-05-03T08:47:23.131Z</time></trkpt><trkpt lat="43.8532457" lon="6.5086235"><ele>751.0</ele><time>2026-05-03T08:47:24.13Z</time></trkpt><trkpt lat="43.8533816" lon="6.5085866"><ele>751.0</ele><time>2026-05-03T08:47:25.131Z</time></trkpt><trkpt lat="43.8535136" lon="6.5085521"><ele>751.0</ele><time>2026-05-03T08:47:26.131Z</time></trkpt><trkpt lat="43.8536503" lon="6.5084905"><ele>751.0</ele><time>2026-05-03T08:47:27.131Z</time></trkpt><trkpt lat="43.8537877" lon="6.5084202"><ele>753.5</ele><time>2026-05-03T08:47:28.13Z</time></trkpt><trkpt lat="43.8539279" lon="6.5083461"><ele>756.0</ele><time>2026-05-03T08:47:29.131Z</time></trkpt><trkpt lat="43.8540682" lon="6.5082792"><ele>758.5</ele><time>2026-05-03T08:47:30.131Z</time></trkpt><trkpt lat="43.8542014" lon="6.508221"><ele>761.0</ele><time>2026-05-03T08:47:31.13Z</time></trkpt><trkpt lat="43.8543436" lon="6.5081523"><ele>762.0</ele><time>2026-05-03T08:47:32.131Z</time></trkpt><trkpt lat="43.8544801" lon="6.5080876"><ele>763.0</ele><time>2026-05-03T08:47:33.13Z</time></trkpt><trkpt lat="43.8546136" lon="6.5080252"><ele>764.0</ele><time>2026-05-03T08:47:34.131Z</time></trkpt><trkpt lat="43.8547373" lon="6.5080159"><ele>765.0</ele><time>2026-05-03T08:47:35.131Z</time></trkpt><trkpt lat="43.8548652" lon="6.5080418"><ele>765.0</ele><time>2026-05-03T08:47:36.131Z</time></trkpt><trkpt lat="43.8549959" lon="6.508109"><ele>765.0</ele><time>2026-05-03T08:47:37.13Z</time></trkpt><trkpt lat="43.8551365" lon="6.5082021"><ele>765.0</ele><time>2026-05-03T08:47:38.13Z</time></trkpt><trkpt lat="43.8552732" lon="6.5083025"><ele>763.6666666666666</ele><time>2026-05-03T08:47:39.131Z</time></trkpt><trkpt lat="43.8554145" lon="6.5084046"><ele>762.3333333333333</ele><time>2026-05-03T08:47:40.13Z</time></trkpt><trkpt lat="43.8555493" lon="6.5085049"><ele>761.0</ele><time>2026-05-03T08:47:41.131Z</time></trkpt><trkpt lat="43.855697" lon="6.5086078"><ele>761.0</ele><time>2026-05-03T08:47:42.131Z</time></trkpt><trkpt lat="43.8558374" lon="6.508711"><ele>761.0</ele><time>2026-05-03T08:47:43.13Z</time></trkpt><trkpt lat="43.8559699" lon="6.508812"><ele>761.0</ele><time>2026-05-03T08:47:44.13Z</time></trkpt><trkpt lat="43.856081" lon="6.5089357"><ele>762.25</ele><time>2026-05-03T08:47:45.131Z</time></trkpt><trkpt lat="43.8561577" lon="6.5090826"><ele>763.5</ele><time>2026-05-03T08:47:46.131Z</time></trkpt><trkpt lat="43.8562147" lon="6.5092419"><ele>764.75</ele><time>2026-05-03T08:47:47.13Z</time></trkpt><trkpt lat="43.8562651" lon="6.5094033"><ele>766.0</ele><time>2026-05-03T08:47:48.131Z</time></trkpt><trkpt lat="43.856321" lon="6.5095407"><ele>770.5</ele><time>2026-05-03T08:47:49.131Z</time></trkpt><trkpt lat="43.8564078" lon="6.5096566"><ele>775.0</ele><time>2026-05-03T08:47:50.131Z</time></trkpt><trkpt lat="43.8565129" lon="6.509715"><ele>779.5</ele><time>2026-05-03T08:47:51.131Z</time></trkpt><trkpt lat="43.8566351" lon="6.5097354"><ele>784.0</ele><time>2026-05-03T08:47:52.131Z</time></trkpt><trkpt lat="43.8567617" lon="6.5097073"><ele>786.75</ele><time>2026-05-03T08:47:53.131Z</time></trkpt><trkpt lat="43.856884" lon="6.5096323"><ele>789.5</ele><time>2026-05-03T08:47:54.131Z</time></trkpt><trkpt lat="43.8570117" lon="6.5095629"><ele>792.25</ele><time>2026-05-03T08:47:55.131Z</time></trkpt><trkpt lat="43.8571553" lon="6.5094998"><ele>795.0</ele><time>2026-05-03T08:47:56.13Z</time></trkpt><trkpt lat="43.8573068" lon="6.5094647"><ele>787.3333333333333</ele><time>2026-05-03T08:47:57.13Z</time></trkpt><trkpt lat="43.857465" lon="6.5094711"><ele>779.6666666666666</ele><time>2026-05-03T08:47:58.131Z</time></trkpt><trkpt lat="43.8576244" lon="6.5094809"><ele>772.0</ele><time>2026-05-03T08:47:59.131Z</time></trkpt><trkpt lat="43.8577582" lon="6.5095447"><ele>774.5</ele><time>2026-05-03T08:48:00.13Z</time></trkpt><trkpt lat="43.8578663" lon="6.5096237"><ele>777.0</ele><time>2026-05-03T08:48:01.131Z</time></trkpt><trkpt lat="43.8579649" lon="6.5097313"><ele>779.5</ele><time>2026-05-03T08:48:02.131Z</time></trkpt><trkpt lat="43.8580181" lon="6.5098721"><ele>782.0</ele><time>2026-05-03T08:48:03.131Z</time></trkpt><trkpt lat="43.8580364" lon="6.5100338"><ele>782.0</ele><time>2026-05-03T08:48:04.13Z</time></trkpt><trkpt lat="43.8580308" lon="6.5101961"><ele>782.0</ele><time>2026-05-03T08:48:05.13Z</time></trkpt><trkpt lat="43.8580157" lon="6.5103861"><ele>782.0</ele><time>2026-05-03T08:48:06.131Z</time></trkpt><trkpt lat="43.8580131" lon="6.5105564"><ele>782.0</ele><time>2026-05-03T08:48:07.131Z</time></trkpt><trkpt lat="43.8580491" lon="6.5107238"><ele>783.25</ele><time>2026-05-03T08:48:08.13Z</time></trkpt><trkpt lat="43.8581019" lon="6.5108571"><ele>784.5</ele><time>2026-05-03T08:48:09.13Z</time></trkpt><trkpt lat="43.8582042" lon="6.5109563"><ele>785.75</ele><time>2026-05-03T08:48:10.13Z</time></trkpt><trkpt lat="43.8583227" lon="6.5110193"><ele>787.0</ele><time>2026-05-03T08:48:11.131Z</time></trkpt><trkpt lat="43.8584704" lon="6.5110388"><ele>787.0</ele><time>2026-05-03T08:48:12.131Z</time></trkpt><trkpt lat="43.8586299" lon="6.511027"><ele>787.0</ele><time>2026-05-03T08:48:13.13Z</time></trkpt><trkpt lat="43.8587904" lon="6.5110056"><ele>787.0</ele><time>2026-05-03T08:48:14.13Z</time></trkpt><trkpt lat="43.8589404" lon="6.5109862"><ele>787.0</ele><time>2026-05-03T08:48:15.131Z</time></trkpt><trkpt lat="43.85907" lon="6.5109821"><ele>787.0</ele><time>2026-05-03T08:48:16.131Z</time></trkpt><trkpt lat="43.8591996" lon="6.5110044"><ele>787.0</ele><time>2026-05-03T08:48:17.131Z</time></trkpt><trkpt lat="43.859321" lon="6.5110603"><ele>787.0</ele><time>2026-05-03T08:48:18.131Z</time></trkpt><trkpt lat="43.8594533" lon="6.5111549"><ele>790.3333333333333</ele><time>2026-05-03T08:48:19.13Z</time></trkpt><trkpt lat="43.8595932" lon="6.5113048"><ele>793.6666666666667</ele><time>2026-05-03T08:48:20.131Z</time></trkpt><trkpt lat="43.8597215" lon="6.5114517"><ele>797.0</ele><time>2026-05-03T08:48:21.131Z</time></trkpt><trkpt lat="43.8598483" lon="6.5116086"><ele>797.0</ele><time>2026-05-03T08:48:22.131Z</time></trkpt><trkpt lat="43.8599718" lon="6.5117622"><ele>797.0</ele><time>2026-05-03T08:48:23.131Z</time></trkpt><trkpt lat="43.8600783" lon="6.5119235"><ele>797.0</ele><time>2026-05-03T08:48:24.131Z</time></trkpt><trkpt lat="43.8601819" lon="6.5121036"><ele>799.25</ele><time>2026-05-03T08:48:25.131Z</time></trkpt><trkpt lat="43.8602698" lon="6.5122865"><ele>801.5</ele><time>2026-05-03T08:48:26.131Z</time></trkpt><trkpt lat="43.8603559" lon="6.5124394"><ele>803.75</ele><time>2026-05-03T08:48:27.131Z</time></trkpt><trkpt lat="43.8604497" lon="6.5125746"><ele>806.0</ele><time>2026-05-03T08:48:28.131Z</time></trkpt><trkpt lat="43.8605627" lon="6.5126679"><ele>806.0</ele><time>2026-05-03T08:48:29.131Z</time></trkpt><trkpt lat="43.8606856" lon="6.5127321"><ele>806.0</ele><time>2026-05-03T08:48:30.13Z</time></trkpt><trkpt lat="43.860821" lon="6.5127373"><ele>806.0</ele><time>2026-05-03T08:48:31.131Z</time></trkpt><trkpt lat="43.8609568" lon="6.5126982"><ele>806.0</ele><time>2026-05-03T08:48:32.131Z</time></trkpt><trkpt lat="43.8611002" lon="6.5125997"><ele>808.0</ele><time>2026-05-03T08:48:33.131Z</time></trkpt><trkpt lat="43.8612564" lon="6.5125023"><ele>810.0</ele><time>2026-05-03T08:48:34.131Z</time></trkpt><trkpt lat="43.8614155" lon="6.5124312"><ele>812.0</ele><time>2026-05-03T08:48:35.131Z</time></trkpt><trkpt lat="43.8615663" lon="6.5123993"><ele>812.0</ele><time>2026-05-03T08:48:36.131Z</time></trkpt><trkpt lat="43.8617478" lon="6.512364"><ele>812.0</ele><time>2026-05-03T08:48:37.131Z</time></trkpt><trkpt lat="43.8619184" lon="6.5123631"><ele>812.0</ele><time>2026-05-03T08:48:38.131Z</time></trkpt><trkpt lat="43.862084" lon="6.512366"><ele>815.3333333333334</ele><time>2026-05-03T08:48:39.131Z</time></trkpt><trkpt lat="43.8622394" lon="6.5123707"><ele>818.6666666666667</ele><time>2026-05-03T08:48:40.131Z</time></trkpt><trkpt lat="43.8623916" lon="6.5123466"><ele>822.0</ele><time>2026-05-03T08:48:41.131Z</time></trkpt><trkpt lat="43.8625476" lon="6.5122883"><ele>823.6666666666667</ele><time>2026-05-03T08:48:42.131Z</time></trkpt><trkpt lat="43.8627017" lon="6.5121881"><ele>825.3333333333334</ele><time>2026-05-03T08:48:43.131Z</time></trkpt><trkpt lat="43.8628472" lon="6.512069"><ele>827.0</ele><time>2026-05-03T08:48:44.131Z</time></trkpt><trkpt lat="43.8630057" lon="6.5119098"><ele>827.0</ele><time>2026-05-03T08:48:45.131Z</time></trkpt><trkpt lat="43.8631599" lon="6.5117532"><ele>827.0</ele><time>2026-05-03T08:48:46.131Z</time></trkpt><trkpt lat="43.8633107" lon="6.5116012"><ele>827.0</ele><time>2026-05-03T08:48:47.131Z</time></trkpt><trkpt lat="43.8634564" lon="6.5114685"><ele>827.3333333333334</ele><time>2026-05-03T08:48:48.131Z</time></trkpt><trkpt lat="43.8636083" lon="6.5113156"><ele>827.6666666666667</ele><time>2026-05-03T08:48:49.13Z</time></trkpt><trkpt lat="43.8637545" lon="6.5111597"><ele>828.0</ele><time>2026-05-03T08:48:50.13Z</time></trkpt><trkpt lat="43.8638857" lon="6.5109964"><ele>828.0</ele><time>2026-05-03T08:48:51.131Z</time></trkpt><trkpt lat="43.86402" lon="6.5108284"><ele>828.0</ele><time>2026-05-03T08:48:52.131Z</time></trkpt><trkpt lat="43.8641552" lon="6.5106594"><ele>828.0</ele><time>2026-05-03T08:48:53.131Z</time></trkpt><trkpt lat="43.8642914" lon="6.5105143"><ele>828.6666666666667</ele><time>2026-05-03T08:48:54.131Z</time></trkpt><trkpt lat="43.8644186" lon="6.5103948"><ele>829.3333333333334</ele><time>2026-05-03T08:48:55.131Z</time></trkpt><trkpt lat="43.8645537" lon="6.5102978"><ele>830.0</ele><time>2026-05-03T08:48:56.131Z</time></trkpt><trkpt lat="43.864692" lon="6.5102389"><ele>830.0</ele><time>2026-05-03T08:48:57.131Z</time></trkpt><trkpt lat="43.8648176" lon="6.5101492"><ele>830.0</ele><time>2026-05-03T08:48:58.131Z</time></trkpt><trkpt lat="43.8649348" lon="6.5100183"><ele>830.0</ele><time>2026-05-03T08:48:59.131Z</time></trkpt><trkpt lat="43.865021" lon="6.5098574"><ele>830.0</ele><time>2026-05-03T08:49:00.131Z</time></trkpt><trkpt lat="43.8650949" lon="6.5097032"><ele>832.0</ele><time>2026-05-03T08:49:01.131Z</time></trkpt><trkpt lat="43.8651758" lon="6.5095194"><ele>834.0</ele><time>2026-05-03T08:49:02.131Z</time></trkpt><trkpt lat="43.8652597" lon="6.5093255"><ele>836.0</ele><time>2026-05-03T08:49:03.131Z</time></trkpt><trkpt lat="43.8653749" lon="6.5091601"><ele>836.0</ele><time>2026-05-03T08:49:04.13Z</time></trkpt><trkpt lat="43.8654989" lon="6.5090022"><ele>836.0</ele><time>2026-05-03T08:49:05.131Z</time></trkpt><trkpt lat="43.8656394" lon="6.5088685"><ele>836.0</ele><time>2026-05-03T08:49:06.131Z</time></trkpt><trkpt lat="43.8657949" lon="6.5087537"><ele>837.3333333333334</ele><time>2026-05-03T08:49:07.131Z</time></trkpt><trkpt lat="43.8659584" lon="6.5086659"><ele>838.6666666666667</ele><time>2026-05-03T08:49:08.131Z</time></trkpt><trkpt lat="43.8661209" lon="6.5085775"><ele>840.0</ele><time>2026-05-03T08:49:09.131Z</time></trkpt><trkpt lat="43.8662807" lon="6.5084835"><ele>840.0</ele><time>2026-05-03T08:49:10.131Z</time></trkpt><trkpt lat="43.8664399" lon="6.5083959"><ele>840.0</ele><time>2026-05-03T08:49:11.13Z</time></trkpt><trkpt lat="43.8665876" lon="6.5082979"><ele>840.0</ele><time>2026-05-03T08:49:12.131Z</time></trkpt><trkpt lat="43.8667264" lon="6.5081694"><ele>844.6666666666667</ele><time>2026-05-03T08:49:13.131Z</time></trkpt><trkpt lat="43.8668437" lon="6.5080195"><ele>849.3333333333334</ele><time>2026-05-03T08:49:14.131Z</time></trkpt><trkpt lat="43.8669377" lon="6.5078511"><ele>854.0</ele><time>2026-05-03T08:49:15.131Z</time></trkpt><trkpt lat="43.867027" lon="6.5076565"><ele>854.3333333333334</ele><time>2026-05-03T08:49:16.13Z</time></trkpt><trkpt lat="43.8670809" lon="6.5074091"><ele>854.6666666666667</ele><time>2026-05-03T08:49:17.131Z</time></trkpt><trkpt lat="43.8671502" lon="6.5071787"><ele>855.0</ele><time>2026-05-03T08:49:18.131Z</time></trkpt><trkpt lat="43.8672122" lon="6.5069287"><ele>854.3333333333333</ele><time>2026-05-03T08:49:19.13Z</time></trkpt><trkpt lat="43.8672637" lon="6.5066808"><ele>853.6666666666666</ele><time>2026-05-03T08:49:20.13Z</time></trkpt><trkpt lat="43.8673217" lon="6.5064485"><ele>853.0</ele><time>2026-05-03T08:49:21.131Z</time></trkpt><trkpt lat="43.8673746" lon="6.5062192"><ele>852.6666666666666</ele><time>2026-05-03T08:49:22.131Z</time></trkpt><trkpt lat="43.8674275" lon="6.5059858"><ele>852.3333333333333</ele><time>2026-05-03T08:49:23.131Z</time></trkpt><trkpt lat="43.8674854" lon="6.5057468"><ele>852.0</ele><time>2026-05-03T08:49:24.131Z</time></trkpt><trkpt lat="43.8675308" lon="6.5055128"><ele>852.3333333333333</ele><time>2026-05-03T08:49:25.131Z</time></trkpt><trkpt lat="43.8675748" lon="6.5052858"><ele>852.6666666666666</ele><time>2026-05-03T08:49:26.131Z</time></trkpt><trkpt lat="43.8676142" lon="6.5050566"><ele>853.0</ele><time>2026-05-03T08:49:27.131Z</time></trkpt><trkpt lat="43.8676353" lon="6.504844"><ele>853.0</ele><time>2026-05-03T08:49:28.131Z</time></trkpt><trkpt lat="43.8676372" lon="6.5046048"><ele>853.0</ele><time>2026-05-03T08:49:29.131Z</time></trkpt><trkpt lat="43.8676092" lon="6.5043823"><ele>853.0</ele><time>2026-05-03T08:49:30.131Z</time></trkpt><trkpt lat="43.8675825" lon="6.5041541"><ele>853.0</ele><time>2026-05-03T08:49:31.131Z</time></trkpt><trkpt lat="43.8675623" lon="6.5039428"><ele>853.0</ele><time>2026-05-03T08:49:32.131Z</time></trkpt><trkpt lat="43.867532" lon="6.5037593"><ele>853.0</ele><time>2026-05-03T08:49:33.131Z</time></trkpt><trkpt lat="43.8675049" lon="6.5035949"><ele>853.0</ele><time>2026-05-03T08:49:34.131Z</time></trkpt><trkpt lat="43.8674982" lon="6.5034485"><ele>853.5999999999999</ele><time>2026-05-03T08:49:35.13Z</time></trkpt><trkpt lat="43.8675281" lon="6.5033116"><ele>854.1999999999999</ele><time>2026-05-03T08:49:36.131Z</time></trkpt><trkpt lat="43.8675924" lon="6.5032012"><ele>854.8</ele><time>2026-05-03T08:49:37.13Z</time></trkpt><trkpt lat="43.8676809" lon="6.503138"><ele>855.4</ele><time>2026-05-03T08:49:38.131Z</time></trkpt><trkpt lat="43.8677762" lon="6.503113"><ele>856.0</ele><time>2026-05-03T08:49:39.131Z</time></trkpt><trkpt lat="43.8678666" lon="6.5031701"><ele>860.0</ele><time>2026-05-03T08:49:40.13Z</time></trkpt><trkpt lat="43.8679317" lon="6.5032805"><ele>864.0</ele><time>2026-05-03T08:49:41.131Z</time></trkpt><trkpt lat="43.8679744" lon="6.5034236"><ele>868.0</ele><time>2026-05-03T08:49:42.13Z</time></trkpt><trkpt lat="43.86798" lon="6.503608"><ele>872.0</ele><time>2026-05-03T08:49:43.131Z</time></trkpt><trkpt lat="43.8679524" lon="6.503799"><ele>872.5</ele><time>2026-05-03T08:49:44.131Z</time></trkpt><trkpt lat="43.867922" lon="6.5039949"><ele>873.0</ele><time>2026-05-03T08:49:45.131Z</time></trkpt><trkpt lat="43.8679102" lon="6.5041966"><ele>873.5</ele><time>2026-05-03T08:49:46.131Z</time></trkpt><trkpt lat="43.8679231" lon="6.504412"><ele>874.0</ele><time>2026-05-03T08:49:47.13Z</time></trkpt><trkpt lat="43.8679565" lon="6.5046068"><ele>874.6666666666666</ele><time>2026-05-03T08:49:48.131Z</time></trkpt><trkpt lat="43.8680051" lon="6.5048224"><ele>875.3333333333333</ele><time>2026-05-03T08:49:49.131Z</time></trkpt><trkpt lat="43.8680607" lon="6.5050299"><ele>876.0</ele><time>2026-05-03T08:49:50.131Z</time></trkpt><trkpt lat="43.868031" lon="6.5052396"><ele>875.75</ele><time>2026-05-03T08:49:51.131Z</time></trkpt><trkpt lat="43.8680132" lon="6.5054329"><ele>875.5</ele><time>2026-05-03T08:49:52.13Z</time></trkpt><trkpt lat="43.8679743" lon="6.5056353"><ele>875.25</ele><time>2026-05-03T08:49:53.13Z</time></trkpt><trkpt lat="43.8679686" lon="6.5058397"><ele>875.0</ele><time>2026-05-03T08:49:54.131Z</time></trkpt><trkpt lat="43.867999" lon="6.5060415"><ele>873.0</ele><time>2026-05-03T08:49:55.131Z</time></trkpt><trkpt lat="43.8680639" lon="6.5062503"><ele>871.0</ele><time>2026-05-03T08:49:56.131Z</time></trkpt><trkpt lat="43.868147" lon="6.5064348"><ele>869.0</ele><time>2026-05-03T08:49:57.131Z</time></trkpt><trkpt lat="43.8682594" lon="6.5066051"><ele>869.0</ele><time>2026-05-03T08:49:58.13Z</time></trkpt><trkpt lat="43.8683813" lon="6.5067655"><ele>869.0</ele><time>2026-05-03T08:49:59.131Z</time></trkpt><trkpt lat="43.8684989" lon="6.5069263"><ele>869.0</ele><time>2026-05-03T08:50:00.131Z</time></trkpt><trkpt lat="43.8686092" lon="6.5070913"><ele>874.0</ele><time>2026-05-03T08:50:01.131Z</time></trkpt><trkpt lat="43.8687157" lon="6.5072573"><ele>879.0</ele><time>2026-05-03T08:50:02.131Z</time></trkpt><trkpt lat="43.8688119" lon="6.5074308"><ele>884.0</ele><time>2026-05-03T08:50:03.131Z</time></trkpt><trkpt lat="43.8688855" lon="6.5076203"><ele>884.0</ele><time>2026-05-03T08:50:04.131Z</time></trkpt><trkpt lat="43.8689604" lon="6.5078091"><ele>884.0</ele><time>2026-05-03T08:50:05.131Z</time></trkpt><trkpt lat="43.8690308" lon="6.5079987"><ele>884.0</ele><time>2026-05-03T08:50:06.131Z</time></trkpt><trkpt lat="43.8690977" lon="6.5081864"><ele>883.3333333333334</ele><time>2026-05-03T08:50:07.131Z</time></trkpt><trkpt lat="43.8691502" lon="6.5083896"><ele>882.6666666666667</ele><time>2026-05-03T08:50:08.131Z</time></trkpt><trkpt lat="43.8691853" lon="6.5085966"><ele>882.0</ele><time>2026-05-03T08:50:09.131Z</time></trkpt><trkpt lat="43.8692212" lon="6.5088053"><ele>881.0</ele><time>2026-05-03T08:50:10.131Z</time></trkpt><trkpt lat="43.8692547" lon="6.5090078"><ele>880.0</ele><time>2026-05-03T08:50:11.131Z</time></trkpt><trkpt lat="43.8692747" lon="6.5092233"><ele>879.0</ele><time>2026-05-03T08:50:12.131Z</time></trkpt><trkpt lat="43.8693006" lon="6.5094398"><ele>886.0</ele><time>2026-05-03T08:50:13.131Z</time></trkpt><trkpt lat="43.8693204" lon="6.5096461"><ele>893.0</ele><time>2026-05-03T08:50:14.131Z</time></trkpt><trkpt lat="43.8693417" lon="6.5098574"><ele>900.0</ele><time>2026-05-03T08:50:15.131Z</time></trkpt><trkpt lat="43.8693648" lon="6.5100604"><ele>900.0</ele><time>2026-05-03T08:50:16.131Z</time></trkpt><trkpt lat="43.8693796" lon="6.5102647"><ele>900.0</ele><time>2026-05-03T08:50:17.131Z</time></trkpt><trkpt lat="43.8694164" lon="6.510459"><ele>900.0</ele><time>2026-05-03T08:50:18.131Z</time></trkpt><trkpt lat="43.8694829" lon="6.5106437"><ele>900.0</ele><time>2026-05-03T08:50:19.131Z</time></trkpt><trkpt lat="43.8695767" lon="6.5108235"><ele>898.0</ele><time>2026-05-03T08:50:20.131Z</time></trkpt><trkpt lat="43.8696885" lon="6.5109776"><ele>896.0</ele><time>2026-05-03T08:50:21.13Z</time></trkpt><trkpt lat="43.8698197" lon="6.5111159"><ele>894.0</ele><time>2026-05-03T08:50:22.131Z</time></trkpt><trkpt lat="43.8699654" lon="6.5112546"><ele>894.0</ele><time>2026-05-03T08:50:23.131Z</time></trkpt><trkpt lat="43.8701035" lon="6.5113885"><ele>894.0</ele><time>2026-05-03T08:50:24.131Z</time></trkpt><trkpt lat="43.8702464" lon="6.5115188"><ele>894.0</ele><time>2026-05-03T08:50:25.13Z</time></trkpt><trkpt lat="43.8703881" lon="6.5116443"><ele>894.6666666666667</ele><time>2026-05-03T08:50:26.131Z</time></trkpt><trkpt lat="43.8705309" lon="6.5117773"><ele>895.3333333333334</ele><time>2026-05-03T08:50:27.131Z</time></trkpt><trkpt lat="43.8706659" lon="6.5119128"><ele>896.0</ele><time>2026-05-03T08:50:28.131Z</time></trkpt><trkpt lat="43.8708105" lon="6.5120419"><ele>895.3333333333334</ele><time>2026-05-03T08:50:29.131Z</time></trkpt><trkpt lat="43.8709423" lon="6.5121617"><ele>894.6666666666667</ele><time>2026-05-03T08:50:30.131Z</time></trkpt><trkpt lat="43.8710723" lon="6.5122762"><ele>894.0</ele><time>2026-05-03T08:50:31.131Z</time></trkpt><trkpt lat="43.8712095" lon="6.5123843"><ele>894.0</ele><time>2026-05-03T08:50:32.131Z</time></trkpt><trkpt lat="43.8713407" lon="6.5124519"><ele>894.0</ele><time>2026-05-03T08:50:33.13Z</time></trkpt><trkpt lat="43.8714745" lon="6.5125064"><ele>894.0</ele><time>2026-05-03T08:50:34.131Z</time></trkpt><trkpt lat="43.8716169" lon="6.5125729"><ele>894.0</ele><time>2026-05-03T08:50:35.13Z</time></trkpt><trkpt lat="43.8717679" lon="6.5126388"><ele>894.6666666666667</ele><time>2026-05-03T08:50:36.131Z</time></trkpt><trkpt lat="43.8719173" lon="6.5127315"><ele>895.3333333333334</ele><time>2026-05-03T08:50:37.131Z</time></trkpt><trkpt lat="43.8720627" lon="6.5128454"><ele>896.0</ele><time>2026-05-03T08:50:38.131Z</time></trkpt><trkpt lat="43.8721992" lon="6.5129667"><ele>896.0</ele><time>2026-05-03T08:50:39.13Z</time></trkpt><trkpt lat="43.8723231" lon="6.5131019"><ele>896.0</ele><time>2026-05-03T08:50:40.131Z</time></trkpt><trkpt lat="43.872446" lon="6.5132396"><ele>896.0</ele><time>2026-05-03T08:50:41.13Z</time></trkpt><trkpt lat="43.8725818" lon="6.5133714"><ele>896.6666666666667</ele><time>2026-05-03T08:50:42.13Z</time></trkpt><trkpt lat="43.8727186" lon="6.5135055"><ele>897.3333333333333</ele><time>2026-05-03T08:50:43.13Z</time></trkpt><trkpt lat="43.8728544" lon="6.5136433"><ele>898.0</ele><time>2026-05-03T08:50:44.131Z</time></trkpt><trkpt lat="43.872984" lon="6.513779"><ele>896.0</ele><time>2026-05-03T08:50:45.131Z</time></trkpt><trkpt lat="43.873116" lon="6.513919"><ele>894.0</ele><time>2026-05-03T08:50:46.131Z</time></trkpt><trkpt lat="43.8732321" lon="6.5140334"><ele>892.0</ele><time>2026-05-03T08:50:47.131Z</time></trkpt><trkpt lat="43.8733437" lon="6.5141641"><ele>892.0</ele><time>2026-05-03T08:50:48.131Z</time></trkpt><trkpt lat="43.8734272" lon="6.5143059"><ele>892.0</ele><time>2026-05-03T08:50:49.131Z</time></trkpt><trkpt lat="43.8734977" lon="6.5144713"><ele>892.0</ele><time>2026-05-03T08:50:50.131Z</time></trkpt><trkpt lat="43.8735438" lon="6.5146765"><ele>892.0</ele><time>2026-05-03T08:50:51.13Z</time></trkpt><trkpt lat="43.8735773" lon="6.514891"><ele>892.3333333333333</ele><time>2026-05-03T08:50:52.131Z</time></trkpt><trkpt lat="43.8736076" lon="6.5151191"><ele>892.6666666666667</ele><time>2026-05-03T08:50:53.131Z</time></trkpt><trkpt lat="43.8736253" lon="6.5153719"><ele>893.0</ele><time>2026-05-03T08:50:54.131Z</time></trkpt><trkpt lat="43.8736438" lon="6.5156304"><ele>892.0</ele><time>2026-05-03T08:50:55.131Z</time></trkpt><trkpt lat="43.8736668" lon="6.5159019"><ele>891.0</ele><time>2026-05-03T08:50:56.13Z</time></trkpt><trkpt lat="43.8736804" lon="6.5161788"><ele>890.0</ele><time>2026-05-03T08:50:57.131Z</time></trkpt><trkpt lat="43.8736917" lon="6.5164598"><ele>889.0</ele><time>2026-05-03T08:50:58.131Z</time></trkpt><trkpt lat="43.8737146" lon="6.5167551"><ele>888.0</ele><time>2026-05-03T08:50:59.131Z</time></trkpt><trkpt lat="43.8737302" lon="6.5170523"><ele>887.0</ele><time>2026-05-03T08:51:00.13Z</time></trkpt><trkpt lat="43.8737459" lon="6.5173298"><ele>886.6666666666667</ele><time>2026-05-03T08:51:01.13Z</time></trkpt><trkpt lat="43.8737629" lon="6.5176117"><ele>886.3333333333333</ele><time>2026-05-03T08:51:02.131Z</time></trkpt><trkpt lat="43.873766" lon="6.5178925"><ele>886.0</ele><time>2026-05-03T08:51:03.131Z</time></trkpt><trkpt lat="43.8737868" lon="6.5181806"><ele>885.0</ele><time>2026-05-03T08:51:04.131Z</time></trkpt><trkpt lat="43.8738052" lon="6.5184628"><ele>884.0</ele><time>2026-05-03T08:51:05.131Z</time></trkpt><trkpt lat="43.8738231" lon="6.5187532"><ele>883.0</ele><time>2026-05-03T08:51:06.13Z</time></trkpt><trkpt lat="43.8738361" lon="6.5190402"><ele>882.6666666666666</ele><time>2026-05-03T08:51:07.131Z</time></trkpt><trkpt lat="43.8738553" lon="6.5193266"><ele>882.3333333333333</ele><time>2026-05-03T08:51:08.13Z</time></trkpt><trkpt lat="43.8738592" lon="6.5196174"><ele>882.0</ele><time>2026-05-03T08:51:09.131Z</time></trkpt><trkpt lat="43.8738593" lon="6.5199015"><ele>882.0</ele><time>2026-05-03T08:51:10.131Z</time></trkpt><trkpt lat="43.8738499" lon="6.5201906"><ele>882.0</ele><time>2026-05-03T08:51:11.131Z</time></trkpt><trkpt lat="43.8738243" lon="6.5204814"><ele>882.0</ele><time>2026-05-03T08:51:12.131Z</time></trkpt><trkpt lat="43.8737985" lon="6.5207706"><ele>880.6666666666667</ele><time>2026-05-03T08:51:13.131Z</time></trkpt><trkpt lat="43.8737616" lon="6.5210614"><ele>879.3333333333334</ele><time>2026-05-03T08:51:14.13Z</time></trkpt><trkpt lat="43.8737426" lon="6.5213518"><ele>878.0</ele><time>2026-05-03T08:51:15.131Z</time></trkpt><trkpt lat="43.8737302" lon="6.5216496"><ele>878.0</ele><time>2026-05-03T08:51:16.131Z</time></trkpt><trkpt lat="43.8737349" lon="6.5219315"><ele>878.0</ele><time>2026-05-03T08:51:17.13Z</time></trkpt><trkpt lat="43.8737522" lon="6.5222238"><ele>878.0</ele><time>2026-05-03T08:51:18.131Z</time></trkpt><trkpt lat="43.873787" lon="6.5225214"><ele>878.3333333333334</ele><time>2026-05-03T08:51:19.131Z</time></trkpt><trkpt lat="43.873826" lon="6.5228167"><ele>878.6666666666667</ele><time>2026-05-03T08:51:20.13Z</time></trkpt><trkpt lat="43.8738622" lon="6.5231009"><ele>879.0</ele><time>2026-05-03T08:51:21.13Z</time></trkpt><trkpt lat="43.8738923" lon="6.52339"><ele>879.6666666666667</ele><time>2026-05-03T08:51:22.13Z</time></trkpt><trkpt lat="43.8739227" lon="6.5236652"><ele>880.3333333333334</ele><time>2026-05-03T08:51:23.131Z</time></trkpt><trkpt lat="43.8739583" lon="6.5239376"><ele>881.0</ele><time>2026-05-03T08:51:24.131Z</time></trkpt><trkpt lat="43.8740195" lon="6.5242103"><ele>883.3333333333334</ele><time>2026-05-03T08:51:25.131Z</time></trkpt><trkpt lat="43.8740835" lon="6.5244823"><ele>885.6666666666667</ele><time>2026-05-03T08:51:26.131Z</time></trkpt><trkpt lat="43.8741447" lon="6.5247529"><ele>888.0</ele><time>2026-05-03T08:51:27.131Z</time></trkpt><trkpt lat="43.874227" lon="6.5250193"><ele>884.3333333333333</ele><time>2026-05-03T08:51:28.131Z</time></trkpt><trkpt lat="43.8743169" lon="6.5252757"><ele>880.6666666666666</ele><time>2026-05-03T08:51:29.131Z</time></trkpt><trkpt lat="43.874394" lon="6.5255226"><ele>877.0</ele><time>2026-05-03T08:51:30.131Z</time></trkpt><trkpt lat="43.8744768" lon="6.5257742"><ele>877.0</ele><time>2026-05-03T08:51:31.131Z</time></trkpt><trkpt lat="43.8745518" lon="6.526027"><ele>877.0</ele><time>2026-05-03T08:51:32.131Z</time></trkpt><trkpt lat="43.8746235" lon="6.5262585"><ele>877.0</ele><time>2026-05-03T08:51:33.13Z</time></trkpt><trkpt lat="43.8746899" lon="6.5265094"><ele>878.6666666666666</ele><time>2026-05-03T08:51:34.13Z</time></trkpt><trkpt lat="43.8747319" lon="6.5267698"><ele>880.3333333333333</ele><time>2026-05-03T08:51:35.131Z</time></trkpt><trkpt lat="43.8747544" lon="6.5270288"><ele>882.0</ele><time>2026-05-03T08:51:36.131Z</time></trkpt><trkpt lat="43.8747743" lon="6.5273049"><ele>884.0</ele><time>2026-05-03T08:51:37.131Z</time></trkpt><trkpt lat="43.8748025" lon="6.5275738"><ele>886.0</ele><time>2026-05-03T08:51:38.131Z</time></trkpt><trkpt lat="43.8748499" lon="6.5278357"><ele>888.0</ele><time>2026-05-03T08:51:39.131Z</time></trkpt><trkpt lat="43.8749193" lon="6.5280949"><ele>891.3333333333333</ele><time>2026-05-03T08:51:40.13Z</time></trkpt><trkpt lat="43.8750032" lon="6.5283478"><ele>894.6666666666666</ele><time>2026-05-03T08:51:41.131Z</time></trkpt><trkpt lat="43.8750923" lon="6.5285897"><ele>898.0</ele><time>2026-05-03T08:51:42.131Z</time></trkpt><trkpt lat="43.8751608" lon="6.5288114"><ele>889.3333333333333</ele><time>2026-05-03T08:51:43.13Z</time></trkpt><trkpt lat="43.8752193" lon="6.5290387"><ele>880.6666666666667</ele><time>2026-05-03T08:51:44.131Z</time></trkpt><trkpt lat="43.8752674" lon="6.5292623"><ele>872.0</ele><time>2026-05-03T08:51:45.131Z</time></trkpt><trkpt lat="43.8752735" lon="6.5294976"><ele>871.5</ele><time>2026-05-03T08:51:46.131Z</time></trkpt><trkpt lat="43.8752589" lon="6.5297081"><ele>871.0</ele><time>2026-05-03T08:51:47.131Z</time></trkpt><trkpt lat="43.8752356" lon="6.5298993"><ele>870.5</ele><time>2026-05-03T08:51:48.13Z</time></trkpt><trkpt lat="43.8752311" lon="6.5300913"><ele>870.0</ele><time>2026-05-03T08:51:49.131Z</time></trkpt><trkpt lat="43.8752706" lon="6.5302526"><ele>872.75</ele><time>2026-05-03T08:51:50.131Z</time></trkpt><trkpt lat="43.8753515" lon="6.5304164"><ele>875.5</ele><time>2026-05-03T08:51:51.131Z</time></trkpt><trkpt lat="43.875444" lon="6.5305762"><ele>878.25</ele><time>2026-05-03T08:51:52.13Z</time></trkpt><trkpt lat="43.8755408" lon="6.5307484"><ele>881.0</ele><time>2026-05-03T08:51:53.131Z</time></trkpt><trkpt lat="43.8756261" lon="6.5309227"><ele>881.0</ele><time>2026-05-03T08:51:54.131Z</time></trkpt><trkpt lat="43.8757033" lon="6.5311044"><ele>881.0</ele><time>2026-05-03T08:51:55.131Z</time></trkpt><trkpt lat="43.8757808" lon="6.5313073"><ele>881.0</ele><time>2026-05-03T08:51:56.131Z</time></trkpt><trkpt lat="43.875839" lon="6.5315166"><ele>884.0</ele><time>2026-05-03T08:51:57.131Z</time></trkpt><trkpt lat="43.8758772" lon="6.5317285"><ele>887.0</ele><time>2026-05-03T08:51:58.131Z</time></trkpt><trkpt lat="43.8758894" lon="6.5319288"><ele>890.0</ele><time>2026-05-03T08:51:59.131Z</time></trkpt><trkpt lat="43.87582" lon="6.5320747"><ele>893.0</ele><time>2026-05-03T08:52:00.13Z</time></trkpt><trkpt lat="43.8757767" lon="6.5322184"><ele>893.0</ele><time>2026-05-03T08:52:01.131Z</time></trkpt><trkpt lat="43.875758" lon="6.5323551"><ele>893.0</ele><time>2026-05-03T08:52:02.131Z</time></trkpt><trkpt lat="43.8758028" lon="6.532481"><ele>893.0</ele><time>2026-05-03T08:52:03.131Z</time></trkpt><trkpt lat="43.8758608" lon="6.5325811"><ele>893.0</ele><time>2026-05-03T08:52:04.131Z</time></trkpt><trkpt lat="43.8759524" lon="6.5326549"><ele>893.0</ele><time>2026-05-03T08:52:05.131Z</time></trkpt><trkpt lat="43.8760617" lon="6.5327165"><ele>889.5</ele><time>2026-05-03T08:52:06.131Z</time></trkpt><trkpt lat="43.8761781" lon="6.5327928"><ele>886.0</ele><time>2026-05-03T08:52:07.131Z</time></trkpt><trkpt lat="43.8763045" lon="6.5328867"><ele>882.5</ele><time>2026-05-03T08:52:08.131Z</time></trkpt><trkpt lat="43.8764126" lon="6.5330085"><ele>879.0</ele><time>2026-05-03T08:52:09.131Z</time></trkpt><trkpt lat="43.8764981" lon="6.5331866"><ele>879.0</ele><time>2026-05-03T08:52:10.131Z</time></trkpt><trkpt lat="43.876572" lon="6.533386"><ele>879.0</ele><time>2026-05-03T08:52:11.131Z</time></trkpt><trkpt lat="43.8766401" lon="6.5335986"><ele>879.0</ele><time>2026-05-03T08:52:12.131Z</time></trkpt><trkpt lat="43.8767011" lon="6.533829"><ele>875.3333333333333</ele><time>2026-05-03T08:52:13.131Z</time></trkpt><trkpt lat="43.8767715" lon="6.5340468"><ele>871.6666666666666</ele><time>2026-05-03T08:52:14.131Z</time></trkpt><trkpt lat="43.8768258" lon="6.5342623"><ele>868.0</ele><time>2026-05-03T08:52:15.131Z</time></trkpt><trkpt lat="43.8768577" lon="6.5344807"><ele>868.3333333333333</ele><time>2026-05-03T08:52:16.13Z</time></trkpt><trkpt lat="43.8768752" lon="6.5347011"><ele>868.6666666666667</ele><time>2026-05-03T08:52:17.131Z</time></trkpt><trkpt lat="43.8768884" lon="6.5349171"><ele>869.0</ele><time>2026-05-03T08:52:18.131Z</time></trkpt><trkpt lat="43.8769142" lon="6.5351195"><ele>869.0</ele><time>2026-05-03T08:52:19.131Z</time></trkpt><trkpt lat="43.8769637" lon="6.5353218"><ele>869.0</ele><time>2026-05-03T08:52:20.131Z</time></trkpt><trkpt lat="43.8770478" lon="6.5355107"><ele>869.0</ele><time>2026-05-03T08:52:21.131Z</time></trkpt><trkpt lat="43.8771422" lon="6.535685"><ele>871.25</ele><time>2026-05-03T08:52:22.131Z</time></trkpt><trkpt lat="43.877228" lon="6.5358533"><ele>873.5</ele><time>2026-05-03T08:52:23.131Z</time></trkpt><trkpt lat="43.8773199" lon="6.5360194"><ele>875.75</ele><time>2026-05-03T08:52:24.131Z</time></trkpt><trkpt lat="43.8774116" lon="6.5361632"><ele>878.0</ele><time>2026-05-03T08:52:25.131Z</time></trkpt><trkpt lat="43.8774906" lon="6.5362981"><ele>879.0</ele><time>2026-05-03T08:52:26.131Z</time></trkpt><trkpt lat="43.8775471" lon="6.536422"><ele>880.0</ele><time>2026-05-03T08:52:27.131Z</time></trkpt><trkpt lat="43.8776135" lon="6.5365241"><ele>881.0</ele><time>2026-05-03T08:52:28.131Z</time></trkpt><trkpt lat="43.877684" lon="6.5366108"><ele>882.0</ele><time>2026-05-03T08:52:29.131Z</time></trkpt><trkpt lat="43.8777477" lon="6.5366638"><ele>883.0</ele><time>2026-05-03T08:52:30.131Z</time></trkpt><trkpt lat="43.8778475" lon="6.5366742"><ele>879.8</ele><time>2026-05-03T08:52:31.131Z</time></trkpt><trkpt lat="43.8779503" lon="6.5366916"><ele>876.5999999999999</ele><time>2026-05-03T08:52:32.131Z</time></trkpt><trkpt lat="43.87806" lon="6.5367186"><ele>873.4000000000001</ele><time>2026-05-03T08:52:33.131Z</time></trkpt><trkpt lat="43.8781728" lon="6.5367636"><ele>870.2</ele><time>2026-05-03T08:52:34.131Z</time></trkpt><trkpt lat="43.8782585" lon="6.536842"><ele>867.0</ele><time>2026-05-03T08:52:35.131Z</time></trkpt><trkpt lat="43.8783443" lon="6.5369322"><ele>867.0</ele><time>2026-05-03T08:52:36.131Z</time></trkpt><trkpt lat="43.8784131" lon="6.5370423"><ele>867.0</ele><time>2026-05-03T08:52:37.131Z</time></trkpt><trkpt lat="43.8784569" lon="6.5371669"><ele>867.0</ele><time>2026-05-03T08:52:38.131Z</time></trkpt><trkpt lat="43.8784956" lon="6.5373007"><ele>867.0</ele><time>2026-05-03T08:52:39.13Z</time></trkpt><trkpt lat="43.8785235" lon="6.5374445"><ele>867.0</ele><time>2026-05-03T08:52:40.13Z</time></trkpt><trkpt lat="43.8785209" lon="6.5376077"><ele>867.0</ele><time>2026-05-03T08:52:41.131Z</time></trkpt><trkpt lat="43.8784919" lon="6.5377698"><ele>867.0</ele><time>2026-05-03T08:52:42.13Z</time></trkpt><trkpt lat="43.8784456" lon="6.5379177"><ele>867.0</ele><time>2026-05-03T08:52:43.131Z</time></trkpt><trkpt lat="43.878385" lon="6.5380499"><ele>867.0</ele><time>2026-05-03T08:52:44.131Z</time></trkpt><trkpt lat="43.8782991" lon="6.5381676"><ele>867.4000000000001</ele><time>2026-05-03T08:52:45.131Z</time></trkpt><trkpt lat="43.878217" lon="6.5382565"><ele>867.8000000000001</ele><time>2026-05-03T08:52:46.131Z</time></trkpt><trkpt lat="43.8781499" lon="6.538349"><ele>868.2</ele><time>2026-05-03T08:52:47.131Z</time></trkpt><trkpt lat="43.8780888" lon="6.5384464"><ele>868.6</ele><time>2026-05-03T08:52:48.131Z</time></trkpt><trkpt lat="43.8780418" lon="6.5385559"><ele>869.0</ele><time>2026-05-03T08:52:49.131Z</time></trkpt><trkpt lat="43.8780256" lon="6.5386807"><ele>872.0</ele><time>2026-05-03T08:52:50.13Z</time></trkpt><trkpt lat="43.8780358" lon="6.5388087"><ele>875.0000000000001</ele><time>2026-05-03T08:52:51.131Z</time></trkpt><trkpt lat="43.8780682" lon="6.5389421"><ele>878.0000000000001</ele><time>2026-05-03T08:52:52.13Z</time></trkpt><trkpt lat="43.8781336" lon="6.5390646"><ele>881.0</ele><time>2026-05-03T08:52:53.131Z</time></trkpt><trkpt lat="43.8782114" lon="6.5391988"><ele>884.0</ele><time>2026-05-03T08:52:54.131Z</time></trkpt><trkpt lat="43.8782757" lon="6.5393481"><ele>884.0</ele><time>2026-05-03T08:52:55.131Z</time></trkpt><trkpt lat="43.8783612" lon="6.5394806"><ele>884.0</ele><time>2026-05-03T08:52:56.131Z</time></trkpt><trkpt lat="43.8784265" lon="6.5396066"><ele>884.0</ele><time>2026-05-03T08:52:57.131Z</time></trkpt><trkpt lat="43.8784809" lon="6.5397555"><ele>884.0</ele><time>2026-05-03T08:52:58.13Z</time></trkpt><trkpt lat="43.8785055" lon="6.5399127"><ele>883.25</ele><time>2026-05-03T08:52:59.131Z</time></trkpt><trkpt lat="43.8785066" lon="6.5400837"><ele>882.5</ele><time>2026-05-03T08:53:00.131Z</time></trkpt><trkpt lat="43.8785037" lon="6.5402775"><ele>881.75</ele><time>2026-05-03T08:53:01.131Z</time></trkpt><trkpt lat="43.8784978" lon="6.5404671"><ele>881.0</ele><time>2026-05-03T08:53:02.131Z</time></trkpt><trkpt lat="43.8784825" lon="6.5406616"><ele>881.0</ele><time>2026-05-03T08:53:03.131Z</time></trkpt><trkpt lat="43.8784645" lon="6.5408607"><ele>881.0</ele><time>2026-05-03T08:53:04.13Z</time></trkpt><trkpt lat="43.8784224" lon="6.5410565"><ele>881.0</ele><time>2026-05-03T08:53:05.131Z</time></trkpt><trkpt lat="43.8783715" lon="6.5412465"><ele>881.0</ele><time>2026-05-03T08:53:06.131Z</time></trkpt><trkpt lat="43.8783247" lon="6.5414344"><ele>884.0</ele><time>2026-05-03T08:53:07.131Z</time></trkpt><trkpt lat="43.8782802" lon="6.5415945"><ele>886.9999999999999</ele><time>2026-05-03T08:53:08.131Z</time></trkpt><trkpt lat="43.8782449" lon="6.5417405"><ele>889.9999999999999</ele><time>2026-05-03T08:53:09.131Z</time></trkpt><trkpt lat="43.87822" lon="6.5418597"><ele>893.0</ele><time>2026-05-03T08:53:10.131Z</time></trkpt><trkpt lat="43.8782396" lon="6.541981"><ele>896.0</ele><time>2026-05-03T08:53:11.13Z</time></trkpt><trkpt lat="43.8782838" lon="6.5420847"><ele>896.5999999999999</ele><time>2026-05-03T08:53:12.131Z</time></trkpt><trkpt lat="43.8783553" lon="6.5421559"><ele>897.1999999999999</ele><time>2026-05-03T08:53:13.131Z</time></trkpt><trkpt lat="43.8784388" lon="6.542181"><ele>897.8000000000001</ele><time>2026-05-03T08:53:14.131Z</time></trkpt><trkpt lat="43.8785327" lon="6.5422058"><ele>898.4000000000001</ele><time>2026-05-03T08:53:15.131Z</time></trkpt><trkpt lat="43.8786124" lon="6.5420919"><ele>899.0</ele><time>2026-05-03T08:53:16.131Z</time></trkpt><trkpt lat="43.8786997" lon="6.5419752"><ele>897.5</ele><time>2026-05-03T08:53:17.131Z</time></trkpt><trkpt lat="43.8787923" lon="6.5418494"><ele>896.0</ele><time>2026-05-03T08:53:18.131Z</time></trkpt><trkpt lat="43.8789069" lon="6.5417108"><ele>894.5</ele><time>2026-05-03T08:53:19.131Z</time></trkpt><trkpt lat="43.8790208" lon="6.5415652"><ele>893.0</ele><time>2026-05-03T08:53:20.13Z</time></trkpt><trkpt lat="43.8791376" lon="6.5414354"><ele>893.0</ele><time>2026-05-03T08:53:21.131Z</time></trkpt><trkpt lat="43.8792333" lon="6.5413167"><ele>893.0</ele><time>2026-05-03T08:53:22.131Z</time></trkpt><trkpt lat="43.8793552" lon="6.5411975"><ele>893.0</ele><time>2026-05-03T08:53:23.131Z</time></trkpt><trkpt lat="43.8794624" lon="6.5410738"><ele>893.0</ele><time>2026-05-03T08:53:24.131Z</time></trkpt><trkpt lat="43.879561" lon="6.5409607"><ele>891.25</ele><time>2026-05-03T08:53:25.131Z</time></trkpt><trkpt lat="43.8796552" lon="6.540877"><ele>889.5</ele><time>2026-05-03T08:53:26.131Z</time></trkpt><trkpt lat="43.8797563" lon="6.5408103"><ele>887.75</ele><time>2026-05-03T08:53:27.131Z</time></trkpt><trkpt lat="43.8798757" lon="6.5407658"><ele>886.0</ele><time>2026-05-03T08:53:28.131Z</time></trkpt><trkpt lat="43.8800054" lon="6.540761"><ele>883.25</ele><time>2026-05-03T08:53:29.131Z</time></trkpt><trkpt lat="43.8801382" lon="6.5408075"><ele>880.5</ele><time>2026-05-03T08:53:30.131Z</time></trkpt><trkpt lat="43.8802419" lon="6.5408864"><ele>877.75</ele><time>2026-05-03T08:53:31.131Z</time></trkpt><trkpt lat="43.8803426" lon="6.540997"><ele>875.0</ele><time>2026-05-03T08:53:32.131Z</time></trkpt><trkpt lat="43.8804231" lon="6.5411577"><ele>877.5</ele><time>2026-05-03T08:53:33.131Z</time></trkpt><trkpt lat="43.8804681" lon="6.5413401"><ele>880.0</ele><time>2026-05-03T08:53:34.13Z</time></trkpt><trkpt lat="43.8805007" lon="6.5415208"><ele>882.5</ele><time>2026-05-03T08:53:35.131Z</time></trkpt><trkpt lat="43.8805111" lon="6.5417"><ele>885.0</ele><time>2026-05-03T08:53:36.131Z</time></trkpt><trkpt lat="43.8805223" lon="6.5418711"><ele>885.0</ele><time>2026-05-03T08:53:37.131Z</time></trkpt><trkpt lat="43.8805426" lon="6.5420188"><ele>885.0</ele><time>2026-05-03T08:53:38.131Z</time></trkpt><trkpt lat="43.8805854" lon="6.5421451"><ele>885.0</ele><time>2026-05-03T08:53:39.131Z</time></trkpt><trkpt lat="43.8806555" lon="6.5422376"><ele>885.0</ele><time>2026-05-03T08:53:40.131Z</time></trkpt><trkpt lat="43.8807533" lon="6.5422942"><ele>885.0</ele><time>2026-05-03T08:53:41.131Z</time></trkpt><trkpt lat="43.8808495" lon="6.5422988"><ele>888.5</ele><time>2026-05-03T08:53:42.131Z</time></trkpt><trkpt lat="43.8809552" lon="6.5422307"><ele>892.0</ele><time>2026-05-03T08:53:43.131Z</time></trkpt><trkpt lat="43.8810419" lon="6.5421346"><ele>895.5</ele><time>2026-05-03T08:53:44.13Z</time></trkpt><trkpt lat="43.881151" lon="6.541975"><ele>899.0</ele><time>2026-05-03T08:53:45.131Z</time></trkpt><trkpt lat="43.8812545" lon="6.5418087"><ele>899.0</ele><time>2026-05-03T08:53:46.131Z</time></trkpt><trkpt lat="43.8813554" lon="6.5416295"><ele>899.0</ele><time>2026-05-03T08:53:47.131Z</time></trkpt><trkpt lat="43.8814558" lon="6.5414545"><ele>899.0</ele><time>2026-05-03T08:53:48.131Z</time></trkpt><trkpt lat="43.8815566" lon="6.541283"><ele>899.5</ele><time>2026-05-03T08:53:49.13Z</time></trkpt><trkpt lat="43.881665" lon="6.5411255"><ele>900.0</ele><time>2026-05-03T08:53:50.131Z</time></trkpt><trkpt lat="43.8817793" lon="6.541009"><ele>900.5</ele><time>2026-05-03T08:53:51.131Z</time></trkpt><trkpt lat="43.8819052" lon="6.5409192"><ele>901.0</ele><time>2026-05-03T08:53:52.131Z</time></trkpt><trkpt lat="43.8820328" lon="6.5408167"><ele>901.0</ele><time>2026-05-03T08:53:53.131Z</time></trkpt><trkpt lat="43.8821599" lon="6.5407"><ele>901.0</ele><time>2026-05-03T08:53:54.131Z</time></trkpt><trkpt lat="43.8822588" lon="6.5405923"><ele>901.0</ele><time>2026-05-03T08:53:55.131Z</time></trkpt><trkpt lat="43.8823488" lon="6.5404731"><ele>901.0</ele><time>2026-05-03T08:53:56.131Z</time></trkpt><trkpt lat="43.8824472" lon="6.5403993"><ele>900.5</ele><time>2026-05-03T08:53:57.131Z</time></trkpt><trkpt lat="43.8825544" lon="6.540347"><ele>900.0</ele><time>2026-05-03T08:53:58.131Z</time></trkpt><trkpt lat="43.88267" lon="6.5403283"><ele>899.5</ele><time>2026-05-03T08:53:59.131Z</time></trkpt><trkpt lat="43.8827792" lon="6.5403526"><ele>899.0</ele><time>2026-05-03T08:54:00.131Z</time></trkpt><trkpt lat="43.8828906" lon="6.5404095"><ele>899.0</ele><time>2026-05-03T08:54:01.13Z</time></trkpt><trkpt lat="43.8829972" lon="6.5404749"><ele>899.0</ele><time>2026-05-03T08:54:02.131Z</time></trkpt><trkpt lat="43.8831195" lon="6.5405382"><ele>899.0</ele><time>2026-05-03T08:54:03.131Z</time></trkpt><trkpt lat="43.8832219" lon="6.5405879"><ele>899.0</ele><time>2026-05-03T08:54:04.131Z</time></trkpt><trkpt lat="43.8833465" lon="6.5405877"><ele>900.0</ele><time>2026-05-03T08:54:05.131Z</time></trkpt><trkpt lat="43.8834523" lon="6.5405744"><ele>901.0000000000001</ele><time>2026-05-03T08:54:06.13Z</time></trkpt><trkpt lat="43.8835516" lon="6.5405539"><ele>902.0000000000001</ele><time>2026-05-03T08:54:07.131Z</time></trkpt><trkpt lat="43.8836354" lon="6.5404818"><ele>903.0</ele><time>2026-05-03T08:54:08.13Z</time></trkpt><trkpt lat="43.8836881" lon="6.5403215"><ele>904.0</ele><time>2026-05-03T08:54:09.131Z</time></trkpt><trkpt lat="43.8837162" lon="6.5401825"><ele>904.0</ele><time>2026-05-03T08:54:10.131Z</time></trkpt><trkpt lat="43.8837677" lon="6.5400726"><ele>904.0000000000001</ele><time>2026-05-03T08:54:11.131Z</time></trkpt><trkpt lat="43.8838461" lon="6.5399955"><ele>904.0000000000001</ele><time>2026-05-03T08:54:12.131Z</time></trkpt><trkpt lat="43.8839552" lon="6.5399508"><ele>904.0</ele><time>2026-05-03T08:54:13.131Z</time></trkpt><trkpt lat="43.8840612" lon="6.5399224"><ele>904.0</ele><time>2026-05-03T08:54:14.131Z</time></trkpt><trkpt lat="43.8841841" lon="6.5398871"><ele>906.25</ele><time>2026-05-03T08:54:15.131Z</time></trkpt><trkpt lat="43.8842991" lon="6.539812"><ele>908.5</ele><time>2026-05-03T08:54:16.13Z</time></trkpt><trkpt lat="43.8843984" lon="6.5397228"><ele>910.75</ele><time>2026-05-03T08:54:17.131Z</time></trkpt><trkpt lat="43.8844883" lon="6.539578"><ele>913.0</ele><time>2026-05-03T08:54:18.131Z</time></trkpt><trkpt lat="43.8845535" lon="6.5394058"><ele>913.0</ele><time>2026-05-03T08:54:19.131Z</time></trkpt><trkpt lat="43.8846132" lon="6.5392249"><ele>913.0</ele><time>2026-05-03T08:54:20.131Z</time></trkpt><trkpt lat="43.8846863" lon="6.5390344"><ele>913.0</ele><time>2026-05-03T08:54:21.13Z</time></trkpt><trkpt lat="43.8847777" lon="6.5388537"><ele>904.3333333333333</ele><time>2026-05-03T08:54:22.13Z</time></trkpt><trkpt lat="43.884872" lon="6.5386747"><ele>895.6666666666667</ele><time>2026-05-03T08:54:23.131Z</time></trkpt><trkpt lat="43.8849567" lon="6.5384976"><ele>887.0</ele><time>2026-05-03T08:54:24.131Z</time></trkpt><trkpt lat="43.8850516" lon="6.5383207"><ele>888.0</ele><time>2026-05-03T08:54:25.131Z</time></trkpt><trkpt lat="43.8851516" lon="6.5381661"><ele>889.0</ele><time>2026-05-03T08:54:26.131Z</time></trkpt><trkpt lat="43.8852606" lon="6.5380197"><ele>890.0</ele><time>2026-05-03T08:54:27.131Z</time></trkpt><trkpt lat="43.8853699" lon="6.5379054"><ele>891.0</ele><time>2026-05-03T08:54:28.131Z</time></trkpt><trkpt lat="43.8854727" lon="6.537794"><ele>891.0</ele><time>2026-05-03T08:54:29.131Z</time></trkpt><trkpt lat="43.8855837" lon="6.5376869"><ele>891.0</ele><time>2026-05-03T08:54:30.131Z</time></trkpt><trkpt lat="43.8856855" lon="6.5375708"><ele>891.0</ele><time>2026-05-03T08:54:31.131Z</time></trkpt><trkpt lat="43.8857813" lon="6.5374705"><ele>891.0</ele><time>2026-05-03T08:54:32.13Z</time></trkpt><trkpt lat="43.8858975" lon="6.5373939"><ele>895.3333333333333</ele><time>2026-05-03T08:54:33.131Z</time></trkpt><trkpt lat="43.8860347" lon="6.5373273"><ele>899.6666666666666</ele><time>2026-05-03T08:54:34.131Z</time></trkpt><trkpt lat="43.8861924" lon="6.5372737"><ele>904.0</ele><time>2026-05-03T08:54:35.131Z</time></trkpt><trkpt lat="43.8863741" lon="6.5372368"><ele>904.0</ele><time>2026-05-03T08:54:36.13Z</time></trkpt><trkpt lat="43.8865559" lon="6.5372128"><ele>904.0</ele><time>2026-05-03T08:54:37.131Z</time></trkpt><trkpt lat="43.8867194" lon="6.5371638"><ele>904.0</ele><time>2026-05-03T08:54:38.131Z</time></trkpt><trkpt lat="43.8868673" lon="6.5371009"><ele>896.25</ele><time>2026-05-03T08:54:39.13Z</time></trkpt><trkpt lat="43.8870154" lon="6.5370402"><ele>888.5</ele><time>2026-05-03T08:54:40.131Z</time></trkpt><trkpt lat="43.8871531" lon="6.5370074"><ele>880.75</ele><time>2026-05-03T08:54:41.13Z</time></trkpt><trkpt lat="43.8872797" lon="6.537008"><ele>873.0</ele><time>2026-05-03T08:54:42.131Z</time></trkpt><trkpt lat="43.8874045" lon="6.5370434"><ele>873.25</ele><time>2026-05-03T08:54:43.131Z</time></trkpt><trkpt lat="43.8875066" lon="6.5371632"><ele>873.5</ele><time>2026-05-03T08:54:44.131Z</time></trkpt><trkpt lat="43.8875787" lon="6.5373188"><ele>873.75</ele><time>2026-05-03T08:54:45.131Z</time></trkpt><trkpt lat="43.8876357" lon="6.537503"><ele>874.0</ele><time>2026-05-03T08:54:46.131Z</time></trkpt><trkpt lat="43.8876926" lon="6.5377098"><ele>878.5</ele><time>2026-05-03T08:54:47.131Z</time></trkpt><trkpt lat="43.8877535" lon="6.537904"><ele>883.0</ele><time>2026-05-03T08:54:48.131Z</time></trkpt><trkpt lat="43.887823" lon="6.5380946"><ele>887.5</ele><time>2026-05-03T08:54:49.131Z</time></trkpt><trkpt lat="43.8878758" lon="6.5382581"><ele>892.0</ele><time>2026-05-03T08:54:50.131Z</time></trkpt><trkpt lat="43.8879431" lon="6.5383738"><ele>892.0</ele><time>2026-05-03T08:54:51.131Z</time></trkpt><trkpt lat="43.8880225" lon="6.538454"><ele>892.0</ele><time>2026-05-03T08:54:52.131Z</time></trkpt><trkpt lat="43.8881195" lon="6.538491"><ele>892.0</ele><time>2026-05-03T08:54:53.131Z</time></trkpt><trkpt lat="43.8882231" lon="6.538485"><ele>892.0</ele><time>2026-05-03T08:54:54.13Z</time></trkpt><trkpt lat="43.8883299" lon="6.5384644"><ele>892.0</ele><time>2026-05-03T08:54:55.13Z</time></trkpt><trkpt lat="43.8884347" lon="6.5383142"><ele>894.5</ele><time>2026-05-03T08:54:56.131Z</time></trkpt><trkpt lat="43.888538" lon="6.5382078"><ele>897.0</ele><time>2026-05-03T08:54:57.131Z</time></trkpt><trkpt lat="43.8886623" lon="6.5381303"><ele>899.5</ele><time>2026-05-03T08:54:58.131Z</time></trkpt><trkpt lat="43.8888066" lon="6.5380878"><ele>902.0</ele><time>2026-05-03T08:54:59.131Z</time></trkpt><trkpt lat="43.88894" lon="6.5380772"><ele>902.0</ele><time>2026-05-03T08:55:00.131Z</time></trkpt><trkpt lat="43.8891052" lon="6.538056"><ele>902.0</ele><time>2026-05-03T08:55:01.13Z</time></trkpt><trkpt lat="43.8892838" lon="6.5380405"><ele>902.0</ele><time>2026-05-03T08:55:02.131Z</time></trkpt><trkpt lat="43.8894562" lon="6.5380251"><ele>904.3333333333334</ele><time>2026-05-03T08:55:03.131Z</time></trkpt><trkpt lat="43.8896251" lon="6.5380158"><ele>906.6666666666667</ele><time>2026-05-03T08:55:04.131Z</time></trkpt><trkpt lat="43.8897874" lon="6.5380135"><ele>909.0</ele><time>2026-05-03T08:55:05.131Z</time></trkpt><trkpt lat="43.8899409" lon="6.5380209"><ele>909.0</ele><time>2026-05-03T08:55:06.131Z</time></trkpt><trkpt lat="43.8900636" lon="6.5380355"><ele>909.0</ele><time>2026-05-03T08:55:07.131Z</time></trkpt><trkpt lat="43.8901791" lon="6.5380323"><ele>909.0</ele><time>2026-05-03T08:55:08.131Z</time></trkpt><trkpt lat="43.8902774" lon="6.5379823"><ele>909.0</ele><time>2026-05-03T08:55:09.131Z</time></trkpt><trkpt lat="43.8903859" lon="6.537907"><ele>911.0</ele><time>2026-05-03T08:55:10.131Z</time></trkpt><trkpt lat="43.8904704" lon="6.5377524"><ele>913.0</ele><time>2026-05-03T08:55:11.13Z</time></trkpt><trkpt lat="43.890569" lon="6.5376042"><ele>915.0</ele><time>2026-05-03T08:55:12.131Z</time></trkpt><trkpt lat="43.8906044" lon="6.5373737"><ele>915.0</ele><time>2026-05-03T08:55:13.131Z</time></trkpt><trkpt lat="43.8906758" lon="6.5371461"><ele>915.0</ele><time>2026-05-03T08:55:14.131Z</time></trkpt><trkpt lat="43.8907304" lon="6.5369346"><ele>915.0</ele><time>2026-05-03T08:55:15.13Z</time></trkpt><trkpt lat="43.8908009" lon="6.5367094"><ele>910.6666666666667</ele><time>2026-05-03T08:55:16.13Z</time></trkpt><trkpt lat="43.8908979" lon="6.536516"><ele>906.3333333333334</ele><time>2026-05-03T08:55:17.13Z</time></trkpt><trkpt lat="43.8909954" lon="6.5363319"><ele>902.0</ele><time>2026-05-03T08:55:18.131Z</time></trkpt><trkpt lat="43.8910875" lon="6.5361537"><ele>902.0</ele><time>2026-05-03T08:55:19.131Z</time></trkpt><trkpt lat="43.8911674" lon="6.5360189"><ele>902.0</ele><time>2026-05-03T08:55:20.131Z</time></trkpt><trkpt lat="43.8912624" lon="6.5359055"><ele>902.0</ele><time>2026-05-03T08:55:21.131Z</time></trkpt><trkpt lat="43.89136" lon="6.5358229"><ele>902.0</ele><time>2026-05-03T08:55:22.131Z</time></trkpt><trkpt lat="43.8914595" lon="6.5357592"><ele>902.0</ele><time>2026-05-03T08:55:23.131Z</time></trkpt><trkpt lat="43.891555" lon="6.5357349"><ele>902.0</ele><time>2026-05-03T08:55:24.131Z</time></trkpt><trkpt lat="43.892609" lon="6.5357262"><ele>895.0</ele><time>2026-05-03T08:55:31.131Z</time></trkpt><trkpt lat="43.8927776" lon="6.5358742"><ele>888.0</ele><time>2026-05-03T08:55:32.131Z</time></trkpt><trkpt lat="43.8929114" lon="6.5360063"><ele>881.0</ele><time>2026-05-03T08:55:33.131Z</time></trkpt><trkpt lat="43.8930514" lon="6.5361565"><ele>886.0</ele><time>2026-05-03T08:55:34.13Z</time></trkpt><trkpt lat="43.8931828" lon="6.536313"><ele>891.0</ele><time>2026-05-03T08:55:35.131Z</time></trkpt><trkpt lat="43.8932963" lon="6.5364751"><ele>896.0</ele><time>2026-05-03T08:55:36.13Z</time></trkpt><trkpt lat="43.8933875" lon="6.5366541"><ele>888.0</ele><time>2026-05-03T08:55:37.13Z</time></trkpt><trkpt lat="43.893467" lon="6.5368561"><ele>880.0</ele><time>2026-05-03T08:55:38.131Z</time></trkpt><trkpt lat="43.893542" lon="6.5370661"><ele>872.0</ele><time>2026-05-03T08:55:39.131Z</time></trkpt><trkpt lat="43.8936077" lon="6.5373012"><ele>872.0</ele><time>2026-05-03T08:55:40.131Z</time></trkpt><trkpt lat="43.893698" lon="6.5375216"><ele>872.0</ele><time>2026-05-03T08:55:41.131Z</time></trkpt><trkpt lat="43.8937917" lon="6.5377327"><ele>872.0</ele><time>2026-05-03T08:55:42.13Z</time></trkpt><trkpt lat="43.8938985" lon="6.5379413"><ele>881.0</ele><time>2026-05-03T08:55:43.131Z</time></trkpt><trkpt lat="43.8940142" lon="6.5381372"><ele>890.0</ele><time>2026-05-03T08:55:44.131Z</time></trkpt><trkpt lat="43.8941182" lon="6.5382879"><ele>899.0</ele><time>2026-05-03T08:55:45.131Z</time></trkpt><trkpt lat="43.8942353" lon="6.5384462"><ele>895.6666666666667</ele><time>2026-05-03T08:55:46.131Z</time></trkpt><trkpt lat="43.8943525" lon="6.5386072"><ele>892.3333333333333</ele><time>2026-05-03T08:55:47.131Z</time></trkpt><trkpt lat="43.8944606" lon="6.5387664"><ele>889.0</ele><time>2026-05-03T08:55:48.131Z</time></trkpt><trkpt lat="43.8945878" lon="6.5389144"><ele>889.0</ele><time>2026-05-03T08:55:49.13Z</time></trkpt><trkpt lat="43.8946942" lon="6.5390723"><ele>889.0</ele><time>2026-05-03T08:55:50.131Z</time></trkpt><trkpt lat="43.8947918" lon="6.5392476"><ele>889.0</ele><time>2026-05-03T08:55:51.131Z</time></trkpt><trkpt lat="43.8948799" lon="6.5394434"><ele>893.3333333333333</ele><time>2026-05-03T08:55:52.131Z</time></trkpt><trkpt lat="43.8949588" lon="6.5396459"><ele>897.6666666666667</ele><time>2026-05-03T08:55:53.13Z</time></trkpt><trkpt lat="43.8950483" lon="6.5398517"><ele>902.0</ele><time>2026-05-03T08:55:54.13Z</time></trkpt><trkpt lat="43.8951484" lon="6.5400338"><ele>902.0</ele><time>2026-05-03T08:55:55.131Z</time></trkpt><trkpt lat="43.895244" lon="6.5401948"><ele>902.0</ele><time>2026-05-03T08:55:56.131Z</time></trkpt><trkpt lat="43.8953333" lon="6.5403257"><ele>902.0</ele><time>2026-05-03T08:55:57.131Z</time></trkpt><trkpt lat="43.89542" lon="6.5404273"><ele>902.0</ele><time>2026-05-03T08:55:58.131Z</time></trkpt><trkpt lat="43.8955073" lon="6.5405164"><ele>902.0</ele><time>2026-05-03T08:55:59.13Z</time></trkpt><trkpt lat="43.8956086" lon="6.5405301"><ele>902.0</ele><time>2026-05-03T08:56:00.131Z</time></trkpt><trkpt lat="43.8957009" lon="6.5405228"><ele>902.0</ele><time>2026-05-03T08:56:01.131Z</time></trkpt><trkpt lat="43.8957924" lon="6.5404563"><ele>902.0</ele><time>2026-05-03T08:56:02.131Z</time></trkpt><trkpt lat="43.8958734" lon="6.5403572"><ele>902.0</ele><time>2026-05-03T08:56:03.131Z</time></trkpt><trkpt lat="43.8959453" lon="6.5402677"><ele>902.0</ele><time>2026-05-03T08:56:04.13Z</time></trkpt><trkpt lat="43.8959476" lon="6.5401051"><ele>902.0</ele><time>2026-05-03T08:56:05.13Z</time></trkpt><trkpt lat="43.8959268" lon="6.5399379"><ele>902.0</ele><time>2026-05-03T08:56:06.131Z</time></trkpt><trkpt lat="43.8958901" lon="6.5397495"><ele>902.0</ele><time>2026-05-03T08:56:07.131Z</time></trkpt><trkpt lat="43.8958404" lon="6.5395182"><ele>901.3333333333334</ele><time>2026-05-03T08:56:08.131Z</time></trkpt><trkpt lat="43.8958109" lon="6.5392923"><ele>900.6666666666667</ele><time>2026-05-03T08:56:09.131Z</time></trkpt><trkpt lat="43.8957696" lon="6.5390656"><ele>900.0</ele><time>2026-05-03T08:56:10.131Z</time></trkpt><trkpt lat="43.8957188" lon="6.5388424"><ele>899.25</ele><time>2026-05-03T08:56:11.131Z</time></trkpt><trkpt lat="43.8956792" lon="6.5386193"><ele>898.5</ele><time>2026-05-03T08:56:12.131Z</time></trkpt><trkpt lat="43.8956401" lon="6.5384549"><ele>897.75</ele><time>2026-05-03T08:56:13.131Z</time></trkpt><trkpt lat="43.8956206" lon="6.5382976"><ele>897.0</ele><time>2026-05-03T08:56:14.131Z</time></trkpt><trkpt lat="43.8956103" lon="6.5381611"><ele>897.0</ele><time>2026-05-03T08:56:15.131Z</time></trkpt><trkpt lat="43.8956242" lon="6.5380274"><ele>897.0</ele><time>2026-05-03T08:56:16.131Z</time></trkpt><trkpt lat="43.8957148" lon="6.5379202"><ele>897.0</ele><time>2026-05-03T08:56:17.131Z</time></trkpt><trkpt lat="43.8958041" lon="6.5378654"><ele>897.0</ele><time>2026-05-03T08:56:18.13Z</time></trkpt><trkpt lat="43.895913" lon="6.537861"><ele>897.0</ele><time>2026-05-03T08:56:19.13Z</time></trkpt><trkpt lat="43.8960213" lon="6.5379023"><ele>898.0</ele><time>2026-05-03T08:56:20.13Z</time></trkpt><trkpt lat="43.8961102" lon="6.5380328"><ele>899.0</ele><time>2026-05-03T08:56:21.131Z</time></trkpt><trkpt lat="43.8961909" lon="6.5381708"><ele>900.0</ele><time>2026-05-03T08:56:22.131Z</time></trkpt><trkpt lat="43.8962803" lon="6.5383022"><ele>901.0</ele><time>2026-05-03T08:56:23.131Z</time></trkpt><trkpt lat="43.8963859" lon="6.5383795"><ele>901.0</ele><time>2026-05-03T08:56:24.131Z</time></trkpt><trkpt lat="43.8964918" lon="6.5384498"><ele>901.0</ele><time>2026-05-03T08:56:25.131Z</time></trkpt><trkpt lat="43.8966261" lon="6.538394"><ele>901.0</ele><time>2026-05-03T08:56:26.131Z</time></trkpt><trkpt lat="43.89675" lon="6.5383116"><ele>901.0</ele><time>2026-05-03T08:56:27.13Z</time></trkpt><trkpt lat="43.8968652" lon="6.5382428"><ele>900.75</ele><time>2026-05-03T08:56:28.131Z</time></trkpt><trkpt lat="43.8969895" lon="6.5382191"><ele>900.5</ele><time>2026-05-03T08:56:29.131Z</time></trkpt><trkpt lat="43.8971156" lon="6.5382519"><ele>900.25</ele><time>2026-05-03T08:56:30.131Z</time></trkpt><trkpt lat="43.897223" lon="6.5383065"><ele>900.0</ele><time>2026-05-03T08:56:31.131Z</time></trkpt><trkpt lat="43.8973651" lon="6.5384347"><ele>900.0</ele><time>2026-05-03T08:56:32.131Z</time></trkpt><trkpt lat="43.8975156" lon="6.5385379"><ele>900.0</ele><time>2026-05-03T08:56:33.13Z</time></trkpt><trkpt lat="43.8976742" lon="6.5386348"><ele>900.0</ele><time>2026-05-03T08:56:34.131Z</time></trkpt><trkpt lat="43.8978345" lon="6.5387255"><ele>903.75</ele><time>2026-05-03T08:56:35.131Z</time></trkpt><trkpt lat="43.8979785" lon="6.5388059"><ele>907.5</ele><time>2026-05-03T08:56:36.131Z</time></trkpt><trkpt lat="43.8981203" lon="6.5388692"><ele>911.25</ele><time>2026-05-03T08:56:37.131Z</time></trkpt><trkpt lat="43.8982565" lon="6.5389"><ele>915.0</ele><time>2026-05-03T08:56:38.131Z</time></trkpt><trkpt lat="43.8983947" lon="6.53891"><ele>912.5</ele><time>2026-05-03T08:56:39.131Z</time></trkpt><trkpt lat="43.8985334" lon="6.5389594"><ele>910.0</ele><time>2026-05-03T08:56:40.131Z</time></trkpt><trkpt lat="43.8986641" lon="6.5390183"><ele>907.5</ele><time>2026-05-03T08:56:41.131Z</time></trkpt><trkpt lat="43.8987974" lon="6.5391216"><ele>905.0</ele><time>2026-05-03T08:56:42.131Z</time></trkpt><trkpt lat="43.8989559" lon="6.5392269"><ele>905.0</ele><time>2026-05-03T08:56:43.131Z</time></trkpt><trkpt lat="43.8991053" lon="6.5393009"><ele>905.0</ele><time>2026-05-03T08:56:44.13Z</time></trkpt><trkpt lat="43.8992489" lon="6.5393645"><ele>905.0</ele><time>2026-05-03T08:56:45.13Z</time></trkpt><trkpt lat="43.8993839" lon="6.5394695"><ele>903.0</ele><time>2026-05-03T08:56:46.131Z</time></trkpt><trkpt lat="43.8995027" lon="6.5396184"><ele>901.0</ele><time>2026-05-03T08:56:47.131Z</time></trkpt><trkpt lat="43.8996118" lon="6.5398065"><ele>899.0</ele><time>2026-05-03T08:56:48.131Z</time></trkpt><trkpt lat="43.8997072" lon="6.540014"><ele>899.0</ele><time>2026-05-03T08:56:49.131Z</time></trkpt><trkpt lat="43.8998084" lon="6.5402142"><ele>899.0</ele><time>2026-05-03T08:56:50.13Z</time></trkpt><trkpt lat="43.8999108" lon="6.5403861"><ele>899.0</ele><time>2026-05-03T08:56:51.131Z</time></trkpt><trkpt lat="43.9000132" lon="6.5405369"><ele>905.25</ele><time>2026-05-03T08:56:52.131Z</time></trkpt><trkpt lat="43.9001194" lon="6.5406689"><ele>911.5</ele><time>2026-05-03T08:56:53.131Z</time></trkpt><trkpt lat="43.900246" lon="6.5407062"><ele>917.75</ele><time>2026-05-03T08:56:54.131Z</time></trkpt><trkpt lat="43.9003887" lon="6.540701"><ele>924.0</ele><time>2026-05-03T08:56:55.13Z</time></trkpt><trkpt lat="43.9005339" lon="6.540664"><ele>924.0</ele><time>2026-05-03T08:56:56.131Z</time></trkpt><trkpt lat="43.9006754" lon="6.5406243"><ele>924.0</ele><time>2026-05-03T08:56:57.131Z</time></trkpt><trkpt lat="43.9008054" lon="6.5405826"><ele>924.0</ele><time>2026-05-03T08:56:58.13Z</time></trkpt><trkpt lat="43.9009206" lon="6.5405768"><ele>924.0</ele><time>2026-05-03T08:56:59.131Z</time></trkpt><trkpt lat="43.9010346" lon="6.5406112"><ele>919.75</ele><time>2026-05-03T08:57:00.131Z</time></trkpt><trkpt lat="43.9011411" lon="6.540702"><ele>915.5</ele><time>2026-05-03T08:57:01.13Z</time></trkpt><trkpt lat="43.9012179" lon="6.5408475"><ele>911.25</ele><time>2026-05-03T08:57:02.13Z</time></trkpt><trkpt lat="43.9012726" lon="6.5410531"><ele>907.0</ele><time>2026-05-03T08:57:03.131Z</time></trkpt><trkpt lat="43.9013378" lon="6.5412855"><ele>907.0</ele><time>2026-05-03T08:57:04.131Z</time></trkpt><trkpt lat="43.9014084" lon="6.5415247"><ele>907.0</ele><time>2026-05-03T08:57:05.131Z</time></trkpt><trkpt lat="43.9014672" lon="6.5417568"><ele>907.0</ele><time>2026-05-03T08:57:06.13Z</time></trkpt><trkpt lat="43.9015225" lon="6.5419752"><ele>911.3333333333333</ele><time>2026-05-03T08:57:07.131Z</time></trkpt><trkpt lat="43.9015864" lon="6.5421917"><ele>915.6666666666667</ele><time>2026-05-03T08:57:08.131Z</time></trkpt><trkpt lat="43.9016848" lon="6.5423356"><ele>920.0</ele><time>2026-05-03T08:57:09.131Z</time></trkpt><trkpt lat="43.9017896" lon="6.5424643"><ele>920.0</ele><time>2026-05-03T08:57:10.131Z</time></trkpt><trkpt lat="43.9018912" lon="6.5425857"><ele>920.0</ele><time>2026-05-03T08:57:11.13Z</time></trkpt><trkpt lat="43.9019908" lon="6.5427008"><ele>920.0</ele><time>2026-05-03T08:57:12.13Z</time></trkpt><trkpt lat="43.9020684" lon="6.5427335"><ele>920.0</ele><time>2026-05-03T08:57:13.131Z</time></trkpt><trkpt lat="43.9021661" lon="6.5427615"><ele>920.0</ele><time>2026-05-03T08:57:14.13Z</time></trkpt><trkpt lat="43.9022596" lon="6.5427595"><ele>920.0</ele><time>2026-05-03T08:57:15.131Z</time></trkpt><trkpt lat="43.9023489" lon="6.5427602"><ele>920.0</ele><time>2026-05-03T08:57:16.131Z</time></trkpt><trkpt lat="43.9024235" lon="6.5426362"><ele>920.0</ele><time>2026-05-03T08:57:17.131Z</time></trkpt><trkpt lat="43.9024787" lon="6.5425191"><ele>920.0</ele><time>2026-05-03T08:57:18.13Z</time></trkpt><trkpt lat="43.9025219" lon="6.542356"><ele>920.0</ele><time>2026-05-03T08:57:19.131Z</time></trkpt><trkpt lat="43.9025617" lon="6.5421699"><ele>921.25</ele><time>2026-05-03T08:57:20.131Z</time></trkpt><trkpt lat="43.9025946" lon="6.5419776"><ele>922.5</ele><time>2026-05-03T08:57:21.131Z</time></trkpt><trkpt lat="43.902675" lon="6.5418063"><ele>923.75</ele><time>2026-05-03T08:57:22.131Z</time></trkpt><trkpt lat="43.902758" lon="6.5416611"><ele>925.0</ele><time>2026-05-03T08:57:23.131Z</time></trkpt><trkpt lat="43.9028524" lon="6.5415247"><ele>925.0</ele><time>2026-05-03T08:57:24.13Z</time></trkpt><trkpt lat="43.9030016" lon="6.5414662"><ele>925.0</ele><time>2026-05-03T08:57:25.131Z</time></trkpt><trkpt lat="43.9031409" lon="6.5414054"><ele>925.0</ele><time>2026-05-03T08:57:26.131Z</time></trkpt><trkpt lat="43.9032831" lon="6.541369"><ele>925.0</ele><time>2026-05-03T08:57:27.131Z</time></trkpt><trkpt lat="43.9034255" lon="6.5413693"><ele>921.6666666666666</ele><time>2026-05-03T08:57:28.131Z</time></trkpt><trkpt lat="43.9035641" lon="6.5413904"><ele>918.3333333333333</ele><time>2026-05-03T08:57:29.131Z</time></trkpt><trkpt lat="43.9037055" lon="6.5415"><ele>915.0</ele><time>2026-05-03T08:57:30.131Z</time></trkpt><trkpt lat="43.9038336" lon="6.5416268"><ele>915.0</ele><time>2026-05-03T08:57:31.131Z</time></trkpt><trkpt lat="43.9039714" lon="6.5417503"><ele>915.0</ele><time>2026-05-03T08:57:32.131Z</time></trkpt><trkpt lat="43.904124" lon="6.5418434"><ele>915.0</ele><time>2026-05-03T08:57:33.131Z</time></trkpt><trkpt lat="43.9042921" lon="6.5419213"><ele>918.3333333333333</ele><time>2026-05-03T08:57:34.13Z</time></trkpt><trkpt lat="43.9044525" lon="6.5419946"><ele>921.6666666666666</ele><time>2026-05-03T08:57:35.13Z</time></trkpt><trkpt lat="43.9045688" lon="6.5421176"><ele>925.0</ele><time>2026-05-03T08:57:36.131Z</time></trkpt><trkpt lat="43.9046826" lon="6.5422596"><ele>925.0</ele><time>2026-05-03T08:57:37.131Z</time></trkpt><trkpt lat="43.9047914" lon="6.542409"><ele>925.0</ele><time>2026-05-03T08:57:38.131Z</time></trkpt><trkpt lat="43.9048848" lon="6.5425483"><ele>925.0</ele><time>2026-05-03T08:57:39.131Z</time></trkpt><trkpt lat="43.9050028" lon="6.5426379"><ele>925.0</ele><time>2026-05-03T08:57:40.131Z</time></trkpt><trkpt lat="43.9051083" lon="6.5427114"><ele>922.5</ele><time>2026-05-03T08:57:41.13Z</time></trkpt><trkpt lat="43.9052165" lon="6.5427308"><ele>920.0</ele><time>2026-05-03T08:57:42.131Z</time></trkpt><trkpt lat="43.9053308" lon="6.5427065"><ele>917.5</ele><time>2026-05-03T08:57:43.131Z</time></trkpt><trkpt lat="43.9054467" lon="6.5426734"><ele>915.0</ele><time>2026-05-03T08:57:44.131Z</time></trkpt><trkpt lat="43.905592" lon="6.5426193"><ele>915.0</ele><time>2026-05-03T08:57:45.131Z</time></trkpt><trkpt lat="43.9057159" lon="6.542604"><ele>915.0</ele><time>2026-05-03T08:57:46.131Z</time></trkpt><trkpt lat="43.9058278" lon="6.5426525"><ele>915.0</ele><time>2026-05-03T08:57:47.131Z</time></trkpt><trkpt lat="43.9059458" lon="6.5428164"><ele>915.0</ele><time>2026-05-03T08:57:48.13Z</time></trkpt><trkpt lat="43.9060657" lon="6.5429693"><ele>917.3333333333333</ele><time>2026-05-03T08:57:49.131Z</time></trkpt><trkpt lat="43.9062009" lon="6.5431303"><ele>919.6666666666666</ele><time>2026-05-03T08:57:50.131Z</time></trkpt><trkpt lat="43.9063617" lon="6.5432843"><ele>922.0</ele><time>2026-05-03T08:57:51.13Z</time></trkpt><trkpt lat="43.9065049" lon="6.5434608"><ele>922.0</ele><time>2026-05-03T08:57:52.131Z</time></trkpt><trkpt lat="43.9066975" lon="6.5436077"><ele>922.0</ele><time>2026-05-03T08:57:53.131Z</time></trkpt><trkpt lat="43.9068692" lon="6.5437479"><ele>922.0</ele><time>2026-05-03T08:57:54.131Z</time></trkpt><trkpt lat="43.9070313" lon="6.5438898"><ele>923.6666666666666</ele><time>2026-05-03T08:57:55.131Z</time></trkpt><trkpt lat="43.9071766" lon="6.5440339"><ele>925.3333333333333</ele><time>2026-05-03T08:57:56.131Z</time></trkpt><trkpt lat="43.907299" lon="6.544186"><ele>927.0</ele><time>2026-05-03T08:57:57.131Z</time></trkpt><trkpt lat="43.907423" lon="6.5443177"><ele>927.0</ele><time>2026-05-03T08:57:58.13Z</time></trkpt><trkpt lat="43.9075447" lon="6.5444226"><ele>927.0</ele><time>2026-05-03T08:57:59.13Z</time></trkpt><trkpt lat="43.9076802" lon="6.5444828"><ele>927.0</ele><time>2026-05-03T08:58:00.131Z</time></trkpt><trkpt lat="43.9078185" lon="6.544514"><ele>927.0</ele><time>2026-05-03T08:58:01.131Z</time></trkpt><trkpt lat="43.9079684" lon="6.5445137"><ele>928.6666666666667</ele><time>2026-05-03T08:58:02.131Z</time></trkpt><trkpt lat="43.9081102" lon="6.544537"><ele>930.3333333333334</ele><time>2026-05-03T08:58:03.131Z</time></trkpt><trkpt lat="43.9082608" lon="6.544586"><ele>932.0</ele><time>2026-05-03T08:58:04.13Z</time></trkpt><trkpt lat="43.9084053" lon="6.5446575"><ele>925.3333333333334</ele><time>2026-05-03T08:58:05.131Z</time></trkpt><trkpt lat="43.9085335" lon="6.5447732"><ele>918.6666666666667</ele><time>2026-05-03T08:58:06.131Z</time></trkpt><trkpt lat="43.9086696" lon="6.5449015"><ele>912.0</ele><time>2026-05-03T08:58:07.131Z</time></trkpt><trkpt lat="43.9087726" lon="6.5451423"><ele>912.0</ele><time>2026-05-03T08:58:08.131Z</time></trkpt><trkpt lat="43.9088777" lon="6.5453686"><ele>912.0</ele><time>2026-05-03T08:58:09.13Z</time></trkpt><trkpt lat="43.90898" lon="6.5456143"><ele>912.0</ele><time>2026-05-03T08:58:10.131Z</time></trkpt><trkpt lat="43.9090859" lon="6.5458568"><ele>910.3333333333333</ele><time>2026-05-03T08:58:11.131Z</time></trkpt><trkpt lat="43.9091914" lon="6.5460943"><ele>908.6666666666666</ele><time>2026-05-03T08:58:12.131Z</time></trkpt><trkpt lat="43.9092829" lon="6.5463177"><ele>907.0</ele><time>2026-05-03T08:58:13.131Z</time></trkpt><trkpt lat="43.9093828" lon="6.546525"><ele>907.0</ele><time>2026-05-03T08:58:14.131Z</time></trkpt><trkpt lat="43.9094825" lon="6.5467145"><ele>907.0</ele><time>2026-05-03T08:58:15.131Z</time></trkpt><trkpt lat="43.9095856" lon="6.5468876"><ele>907.0</ele><time>2026-05-03T08:58:16.131Z</time></trkpt><trkpt lat="43.9096929" lon="6.5470463"><ele>909.25</ele><time>2026-05-03T08:58:17.13Z</time></trkpt><trkpt lat="43.9097975" lon="6.5471996"><ele>911.5</ele><time>2026-05-03T08:58:18.131Z</time></trkpt><trkpt lat="43.9098975" lon="6.5473207"><ele>913.75</ele><time>2026-05-03T08:58:19.13Z</time></trkpt><trkpt lat="43.9099793" lon="6.5474726"><ele>916.0</ele><time>2026-05-03T08:58:20.131Z</time></trkpt><trkpt lat="43.9100473" lon="6.5476604"><ele>906.0</ele><time>2026-05-03T08:58:21.13Z</time></trkpt><trkpt lat="43.910088" lon="6.5478787"><ele>896.0</ele><time>2026-05-03T08:58:22.131Z</time></trkpt><trkpt lat="43.9101144" lon="6.5481086"><ele>886.0</ele><time>2026-05-03T08:58:23.131Z</time></trkpt><trkpt lat="43.9101526" lon="6.548333"><ele>886.0</ele><time>2026-05-03T08:58:24.13Z</time></trkpt><trkpt lat="43.9102084" lon="6.5485435"><ele>886.0</ele><time>2026-05-03T08:58:25.131Z</time></trkpt><trkpt lat="43.9102857" lon="6.5487409"><ele>886.0</ele><time>2026-05-03T08:58:26.131Z</time></trkpt><trkpt lat="43.9104045" lon="6.5488857"><ele>888.0</ele><time>2026-05-03T08:58:27.131Z</time></trkpt><trkpt lat="43.9104976" lon="6.549042"><ele>890.0</ele><time>2026-05-03T08:58:28.131Z</time></trkpt><trkpt lat="43.9105815" lon="6.5492099"><ele>892.0</ele><time>2026-05-03T08:58:29.131Z</time></trkpt><trkpt lat="43.9106142" lon="6.5493858"><ele>894.0</ele><time>2026-05-03T08:58:30.131Z</time></trkpt><trkpt lat="43.9106404" lon="6.549564"><ele>895.25</ele><time>2026-05-03T08:58:31.13Z</time></trkpt><trkpt lat="43.9105839" lon="6.5497527"><ele>896.5</ele><time>2026-05-03T08:58:32.131Z</time></trkpt><trkpt lat="43.910553" lon="6.5499262"><ele>897.75</ele><time>2026-05-03T08:58:33.131Z</time></trkpt><trkpt lat="43.9105398" lon="6.5501"><ele>899.0</ele><time>2026-05-03T08:58:34.131Z</time></trkpt><trkpt lat="43.9105464" lon="6.5502662"><ele>897.25</ele><time>2026-05-03T08:58:35.13Z</time></trkpt><trkpt lat="43.91057" lon="6.5504168"><ele>895.5</ele><time>2026-05-03T08:58:36.131Z</time></trkpt><trkpt lat="43.9106884" lon="6.5505258"><ele>893.75</ele><time>2026-05-03T08:58:37.131Z</time></trkpt><trkpt lat="43.910801" lon="6.5506261"><ele>892.0</ele><time>2026-05-03T08:58:38.131Z</time></trkpt><trkpt lat="43.9109433" lon="6.5507141"><ele>892.0</ele><time>2026-05-03T08:58:39.131Z</time></trkpt><trkpt lat="43.9110861" lon="6.550821"><ele>892.0</ele><time>2026-05-03T08:58:40.131Z</time></trkpt><trkpt lat="43.9112276" lon="6.5509414"><ele>892.0</ele><time>2026-05-03T08:58:41.131Z</time></trkpt><trkpt lat="43.9113581" lon="6.5510744"><ele>892.0</ele><time>2026-05-03T08:58:42.131Z</time></trkpt><trkpt lat="43.9114963" lon="6.5511986"><ele>892.0</ele><time>2026-05-03T08:58:43.131Z</time></trkpt><trkpt lat="43.9116703" lon="6.5512674"><ele>892.0</ele><time>2026-05-03T08:58:44.131Z</time></trkpt><trkpt lat="43.9118249" lon="6.551356"><ele>892.0</ele><time>2026-05-03T08:58:45.131Z</time></trkpt><trkpt lat="43.9119626" lon="6.5514557"><ele>892.0</ele><time>2026-05-03T08:58:46.131Z</time></trkpt><trkpt lat="43.9121022" lon="6.5515902"><ele>892.0</ele><time>2026-05-03T08:58:47.131Z</time></trkpt><trkpt lat="43.9122402" lon="6.5517167"><ele>892.0</ele><time>2026-05-03T08:58:48.131Z</time></trkpt><trkpt lat="43.9123421" lon="6.5518983"><ele>892.0</ele><time>2026-05-03T08:58:49.131Z</time></trkpt><trkpt lat="43.9124702" lon="6.5520577"><ele>892.0</ele><time>2026-05-03T08:58:50.13Z</time></trkpt><trkpt lat="43.9125479" lon="6.5521998"><ele>898.0</ele><time>2026-05-03T08:58:51.131Z</time></trkpt><trkpt lat="43.9126215" lon="6.5523221"><ele>904.0</ele><time>2026-05-03T08:58:52.13Z</time></trkpt><trkpt lat="43.9127021" lon="6.5524364"><ele>910.0</ele><time>2026-05-03T08:58:53.131Z</time></trkpt><trkpt lat="43.9127697" lon="6.5525108"><ele>916.0</ele><time>2026-05-03T08:58:54.131Z</time></trkpt><trkpt lat="43.9128313" lon="6.5525555"><ele>922.0</ele><time>2026-05-03T08:58:55.131Z</time></trkpt><trkpt lat="43.9129388" lon="6.5524679"><ele>922.0</ele><time>2026-05-03T08:58:56.131Z</time></trkpt><trkpt lat="43.913008" lon="6.5523736"><ele>922.0</ele><time>2026-05-03T08:58:57.131Z</time></trkpt><trkpt lat="43.9130765" lon="6.5522888"><ele>922.0</ele><time>2026-05-03T08:58:58.131Z</time></trkpt><trkpt lat="43.9130873" lon="6.5520734"><ele>922.0</ele><time>2026-05-03T08:58:59.131Z</time></trkpt><trkpt lat="43.9131043" lon="6.5518893"><ele>922.5</ele><time>2026-05-03T08:59:00.131Z</time></trkpt><trkpt lat="43.9131279" lon="6.5516809"><ele>923.0</ele><time>2026-05-03T08:59:01.131Z</time></trkpt><trkpt lat="43.9131513" lon="6.5514731"><ele>923.5</ele><time>2026-05-03T08:59:02.131Z</time></trkpt><trkpt lat="43.9131737" lon="6.5512795"><ele>924.0</ele><time>2026-05-03T08:59:03.131Z</time></trkpt><trkpt lat="43.9131931" lon="6.5510842"><ele>924.0</ele><time>2026-05-03T08:59:04.131Z</time></trkpt><trkpt lat="43.913174" lon="6.5509189"><ele>924.0</ele><time>2026-05-03T08:59:05.131Z</time></trkpt><trkpt lat="43.9131426" lon="6.5507582"><ele>924.0</ele><time>2026-05-03T08:59:06.131Z</time></trkpt><trkpt lat="43.9130799" lon="6.5506138"><ele>924.0</ele><time>2026-05-03T08:59:07.131Z</time></trkpt><trkpt lat="43.9129899" lon="6.5504938"><ele>924.0</ele><time>2026-05-03T08:59:08.131Z</time></trkpt><trkpt lat="43.9128768" lon="6.550401"><ele>924.0</ele><time>2026-05-03T08:59:09.131Z</time></trkpt><trkpt lat="43.9127666" lon="6.5503283"><ele>924.0</ele><time>2026-05-03T08:59:10.131Z</time></trkpt><trkpt lat="43.9126628" lon="6.5502581"><ele>924.0</ele><time>2026-05-03T08:59:11.131Z</time></trkpt><trkpt lat="43.9125795" lon="6.5501615"><ele>919.5</ele><time>2026-05-03T08:59:12.131Z</time></trkpt><trkpt lat="43.912516" lon="6.5500261"><ele>915.0</ele><time>2026-05-03T08:59:13.13Z</time></trkpt><trkpt lat="43.9124918" lon="6.5498601"><ele>910.5</ele><time>2026-05-03T08:59:14.131Z</time></trkpt><trkpt lat="43.9124888" lon="6.5496792"><ele>906.0</ele><time>2026-05-03T08:59:15.131Z</time></trkpt><trkpt lat="43.9124988" lon="6.5494839"><ele>906.0</ele><time>2026-05-03T08:59:16.131Z</time></trkpt><trkpt lat="43.9125227" lon="6.5492876"><ele>906.0</ele><time>2026-05-03T08:59:17.13Z</time></trkpt><trkpt lat="43.9125666" lon="6.5490703"><ele>906.0</ele><time>2026-05-03T08:59:18.131Z</time></trkpt><trkpt lat="43.9126124" lon="6.5488623"><ele>913.5</ele><time>2026-05-03T08:59:19.131Z</time></trkpt><trkpt lat="43.9126888" lon="6.5486749"><ele>921.0</ele><time>2026-05-03T08:59:20.13Z</time></trkpt><trkpt lat="43.9127536" lon="6.5485042"><ele>928.5</ele><time>2026-05-03T08:59:21.131Z</time></trkpt><trkpt lat="43.9128355" lon="6.5483459"><ele>936.0</ele><time>2026-05-03T08:59:22.131Z</time></trkpt><trkpt lat="43.9129554" lon="6.5482294"><ele>936.0</ele><time>2026-05-03T08:59:23.131Z</time></trkpt><trkpt lat="43.9130516" lon="6.548119"><ele>936.0</ele><time>2026-05-03T08:59:24.13Z</time></trkpt><trkpt lat="43.9130969" lon="6.5479784"><ele>936.0</ele><time>2026-05-03T08:59:25.131Z</time></trkpt><trkpt lat="43.9131607" lon="6.5478317"><ele>936.0</ele><time>2026-05-03T08:59:26.131Z</time></trkpt><trkpt lat="43.9131762" lon="6.5476972"><ele>933.75</ele><time>2026-05-03T08:59:27.131Z</time></trkpt><trkpt lat="43.9131457" lon="6.5475139"><ele>931.5</ele><time>2026-05-03T08:59:28.131Z</time></trkpt><trkpt lat="43.9131612" lon="6.5473461"><ele>929.25</ele><time>2026-05-03T08:59:29.13Z</time></trkpt><trkpt lat="43.913204" lon="6.547165"><ele>927.0</ele><time>2026-05-03T08:59:30.131Z</time></trkpt><trkpt lat="43.9132516" lon="6.5470036"><ele>925.0</ele><time>2026-05-03T08:59:31.13Z</time></trkpt><trkpt lat="43.9133316" lon="6.54685"><ele>923.0</ele><time>2026-05-03T08:59:32.131Z</time></trkpt><trkpt lat="43.9134198" lon="6.5466885"><ele>921.0</ele><time>2026-05-03T08:59:33.131Z</time></trkpt><trkpt lat="43.9134816" lon="6.5465029"><ele>919.0</ele><time>2026-05-03T08:59:34.131Z</time></trkpt><trkpt lat="43.9135121" lon="6.5463168"><ele>923.25</ele><time>2026-05-03T08:59:35.131Z</time></trkpt><trkpt lat="43.9135439" lon="6.5461175"><ele>927.5</ele><time>2026-05-03T08:59:36.131Z</time></trkpt><trkpt lat="43.9135714" lon="6.5459373"><ele>931.75</ele><time>2026-05-03T08:59:37.131Z</time></trkpt><trkpt lat="43.9135866" lon="6.5457432"><ele>936.0</ele><time>2026-05-03T08:59:38.131Z</time></trkpt><trkpt lat="43.9136091" lon="6.5455691"><ele>936.0</ele><time>2026-05-03T08:59:39.131Z</time></trkpt><trkpt lat="43.9136343" lon="6.5453917"><ele>935.9999999999999</ele><time>2026-05-03T08:59:40.131Z</time></trkpt><trkpt lat="43.9136583" lon="6.5452706"><ele>935.9999999999999</ele><time>2026-05-03T08:59:41.131Z</time></trkpt><trkpt lat="43.9136939" lon="6.545134"><ele>936.0</ele><time>2026-05-03T08:59:42.13Z</time></trkpt><trkpt lat="43.9137588" lon="6.5450304"><ele>936.0</ele><time>2026-05-03T08:59:44.131Z</time></trkpt><trkpt lat="43.9138343" lon="6.5449835"><ele>936.0</ele><time>2026-05-03T08:59:46.131Z</time></trkpt><trkpt lat="43.9139042" lon="6.5450616"><ele>936.0</ele><time>2026-05-03T08:59:49.131Z</time></trkpt><trkpt lat="43.9139108" lon="6.5451758"><ele>936.0</ele><time>2026-05-03T08:59:51.131Z</time></trkpt><trkpt lat="43.9138989" lon="6.5452715"><ele>936.0</ele><time>2026-05-03T08:59:52.131Z</time></trkpt><trkpt lat="43.9138733" lon="6.5453833"><ele>936.0</ele><time>2026-05-03T08:59:53.131Z</time></trkpt><trkpt lat="43.9138493" lon="6.5455163"><ele>936.0</ele><time>2026-05-03T08:59:54.13Z</time></trkpt><trkpt lat="43.9138252" lon="6.5456525"><ele>936.0</ele><time>2026-05-03T08:59:55.131Z</time></trkpt><trkpt lat="43.9137899" lon="6.5458181"><ele>936.0</ele><time>2026-05-03T08:59:56.131Z</time></trkpt><trkpt lat="43.9137504" lon="6.5459973"><ele>936.0</ele><time>2026-05-03T08:59:57.131Z</time></trkpt><trkpt lat="43.9137122" lon="6.5461561"><ele>936.0</ele><time>2026-05-03T08:59:58.131Z</time></trkpt><trkpt lat="43.9136535" lon="6.5463646"><ele>938.75</ele><time>2026-05-03T08:59:59.131Z</time></trkpt><trkpt lat="43.9136041" lon="6.5465664"><ele>941.5</ele><time>2026-05-03T09:00:00.13Z</time></trkpt><trkpt lat="43.9135513" lon="6.5467494"><ele>944.25</ele><time>2026-05-03T09:00:01.131Z</time></trkpt><trkpt lat="43.9135144" lon="6.546917"><ele>947.0</ele><time>2026-05-03T09:00:02.131Z</time></trkpt><trkpt lat="43.9134738" lon="6.5470658"><ele>951.25</ele><time>2026-05-03T09:00:03.131Z</time></trkpt><trkpt lat="43.9134496" lon="6.5472299"><ele>955.5</ele><time>2026-05-03T09:00:04.131Z</time></trkpt><trkpt lat="43.9134821" lon="6.547416"><ele>959.75</ele><time>2026-05-03T09:00:05.131Z</time></trkpt><trkpt lat="43.9135069" lon="6.5476078"><ele>964.0</ele><time>2026-05-03T09:00:06.131Z</time></trkpt><trkpt lat="43.9135092" lon="6.5477977"><ele>968.6666666666666</ele><time>2026-05-03T09:00:07.131Z</time></trkpt><trkpt lat="43.9134868" lon="6.5479926"><ele>973.3333333333333</ele><time>2026-05-03T09:00:08.131Z</time></trkpt><trkpt lat="43.9134518" lon="6.5481952"><ele>978.0</ele><time>2026-05-03T09:00:09.131Z</time></trkpt><trkpt lat="43.9133999" lon="6.5484102"><ele>967.6666666666667</ele><time>2026-05-03T09:00:10.131Z</time></trkpt><trkpt lat="43.9133518" lon="6.5486292"><ele>957.3333333333334</ele><time>2026-05-03T09:00:11.13Z</time></trkpt><trkpt lat="43.9133068" lon="6.5488485"><ele>947.0</ele><time>2026-05-03T09:00:12.131Z</time></trkpt><trkpt lat="43.9132647" lon="6.5490745"><ele>947.0</ele><time>2026-05-03T09:00:13.131Z</time></trkpt><trkpt lat="43.9132586" lon="6.5492641"><ele>947.0</ele><time>2026-05-03T09:00:14.131Z</time></trkpt><trkpt lat="43.9132527" lon="6.5494566"><ele>947.0</ele><time>2026-05-03T09:00:15.131Z</time></trkpt><trkpt lat="43.9132366" lon="6.5496602"><ele>947.0</ele><time>2026-05-03T09:00:16.131Z</time></trkpt><trkpt lat="43.9132508" lon="6.5498104"><ele>945.75</ele><time>2026-05-03T09:00:17.13Z</time></trkpt><trkpt lat="43.9133573" lon="6.5499454"><ele>944.5</ele><time>2026-05-03T09:00:18.13Z</time></trkpt><trkpt lat="43.9134689" lon="6.5500886"><ele>943.25</ele><time>2026-05-03T09:00:19.131Z</time></trkpt><trkpt lat="43.9135568" lon="6.5502398"><ele>942.0</ele><time>2026-05-03T09:00:20.131Z</time></trkpt><trkpt lat="43.9136526" lon="6.5504024"><ele>953.0</ele><time>2026-05-03T09:00:21.131Z</time></trkpt><trkpt lat="43.9137333" lon="6.5505714"><ele>964.0</ele><time>2026-05-03T09:00:22.13Z</time></trkpt><trkpt lat="43.9138144" lon="6.5507549"><ele>975.0</ele><time>2026-05-03T09:00:23.131Z</time></trkpt><trkpt lat="43.9138788" lon="6.5509649"><ele>975.0</ele><time>2026-05-03T09:00:24.131Z</time></trkpt><trkpt lat="43.9139312" lon="6.5511934"><ele>975.0</ele><time>2026-05-03T09:00:25.131Z</time></trkpt><trkpt lat="43.9139516" lon="6.5514529"><ele>975.0</ele><time>2026-05-03T09:00:26.131Z</time></trkpt><trkpt lat="43.9139454" lon="6.5517123"><ele>973.3333333333333</ele><time>2026-05-03T09:00:27.13Z</time></trkpt><trkpt lat="43.9139306" lon="6.5519723"><ele>971.6666666666666</ele><time>2026-05-03T09:00:28.131Z</time></trkpt><trkpt lat="43.9139196" lon="6.5522442"><ele>970.0</ele><time>2026-05-03T09:00:29.131Z</time></trkpt><trkpt lat="43.9139037" lon="6.5525149"><ele>970.0</ele><time>2026-05-03T09:00:30.13Z</time></trkpt><trkpt lat="43.9139034" lon="6.5527884"><ele>970.0</ele><time>2026-05-03T09:00:31.131Z</time></trkpt><trkpt lat="43.9139111" lon="6.5530702"><ele>970.0</ele><time>2026-05-03T09:00:32.131Z</time></trkpt><trkpt lat="43.9139413" lon="6.5533464"><ele>974.0</ele><time>2026-05-03T09:00:33.131Z</time></trkpt><trkpt lat="43.9139681" lon="6.5536278"><ele>978.0</ele><time>2026-05-03T09:00:34.131Z</time></trkpt><trkpt lat="43.9139969" lon="6.5539098"><ele>982.0</ele><time>2026-05-03T09:00:35.131Z</time></trkpt><trkpt lat="43.9140068" lon="6.5541991"><ele>983.0</ele><time>2026-05-03T09:00:36.131Z</time></trkpt><trkpt lat="43.9140382" lon="6.5544755"><ele>984.0</ele><time>2026-05-03T09:00:37.131Z</time></trkpt><trkpt lat="43.9140492" lon="6.5547439"><ele>985.0</ele><time>2026-05-03T09:00:38.131Z</time></trkpt><trkpt lat="43.9140672" lon="6.5550096"><ele>990.3333333333333</ele><time>2026-05-03T09:00:39.131Z</time></trkpt><trkpt lat="43.9140454" lon="6.5552547"><ele>995.6666666666667</ele><time>2026-05-03T09:00:40.13Z</time></trkpt><trkpt lat="43.9140126" lon="6.5555"><ele>1001.0</ele><time>2026-05-03T09:00:41.131Z</time></trkpt><trkpt lat="43.9139504" lon="6.5557413"><ele>1001.0</ele><time>2026-05-03T09:00:42.131Z</time></trkpt><trkpt lat="43.9138904" lon="6.5559782"><ele>1001.0</ele><time>2026-05-03T09:00:43.131Z</time></trkpt><trkpt lat="43.9138307" lon="6.5561818"><ele>1001.0</ele><time>2026-05-03T09:00:44.131Z</time></trkpt><trkpt lat="43.9137839" lon="6.5564073"><ele>998.75</ele><time>2026-05-03T09:00:45.131Z</time></trkpt><trkpt lat="43.9137605" lon="6.5566148"><ele>996.5</ele><time>2026-05-03T09:00:46.131Z</time></trkpt><trkpt lat="43.9137872" lon="6.5568255"><ele>994.25</ele><time>2026-05-03T09:00:47.13Z</time></trkpt><trkpt lat="43.9138165" lon="6.557012"><ele>992.0</ele><time>2026-05-03T09:00:48.131Z</time></trkpt><trkpt lat="43.9138566" lon="6.5572011"><ele>994.6666666666667</ele><time>2026-05-03T09:00:49.13Z</time></trkpt><trkpt lat="43.9139235" lon="6.5573914"><ele>997.3333333333333</ele><time>2026-05-03T09:00:50.131Z</time></trkpt><trkpt lat="43.9141012" lon="6.5575011"><ele>1000.0</ele><time>2026-05-03T09:00:51.131Z</time></trkpt><trkpt lat="43.9142451" lon="6.5576302"><ele>1000.0</ele><time>2026-05-03T09:00:52.131Z</time></trkpt><trkpt lat="43.914385" lon="6.5577838"><ele>1000.0</ele><time>2026-05-03T09:00:53.131Z</time></trkpt><trkpt lat="43.9145361" lon="6.557932"><ele>1000.0</ele><time>2026-05-03T09:00:54.13Z</time></trkpt><trkpt lat="43.9146595" lon="6.558105"><ele>1000.6666666666666</ele><time>2026-05-03T09:00:55.131Z</time></trkpt><trkpt lat="43.9147659" lon="6.5583032"><ele>1001.3333333333333</ele><time>2026-05-03T09:00:56.131Z</time></trkpt><trkpt lat="43.9148087" lon="6.5585601"><ele>1002.0</ele><time>2026-05-03T09:00:57.131Z</time></trkpt><trkpt lat="43.9148441" lon="6.5588219"><ele>1002.0</ele><time>2026-05-03T09:00:58.13Z</time></trkpt><trkpt lat="43.9148771" lon="6.5590942"><ele>1002.0</ele><time>2026-05-03T09:00:59.131Z</time></trkpt><trkpt lat="43.9149022" lon="6.559366"><ele>1002.0</ele><time>2026-05-03T09:01:00.131Z</time></trkpt><trkpt lat="43.9148568" lon="6.5596193"><ele>1003.6666666666667</ele><time>2026-05-03T09:01:01.13Z</time></trkpt><trkpt lat="43.9147909" lon="6.5598737"><ele>1005.3333333333334</ele><time>2026-05-03T09:01:02.131Z</time></trkpt><trkpt lat="43.9147192" lon="6.5601278"><ele>1007.0</ele><time>2026-05-03T09:01:03.131Z</time></trkpt><trkpt lat="43.9146203" lon="6.5603724"><ele>1009.6666666666667</ele><time>2026-05-03T09:01:04.131Z</time></trkpt><trkpt lat="43.9145358" lon="6.5606295"><ele>1012.3333333333333</ele><time>2026-05-03T09:01:05.131Z</time></trkpt><trkpt lat="43.9144943" lon="6.5608858"><ele>1015.0</ele><time>2026-05-03T09:01:06.131Z</time></trkpt><trkpt lat="43.9144728" lon="6.5611401"><ele>1013.6666666666666</ele><time>2026-05-03T09:01:07.131Z</time></trkpt><trkpt lat="43.9144715" lon="6.5613745"><ele>1012.3333333333333</ele><time>2026-05-03T09:01:08.13Z</time></trkpt><trkpt lat="43.9144819" lon="6.5615971"><ele>1011.0</ele><time>2026-05-03T09:01:09.131Z</time></trkpt><trkpt lat="43.9145006" lon="6.5618143"><ele>1001.0</ele><time>2026-05-03T09:01:10.131Z</time></trkpt><trkpt lat="43.9140672" lon="6.5550096"><ele>1001.0</ele><time>2026-05-03T09:00:39.131Z</time></trkpt><trkpt lat="43.9140454" lon="6.5552547"><ele>1001.0</ele><time>2026-05-03T09:00:40.13Z</time></trkpt><trkpt lat="43.9140126" lon="6.5555"><ele>1001.0</ele><time>2026-05-03T09:00:41.131Z</time></trkpt><trkpt lat="43.9139504" lon="6.5557413"><ele>1001.0</ele><time>2026-05-03T09:00:42.131Z</time></trkpt><trkpt lat="43.9138904" lon="6.5559782"><ele>1001.0</ele><time>2026-05-03T09:00:43.131Z</time></trkpt><trkpt lat="43.9138307" lon="6.5561818"><ele>1001.0</ele><time>2026-05-03T09:00:44.131Z</time></trkpt><trkpt lat="43.9137839" lon="6.5564073"><ele>998.75</ele><time>2026-05-03T09:00:45.131Z</time></trkpt><trkpt lat="43.9137605" lon="6.5566148"><ele>996.5</ele><time>2026-05-03T09:00:46.131Z</time></trkpt><trkpt lat="43.9137872" lon="6.5568255"><ele>994.25</ele><time>2026-05-03T09:00:47.13Z</time></trkpt><trkpt lat="43.9138165" lon="6.557012"><ele>992.0</ele><time>2026-05-03T09:00:48.131Z</time></trkpt><trkpt lat="43.9138566" lon="6.5572011"><ele>994.6666666666667</ele><time>2026-05-03T09:00:49.13Z</time></trkpt><trkpt lat="43.9139235" lon="6.5573914"><ele>997.3333333333333</ele><time>2026-05-03T09:00:50.131Z</time></trkpt><trkpt lat="43.9141012" lon="6.5575011"><ele>1000.0</ele><time>2026-05-03T09:00:51.131Z</time></trkpt><trkpt lat="43.9142451" lon="6.5576302"><ele>1000.0</ele><time>2026-05-03T09:00:52.131Z</time></trkpt><trkpt lat="43.914385" lon="6.5577838"><ele>1000.0</ele><time>2026-05-03T09:00:53.131Z</time></trkpt><trkpt lat="43.9145361" lon="6.557932"><ele>1000.0</ele><time>2026-05-03T09:00:54.13Z</time></trkpt><trkpt lat="43.9146595" lon="6.558105"><ele>1000.6666666666666</ele><time>2026-05-03T09:00:55.131Z</time></trkpt><trkpt lat="43.9147659" lon="6.5583032"><ele>1001.3333333333333</ele><time>2026-05-03T09:00:56.131Z</time></trkpt><trkpt lat="43.9148087" lon="6.5585601"><ele>1002.0</ele><time>2026-05-03T09:00:57.131Z</time></trkpt><trkpt lat="43.9148441" lon="6.5588219"><ele>1002.0</ele><time>2026-05-03T09:00:58.13Z</time></trkpt><trkpt lat="43.9148771" lon="6.5590942"><ele>1002.0</ele><time>2026-05-03T09:00:59.131Z</time></trkpt><trkpt lat="43.9149022" lon="6.559366"><ele>1002.0</ele><time>2026-05-03T09:01:00.131Z</time></trkpt><trkpt lat="43.9148568" lon="6.5596193"><ele>1003.6666666666667</ele><time>2026-05-03T09:01:01.13Z</time></trkpt><trkpt lat="43.9147909" lon="6.5598737"><ele>1005.3333333333334</ele><time>2026-05-03T09:01:02.131Z</time></trkpt><trkpt lat="43.9147192" lon="6.5601278"><ele>1007.0</ele><time>2026-05-03T09:01:03.131Z</time></trkpt><trkpt lat="43.9146203" lon="6.5603724"><ele>1009.6666666666667</ele><time>2026-05-03T09:01:04.131Z</time></trkpt><trkpt lat="43.9145358" lon="6.5606295"><ele>1012.3333333333333</ele><time>2026-05-03T09:01:05.131Z</time></trkpt><trkpt lat="43.9144943" lon="6.5608858"><ele>1015.0</ele><time>2026-05-03T09:01:06.131Z</time></trkpt><trkpt lat="43.9144728" lon="6.5611401"><ele>1013.6666666666666</ele><time>2026-05-03T09:01:07.131Z</time></trkpt><trkpt lat="43.9144715" lon="6.5613745"><ele>1012.3333333333333</ele><time>2026-05-03T09:01:08.13Z</time></trkpt><trkpt lat="43.9144819" lon="6.5615971"><ele>1011.0</ele><time>2026-05-03T09:01:09.131Z</time></trkpt><trkpt lat="43.9145006" lon="6.5618143"><ele>1011.0</ele><time>2026-05-03T09:01:10.131Z</time></trkpt><trkpt lat="43.9145396" lon="6.5620116"><ele>1011.0</ele><time>2026-05-03T09:01:11.131Z</time></trkpt><trkpt lat="43.9146956" lon="6.5622177"><ele>1011.0</ele><time>2026-05-03T09:01:12.131Z</time></trkpt><trkpt lat="43.9147998" lon="6.5624188"><ele>1007.0</ele><time>2026-05-03T09:01:13.131Z</time></trkpt><trkpt lat="43.9148629" lon="6.5626623"><ele>1003.0</ele><time>2026-05-03T09:01:14.131Z</time></trkpt><trkpt lat="43.9149203" lon="6.5629021"><ele>999.0</ele><time>2026-05-03T09:01:15.131Z</time></trkpt><trkpt lat="43.9149322" lon="6.5631686"><ele>997.3333333333333</ele><time>2026-05-03T09:01:16.131Z</time></trkpt><trkpt lat="43.9149744" lon="6.5634323"><ele>995.6666666666666</ele><time>2026-05-03T09:01:17.13Z</time></trkpt><trkpt lat="43.9150255" lon="6.5636949"><ele>994.0</ele><time>2026-05-03T09:01:18.131Z</time></trkpt><trkpt lat="43.915061" lon="6.5639789"><ele>994.6666666666666</ele><time>2026-05-03T09:01:19.131Z</time></trkpt><trkpt lat="43.9151004" lon="6.564249"><ele>995.3333333333333</ele><time>2026-05-03T09:01:20.131Z</time></trkpt><trkpt lat="43.9151115" lon="6.5645593"><ele>996.0</ele><time>2026-05-03T09:01:21.13Z</time></trkpt><trkpt lat="43.9150433" lon="6.5648475"><ele>996.0</ele><time>2026-05-03T09:01:22.131Z</time></trkpt><trkpt lat="43.915023" lon="6.5651348"><ele>996.0</ele><time>2026-05-03T09:01:23.13Z</time></trkpt><trkpt lat="43.9149982" lon="6.5654327"><ele>996.0</ele><time>2026-05-03T09:01:24.131Z</time></trkpt><trkpt lat="43.9149661" lon="6.5657317"><ele>998.3333333333333</ele><time>2026-05-03T09:01:25.131Z</time></trkpt><trkpt lat="43.9149406" lon="6.5660162"><ele>1000.6666666666666</ele><time>2026-05-03T09:01:26.131Z</time></trkpt><trkpt lat="43.9148931" lon="6.56629"><ele>1003.0</ele><time>2026-05-03T09:01:27.131Z</time></trkpt><trkpt lat="43.9148443" lon="6.5665604"><ele>1003.0</ele><time>2026-05-03T09:01:28.131Z</time></trkpt><trkpt lat="43.9147947" lon="6.5668388"><ele>1003.0</ele><time>2026-05-03T09:01:29.131Z</time></trkpt><trkpt lat="43.9147347" lon="6.5670935"><ele>1003.0</ele><time>2026-05-03T09:01:30.13Z</time></trkpt><trkpt lat="43.9146818" lon="6.5673386"><ele>1005.6666666666666</ele><time>2026-05-03T09:01:31.131Z</time></trkpt><trkpt lat="43.9146373" lon="6.5675855"><ele>1008.3333333333333</ele><time>2026-05-03T09:01:32.13Z</time></trkpt><trkpt lat="43.9145821" lon="6.5678281"><ele>1011.0</ele><time>2026-05-03T09:01:33.13Z</time></trkpt><trkpt lat="43.9144681" lon="6.5679752"><ele>1012.6666666666667</ele><time>2026-05-03T09:01:34.131Z</time></trkpt><trkpt lat="43.9143575" lon="6.5681484"><ele>1014.3333333333334</ele><time>2026-05-03T09:01:35.131Z</time></trkpt><trkpt lat="43.9142495" lon="6.5683397"><ele>1016.0</ele><time>2026-05-03T09:01:36.131Z</time></trkpt><trkpt lat="43.9141681" lon="6.5685402"><ele>1011.3333333333334</ele><time>2026-05-03T09:01:37.131Z</time></trkpt><trkpt lat="43.9141047" lon="6.5687627"><ele>1006.6666666666667</ele><time>2026-05-03T09:01:38.131Z</time></trkpt><trkpt lat="43.914057" lon="6.5690112"><ele>1002.0</ele><time>2026-05-03T09:01:39.131Z</time></trkpt><trkpt lat="43.9140094" lon="6.5692604"><ele>1002.0</ele><time>2026-05-03T09:01:40.131Z</time></trkpt><trkpt lat="43.913944" lon="6.5694914"><ele>1002.0</ele><time>2026-05-03T09:01:41.131Z</time></trkpt><trkpt lat="43.913865" lon="6.5697226"><ele>1002.0</ele><time>2026-05-03T09:01:42.13Z</time></trkpt><trkpt lat="43.913781" lon="6.5699446"><ele>1006.0</ele><time>2026-05-03T09:01:43.131Z</time></trkpt><trkpt lat="43.9136921" lon="6.5701633"><ele>1010.0</ele><time>2026-05-03T09:01:44.131Z</time></trkpt><trkpt lat="43.9136559" lon="6.5703479"><ele>1014.0</ele><time>2026-05-03T09:01:45.131Z</time></trkpt><trkpt lat="43.9136383" lon="6.5705478"><ele>1016.0</ele><time>2026-05-03T09:01:46.131Z</time></trkpt><trkpt lat="43.9136142" lon="6.5707344"><ele>1018.0</ele><time>2026-05-03T09:01:47.13Z</time></trkpt><trkpt lat="43.9136217" lon="6.5709246"><ele>1020.0</ele><time>2026-05-03T09:01:48.131Z</time></trkpt><trkpt lat="43.9137005" lon="6.5711368"><ele>1022.0</ele><time>2026-05-03T09:01:49.131Z</time></trkpt><trkpt lat="43.9137433" lon="6.5713513"><ele>1022.6666666666667</ele><time>2026-05-03T09:01:50.131Z</time></trkpt><trkpt lat="43.9137663" lon="6.5716163"><ele>1023.3333333333333</ele><time>2026-05-03T09:01:51.131Z</time></trkpt><trkpt lat="43.9137843" lon="6.5718844"><ele>1024.0</ele><time>2026-05-03T09:01:52.131Z</time></trkpt><trkpt lat="43.9137802" lon="6.5721463"><ele>1024.3333333333333</ele><time>2026-05-03T09:01:53.131Z</time></trkpt><trkpt lat="43.9138048" lon="6.5724519"><ele>1024.6666666666667</ele><time>2026-05-03T09:01:54.131Z</time></trkpt><trkpt lat="43.9138134" lon="6.5727478"><ele>1025.0</ele><time>2026-05-03T09:01:55.131Z</time></trkpt><trkpt lat="43.9138191" lon="6.5730384"><ele>1027.3333333333335</ele><time>2026-05-03T09:01:56.131Z</time></trkpt><trkpt lat="43.9138262" lon="6.5733047"><ele>1029.6666666666667</ele><time>2026-05-03T09:01:57.131Z</time></trkpt><trkpt lat="43.9138384" lon="6.5735843"><ele>1032.0</ele><time>2026-05-03T09:01:58.131Z</time></trkpt><trkpt lat="43.9138297" lon="6.5738635"><ele>1034.0</ele><time>2026-05-03T09:01:59.131Z</time></trkpt><trkpt lat="43.9138358" lon="6.5741521"><ele>1036.0</ele><time>2026-05-03T09:02:00.131Z</time></trkpt><trkpt lat="43.9138381" lon="6.5743979"><ele>1038.0</ele><time>2026-05-03T09:02:01.131Z</time></trkpt><trkpt lat="43.9138432" lon="6.5746605"><ele>1040.0</ele><time>2026-05-03T09:02:02.131Z</time></trkpt><trkpt lat="43.9138409" lon="6.5749168"><ele>1042.0</ele><time>2026-05-03T09:02:03.13Z</time></trkpt><trkpt lat="43.9138212" lon="6.5751824"><ele>1044.0</ele><time>2026-05-03T09:02:04.131Z</time></trkpt><trkpt lat="43.9138002" lon="6.5754268"><ele>1044.3333333333333</ele><time>2026-05-03T09:02:05.131Z</time></trkpt><trkpt lat="43.9137823" lon="6.575671"><ele>1044.6666666666665</ele><time>2026-05-03T09:02:06.131Z</time></trkpt><trkpt lat="43.9137519" lon="6.5759425"><ele>1045.0</ele><time>2026-05-03T09:02:07.13Z</time></trkpt><trkpt lat="43.9137358" lon="6.5761898"><ele>1045.0</ele><time>2026-05-03T09:02:08.131Z</time></trkpt><trkpt lat="43.9137745" lon="6.5764777"><ele>1045.0</ele><time>2026-05-03T09:02:09.131Z</time></trkpt><trkpt lat="43.9137767" lon="6.5767575"><ele>1045.0</ele><time>2026-05-03T09:02:10.13Z</time></trkpt><trkpt lat="43.9137762" lon="6.5770371"><ele>1045.0</ele><time>2026-05-03T09:02:11.131Z</time></trkpt><trkpt lat="43.9137739" lon="6.5772764"><ele>1045.0</ele><time>2026-05-03T09:02:12.13Z</time></trkpt><trkpt lat="43.9137715" lon="6.5775171"><ele>1045.0</ele><time>2026-05-03T09:02:13.131Z</time></trkpt><trkpt lat="43.9137984" lon="6.5777371"><ele>1040.6666666666665</ele><time>2026-05-03T09:02:14.131Z</time></trkpt><trkpt lat="43.9138795" lon="6.5779529"><ele>1036.3333333333333</ele><time>2026-05-03T09:02:15.131Z</time></trkpt><trkpt lat="43.9139366" lon="6.5781828"><ele>1032.0</ele><time>2026-05-03T09:02:16.131Z</time></trkpt><trkpt lat="43.9139997" lon="6.5784141"><ele>1032.0</ele><time>2026-05-03T09:02:17.131Z</time></trkpt><trkpt lat="43.9141013" lon="6.5786609"><ele>1032.0</ele><time>2026-05-03T09:02:18.131Z</time></trkpt><trkpt lat="43.9141739" lon="6.5789099"><ele>1032.0</ele><time>2026-05-03T09:02:19.131Z</time></trkpt><trkpt lat="43.9142607" lon="6.5791523"><ele>1044.6666666666667</ele><time>2026-05-03T09:02:20.131Z</time></trkpt><trkpt lat="43.9143134" lon="6.579407"><ele>1057.3333333333335</ele><time>2026-05-03T09:02:21.131Z</time></trkpt><trkpt lat="43.9143512" lon="6.5796742"><ele>1070.0</ele><time>2026-05-03T09:02:22.13Z</time></trkpt><trkpt lat="43.9143659" lon="6.5799421"><ele>1070.0</ele><time>2026-05-03T09:02:23.131Z</time></trkpt><trkpt lat="43.9143659" lon="6.580211"><ele>1070.0</ele><time>2026-05-03T09:02:24.131Z</time></trkpt><trkpt lat="43.9143636" lon="6.5804897"><ele>1070.0</ele><time>2026-05-03T09:02:25.131Z</time></trkpt><trkpt lat="43.9143553" lon="6.5807652"><ele>1070.6666666666667</ele><time>2026-05-03T09:02:26.131Z</time></trkpt><trkpt lat="43.914362" lon="6.581037"><ele>1071.3333333333333</ele><time>2026-05-03T09:02:27.131Z</time></trkpt><trkpt lat="43.914383" lon="6.5813029"><ele>1072.0</ele><time>2026-05-03T09:02:28.13Z</time></trkpt><trkpt lat="43.9144046" lon="6.5815596"><ele>1069.6666666666665</ele><time>2026-05-03T09:02:29.131Z</time></trkpt><trkpt lat="43.9144294" lon="6.5818016"><ele>1067.3333333333333</ele><time>2026-05-03T09:02:30.131Z</time></trkpt><trkpt lat="43.9144273" lon="6.5820422"><ele>1065.0</ele><time>2026-05-03T09:02:31.13Z</time></trkpt><trkpt lat="43.9144136" lon="6.5822812"><ele>1061.0</ele><time>2026-05-03T09:02:32.131Z</time></trkpt><trkpt lat="43.9143755" lon="6.5825237"><ele>1057.0</ele><time>2026-05-03T09:02:33.13Z</time></trkpt><trkpt lat="43.9143401" lon="6.582772"><ele>1053.0</ele><time>2026-05-03T09:02:34.13Z</time></trkpt><trkpt lat="43.9142421" lon="6.5830038"><ele>1044.0</ele><time>2026-05-03T09:02:35.131Z</time></trkpt><trkpt lat="43.9141491" lon="6.5832305"><ele>1035.0</ele><time>2026-05-03T09:02:36.131Z</time></trkpt><trkpt lat="43.914053" lon="6.5834295"><ele>1026.0</ele><time>2026-05-03T09:02:37.131Z</time></trkpt><trkpt lat="43.9139643" lon="6.5836428"><ele>1032.3333333333333</ele><time>2026-05-03T09:02:38.131Z</time></trkpt><trkpt lat="43.9138758" lon="6.5838523"><ele>1038.6666666666665</ele><time>2026-05-03T09:02:39.131Z</time></trkpt><trkpt lat="43.9138093" lon="6.5840412"><ele>1045.0</ele><time>2026-05-03T09:02:40.131Z</time></trkpt><trkpt lat="43.9137435" lon="6.5842338"><ele>1045.0</ele><time>2026-05-03T09:02:41.131Z</time></trkpt><trkpt lat="43.913705" lon="6.5844067"><ele>1045.0</ele><time>2026-05-03T09:02:42.131Z</time></trkpt><trkpt lat="43.9136693" lon="6.5845743"><ele>1045.0</ele><time>2026-05-03T09:02:43.131Z</time></trkpt><trkpt lat="43.9136531" lon="6.5847421"><ele>1045.0</ele><time>2026-05-03T09:02:44.131Z</time></trkpt><trkpt lat="43.91363" lon="6.5849122"><ele>1045.5</ele><time>2026-05-03T09:02:45.131Z</time></trkpt><trkpt lat="43.9136141" lon="6.5850881"><ele>1046.0</ele><time>2026-05-03T09:02:46.131Z</time></trkpt><trkpt lat="43.9136092" lon="6.5852669"><ele>1046.5</ele><time>2026-05-03T09:02:47.131Z</time></trkpt><trkpt lat="43.9136058" lon="6.5854489"><ele>1047.0</ele><time>2026-05-03T09:02:48.131Z</time></trkpt><trkpt lat="43.9136126" lon="6.5856291"><ele>1044.75</ele><time>2026-05-03T09:02:49.131Z</time></trkpt><trkpt lat="43.9136131" lon="6.5858157"><ele>1042.5</ele><time>2026-05-03T09:02:50.131Z</time></trkpt><trkpt lat="43.9136112" lon="6.586"><ele>1040.25</ele><time>2026-05-03T09:02:51.131Z</time></trkpt><trkpt lat="43.9136191" lon="6.586188"><ele>1038.0</ele><time>2026-05-03T09:02:52.131Z</time></trkpt><trkpt lat="43.9136178" lon="6.5863659"><ele>1037.75</ele><time>2026-05-03T09:02:53.13Z</time></trkpt><trkpt lat="43.9136217" lon="6.5865407"><ele>1037.5</ele><time>2026-05-03T09:02:54.131Z</time></trkpt><trkpt lat="43.9136275" lon="6.5867089"><ele>1037.25</ele><time>2026-05-03T09:02:55.131Z</time></trkpt><trkpt lat="43.913649" lon="6.5868768"><ele>1037.0</ele><time>2026-05-03T09:02:56.13Z</time></trkpt><trkpt lat="43.9136928" lon="6.5870347"><ele>1037.0</ele><time>2026-05-03T09:02:57.131Z</time></trkpt><trkpt lat="43.9137481" lon="6.5871902"><ele>1037.0</ele><time>2026-05-03T09:02:58.131Z</time></trkpt><trkpt lat="43.9138121" lon="6.5873464"><ele>1037.0</ele><time>2026-05-03T09:02:59.131Z</time></trkpt><trkpt lat="43.9138539" lon="6.5875057"><ele>1037.0</ele><time>2026-05-03T09:03:00.131Z</time></trkpt><trkpt lat="43.9138744" lon="6.5876722"><ele>1037.75</ele><time>2026-05-03T09:03:01.131Z</time></trkpt><trkpt lat="43.9138574" lon="6.5878484"><ele>1038.5</ele><time>2026-05-03T09:03:02.131Z</time></trkpt><trkpt lat="43.9138113" lon="6.5880202"><ele>1039.25</ele><time>2026-05-03T09:03:03.131Z</time></trkpt><trkpt lat="43.9137464" lon="6.5881882"><ele>1040.0</ele><time>2026-05-03T09:03:04.131Z</time></trkpt><trkpt lat="43.9136696" lon="6.5883591"><ele>1040.0</ele><time>2026-05-03T09:03:05.131Z</time></trkpt><trkpt lat="43.9135856" lon="6.588521"><ele>1040.0</ele><time>2026-05-03T09:03:06.131Z</time></trkpt><trkpt lat="43.9135133" lon="6.5886846"><ele>1040.0</ele><time>2026-05-03T09:03:07.131Z</time></trkpt><trkpt lat="43.9134271" lon="6.5888419"><ele>1040.0</ele><time>2026-05-03T09:03:08.131Z</time></trkpt><trkpt lat="43.9133504" lon="6.5889953"><ele>1040.5</ele><time>2026-05-03T09:03:09.131Z</time></trkpt><trkpt lat="43.913282" lon="6.5891336"><ele>1041.0</ele><time>2026-05-03T09:03:10.13Z</time></trkpt><trkpt lat="43.9132184" lon="6.5893258"><ele>1041.5</ele><time>2026-05-03T09:03:11.131Z</time></trkpt><trkpt lat="43.9131502" lon="6.5895128"><ele>1042.0</ele><time>2026-05-03T09:03:12.131Z</time></trkpt><trkpt lat="43.9131208" lon="6.589694"><ele>1042.0</ele><time>2026-05-03T09:03:13.131Z</time></trkpt><trkpt lat="43.9130859" lon="6.5898746"><ele>1042.0</ele><time>2026-05-03T09:03:14.131Z</time></trkpt><trkpt lat="43.913055" lon="6.5900559"><ele>1042.0</ele><time>2026-05-03T09:03:15.131Z</time></trkpt><trkpt lat="43.9130191" lon="6.5902433"><ele>1042.0</ele><time>2026-05-03T09:03:16.131Z</time></trkpt><trkpt lat="43.9129594" lon="6.590408"><ele>1043.5</ele><time>2026-05-03T09:03:17.131Z</time></trkpt><trkpt lat="43.9128871" lon="6.5905683"><ele>1045.0</ele><time>2026-05-03T09:03:18.131Z</time></trkpt><trkpt lat="43.9128257" lon="6.590725"><ele>1046.5</ele><time>2026-05-03T09:03:19.13Z</time></trkpt><trkpt lat="43.9127698" lon="6.5908925"><ele>1048.0</ele><time>2026-05-03T09:03:20.131Z</time></trkpt><trkpt lat="43.9127361" lon="6.5910593"><ele>1049.25</ele><time>2026-05-03T09:03:21.131Z</time></trkpt><trkpt lat="43.9127163" lon="6.5912309"><ele>1050.5</ele><time>2026-05-03T09:03:22.131Z</time></trkpt><trkpt lat="43.9127235" lon="6.5914146"><ele>1051.75</ele><time>2026-05-03T09:03:23.131Z</time></trkpt><trkpt lat="43.9127541" lon="6.5915993"><ele>1053.0</ele><time>2026-05-03T09:03:24.131Z</time></trkpt><trkpt lat="43.9127877" lon="6.5917849"><ele>1053.0</ele><time>2026-05-03T09:03:25.131Z</time></trkpt><trkpt lat="43.9128164" lon="6.5919732"><ele>1053.0</ele><time>2026-05-03T09:03:26.13Z</time></trkpt><trkpt lat="43.9128086" lon="6.5921711"><ele>1053.0</ele><time>2026-05-03T09:03:27.13Z</time></trkpt><trkpt lat="43.9127812" lon="6.5923685"><ele>1053.0</ele><time>2026-05-03T09:03:28.131Z</time></trkpt><trkpt lat="43.9127391" lon="6.5925718"><ele>1053.0</ele><time>2026-05-03T09:03:29.131Z</time></trkpt><trkpt lat="43.9126708" lon="6.5927633"><ele>1053.0</ele><time>2026-05-03T09:03:30.131Z</time></trkpt><trkpt lat="43.9126167" lon="6.5929698"><ele>1053.0</ele><time>2026-05-03T09:03:31.131Z</time></trkpt><trkpt lat="43.9125525" lon="6.5931792"><ele>1053.0</ele><time>2026-05-03T09:03:32.131Z</time></trkpt><trkpt lat="43.9125155" lon="6.5933898"><ele>1053.0</ele><time>2026-05-03T09:03:33.13Z</time></trkpt><trkpt lat="43.9124897" lon="6.5936489"><ele>1053.0</ele><time>2026-05-03T09:03:34.131Z</time></trkpt><trkpt lat="43.9124772" lon="6.5939172"><ele>1053.6666666666667</ele><time>2026-05-03T09:03:35.131Z</time></trkpt><trkpt lat="43.9124722" lon="6.5941855"><ele>1054.3333333333335</ele><time>2026-05-03T09:03:36.13Z</time></trkpt><trkpt lat="43.91246" lon="6.5944528"><ele>1055.0</ele><time>2026-05-03T09:03:37.131Z</time></trkpt><trkpt lat="43.9124521" lon="6.5947167"><ele>1055.6666666666667</ele><time>2026-05-03T09:03:38.131Z</time></trkpt><trkpt lat="43.9124486" lon="6.5949806"><ele>1056.3333333333333</ele><time>2026-05-03T09:03:39.131Z</time></trkpt><trkpt lat="43.9124602" lon="6.5952441"><ele>1057.0</ele><time>2026-05-03T09:03:40.13Z</time></trkpt><trkpt lat="43.9124482" lon="6.5954944"><ele>1057.3333333333333</ele><time>2026-05-03T09:03:41.13Z</time></trkpt><trkpt lat="43.9124457" lon="6.5957415"><ele>1057.6666666666667</ele><time>2026-05-03T09:03:42.131Z</time></trkpt><trkpt lat="43.9124549" lon="6.5959794"><ele>1058.0</ele><time>2026-05-03T09:03:43.131Z</time></trkpt><trkpt lat="43.9124736" lon="6.59621"><ele>1057.3333333333335</ele><time>2026-05-03T09:03:44.13Z</time></trkpt><trkpt lat="43.9125179" lon="6.5964299"><ele>1056.6666666666667</ele><time>2026-05-03T09:03:45.131Z</time></trkpt><trkpt lat="43.9125753" lon="6.5966471"><ele>1056.0</ele><time>2026-05-03T09:03:46.131Z</time></trkpt><trkpt lat="43.9126488" lon="6.596874"><ele>1061.0</ele><time>2026-05-03T09:03:47.131Z</time></trkpt><trkpt lat="43.9127655" lon="6.5970552"><ele>1066.0</ele><time>2026-05-03T09:03:48.131Z</time></trkpt><trkpt lat="43.9128579" lon="6.5972388"><ele>1071.0</ele><time>2026-05-03T09:03:49.131Z</time></trkpt><trkpt lat="43.9129353" lon="6.5974218"><ele>1071.0</ele><time>2026-05-03T09:03:50.13Z</time></trkpt><trkpt lat="43.9129296" lon="6.5976723"><ele>1071.0</ele><time>2026-05-03T09:03:51.131Z</time></trkpt><trkpt lat="43.9129344" lon="6.5978966"><ele>1071.0</ele><time>2026-05-03T09:03:52.131Z</time></trkpt><trkpt lat="43.912961" lon="6.5981503"><ele>1071.6666666666667</ele><time>2026-05-03T09:03:53.131Z</time></trkpt><trkpt lat="43.9130139" lon="6.5984016"><ele>1072.3333333333335</ele><time>2026-05-03T09:03:54.131Z</time></trkpt><trkpt lat="43.9130626" lon="6.5986445"><ele>1073.0</ele><time>2026-05-03T09:03:55.131Z</time></trkpt><trkpt lat="43.9130794" lon="6.5988856"><ele>1073.3333333333335</ele><time>2026-05-03T09:03:56.131Z</time></trkpt><trkpt lat="43.9130715" lon="6.5991272"><ele>1073.6666666666667</ele><time>2026-05-03T09:03:57.131Z</time></trkpt><trkpt lat="43.9130492" lon="6.5993784"><ele>1074.0</ele><time>2026-05-03T09:03:58.131Z</time></trkpt><trkpt lat="43.9129474" lon="6.5996001"><ele>1075.0</ele><time>2026-05-03T09:03:59.131Z</time></trkpt><trkpt lat="43.912856" lon="6.5998457"><ele>1076.0</ele><time>2026-05-03T09:04:00.131Z</time></trkpt><trkpt lat="43.9127624" lon="6.6000897"><ele>1077.0</ele><time>2026-05-03T09:04:01.131Z</time></trkpt><trkpt lat="43.9126804" lon="6.6003346"><ele>1078.6666666666667</ele><time>2026-05-03T09:04:02.131Z</time></trkpt><trkpt lat="43.9126066" lon="6.6005883"><ele>1080.3333333333335</ele><time>2026-05-03T09:04:03.131Z</time></trkpt><trkpt lat="43.9125321" lon="6.6008501"><ele>1082.0</ele><time>2026-05-03T09:04:04.131Z</time></trkpt><trkpt lat="43.9124679" lon="6.6011083"><ele>1078.6666666666667</ele><time>2026-05-03T09:04:05.131Z</time></trkpt><trkpt lat="43.9123972" lon="6.6013717"><ele>1075.3333333333333</ele><time>2026-05-03T09:04:06.13Z</time></trkpt><trkpt lat="43.9123516" lon="6.6016171"><ele>1072.0</ele><time>2026-05-03T09:04:07.131Z</time></trkpt><trkpt lat="43.9123103" lon="6.6018699"><ele>1073.0</ele><time>2026-05-03T09:04:08.131Z</time></trkpt><trkpt lat="43.9122758" lon="6.6021243"><ele>1074.0</ele><time>2026-05-03T09:04:09.131Z</time></trkpt><trkpt lat="43.9122939" lon="6.6024035"><ele>1075.0</ele><time>2026-05-03T09:04:10.131Z</time></trkpt><trkpt lat="43.9123127" lon="6.6026832"><ele>1074.6666666666665</ele><time>2026-05-03T09:04:11.131Z</time></trkpt><trkpt lat="43.9123324" lon="6.6029583"><ele>1074.3333333333333</ele><time>2026-05-03T09:04:12.131Z</time></trkpt><trkpt lat="43.9123453" lon="6.6032411"><ele>1074.0</ele><time>2026-05-03T09:04:13.13Z</time></trkpt><trkpt lat="43.9123664" lon="6.603516"><ele>1074.3333333333333</ele><time>2026-05-03T09:04:14.131Z</time></trkpt><trkpt lat="43.912377" lon="6.6037837"><ele>1074.6666666666665</ele><time>2026-05-03T09:04:15.131Z</time></trkpt><trkpt lat="43.9123861" lon="6.6040652"><ele>1075.0</ele><time>2026-05-03T09:04:16.131Z</time></trkpt><trkpt lat="43.9124116" lon="6.6042981"><ele>1075.3333333333333</ele><time>2026-05-03T09:04:17.131Z</time></trkpt><trkpt lat="43.9124189" lon="6.6045424"><ele>1075.6666666666667</ele><time>2026-05-03T09:04:18.13Z</time></trkpt><trkpt lat="43.9124265" lon="6.6047633"><ele>1076.0</ele><time>2026-05-03T09:04:19.131Z</time></trkpt><trkpt lat="43.9124395" lon="6.6049657"><ele>1076.0</ele><time>2026-05-03T09:04:20.131Z</time></trkpt><trkpt lat="43.9124677" lon="6.6051659"><ele>1076.0</ele><time>2026-05-03T09:04:21.131Z</time></trkpt><trkpt lat="43.9125332" lon="6.6053629"><ele>1076.0</ele><time>2026-05-03T09:04:22.131Z</time></trkpt><trkpt lat="43.9126235" lon="6.6055497"><ele>1078.0</ele><time>2026-05-03T09:04:23.131Z</time></trkpt><trkpt lat="43.9127085" lon="6.6057277"><ele>1080.0</ele><time>2026-05-03T09:04:24.131Z</time></trkpt><trkpt lat="43.9128313" lon="6.6059073"><ele>1082.0</ele><time>2026-05-03T09:04:25.131Z</time></trkpt><trkpt lat="43.9129688" lon="6.6060793"><ele>1081.0</ele><time>2026-05-03T09:04:26.131Z</time></trkpt><trkpt lat="43.913129" lon="6.6062247"><ele>1080.0</ele><time>2026-05-03T09:04:27.131Z</time></trkpt><trkpt lat="43.9132949" lon="6.6063675"><ele>1079.0</ele><time>2026-05-03T09:04:28.131Z</time></trkpt><trkpt lat="43.9134568" lon="6.6065096"><ele>1079.0</ele><time>2026-05-03T09:04:29.131Z</time></trkpt><trkpt lat="43.9136153" lon="6.6066303"><ele>1079.0</ele><time>2026-05-03T09:04:30.131Z</time></trkpt><trkpt lat="43.9137783" lon="6.6067261"><ele>1079.0</ele><time>2026-05-03T09:04:31.13Z</time></trkpt><trkpt lat="43.9139484" lon="6.6067972"><ele>1079.0</ele><time>2026-05-03T09:04:32.131Z</time></trkpt><trkpt lat="43.9141211" lon="6.6068539"><ele>1079.0</ele><time>2026-05-03T09:04:33.131Z</time></trkpt><trkpt lat="43.9142866" lon="6.6068856"><ele>1079.0</ele><time>2026-05-03T09:04:34.131Z</time></trkpt><trkpt lat="43.9144767" lon="6.6068597"><ele>1080.6666666666667</ele><time>2026-05-03T09:04:35.13Z</time></trkpt><trkpt lat="43.9146641" lon="6.6068336"><ele>1082.3333333333333</ele><time>2026-05-03T09:04:36.131Z</time></trkpt><trkpt lat="43.914855" lon="6.6068059"><ele>1084.0</ele><time>2026-05-03T09:04:37.131Z</time></trkpt><trkpt lat="43.9150347" lon="6.6067827"><ele>1087.0</ele><time>2026-05-03T09:04:38.131Z</time></trkpt><trkpt lat="43.9151992" lon="6.6067795"><ele>1090.0</ele><time>2026-05-03T09:04:39.131Z</time></trkpt><trkpt lat="43.9153494" lon="6.6068125"><ele>1093.0</ele><time>2026-05-03T09:04:40.131Z</time></trkpt><trkpt lat="43.9155016" lon="6.6068574"><ele>1092.0</ele><time>2026-05-03T09:04:41.13Z</time></trkpt><trkpt lat="43.9156081" lon="6.6069961"><ele>1091.0</ele><time>2026-05-03T09:04:42.131Z</time></trkpt><trkpt lat="43.9157171" lon="6.6071542"><ele>1090.0</ele><time>2026-05-03T09:04:43.131Z</time></trkpt><trkpt lat="43.9158067" lon="6.6073535"><ele>1090.0</ele><time>2026-05-03T09:04:44.131Z</time></trkpt><trkpt lat="43.9159027" lon="6.6075694"><ele>1090.0</ele><time>2026-05-03T09:04:45.131Z</time></trkpt><trkpt lat="43.9160078" lon="6.6077937"><ele>1090.0</ele><time>2026-05-03T09:04:46.131Z</time></trkpt><trkpt lat="43.916121" lon="6.6080335"><ele>1092.3333333333333</ele><time>2026-05-03T09:04:47.131Z</time></trkpt><trkpt lat="43.9162339" lon="6.6082686"><ele>1094.6666666666667</ele><time>2026-05-03T09:04:48.131Z</time></trkpt><trkpt lat="43.9163456" lon="6.6084964"><ele>1097.0</ele><time>2026-05-03T09:04:49.13Z</time></trkpt><trkpt lat="43.9164533" lon="6.6087097"><ele>1097.0</ele><time>2026-05-03T09:04:50.131Z</time></trkpt><trkpt lat="43.9165741" lon="6.6089131"><ele>1097.0</ele><time>2026-05-03T09:04:51.131Z</time></trkpt><trkpt lat="43.9167322" lon="6.609056"><ele>1097.0</ele><time>2026-05-03T09:04:52.131Z</time></trkpt><trkpt lat="43.9168704" lon="6.609223"><ele>1100.3333333333335</ele><time>2026-05-03T09:04:53.13Z</time></trkpt><trkpt lat="43.9170264" lon="6.6093508"><ele>1103.6666666666667</ele><time>2026-05-03T09:04:54.131Z</time></trkpt><trkpt lat="43.9171784" lon="6.6094478"><ele>1107.0</ele><time>2026-05-03T09:04:55.131Z</time></trkpt><trkpt lat="43.9173255" lon="6.6095579"><ele>1107.0</ele><time>2026-05-03T09:04:56.131Z</time></trkpt><trkpt lat="43.9174122" lon="6.6097235"><ele>1107.0</ele><time>2026-05-03T09:04:57.131Z</time></trkpt><trkpt lat="43.9174859" lon="6.609916"><ele>1107.0</ele><time>2026-05-03T09:04:58.131Z</time></trkpt><trkpt lat="43.9175334" lon="6.6101463"><ele>1113.0</ele><time>2026-05-03T09:04:59.131Z</time></trkpt><trkpt lat="43.9175771" lon="6.6103754"><ele>1119.0</ele><time>2026-05-03T09:05:00.131Z</time></trkpt><trkpt lat="43.9176106" lon="6.6106027"><ele>1125.0</ele><time>2026-05-03T09:05:01.131Z</time></trkpt><trkpt lat="43.9176498" lon="6.6108146"><ele>1125.0</ele><time>2026-05-03T09:05:02.131Z</time></trkpt><trkpt lat="43.9177023" lon="6.611007"><ele>1125.0</ele><time>2026-05-03T09:05:03.131Z</time></trkpt><trkpt lat="43.9178347" lon="6.6111742"><ele>1125.0</ele><time>2026-05-03T09:05:04.131Z</time></trkpt><trkpt lat="43.9179672" lon="6.6113489"><ele>1123.0</ele><time>2026-05-03T09:05:05.131Z</time></trkpt><trkpt lat="43.9180773" lon="6.6115486"><ele>1121.0</ele><time>2026-05-03T09:05:06.13Z</time></trkpt><trkpt lat="43.9181895" lon="6.6117586"><ele>1119.0</ele><time>2026-05-03T09:05:07.131Z</time></trkpt><trkpt lat="43.9183157" lon="6.611957"><ele>1120.6666666666667</ele><time>2026-05-03T09:05:08.131Z</time></trkpt><trkpt lat="43.9184173" lon="6.61217"><ele>1122.3333333333335</ele><time>2026-05-03T09:05:09.131Z</time></trkpt><trkpt lat="43.9185516" lon="6.6123727"><ele>1124.0</ele><time>2026-05-03T09:05:10.131Z</time></trkpt><trkpt lat="43.918659" lon="6.6125947"><ele>1124.0</ele><time>2026-05-03T09:05:11.131Z</time></trkpt><trkpt lat="43.918766" lon="6.6128132"><ele>1124.0</ele><time>2026-05-03T09:05:12.131Z</time></trkpt><trkpt lat="43.9188757" lon="6.6130214"><ele>1124.0</ele><time>2026-05-03T09:05:13.131Z</time></trkpt><trkpt lat="43.918978" lon="6.6132058"><ele>1124.0</ele><time>2026-05-03T09:05:14.13Z</time></trkpt><trkpt lat="43.9190812" lon="6.6133729"><ele>1124.0</ele><time>2026-05-03T09:05:15.13Z</time></trkpt><trkpt lat="43.9191819" lon="6.6135212"><ele>1124.0</ele><time>2026-05-03T09:05:16.131Z</time></trkpt><trkpt lat="43.9192781" lon="6.6136635"><ele>1124.0</ele><time>2026-05-03T09:05:17.131Z</time></trkpt><trkpt lat="43.9193588" lon="6.6137973"><ele>1122.5</ele><time>2026-05-03T09:05:18.131Z</time></trkpt><trkpt lat="43.9194609" lon="6.6139029"><ele>1121.0</ele><time>2026-05-03T09:05:19.131Z</time></trkpt><trkpt lat="43.9195756" lon="6.6140022"><ele>1119.5</ele><time>2026-05-03T09:05:20.131Z</time></trkpt><trkpt lat="43.9197063" lon="6.6140571"><ele>1118.0</ele><time>2026-05-03T09:05:21.131Z</time></trkpt><trkpt lat="43.9198719" lon="6.614065"><ele>1118.0</ele><time>2026-05-03T09:05:22.131Z</time></trkpt><trkpt lat="43.9200538" lon="6.6140749"><ele>1118.0</ele><time>2026-05-03T09:05:23.13Z</time></trkpt><trkpt lat="43.9202345" lon="6.6140867"><ele>1118.0</ele><time>2026-05-03T09:05:24.131Z</time></trkpt><trkpt lat="43.9204195" lon="6.6140886"><ele>1116.0</ele><time>2026-05-03T09:05:25.131Z</time></trkpt><trkpt lat="43.9205874" lon="6.6140726"><ele>1114.0</ele><time>2026-05-03T09:05:26.131Z</time></trkpt><trkpt lat="43.9207515" lon="6.6140223"><ele>1112.0</ele><time>2026-05-03T09:05:27.131Z</time></trkpt><trkpt lat="43.92091" lon="6.6139537"><ele>1111.0</ele><time>2026-05-03T09:05:28.131Z</time></trkpt><trkpt lat="43.9210611" lon="6.6138684"><ele>1110.0</ele><time>2026-05-03T09:05:29.131Z</time></trkpt><trkpt lat="43.9211881" lon="6.6138195"><ele>1109.0</ele><time>2026-05-03T09:05:30.131Z</time></trkpt><trkpt lat="43.9213385" lon="6.6137537"><ele>1109.0</ele><time>2026-05-03T09:05:31.131Z</time></trkpt><trkpt lat="43.9214766" lon="6.613741"><ele>1109.0</ele><time>2026-05-03T09:05:32.13Z</time></trkpt><trkpt lat="43.9216067" lon="6.6137787"><ele>1109.0</ele><time>2026-05-03T09:05:33.131Z</time></trkpt><trkpt lat="43.9217278" lon="6.6138536"><ele>1109.0</ele><time>2026-05-03T09:05:34.13Z</time></trkpt><trkpt lat="43.9218387" lon="6.6139549"><ele>1110.25</ele><time>2026-05-03T09:05:35.131Z</time></trkpt><trkpt lat="43.9219469" lon="6.614061"><ele>1111.5</ele><time>2026-05-03T09:05:36.131Z</time></trkpt><trkpt lat="43.9220466" lon="6.6141473"><ele>1112.75</ele><time>2026-05-03T09:05:37.13Z</time></trkpt><trkpt lat="43.9221761" lon="6.6142119"><ele>1114.0</ele><time>2026-05-03T09:05:38.13Z</time></trkpt><trkpt lat="43.9223052" lon="6.6142548"><ele>1114.0</ele><time>2026-05-03T09:05:39.131Z</time></trkpt><trkpt lat="43.9224481" lon="6.6142958"><ele>1114.0</ele><time>2026-05-03T09:05:40.131Z</time></trkpt><trkpt lat="43.9225881" lon="6.6143551"><ele>1114.0</ele><time>2026-05-03T09:05:41.131Z</time></trkpt><trkpt lat="43.922713" lon="6.6143954"><ele>1114.0</ele><time>2026-05-03T09:05:42.131Z</time></trkpt><trkpt lat="43.9228282" lon="6.614411"><ele>1115.8</ele><time>2026-05-03T09:05:43.131Z</time></trkpt><trkpt lat="43.9229408" lon="6.6144065"><ele>1117.6000000000001</ele><time>2026-05-03T09:05:44.131Z</time></trkpt><trkpt lat="43.9230261" lon="6.6144022"><ele>1119.4</ele><time>2026-05-03T09:05:45.131Z</time></trkpt><trkpt lat="43.9231287" lon="6.614471"><ele>1121.2</ele><time>2026-05-03T09:05:46.131Z</time></trkpt><trkpt lat="43.9232129" lon="6.6145893"><ele>1123.0</ele><time>2026-05-03T09:05:47.131Z</time></trkpt><trkpt lat="43.9232538" lon="6.6147475"><ele>1118.0</ele><time>2026-05-03T09:05:48.131Z</time></trkpt><trkpt lat="43.923282" lon="6.614947"><ele>1113.0</ele><time>2026-05-03T09:05:49.131Z</time></trkpt><trkpt lat="43.9232975" lon="6.6151545"><ele>1108.0</ele><time>2026-05-03T09:05:50.131Z</time></trkpt><trkpt lat="43.9233328" lon="6.6153498"><ele>1103.0</ele><time>2026-05-03T09:05:51.131Z</time></trkpt><trkpt lat="43.9233375" lon="6.6155345"><ele>1104.5</ele><time>2026-05-03T09:05:52.13Z</time></trkpt><trkpt lat="43.9233729" lon="6.6156971"><ele>1106.0</ele><time>2026-05-03T09:05:53.131Z</time></trkpt><trkpt lat="43.9234454" lon="6.6158414"><ele>1107.5</ele><time>2026-05-03T09:05:54.131Z</time></trkpt><trkpt lat="43.9235472" lon="6.6159719"><ele>1109.0</ele><time>2026-05-03T09:05:55.131Z</time></trkpt><trkpt lat="43.9236539" lon="6.6160829"><ele>1101.6666666666667</ele><time>2026-05-03T09:05:56.131Z</time></trkpt><trkpt lat="43.923795" lon="6.6161942"><ele>1094.3333333333333</ele><time>2026-05-03T09:05:57.131Z</time></trkpt><trkpt lat="43.9239674" lon="6.6163375"><ele>1087.0</ele><time>2026-05-03T09:05:58.131Z</time></trkpt><trkpt lat="43.9241165" lon="6.6164755"><ele>1089.3333333333333</ele><time>2026-05-03T09:05:59.131Z</time></trkpt><trkpt lat="43.9242676" lon="6.6166116"><ele>1091.6666666666667</ele><time>2026-05-03T09:06:00.131Z</time></trkpt><trkpt lat="43.9244186" lon="6.6167272"><ele>1094.0</ele><time>2026-05-03T09:06:01.131Z</time></trkpt><trkpt lat="43.924582" lon="6.6168193"><ele>1094.0</ele><time>2026-05-03T09:06:02.131Z</time></trkpt><trkpt lat="43.9247366" lon="6.6169214"><ele>1094.0</ele><time>2026-05-03T09:06:03.131Z</time></trkpt><trkpt lat="43.9248952" lon="6.6170063"><ele>1094.0</ele><time>2026-05-03T09:06:04.131Z</time></trkpt><trkpt lat="43.9250633" lon="6.6170739"><ele>1089.6666666666667</ele><time>2026-05-03T09:06:05.131Z</time></trkpt><trkpt lat="43.9252396" lon="6.6171356"><ele>1085.3333333333333</ele><time>2026-05-03T09:06:06.131Z</time></trkpt><trkpt lat="43.925411" lon="6.6172064"><ele>1081.0</ele><time>2026-05-03T09:06:07.131Z</time></trkpt><trkpt lat="43.9255871" lon="6.6172771"><ele>1081.0</ele><time>2026-05-03T09:06:08.13Z</time></trkpt><trkpt lat="43.9257646" lon="6.6173447"><ele>1081.0</ele><time>2026-05-03T09:06:09.131Z</time></trkpt><trkpt lat="43.9259445" lon="6.6174014"><ele>1081.0</ele><time>2026-05-03T09:06:10.131Z</time></trkpt><trkpt lat="43.9261243" lon="6.6174746"><ele>1083.0</ele><time>2026-05-03T09:06:11.13Z</time></trkpt><trkpt lat="43.9262696" lon="6.6175829"><ele>1085.0</ele><time>2026-05-03T09:06:12.131Z</time></trkpt><trkpt lat="43.9264082" lon="6.6176758"><ele>1087.0</ele><time>2026-05-03T09:06:13.13Z</time></trkpt><trkpt lat="43.9265373" lon="6.6178036"><ele>1087.3333333333333</ele><time>2026-05-03T09:06:14.13Z</time></trkpt><trkpt lat="43.9266722" lon="6.6179597"><ele>1087.6666666666667</ele><time>2026-05-03T09:06:15.13Z</time></trkpt><trkpt lat="43.9267708" lon="6.6181533"><ele>1088.0</ele><time>2026-05-03T09:06:16.131Z</time></trkpt><trkpt lat="43.926876" lon="6.6183746"><ele>1088.0</ele><time>2026-05-03T09:06:17.131Z</time></trkpt><trkpt lat="43.9269754" lon="6.6186202"><ele>1088.0</ele><time>2026-05-03T09:06:18.131Z</time></trkpt><trkpt lat="43.9270675" lon="6.6188703"><ele>1088.0</ele><time>2026-05-03T09:06:19.131Z</time></trkpt><trkpt lat="43.9271727" lon="6.619096"><ele>1085.0</ele><time>2026-05-03T09:06:20.131Z</time></trkpt><trkpt lat="43.9272786" lon="6.6193156"><ele>1082.0</ele><time>2026-05-03T09:06:21.131Z</time></trkpt><trkpt lat="43.9273788" lon="6.6195383"><ele>1079.0</ele><time>2026-05-03T09:06:22.131Z</time></trkpt><trkpt lat="43.927485" lon="6.6197481"><ele>1079.6666666666667</ele><time>2026-05-03T09:06:23.13Z</time></trkpt><trkpt lat="43.9275914" lon="6.6199709"><ele>1080.3333333333333</ele><time>2026-05-03T09:06:24.131Z</time></trkpt><trkpt lat="43.9276869" lon="6.6201969"><ele>1081.0</ele><time>2026-05-03T09:06:25.131Z</time></trkpt><trkpt lat="43.9277994" lon="6.6204147"><ele>1077.3333333333333</ele><time>2026-05-03T09:06:26.131Z</time></trkpt><trkpt lat="43.9279093" lon="6.6206333"><ele>1073.6666666666667</ele><time>2026-05-03T09:06:27.131Z</time></trkpt><trkpt lat="43.9280139" lon="6.6208524"><ele>1070.0</ele><time>2026-05-03T09:06:28.131Z</time></trkpt><trkpt lat="43.9281194" lon="6.6210746"><ele>1071.0</ele><time>2026-05-03T09:06:29.131Z</time></trkpt><trkpt lat="43.9282213" lon="6.6212958"><ele>1072.0</ele><time>2026-05-03T09:06:30.131Z</time></trkpt><trkpt lat="43.9283303" lon="6.6215097"><ele>1073.0</ele><time>2026-05-03T09:06:31.131Z</time></trkpt><trkpt lat="43.9284314" lon="6.6217249"><ele>1073.0</ele><time>2026-05-03T09:06:32.131Z</time></trkpt><trkpt lat="43.9285282" lon="6.6219486"><ele>1073.0</ele><time>2026-05-03T09:06:33.131Z</time></trkpt><trkpt lat="43.9286319" lon="6.622168"><ele>1073.0</ele><time>2026-05-03T09:06:34.13Z</time></trkpt><trkpt lat="43.9287264" lon="6.6223803"><ele>1070.0</ele><time>2026-05-03T09:06:35.131Z</time></trkpt><trkpt lat="43.9288322" lon="6.6225912"><ele>1067.0</ele><time>2026-05-03T09:06:36.131Z</time></trkpt><trkpt lat="43.9289441" lon="6.622799"><ele>1064.0</ele><time>2026-05-03T09:06:37.131Z</time></trkpt><trkpt lat="43.9290558" lon="6.6230067"><ele>1060.3333333333335</ele><time>2026-05-03T09:06:38.131Z</time></trkpt><trkpt lat="43.9291743" lon="6.6232016"><ele>1056.6666666666667</ele><time>2026-05-03T09:06:39.131Z</time></trkpt><trkpt lat="43.9293113" lon="6.6233886"><ele>1053.0</ele><time>2026-05-03T09:06:40.131Z</time></trkpt><trkpt lat="43.9294514" lon="6.6235798"><ele>1049.3333333333333</ele><time>2026-05-03T09:06:41.131Z</time></trkpt><trkpt lat="43.9295965" lon="6.623765"><ele>1045.6666666666665</ele><time>2026-05-03T09:06:42.13Z</time></trkpt><trkpt lat="43.9297368" lon="6.6239427"><ele>1042.0</ele><time>2026-05-03T09:06:43.131Z</time></trkpt><trkpt lat="43.9298821" lon="6.6241012"><ele>1042.0</ele><time>2026-05-03T09:06:44.131Z</time></trkpt><trkpt lat="43.9300231" lon="6.6242508"><ele>1042.0</ele><time>2026-05-03T09:06:45.131Z</time></trkpt><trkpt lat="43.9301569" lon="6.6243992"><ele>1042.0</ele><time>2026-05-03T09:06:46.131Z</time></trkpt><trkpt lat="43.9302954" lon="6.6245372"><ele>1040.0</ele><time>2026-05-03T09:06:47.131Z</time></trkpt><trkpt lat="43.9304471" lon="6.6246531"><ele>1038.0</ele><time>2026-05-03T09:06:48.13Z</time></trkpt><trkpt lat="43.9306162" lon="6.6247553"><ele>1036.0</ele><time>2026-05-03T09:06:49.131Z</time></trkpt><trkpt lat="43.9307879" lon="6.6248394"><ele>1037.6666666666665</ele><time>2026-05-03T09:06:50.131Z</time></trkpt><trkpt lat="43.9309575" lon="6.6249155"><ele>1039.3333333333333</ele><time>2026-05-03T09:06:51.131Z</time></trkpt><trkpt lat="43.9311152" lon="6.6250009"><ele>1041.0</ele><time>2026-05-03T09:06:52.131Z</time></trkpt><trkpt lat="43.9312647" lon="6.6251008"><ele>1041.0</ele><time>2026-05-03T09:06:53.131Z</time></trkpt><trkpt lat="43.9314014" lon="6.6252359"><ele>1041.0</ele><time>2026-05-03T09:06:54.131Z</time></trkpt><trkpt lat="43.9315292" lon="6.6253926"><ele>1041.0</ele><time>2026-05-03T09:06:55.131Z</time></trkpt><trkpt lat="43.9316421" lon="6.6255876"><ele>1043.0</ele><time>2026-05-03T09:06:56.131Z</time></trkpt><trkpt lat="43.9317307" lon="6.625819"><ele>1045.0</ele><time>2026-05-03T09:06:57.131Z</time></trkpt><trkpt lat="43.9317833" lon="6.6260715"><ele>1047.0</ele><time>2026-05-03T09:06:58.131Z</time></trkpt><trkpt lat="43.9318434" lon="6.6263328"><ele>1047.0</ele><time>2026-05-03T09:06:59.131Z</time></trkpt><trkpt lat="43.9319059" lon="6.6265975"><ele>1047.0</ele><time>2026-05-03T09:07:00.131Z</time></trkpt><trkpt lat="43.9319868" lon="6.6268644"><ele>1047.0</ele><time>2026-05-03T09:07:01.131Z</time></trkpt><trkpt lat="43.9320727" lon="6.627128"><ele>1043.6666666666667</ele><time>2026-05-03T09:07:02.13Z</time></trkpt><trkpt lat="43.9321713" lon="6.6273942"><ele>1040.3333333333335</ele><time>2026-05-03T09:07:03.13Z</time></trkpt><trkpt lat="43.9322588" lon="6.6276632"><ele>1037.0</ele><time>2026-05-03T09:07:04.131Z</time></trkpt><trkpt lat="43.9323375" lon="6.6279356"><ele>1037.0</ele><time>2026-05-03T09:07:05.131Z</time></trkpt><trkpt lat="43.9324107" lon="6.6281952"><ele>1037.0</ele><time>2026-05-03T09:07:06.131Z</time></trkpt><trkpt lat="43.9325067" lon="6.6284343"><ele>1037.0</ele><time>2026-05-03T09:07:07.131Z</time></trkpt><trkpt lat="43.9325977" lon="6.6286617"><ele>1037.0</ele><time>2026-05-03T09:07:08.131Z</time></trkpt><trkpt lat="43.9326901" lon="6.6288771"><ele>1037.0</ele><time>2026-05-03T09:07:09.131Z</time></trkpt><trkpt lat="43.9327861" lon="6.62909"><ele>1037.0</ele><time>2026-05-03T09:07:10.131Z</time></trkpt><trkpt lat="43.9328707" lon="6.6293238"><ele>1034.3333333333335</ele><time>2026-05-03T09:07:11.131Z</time></trkpt><trkpt lat="43.9328972" lon="6.6295954"><ele>1031.6666666666667</ele><time>2026-05-03T09:07:12.131Z</time></trkpt><trkpt lat="43.9329393" lon="6.6298622"><ele>1029.0</ele><time>2026-05-03T09:07:13.131Z</time></trkpt><trkpt lat="43.9329939" lon="6.6301968"><ele>1023.0</ele><time>2026-05-03T09:07:14.131Z</time></trkpt><trkpt lat="43.9330371" lon="6.6305293"><ele>1017.0</ele><time>2026-05-03T09:07:15.131Z</time></trkpt><trkpt lat="43.9330845" lon="6.6308398"><ele>1013.6666666666667</ele><time>2026-05-03T09:07:16.131Z</time></trkpt><trkpt lat="43.9331279" lon="6.631142"><ele>1010.3333333333334</ele><time>2026-05-03T09:07:17.131Z</time></trkpt><trkpt lat="43.9331749" lon="6.6314271"><ele>1007.0</ele><time>2026-05-03T09:07:18.131Z</time></trkpt><trkpt lat="43.9332201" lon="6.6317077"><ele>1007.0</ele><time>2026-05-03T09:07:19.131Z</time></trkpt><trkpt lat="43.9332624" lon="6.6319606"><ele>1007.0</ele><time>2026-05-03T09:07:20.131Z</time></trkpt><trkpt lat="43.9333055" lon="6.6322118"><ele>1007.0</ele><time>2026-05-03T09:07:21.13Z</time></trkpt><trkpt lat="43.9333491" lon="6.6324582"><ele>1011.6666666666667</ele><time>2026-05-03T09:07:22.131Z</time></trkpt><trkpt lat="43.9333961" lon="6.6327081"><ele>1016.3333333333333</ele><time>2026-05-03T09:07:23.131Z</time></trkpt><trkpt lat="43.9334589" lon="6.6329489"><ele>1021.0</ele><time>2026-05-03T09:07:24.131Z</time></trkpt><trkpt lat="43.9335334" lon="6.6331617"><ele>1021.0</ele><time>2026-05-03T09:07:25.131Z</time></trkpt><trkpt lat="43.9336115" lon="6.6333721"><ele>1021.0</ele><time>2026-05-03T09:07:26.13Z</time></trkpt><trkpt lat="43.9336799" lon="6.6335746"><ele>1021.0</ele><time>2026-05-03T09:07:27.131Z</time></trkpt><trkpt lat="43.9337256" lon="6.6337804"><ele>1017.0</ele><time>2026-05-03T09:07:28.131Z</time></trkpt><trkpt lat="43.9337312" lon="6.6339609"><ele>1013.0</ele><time>2026-05-03T09:07:29.131Z</time></trkpt><trkpt lat="43.9337391" lon="6.6341389"><ele>1009.0</ele><time>2026-05-03T09:07:30.13Z</time></trkpt><trkpt lat="43.933744" lon="6.6342957"><ele>1005.0</ele><time>2026-05-03T09:07:31.131Z</time></trkpt><trkpt lat="43.9337854" lon="6.6344316"><ele>999.5</ele><time>2026-05-03T09:07:32.131Z</time></trkpt><trkpt lat="43.9338155" lon="6.6345705"><ele>994.0</ele><time>2026-05-03T09:07:33.131Z</time></trkpt><trkpt lat="43.9338569" lon="6.6346775"><ele>988.5</ele><time>2026-05-03T09:07:34.131Z</time></trkpt><trkpt lat="43.9340601" lon="6.6347031"><ele>983.0</ele><time>2026-05-03T09:07:35.13Z</time></trkpt><trkpt lat="43.9341761" lon="6.6347794"><ele>986.0</ele><time>2026-05-03T09:07:36.131Z</time></trkpt><trkpt lat="43.9343191" lon="6.6349195"><ele>989.0</ele><time>2026-05-03T09:07:37.131Z</time></trkpt><trkpt lat="43.9344378" lon="6.6350677"><ele>992.0</ele><time>2026-05-03T09:07:38.131Z</time></trkpt><trkpt lat="43.9345529" lon="6.6351883"><ele>986.25</ele><time>2026-05-03T09:07:39.131Z</time></trkpt><trkpt lat="43.9346568" lon="6.6353318"><ele>980.5</ele><time>2026-05-03T09:07:40.131Z</time></trkpt><trkpt lat="43.9347876" lon="6.6353464"><ele>974.75</ele><time>2026-05-03T09:07:41.131Z</time></trkpt><trkpt lat="43.9349338" lon="6.6353473"><ele>969.0</ele><time>2026-05-03T09:07:42.131Z</time></trkpt><trkpt lat="43.9350916" lon="6.6353282"><ele>969.0</ele><time>2026-05-03T09:07:43.131Z</time></trkpt><trkpt lat="43.9352312" lon="6.6353198"><ele>969.0</ele><time>2026-05-03T09:07:44.131Z</time></trkpt><trkpt lat="43.9353779" lon="6.6353415"><ele>969.0</ele><time>2026-05-03T09:07:45.131Z</time></trkpt><trkpt lat="43.9355198" lon="6.6353925"><ele>969.0</ele><time>2026-05-03T09:07:46.131Z</time></trkpt><trkpt lat="43.9356472" lon="6.6354716"><ele>969.0</ele><time>2026-05-03T09:07:47.131Z</time></trkpt><trkpt lat="43.9357783" lon="6.6355105"><ele>969.0</ele><time>2026-05-03T09:07:48.131Z</time></trkpt><trkpt lat="43.9359345" lon="6.6354712"><ele>969.0</ele><time>2026-05-03T09:07:49.131Z</time></trkpt><trkpt lat="43.9360786" lon="6.6354194"><ele>969.0</ele><time>2026-05-03T09:07:50.131Z</time></trkpt><trkpt lat="43.9362179" lon="6.6353787"><ele>970.2</ele><time>2026-05-03T09:07:51.131Z</time></trkpt><trkpt lat="43.9363355" lon="6.6353223"><ele>971.4000000000001</ele><time>2026-05-03T09:07:52.13Z</time></trkpt><trkpt lat="43.9364519" lon="6.6353163"><ele>972.6</ele><time>2026-05-03T09:07:53.131Z</time></trkpt><trkpt lat="43.9365466" lon="6.6353533"><ele>973.8</ele><time>2026-05-03T09:07:54.131Z</time></trkpt><trkpt lat="43.9366172" lon="6.6354644"><ele>975.0</ele><time>2026-05-03T09:07:55.131Z</time></trkpt><trkpt lat="43.9366825" lon="6.6355962"><ele>975.0</ele><time>2026-05-03T09:07:56.131Z</time></trkpt><trkpt lat="43.9367182" lon="6.6357405"><ele>975.0</ele><time>2026-05-03T09:07:57.131Z</time></trkpt><trkpt lat="43.9366659" lon="6.6358986"><ele>975.0</ele><time>2026-05-03T09:07:58.131Z</time></trkpt><trkpt lat="43.9366336" lon="6.6360436"><ele>975.0</ele><time>2026-05-03T09:07:59.131Z</time></trkpt><trkpt lat="43.9365051" lon="6.6361785"><ele>981.3333333333333</ele><time>2026-05-03T09:08:00.131Z</time></trkpt><trkpt lat="43.9363723" lon="6.6363074"><ele>987.6666666666666</ele><time>2026-05-03T09:08:01.13Z</time></trkpt><trkpt lat="43.936228" lon="6.6364499"><ele>994.0</ele><time>2026-05-03T09:08:02.131Z</time></trkpt><trkpt lat="43.9360839" lon="6.6365842"><ele>994.0</ele><time>2026-05-03T09:08:03.13Z</time></trkpt><trkpt lat="43.9359284" lon="6.6367222"><ele>994.0</ele><time>2026-05-03T09:08:04.131Z</time></trkpt><trkpt lat="43.9357735" lon="6.6368689"><ele>994.0</ele><time>2026-05-03T09:08:05.131Z</time></trkpt><trkpt lat="43.9356067" lon="6.6370066"><ele>996.6666666666666</ele><time>2026-05-03T09:08:06.13Z</time></trkpt><trkpt lat="43.9354396" lon="6.6371425"><ele>999.3333333333333</ele><time>2026-05-03T09:08:07.131Z</time></trkpt><trkpt lat="43.9352621" lon="6.6372665"><ele>1002.0</ele><time>2026-05-03T09:08:08.131Z</time></trkpt><trkpt lat="43.9350758" lon="6.6373686"><ele>991.3333333333333</ele><time>2026-05-03T09:08:09.13Z</time></trkpt><trkpt lat="43.9348919" lon="6.6374655"><ele>980.6666666666666</ele><time>2026-05-03T09:08:10.131Z</time></trkpt><trkpt lat="43.9347141" lon="6.6375546"><ele>970.0</ele><time>2026-05-03T09:08:11.13Z</time></trkpt><trkpt lat="43.9345319" lon="6.6376463"><ele>970.0</ele><time>2026-05-03T09:08:12.131Z</time></trkpt><trkpt lat="43.9343524" lon="6.6377402"><ele>970.0</ele><time>2026-05-03T09:08:13.13Z</time></trkpt><trkpt lat="43.9341781" lon="6.6378335"><ele>970.0</ele><time>2026-05-03T09:08:14.131Z</time></trkpt><trkpt lat="43.9340125" lon="6.6379331"><ele>972.3333333333333</ele><time>2026-05-03T09:08:15.131Z</time></trkpt><trkpt lat="43.9338489" lon="6.6380608"><ele>974.6666666666667</ele><time>2026-05-03T09:08:16.131Z</time></trkpt><trkpt lat="43.9336934" lon="6.6381814"><ele>977.0</ele><time>2026-05-03T09:08:17.13Z</time></trkpt><trkpt lat="43.9335477" lon="6.638313"><ele>975.3333333333334</ele><time>2026-05-03T09:08:18.13Z</time></trkpt><trkpt lat="43.9333887" lon="6.6384598"><ele>973.6666666666667</ele><time>2026-05-03T09:08:19.131Z</time></trkpt><trkpt lat="43.9332305" lon="6.6386383"><ele>972.0</ele><time>2026-05-03T09:08:20.131Z</time></trkpt><trkpt lat="43.9330853" lon="6.6388105"><ele>972.0</ele><time>2026-05-03T09:08:21.13Z</time></trkpt><trkpt lat="43.9329409" lon="6.6389961"><ele>972.0</ele><time>2026-05-03T09:08:22.131Z</time></trkpt><trkpt lat="43.9327965" lon="6.6391827"><ele>972.0</ele><time>2026-05-03T09:08:23.131Z</time></trkpt><trkpt lat="43.9326507" lon="6.6393574"><ele>967.0</ele><time>2026-05-03T09:08:24.131Z</time></trkpt><trkpt lat="43.9325106" lon="6.6395233"><ele>962.0</ele><time>2026-05-03T09:08:25.13Z</time></trkpt><trkpt lat="43.9323641" lon="6.6396921"><ele>957.0</ele><time>2026-05-03T09:08:26.131Z</time></trkpt><trkpt lat="43.9322563" lon="6.6399039"><ele>957.0</ele><time>2026-05-03T09:08:27.131Z</time></trkpt><trkpt lat="43.932157" lon="6.6401247"><ele>957.0</ele><time>2026-05-03T09:08:28.131Z</time></trkpt><trkpt lat="43.932065" lon="6.6403468"><ele>957.0</ele><time>2026-05-03T09:08:29.131Z</time></trkpt><trkpt lat="43.9319724" lon="6.6405721"><ele>957.0</ele><time>2026-05-03T09:08:30.131Z</time></trkpt><trkpt lat="43.9318898" lon="6.6407925"><ele>957.0</ele><time>2026-05-03T09:08:31.13Z</time></trkpt><trkpt lat="43.9318125" lon="6.6409862"><ele>957.0</ele><time>2026-05-03T09:08:32.131Z</time></trkpt><trkpt lat="43.9316716" lon="6.6411708"><ele>957.0</ele><time>2026-05-03T09:08:33.131Z</time></trkpt><trkpt lat="43.9315363" lon="6.6413343"><ele>957.0</ele><time>2026-05-03T09:08:34.13Z</time></trkpt><trkpt lat="43.9314185" lon="6.6414896"><ele>957.0</ele><time>2026-05-03T09:08:35.131Z</time></trkpt><trkpt lat="43.9313123" lon="6.6416395"><ele>957.0</ele><time>2026-05-03T09:08:36.131Z</time></trkpt><trkpt lat="43.9312176" lon="6.6417809"><ele>957.0</ele><time>2026-05-03T09:08:37.131Z</time></trkpt><trkpt lat="43.9311357" lon="6.6419493"><ele>957.0</ele><time>2026-05-03T09:08:38.13Z</time></trkpt><trkpt lat="43.9310775" lon="6.6421403"><ele>957.0</ele><time>2026-05-03T09:08:39.131Z</time></trkpt><trkpt lat="43.9310343" lon="6.6423416"><ele>950.3333333333333</ele><time>2026-05-03T09:08:40.131Z</time></trkpt><trkpt lat="43.9309884" lon="6.6425403"><ele>943.6666666666666</ele><time>2026-05-03T09:08:41.131Z</time></trkpt><trkpt lat="43.9308864" lon="6.6427178"><ele>937.0</ele><time>2026-05-03T09:08:42.131Z</time></trkpt><trkpt lat="43.9307695" lon="6.642866"><ele>937.0</ele><time>2026-05-03T09:08:43.13Z</time></trkpt><trkpt lat="43.9306412" lon="6.6429703"><ele>937.0</ele><time>2026-05-03T09:08:44.131Z</time></trkpt><trkpt lat="43.930521" lon="6.6430609"><ele>937.0</ele><time>2026-05-03T09:08:45.131Z</time></trkpt><trkpt lat="43.9304063" lon="6.6431538"><ele>937.0</ele><time>2026-05-03T09:08:46.131Z</time></trkpt><trkpt lat="43.9303371" lon="6.6432383"><ele>937.0</ele><time>2026-05-03T09:08:47.131Z</time></trkpt><trkpt lat="43.9303049" lon="6.6433643"><ele>937.0</ele><time>2026-05-03T09:08:48.131Z</time></trkpt><trkpt lat="43.930285" lon="6.6435025"><ele>937.0</ele><time>2026-05-03T09:08:49.131Z</time></trkpt><trkpt lat="43.9302905" lon="6.6436409"><ele>937.0</ele><time>2026-05-03T09:08:50.131Z</time></trkpt><trkpt lat="43.9303231" lon="6.643763"><ele>937.0</ele><time>2026-05-03T09:08:51.131Z</time></trkpt><trkpt lat="43.9304144" lon="6.6438381"><ele>931.75</ele><time>2026-05-03T09:08:52.131Z</time></trkpt><trkpt lat="43.9305187" lon="6.6438799"><ele>926.5</ele><time>2026-05-03T09:08:53.131Z</time></trkpt><trkpt lat="43.9306348" lon="6.643939"><ele>921.25</ele><time>2026-05-03T09:08:54.131Z</time></trkpt><trkpt lat="43.930744" lon="6.6439909"><ele>916.0</ele><time>2026-05-03T09:08:55.131Z</time></trkpt><trkpt lat="43.930866" lon="6.6440185"><ele>922.0</ele><time>2026-05-03T09:08:56.13Z</time></trkpt><trkpt lat="43.9310794" lon="6.6440575"><ele>928.0</ele><time>2026-05-03T09:08:57.131Z</time></trkpt><trkpt lat="43.9312537" lon="6.6441382"><ele>934.0</ele><time>2026-05-03T09:08:58.13Z</time></trkpt><trkpt lat="43.9314009" lon="6.6442561"><ele>934.0</ele><time>2026-05-03T09:08:59.131Z</time></trkpt><trkpt lat="43.9315358" lon="6.6443658"><ele>934.0</ele><time>2026-05-03T09:09:00.131Z</time></trkpt><trkpt lat="43.9316718" lon="6.6444653"><ele>934.0</ele><time>2026-05-03T09:09:01.13Z</time></trkpt><trkpt lat="43.9317786" lon="6.6446028"><ele>937.3333333333333</ele><time>2026-05-03T09:09:02.131Z</time></trkpt><trkpt lat="43.931881" lon="6.6447582"><ele>940.6666666666667</ele><time>2026-05-03T09:09:03.131Z</time></trkpt><trkpt lat="43.9319621" lon="6.644931"><ele>944.0</ele><time>2026-05-03T09:09:04.131Z</time></trkpt><trkpt lat="43.9320525" lon="6.6451353"><ele>938.0</ele><time>2026-05-03T09:09:05.131Z</time></trkpt><trkpt lat="43.9321492" lon="6.6453416"><ele>932.0</ele><time>2026-05-03T09:09:06.13Z</time></trkpt><trkpt lat="43.9322531" lon="6.6455159"><ele>926.0</ele><time>2026-05-03T09:09:07.131Z</time></trkpt><trkpt lat="43.9323408" lon="6.6457083"><ele>926.0</ele><time>2026-05-03T09:09:08.131Z</time></trkpt><trkpt lat="43.9324163" lon="6.6458989"><ele>926.0</ele><time>2026-05-03T09:09:09.131Z</time></trkpt><trkpt lat="43.9324911" lon="6.6460991"><ele>926.0</ele><time>2026-05-03T09:09:10.131Z</time></trkpt><trkpt lat="43.9325365" lon="6.6462929"><ele>924.75</ele><time>2026-05-03T09:09:11.131Z</time></trkpt><trkpt lat="43.9325826" lon="6.6464863"><ele>923.5</ele><time>2026-05-03T09:09:12.131Z</time></trkpt><trkpt lat="43.932565" lon="6.646693"><ele>922.25</ele><time>2026-05-03T09:09:13.131Z</time></trkpt><trkpt lat="43.9325402" lon="6.6468925"><ele>921.0</ele><time>2026-05-03T09:09:14.131Z</time></trkpt><trkpt lat="43.932502" lon="6.6471164"><ele>921.0</ele><time>2026-05-03T09:09:15.131Z</time></trkpt><trkpt lat="43.9324715" lon="6.6473563"><ele>921.0</ele><time>2026-05-03T09:09:16.131Z</time></trkpt><trkpt lat="43.9324264" lon="6.6475624"><ele>921.0</ele><time>2026-05-03T09:09:17.13Z</time></trkpt><trkpt lat="43.9323872" lon="6.6477803"><ele>918.0</ele><time>2026-05-03T09:09:18.131Z</time></trkpt><trkpt lat="43.9323603" lon="6.6479883"><ele>915.0</ele><time>2026-05-03T09:09:19.13Z</time></trkpt><trkpt lat="43.932367" lon="6.6482202"><ele>912.0</ele><time>2026-05-03T09:09:20.131Z</time></trkpt><trkpt lat="43.9323777" lon="6.6484632"><ele>908.6666666666667</ele><time>2026-05-03T09:09:21.131Z</time></trkpt><trkpt lat="43.9324281" lon="6.6486914"><ele>905.3333333333334</ele><time>2026-05-03T09:09:22.131Z</time></trkpt><trkpt lat="43.9324511" lon="6.6489244"><ele>902.0</ele><time>2026-05-03T09:09:23.131Z</time></trkpt><trkpt lat="43.9324956" lon="6.649131"><ele>902.0</ele><time>2026-05-03T09:09:24.13Z</time></trkpt><trkpt lat="43.9325489" lon="6.6493306"><ele>902.0</ele><time>2026-05-03T09:09:25.131Z</time></trkpt><trkpt lat="43.9326024" lon="6.6495324"><ele>902.0</ele><time>2026-05-03T09:09:26.131Z</time></trkpt><trkpt lat="43.9327065" lon="6.6497254"><ele>907.6666666666667</ele><time>2026-05-03T09:09:27.131Z</time></trkpt><trkpt lat="43.9328205" lon="6.6498674"><ele>913.3333333333333</ele><time>2026-05-03T09:09:28.131Z</time></trkpt><trkpt lat="43.9329499" lon="6.6499978"><ele>919.0</ele><time>2026-05-03T09:09:29.13Z</time></trkpt><trkpt lat="43.9330051" lon="6.6501829"><ele>916.5</ele><time>2026-05-03T09:09:30.13Z</time></trkpt><trkpt lat="43.9330337" lon="6.6503645"><ele>914.0</ele><time>2026-05-03T09:09:31.131Z</time></trkpt><trkpt lat="43.9330361" lon="6.6505587"><ele>911.5</ele><time>2026-05-03T09:09:32.131Z</time></trkpt><trkpt lat="43.9330201" lon="6.6507697"><ele>909.0</ele><time>2026-05-03T09:09:33.131Z</time></trkpt><trkpt lat="43.9329966" lon="6.6509618"><ele>915.6666666666667</ele><time>2026-05-03T09:09:34.131Z</time></trkpt><trkpt lat="43.9328647" lon="6.6512261"><ele>922.3333333333334</ele><time>2026-05-03T09:09:35.131Z</time></trkpt><trkpt lat="43.9327593" lon="6.6514637"><ele>929.0</ele><time>2026-05-03T09:09:36.13Z</time></trkpt><trkpt lat="43.9326518" lon="6.6517022"><ele>923.3333333333334</ele><time>2026-05-03T09:09:37.131Z</time></trkpt><trkpt lat="43.9325079" lon="6.6518962"><ele>917.6666666666667</ele><time>2026-05-03T09:09:38.131Z</time></trkpt><trkpt lat="43.9323824" lon="6.652099"><ele>912.0</ele><time>2026-05-03T09:09:39.131Z</time></trkpt><trkpt lat="43.9322539" lon="6.6523096"><ele>912.0</ele><time>2026-05-03T09:09:40.131Z</time></trkpt><trkpt lat="43.9321209" lon="6.6525101"><ele>912.0</ele><time>2026-05-03T09:09:41.131Z</time></trkpt><trkpt lat="43.9319974" lon="6.652719"><ele>912.0</ele><time>2026-05-03T09:09:42.131Z</time></trkpt><trkpt lat="43.9318908" lon="6.6529448"><ele>906.6666666666667</ele><time>2026-05-03T09:09:43.13Z</time></trkpt><trkpt lat="43.9317639" lon="6.6531483"><ele>901.3333333333334</ele><time>2026-05-03T09:09:44.131Z</time></trkpt><trkpt lat="43.9316646" lon="6.6533562"><ele>896.0</ele><time>2026-05-03T09:09:45.131Z</time></trkpt><trkpt lat="43.9315712" lon="6.6535702"><ele>902.0</ele><time>2026-05-03T09:09:46.131Z</time></trkpt><trkpt lat="43.9315032" lon="6.6537943"><ele>908.0</ele><time>2026-05-03T09:09:47.131Z</time></trkpt><trkpt lat="43.9314409" lon="6.6540225"><ele>914.0</ele><time>2026-05-03T09:09:48.131Z</time></trkpt><trkpt lat="43.9313909" lon="6.6542389"><ele>914.0</ele><time>2026-05-03T09:09:49.13Z</time></trkpt><trkpt lat="43.931274" lon="6.6543641"><ele>914.0</ele><time>2026-05-03T09:09:50.131Z</time></trkpt><trkpt lat="43.931162" lon="6.6545072"><ele>914.0</ele><time>2026-05-03T09:09:51.13Z</time></trkpt><trkpt lat="43.9310441" lon="6.6546399"><ele>910.75</ele><time>2026-05-03T09:09:52.131Z</time></trkpt><trkpt lat="43.9309613" lon="6.6547902"><ele>907.5</ele><time>2026-05-03T09:09:53.131Z</time></trkpt><trkpt lat="43.9308903" lon="6.6549618"><ele>904.25</ele><time>2026-05-03T09:09:54.131Z</time></trkpt><trkpt lat="43.9308164" lon="6.6551209"><ele>901.0</ele><time>2026-05-03T09:09:55.131Z</time></trkpt><trkpt lat="43.9308162" lon="6.6553609"><ele>901.0</ele><time>2026-05-03T09:09:56.13Z</time></trkpt><trkpt lat="43.9308029" lon="6.6555908"><ele>901.0</ele><time>2026-05-03T09:09:57.131Z</time></trkpt><trkpt lat="43.9307786" lon="6.6558309"><ele>901.0</ele><time>2026-05-03T09:09:58.131Z</time></trkpt><trkpt lat="43.930732" lon="6.6560655"><ele>905.6666666666666</ele><time>2026-05-03T09:09:59.131Z</time></trkpt><trkpt lat="43.9306868" lon="6.6562851"><ele>910.3333333333333</ele><time>2026-05-03T09:10:00.13Z</time></trkpt><trkpt lat="43.9306315" lon="6.6565081"><ele>915.0</ele><time>2026-05-03T09:10:01.131Z</time></trkpt><trkpt lat="43.9305806" lon="6.6567131"><ele>915.0</ele><time>2026-05-03T09:10:02.131Z</time></trkpt><trkpt lat="43.9305419" lon="6.6568994"><ele>915.0</ele><time>2026-05-03T09:10:03.131Z</time></trkpt><trkpt lat="43.9305259" lon="6.6571019"><ele>915.0</ele><time>2026-05-03T09:10:04.131Z</time></trkpt><trkpt lat="43.9305331" lon="6.6572978"><ele>915.0</ele><time>2026-05-03T09:10:05.131Z</time></trkpt><trkpt lat="43.9305879" lon="6.6574888"><ele>910.6666666666667</ele><time>2026-05-03T09:10:06.13Z</time></trkpt><trkpt lat="43.930616" lon="6.6576832"><ele>906.3333333333334</ele><time>2026-05-03T09:10:07.131Z</time></trkpt><trkpt lat="43.9306645" lon="6.657878"><ele>902.0</ele><time>2026-05-03T09:10:08.13Z</time></trkpt><trkpt lat="43.9308552" lon="6.6580404"><ele>903.3333333333334</ele><time>2026-05-03T09:10:09.131Z</time></trkpt><trkpt lat="43.9309748" lon="6.6581734"><ele>904.6666666666667</ele><time>2026-05-03T09:10:10.131Z</time></trkpt><trkpt lat="43.9310884" lon="6.6583228"><ele>906.0</ele><time>2026-05-03T09:10:11.131Z</time></trkpt><trkpt lat="43.9312257" lon="6.6583866"><ele>906.0</ele><time>2026-05-03T09:10:12.131Z</time></trkpt><trkpt lat="43.9313407" lon="6.6584416"><ele>906.0</ele><time>2026-05-03T09:10:13.131Z</time></trkpt><trkpt lat="43.9314618" lon="6.6584951"><ele>906.0</ele><time>2026-05-03T09:10:14.131Z</time></trkpt><trkpt lat="43.9315734" lon="6.6585653"><ele>906.0</ele><time>2026-05-03T09:10:15.131Z</time></trkpt><trkpt lat="43.9316433" lon="6.6586771"><ele>902.0</ele><time>2026-05-03T09:10:16.131Z</time></trkpt><trkpt lat="43.9316842" lon="6.6588266"><ele>898.0</ele><time>2026-05-03T09:10:17.131Z</time></trkpt><trkpt lat="43.9316707" lon="6.658997"><ele>894.0</ele><time>2026-05-03T09:10:18.131Z</time></trkpt><trkpt lat="43.931619" lon="6.6591923"><ele>890.0</ele><time>2026-05-03T09:10:19.131Z</time></trkpt><trkpt lat="43.9315643" lon="6.6593922"><ele>890.3333333333334</ele><time>2026-05-03T09:10:20.131Z</time></trkpt><trkpt lat="43.9314915" lon="6.6596127"><ele>890.6666666666667</ele><time>2026-05-03T09:10:21.131Z</time></trkpt><trkpt lat="43.93142" lon="6.6598231"><ele>891.0</ele><time>2026-05-03T09:10:22.131Z</time></trkpt><trkpt lat="43.9313407" lon="6.6600209"><ele>891.0</ele><time>2026-05-03T09:10:23.131Z</time></trkpt><trkpt lat="43.9312689" lon="6.660211"><ele>891.0</ele><time>2026-05-03T09:10:24.131Z</time></trkpt><trkpt lat="43.9312296" lon="6.6604064"><ele>891.0</ele><time>2026-05-03T09:10:25.131Z</time></trkpt><trkpt lat="43.9312148" lon="6.6606194"><ele>892.6666666666667</ele><time>2026-05-03T09:10:26.131Z</time></trkpt><trkpt lat="43.9312135" lon="6.6608221"><ele>894.3333333333334</ele><time>2026-05-03T09:10:27.13Z</time></trkpt><trkpt lat="43.9312878" lon="6.6610383"><ele>896.0</ele><time>2026-05-03T09:10:28.13Z</time></trkpt><trkpt lat="43.93136" lon="6.6612539"><ele>891.3333333333334</ele><time>2026-05-03T09:10:29.131Z</time></trkpt><trkpt lat="43.9314402" lon="6.6614668"><ele>886.6666666666667</ele><time>2026-05-03T09:10:30.131Z</time></trkpt><trkpt lat="43.9315106" lon="6.661676"><ele>882.0</ele><time>2026-05-03T09:10:31.131Z</time></trkpt><trkpt lat="43.9315853" lon="6.6618777"><ele>881.0</ele><time>2026-05-03T09:10:32.131Z</time></trkpt><trkpt lat="43.9316614" lon="6.6620751"><ele>880.0</ele><time>2026-05-03T09:10:33.13Z</time></trkpt><trkpt lat="43.9316834" lon="6.6622623"><ele>879.0</ele><time>2026-05-03T09:10:34.131Z</time></trkpt><trkpt lat="43.9316757" lon="6.6624465"><ele>878.0</ele><time>2026-05-03T09:10:35.13Z</time></trkpt><trkpt lat="43.9316556" lon="6.6626189"><ele>878.0</ele><time>2026-05-03T09:10:36.131Z</time></trkpt><trkpt lat="43.9316345" lon="6.662792"><ele>878.0</ele><time>2026-05-03T09:10:37.131Z</time></trkpt><trkpt lat="43.9315988" lon="6.6629483"><ele>878.0</ele><time>2026-05-03T09:10:38.131Z</time></trkpt><trkpt lat="43.9315779" lon="6.6631021"><ele>878.0</ele><time>2026-05-03T09:10:39.131Z</time></trkpt><trkpt lat="43.9315648" lon="6.6632588"><ele>878.0</ele><time>2026-05-03T09:10:40.131Z</time></trkpt><trkpt lat="43.931556" lon="6.6634173"><ele>878.0</ele><time>2026-05-03T09:10:41.131Z</time></trkpt><trkpt lat="43.931546" lon="6.663576"><ele>878.0</ele><time>2026-05-03T09:10:42.13Z</time></trkpt><trkpt lat="43.9315435" lon="6.6637237"><ele>878.0</ele><time>2026-05-03T09:10:43.13Z</time></trkpt><trkpt lat="43.9315486" lon="6.6638582"><ele>878.0</ele><time>2026-05-03T09:10:44.131Z</time></trkpt><trkpt lat="43.9315487" lon="6.6639966"><ele>878.4</ele><time>2026-05-03T09:10:45.131Z</time></trkpt><trkpt lat="43.931542" lon="6.6641249"><ele>878.8</ele><time>2026-05-03T09:10:46.13Z</time></trkpt><trkpt lat="43.9315242" lon="6.6642608"><ele>879.2</ele><time>2026-05-03T09:10:47.131Z</time></trkpt><trkpt lat="43.9315112" lon="6.6643799"><ele>879.6</ele><time>2026-05-03T09:10:48.131Z</time></trkpt><trkpt lat="43.9314795" lon="6.6645021"><ele>880.0</ele><time>2026-05-03T09:10:49.131Z</time></trkpt><trkpt lat="43.9314354" lon="6.6646269"><ele>880.3333333333333</ele><time>2026-05-03T09:10:50.13Z</time></trkpt><trkpt lat="43.9313886" lon="6.6647371"><ele>880.6666666666666</ele><time>2026-05-03T09:10:51.131Z</time></trkpt><trkpt lat="43.9313388" lon="6.6648526"><ele>881.0</ele><time>2026-05-03T09:10:52.131Z</time></trkpt><trkpt lat="43.9312873" lon="6.6649518"><ele>881.3333333333333</ele><time>2026-05-03T09:10:53.131Z</time></trkpt><trkpt lat="43.9312444" lon="6.6650466"><ele>881.6666666666666</ele><time>2026-05-03T09:10:54.131Z</time></trkpt><trkpt lat="43.9311971" lon="6.6651488"><ele>882.0</ele><time>2026-05-03T09:10:55.131Z</time></trkpt><trkpt lat="43.9311568" lon="6.6652528"><ele>880.3333333333334</ele><time>2026-05-03T09:10:56.131Z</time></trkpt><trkpt lat="43.9311344" lon="6.6653739"><ele>878.6666666666667</ele><time>2026-05-03T09:10:57.131Z</time></trkpt><trkpt lat="43.9311668" lon="6.6654938"><ele>877.0</ele><time>2026-05-03T09:10:58.131Z</time></trkpt><trkpt lat="43.9311788" lon="6.6656018"><ele>875.3333333333334</ele><time>2026-05-03T09:10:59.13Z</time></trkpt><trkpt lat="43.9312212" lon="6.6657083"><ele>873.6666666666667</ele><time>2026-05-03T09:11:00.131Z</time></trkpt><trkpt lat="43.9312965" lon="6.665795"><ele>872.0</ele><time>2026-05-03T09:11:01.131Z</time></trkpt><trkpt lat="43.9313754" lon="6.6658713"><ele>872.0</ele><time>2026-05-03T09:11:02.131Z</time></trkpt><trkpt lat="43.9314739" lon="6.6658941"><ele>872.0</ele><time>2026-05-03T09:11:03.131Z</time></trkpt><trkpt lat="43.931593" lon="6.6658896"><ele>872.0</ele><time>2026-05-03T09:11:04.131Z</time></trkpt><trkpt lat="43.9316856" lon="6.665891"><ele>872.0</ele><time>2026-05-03T09:11:05.131Z</time></trkpt><trkpt lat="43.9318115" lon="6.6658472"><ele>872.0</ele><time>2026-05-03T09:11:06.131Z</time></trkpt><trkpt lat="43.9319211" lon="6.6658319"><ele>873.4000000000001</ele><time>2026-05-03T09:11:07.13Z</time></trkpt><trkpt lat="43.9320328" lon="6.6658346"><ele>874.8000000000001</ele><time>2026-05-03T09:11:08.13Z</time></trkpt><trkpt lat="43.9321268" lon="6.6658594"><ele>876.2</ele><time>2026-05-03T09:11:09.131Z</time></trkpt><trkpt lat="43.9321836" lon="6.665948"><ele>877.6</ele><time>2026-05-03T09:11:10.131Z</time></trkpt><trkpt lat="43.9322453" lon="6.6660422"><ele>879.0</ele><time>2026-05-03T09:11:11.131Z</time></trkpt><trkpt lat="43.9322729" lon="6.6661499"><ele>879.0</ele><time>2026-05-03T09:11:12.131Z</time></trkpt><trkpt lat="43.9322089" lon="6.6663255"><ele>879.0</ele><time>2026-05-03T09:11:13.131Z</time></trkpt><trkpt lat="43.9321625" lon="6.6664704"><ele>879.0</ele><time>2026-05-03T09:11:14.131Z</time></trkpt><trkpt lat="43.9321428" lon="6.6666354"><ele>879.0</ele><time>2026-05-03T09:11:15.131Z</time></trkpt><trkpt lat="43.9321105" lon="6.666824"><ele>879.25</ele><time>2026-05-03T09:11:16.131Z</time></trkpt><trkpt lat="43.9320891" lon="6.6670087"><ele>879.5</ele><time>2026-05-03T09:11:17.131Z</time></trkpt><trkpt lat="43.9320655" lon="6.6671656"><ele>879.75</ele><time>2026-05-03T09:11:18.131Z</time></trkpt><trkpt lat="43.9320419" lon="6.6673206"><ele>880.0</ele><time>2026-05-03T09:11:19.131Z</time></trkpt><trkpt lat="43.9320331" lon="6.6674692"><ele>880.0</ele><time>2026-05-03T09:11:20.131Z</time></trkpt><trkpt lat="43.9320193" lon="6.6676332"><ele>880.0</ele><time>2026-05-03T09:11:21.131Z</time></trkpt><trkpt lat="43.9320488" lon="6.6677968"><ele>880.0</ele><time>2026-05-03T09:11:22.131Z</time></trkpt><trkpt lat="43.9320965" lon="6.6679608"><ele>880.0</ele><time>2026-05-03T09:11:23.13Z</time></trkpt><trkpt lat="43.9321452" lon="6.6681061"><ele>877.3333333333333</ele><time>2026-05-03T09:11:24.13Z</time></trkpt><trkpt lat="43.9321868" lon="6.668236"><ele>874.6666666666666</ele><time>2026-05-03T09:11:25.131Z</time></trkpt><trkpt lat="43.9322263" lon="6.6683438"><ele>872.0</ele><time>2026-05-03T09:11:26.131Z</time></trkpt><trkpt lat="43.9322456" lon="6.6684418"><ele>869.3333333333333</ele><time>2026-05-03T09:11:27.131Z</time></trkpt><trkpt lat="43.9322788" lon="6.668561"><ele>866.6666666666666</ele><time>2026-05-03T09:11:29.131Z</time></trkpt><trkpt lat="43.9323241" lon="6.6686341"><ele>864.0</ele><time>2026-05-03T09:11:31.131Z</time></trkpt><trkpt lat="43.9323887" lon="6.6686617"><ele>863.8000000000001</ele><time>2026-05-03T09:12:08.131Z</time></trkpt><trkpt lat="43.932489" lon="6.6687393"><ele>863.6000000000001</ele><time>2026-05-03T09:12:09.131Z</time></trkpt><trkpt lat="43.9325549" lon="6.6687799"><ele>863.4</ele><time>2026-05-03T09:12:10.131Z</time></trkpt><trkpt lat="43.9326372" lon="6.6688272"><ele>863.2</ele><time>2026-05-03T09:12:11.131Z</time></trkpt><trkpt lat="43.9327467" lon="6.6689157"><ele>863.0</ele><time>2026-05-03T09:12:12.131Z</time></trkpt><trkpt lat="43.9328478" lon="6.6690045"><ele>863.0</ele><time>2026-05-03T09:12:13.13Z</time></trkpt><trkpt lat="43.9329263" lon="6.6691566"><ele>863.0</ele><time>2026-05-03T09:12:14.131Z</time></trkpt><trkpt lat="43.9329826" lon="6.6693111"><ele>863.0</ele><time>2026-05-03T09:12:15.131Z</time></trkpt><trkpt lat="43.9329927" lon="6.6694677"><ele>863.0</ele><time>2026-05-03T09:12:16.131Z</time></trkpt><trkpt lat="43.9330232" lon="6.6696033"><ele>865.5999999999999</ele><time>2026-05-03T09:12:17.131Z</time></trkpt><trkpt lat="43.9330645" lon="6.6697322"><ele>868.1999999999999</ele><time>2026-05-03T09:12:18.13Z</time></trkpt><trkpt lat="43.9331194" lon="6.6698321"><ele>870.8</ele><time>2026-05-03T09:12:19.131Z</time></trkpt><trkpt lat="43.9332283" lon="6.6698778"><ele>873.4</ele><time>2026-05-03T09:12:20.131Z</time></trkpt><trkpt lat="43.933335" lon="6.6699128"><ele>876.0</ele><time>2026-05-03T09:12:21.13Z</time></trkpt><trkpt lat="43.9334406" lon="6.6699504"><ele>876.0</ele><time>2026-05-03T09:12:22.131Z</time></trkpt><trkpt lat="43.9335333" lon="6.6699987"><ele>875.9999999999999</ele><time>2026-05-03T09:12:23.131Z</time></trkpt><trkpt lat="43.9335925" lon="6.6701166"><ele>875.9999999999999</ele><time>2026-05-03T09:12:24.131Z</time></trkpt><trkpt lat="43.9336239" lon="6.670252"><ele>876.0</ele><time>2026-05-03T09:12:25.131Z</time></trkpt><trkpt lat="43.9336149" lon="6.6703979"><ele>876.0</ele><time>2026-05-03T09:12:26.13Z</time></trkpt><trkpt lat="43.9335741" lon="6.6705484"><ele>871.5</ele><time>2026-05-03T09:12:27.131Z</time></trkpt><trkpt lat="43.9335549" lon="6.6707163"><ele>867.0</ele><time>2026-05-03T09:12:28.131Z</time></trkpt><trkpt lat="43.9335558" lon="6.6708863"><ele>862.5</ele><time>2026-05-03T09:12:29.131Z</time></trkpt><trkpt lat="43.9335848" lon="6.6710455"><ele>858.0</ele><time>2026-05-03T09:12:30.131Z</time></trkpt><trkpt lat="43.9336659" lon="6.6711859"><ele>852.75</ele><time>2026-05-03T09:12:31.131Z</time></trkpt><trkpt lat="43.9337452" lon="6.6713078"><ele>847.5</ele><time>2026-05-03T09:12:32.131Z</time></trkpt><trkpt lat="43.9338473" lon="6.6713908"><ele>842.25</ele><time>2026-05-03T09:12:33.131Z</time></trkpt><trkpt lat="43.9339809" lon="6.6714663"><ele>837.0</ele><time>2026-05-03T09:12:34.131Z</time></trkpt><trkpt lat="43.9340735" lon="6.671584"><ele>837.0</ele><time>2026-05-03T09:12:35.13Z</time></trkpt><trkpt lat="43.934153" lon="6.6717486"><ele>837.0</ele><time>2026-05-03T09:12:36.131Z</time></trkpt><trkpt lat="43.9342132" lon="6.6719115"><ele>837.0</ele><time>2026-05-03T09:12:37.131Z</time></trkpt><trkpt lat="43.9342846" lon="6.6721008"><ele>837.0</ele><time>2026-05-03T09:12:38.131Z</time></trkpt><trkpt lat="43.9343761" lon="6.6722826"><ele>838.3333333333333</ele><time>2026-05-03T09:12:39.131Z</time></trkpt><trkpt lat="43.9344848" lon="6.6724758"><ele>839.6666666666666</ele><time>2026-05-03T09:12:40.131Z</time></trkpt><trkpt lat="43.9346058" lon="6.6726611"><ele>841.0</ele><time>2026-05-03T09:12:41.13Z</time></trkpt><trkpt lat="43.9347074" lon="6.6728727"><ele>841.0</ele><time>2026-05-03T09:12:42.131Z</time></trkpt><trkpt lat="43.9347997" lon="6.6730848"><ele>841.0</ele><time>2026-05-03T09:12:43.131Z</time></trkpt><trkpt lat="43.9348699" lon="6.6733314"><ele>841.0</ele><time>2026-05-03T09:12:44.131Z</time></trkpt><trkpt lat="43.9349375" lon="6.6735633"><ele>834.6666666666666</ele><time>2026-05-03T09:12:45.131Z</time></trkpt><trkpt lat="43.9350013" lon="6.6737967"><ele>828.3333333333333</ele><time>2026-05-03T09:12:46.131Z</time></trkpt><trkpt lat="43.9350767" lon="6.6740285"><ele>822.0</ele><time>2026-05-03T09:12:47.13Z</time></trkpt><trkpt lat="43.9351296" lon="6.6742622"><ele>837.3333333333333</ele><time>2026-05-03T09:12:48.131Z</time></trkpt><trkpt lat="43.9351784" lon="6.6744976"><ele>852.6666666666666</ele><time>2026-05-03T09:12:49.13Z</time></trkpt><trkpt lat="43.9352064" lon="6.6747383"><ele>868.0</ele><time>2026-05-03T09:12:50.131Z</time></trkpt><trkpt lat="43.9352293" lon="6.6749911"><ele>868.0</ele><time>2026-05-03T09:12:51.131Z</time></trkpt><trkpt lat="43.9352367" lon="6.6752117"><ele>868.0</ele><time>2026-05-03T09:12:52.131Z</time></trkpt><trkpt lat="43.935226" lon="6.6754192"><ele>868.0</ele><time>2026-05-03T09:12:53.131Z</time></trkpt><trkpt lat="43.9351961" lon="6.6756087"><ele>868.0</ele><time>2026-05-03T09:12:54.13Z</time></trkpt><trkpt lat="43.9351798" lon="6.6758007"><ele>867.25</ele><time>2026-05-03T09:12:55.131Z</time></trkpt><trkpt lat="43.9351769" lon="6.6759807"><ele>866.5</ele><time>2026-05-03T09:12:56.131Z</time></trkpt><trkpt lat="43.9351866" lon="6.676159"><ele>865.75</ele><time>2026-05-03T09:12:57.131Z</time></trkpt><trkpt lat="43.9352959" lon="6.6763004"><ele>865.0</ele><time>2026-05-03T09:12:58.13Z</time></trkpt><trkpt lat="43.9353499" lon="6.6764599"><ele>864.25</ele><time>2026-05-03T09:12:59.131Z</time></trkpt><trkpt lat="43.9353745" lon="6.6766151"><ele>863.5</ele><time>2026-05-03T09:13:00.131Z</time></trkpt><trkpt lat="43.9353808" lon="6.6768033"><ele>862.75</ele><time>2026-05-03T09:13:01.131Z</time></trkpt><trkpt lat="43.9353982" lon="6.6769783"><ele>862.0</ele><time>2026-05-03T09:13:02.131Z</time></trkpt><trkpt lat="43.9354274" lon="6.6771519"><ele>851.75</ele><time>2026-05-03T09:13:03.131Z</time></trkpt><trkpt lat="43.9354367" lon="6.6773114"><ele>841.5</ele><time>2026-05-03T09:13:04.131Z</time></trkpt><trkpt lat="43.9355129" lon="6.6774385"><ele>831.25</ele><time>2026-05-03T09:13:05.13Z</time></trkpt><trkpt lat="43.9355789" lon="6.677573"><ele>821.0</ele><time>2026-05-03T09:13:06.131Z</time></trkpt><trkpt lat="43.9356601" lon="6.6777163"><ele>822.6666666666667</ele><time>2026-05-03T09:13:07.131Z</time></trkpt><trkpt lat="43.9357733" lon="6.6778732"><ele>824.3333333333333</ele><time>2026-05-03T09:13:08.131Z</time></trkpt><trkpt lat="43.9359774" lon="6.6779755"><ele>826.0</ele><time>2026-05-03T09:13:09.131Z</time></trkpt><trkpt lat="43.9361429" lon="6.6780789"><ele>826.0</ele><time>2026-05-03T09:13:10.131Z</time></trkpt><trkpt lat="43.9363132" lon="6.6781737"><ele>826.0</ele><time>2026-05-03T09:13:11.131Z</time></trkpt><trkpt lat="43.9364542" lon="6.6782523"><ele>826.0</ele><time>2026-05-03T09:13:12.131Z</time></trkpt><trkpt lat="43.9365636" lon="6.6783243"><ele>826.0</ele><time>2026-05-03T09:13:13.131Z</time></trkpt><trkpt lat="43.9366751" lon="6.678398"><ele>826.0</ele><time>2026-05-03T09:13:14.131Z</time></trkpt><trkpt lat="43.9367374" lon="6.6784735"><ele>826.0</ele><time>2026-05-03T09:13:15.13Z</time></trkpt><trkpt lat="43.9367521" lon="6.6786227"><ele>826.0</ele><time>2026-05-03T09:13:16.131Z</time></trkpt><trkpt lat="43.9367495" lon="6.6787621"><ele>826.0</ele><time>2026-05-03T09:13:17.131Z</time></trkpt><trkpt lat="43.936741" lon="6.6789277"><ele>835.6666666666666</ele><time>2026-05-03T09:13:18.131Z</time></trkpt><trkpt lat="43.9367471" lon="6.6791098"><ele>845.3333333333333</ele><time>2026-05-03T09:13:19.13Z</time></trkpt><trkpt lat="43.9367491" lon="6.6793066"><ele>855.0</ele><time>2026-05-03T09:13:20.131Z</time></trkpt><trkpt lat="43.9368012" lon="6.6795656"><ele>855.0</ele><time>2026-05-03T09:13:21.131Z</time></trkpt><trkpt lat="43.9368389" lon="6.6798006"><ele>855.0</ele><time>2026-05-03T09:13:22.13Z</time></trkpt><trkpt lat="43.9368653" lon="6.6800549"><ele>855.0</ele><time>2026-05-03T09:13:23.131Z</time></trkpt><trkpt lat="43.936885" lon="6.6802898"><ele>853.0</ele><time>2026-05-03T09:13:24.131Z</time></trkpt><trkpt lat="43.9368837" lon="6.680537"><ele>851.0</ele><time>2026-05-03T09:13:25.13Z</time></trkpt><trkpt lat="43.9369067" lon="6.6807505"><ele>849.0</ele><time>2026-05-03T09:13:26.131Z</time></trkpt><trkpt lat="43.9369367" lon="6.6809516"><ele>843.0</ele><time>2026-05-03T09:13:27.131Z</time></trkpt><trkpt lat="43.9369859" lon="6.6811382"><ele>837.0</ele><time>2026-05-03T09:13:28.131Z</time></trkpt><trkpt lat="43.9370446" lon="6.6813096"><ele>831.0</ele><time>2026-05-03T09:13:29.131Z</time></trkpt><trkpt lat="43.9370919" lon="6.6814782"><ele>825.0</ele><time>2026-05-03T09:13:30.131Z</time></trkpt><trkpt lat="43.9371037" lon="6.6816457"><ele>825.0</ele><time>2026-05-03T09:13:31.131Z</time></trkpt><trkpt lat="43.9371145" lon="6.6818094"><ele>825.0</ele><time>2026-05-03T09:13:32.13Z</time></trkpt><trkpt lat="43.9371398" lon="6.6819489"><ele>825.0</ele><time>2026-05-03T09:13:33.13Z</time></trkpt><trkpt lat="43.937235" lon="6.6820619"><ele>825.0</ele><time>2026-05-03T09:13:34.131Z</time></trkpt><trkpt lat="43.9373183" lon="6.6821793"><ele>821.0</ele><time>2026-05-03T09:13:35.131Z</time></trkpt><trkpt lat="43.9373967" lon="6.682316"><ele>817.0</ele><time>2026-05-03T09:13:36.131Z</time></trkpt><trkpt lat="43.9374461" lon="6.6824788"><ele>813.0</ele><time>2026-05-03T09:13:37.13Z</time></trkpt><trkpt lat="43.9374681" lon="6.6826804"><ele>809.0</ele><time>2026-05-03T09:13:38.131Z</time></trkpt><trkpt lat="43.9374787" lon="6.6828944"><ele>807.6666666666667</ele><time>2026-05-03T09:13:39.13Z</time></trkpt><trkpt lat="43.9374872" lon="6.6831187"><ele>806.3333333333333</ele><time>2026-05-03T09:13:40.131Z</time></trkpt><trkpt lat="43.937483" lon="6.6833268"><ele>805.0</ele><time>2026-05-03T09:13:41.131Z</time></trkpt><trkpt lat="43.9374848" lon="6.6835497"><ele>797.25</ele><time>2026-05-03T09:13:42.131Z</time></trkpt><trkpt lat="43.9374806" lon="6.6837488"><ele>789.5</ele><time>2026-05-03T09:13:43.131Z</time></trkpt><trkpt lat="43.9374895" lon="6.68393"><ele>781.75</ele><time>2026-05-03T09:13:44.13Z</time></trkpt><trkpt lat="43.9375076" lon="6.6841092"><ele>774.0</ele><time>2026-05-03T09:13:45.13Z</time></trkpt><trkpt lat="43.9375418" lon="6.684249"><ele>785.8000000000001</ele><time>2026-05-03T09:13:46.131Z</time></trkpt><trkpt lat="43.9376107" lon="6.6843778"><ele>797.6</ele><time>2026-05-03T09:13:47.131Z</time></trkpt><trkpt lat="43.9376716" lon="6.6845303"><ele>809.4</ele><time>2026-05-03T09:13:48.131Z</time></trkpt><trkpt lat="43.9376787" lon="6.6846744"><ele>821.2</ele><time>2026-05-03T09:13:49.131Z</time></trkpt><trkpt lat="43.937666" lon="6.6848128"><ele>833.0</ele><time>2026-05-03T09:13:50.131Z</time></trkpt><trkpt lat="43.9376684" lon="6.6849939"><ele>833.0</ele><time>2026-05-03T09:13:51.131Z</time></trkpt><trkpt lat="43.9377032" lon="6.6851541"><ele>833.0</ele><time>2026-05-03T09:13:52.131Z</time></trkpt><trkpt lat="43.9377705" lon="6.6853389"><ele>833.0</ele><time>2026-05-03T09:13:53.131Z</time></trkpt><trkpt lat="43.9377953" lon="6.6855128"><ele>833.0</ele><time>2026-05-03T09:13:54.13Z</time></trkpt><trkpt lat="43.9377951" lon="6.6856769"><ele>827.75</ele><time>2026-05-03T09:13:55.131Z</time></trkpt><trkpt lat="43.9377533" lon="6.685839"><ele>822.5</ele><time>2026-05-03T09:13:56.131Z</time></trkpt><trkpt lat="43.9377093" lon="6.6860032"><ele>817.25</ele><time>2026-05-03T09:13:57.131Z</time></trkpt><trkpt lat="43.9376821" lon="6.6861935"><ele>812.0</ele><time>2026-05-03T09:13:58.13Z</time></trkpt><trkpt lat="43.9376493" lon="6.686351"><ele>807.8</ele><time>2026-05-03T09:13:59.131Z</time></trkpt><trkpt lat="43.9375938" lon="6.6865142"><ele>803.6</ele><time>2026-05-03T09:14:00.131Z</time></trkpt><trkpt lat="43.9375592" lon="6.6866614"><ele>799.4</ele><time>2026-05-03T09:14:01.131Z</time></trkpt><trkpt lat="43.9375487" lon="6.6867909"><ele>795.1999999999999</ele><time>2026-05-03T09:14:02.131Z</time></trkpt><trkpt lat="43.9375466" lon="6.6869267"><ele>791.0</ele><time>2026-05-03T09:14:03.131Z</time></trkpt><trkpt lat="43.9375683" lon="6.6870485"><ele>784.0</ele><time>2026-05-03T09:14:04.131Z</time></trkpt><trkpt lat="43.9376664" lon="6.6871167"><ele>777.0</ele><time>2026-05-03T09:14:05.131Z</time></trkpt><trkpt lat="43.9377777" lon="6.6871692"><ele>770.0</ele><time>2026-05-03T09:14:06.131Z</time></trkpt><trkpt lat="43.9379542" lon="6.6871764"><ele>763.0</ele><time>2026-05-03T09:14:07.131Z</time></trkpt><trkpt lat="43.938083" lon="6.687211"><ele>763.0</ele><time>2026-05-03T09:14:08.131Z</time></trkpt><trkpt lat="43.9382475" lon="6.6872095"><ele>763.0</ele><time>2026-05-03T09:14:09.131Z</time></trkpt><trkpt lat="43.9384018" lon="6.6872402"><ele>763.0</ele><time>2026-05-03T09:14:10.131Z</time></trkpt><trkpt lat="43.9385609" lon="6.687287"><ele>766.25</ele><time>2026-05-03T09:14:11.131Z</time></trkpt><trkpt lat="43.9387117" lon="6.6873229"><ele>769.5</ele><time>2026-05-03T09:14:12.131Z</time></trkpt><trkpt lat="43.9388576" lon="6.6873704"><ele>772.75</ele><time>2026-05-03T09:14:13.131Z</time></trkpt><trkpt lat="43.9389868" lon="6.6874495"><ele>776.0</ele><time>2026-05-03T09:14:14.131Z</time></trkpt><trkpt lat="43.9391078" lon="6.6875501"><ele>772.3333333333334</ele><time>2026-05-03T09:14:15.131Z</time></trkpt><trkpt lat="43.9392351" lon="6.6876903"><ele>768.6666666666667</ele><time>2026-05-03T09:14:16.131Z</time></trkpt><trkpt lat="43.9393635" lon="6.68782"><ele>765.0</ele><time>2026-05-03T09:14:17.131Z</time></trkpt><trkpt lat="43.9394911" lon="6.6879422"><ele>765.0</ele><time>2026-05-03T09:14:18.131Z</time></trkpt><trkpt lat="43.9396014" lon="6.6880692"><ele>765.0</ele><time>2026-05-03T09:14:19.13Z</time></trkpt><trkpt lat="43.9396634" lon="6.6881996"><ele>765.0</ele><time>2026-05-03T09:14:20.13Z</time></trkpt><trkpt lat="43.9397672" lon="6.6883086"><ele>765.0</ele><time>2026-05-03T09:14:21.131Z</time></trkpt><trkpt lat="43.9398553" lon="6.688351"><ele>765.0000000000001</ele><time>2026-05-03T09:14:22.131Z</time></trkpt><trkpt lat="43.9399117" lon="6.6883934"><ele>765.0</ele><time>2026-05-03T09:14:23.131Z</time></trkpt><trkpt lat="43.9399927" lon="6.6884454"><ele>765.0</ele><time>2026-05-03T09:14:24.131Z</time></trkpt><trkpt lat="43.9399921" lon="6.6885428"><ele>765.0</ele><time>2026-05-03T09:14:25.131Z</time></trkpt><trkpt lat="43.9400021" lon="6.6886361"><ele>765.0</ele><time>2026-05-03T09:14:26.131Z</time></trkpt><trkpt lat="43.9399998" lon="6.6887413"><ele>765.0000000000001</ele><time>2026-05-03T09:14:27.131Z</time></trkpt><trkpt lat="43.94" lon="6.6888337"><ele>765.0</ele><time>2026-05-03T09:14:28.131Z</time></trkpt><trkpt lat="43.9400066" lon="6.688927"><ele>767.6</ele><time>2026-05-03T09:14:29.131Z</time></trkpt><trkpt lat="43.9400175" lon="6.6890266"><ele>770.2</ele><time>2026-05-03T09:14:30.131Z</time></trkpt><trkpt lat="43.9400814" lon="6.6890816"><ele>772.8</ele><time>2026-05-03T09:14:31.131Z</time></trkpt><trkpt lat="43.9401579" lon="6.6891352"><ele>775.4</ele><time>2026-05-03T09:14:32.131Z</time></trkpt><trkpt lat="43.9402392" lon="6.6892063"><ele>778.0</ele><time>2026-05-03T09:14:33.131Z</time></trkpt><trkpt lat="43.9403436" lon="6.6892907"><ele>771.5</ele><time>2026-05-03T09:14:34.131Z</time></trkpt><trkpt lat="43.9404507" lon="6.6893595"><ele>765.0</ele><time>2026-05-03T09:14:35.13Z</time></trkpt><trkpt lat="43.9405693" lon="6.6893942"><ele>758.5</ele><time>2026-05-03T09:14:36.131Z</time></trkpt><trkpt lat="43.9406931" lon="6.6894071"><ele>752.0</ele><time>2026-05-03T09:14:37.131Z</time></trkpt><trkpt lat="43.940819" lon="6.6894045"><ele>750.25</ele><time>2026-05-03T09:14:38.131Z</time></trkpt><trkpt lat="43.9409284" lon="6.6894181"><ele>748.5</ele><time>2026-05-03T09:14:39.131Z</time></trkpt><trkpt lat="43.9410609" lon="6.6894975"><ele>746.75</ele><time>2026-05-03T09:14:40.131Z</time></trkpt><trkpt lat="43.9411583" lon="6.6895663"><ele>745.0</ele><time>2026-05-03T09:14:41.131Z</time></trkpt><trkpt lat="43.9412613" lon="6.6896598"><ele>745.0</ele><time>2026-05-03T09:14:42.131Z</time></trkpt><trkpt lat="43.941353" lon="6.6897241"><ele>745.0</ele><time>2026-05-03T09:14:43.131Z</time></trkpt><trkpt lat="43.9414969" lon="6.6898353"><ele>745.0</ele><time>2026-05-03T09:14:44.13Z</time></trkpt><trkpt lat="43.941618" lon="6.6899088"><ele>745.0</ele><time>2026-05-03T09:14:45.131Z</time></trkpt><trkpt lat="43.941748" lon="6.689944"><ele>745.5</ele><time>2026-05-03T09:14:46.131Z</time></trkpt><trkpt lat="43.9418944" lon="6.6899589"><ele>746.0</ele><time>2026-05-03T09:14:47.13Z</time></trkpt><trkpt lat="43.9420209" lon="6.6899235"><ele>746.5</ele><time>2026-05-03T09:14:48.131Z</time></trkpt><trkpt lat="43.9421501" lon="6.6898656"><ele>747.0</ele><time>2026-05-03T09:14:49.13Z</time></trkpt><trkpt lat="43.9422731" lon="6.6898081"><ele>747.0</ele><time>2026-05-03T09:14:50.131Z</time></trkpt><trkpt lat="43.9424117" lon="6.689783"><ele>747.0</ele><time>2026-05-03T09:14:51.131Z</time></trkpt><trkpt lat="43.9425588" lon="6.6897906"><ele>747.0</ele><time>2026-05-03T09:14:52.131Z</time></trkpt><trkpt lat="43.9427016" lon="6.689813"><ele>747.0</ele><time>2026-05-03T09:14:53.131Z</time></trkpt><trkpt lat="43.9428418" lon="6.6898699"><ele>751.3333333333334</ele><time>2026-05-03T09:14:54.131Z</time></trkpt><trkpt lat="43.9430145" lon="6.6899755"><ele>755.6666666666667</ele><time>2026-05-03T09:14:55.131Z</time></trkpt><trkpt lat="43.9431613" lon="6.6901332"><ele>760.0</ele><time>2026-05-03T09:14:56.131Z</time></trkpt><trkpt lat="43.9433023" lon="6.6902708"><ele>751.0</ele><time>2026-05-03T09:14:57.13Z</time></trkpt><trkpt lat="43.9434605" lon="6.6903584"><ele>742.0</ele><time>2026-05-03T09:14:58.131Z</time></trkpt><trkpt lat="43.943627" lon="6.6904339"><ele>733.0</ele><time>2026-05-03T09:14:59.131Z</time></trkpt><trkpt lat="43.9438004" lon="6.6904688"><ele>733.0</ele><time>2026-05-03T09:15:00.131Z</time></trkpt><trkpt lat="43.9439639" lon="6.6905024"><ele>733.0</ele><time>2026-05-03T09:15:01.131Z</time></trkpt><trkpt lat="43.9441158" lon="6.6905276"><ele>733.0</ele><time>2026-05-03T09:15:02.131Z</time></trkpt><trkpt lat="43.9442533" lon="6.6905356"><ele>733.0</ele><time>2026-05-03T09:15:03.13Z</time></trkpt><trkpt lat="43.9443788" lon="6.690499"><ele>733.0</ele><time>2026-05-03T09:15:04.131Z</time></trkpt><trkpt lat="43.9445008" lon="6.6904091"><ele>733.0</ele><time>2026-05-03T09:15:05.131Z</time></trkpt><trkpt lat="43.9446104" lon="6.6902698"><ele>733.0</ele><time>2026-05-03T09:15:06.13Z</time></trkpt><trkpt lat="43.9446919" lon="6.690099"><ele>733.0</ele><time>2026-05-03T09:15:07.131Z</time></trkpt><trkpt lat="43.9447666" lon="6.6899288"><ele>733.0</ele><time>2026-05-03T09:15:08.131Z</time></trkpt><trkpt lat="43.9448445" lon="6.6897605"><ele>733.0</ele><time>2026-05-03T09:15:09.131Z</time></trkpt><trkpt lat="43.9449342" lon="6.6895987"><ele>733.0</ele><time>2026-05-03T09:15:10.131Z</time></trkpt><trkpt lat="43.9450541" lon="6.6895025"><ele>735.0</ele><time>2026-05-03T09:15:11.131Z</time></trkpt><trkpt lat="43.945223" lon="6.6894462"><ele>737.0</ele><time>2026-05-03T09:15:12.13Z</time></trkpt><trkpt lat="43.9453998" lon="6.6894035"><ele>739.0</ele><time>2026-05-03T09:15:13.13Z</time></trkpt><trkpt lat="43.9455333" lon="6.6894385"><ele>739.0</ele><time>2026-05-03T09:15:14.131Z</time></trkpt><trkpt lat="43.9457276" lon="6.6895169"><ele>739.0</ele><time>2026-05-03T09:15:15.131Z</time></trkpt><trkpt lat="43.9459085" lon="6.6895571"><ele>739.0</ele><time>2026-05-03T09:15:16.131Z</time></trkpt><trkpt lat="43.9460968" lon="6.6896136"><ele>737.0</ele><time>2026-05-03T09:15:17.131Z</time></trkpt><trkpt lat="43.9462727" lon="6.6896351"><ele>735.0</ele><time>2026-05-03T09:15:18.131Z</time></trkpt><trkpt lat="43.9464536" lon="6.6896256"><ele>733.0</ele><time>2026-05-03T09:15:19.131Z</time></trkpt><trkpt lat="43.9466323" lon="6.6895976"><ele>739.6666666666667</ele><time>2026-05-03T09:15:20.131Z</time></trkpt><trkpt lat="43.9468111" lon="6.6895402"><ele>746.3333333333334</ele><time>2026-05-03T09:15:21.131Z</time></trkpt><trkpt lat="43.9470135" lon="6.6894359"><ele>753.0</ele><time>2026-05-03T09:15:22.131Z</time></trkpt><trkpt lat="43.9472" lon="6.6893385"><ele>740.3333333333334</ele><time>2026-05-03T09:15:23.13Z</time></trkpt><trkpt lat="43.9473929" lon="6.6892493"><ele>727.6666666666667</ele><time>2026-05-03T09:15:24.13Z</time></trkpt><trkpt lat="43.9475846" lon="6.6891539"><ele>715.0</ele><time>2026-05-03T09:15:25.131Z</time></trkpt><trkpt lat="43.9477643" lon="6.6890633"><ele>715.0</ele><time>2026-05-03T09:15:26.131Z</time></trkpt><trkpt lat="43.9479498" lon="6.6889799"><ele>715.0</ele><time>2026-05-03T09:15:27.131Z</time></trkpt><trkpt lat="43.9481311" lon="6.6889258"><ele>715.0</ele><time>2026-05-03T09:15:28.131Z</time></trkpt><trkpt lat="43.9483224" lon="6.6888991"><ele>719.3333333333334</ele><time>2026-05-03T09:15:29.131Z</time></trkpt><trkpt lat="43.9485185" lon="6.688877"><ele>723.6666666666666</ele><time>2026-05-03T09:15:30.131Z</time></trkpt><trkpt lat="43.9486953" lon="6.6888627"><ele>728.0</ele><time>2026-05-03T09:15:31.13Z</time></trkpt><trkpt lat="43.9488691" lon="6.688847"><ele>728.0</ele><time>2026-05-03T09:15:32.131Z</time></trkpt><trkpt lat="43.9490336" lon="6.6887807"><ele>728.0</ele><time>2026-05-03T09:15:33.131Z</time></trkpt><trkpt lat="43.9491848" lon="6.6886693"><ele>728.0</ele><time>2026-05-03T09:15:34.131Z</time></trkpt><trkpt lat="43.9493353" lon="6.6885121"><ele>730.0</ele><time>2026-05-03T09:15:35.131Z</time></trkpt><trkpt lat="43.9494727" lon="6.6883307"><ele>732.0</ele><time>2026-05-03T09:15:36.131Z</time></trkpt><trkpt lat="43.9495984" lon="6.6881265"><ele>734.0</ele><time>2026-05-03T09:15:37.131Z</time></trkpt><trkpt lat="43.9497067" lon="6.6879277"><ele>719.6666666666666</ele><time>2026-05-03T09:15:38.13Z</time></trkpt><trkpt lat="43.9498107" lon="6.6877371"><ele>705.3333333333334</ele><time>2026-05-03T09:15:39.131Z</time></trkpt><trkpt lat="43.9499192" lon="6.6875444"><ele>691.0</ele><time>2026-05-03T09:15:40.131Z</time></trkpt><trkpt lat="43.9500243" lon="6.6874233"><ele>697.0</ele><time>2026-05-03T09:15:41.131Z</time></trkpt><trkpt lat="43.950144" lon="6.6872931"><ele>703.0</ele><time>2026-05-03T09:15:42.131Z</time></trkpt><trkpt lat="43.9502681" lon="6.6872215"><ele>709.0</ele><time>2026-05-03T09:15:43.13Z</time></trkpt><trkpt lat="43.9504746" lon="6.6872494"><ele>709.0</ele><time>2026-05-03T09:15:44.131Z</time></trkpt><trkpt lat="43.9506601" lon="6.6872387"><ele>709.0</ele><time>2026-05-03T09:15:45.13Z</time></trkpt><trkpt lat="43.9508392" lon="6.6872283"><ele>709.0</ele><time>2026-05-03T09:15:46.131Z</time></trkpt><trkpt lat="43.9509995" lon="6.6872062"><ele>716.0</ele><time>2026-05-03T09:15:47.131Z</time></trkpt><trkpt lat="43.9511794" lon="6.6871633"><ele>723.0</ele><time>2026-05-03T09:15:48.131Z</time></trkpt><trkpt lat="43.9513485" lon="6.6870835"><ele>730.0</ele><time>2026-05-03T09:15:49.131Z</time></trkpt><trkpt lat="43.9515135" lon="6.6870025"><ele>732.0</ele><time>2026-05-03T09:15:50.13Z</time></trkpt><trkpt lat="43.9516663" lon="6.6868875"><ele>734.0</ele><time>2026-05-03T09:15:51.131Z</time></trkpt><trkpt lat="43.9518045" lon="6.6867309"><ele>736.0</ele><time>2026-05-03T09:15:52.131Z</time></trkpt><trkpt lat="43.9519179" lon="6.6865488"><ele>736.0</ele><time>2026-05-03T09:15:53.131Z</time></trkpt><trkpt lat="43.952003" lon="6.6863421"><ele>736.0</ele><time>2026-05-03T09:15:54.131Z</time></trkpt><trkpt lat="43.9520696" lon="6.6861298"><ele>736.0</ele><time>2026-05-03T09:15:55.131Z</time></trkpt><trkpt lat="43.9521015" lon="6.6859132"><ele>729.25</ele><time>2026-05-03T09:15:56.131Z</time></trkpt><trkpt lat="43.9521339" lon="6.6857303"><ele>722.5</ele><time>2026-05-03T09:15:57.13Z</time></trkpt><trkpt lat="43.9521716" lon="6.6855679"><ele>715.75</ele><time>2026-05-03T09:15:58.131Z</time></trkpt><trkpt lat="43.9522266" lon="6.6854323"><ele>709.0</ele><time>2026-05-03T09:15:59.13Z</time></trkpt><trkpt lat="43.9522814" lon="6.685327"><ele>702.5</ele><time>2026-05-03T09:16:00.131Z</time></trkpt><trkpt lat="43.9523879" lon="6.6852565"><ele>696.0</ele><time>2026-05-03T09:16:01.131Z</time></trkpt><trkpt lat="43.9525692" lon="6.6852034"><ele>689.5</ele><time>2026-05-03T09:16:02.131Z</time></trkpt><trkpt lat="43.952703" lon="6.6851553"><ele>683.0</ele><time>2026-05-03T09:16:03.13Z</time></trkpt><trkpt lat="43.9528462" lon="6.6850713"><ele>683.0</ele><time>2026-05-03T09:16:04.131Z</time></trkpt><trkpt lat="43.9529755" lon="6.6849692"><ele>683.0</ele><time>2026-05-03T09:16:05.131Z</time></trkpt><trkpt lat="43.9530838" lon="6.6848326"><ele>683.0</ele><time>2026-05-03T09:16:06.131Z</time></trkpt><trkpt lat="43.9532088" lon="6.6847062"><ele>683.0</ele><time>2026-05-03T09:16:07.131Z</time></trkpt><trkpt lat="43.9533252" lon="6.6845837"><ele>683.0</ele><time>2026-05-03T09:16:08.131Z</time></trkpt><trkpt lat="43.9534549" lon="6.6846016"><ele>683.0</ele><time>2026-05-03T09:16:09.131Z</time></trkpt><trkpt lat="43.9535949" lon="6.6846276"><ele>683.0</ele><time>2026-05-03T09:16:10.131Z</time></trkpt><trkpt lat="43.9537359" lon="6.6846775"><ele>680.75</ele><time>2026-05-03T09:16:11.131Z</time></trkpt><trkpt lat="43.9538841" lon="6.6847226"><ele>678.5</ele><time>2026-05-03T09:16:12.131Z</time></trkpt><trkpt lat="43.9540225" lon="6.6847603"><ele>676.25</ele><time>2026-05-03T09:16:13.131Z</time></trkpt><trkpt lat="43.9541702" lon="6.6847612"><ele>674.0</ele><time>2026-05-03T09:16:14.13Z</time></trkpt><trkpt lat="43.9543257" lon="6.684725"><ele>671.0</ele><time>2026-05-03T09:16:15.131Z</time></trkpt><trkpt lat="43.9544679" lon="6.6846837"><ele>668.0</ele><time>2026-05-03T09:16:16.131Z</time></trkpt><trkpt lat="43.9545977" lon="6.6847051"><ele>665.0</ele><time>2026-05-03T09:16:17.131Z</time></trkpt><trkpt lat="43.9547068" lon="6.6847776"><ele>662.0</ele><time>2026-05-03T09:16:18.131Z</time></trkpt><trkpt lat="43.9548045" lon="6.6848936"><ele>662.0</ele><time>2026-05-03T09:16:19.13Z</time></trkpt><trkpt lat="43.9548834" lon="6.6850473"><ele>662.0</ele><time>2026-05-03T09:16:20.13Z</time></trkpt><trkpt lat="43.9549581" lon="6.6852163"><ele>662.0</ele><time>2026-05-03T09:16:21.13Z</time></trkpt><trkpt lat="43.9550283" lon="6.6853849"><ele>662.0</ele><time>2026-05-03T09:16:22.13Z</time></trkpt><trkpt lat="43.9551043" lon="6.6855433"><ele>661.25</ele><time>2026-05-03T09:16:23.131Z</time></trkpt><trkpt lat="43.9551812" lon="6.6856988"><ele>660.5</ele><time>2026-05-03T09:16:24.131Z</time></trkpt><trkpt lat="43.9552499" lon="6.6858608"><ele>659.75</ele><time>2026-05-03T09:16:25.131Z</time></trkpt><trkpt lat="43.9553166" lon="6.6860118"><ele>659.0</ele><time>2026-05-03T09:16:26.131Z</time></trkpt><trkpt lat="43.9553779" lon="6.6861534"><ele>659.0</ele><time>2026-05-03T09:16:27.131Z</time></trkpt><trkpt lat="43.955439" lon="6.6862899"><ele>659.0</ele><time>2026-05-03T09:16:28.131Z</time></trkpt><trkpt lat="43.9554984" lon="6.6863907"><ele>659.0</ele><time>2026-05-03T09:16:29.131Z</time></trkpt><trkpt lat="43.9555756" lon="6.6864343"><ele>659.0</ele><time>2026-05-03T09:16:30.131Z</time></trkpt><trkpt lat="43.9556519" lon="6.6864776"><ele>659.0</ele><time>2026-05-03T09:16:31.131Z</time></trkpt><trkpt lat="43.9557312" lon="6.6864977"><ele>659.0</ele><time>2026-05-03T09:16:32.131Z</time></trkpt><trkpt lat="43.9557957" lon="6.6865473"><ele>659.0</ele><time>2026-05-03T09:16:33.13Z</time></trkpt><trkpt lat="43.9558386" lon="6.6866362"><ele>659.0</ele><time>2026-05-03T09:16:34.131Z</time></trkpt><trkpt lat="43.9558703" lon="6.6867325"><ele>659.0</ele><time>2026-05-03T09:16:35.13Z</time></trkpt><trkpt lat="43.9558501" lon="6.6868943"><ele>659.0</ele><time>2026-05-03T09:16:36.131Z</time></trkpt><trkpt lat="43.9558474" lon="6.6870522"><ele>660.25</ele><time>2026-05-03T09:16:37.131Z</time></trkpt><trkpt lat="43.9558406" lon="6.6872039"><ele>661.5</ele><time>2026-05-03T09:16:38.131Z</time></trkpt><trkpt lat="43.9558665" lon="6.6873785"><ele>662.75</ele><time>2026-05-03T09:16:39.131Z</time></trkpt><trkpt lat="43.9559013" lon="6.6875378"><ele>664.0</ele><time>2026-05-03T09:16:40.131Z</time></trkpt><trkpt lat="43.9559523" lon="6.687679"><ele>664.25</ele><time>2026-05-03T09:16:41.131Z</time></trkpt><trkpt lat="43.9560113" lon="6.6878208"><ele>664.5</ele><time>2026-05-03T09:16:42.131Z</time></trkpt><trkpt lat="43.9561069" lon="6.6879741"><ele>664.75</ele><time>2026-05-03T09:16:43.131Z</time></trkpt><trkpt lat="43.9561976" lon="6.6881406"><ele>665.0</ele><time>2026-05-03T09:16:44.131Z</time></trkpt><trkpt lat="43.9562933" lon="6.6883007"><ele>665.0</ele><time>2026-05-03T09:16:45.131Z</time></trkpt><trkpt lat="43.956384" lon="6.6884549"><ele>665.0</ele><time>2026-05-03T09:16:46.13Z</time></trkpt><trkpt lat="43.956464" lon="6.6886008"><ele>665.0</ele><time>2026-05-03T09:16:47.131Z</time></trkpt><trkpt lat="43.9565556" lon="6.6887553"><ele>665.0</ele><time>2026-05-03T09:16:48.131Z</time></trkpt><trkpt lat="43.9566553" lon="6.6889361"><ele>668.6666666666666</ele><time>2026-05-03T09:16:49.131Z</time></trkpt><trkpt lat="43.9567453" lon="6.6891448"><ele>672.3333333333334</ele><time>2026-05-03T09:16:50.131Z</time></trkpt><trkpt lat="43.9568409" lon="6.6893572"><ele>676.0</ele><time>2026-05-03T09:16:51.131Z</time></trkpt><trkpt lat="43.9569321" lon="6.6895828"><ele>676.0</ele><time>2026-05-03T09:16:52.131Z</time></trkpt><trkpt lat="43.9570205" lon="6.6898099"><ele>676.0</ele><time>2026-05-03T09:16:53.131Z</time></trkpt><trkpt lat="43.9571265" lon="6.6900361"><ele>676.0</ele><time>2026-05-03T09:16:54.13Z</time></trkpt><trkpt lat="43.9572289" lon="6.6902649"><ele>673.0</ele><time>2026-05-03T09:16:55.131Z</time></trkpt><trkpt lat="43.95733" lon="6.6904876"><ele>670.0</ele><time>2026-05-03T09:16:56.131Z</time></trkpt><trkpt lat="43.9574327" lon="6.6906993"><ele>667.0</ele><time>2026-05-03T09:16:57.131Z</time></trkpt><trkpt lat="43.9575121" lon="6.6909082"><ele>678.0</ele><time>2026-05-03T09:16:58.131Z</time></trkpt><trkpt lat="43.9575868" lon="6.6911132"><ele>689.0</ele><time>2026-05-03T09:16:59.131Z</time></trkpt><trkpt lat="43.9576454" lon="6.6913332"><ele>700.0</ele><time>2026-05-03T09:17:00.131Z</time></trkpt><trkpt lat="43.9576861" lon="6.6915735"><ele>700.0</ele><time>2026-05-03T09:17:01.131Z</time></trkpt><trkpt lat="43.9577141" lon="6.691832"><ele>700.0</ele><time>2026-05-03T09:17:02.131Z</time></trkpt><trkpt lat="43.9577463" lon="6.6920931"><ele>700.0</ele><time>2026-05-03T09:17:03.131Z</time></trkpt><trkpt lat="43.9577782" lon="6.6923611"><ele>694.0</ele><time>2026-05-03T09:17:04.131Z</time></trkpt><trkpt lat="43.9578179" lon="6.6926306"><ele>688.0</ele><time>2026-05-03T09:17:05.131Z</time></trkpt><trkpt lat="43.9578731" lon="6.6929026"><ele>682.0</ele><time>2026-05-03T09:17:06.13Z</time></trkpt><trkpt lat="43.9579347" lon="6.6931728"><ele>676.3333333333334</ele><time>2026-05-03T09:17:07.131Z</time></trkpt><trkpt lat="43.9580001" lon="6.6934426"><ele>670.6666666666666</ele><time>2026-05-03T09:17:08.131Z</time></trkpt><trkpt lat="43.9580668" lon="6.6937007"><ele>665.0</ele><time>2026-05-03T09:17:09.13Z</time></trkpt><trkpt lat="43.9581353" lon="6.6939529"><ele>658.3333333333333</ele><time>2026-05-03T09:17:10.131Z</time></trkpt><trkpt lat="43.9582024" lon="6.6941963"><ele>651.6666666666666</ele><time>2026-05-03T09:17:11.131Z</time></trkpt><trkpt lat="43.9582735" lon="6.6944375"><ele>645.0</ele><time>2026-05-03T09:17:12.131Z</time></trkpt><trkpt lat="43.9583123" lon="6.6946642"><ele>641.3333333333334</ele><time>2026-05-03T09:17:13.131Z</time></trkpt><trkpt lat="43.9583192" lon="6.6948932"><ele>637.6666666666667</ele><time>2026-05-03T09:17:14.131Z</time></trkpt><trkpt lat="43.9582974" lon="6.6951229"><ele>634.0</ele><time>2026-05-03T09:17:15.131Z</time></trkpt><trkpt lat="43.9582567" lon="6.6953517"><ele>634.0</ele><time>2026-05-03T09:17:16.131Z</time></trkpt><trkpt lat="43.9581722" lon="6.695586"><ele>634.0</ele><time>2026-05-03T09:17:17.131Z</time></trkpt><trkpt lat="43.9580881" lon="6.6958261"><ele>634.0</ele><time>2026-05-03T09:17:18.131Z</time></trkpt><trkpt lat="43.9579984" lon="6.6960742"><ele>631.3333333333334</ele><time>2026-05-03T09:17:19.131Z</time></trkpt><trkpt lat="43.9579123" lon="6.6963176"><ele>628.6666666666666</ele><time>2026-05-03T09:17:20.131Z</time></trkpt><trkpt lat="43.9578175" lon="6.6965812"><ele>626.0</ele><time>2026-05-03T09:17:21.131Z</time></trkpt><trkpt lat="43.9577376" lon="6.696857"><ele>628.3333333333333</ele><time>2026-05-03T09:17:22.13Z</time></trkpt><trkpt lat="43.9576629" lon="6.6971323"><ele>630.6666666666666</ele><time>2026-05-03T09:17:23.131Z</time></trkpt><trkpt lat="43.957609" lon="6.6974156"><ele>633.0</ele><time>2026-05-03T09:17:24.131Z</time></trkpt><trkpt lat="43.9575549" lon="6.6976882"><ele>627.6666666666666</ele><time>2026-05-03T09:17:25.131Z</time></trkpt><trkpt lat="43.9575036" lon="6.6979589"><ele>622.3333333333333</ele><time>2026-05-03T09:17:26.131Z</time></trkpt><trkpt lat="43.9574544" lon="6.6982257"><ele>617.0</ele><time>2026-05-03T09:17:27.131Z</time></trkpt><trkpt lat="43.9574271" lon="6.6985039"><ele>614.6666666666666</ele><time>2026-05-03T09:17:28.131Z</time></trkpt><trkpt lat="43.9573921" lon="6.6987818"><ele>612.3333333333334</ele><time>2026-05-03T09:17:29.131Z</time></trkpt><trkpt lat="43.9573859" lon="6.6990845"><ele>610.0</ele><time>2026-05-03T09:17:30.131Z</time></trkpt><trkpt lat="43.9573999" lon="6.6993872"><ele>611.0</ele><time>2026-05-03T09:17:31.131Z</time></trkpt><trkpt lat="43.9574182" lon="6.6996916"><ele>612.0</ele><time>2026-05-03T09:17:32.131Z</time></trkpt><trkpt lat="43.9574345" lon="6.699998"><ele>613.0</ele><time>2026-05-03T09:17:33.131Z</time></trkpt><trkpt lat="43.9574552" lon="6.7003116"><ele>613.3333333333334</ele><time>2026-05-03T09:17:34.131Z</time></trkpt><trkpt lat="43.9574793" lon="6.7006214"><ele>613.6666666666666</ele><time>2026-05-03T09:17:35.131Z</time></trkpt><trkpt lat="43.9574954" lon="6.7009303"><ele>614.0</ele><time>2026-05-03T09:17:36.131Z</time></trkpt><trkpt lat="43.9575303" lon="6.7012237"><ele>616.6666666666666</ele><time>2026-05-03T09:17:37.131Z</time></trkpt><trkpt lat="43.9575791" lon="6.7015162"><ele>619.3333333333334</ele><time>2026-05-03T09:17:38.131Z</time></trkpt><trkpt lat="43.9576285" lon="6.7018081"><ele>622.0</ele><time>2026-05-03T09:17:39.131Z</time></trkpt><trkpt lat="43.9577203" lon="6.7020958"><ele>622.0</ele><time>2026-05-03T09:17:40.131Z</time></trkpt><trkpt lat="43.9577939" lon="6.70238"><ele>622.0</ele><time>2026-05-03T09:17:41.131Z</time></trkpt><trkpt lat="43.9579087" lon="6.7026646"><ele>618.6666666666667</ele><time>2026-05-03T09:17:42.131Z</time></trkpt><trkpt lat="43.9580103" lon="6.7029348"><ele>615.3333333333334</ele><time>2026-05-03T09:17:43.131Z</time></trkpt><trkpt lat="43.958113" lon="6.7032063"><ele>612.0</ele><time>2026-05-03T09:17:44.131Z</time></trkpt><trkpt lat="43.9582134" lon="6.7034596"><ele>610.6666666666666</ele><time>2026-05-03T09:17:45.131Z</time></trkpt><trkpt lat="43.9583083" lon="6.7037138"><ele>609.3333333333333</ele><time>2026-05-03T09:17:46.131Z</time></trkpt><trkpt lat="43.9583859" lon="6.7039718"><ele>608.0</ele><time>2026-05-03T09:17:47.131Z</time></trkpt><trkpt lat="43.9584385" lon="6.7042487"><ele>609.6666666666666</ele><time>2026-05-03T09:17:48.131Z</time></trkpt><trkpt lat="43.9584681" lon="6.7045404"><ele>611.3333333333334</ele><time>2026-05-03T09:17:49.131Z</time></trkpt><trkpt lat="43.9584918" lon="6.7048326"><ele>613.0</ele><time>2026-05-03T09:17:50.131Z</time></trkpt><trkpt lat="43.9585251" lon="6.7051304"><ele>613.5</ele><time>2026-05-03T09:17:51.131Z</time></trkpt><trkpt lat="43.9585625" lon="6.7054432"><ele>614.0</ele><time>2026-05-03T09:17:52.131Z</time></trkpt><trkpt lat="43.9586033" lon="6.70575"><ele>614.0</ele><time>2026-05-03T09:17:53.131Z</time></trkpt><trkpt lat="43.9586516" lon="6.7060573"><ele>614.0</ele><time>2026-05-03T09:17:54.131Z</time></trkpt><trkpt lat="43.9586955" lon="6.7063668"><ele>612.3333333333333</ele><time>2026-05-03T09:17:55.131Z</time></trkpt><trkpt lat="43.958752" lon="6.7066643"><ele>610.6666666666666</ele><time>2026-05-03T09:17:56.131Z</time></trkpt><trkpt lat="43.9588125" lon="6.7069603"><ele>609.0</ele><time>2026-05-03T09:17:57.131Z</time></trkpt><trkpt lat="43.9588676" lon="6.7072604"><ele>608.3333333333334</ele><time>2026-05-03T09:17:58.131Z</time></trkpt><trkpt lat="43.9589361" lon="6.7075571"><ele>607.6666666666667</ele><time>2026-05-03T09:17:59.131Z</time></trkpt><trkpt lat="43.9590038" lon="6.707851"><ele>607.0</ele><time>2026-05-03T09:18:00.131Z</time></trkpt><trkpt lat="43.9590725" lon="6.708158"><ele>608.0</ele><time>2026-05-03T09:18:01.13Z</time></trkpt><trkpt lat="43.9591351" lon="6.7084436"><ele>609.0</ele><time>2026-05-03T09:18:02.131Z</time></trkpt><trkpt lat="43.959199" lon="6.7087268"><ele>610.0</ele><time>2026-05-03T09:18:03.131Z</time></trkpt><trkpt lat="43.9592665" lon="6.7090097"><ele>610.0</ele><time>2026-05-03T09:18:04.131Z</time></trkpt><trkpt lat="43.9593323" lon="6.7092921"><ele>610.0</ele><time>2026-05-03T09:18:05.13Z</time></trkpt><trkpt lat="43.9593981" lon="6.709571"><ele>610.0</ele><time>2026-05-03T09:18:06.13Z</time></trkpt><trkpt lat="43.9594668" lon="6.7098473"><ele>609.6666666666667</ele><time>2026-05-03T09:18:07.131Z</time></trkpt><trkpt lat="43.9595265" lon="6.7101119"><ele>609.3333333333334</ele><time>2026-05-03T09:18:08.131Z</time></trkpt><trkpt lat="43.9595839" lon="6.7103705"><ele>609.0</ele><time>2026-05-03T09:18:09.13Z</time></trkpt><trkpt lat="43.9596206" lon="6.7106168"><ele>608.0</ele><time>2026-05-03T09:18:10.131Z</time></trkpt><trkpt lat="43.959637" lon="6.7108648"><ele>607.0</ele><time>2026-05-03T09:18:11.131Z</time></trkpt><trkpt lat="43.9596317" lon="6.7111117"><ele>606.0</ele><time>2026-05-03T09:18:12.131Z</time></trkpt><trkpt lat="43.9595808" lon="6.7113705"><ele>606.0</ele><time>2026-05-03T09:18:13.131Z</time></trkpt><trkpt lat="43.9595319" lon="6.7116284"><ele>606.0</ele><time>2026-05-03T09:18:14.13Z</time></trkpt><trkpt lat="43.9594701" lon="6.7118965"><ele>606.0</ele><time>2026-05-03T09:18:15.131Z</time></trkpt><trkpt lat="43.9594282" lon="6.7121902"><ele>607.3333333333334</ele><time>2026-05-03T09:18:16.13Z</time></trkpt><trkpt lat="43.9593623" lon="6.7124552"><ele>608.6666666666667</ele><time>2026-05-03T09:18:17.131Z</time></trkpt><trkpt lat="43.9593297" lon="6.7127521"><ele>610.0</ele><time>2026-05-03T09:18:18.131Z</time></trkpt><trkpt lat="43.9593305" lon="6.7130503"><ele>610.3333333333334</ele><time>2026-05-03T09:18:19.131Z</time></trkpt><trkpt lat="43.9593172" lon="6.7133324"><ele>610.6666666666666</ele><time>2026-05-03T09:18:20.131Z</time></trkpt><trkpt lat="43.9593024" lon="6.7136"><ele>611.0</ele><time>2026-05-03T09:18:21.131Z</time></trkpt><trkpt lat="43.9592747" lon="6.7138443"><ele>611.6666666666666</ele><time>2026-05-03T09:18:22.131Z</time></trkpt><trkpt lat="43.959268" lon="6.7141001"><ele>612.3333333333334</ele><time>2026-05-03T09:18:23.13Z</time></trkpt><trkpt lat="43.9592909" lon="6.7143561"><ele>613.0</ele><time>2026-05-03T09:18:24.131Z</time></trkpt><trkpt lat="43.9593825" lon="6.7146316"><ele>611.6666666666667</ele><time>2026-05-03T09:18:25.131Z</time></trkpt><trkpt lat="43.9594592" lon="6.7148954"><ele>610.3333333333334</ele><time>2026-05-03T09:18:26.131Z</time></trkpt><trkpt lat="43.9595148" lon="6.7151689"><ele>609.0</ele><time>2026-05-03T09:18:27.131Z</time></trkpt><trkpt lat="43.959571" lon="6.7154479"><ele>607.0</ele><time>2026-05-03T09:18:28.131Z</time></trkpt><trkpt lat="43.9595991" lon="6.7157324"><ele>605.0</ele><time>2026-05-03T09:18:29.131Z</time></trkpt><trkpt lat="43.9596285" lon="6.7160149"><ele>603.0</ele><time>2026-05-03T09:18:30.131Z</time></trkpt><trkpt lat="43.9596326" lon="6.7162913"><ele>603.0</ele><time>2026-05-03T09:18:31.131Z</time></trkpt><trkpt lat="43.9596383" lon="6.7165863"><ele>603.0</ele><time>2026-05-03T09:18:32.131Z</time></trkpt><trkpt lat="43.9596388" lon="6.7168773"><ele>603.0</ele><time>2026-05-03T09:18:33.131Z</time></trkpt><trkpt lat="43.9596592" lon="6.7171659"><ele>604.0</ele><time>2026-05-03T09:18:34.131Z</time></trkpt><trkpt lat="43.9596735" lon="6.7174549"><ele>605.0</ele><time>2026-05-03T09:18:35.13Z</time></trkpt><trkpt lat="43.959649" lon="6.7177395"><ele>606.0</ele><time>2026-05-03T09:18:36.131Z</time></trkpt><trkpt lat="43.9596086" lon="6.7180252"><ele>607.0</ele><time>2026-05-03T09:18:37.131Z</time></trkpt><trkpt lat="43.9595669" lon="6.7183142"><ele>608.0</ele><time>2026-05-03T09:18:38.131Z</time></trkpt><trkpt lat="43.9595236" lon="6.7185937"><ele>609.0</ele><time>2026-05-03T09:18:39.13Z</time></trkpt><trkpt lat="43.9594745" lon="6.7188525"><ele>609.0</ele><time>2026-05-03T09:18:40.13Z</time></trkpt><trkpt lat="43.9594278" lon="6.719112"><ele>609.0</ele><time>2026-05-03T09:18:41.131Z</time></trkpt><trkpt lat="43.9594002" lon="6.7193777"><ele>609.0</ele><time>2026-05-03T09:18:42.131Z</time></trkpt><trkpt lat="43.9593853" lon="6.7196564"><ele>607.0</ele><time>2026-05-03T09:18:43.131Z</time></trkpt><trkpt lat="43.959388" lon="6.7199459"><ele>605.0</ele><time>2026-05-03T09:18:44.131Z</time></trkpt><trkpt lat="43.959399" lon="6.7202431"><ele>603.0</ele><time>2026-05-03T09:18:45.131Z</time></trkpt><trkpt lat="43.9594137" lon="6.7205435"><ele>601.6666666666666</ele><time>2026-05-03T09:18:46.13Z</time></trkpt><trkpt lat="43.9594295" lon="6.7208296"><ele>600.3333333333333</ele><time>2026-05-03T09:18:47.131Z</time></trkpt><trkpt lat="43.9594444" lon="6.721119"><ele>599.0</ele><time>2026-05-03T09:18:48.131Z</time></trkpt><trkpt lat="43.9594631" lon="6.7214182"><ele>598.0</ele><time>2026-05-03T09:18:49.131Z</time></trkpt><trkpt lat="43.959477" lon="6.7217144"><ele>597.0</ele><time>2026-05-03T09:18:50.131Z</time></trkpt><trkpt lat="43.959526" lon="6.7220218"><ele>596.0</ele><time>2026-05-03T09:18:51.131Z</time></trkpt><trkpt lat="43.959577" lon="6.7223175"><ele>594.3333333333333</ele><time>2026-05-03T09:18:52.131Z</time></trkpt><trkpt lat="43.9596419" lon="6.7226073"><ele>592.6666666666666</ele><time>2026-05-03T09:18:53.131Z</time></trkpt><trkpt lat="43.959706" lon="6.7228971"><ele>591.0</ele><time>2026-05-03T09:18:54.131Z</time></trkpt><trkpt lat="43.9597906" lon="6.7231945"><ele>589.3333333333334</ele><time>2026-05-03T09:18:55.131Z</time></trkpt><trkpt lat="43.9598459" lon="6.7234634"><ele>587.6666666666667</ele><time>2026-05-03T09:18:56.131Z</time></trkpt><trkpt lat="43.9599048" lon="6.7237421"><ele>586.0</ele><time>2026-05-03T09:18:57.131Z</time></trkpt><trkpt lat="43.9599591" lon="6.7240262"><ele>584.3333333333334</ele><time>2026-05-03T09:18:58.13Z</time></trkpt><trkpt lat="43.9599964" lon="6.7243179"><ele>582.6666666666666</ele><time>2026-05-03T09:18:59.131Z</time></trkpt><trkpt lat="43.9600139" lon="6.724618"><ele>581.0</ele><time>2026-05-03T09:19:00.131Z</time></trkpt><trkpt lat="43.9600155" lon="6.7249051"><ele>580.0</ele><time>2026-05-03T09:19:01.13Z</time></trkpt><trkpt lat="43.960018" lon="6.7252228"><ele>579.0</ele><time>2026-05-03T09:19:02.131Z</time></trkpt><trkpt lat="43.9600118" lon="6.7255343"><ele>578.6666666666666</ele><time>2026-05-03T09:19:03.131Z</time></trkpt><trkpt lat="43.9600026" lon="6.7258427"><ele>578.3333333333333</ele><time>2026-05-03T09:19:04.131Z</time></trkpt><trkpt lat="43.9600001" lon="6.7261422"><ele>578.0</ele><time>2026-05-03T09:19:05.131Z</time></trkpt><trkpt lat="43.9599962" lon="6.7264413"><ele>577.6666666666666</ele><time>2026-05-03T09:19:06.13Z</time></trkpt><trkpt lat="43.9599977" lon="6.7267372"><ele>577.3333333333334</ele><time>2026-05-03T09:19:07.131Z</time></trkpt><trkpt lat="43.9599854" lon="6.7270299"><ele>577.0</ele><time>2026-05-03T09:19:08.131Z</time></trkpt><trkpt lat="43.9599615" lon="6.7273135"><ele>577.0</ele><time>2026-05-03T09:19:09.131Z</time></trkpt><trkpt lat="43.9598983" lon="6.727598"><ele>577.0</ele><time>2026-05-03T09:19:10.131Z</time></trkpt><trkpt lat="43.9598484" lon="6.7278748"><ele>577.0</ele><time>2026-05-03T09:19:11.131Z</time></trkpt><trkpt lat="43.9597953" lon="6.7281548"><ele>577.3333333333334</ele><time>2026-05-03T09:19:12.131Z</time></trkpt><trkpt lat="43.9597296" lon="6.7284194"><ele>577.6666666666666</ele><time>2026-05-03T09:19:13.13Z</time></trkpt><trkpt lat="43.9596843" lon="6.7287043"><ele>578.0</ele><time>2026-05-03T09:19:14.131Z</time></trkpt><trkpt lat="43.9596211" lon="6.7289781"><ele>577.3333333333333</ele><time>2026-05-03T09:19:15.131Z</time></trkpt><trkpt lat="43.9595615" lon="6.7292532"><ele>576.6666666666666</ele><time>2026-05-03T09:19:16.131Z</time></trkpt><trkpt lat="43.9595199" lon="6.7295261"><ele>576.0</ele><time>2026-05-03T09:19:17.131Z</time></trkpt><trkpt lat="43.9594709" lon="6.7297931"><ele>576.0</ele><time>2026-05-03T09:19:18.131Z</time></trkpt><trkpt lat="43.9594372" lon="6.7300743"><ele>576.0</ele><time>2026-05-03T09:19:19.131Z</time></trkpt><trkpt lat="43.9593933" lon="6.7303366"><ele>576.0</ele><time>2026-05-03T09:19:20.13Z</time></trkpt><trkpt lat="43.95935" lon="6.7306045"><ele>575.6666666666666</ele><time>2026-05-03T09:19:21.13Z</time></trkpt><trkpt lat="43.9593105" lon="6.7308683"><ele>575.3333333333333</ele><time>2026-05-03T09:19:22.131Z</time></trkpt><trkpt lat="43.9592665" lon="6.7311365"><ele>575.0</ele><time>2026-05-03T09:19:23.131Z</time></trkpt><trkpt lat="43.9592324" lon="6.7313698"><ele>575.0</ele><time>2026-05-03T09:19:24.131Z</time></trkpt><trkpt lat="43.9591898" lon="6.7315951"><ele>575.0</ele><time>2026-05-03T09:19:25.131Z</time></trkpt><trkpt lat="43.9591529" lon="6.7318137"><ele>575.0</ele><time>2026-05-03T09:19:26.131Z</time></trkpt><trkpt lat="43.9591185" lon="6.732016"><ele>575.0</ele><time>2026-05-03T09:19:27.131Z</time></trkpt><trkpt lat="43.9590854" lon="6.7322079"><ele>575.0</ele><time>2026-05-03T09:19:28.13Z</time></trkpt><trkpt lat="43.959054" lon="6.7324029"><ele>575.0</ele><time>2026-05-03T09:19:29.131Z</time></trkpt><trkpt lat="43.9590128" lon="6.7325907"><ele>575.0</ele><time>2026-05-03T09:19:30.131Z</time></trkpt><trkpt lat="43.9589723" lon="6.7327922"><ele>576.75</ele><time>2026-05-03T09:19:31.131Z</time></trkpt><trkpt lat="43.9589478" lon="6.7329864"><ele>578.5</ele><time>2026-05-03T09:19:32.13Z</time></trkpt><trkpt lat="43.9589229" lon="6.7331873"><ele>580.25</ele><time>2026-05-03T09:19:33.131Z</time></trkpt><trkpt lat="43.9588975" lon="6.7333888"><ele>582.0</ele><time>2026-05-03T09:19:34.131Z</time></trkpt><trkpt lat="43.9588749" lon="6.7335877"><ele>582.0</ele><time>2026-05-03T09:19:35.131Z</time></trkpt><trkpt lat="43.9588645" lon="6.7337873"><ele>582.0</ele><time>2026-05-03T09:19:36.131Z</time></trkpt><trkpt lat="43.9588479" lon="6.7339848"><ele>582.0</ele><time>2026-05-03T09:19:37.13Z</time></trkpt><trkpt lat="43.9588268" lon="6.734182"><ele>582.0</ele><time>2026-05-03T09:19:38.13Z</time></trkpt><trkpt lat="43.9588109" lon="6.7343799"><ele>578.25</ele><time>2026-05-03T09:19:39.131Z</time></trkpt><trkpt lat="43.9588284" lon="6.7345549"><ele>574.5</ele><time>2026-05-03T09:19:40.13Z</time></trkpt><trkpt lat="43.9588555" lon="6.7347073"><ele>570.75</ele><time>2026-05-03T09:19:41.131Z</time></trkpt><trkpt lat="43.9588887" lon="6.7348652"><ele>567.0</ele><time>2026-05-03T09:19:42.131Z</time></trkpt><trkpt lat="43.9589527" lon="6.7350177"><ele>567.0</ele><time>2026-05-03T09:19:43.131Z</time></trkpt><trkpt lat="43.9590505" lon="6.7351376"><ele>567.0</ele><time>2026-05-03T09:19:44.13Z</time></trkpt><trkpt lat="43.9591267" lon="6.7351929"><ele>567.0</ele><time>2026-05-03T09:19:45.131Z</time></trkpt><trkpt lat="43.9592799" lon="6.7352835"><ele>567.0</ele><time>2026-05-03T09:19:46.131Z</time></trkpt><trkpt lat="43.9594471" lon="6.7353099"><ele>566.0</ele><time>2026-05-03T09:19:47.131Z</time></trkpt><trkpt lat="43.9596974" lon="6.7353056"><ele>565.0</ele><time>2026-05-03T09:19:48.131Z</time></trkpt><trkpt lat="43.9598909" lon="6.7353328"><ele>564.0</ele><time>2026-05-03T09:19:49.131Z</time></trkpt><trkpt lat="43.9600598" lon="6.7354476"><ele>570.3333333333334</ele><time>2026-05-03T09:19:50.131Z</time></trkpt><trkpt lat="43.9602071" lon="6.7355786"><ele>576.6666666666667</ele><time>2026-05-03T09:19:51.131Z</time></trkpt><trkpt lat="43.960354" lon="6.7357145"><ele>583.0</ele><time>2026-05-03T09:19:52.131Z</time></trkpt><trkpt lat="43.9605271" lon="6.7358436"><ele>583.0</ele><time>2026-05-03T09:19:53.131Z</time></trkpt><trkpt lat="43.9606842" lon="6.7359832"><ele>583.0</ele><time>2026-05-03T09:19:54.13Z</time></trkpt><trkpt lat="43.9608338" lon="6.7361311"><ele>583.0</ele><time>2026-05-03T09:19:55.131Z</time></trkpt><trkpt lat="43.9609742" lon="6.7362911"><ele>587.3333333333334</ele><time>2026-05-03T09:19:56.131Z</time></trkpt><trkpt lat="43.9611272" lon="6.7364518"><ele>591.6666666666666</ele><time>2026-05-03T09:19:57.131Z</time></trkpt><trkpt lat="43.961291" lon="6.7366197"><ele>596.0</ele><time>2026-05-03T09:19:58.131Z</time></trkpt><trkpt lat="43.9614117" lon="6.736857"><ele>588.6666666666666</ele><time>2026-05-03T09:19:59.131Z</time></trkpt><trkpt lat="43.9615319" lon="6.7370789"><ele>581.3333333333334</ele><time>2026-05-03T09:20:00.131Z</time></trkpt><trkpt lat="43.9616405" lon="6.7373005"><ele>574.0</ele><time>2026-05-03T09:20:01.131Z</time></trkpt><trkpt lat="43.9617536" lon="6.7375451"><ele>581.0</ele><time>2026-05-03T09:20:02.131Z</time></trkpt><trkpt lat="43.9618588" lon="6.7378029"><ele>588.0</ele><time>2026-05-03T09:20:03.13Z</time></trkpt><trkpt lat="43.9619667" lon="6.7380565"><ele>595.0</ele><time>2026-05-03T09:20:04.131Z</time></trkpt><trkpt lat="43.9620722" lon="6.7383247"><ele>584.3333333333334</ele><time>2026-05-03T09:20:05.131Z</time></trkpt><trkpt lat="43.9621801" lon="6.7385811"><ele>573.6666666666666</ele><time>2026-05-03T09:20:06.131Z</time></trkpt><trkpt lat="43.9622982" lon="6.7388538"><ele>563.0</ele><time>2026-05-03T09:20:07.131Z</time></trkpt><trkpt lat="43.9624041" lon="6.7391314"><ele>559.6666666666666</ele><time>2026-05-03T09:20:08.13Z</time></trkpt><trkpt lat="43.9625106" lon="6.7393933"><ele>556.3333333333334</ele><time>2026-05-03T09:20:09.131Z</time></trkpt><trkpt lat="43.9626097" lon="6.7396443"><ele>553.0</ele><time>2026-05-03T09:20:10.131Z</time></trkpt><trkpt lat="43.9627092" lon="6.7398837"><ele>557.6666666666667</ele><time>2026-05-03T09:20:11.131Z</time></trkpt><trkpt lat="43.9628028" lon="6.7401199"><ele>562.3333333333334</ele><time>2026-05-03T09:20:12.131Z</time></trkpt><trkpt lat="43.9629023" lon="6.7403488"><ele>567.0</ele><time>2026-05-03T09:20:13.131Z</time></trkpt><trkpt lat="43.9630053" lon="6.7405963"><ele>567.0</ele><time>2026-05-03T09:20:14.131Z</time></trkpt><trkpt lat="43.9631055" lon="6.7408369"><ele>567.0</ele><time>2026-05-03T09:20:15.13Z</time></trkpt><trkpt lat="43.9632012" lon="6.7410775"><ele>567.0</ele><time>2026-05-03T09:20:16.13Z</time></trkpt><trkpt lat="43.963304" lon="6.7413159"><ele>569.6666666666666</ele><time>2026-05-03T09:20:17.13Z</time></trkpt><trkpt lat="43.9634047" lon="6.7415549"><ele>572.3333333333333</ele><time>2026-05-03T09:20:18.131Z</time></trkpt><trkpt lat="43.9635099" lon="6.741802"><ele>575.0</ele><time>2026-05-03T09:20:19.13Z</time></trkpt><trkpt lat="43.9636094" lon="6.7420448"><ele>575.0</ele><time>2026-05-03T09:20:20.131Z</time></trkpt><trkpt lat="43.9637072" lon="6.7422904"><ele>575.0</ele><time>2026-05-03T09:20:21.131Z</time></trkpt><trkpt lat="43.9638073" lon="6.7425108"><ele>575.0</ele><time>2026-05-03T09:20:22.131Z</time></trkpt><trkpt lat="43.9639161" lon="6.7427432"><ele>569.6666666666666</ele><time>2026-05-03T09:20:23.131Z</time></trkpt><trkpt lat="43.9640185" lon="6.7429799"><ele>564.3333333333334</ele><time>2026-05-03T09:20:24.131Z</time></trkpt><trkpt lat="43.9641229" lon="6.74321"><ele>559.0</ele><time>2026-05-03T09:20:25.131Z</time></trkpt><trkpt lat="43.9642243" lon="6.7434378"><ele>563.6666666666667</ele><time>2026-05-03T09:20:26.131Z</time></trkpt><trkpt lat="43.9643321" lon="6.7436742"><ele>568.3333333333334</ele><time>2026-05-03T09:20:27.131Z</time></trkpt><trkpt lat="43.9644384" lon="6.7439045"><ele>573.0</ele><time>2026-05-03T09:20:28.131Z</time></trkpt><trkpt lat="43.9645256" lon="6.7441374"><ele>573.0</ele><time>2026-05-03T09:20:29.13Z</time></trkpt><trkpt lat="43.9646323" lon="6.7443734"><ele>573.0</ele><time>2026-05-03T09:20:30.131Z</time></trkpt><trkpt lat="43.964776" lon="6.744596"><ele>573.0</ele><time>2026-05-03T09:20:31.131Z</time></trkpt><trkpt lat="43.9649127" lon="6.7448395"><ele>572.0</ele><time>2026-05-03T09:20:32.131Z</time></trkpt><trkpt lat="43.9650411" lon="6.7450827"><ele>571.0</ele><time>2026-05-03T09:20:33.131Z</time></trkpt><trkpt lat="43.9651699" lon="6.7453214"><ele>570.0</ele><time>2026-05-03T09:20:34.131Z</time></trkpt><trkpt lat="43.9653131" lon="6.7455668"><ele>570.0</ele><time>2026-05-03T09:20:35.131Z</time></trkpt><trkpt lat="43.9654419" lon="6.7457926"><ele>570.0</ele><time>2026-05-03T09:20:36.131Z</time></trkpt><trkpt lat="43.9655578" lon="6.7460354"><ele>570.0</ele><time>2026-05-03T09:20:37.131Z</time></trkpt><trkpt lat="43.9656913" lon="6.7462541"><ele>571.3333333333334</ele><time>2026-05-03T09:20:38.13Z</time></trkpt><trkpt lat="43.9658186" lon="6.7464826"><ele>572.6666666666667</ele><time>2026-05-03T09:20:39.131Z</time></trkpt><trkpt lat="43.9659464" lon="6.7467146"><ele>574.0</ele><time>2026-05-03T09:20:40.13Z</time></trkpt><trkpt lat="43.9660588" lon="6.7469475"><ele>570.3333333333334</ele><time>2026-05-03T09:20:41.131Z</time></trkpt><trkpt lat="43.9661711" lon="6.7471901"><ele>566.6666666666666</ele><time>2026-05-03T09:20:42.131Z</time></trkpt><trkpt lat="43.9662655" lon="6.7474531"><ele>563.0</ele><time>2026-05-03T09:20:43.131Z</time></trkpt><trkpt lat="43.9663472" lon="6.747726"><ele>560.3333333333333</ele><time>2026-05-03T09:20:44.131Z</time></trkpt><trkpt lat="43.9664177" lon="6.7480119"><ele>557.6666666666666</ele><time>2026-05-03T09:20:45.131Z</time></trkpt><trkpt lat="43.9664774" lon="6.7482988"><ele>555.0</ele><time>2026-05-03T09:20:46.131Z</time></trkpt><trkpt lat="43.9665234" lon="6.7485819"><ele>552.6666666666666</ele><time>2026-05-03T09:20:47.131Z</time></trkpt><trkpt lat="43.9665679" lon="6.7488577"><ele>550.3333333333333</ele><time>2026-05-03T09:20:48.131Z</time></trkpt><trkpt lat="43.9666227" lon="6.7491335"><ele>548.0</ele><time>2026-05-03T09:20:49.131Z</time></trkpt><trkpt lat="43.9666927" lon="6.7493982"><ele>557.3333333333333</ele><time>2026-05-03T09:20:50.131Z</time></trkpt><trkpt lat="43.966772" lon="6.7496614"><ele>566.6666666666666</ele><time>2026-05-03T09:20:51.131Z</time></trkpt><trkpt lat="43.9668427" lon="6.749929"><ele>576.0</ele><time>2026-05-03T09:20:52.131Z</time></trkpt><trkpt lat="43.9669226" lon="6.7501946"><ele>578.6666666666666</ele><time>2026-05-03T09:20:53.131Z</time></trkpt><trkpt lat="43.9670034" lon="6.7504377"><ele>581.3333333333333</ele><time>2026-05-03T09:20:54.131Z</time></trkpt><trkpt lat="43.9670667" lon="6.7507234"><ele>584.0</ele><time>2026-05-03T09:20:55.131Z</time></trkpt><trkpt lat="43.9671127" lon="6.7510123"><ele>580.3333333333333</ele><time>2026-05-03T09:20:56.131Z</time></trkpt><trkpt lat="43.9671677" lon="6.7512932"><ele>576.6666666666666</ele><time>2026-05-03T09:20:57.131Z</time></trkpt><trkpt lat="43.9671762" lon="6.7515918"><ele>573.0</ele><time>2026-05-03T09:20:58.131Z</time></trkpt><trkpt lat="43.9671839" lon="6.7518842"><ele>570.6666666666666</ele><time>2026-05-03T09:20:59.131Z</time></trkpt><trkpt lat="43.9672024" lon="6.7521701"><ele>568.3333333333333</ele><time>2026-05-03T09:21:00.131Z</time></trkpt><trkpt lat="43.967213" lon="6.7524547"><ele>566.0</ele><time>2026-05-03T09:21:01.131Z</time></trkpt><trkpt lat="43.9672206" lon="6.7527447"><ele>564.3333333333333</ele><time>2026-05-03T09:21:02.131Z</time></trkpt><trkpt lat="43.9672328" lon="6.7530344"><ele>562.6666666666666</ele><time>2026-05-03T09:21:03.131Z</time></trkpt><trkpt lat="43.9672471" lon="6.7533331"><ele>561.0</ele><time>2026-05-03T09:21:04.131Z</time></trkpt><trkpt lat="43.9672637" lon="6.7536233"><ele>560.0</ele><time>2026-05-03T09:21:05.131Z</time></trkpt><trkpt lat="43.9672679" lon="6.7539075"><ele>559.0</ele><time>2026-05-03T09:21:06.131Z</time></trkpt><trkpt lat="43.9672781" lon="6.7541816"><ele>558.0</ele><time>2026-05-03T09:21:07.131Z</time></trkpt><trkpt lat="43.967279" lon="6.7544424"><ele>555.6666666666666</ele><time>2026-05-03T09:21:08.131Z</time></trkpt><trkpt lat="43.9672841" lon="6.7546933"><ele>553.3333333333333</ele><time>2026-05-03T09:21:09.13Z</time></trkpt><trkpt lat="43.9673028" lon="6.7549314"><ele>551.0</ele><time>2026-05-03T09:21:10.131Z</time></trkpt><trkpt lat="43.9673418" lon="6.7551641"><ele>547.3333333333333</ele><time>2026-05-03T09:21:11.131Z</time></trkpt><trkpt lat="43.967412" lon="6.7553948"><ele>543.6666666666666</ele><time>2026-05-03T09:21:12.131Z</time></trkpt><trkpt lat="43.9674851" lon="6.7556268"><ele>540.0</ele><time>2026-05-03T09:21:13.131Z</time></trkpt><trkpt lat="43.9675748" lon="6.7558602"><ele>544.3333333333334</ele><time>2026-05-03T09:21:14.13Z</time></trkpt><trkpt lat="43.9676462" lon="6.7561029"><ele>548.6666666666667</ele><time>2026-05-03T09:21:15.13Z</time></trkpt><trkpt lat="43.9677496" lon="6.7563298"><ele>553.0</ele><time>2026-05-03T09:21:16.13Z</time></trkpt><trkpt lat="43.967846" lon="6.7565494"><ele>553.0</ele><time>2026-05-03T09:21:17.131Z</time></trkpt><trkpt lat="43.9679314" lon="6.7567729"><ele>553.0</ele><time>2026-05-03T09:21:18.131Z</time></trkpt><trkpt lat="43.968015" lon="6.7570106"><ele>553.0</ele><time>2026-05-03T09:21:19.131Z</time></trkpt><trkpt lat="43.9681391" lon="6.7571907"><ele>554.6666666666667</ele><time>2026-05-03T09:21:20.131Z</time></trkpt><trkpt lat="43.9682576" lon="6.7573726"><ele>556.3333333333334</ele><time>2026-05-03T09:21:21.131Z</time></trkpt><trkpt lat="43.9683933" lon="6.7575428"><ele>558.0</ele><time>2026-05-03T09:21:22.13Z</time></trkpt><trkpt lat="43.9685314" lon="6.7577098"><ele>552.3333333333334</ele><time>2026-05-03T09:21:23.13Z</time></trkpt><trkpt lat="43.9686677" lon="6.757876"><ele>546.6666666666667</ele><time>2026-05-03T09:21:24.13Z</time></trkpt><trkpt lat="43.9688058" lon="6.7580382"><ele>541.0</ele><time>2026-05-03T09:21:25.131Z</time></trkpt><trkpt lat="43.9689396" lon="6.7582063"><ele>541.0</ele><time>2026-05-03T09:21:26.131Z</time></trkpt><trkpt lat="43.969074" lon="6.7583653"><ele>541.0</ele><time>2026-05-03T09:21:27.131Z</time></trkpt><trkpt lat="43.9692157" lon="6.7585355"><ele>541.0</ele><time>2026-05-03T09:21:28.131Z</time></trkpt><trkpt lat="43.9693393" lon="6.7586987"><ele>541.75</ele><time>2026-05-03T09:21:29.131Z</time></trkpt><trkpt lat="43.9694646" lon="6.7588625"><ele>542.5</ele><time>2026-05-03T09:21:30.131Z</time></trkpt><trkpt lat="43.9695654" lon="6.7589824"><ele>543.25</ele><time>2026-05-03T09:21:31.131Z</time></trkpt><trkpt lat="43.9696758" lon="6.759098"><ele>544.0</ele><time>2026-05-03T09:21:32.131Z</time></trkpt><trkpt lat="43.9697733" lon="6.7592153"><ele>544.0</ele><time>2026-05-03T09:21:33.131Z</time></trkpt><trkpt lat="43.969884" lon="6.7593396"><ele>544.0</ele><time>2026-05-03T09:21:34.131Z</time></trkpt><trkpt lat="43.9699866" lon="6.7594584"><ele>544.0</ele><time>2026-05-03T09:21:35.131Z</time></trkpt><trkpt lat="43.9700786" lon="6.7595727"><ele>544.0</ele><time>2026-05-03T09:21:36.131Z</time></trkpt><trkpt lat="43.9701695" lon="6.7596873"><ele>544.0</ele><time>2026-05-03T09:21:37.131Z</time></trkpt><trkpt lat="43.9702661" lon="6.7598073"><ele>544.0</ele><time>2026-05-03T09:21:38.131Z</time></trkpt><trkpt lat="43.9703534" lon="6.7598913"><ele>544.0</ele><time>2026-05-03T09:21:39.131Z</time></trkpt><trkpt lat="43.9704603" lon="6.7599349"><ele>544.0</ele><time>2026-05-03T09:21:40.13Z</time></trkpt><trkpt lat="43.9705629" lon="6.7599569"><ele>544.0</ele><time>2026-05-03T09:21:41.131Z</time></trkpt><trkpt lat="43.9706571" lon="6.7599553"><ele>544.0</ele><time>2026-05-03T09:21:42.131Z</time></trkpt><trkpt lat="43.9707568" lon="6.75996"><ele>544.0</ele><time>2026-05-03T09:21:43.131Z</time></trkpt><trkpt lat="43.9708586" lon="6.7598539"><ele>544.0</ele><time>2026-05-03T09:21:45.13Z</time></trkpt><trkpt lat="43.9709261" lon="6.7598026"><ele>544.0</ele><time>2026-05-03T09:21:46.131Z</time></trkpt><trkpt lat="43.9709709" lon="6.7596643"><ele>543.8</ele><time>2026-05-03T09:21:47.131Z</time></trkpt><trkpt lat="43.9710165" lon="6.7595634"><ele>543.5999999999999</ele><time>2026-05-03T09:21:48.131Z</time></trkpt><trkpt lat="43.9710836" lon="6.7594924"><ele>543.4</ele><time>2026-05-03T09:21:49.131Z</time></trkpt><trkpt lat="43.9711594" lon="6.7594112"><ele>543.1999999999999</ele><time>2026-05-03T09:21:50.131Z</time></trkpt><trkpt lat="43.9712657" lon="6.7592963"><ele>543.0</ele><time>2026-05-03T09:21:51.131Z</time></trkpt><trkpt lat="43.9713946" lon="6.7590884"><ele>543.0</ele><time>2026-05-03T09:21:52.131Z</time></trkpt><trkpt lat="43.9714787" lon="6.7589869"><ele>543.0</ele><time>2026-05-03T09:21:53.131Z</time></trkpt><trkpt lat="43.9716037" lon="6.7588759"><ele>543.0</ele><time>2026-05-03T09:21:54.131Z</time></trkpt><trkpt lat="43.9717305" lon="6.7587842"><ele>543.0</ele><time>2026-05-03T09:21:55.131Z</time></trkpt><trkpt lat="43.9718648" lon="6.7586934"><ele>540.0</ele><time>2026-05-03T09:21:56.13Z</time></trkpt><trkpt lat="43.9719741" lon="6.758584"><ele>537.0</ele><time>2026-05-03T09:21:57.131Z</time></trkpt><trkpt lat="43.9720969" lon="6.7585121"><ele>534.0</ele><time>2026-05-03T09:21:58.13Z</time></trkpt><trkpt lat="43.972235" lon="6.7585292"><ele>531.0</ele><time>2026-05-03T09:21:59.13Z</time></trkpt><trkpt lat="43.9723776" lon="6.7585632"><ele>531.0</ele><time>2026-05-03T09:22:00.127Z</time></trkpt><trkpt lat="43.972519" lon="6.7586161"><ele>531.0</ele><time>2026-05-03T09:22:01.128Z</time></trkpt><trkpt lat="43.9726675" lon="6.7586561"><ele>531.0</ele><time>2026-05-03T09:22:02.127Z</time></trkpt><trkpt lat="43.9728143" lon="6.7587092"><ele>531.0</ele><time>2026-05-03T09:22:03.128Z</time></trkpt><trkpt lat="43.9729476" lon="6.7587771"><ele>532.0</ele><time>2026-05-03T09:22:04.128Z</time></trkpt><trkpt lat="43.9730812" lon="6.7588376"><ele>533.0</ele><time>2026-05-03T09:22:05.128Z</time></trkpt><trkpt lat="43.9732076" lon="6.7588858"><ele>534.0</ele><time>2026-05-03T09:22:06.128Z</time></trkpt><trkpt lat="43.9733231" lon="6.7588954"><ele>535.0</ele><time>2026-05-03T09:22:07.128Z</time></trkpt><trkpt lat="43.9734615" lon="6.758902"><ele>536.75</ele><time>2026-05-03T09:22:08.127Z</time></trkpt><trkpt lat="43.9736026" lon="6.7589236"><ele>538.5</ele><time>2026-05-03T09:22:09.128Z</time></trkpt><trkpt lat="43.9737329" lon="6.7590127"><ele>540.25</ele><time>2026-05-03T09:22:10.127Z</time></trkpt><trkpt lat="43.9738765" lon="6.7590687"><ele>542.0</ele><time>2026-05-03T09:22:11.127Z</time></trkpt><trkpt lat="43.9740045" lon="6.759128"><ele>542.0</ele><time>2026-05-03T09:22:12.128Z</time></trkpt><trkpt lat="43.9741537" lon="6.7591923"><ele>542.0</ele><time>2026-05-03T09:22:13.128Z</time></trkpt><trkpt lat="43.9742979" lon="6.7592451"><ele>542.0</ele><time>2026-05-03T09:22:14.128Z</time></trkpt><trkpt lat="43.9744502" lon="6.7592759"><ele>544.6666666666666</ele><time>2026-05-03T09:22:15.128Z</time></trkpt><trkpt lat="43.9746023" lon="6.7592988"><ele>547.3333333333334</ele><time>2026-05-03T09:22:16.128Z</time></trkpt><trkpt lat="43.9747586" lon="6.7593137"><ele>550.0</ele><time>2026-05-03T09:22:17.128Z</time></trkpt><trkpt lat="43.9748996" lon="6.7593511"><ele>548.5</ele><time>2026-05-03T09:22:18.128Z</time></trkpt><trkpt lat="43.975046" lon="6.7593509"><ele>547.0</ele><time>2026-05-03T09:22:19.128Z</time></trkpt><trkpt lat="43.9751731" lon="6.7593516"><ele>545.5</ele><time>2026-05-03T09:22:20.128Z</time></trkpt><trkpt lat="43.9753006" lon="6.7594029"><ele>544.0</ele><time>2026-05-03T09:22:21.128Z</time></trkpt><trkpt lat="43.975419" lon="6.7594493"><ele>542.25</ele><time>2026-05-03T09:22:22.128Z</time></trkpt><trkpt lat="43.9755323" lon="6.7594804"><ele>540.5</ele><time>2026-05-03T09:22:23.128Z</time></trkpt><trkpt lat="43.9756452" lon="6.7594444"><ele>538.75</ele><time>2026-05-03T09:22:24.128Z</time></trkpt><trkpt lat="43.975755" lon="6.7594095"><ele>537.0</ele><time>2026-05-03T09:22:25.128Z</time></trkpt><trkpt lat="43.9758761" lon="6.7592712"><ele>537.0</ele><time>2026-05-03T09:22:26.128Z</time></trkpt><trkpt lat="43.9759919" lon="6.7591279"><ele>537.0</ele><time>2026-05-03T09:22:27.128Z</time></trkpt><trkpt lat="43.9761129" lon="6.7589658"><ele>537.0</ele><time>2026-05-03T09:22:28.128Z</time></trkpt><trkpt lat="43.9762274" lon="6.7588366"><ele>537.0</ele><time>2026-05-03T09:22:29.128Z</time></trkpt><trkpt lat="43.9763248" lon="6.7587049"><ele>537.0</ele><time>2026-05-03T09:22:30.128Z</time></trkpt><trkpt lat="43.976428" lon="6.7586044"><ele>537.0</ele><time>2026-05-03T09:22:31.127Z</time></trkpt><trkpt lat="43.9765618" lon="6.7585131"><ele>537.0</ele><time>2026-05-03T09:22:32.128Z</time></trkpt><trkpt lat="43.9767055" lon="6.7584626"><ele>538.75</ele><time>2026-05-03T09:22:33.127Z</time></trkpt><trkpt lat="43.9768449" lon="6.7584054"><ele>540.5</ele><time>2026-05-03T09:22:34.128Z</time></trkpt><trkpt lat="43.9769918" lon="6.7583482"><ele>542.25</ele><time>2026-05-03T09:22:35.128Z</time></trkpt><trkpt lat="43.9771252" lon="6.7582863"><ele>544.0</ele><time>2026-05-03T09:22:36.128Z</time></trkpt><trkpt lat="43.9772749" lon="6.7582513"><ele>544.0</ele><time>2026-05-03T09:22:37.127Z</time></trkpt><trkpt lat="43.9774279" lon="6.7582153"><ele>544.0</ele><time>2026-05-03T09:22:38.128Z</time></trkpt><trkpt lat="43.977583" lon="6.7581862"><ele>544.0</ele><time>2026-05-03T09:22:39.128Z</time></trkpt><trkpt lat="43.9777484" lon="6.7581565"><ele>544.6666666666667</ele><time>2026-05-03T09:22:40.127Z</time></trkpt><trkpt lat="43.9779093" lon="6.7581243"><ele>545.3333333333334</ele><time>2026-05-03T09:22:41.128Z</time></trkpt><trkpt lat="43.978074" lon="6.7580947"><ele>546.0</ele><time>2026-05-03T09:22:42.128Z</time></trkpt><trkpt lat="43.9782547" lon="6.7580804"><ele>547.0</ele><time>2026-05-03T09:22:43.127Z</time></trkpt><trkpt lat="43.9784218" lon="6.75812"><ele>548.0</ele><time>2026-05-03T09:22:44.128Z</time></trkpt><trkpt lat="43.9785813" lon="6.75815"><ele>549.0</ele><time>2026-05-03T09:22:45.128Z</time></trkpt><trkpt lat="43.9787452" lon="6.7581834"><ele>549.0</ele><time>2026-05-03T09:22:46.128Z</time></trkpt><trkpt lat="43.9789002" lon="6.7582076"><ele>549.0</ele><time>2026-05-03T09:22:47.128Z</time></trkpt><trkpt lat="43.9790693" lon="6.7582312"><ele>549.0</ele><time>2026-05-03T09:22:48.128Z</time></trkpt><trkpt lat="43.9792267" lon="6.7582552"><ele>550.0</ele><time>2026-05-03T09:22:49.128Z</time></trkpt><trkpt lat="43.9793877" lon="6.7582734"><ele>551.0</ele><time>2026-05-03T09:22:50.127Z</time></trkpt><trkpt lat="43.9795503" lon="6.7582875"><ele>552.0</ele><time>2026-05-03T09:22:51.128Z</time></trkpt><trkpt lat="43.9797136" lon="6.758289"><ele>552.0</ele><time>2026-05-03T09:22:52.128Z</time></trkpt><trkpt lat="43.9798496" lon="6.7583024"><ele>552.0</ele><time>2026-05-03T09:22:53.128Z</time></trkpt><trkpt lat="43.9799949" lon="6.7583093"><ele>552.0</ele><time>2026-05-03T09:22:54.127Z</time></trkpt><trkpt lat="43.980143" lon="6.7582892"><ele>552.0</ele><time>2026-05-03T09:22:55.128Z</time></trkpt><trkpt lat="43.9802638" lon="6.7582498"><ele>551.25</ele><time>2026-05-03T09:22:56.127Z</time></trkpt><trkpt lat="43.9803881" lon="6.7582317"><ele>550.5</ele><time>2026-05-03T09:22:57.128Z</time></trkpt><trkpt lat="43.9805181" lon="6.7581845"><ele>549.75</ele><time>2026-05-03T09:22:58.128Z</time></trkpt><trkpt lat="43.9806402" lon="6.7581489"><ele>549.0</ele><time>2026-05-03T09:22:59.128Z</time></trkpt><trkpt lat="43.980761" lon="6.7581124"><ele>550.0</ele><time>2026-05-03T09:23:00.128Z</time></trkpt><trkpt lat="43.9808889" lon="6.7580812"><ele>551.0</ele><time>2026-05-03T09:23:01.128Z</time></trkpt><trkpt lat="43.9810169" lon="6.7580657"><ele>552.0</ele><time>2026-05-03T09:23:02.128Z</time></trkpt><trkpt lat="43.9811519" lon="6.7580711"><ele>553.0</ele><time>2026-05-03T09:23:03.128Z</time></trkpt><trkpt lat="43.9812622" lon="6.7581257"><ele>553.0</ele><time>2026-05-03T09:23:04.128Z</time></trkpt><trkpt lat="43.9813817" lon="6.7581703"><ele>553.0</ele><time>2026-05-03T09:23:05.127Z</time></trkpt><trkpt lat="43.9814905" lon="6.7582454"><ele>553.0</ele><time>2026-05-03T09:23:06.128Z</time></trkpt><trkpt lat="43.9815928" lon="6.7583285"><ele>553.0</ele><time>2026-05-03T09:23:07.128Z</time></trkpt><trkpt lat="43.9816923" lon="6.7584219"><ele>553.5</ele><time>2026-05-03T09:23:08.128Z</time></trkpt><trkpt lat="43.9818171" lon="6.7585628"><ele>554.0</ele><time>2026-05-03T09:23:09.128Z</time></trkpt><trkpt lat="43.9819318" lon="6.7586807"><ele>554.5</ele><time>2026-05-03T09:23:10.128Z</time></trkpt><trkpt lat="43.982043" lon="6.7587896"><ele>555.0</ele><time>2026-05-03T09:23:11.127Z</time></trkpt><trkpt lat="43.982156" lon="6.758888"><ele>555.0</ele><time>2026-05-03T09:23:12.128Z</time></trkpt><trkpt lat="43.9822747" lon="6.758975"><ele>555.0</ele><time>2026-05-03T09:23:13.128Z</time></trkpt><trkpt lat="43.9824041" lon="6.7590571"><ele>555.0</ele><time>2026-05-03T09:23:14.128Z</time></trkpt><trkpt lat="43.9825327" lon="6.7591421"><ele>555.0</ele><time>2026-05-03T09:23:15.128Z</time></trkpt><trkpt lat="43.9826597" lon="6.7592254"><ele>554.75</ele><time>2026-05-03T09:23:16.128Z</time></trkpt><trkpt lat="43.9827898" lon="6.759307"><ele>554.5</ele><time>2026-05-03T09:23:17.128Z</time></trkpt><trkpt lat="43.9829157" lon="6.7593929"><ele>554.25</ele><time>2026-05-03T09:23:18.128Z</time></trkpt><trkpt lat="43.9830432" lon="6.7594747"><ele>554.0</ele><time>2026-05-03T09:23:19.128Z</time></trkpt><trkpt lat="43.9831534" lon="6.7595621"><ele>554.0</ele><time>2026-05-03T09:23:20.128Z</time></trkpt><trkpt lat="43.9832589" lon="6.7596968"><ele>554.0</ele><time>2026-05-03T09:23:21.128Z</time></trkpt><trkpt lat="43.9833585" lon="6.7598193"><ele>554.0</ele><time>2026-05-03T09:23:22.128Z</time></trkpt><trkpt lat="43.983461" lon="6.7599157"><ele>554.0</ele><time>2026-05-03T09:23:23.128Z</time></trkpt><trkpt lat="43.9835663" lon="6.76"><ele>555.25</ele><time>2026-05-03T09:23:24.128Z</time></trkpt><trkpt lat="43.9836919" lon="6.7600686"><ele>556.5</ele><time>2026-05-03T09:23:25.128Z</time></trkpt><trkpt lat="43.9837909" lon="6.7601533"><ele>557.75</ele><time>2026-05-03T09:23:26.128Z</time></trkpt><trkpt lat="43.9838961" lon="6.7602527"><ele>559.0</ele><time>2026-05-03T09:23:27.128Z</time></trkpt><trkpt lat="43.9839579" lon="6.7604095"><ele>559.0</ele><time>2026-05-03T09:23:28.128Z</time></trkpt><trkpt lat="43.9840003" lon="6.760555"><ele>559.0</ele><time>2026-05-03T09:23:29.128Z</time></trkpt><trkpt lat="43.9840557" lon="6.760724"><ele>559.0</ele><time>2026-05-03T09:23:30.128Z</time></trkpt><trkpt lat="43.9841377" lon="6.7608837"><ele>559.0</ele><time>2026-05-03T09:23:31.128Z</time></trkpt><trkpt lat="43.984239" lon="6.7610381"><ele>561.5</ele><time>2026-05-03T09:23:32.128Z</time></trkpt><trkpt lat="43.9843378" lon="6.7612064"><ele>564.0</ele><time>2026-05-03T09:23:33.127Z</time></trkpt><trkpt lat="43.9844288" lon="6.7613614"><ele>566.5</ele><time>2026-05-03T09:23:34.128Z</time></trkpt><trkpt lat="43.9845038" lon="6.7615279"><ele>569.0</ele><time>2026-05-03T09:23:35.128Z</time></trkpt><trkpt lat="43.9845594" lon="6.7617064"><ele>567.75</ele><time>2026-05-03T09:23:36.128Z</time></trkpt><trkpt lat="43.9846255" lon="6.7618833"><ele>566.5</ele><time>2026-05-03T09:23:37.128Z</time></trkpt><trkpt lat="43.9846442" lon="6.7620708"><ele>565.25</ele><time>2026-05-03T09:23:38.128Z</time></trkpt><trkpt lat="43.9846601" lon="6.7622504"><ele>564.0</ele><time>2026-05-03T09:23:39.127Z</time></trkpt><trkpt lat="43.9846748" lon="6.7624265"><ele>564.0</ele><time>2026-05-03T09:23:40.128Z</time></trkpt><trkpt lat="43.984707" lon="6.7625891"><ele>564.0</ele><time>2026-05-03T09:23:41.127Z</time></trkpt><trkpt lat="43.9847906" lon="6.7627219"><ele>564.0</ele><time>2026-05-03T09:23:42.128Z</time></trkpt><trkpt lat="43.984885" lon="6.7628475"><ele>564.0</ele><time>2026-05-03T09:23:43.128Z</time></trkpt><trkpt lat="43.9849711" lon="6.7629665"><ele>568.0</ele><time>2026-05-03T09:23:44.128Z</time></trkpt><trkpt lat="43.9850741" lon="6.7630996"><ele>572.0</ele><time>2026-05-03T09:23:45.127Z</time></trkpt><trkpt lat="43.9851834" lon="6.7632389"><ele>576.0</ele><time>2026-05-03T09:23:46.128Z</time></trkpt><trkpt lat="43.9852851" lon="6.7633587"><ele>580.0</ele><time>2026-05-03T09:23:47.128Z</time></trkpt><trkpt lat="43.9854018" lon="6.7634483"><ele>580.0</ele><time>2026-05-03T09:23:48.128Z</time></trkpt><trkpt lat="43.9855395" lon="6.7635122"><ele>580.0</ele><time>2026-05-03T09:23:49.128Z</time></trkpt><trkpt lat="43.9856539" lon="6.7635861"><ele>580.0</ele><time>2026-05-03T09:23:50.128Z</time></trkpt><trkpt lat="43.9857948" lon="6.7636685"><ele>580.0</ele><time>2026-05-03T09:23:51.128Z</time></trkpt><trkpt lat="43.9859244" lon="6.7637456"><ele>575.25</ele><time>2026-05-03T09:23:52.128Z</time></trkpt><trkpt lat="43.9860606" lon="6.7638246"><ele>570.5</ele><time>2026-05-03T09:23:53.128Z</time></trkpt><trkpt lat="43.9861862" lon="6.7638944"><ele>565.75</ele><time>2026-05-03T09:23:54.128Z</time></trkpt><trkpt lat="43.9863168" lon="6.7639594"><ele>561.0</ele><time>2026-05-03T09:23:55.128Z</time></trkpt><trkpt lat="43.9864744" lon="6.7639356"><ele>561.0</ele><time>2026-05-03T09:23:56.128Z</time></trkpt><trkpt lat="43.9866276" lon="6.7639415"><ele>561.0</ele><time>2026-05-03T09:23:57.127Z</time></trkpt><trkpt lat="43.9867723" lon="6.7639444"><ele>561.0</ele><time>2026-05-03T09:23:58.128Z</time></trkpt><trkpt lat="43.9869289" lon="6.7639716"><ele>565.25</ele><time>2026-05-03T09:23:59.128Z</time></trkpt><trkpt lat="43.9870654" lon="6.7640203"><ele>569.5</ele><time>2026-05-03T09:24:00.128Z</time></trkpt><trkpt lat="43.9871769" lon="6.7640965"><ele>573.75</ele><time>2026-05-03T09:24:01.128Z</time></trkpt><trkpt lat="43.987291" lon="6.7641965"><ele>578.0</ele><time>2026-05-03T09:24:02.128Z</time></trkpt><trkpt lat="43.9874347" lon="6.764356"><ele>575.25</ele><time>2026-05-03T09:24:03.128Z</time></trkpt><trkpt lat="43.9875424" lon="6.7644743"><ele>572.5</ele><time>2026-05-03T09:24:04.128Z</time></trkpt><trkpt lat="43.9876762" lon="6.7645867"><ele>569.75</ele><time>2026-05-03T09:24:05.128Z</time></trkpt><trkpt lat="43.9878036" lon="6.764669"><ele>567.0</ele><time>2026-05-03T09:24:06.128Z</time></trkpt><trkpt lat="43.9879449" lon="6.7647134"><ele>567.0</ele><time>2026-05-03T09:24:07.128Z</time></trkpt><trkpt lat="43.9880932" lon="6.7647321"><ele>567.0</ele><time>2026-05-03T09:24:08.127Z</time></trkpt><trkpt lat="43.9882421" lon="6.7647574"><ele>567.0</ele><time>2026-05-03T09:24:09.128Z</time></trkpt><trkpt lat="43.9883869" lon="6.7647811"><ele>567.0</ele><time>2026-05-03T09:24:10.128Z</time></trkpt><trkpt lat="43.9885203" lon="6.7648021"><ele>571.0</ele><time>2026-05-03T09:24:11.128Z</time></trkpt><trkpt lat="43.9886621" lon="6.7648458"><ele>575.0</ele><time>2026-05-03T09:24:12.128Z</time></trkpt><trkpt lat="43.9887731" lon="6.7649377"><ele>579.0</ele><time>2026-05-03T09:24:13.128Z</time></trkpt><trkpt lat="43.9888829" lon="6.7650512"><ele>583.0</ele><time>2026-05-03T09:24:14.127Z</time></trkpt><trkpt lat="43.988985" lon="6.7651706"><ele>577.6666666666667</ele><time>2026-05-03T09:24:15.128Z</time></trkpt><trkpt lat="43.989094" lon="6.7653301"><ele>572.3333333333334</ele><time>2026-05-03T09:24:16.128Z</time></trkpt><trkpt lat="43.989201" lon="6.7654945"><ele>567.0</ele><time>2026-05-03T09:24:17.128Z</time></trkpt><trkpt lat="43.9893143" lon="6.7656482"><ele>567.75</ele><time>2026-05-03T09:24:18.128Z</time></trkpt><trkpt lat="43.9894311" lon="6.7657824"><ele>568.5</ele><time>2026-05-03T09:24:19.128Z</time></trkpt><trkpt lat="43.9895393" lon="6.7659132"><ele>569.25</ele><time>2026-05-03T09:24:20.128Z</time></trkpt><trkpt lat="43.9896578" lon="6.7660378"><ele>570.0</ele><time>2026-05-03T09:24:21.128Z</time></trkpt><trkpt lat="43.9897834" lon="6.7661927"><ele>570.0</ele><time>2026-05-03T09:24:22.128Z</time></trkpt><trkpt lat="43.9899039" lon="6.7663413"><ele>570.0</ele><time>2026-05-03T09:24:23.128Z</time></trkpt><trkpt lat="43.9900318" lon="6.7664813"><ele>570.0</ele><time>2026-05-03T09:24:24.128Z</time></trkpt><trkpt lat="43.9901541" lon="6.7666161"><ele>569.0</ele><time>2026-05-03T09:24:25.128Z</time></trkpt><trkpt lat="43.990278" lon="6.7667304"><ele>568.0</ele><time>2026-05-03T09:24:26.128Z</time></trkpt><trkpt lat="43.9904316" lon="6.7668406"><ele>567.0</ele><time>2026-05-03T09:24:27.128Z</time></trkpt><trkpt lat="43.9905763" lon="6.7669219"><ele>567.0</ele><time>2026-05-03T09:24:28.127Z</time></trkpt><trkpt lat="43.990726" lon="6.7670188"><ele>567.0</ele><time>2026-05-03T09:24:29.128Z</time></trkpt><trkpt lat="43.9908832" lon="6.767134"><ele>567.0</ele><time>2026-05-03T09:24:30.128Z</time></trkpt><trkpt lat="43.9910363" lon="6.7672416"><ele>573.6666666666666</ele><time>2026-05-03T09:24:31.128Z</time></trkpt><trkpt lat="43.9911918" lon="6.7673469"><ele>580.3333333333333</ele><time>2026-05-03T09:24:32.128Z</time></trkpt><trkpt lat="43.9913443" lon="6.7674485"><ele>587.0</ele><time>2026-05-03T09:24:33.128Z</time></trkpt><trkpt lat="43.9914796" lon="6.7675772"><ele>588.0</ele><time>2026-05-03T09:24:34.128Z</time></trkpt><trkpt lat="43.9916061" lon="6.7677188"><ele>589.0</ele><time>2026-05-03T09:24:35.128Z</time></trkpt><trkpt lat="43.9917326" lon="6.76787"><ele>590.0</ele><time>2026-05-03T09:24:36.128Z</time></trkpt><trkpt lat="43.991857" lon="6.7680331"><ele>590.0</ele><time>2026-05-03T09:24:37.128Z</time></trkpt><trkpt lat="43.9919961" lon="6.7682371"><ele>590.0</ele><time>2026-05-03T09:24:38.128Z</time></trkpt><trkpt lat="43.992095" lon="6.768417"><ele>590.0</ele><time>2026-05-03T09:24:39.128Z</time></trkpt><trkpt lat="43.9921995" lon="6.768586"><ele>589.6666666666666</ele><time>2026-05-03T09:24:40.128Z</time></trkpt><trkpt lat="43.9923209" lon="6.7687394"><ele>589.3333333333334</ele><time>2026-05-03T09:24:41.127Z</time></trkpt><trkpt lat="43.9924394" lon="6.7688793"><ele>589.0</ele><time>2026-05-03T09:24:42.127Z</time></trkpt><trkpt lat="43.99258" lon="6.7690211"><ele>589.0</ele><time>2026-05-03T09:24:43.128Z</time></trkpt><trkpt lat="43.9927271" lon="6.7691538"><ele>589.0</ele><time>2026-05-03T09:24:44.128Z</time></trkpt><trkpt lat="43.9928711" lon="6.7692745"><ele>589.0</ele><time>2026-05-03T09:24:45.128Z</time></trkpt><trkpt lat="43.992997" lon="6.7693864"><ele>586.75</ele><time>2026-05-03T09:24:46.128Z</time></trkpt><trkpt lat="43.9931177" lon="6.7695044"><ele>584.5</ele><time>2026-05-03T09:24:47.128Z</time></trkpt><trkpt lat="43.9932321" lon="6.7696226"><ele>582.25</ele><time>2026-05-03T09:24:48.127Z</time></trkpt><trkpt lat="43.9933326" lon="6.7697607"><ele>580.0</ele><time>2026-05-03T09:24:49.128Z</time></trkpt><trkpt lat="43.9934176" lon="6.7699309"><ele>580.0</ele><time>2026-05-03T09:24:50.128Z</time></trkpt><trkpt lat="43.9934971" lon="6.7701279"><ele>580.0</ele><time>2026-05-03T09:24:51.128Z</time></trkpt><trkpt lat="43.9935606" lon="6.7703358"><ele>580.0</ele><time>2026-05-03T09:24:52.128Z</time></trkpt><trkpt lat="43.9936447" lon="6.7705578"><ele>583.3333333333334</ele><time>2026-05-03T09:24:53.127Z</time></trkpt><trkpt lat="43.9937248" lon="6.7707717"><ele>586.6666666666666</ele><time>2026-05-03T09:24:54.128Z</time></trkpt><trkpt lat="43.9937969" lon="6.7709868"><ele>590.0</ele><time>2026-05-03T09:24:55.128Z</time></trkpt><trkpt lat="43.9938579" lon="6.7711979"><ele>590.0</ele><time>2026-05-03T09:24:56.128Z</time></trkpt><trkpt lat="43.9939128" lon="6.771416"><ele>590.0</ele><time>2026-05-03T09:24:57.127Z</time></trkpt><trkpt lat="43.9939892" lon="6.7716316"><ele>590.0</ele><time>2026-05-03T09:24:58.128Z</time></trkpt><trkpt lat="43.994054" lon="6.7718574"><ele>585.3333333333333</ele><time>2026-05-03T09:24:59.128Z</time></trkpt><trkpt lat="43.9941257" lon="6.7720755"><ele>580.6666666666666</ele><time>2026-05-03T09:25:00.128Z</time></trkpt><trkpt lat="43.9942028" lon="6.7722946"><ele>576.0</ele><time>2026-05-03T09:25:01.128Z</time></trkpt><trkpt lat="43.9942818" lon="6.7725042"><ele>582.6666666666666</ele><time>2026-05-03T09:25:02.128Z</time></trkpt><trkpt lat="43.9943641" lon="6.7727253"><ele>589.3333333333333</ele><time>2026-05-03T09:25:03.128Z</time></trkpt><trkpt lat="43.9944474" lon="6.7729334"><ele>596.0</ele><time>2026-05-03T09:25:04.128Z</time></trkpt><trkpt lat="43.9945395" lon="6.7731289"><ele>596.0</ele><time>2026-05-03T09:25:05.128Z</time></trkpt><trkpt lat="43.9946596" lon="6.7733119"><ele>596.0</ele><time>2026-05-03T09:25:06.128Z</time></trkpt><trkpt lat="43.9947858" lon="6.7734842"><ele>596.0</ele><time>2026-05-03T09:25:07.128Z</time></trkpt><trkpt lat="43.994925" lon="6.7736381"><ele>596.6666666666666</ele><time>2026-05-03T09:25:08.128Z</time></trkpt><trkpt lat="43.9950773" lon="6.773769"><ele>597.3333333333334</ele><time>2026-05-03T09:25:09.128Z</time></trkpt><trkpt lat="43.9952369" lon="6.7738819"><ele>598.0</ele><time>2026-05-03T09:25:10.128Z</time></trkpt><trkpt lat="43.9953981" lon="6.7739963"><ele>598.0</ele><time>2026-05-03T09:25:11.128Z</time></trkpt><trkpt lat="43.9955543" lon="6.7741114"><ele>598.0</ele><time>2026-05-03T09:25:12.128Z</time></trkpt><trkpt lat="43.9957078" lon="6.7742499"><ele>598.0</ele><time>2026-05-03T09:25:13.127Z</time></trkpt><trkpt lat="43.9958506" lon="6.7744368"><ele>599.0</ele><time>2026-05-03T09:25:14.128Z</time></trkpt><trkpt lat="43.9959881" lon="6.7745997"><ele>600.0</ele><time>2026-05-03T09:25:15.128Z</time></trkpt><trkpt lat="43.9961273" lon="6.7747672"><ele>601.0</ele><time>2026-05-03T09:25:16.128Z</time></trkpt><trkpt lat="43.9962608" lon="6.7749337"><ele>601.0</ele><time>2026-05-03T09:25:17.127Z</time></trkpt><trkpt lat="43.9963981" lon="6.7750957"><ele>601.0</ele><time>2026-05-03T09:25:18.128Z</time></trkpt><trkpt lat="43.9965198" lon="6.775236"><ele>601.0</ele><time>2026-05-03T09:25:19.128Z</time></trkpt><trkpt lat="43.9966441" lon="6.7753645"><ele>601.0</ele><time>2026-05-03T09:25:20.128Z</time></trkpt><trkpt lat="43.9967646" lon="6.7754906"><ele>601.0</ele><time>2026-05-03T09:25:21.127Z</time></trkpt><trkpt lat="43.9968697" lon="6.775601"><ele>601.0</ele><time>2026-05-03T09:25:22.128Z</time></trkpt><trkpt lat="43.9969783" lon="6.775718"><ele>601.0</ele><time>2026-05-03T09:25:23.128Z</time></trkpt><trkpt lat="43.9970924" lon="6.7758328"><ele>601.0</ele><time>2026-05-03T09:25:24.128Z</time></trkpt><trkpt lat="43.9971899" lon="6.7759572"><ele>601.0</ele><time>2026-05-03T09:25:25.127Z</time></trkpt><trkpt lat="43.997274" lon="6.7760847"><ele>601.0</ele><time>2026-05-03T09:25:26.128Z</time></trkpt><trkpt lat="43.9973755" lon="6.7762731"><ele>601.0</ele><time>2026-05-03T09:25:27.128Z</time></trkpt><trkpt lat="43.9974537" lon="6.776423"><ele>599.0</ele><time>2026-05-03T09:25:28.128Z</time></trkpt><trkpt lat="43.9975437" lon="6.776546"><ele>597.0</ele><time>2026-05-03T09:25:29.128Z</time></trkpt><trkpt lat="43.9976282" lon="6.7766698"><ele>595.0</ele><time>2026-05-03T09:25:30.128Z</time></trkpt><trkpt lat="43.9977129" lon="6.7767984"><ele>593.0</ele><time>2026-05-03T09:25:31.128Z</time></trkpt><trkpt lat="43.9977784" lon="6.7769443"><ele>592.5</ele><time>2026-05-03T09:25:32.127Z</time></trkpt><trkpt lat="43.9978302" lon="6.7770822"><ele>592.0</ele><time>2026-05-03T09:25:33.128Z</time></trkpt><trkpt lat="43.9979018" lon="6.7772201"><ele>591.5</ele><time>2026-05-03T09:25:34.128Z</time></trkpt><trkpt lat="43.9979951" lon="6.7773365"><ele>591.0</ele><time>2026-05-03T09:25:35.128Z</time></trkpt><trkpt lat="43.998086" lon="6.7774421"><ele>591.0</ele><time>2026-05-03T09:25:36.128Z</time></trkpt><trkpt lat="43.9981892" lon="6.77752"><ele>591.0</ele><time>2026-05-03T09:25:37.128Z</time></trkpt><trkpt lat="43.9983248" lon="6.7775989"><ele>591.0</ele><time>2026-05-03T09:25:38.128Z</time></trkpt><trkpt lat="43.9984483" lon="6.7776924"><ele>591.0</ele><time>2026-05-03T09:25:39.128Z</time></trkpt><trkpt lat="43.9985492" lon="6.7778282"><ele>593.0</ele><time>2026-05-03T09:25:40.128Z</time></trkpt><trkpt lat="43.998652" lon="6.7779738"><ele>595.0</ele><time>2026-05-03T09:25:41.128Z</time></trkpt><trkpt lat="43.9987398" lon="6.7781397"><ele>597.0</ele><time>2026-05-03T09:25:42.128Z</time></trkpt><trkpt lat="43.9988187" lon="6.7783119"><ele>599.0</ele><time>2026-05-03T09:25:43.128Z</time></trkpt><trkpt lat="43.9989309" lon="6.7785225"><ele>599.0</ele><time>2026-05-03T09:25:44.127Z</time></trkpt><trkpt lat="43.9990213" lon="6.778714"><ele>599.0</ele><time>2026-05-03T09:25:45.128Z</time></trkpt><trkpt lat="43.9991051" lon="6.7789112"><ele>599.0</ele><time>2026-05-03T09:25:46.128Z</time></trkpt><trkpt lat="43.999191" lon="6.779118"><ele>606.0</ele><time>2026-05-03T09:25:47.127Z</time></trkpt><trkpt lat="43.9992607" lon="6.7793106"><ele>613.0</ele><time>2026-05-03T09:25:48.128Z</time></trkpt><trkpt lat="43.9993755" lon="6.7795285"><ele>620.0</ele><time>2026-05-03T09:25:49.127Z</time></trkpt><trkpt lat="43.9994743" lon="6.7797331"><ele>620.0</ele><time>2026-05-03T09:25:50.127Z</time></trkpt><trkpt lat="43.9995923" lon="6.7799462"><ele>620.0</ele><time>2026-05-03T09:25:51.128Z</time></trkpt><trkpt lat="43.9996979" lon="6.7801507"><ele>620.0</ele><time>2026-05-03T09:25:52.127Z</time></trkpt><trkpt lat="43.9998103" lon="6.7803697"><ele>614.0</ele><time>2026-05-03T09:25:53.128Z</time></trkpt><trkpt lat="43.9999062" lon="6.7805709"><ele>608.0</ele><time>2026-05-03T09:25:54.127Z</time></trkpt><trkpt lat="43.9999839" lon="6.7807813"><ele>602.0</ele><time>2026-05-03T09:25:55.128Z</time></trkpt><trkpt lat="44.0000538" lon="6.7809809"><ele>597.6666666666666</ele><time>2026-05-03T09:25:56.128Z</time></trkpt><trkpt lat="44.0001187" lon="6.7811814"><ele>593.3333333333334</ele><time>2026-05-03T09:25:57.128Z</time></trkpt><trkpt lat="44.0001738" lon="6.7813955"><ele>589.0</ele><time>2026-05-03T09:25:58.128Z</time></trkpt><trkpt lat="44.0002406" lon="6.7815974"><ele>589.0</ele><time>2026-05-03T09:25:59.128Z</time></trkpt><trkpt lat="44.0003047" lon="6.7817871"><ele>589.0</ele><time>2026-05-03T09:26:00.127Z</time></trkpt><trkpt lat="44.0003902" lon="6.7819686"><ele>589.0</ele><time>2026-05-03T09:26:01.128Z</time></trkpt><trkpt lat="44.0004959" lon="6.7821357"><ele>589.3333333333334</ele><time>2026-05-03T09:26:02.128Z</time></trkpt><trkpt lat="44.0006121" lon="6.7822909"><ele>589.6666666666666</ele><time>2026-05-03T09:26:03.128Z</time></trkpt><trkpt lat="44.0007261" lon="6.782421"><ele>590.0</ele><time>2026-05-03T09:26:04.128Z</time></trkpt><trkpt lat="44.0008713" lon="6.7825395"><ele>590.0</ele><time>2026-05-03T09:26:05.128Z</time></trkpt><trkpt lat="44.0010032" lon="6.7826577"><ele>590.0</ele><time>2026-05-03T09:26:06.128Z</time></trkpt><trkpt lat="44.0011672" lon="6.7827519"><ele>590.0</ele><time>2026-05-03T09:26:07.128Z</time></trkpt><trkpt lat="44.0013403" lon="6.7827891"><ele>590.6666666666666</ele><time>2026-05-03T09:26:08.128Z</time></trkpt><trkpt lat="44.0015097" lon="6.7828667"><ele>591.3333333333334</ele><time>2026-05-03T09:26:09.128Z</time></trkpt><trkpt lat="44.0016623" lon="6.7829654"><ele>592.0</ele><time>2026-05-03T09:26:10.128Z</time></trkpt><trkpt lat="44.0018067" lon="6.7830836"><ele>592.0</ele><time>2026-05-03T09:26:11.128Z</time></trkpt><trkpt lat="44.0019443" lon="6.7832095"><ele>592.0</ele><time>2026-05-03T09:26:12.128Z</time></trkpt><trkpt lat="44.0020795" lon="6.7833437"><ele>592.0</ele><time>2026-05-03T09:26:13.128Z</time></trkpt><trkpt lat="44.0021875" lon="6.7834942"><ele>589.6666666666667</ele><time>2026-05-03T09:26:14.128Z</time></trkpt><trkpt lat="44.0022693" lon="6.7837339"><ele>587.3333333333334</ele><time>2026-05-03T09:26:15.128Z</time></trkpt><trkpt lat="44.0023512" lon="6.7839412"><ele>585.0</ele><time>2026-05-03T09:26:16.128Z</time></trkpt><trkpt lat="44.0024334" lon="6.7841419"><ele>588.3333333333334</ele><time>2026-05-03T09:26:17.128Z</time></trkpt><trkpt lat="44.0025064" lon="6.7843522"><ele>591.6666666666667</ele><time>2026-05-03T09:26:18.127Z</time></trkpt><trkpt lat="44.0025789" lon="6.7845667"><ele>595.0</ele><time>2026-05-03T09:26:19.128Z</time></trkpt><trkpt lat="44.0026338" lon="6.7847748"><ele>595.0</ele><time>2026-05-03T09:26:20.127Z</time></trkpt><trkpt lat="44.0027084" lon="6.7849768"><ele>595.0</ele><time>2026-05-03T09:26:21.128Z</time></trkpt><trkpt lat="44.0027963" lon="6.7851608"><ele>595.0</ele><time>2026-05-03T09:26:22.128Z</time></trkpt><trkpt lat="44.0028844" lon="6.7853543"><ele>593.0</ele><time>2026-05-03T09:26:23.128Z</time></trkpt><trkpt lat="44.002975" lon="6.7855418"><ele>591.0</ele><time>2026-05-03T09:26:24.128Z</time></trkpt><trkpt lat="44.0031353" lon="6.7856309"><ele>589.0</ele><time>2026-05-03T09:26:25.128Z</time></trkpt><trkpt lat="44.0032851" lon="6.7857411"><ele>589.3333333333334</ele><time>2026-05-03T09:26:26.128Z</time></trkpt><trkpt lat="44.0034592" lon="6.7858261"><ele>589.6666666666666</ele><time>2026-05-03T09:26:27.128Z</time></trkpt><trkpt lat="44.003624" lon="6.7859285"><ele>590.0</ele><time>2026-05-03T09:26:28.128Z</time></trkpt><trkpt lat="44.0037827" lon="6.7860505"><ele>590.0</ele><time>2026-05-03T09:26:29.128Z</time></trkpt><trkpt lat="44.0039422" lon="6.7861968"><ele>590.0</ele><time>2026-05-03T09:26:30.128Z</time></trkpt><trkpt lat="44.0041098" lon="6.7863574"><ele>590.0</ele><time>2026-05-03T09:26:31.128Z</time></trkpt><trkpt lat="44.0042703" lon="6.7865146"><ele>590.6666666666666</ele><time>2026-05-03T09:26:32.128Z</time></trkpt><trkpt lat="44.0044291" lon="6.7866729"><ele>591.3333333333334</ele><time>2026-05-03T09:26:33.127Z</time></trkpt><trkpt lat="44.0045748" lon="6.7868347"><ele>592.0</ele><time>2026-05-03T09:26:34.128Z</time></trkpt><trkpt lat="44.0047264" lon="6.7869836"><ele>592.0</ele><time>2026-05-03T09:26:35.127Z</time></trkpt><trkpt lat="44.0048567" lon="6.7871534"><ele>592.0</ele><time>2026-05-03T09:26:36.128Z</time></trkpt><trkpt lat="44.0049884" lon="6.7873206"><ele>592.0</ele><time>2026-05-03T09:26:37.128Z</time></trkpt><trkpt lat="44.0051164" lon="6.7874672"><ele>594.3333333333334</ele><time>2026-05-03T09:26:38.127Z</time></trkpt><trkpt lat="44.0052206" lon="6.7876708"><ele>596.6666666666666</ele><time>2026-05-03T09:26:39.128Z</time></trkpt><trkpt lat="44.0053154" lon="6.7878689"><ele>599.0</ele><time>2026-05-03T09:26:40.128Z</time></trkpt><trkpt lat="44.0054033" lon="6.7880753"><ele>599.0</ele><time>2026-05-03T09:26:41.128Z</time></trkpt><trkpt lat="44.0054989" lon="6.7882988"><ele>599.0</ele><time>2026-05-03T09:26:42.128Z</time></trkpt><trkpt lat="44.0055913" lon="6.7885035"><ele>599.0</ele><time>2026-05-03T09:26:43.128Z</time></trkpt><trkpt lat="44.0056859" lon="6.788727"><ele>597.3333333333333</ele><time>2026-05-03T09:26:44.128Z</time></trkpt><trkpt lat="44.0057823" lon="6.7889395"><ele>595.6666666666666</ele><time>2026-05-03T09:26:45.128Z</time></trkpt><trkpt lat="44.0058763" lon="6.7891658"><ele>594.0</ele><time>2026-05-03T09:26:46.127Z</time></trkpt><trkpt lat="44.0059699" lon="6.7893811"><ele>597.6666666666666</ele><time>2026-05-03T09:26:47.128Z</time></trkpt><trkpt lat="44.0060539" lon="6.7896009"><ele>601.3333333333333</ele><time>2026-05-03T09:26:48.127Z</time></trkpt><trkpt lat="44.0061456" lon="6.7898251"><ele>605.0</ele><time>2026-05-03T09:26:49.128Z</time></trkpt><trkpt lat="44.0062297" lon="6.7900389"><ele>603.6666666666666</ele><time>2026-05-03T09:26:50.127Z</time></trkpt><trkpt lat="44.0063142" lon="6.7902456"><ele>602.3333333333334</ele><time>2026-05-03T09:26:51.128Z</time></trkpt><trkpt lat="44.0063917" lon="6.7904659"><ele>601.0</ele><time>2026-05-03T09:26:52.128Z</time></trkpt><trkpt lat="44.006446" lon="6.7906908"><ele>601.0</ele><time>2026-05-03T09:26:53.128Z</time></trkpt><trkpt lat="44.0064682" lon="6.7909304"><ele>601.0</ele><time>2026-05-03T09:26:54.128Z</time></trkpt><trkpt lat="44.0065243" lon="6.7911518"><ele>601.0</ele><time>2026-05-03T09:26:55.128Z</time></trkpt><trkpt lat="44.0065885" lon="6.7913665"><ele>600.6666666666667</ele><time>2026-05-03T09:26:56.128Z</time></trkpt><trkpt lat="44.0066857" lon="6.7915537"><ele>600.3333333333334</ele><time>2026-05-03T09:26:57.128Z</time></trkpt><trkpt lat="44.0067854" lon="6.7917475"><ele>600.0</ele><time>2026-05-03T09:26:58.128Z</time></trkpt><trkpt lat="44.0068848" lon="6.7919387"><ele>600.0</ele><time>2026-05-03T09:26:59.128Z</time></trkpt><trkpt lat="44.0069845" lon="6.7921233"><ele>600.0</ele><time>2026-05-03T09:27:00.128Z</time></trkpt><trkpt lat="44.0070872" lon="6.7922942"><ele>600.0</ele><time>2026-05-03T09:27:01.128Z</time></trkpt><trkpt lat="44.0071979" lon="6.7924392"><ele>600.0</ele><time>2026-05-03T09:27:02.128Z</time></trkpt><trkpt lat="44.0073169" lon="6.7925758"><ele>600.0</ele><time>2026-05-03T09:27:03.128Z</time></trkpt><trkpt lat="44.0074063" lon="6.7927212"><ele>600.0</ele><time>2026-05-03T09:27:04.128Z</time></trkpt><trkpt lat="44.0074848" lon="6.7928939"><ele>600.0</ele><time>2026-05-03T09:27:05.128Z</time></trkpt><trkpt lat="44.0075495" lon="6.7930793"><ele>601.6666666666666</ele><time>2026-05-03T09:27:06.128Z</time></trkpt><trkpt lat="44.0076348" lon="6.7932939"><ele>603.3333333333333</ele><time>2026-05-03T09:27:07.128Z</time></trkpt><trkpt lat="44.0077369" lon="6.7935078"><ele>605.0</ele><time>2026-05-03T09:27:08.128Z</time></trkpt><trkpt lat="44.0078358" lon="6.7937191"><ele>605.0</ele><time>2026-05-03T09:27:09.128Z</time></trkpt><trkpt lat="44.007938" lon="6.7939213"><ele>605.0</ele><time>2026-05-03T09:27:10.128Z</time></trkpt><trkpt lat="44.0080404" lon="6.7941281"><ele>605.0</ele><time>2026-05-03T09:27:11.127Z</time></trkpt><trkpt lat="44.0081489" lon="6.794334"><ele>603.6666666666666</ele><time>2026-05-03T09:27:12.128Z</time></trkpt><trkpt lat="44.0082567" lon="6.7945357"><ele>602.3333333333334</ele><time>2026-05-03T09:27:13.128Z</time></trkpt><trkpt lat="44.0083738" lon="6.7947319"><ele>601.0</ele><time>2026-05-03T09:27:14.127Z</time></trkpt><trkpt lat="44.0084942" lon="6.7949226"><ele>601.6666666666667</ele><time>2026-05-03T09:27:15.128Z</time></trkpt><trkpt lat="44.0086128" lon="6.7951164"><ele>602.3333333333334</ele><time>2026-05-03T09:27:16.128Z</time></trkpt><trkpt lat="44.0087413" lon="6.7952975"><ele>603.0</ele><time>2026-05-03T09:27:17.128Z</time></trkpt><trkpt lat="44.0088746" lon="6.7954724"><ele>603.0</ele><time>2026-05-03T09:27:18.128Z</time></trkpt><trkpt lat="44.0090051" lon="6.7956425"><ele>603.0</ele><time>2026-05-03T09:27:19.127Z</time></trkpt><trkpt lat="44.0091429" lon="6.7958046"><ele>603.0</ele><time>2026-05-03T09:27:20.128Z</time></trkpt><trkpt lat="44.0092701" lon="6.7959711"><ele>605.0</ele><time>2026-05-03T09:27:21.128Z</time></trkpt><trkpt lat="44.0093669" lon="6.7961487"><ele>607.0</ele><time>2026-05-03T09:27:22.128Z</time></trkpt><trkpt lat="44.0094729" lon="6.7963377"><ele>609.0</ele><time>2026-05-03T09:27:23.128Z</time></trkpt><trkpt lat="44.0095729" lon="6.7965252"><ele>609.0</ele><time>2026-05-03T09:27:24.128Z</time></trkpt><trkpt lat="44.0096889" lon="6.7967123"><ele>609.0</ele><time>2026-05-03T09:27:25.128Z</time></trkpt><trkpt lat="44.0098014" lon="6.7969046"><ele>609.0</ele><time>2026-05-03T09:27:26.128Z</time></trkpt><trkpt lat="44.0099261" lon="6.7970892"><ele>612.0</ele><time>2026-05-03T09:27:27.128Z</time></trkpt><trkpt lat="44.0100395" lon="6.7972682"><ele>615.0</ele><time>2026-05-03T09:27:28.127Z</time></trkpt><trkpt lat="44.0101753" lon="6.7974439"><ele>618.0</ele><time>2026-05-03T09:27:29.127Z</time></trkpt><trkpt lat="44.0103065" lon="6.7976181"><ele>614.0</ele><time>2026-05-03T09:27:30.128Z</time></trkpt><trkpt lat="44.0104404" lon="6.7977767"><ele>610.0</ele><time>2026-05-03T09:27:31.128Z</time></trkpt><trkpt lat="44.0105757" lon="6.7979281"><ele>606.0</ele><time>2026-05-03T09:27:32.128Z</time></trkpt><trkpt lat="44.0107065" lon="6.7980698"><ele>613.0</ele><time>2026-05-03T09:27:33.128Z</time></trkpt><trkpt lat="44.0108507" lon="6.7982127"><ele>620.0</ele><time>2026-05-03T09:27:34.128Z</time></trkpt><trkpt lat="44.0110164" lon="6.7983275"><ele>627.0</ele><time>2026-05-03T09:27:35.128Z</time></trkpt><trkpt lat="44.0111719" lon="6.7984382"><ele>620.6666666666666</ele><time>2026-05-03T09:27:36.127Z</time></trkpt><trkpt lat="44.0113256" lon="6.7985605"><ele>614.3333333333333</ele><time>2026-05-03T09:27:37.128Z</time></trkpt><trkpt lat="44.0114763" lon="6.7986909"><ele>608.0</ele><time>2026-05-03T09:27:38.128Z</time></trkpt><trkpt lat="44.0116346" lon="6.7988345"><ele>608.0</ele><time>2026-05-03T09:27:39.128Z</time></trkpt><trkpt lat="44.0117542" lon="6.7989976"><ele>608.0</ele><time>2026-05-03T09:27:40.128Z</time></trkpt><trkpt lat="44.0118764" lon="6.7991724"><ele>608.0</ele><time>2026-05-03T09:27:41.128Z</time></trkpt><trkpt lat="44.0119891" lon="6.7993557"><ele>608.0</ele><time>2026-05-03T09:27:42.128Z</time></trkpt><trkpt lat="44.0121041" lon="6.7995496"><ele>608.0</ele><time>2026-05-03T09:27:43.128Z</time></trkpt><trkpt lat="44.0122063" lon="6.7997421"><ele>608.0</ele><time>2026-05-03T09:27:44.127Z</time></trkpt><trkpt lat="44.0122964" lon="6.7999486"><ele>608.0</ele><time>2026-05-03T09:27:45.128Z</time></trkpt><trkpt lat="44.0123707" lon="6.800158"><ele>608.0</ele><time>2026-05-03T09:27:46.128Z</time></trkpt><trkpt lat="44.0124343" lon="6.8003469"><ele>608.0</ele><time>2026-05-03T09:27:47.128Z</time></trkpt><trkpt lat="44.012515" lon="6.8005129"><ele>610.25</ele><time>2026-05-03T09:27:48.128Z</time></trkpt><trkpt lat="44.0126017" lon="6.8006699"><ele>612.5</ele><time>2026-05-03T09:27:49.127Z</time></trkpt><trkpt lat="44.0126703" lon="6.8008312"><ele>614.75</ele><time>2026-05-03T09:27:50.128Z</time></trkpt><trkpt lat="44.0127303" lon="6.8010018"><ele>617.0</ele><time>2026-05-03T09:27:51.128Z</time></trkpt><trkpt lat="44.0127712" lon="6.8011827"><ele>617.0</ele><time>2026-05-03T09:27:52.128Z</time></trkpt><trkpt lat="44.0128385" lon="6.8013396"><ele>617.0</ele><time>2026-05-03T09:27:53.128Z</time></trkpt><trkpt lat="44.0129014" lon="6.8015119"><ele>617.0</ele><time>2026-05-03T09:27:54.128Z</time></trkpt><trkpt lat="44.0129511" lon="6.8017057"><ele>617.0</ele><time>2026-05-03T09:27:55.128Z</time></trkpt><trkpt lat="44.0130109" lon="6.8018959"><ele>615.75</ele><time>2026-05-03T09:27:56.128Z</time></trkpt><trkpt lat="44.0130931" lon="6.8020637"><ele>614.5</ele><time>2026-05-03T09:27:57.128Z</time></trkpt><trkpt lat="44.013182" lon="6.802189"><ele>613.25</ele><time>2026-05-03T09:27:58.128Z</time></trkpt><trkpt lat="44.0133049" lon="6.8022949"><ele>612.0</ele><time>2026-05-03T09:27:59.127Z</time></trkpt><trkpt lat="44.0134466" lon="6.8023852"><ele>612.3333333333334</ele><time>2026-05-03T09:28:00.128Z</time></trkpt><trkpt lat="44.0135899" lon="6.8024874"><ele>612.6666666666667</ele><time>2026-05-03T09:28:01.128Z</time></trkpt><trkpt lat="44.0137468" lon="6.8025935"><ele>613.0</ele><time>2026-05-03T09:28:02.128Z</time></trkpt><trkpt lat="44.0139091" lon="6.8026797"><ele>613.0</ele><time>2026-05-03T09:28:03.128Z</time></trkpt><trkpt lat="44.0140635" lon="6.8027551"><ele>613.0</ele><time>2026-05-03T09:28:04.128Z</time></trkpt><trkpt lat="44.0142105" lon="6.8028307"><ele>613.0</ele><time>2026-05-03T09:28:05.128Z</time></trkpt><trkpt lat="44.0143487" lon="6.802924"><ele>614.75</ele><time>2026-05-03T09:28:06.128Z</time></trkpt><trkpt lat="44.0144936" lon="6.803023"><ele>616.5</ele><time>2026-05-03T09:28:07.128Z</time></trkpt><trkpt lat="44.0145624" lon="6.8031567"><ele>618.25</ele><time>2026-05-03T09:28:08.128Z</time></trkpt><trkpt lat="44.0146205" lon="6.8033196"><ele>620.0</ele><time>2026-05-03T09:28:09.128Z</time></trkpt><trkpt lat="44.0146755" lon="6.803485"><ele>620.75</ele><time>2026-05-03T09:28:10.127Z</time></trkpt><trkpt lat="44.0147564" lon="6.8036097"><ele>621.5</ele><time>2026-05-03T09:28:11.127Z</time></trkpt><trkpt lat="44.014842" lon="6.8037255"><ele>622.25</ele><time>2026-05-03T09:28:12.128Z</time></trkpt><trkpt lat="44.0149809" lon="6.8038035"><ele>623.0</ele><time>2026-05-03T09:28:13.128Z</time></trkpt><trkpt lat="44.0151291" lon="6.8038699"><ele>623.0</ele><time>2026-05-03T09:28:14.128Z</time></trkpt><trkpt lat="44.015256" lon="6.8039589"><ele>623.0</ele><time>2026-05-03T09:28:15.127Z</time></trkpt><trkpt lat="44.0153816" lon="6.8041159"><ele>623.0</ele><time>2026-05-03T09:28:16.128Z</time></trkpt><trkpt lat="44.0155026" lon="6.8042711"><ele>624.3333333333333</ele><time>2026-05-03T09:28:17.128Z</time></trkpt><trkpt lat="44.0156018" lon="6.8044377"><ele>625.6666666666666</ele><time>2026-05-03T09:28:18.128Z</time></trkpt><trkpt lat="44.0157133" lon="6.8045841"><ele>627.0</ele><time>2026-05-03T09:28:19.128Z</time></trkpt><trkpt lat="44.0158434" lon="6.8047077"><ele>627.0</ele><time>2026-05-03T09:28:20.127Z</time></trkpt><trkpt lat="44.0159953" lon="6.8048013"><ele>627.0</ele><time>2026-05-03T09:28:21.127Z</time></trkpt><trkpt lat="44.0161386" lon="6.804915"><ele>627.0</ele><time>2026-05-03T09:28:22.128Z</time></trkpt><trkpt lat="44.0162631" lon="6.8050397"><ele>624.0</ele><time>2026-05-03T09:28:23.128Z</time></trkpt><trkpt lat="44.0163922" lon="6.8052004"><ele>621.0</ele><time>2026-05-03T09:28:24.128Z</time></trkpt><trkpt lat="44.0165081" lon="6.8053424"><ele>618.0</ele><time>2026-05-03T09:28:25.127Z</time></trkpt><trkpt lat="44.0166221" lon="6.8055023"><ele>620.75</ele><time>2026-05-03T09:28:26.127Z</time></trkpt><trkpt lat="44.0166803" lon="6.8056559"><ele>623.5</ele><time>2026-05-03T09:28:27.128Z</time></trkpt><trkpt lat="44.0167487" lon="6.8058358"><ele>626.25</ele><time>2026-05-03T09:28:28.128Z</time></trkpt><trkpt lat="44.016781" lon="6.8060523"><ele>629.0</ele><time>2026-05-03T09:28:29.128Z</time></trkpt><trkpt lat="44.0168219" lon="6.8062547"><ele>629.0</ele><time>2026-05-03T09:28:30.128Z</time></trkpt><trkpt lat="44.016885" lon="6.806443"><ele>629.0</ele><time>2026-05-03T09:28:31.128Z</time></trkpt><trkpt lat="44.0169588" lon="6.8066222"><ele>629.0</ele><time>2026-05-03T09:28:32.128Z</time></trkpt><trkpt lat="44.0170396" lon="6.806812"><ele>627.5</ele><time>2026-05-03T09:28:33.128Z</time></trkpt><trkpt lat="44.0170822" lon="6.8069907"><ele>626.0</ele><time>2026-05-03T09:28:34.128Z</time></trkpt><trkpt lat="44.0171358" lon="6.8071535"><ele>624.5</ele><time>2026-05-03T09:28:35.128Z</time></trkpt><trkpt lat="44.0172085" lon="6.8073058"><ele>623.0</ele><time>2026-05-03T09:28:36.128Z</time></trkpt><trkpt lat="44.0172886" lon="6.8074292"><ele>623.0</ele><time>2026-05-03T09:28:37.128Z</time></trkpt><trkpt lat="44.017394" lon="6.8075333"><ele>623.0</ele><time>2026-05-03T09:28:38.128Z</time></trkpt><trkpt lat="44.0175066" lon="6.8076219"><ele>623.0</ele><time>2026-05-03T09:28:39.128Z</time></trkpt><trkpt lat="44.0176174" lon="6.8077223"><ele>623.0</ele><time>2026-05-03T09:28:40.128Z</time></trkpt><trkpt lat="44.0176997" lon="6.8078425"><ele>624.4</ele><time>2026-05-03T09:28:41.127Z</time></trkpt><trkpt lat="44.0177753" lon="6.807972"><ele>625.8</ele><time>2026-05-03T09:28:42.128Z</time></trkpt><trkpt lat="44.0178313" lon="6.8080975"><ele>627.2</ele><time>2026-05-03T09:28:43.128Z</time></trkpt><trkpt lat="44.0178891" lon="6.808219"><ele>628.6</ele><time>2026-05-03T09:28:44.128Z</time></trkpt><trkpt lat="44.0179535" lon="6.8083329"><ele>630.0</ele><time>2026-05-03T09:28:45.128Z</time></trkpt><trkpt lat="44.0180018" lon="6.808441"><ele>630.6</ele><time>2026-05-03T09:28:46.128Z</time></trkpt><trkpt lat="44.0180825" lon="6.8085162"><ele>631.2</ele><time>2026-05-03T09:28:47.128Z</time></trkpt><trkpt lat="44.0181902" lon="6.8085442"><ele>631.8</ele><time>2026-05-03T09:28:48.127Z</time></trkpt><trkpt lat="44.0182747" lon="6.8085689"><ele>632.4</ele><time>2026-05-03T09:28:49.128Z</time></trkpt><trkpt lat="44.0183908" lon="6.8085064"><ele>633.0</ele><time>2026-05-03T09:28:50.128Z</time></trkpt><trkpt lat="44.0185012" lon="6.8083725"><ele>636.0</ele><time>2026-05-03T09:28:51.127Z</time></trkpt><trkpt lat="44.0185959" lon="6.8082634"><ele>639.0</ele><time>2026-05-03T09:28:52.128Z</time></trkpt><trkpt lat="44.0186909" lon="6.8081683"><ele>642.0</ele><time>2026-05-03T09:28:53.128Z</time></trkpt><trkpt lat="44.0188133" lon="6.808128"><ele>645.0</ele><time>2026-05-03T09:28:54.128Z</time></trkpt><trkpt lat="44.0189438" lon="6.8081016"><ele>645.0</ele><time>2026-05-03T09:28:55.128Z</time></trkpt><trkpt lat="44.0190829" lon="6.8080901"><ele>645.0</ele><time>2026-05-03T09:28:56.128Z</time></trkpt><trkpt lat="44.0192089" lon="6.8080892"><ele>645.0</ele><time>2026-05-03T09:28:57.128Z</time></trkpt><trkpt lat="44.0193588" lon="6.8081113"><ele>645.0</ele><time>2026-05-03T09:28:58.128Z</time></trkpt><trkpt lat="44.0194964" lon="6.808163"><ele>643.75</ele><time>2026-05-03T09:28:59.128Z</time></trkpt><trkpt lat="44.0196358" lon="6.8082391"><ele>642.5</ele><time>2026-05-03T09:29:00.128Z</time></trkpt><trkpt lat="44.0197635" lon="6.8083198"><ele>641.25</ele><time>2026-05-03T09:29:01.127Z</time></trkpt><trkpt lat="44.0198864" lon="6.808428"><ele>640.0</ele><time>2026-05-03T09:29:02.128Z</time></trkpt><trkpt lat="44.0200104" lon="6.8085223"><ele>637.75</ele><time>2026-05-03T09:29:03.127Z</time></trkpt><trkpt lat="44.0201474" lon="6.8085888"><ele>635.5</ele><time>2026-05-03T09:29:04.128Z</time></trkpt><trkpt lat="44.020289" lon="6.8085929"><ele>633.25</ele><time>2026-05-03T09:29:05.128Z</time></trkpt><trkpt lat="44.0204375" lon="6.8086012"><ele>631.0</ele><time>2026-05-03T09:29:06.128Z</time></trkpt><trkpt lat="44.0205821" lon="6.8086135"><ele>631.0</ele><time>2026-05-03T09:29:07.128Z</time></trkpt><trkpt lat="44.0207357" lon="6.8086161"><ele>631.0</ele><time>2026-05-03T09:29:08.127Z</time></trkpt><trkpt lat="44.0208453" lon="6.8086183"><ele>631.0</ele><time>2026-05-03T09:29:09.128Z</time></trkpt><trkpt lat="44.0209509" lon="6.8086269"><ele>631.0</ele><time>2026-05-03T09:29:10.128Z</time></trkpt><trkpt lat="44.0210559" lon="6.808686"><ele>632.5</ele><time>2026-05-03T09:29:11.128Z</time></trkpt><trkpt lat="44.0211547" lon="6.8087728"><ele>634.0</ele><time>2026-05-03T09:29:12.128Z</time></trkpt><trkpt lat="44.0212554" lon="6.8088674"><ele>635.5</ele><time>2026-05-03T09:29:13.128Z</time></trkpt><trkpt lat="44.0213689" lon="6.8089898"><ele>637.0</ele><time>2026-05-03T09:29:14.127Z</time></trkpt><trkpt lat="44.021479" lon="6.8091261"><ele>637.0</ele><time>2026-05-03T09:29:15.128Z</time></trkpt><trkpt lat="44.0215885" lon="6.8092516"><ele>637.0</ele><time>2026-05-03T09:29:16.128Z</time></trkpt><trkpt lat="44.0216836" lon="6.8093595"><ele>637.0</ele><time>2026-05-03T09:29:17.128Z</time></trkpt><trkpt lat="44.0217655" lon="6.809471"><ele>637.0</ele><time>2026-05-03T09:29:18.127Z</time></trkpt><trkpt lat="44.0218307" lon="6.809608"><ele>636.5</ele><time>2026-05-03T09:29:19.128Z</time></trkpt><trkpt lat="44.0218592" lon="6.8097555"><ele>636.0</ele><time>2026-05-03T09:29:20.128Z</time></trkpt><trkpt lat="44.0218676" lon="6.8099077"><ele>635.5</ele><time>2026-05-03T09:29:21.128Z</time></trkpt><trkpt lat="44.0219031" lon="6.8100723"><ele>635.0</ele><time>2026-05-03T09:29:22.128Z</time></trkpt><trkpt lat="44.0219669" lon="6.8102042"><ele>635.0</ele><time>2026-05-03T09:29:23.128Z</time></trkpt><trkpt lat="44.022045" lon="6.8102991"><ele>635.0</ele><time>2026-05-03T09:29:24.127Z</time></trkpt><trkpt lat="44.0221228" lon="6.8103853"><ele>635.0</ele><time>2026-05-03T09:29:25.127Z</time></trkpt><trkpt lat="44.0222125" lon="6.8104442"><ele>635.0</ele><time>2026-05-03T09:29:26.128Z</time></trkpt><trkpt lat="44.0223837" lon="6.8104301"><ele>638.5</ele><time>2026-05-03T09:29:27.128Z</time></trkpt><trkpt lat="44.0225145" lon="6.8104797"><ele>642.0</ele><time>2026-05-03T09:29:28.128Z</time></trkpt><trkpt lat="44.0226335" lon="6.8105689"><ele>645.5</ele><time>2026-05-03T09:29:29.127Z</time></trkpt><trkpt lat="44.0227446" lon="6.8106804"><ele>649.0</ele><time>2026-05-03T09:29:30.128Z</time></trkpt><trkpt lat="44.0228719" lon="6.8107821"><ele>649.0</ele><time>2026-05-03T09:29:31.127Z</time></trkpt><trkpt lat="44.0229877" lon="6.8108821"><ele>649.0</ele><time>2026-05-03T09:29:32.128Z</time></trkpt><trkpt lat="44.0231008" lon="6.8109459"><ele>649.0</ele><time>2026-05-03T09:29:33.128Z</time></trkpt><trkpt lat="44.0232417" lon="6.811016"><ele>649.0</ele><time>2026-05-03T09:29:34.128Z</time></trkpt><trkpt lat="44.0233901" lon="6.8110836"><ele>647.75</ele><time>2026-05-03T09:29:35.128Z</time></trkpt><trkpt lat="44.0235317" lon="6.8111502"><ele>646.5</ele><time>2026-05-03T09:29:36.128Z</time></trkpt><trkpt lat="44.0236664" lon="6.8112269"><ele>645.25</ele><time>2026-05-03T09:29:37.128Z</time></trkpt><trkpt lat="44.0238055" lon="6.8112739"><ele>644.0</ele><time>2026-05-03T09:29:38.128Z</time></trkpt><trkpt lat="44.0239318" lon="6.8113521"><ele>644.0</ele><time>2026-05-03T09:29:39.128Z</time></trkpt><trkpt lat="44.0240639" lon="6.8114512"><ele>644.0</ele><time>2026-05-03T09:29:40.128Z</time></trkpt><trkpt lat="44.024194" lon="6.8115387"><ele>644.0</ele><time>2026-05-03T09:29:41.128Z</time></trkpt><trkpt lat="44.0243192" lon="6.8116408"><ele>644.0</ele><time>2026-05-03T09:29:42.128Z</time></trkpt><trkpt lat="44.0244459" lon="6.8117328"><ele>644.5</ele><time>2026-05-03T09:29:43.128Z</time></trkpt><trkpt lat="44.0245638" lon="6.8118233"><ele>645.0</ele><time>2026-05-03T09:29:44.128Z</time></trkpt><trkpt lat="44.0246838" lon="6.8119315"><ele>645.5</ele><time>2026-05-03T09:29:45.128Z</time></trkpt><trkpt lat="44.0247908" lon="6.8120339"><ele>646.0</ele><time>2026-05-03T09:29:46.128Z</time></trkpt><trkpt lat="44.0248889" lon="6.8121343"><ele>649.4</ele><time>2026-05-03T09:29:47.128Z</time></trkpt><trkpt lat="44.025002" lon="6.8122317"><ele>652.8</ele><time>2026-05-03T09:29:48.128Z</time></trkpt><trkpt lat="44.0250981" lon="6.8123134"><ele>656.1999999999999</ele><time>2026-05-03T09:29:49.128Z</time></trkpt><trkpt lat="44.0252045" lon="6.8123864"><ele>659.5999999999999</ele><time>2026-05-03T09:29:50.128Z</time></trkpt><trkpt lat="44.0252729" lon="6.8124393"><ele>663.0</ele><time>2026-05-03T09:29:51.128Z</time></trkpt><trkpt lat="44.0253586" lon="6.8125146"><ele>663.0</ele><time>2026-05-03T09:29:52.128Z</time></trkpt><trkpt lat="44.0254433" lon="6.8125803"><ele>663.0</ele><time>2026-05-03T09:29:53.128Z</time></trkpt><trkpt lat="44.0255336" lon="6.8126541"><ele>663.0</ele><time>2026-05-03T09:29:54.127Z</time></trkpt><trkpt lat="44.0256268" lon="6.8127259"><ele>663.0</ele><time>2026-05-03T09:29:55.128Z</time></trkpt><trkpt lat="44.0257232" lon="6.8128009"><ele>663.0</ele><time>2026-05-03T09:29:56.127Z</time></trkpt><trkpt lat="44.0258184" lon="6.8128709"><ele>662.4</ele><time>2026-05-03T09:29:57.128Z</time></trkpt><trkpt lat="44.025911" lon="6.81294"><ele>661.8</ele><time>2026-05-03T09:29:58.128Z</time></trkpt><trkpt lat="44.025997" lon="6.8129955"><ele>661.2</ele><time>2026-05-03T09:29:59.128Z</time></trkpt><trkpt lat="44.0260834" lon="6.8130507"><ele>660.6</ele><time>2026-05-03T09:30:00.128Z</time></trkpt><trkpt lat="44.0261649" lon="6.8131266"><ele>660.0</ele><time>2026-05-03T09:30:01.128Z</time></trkpt><trkpt lat="44.026249" lon="6.8131958"><ele>660.0</ele><time>2026-05-03T09:30:02.128Z</time></trkpt><trkpt lat="44.0263276" lon="6.8132706"><ele>660.0</ele><time>2026-05-03T09:30:03.128Z</time></trkpt><trkpt lat="44.0263952" lon="6.8133499"><ele>660.0</ele><time>2026-05-03T09:30:04.128Z</time></trkpt><trkpt lat="44.026473" lon="6.8134144"><ele>660.0</ele><time>2026-05-03T09:30:05.128Z</time></trkpt><trkpt lat="44.0265466" lon="6.81352"><ele>660.0</ele><time>2026-05-03T09:30:06.128Z</time></trkpt><trkpt lat="44.0266264" lon="6.8136285"><ele>662.75</ele><time>2026-05-03T09:30:07.128Z</time></trkpt><trkpt lat="44.026708" lon="6.8137373"><ele>665.5</ele><time>2026-05-03T09:30:08.128Z</time></trkpt><trkpt lat="44.026788" lon="6.8138466"><ele>668.25</ele><time>2026-05-03T09:30:09.128Z</time></trkpt><trkpt lat="44.026869" lon="6.8139657"><ele>671.0</ele><time>2026-05-03T09:30:10.128Z</time></trkpt><trkpt lat="44.0269656" lon="6.8140784"><ele>671.0</ele><time>2026-05-03T09:30:11.128Z</time></trkpt><trkpt lat="44.0270554" lon="6.8142028"><ele>671.0</ele><time>2026-05-03T09:30:12.128Z</time></trkpt><trkpt lat="44.0271353" lon="6.8143406"><ele>671.0</ele><time>2026-05-03T09:30:13.128Z</time></trkpt><trkpt lat="44.027208" lon="6.8144876"><ele>671.0</ele><time>2026-05-03T09:30:14.128Z</time></trkpt><trkpt lat="44.0272625" lon="6.814652"><ele>671.25</ele><time>2026-05-03T09:30:15.127Z</time></trkpt><trkpt lat="44.0273286" lon="6.8148108"><ele>671.5</ele><time>2026-05-03T09:30:16.128Z</time></trkpt><trkpt lat="44.0273746" lon="6.8149719"><ele>671.75</ele><time>2026-05-03T09:30:17.128Z</time></trkpt><trkpt lat="44.0274304" lon="6.8151386"><ele>672.0</ele><time>2026-05-03T09:30:18.127Z</time></trkpt><trkpt lat="44.027496" lon="6.8152972"><ele>672.0</ele><time>2026-05-03T09:30:19.128Z</time></trkpt><trkpt lat="44.0275518" lon="6.8154559"><ele>672.0</ele><time>2026-05-03T09:30:20.128Z</time></trkpt><trkpt lat="44.0276175" lon="6.8156115"><ele>672.0</ele><time>2026-05-03T09:30:21.128Z</time></trkpt><trkpt lat="44.0276838" lon="6.8157695"><ele>672.0</ele><time>2026-05-03T09:30:22.128Z</time></trkpt><trkpt lat="44.0277503" lon="6.8159351"><ele>669.5</ele><time>2026-05-03T09:30:23.128Z</time></trkpt><trkpt lat="44.0278137" lon="6.8161093"><ele>667.0</ele><time>2026-05-03T09:30:24.128Z</time></trkpt><trkpt lat="44.0278917" lon="6.8162867"><ele>664.5</ele><time>2026-05-03T09:30:25.127Z</time></trkpt><trkpt lat="44.0279536" lon="6.8164636"><ele>662.0</ele><time>2026-05-03T09:30:26.128Z</time></trkpt><trkpt lat="44.0280205" lon="6.8166431"><ele>662.0</ele><time>2026-05-03T09:30:27.128Z</time></trkpt><trkpt lat="44.0280969" lon="6.8168042"><ele>662.0</ele><time>2026-05-03T09:30:28.127Z</time></trkpt><trkpt lat="44.0281795" lon="6.8169656"><ele>662.0</ele><time>2026-05-03T09:30:29.127Z</time></trkpt><trkpt lat="44.0282585" lon="6.8171033"><ele>662.0</ele><time>2026-05-03T09:30:30.128Z</time></trkpt><trkpt lat="44.0283514" lon="6.8172543"><ele>664.5</ele><time>2026-05-03T09:30:31.128Z</time></trkpt><trkpt lat="44.0284201" lon="6.8174207"><ele>667.0</ele><time>2026-05-03T09:30:32.128Z</time></trkpt><trkpt lat="44.0284883" lon="6.8176022"><ele>669.5</ele><time>2026-05-03T09:30:33.128Z</time></trkpt><trkpt lat="44.0285171" lon="6.817784"><ele>672.0</ele><time>2026-05-03T09:30:34.128Z</time></trkpt><trkpt lat="44.0285717" lon="6.8179901"><ele>672.0</ele><time>2026-05-03T09:30:35.127Z</time></trkpt><trkpt lat="44.0286018" lon="6.8181867"><ele>672.0</ele><time>2026-05-03T09:30:36.128Z</time></trkpt><trkpt lat="44.0286298" lon="6.8183609"><ele>672.0</ele><time>2026-05-03T09:30:37.127Z</time></trkpt><trkpt lat="44.0286653" lon="6.8185524"><ele>672.0</ele><time>2026-05-03T09:30:38.128Z</time></trkpt><trkpt lat="44.0287333" lon="6.8187134"><ele>669.25</ele><time>2026-05-03T09:30:39.128Z</time></trkpt><trkpt lat="44.0288123" lon="6.8188715"><ele>666.5</ele><time>2026-05-03T09:30:40.128Z</time></trkpt><trkpt lat="44.0288983" lon="6.8190202"><ele>663.75</ele><time>2026-05-03T09:30:41.127Z</time></trkpt><trkpt lat="44.0289783" lon="6.8191692"><ele>661.0</ele><time>2026-05-03T09:30:42.128Z</time></trkpt><trkpt lat="44.0290521" lon="6.8192897"><ele>661.0</ele><time>2026-05-03T09:30:43.128Z</time></trkpt><trkpt lat="44.0291045" lon="6.8194008"><ele>655.0</ele><time>2026-05-03T09:30:44.127Z</time></trkpt><trkpt lat="44.0291301" lon="6.8195443"><ele>655.0</ele><time>2026-05-03T09:30:46.128Z</time></trkpt><trkpt lat="44.029118" lon="6.8196312"><ele>655.0</ele><time>2026-05-03T09:30:48.128Z</time></trkpt></trkseg><trkseg><trkpt lat="44.0291833" lon="6.8198102"><ele>691.0</ele><time>2026-05-03T09:41:24.128Z</time></trkpt><trkpt lat="44.0292544" lon="6.8199123"><ele>691.0</ele><time>2026-05-03T09:41:26.128Z</time></trkpt><trkpt lat="44.0293185" lon="6.8199846"><ele>691.0</ele><time>2026-05-03T09:41:28.128Z</time></trkpt><trkpt lat="44.0293744" lon="6.8200474"><ele>691.0</ele><time>2026-05-03T09:41:31.128Z</time></trkpt><trkpt lat="44.0294078" lon="6.8201587"><ele>691.0</ele><time>2026-05-03T09:41:33.127Z</time></trkpt><trkpt lat="44.0294224" lon="6.820249"><ele>691.0</ele><time>2026-05-03T09:41:34.128Z</time></trkpt><trkpt lat="44.0294232" lon="6.8203465"><ele>689.8</ele><time>2026-05-03T09:41:35.128Z</time></trkpt><trkpt lat="44.0294108" lon="6.8204714"><ele>688.5999999999999</ele><time>2026-05-03T09:41:36.128Z</time></trkpt><trkpt lat="44.0293926" lon="6.8206028"><ele>687.4</ele><time>2026-05-03T09:41:37.128Z</time></trkpt><trkpt lat="44.0293908" lon="6.8207323"><ele>686.2</ele><time>2026-05-03T09:41:38.128Z</time></trkpt><trkpt lat="44.0294116" lon="6.8208794"><ele>685.0</ele><time>2026-05-03T09:41:39.128Z</time></trkpt><trkpt lat="44.0294428" lon="6.8210286"><ele>682.6</ele><time>2026-05-03T09:41:40.128Z</time></trkpt><trkpt lat="44.0294756" lon="6.8211651"><ele>680.2</ele><time>2026-05-03T09:41:41.127Z</time></trkpt><trkpt lat="44.0295102" lon="6.8212892"><ele>677.8</ele><time>2026-05-03T09:41:42.128Z</time></trkpt><trkpt lat="44.0295548" lon="6.8214164"><ele>675.4</ele><time>2026-05-03T09:41:43.127Z</time></trkpt><trkpt lat="44.0296223" lon="6.8215128"><ele>673.0</ele><time>2026-05-03T09:41:44.128Z</time></trkpt><trkpt lat="44.0296846" lon="6.8216141"><ele>673.0</ele><time>2026-05-03T09:41:45.128Z</time></trkpt><trkpt lat="44.0297752" lon="6.8216857"><ele>673.0</ele><time>2026-05-03T09:41:46.128Z</time></trkpt><trkpt lat="44.0298607" lon="6.8217493"><ele>673.0</ele><time>2026-05-03T09:41:47.127Z</time></trkpt><trkpt lat="44.0299509" lon="6.8218261"><ele>673.0</ele><time>2026-05-03T09:41:48.128Z</time></trkpt><trkpt lat="44.0300318" lon="6.8219356"><ele>673.0</ele><time>2026-05-03T09:41:49.127Z</time></trkpt><trkpt lat="44.0301182" lon="6.8220379"><ele>677.0</ele><time>2026-05-03T09:41:50.128Z</time></trkpt><trkpt lat="44.0302053" lon="6.8221706"><ele>681.0</ele><time>2026-05-03T09:41:51.128Z</time></trkpt><trkpt lat="44.0302931" lon="6.8222886"><ele>685.0</ele><time>2026-05-03T09:41:52.127Z</time></trkpt><trkpt lat="44.0303818" lon="6.8224095"><ele>689.0</ele><time>2026-05-03T09:41:53.128Z</time></trkpt><trkpt lat="44.0304312" lon="6.8225617"><ele>682.75</ele><time>2026-05-03T09:41:54.128Z</time></trkpt><trkpt lat="44.0304861" lon="6.8227087"><ele>676.5</ele><time>2026-05-03T09:41:55.128Z</time></trkpt><trkpt lat="44.0305487" lon="6.8228503"><ele>670.25</ele><time>2026-05-03T09:41:56.128Z</time></trkpt><trkpt lat="44.0306241" lon="6.8229776"><ele>664.0</ele><time>2026-05-03T09:41:57.128Z</time></trkpt><trkpt lat="44.030713" lon="6.8231141"><ele>670.75</ele><time>2026-05-03T09:41:58.128Z</time></trkpt><trkpt lat="44.0308139" lon="6.8232481"><ele>677.5</ele><time>2026-05-03T09:41:59.128Z</time></trkpt><trkpt lat="44.0309109" lon="6.8233929"><ele>684.25</ele><time>2026-05-03T09:42:00.128Z</time></trkpt><trkpt lat="44.0310064" lon="6.8235088"><ele>691.0</ele><time>2026-05-03T09:42:01.128Z</time></trkpt><trkpt lat="44.0310869" lon="6.823644"><ele>691.0</ele><time>2026-05-03T09:42:02.128Z</time></trkpt><trkpt lat="44.0311665" lon="6.8237607"><ele>691.0</ele><time>2026-05-03T09:42:03.128Z</time></trkpt><trkpt lat="44.0312416" lon="6.8238833"><ele>691.0</ele><time>2026-05-03T09:42:04.128Z</time></trkpt><trkpt lat="44.0312946" lon="6.8240372"><ele>691.0</ele><time>2026-05-03T09:42:05.128Z</time></trkpt><trkpt lat="44.0313271" lon="6.8241972"><ele>686.75</ele><time>2026-05-03T09:42:06.128Z</time></trkpt><trkpt lat="44.0313497" lon="6.8243719"><ele>682.5</ele><time>2026-05-03T09:42:07.128Z</time></trkpt><trkpt lat="44.0313813" lon="6.8245335"><ele>678.25</ele><time>2026-05-03T09:42:08.128Z</time></trkpt><trkpt lat="44.0314159" lon="6.82469"><ele>674.0</ele><time>2026-05-03T09:42:09.127Z</time></trkpt><trkpt lat="44.0314591" lon="6.8248314"><ele>674.0</ele><time>2026-05-03T09:42:10.128Z</time></trkpt><trkpt lat="44.0315188" lon="6.8249458"><ele>674.0</ele><time>2026-05-03T09:42:11.128Z</time></trkpt><trkpt lat="44.0315997" lon="6.8250629"><ele>674.0</ele><time>2026-05-03T09:42:12.127Z</time></trkpt><trkpt lat="44.0316753" lon="6.8251814"><ele>674.0</ele><time>2026-05-03T09:42:13.128Z</time></trkpt><trkpt lat="44.0317379" lon="6.8253101"><ele>674.0</ele><time>2026-05-03T09:42:14.128Z</time></trkpt><trkpt lat="44.0317869" lon="6.8254277"><ele>677.4000000000001</ele><time>2026-05-03T09:42:15.128Z</time></trkpt><trkpt lat="44.0318492" lon="6.8255232"><ele>680.8</ele><time>2026-05-03T09:42:16.128Z</time></trkpt><trkpt lat="44.0319299" lon="6.8255948"><ele>684.2</ele><time>2026-05-03T09:42:17.128Z</time></trkpt><trkpt lat="44.0320162" lon="6.8256273"><ele>687.5999999999999</ele><time>2026-05-03T09:42:18.128Z</time></trkpt><trkpt lat="44.0321253" lon="6.8256238"><ele>691.0</ele><time>2026-05-03T09:42:19.128Z</time></trkpt><trkpt lat="44.0322383" lon="6.8255781"><ele>691.0</ele><time>2026-05-03T09:42:20.128Z</time></trkpt><trkpt lat="44.0323476" lon="6.8255302"><ele>691.0</ele><time>2026-05-03T09:42:21.128Z</time></trkpt><trkpt lat="44.0324689" lon="6.8255196"><ele>691.0</ele><time>2026-05-03T09:42:22.128Z</time></trkpt><trkpt lat="44.0326072" lon="6.8255588"><ele>691.0</ele><time>2026-05-03T09:42:23.128Z</time></trkpt><trkpt lat="44.0327456" lon="6.8256296"><ele>694.25</ele><time>2026-05-03T09:42:24.127Z</time></trkpt><trkpt lat="44.0328756" lon="6.8256952"><ele>697.5</ele><time>2026-05-03T09:42:25.127Z</time></trkpt><trkpt lat="44.0330085" lon="6.8257697"><ele>700.75</ele><time>2026-05-03T09:42:26.128Z</time></trkpt><trkpt lat="44.0331386" lon="6.8258591"><ele>704.0</ele><time>2026-05-03T09:42:27.128Z</time></trkpt><trkpt lat="44.0332717" lon="6.8259385"><ele>705.75</ele><time>2026-05-03T09:42:28.128Z</time></trkpt><trkpt lat="44.0334036" lon="6.8260359"><ele>707.5</ele><time>2026-05-03T09:42:29.128Z</time></trkpt><trkpt lat="44.0335261" lon="6.8261088"><ele>709.25</ele><time>2026-05-03T09:42:30.128Z</time></trkpt><trkpt lat="44.0336585" lon="6.8261728"><ele>711.0</ele><time>2026-05-03T09:42:31.127Z</time></trkpt><trkpt lat="44.033796" lon="6.8262136"><ele>711.0</ele><time>2026-05-03T09:42:32.128Z</time></trkpt><trkpt lat="44.0339209" lon="6.8262811"><ele>711.0</ele><time>2026-05-03T09:42:33.128Z</time></trkpt><trkpt lat="44.0340257" lon="6.8263929"><ele>711.0</ele><time>2026-05-03T09:42:34.128Z</time></trkpt><trkpt lat="44.0341194" lon="6.8265249"><ele>711.0</ele><time>2026-05-03T09:42:35.128Z</time></trkpt><trkpt lat="44.0342048" lon="6.8266485"><ele>710.75</ele><time>2026-05-03T09:42:36.128Z</time></trkpt><trkpt lat="44.0342935" lon="6.8267499"><ele>710.5</ele><time>2026-05-03T09:42:37.128Z</time></trkpt><trkpt lat="44.0344095" lon="6.826821"><ele>710.25</ele><time>2026-05-03T09:42:38.128Z</time></trkpt><trkpt lat="44.0345387" lon="6.8268486"><ele>710.0</ele><time>2026-05-03T09:42:39.128Z</time></trkpt><trkpt lat="44.0346717" lon="6.8268753"><ele>710.0</ele><time>2026-05-03T09:42:40.128Z</time></trkpt><trkpt lat="44.0347949" lon="6.8268852"><ele>710.0</ele><time>2026-05-03T09:42:41.128Z</time></trkpt><trkpt lat="44.034919" lon="6.8268863"><ele>710.0</ele><time>2026-05-03T09:42:42.128Z</time></trkpt><trkpt lat="44.0350326" lon="6.8268756"><ele>710.0</ele><time>2026-05-03T09:42:43.128Z</time></trkpt><trkpt lat="44.0351468" lon="6.8268928"><ele>715.25</ele><time>2026-05-03T09:42:44.128Z</time></trkpt><trkpt lat="44.035244" lon="6.8269602"><ele>720.5</ele><time>2026-05-03T09:42:45.128Z</time></trkpt><trkpt lat="44.0353346" lon="6.8270536"><ele>725.75</ele><time>2026-05-03T09:42:46.127Z</time></trkpt><trkpt lat="44.0354009" lon="6.827195"><ele>731.0</ele><time>2026-05-03T09:42:47.128Z</time></trkpt><trkpt lat="44.0354415" lon="6.8273452"><ele>731.0</ele><time>2026-05-03T09:42:48.128Z</time></trkpt><trkpt lat="44.0354816" lon="6.8275075"><ele>731.0</ele><time>2026-05-03T09:42:49.128Z</time></trkpt><trkpt lat="44.0355407" lon="6.8276516"><ele>731.0</ele><time>2026-05-03T09:42:50.127Z</time></trkpt><trkpt lat="44.0356271" lon="6.8277778"><ele>731.0</ele><time>2026-05-03T09:42:51.128Z</time></trkpt><trkpt lat="44.0357353" lon="6.8278842"><ele>731.6666666666666</ele><time>2026-05-03T09:42:52.128Z</time></trkpt><trkpt lat="44.0358672" lon="6.8279931"><ele>732.3333333333334</ele><time>2026-05-03T09:42:53.128Z</time></trkpt><trkpt lat="44.0359973" lon="6.828102"><ele>733.0</ele><time>2026-05-03T09:42:54.128Z</time></trkpt><trkpt lat="44.0361312" lon="6.8282218"><ele>733.0</ele><time>2026-05-03T09:42:55.128Z</time></trkpt><trkpt lat="44.03628" lon="6.8283313"><ele>733.0</ele><time>2026-05-03T09:42:56.127Z</time></trkpt><trkpt lat="44.0364344" lon="6.8284133"><ele>733.0</ele><time>2026-05-03T09:42:57.128Z</time></trkpt><trkpt lat="44.0365888" lon="6.8284898"><ele>732.0</ele><time>2026-05-03T09:42:58.127Z</time></trkpt><trkpt lat="44.0367443" lon="6.8285478"><ele>731.0</ele><time>2026-05-03T09:42:59.128Z</time></trkpt><trkpt lat="44.0368946" lon="6.8285941"><ele>730.0</ele><time>2026-05-03T09:43:00.128Z</time></trkpt><trkpt lat="44.0370331" lon="6.8286329"><ele>730.0</ele><time>2026-05-03T09:43:01.128Z</time></trkpt><trkpt lat="44.0371381" lon="6.8286887"><ele>730.0</ele><time>2026-05-03T09:43:02.128Z</time></trkpt><trkpt lat="44.0372255" lon="6.8287652"><ele>730.0</ele><time>2026-05-03T09:43:03.128Z</time></trkpt><trkpt lat="44.0372979" lon="6.8288866"><ele>730.0</ele><time>2026-05-03T09:43:04.128Z</time></trkpt><trkpt lat="44.0373456" lon="6.8290483"><ele>730.0</ele><time>2026-05-03T09:43:05.127Z</time></trkpt><trkpt lat="44.0373927" lon="6.8292232"><ele>730.0</ele><time>2026-05-03T09:43:06.128Z</time></trkpt><trkpt lat="44.0374367" lon="6.8294105"><ele>730.0</ele><time>2026-05-03T09:43:07.128Z</time></trkpt><trkpt lat="44.0374763" lon="6.8295973"><ele>730.0</ele><time>2026-05-03T09:43:08.127Z</time></trkpt><trkpt lat="44.0375265" lon="6.8297942"><ele>731.75</ele><time>2026-05-03T09:43:09.128Z</time></trkpt><trkpt lat="44.0375817" lon="6.829999"><ele>733.5</ele><time>2026-05-03T09:43:10.128Z</time></trkpt><trkpt lat="44.0376261" lon="6.8301862"><ele>735.25</ele><time>2026-05-03T09:43:11.127Z</time></trkpt><trkpt lat="44.0376659" lon="6.8303544"><ele>737.0</ele><time>2026-05-03T09:43:12.128Z</time></trkpt><trkpt lat="44.0377013" lon="6.8305065"><ele>737.0</ele><time>2026-05-03T09:43:13.128Z</time></trkpt><trkpt lat="44.0377494" lon="6.8306359"><ele>737.0</ele><time>2026-05-03T09:43:14.128Z</time></trkpt><trkpt lat="44.0378243" lon="6.8307311"><ele>737.0</ele><time>2026-05-03T09:43:15.128Z</time></trkpt><trkpt lat="44.0379083" lon="6.8308268"><ele>737.0</ele><time>2026-05-03T09:43:16.128Z</time></trkpt><trkpt lat="44.0380387" lon="6.8308479"><ele>737.0</ele><time>2026-05-03T09:43:17.128Z</time></trkpt><trkpt lat="44.0381718" lon="6.8308819"><ele>737.0</ele><time>2026-05-03T09:43:18.127Z</time></trkpt><trkpt lat="44.038301" lon="6.8309394"><ele>737.0</ele><time>2026-05-03T09:43:19.128Z</time></trkpt><trkpt lat="44.0384257" lon="6.8310278"><ele>737.0</ele><time>2026-05-03T09:43:20.128Z</time></trkpt><trkpt lat="44.0385266" lon="6.8311555"><ele>737.0</ele><time>2026-05-03T09:43:21.128Z</time></trkpt><trkpt lat="44.0386123" lon="6.8313429"><ele>737.0</ele><time>2026-05-03T09:43:22.128Z</time></trkpt><trkpt lat="44.0386821" lon="6.8315323"><ele>737.0</ele><time>2026-05-03T09:43:23.128Z</time></trkpt><trkpt lat="44.0387413" lon="6.8317476"><ele>737.0</ele><time>2026-05-03T09:43:24.128Z</time></trkpt><trkpt lat="44.038793" lon="6.8319541"><ele>737.0</ele><time>2026-05-03T09:43:25.127Z</time></trkpt><trkpt lat="44.0388463" lon="6.832157"><ele>737.0</ele><time>2026-05-03T09:43:26.128Z</time></trkpt><trkpt lat="44.0388955" lon="6.832335"><ele>737.0</ele><time>2026-05-03T09:43:27.128Z</time></trkpt><trkpt lat="44.0389502" lon="6.8325184"><ele>737.0</ele><time>2026-05-03T09:43:28.128Z</time></trkpt><trkpt lat="44.0389939" lon="6.8326939"><ele>735.5</ele><time>2026-05-03T09:43:29.128Z</time></trkpt><trkpt lat="44.0390446" lon="6.8328746"><ele>734.0</ele><time>2026-05-03T09:43:30.128Z</time></trkpt><trkpt lat="44.0390843" lon="6.833064"><ele>732.5</ele><time>2026-05-03T09:43:31.128Z</time></trkpt><trkpt lat="44.0391093" lon="6.8332453"><ele>731.0</ele><time>2026-05-03T09:43:32.128Z</time></trkpt><trkpt lat="44.0391276" lon="6.8334259"><ele>730.25</ele><time>2026-05-03T09:43:33.128Z</time></trkpt><trkpt lat="44.0391458" lon="6.8336023"><ele>729.5</ele><time>2026-05-03T09:43:34.128Z</time></trkpt><trkpt lat="44.0391397" lon="6.8337608"><ele>728.75</ele><time>2026-05-03T09:43:35.128Z</time></trkpt><trkpt lat="44.0391219" lon="6.8339164"><ele>728.0</ele><time>2026-05-03T09:43:36.128Z</time></trkpt><trkpt lat="44.0390695" lon="6.8340551"><ele>728.0</ele><time>2026-05-03T09:43:37.128Z</time></trkpt><trkpt lat="44.0390265" lon="6.8341982"><ele>728.0</ele><time>2026-05-03T09:43:38.128Z</time></trkpt><trkpt lat="44.0389783" lon="6.8343303"><ele>728.0</ele><time>2026-05-03T09:43:39.128Z</time></trkpt><trkpt lat="44.0389468" lon="6.8344753"><ele>728.0</ele><time>2026-05-03T09:43:40.128Z</time></trkpt><trkpt lat="44.0389486" lon="6.8346359"><ele>728.0</ele><time>2026-05-03T09:43:41.127Z</time></trkpt><trkpt lat="44.0389652" lon="6.8347982"><ele>729.25</ele><time>2026-05-03T09:43:42.128Z</time></trkpt><trkpt lat="44.0390045" lon="6.8349465"><ele>730.5</ele><time>2026-05-03T09:43:43.128Z</time></trkpt><trkpt lat="44.0390629" lon="6.8351012"><ele>731.75</ele><time>2026-05-03T09:43:44.128Z</time></trkpt><trkpt lat="44.0391399" lon="6.8352318"><ele>733.0</ele><time>2026-05-03T09:43:45.128Z</time></trkpt><trkpt lat="44.0392253" lon="6.8353392"><ele>736.8</ele><time>2026-05-03T09:43:46.128Z</time></trkpt><trkpt lat="44.0393097" lon="6.8354099"><ele>740.5999999999999</ele><time>2026-05-03T09:43:47.128Z</time></trkpt><trkpt lat="44.0394077" lon="6.8354253"><ele>744.4000000000001</ele><time>2026-05-03T09:43:48.128Z</time></trkpt><trkpt lat="44.0395136" lon="6.8354184"><ele>748.2</ele><time>2026-05-03T09:43:49.128Z</time></trkpt><trkpt lat="44.0396119" lon="6.8353568"><ele>752.0</ele><time>2026-05-03T09:43:50.127Z</time></trkpt><trkpt lat="44.0397109" lon="6.8352492"><ele>756.25</ele><time>2026-05-03T09:43:51.128Z</time></trkpt><trkpt lat="44.039803" lon="6.8351166"><ele>760.5</ele><time>2026-05-03T09:43:52.128Z</time></trkpt><trkpt lat="44.0398964" lon="6.8349765"><ele>764.75</ele><time>2026-05-03T09:43:53.128Z</time></trkpt><trkpt lat="44.0400073" lon="6.8348579"><ele>769.0</ele><time>2026-05-03T09:43:54.128Z</time></trkpt><trkpt lat="44.0401235" lon="6.8347398"><ele>769.0</ele><time>2026-05-03T09:43:55.128Z</time></trkpt><trkpt lat="44.0402353" lon="6.8346264"><ele>769.0</ele><time>2026-05-03T09:43:56.127Z</time></trkpt><trkpt lat="44.0403224" lon="6.8345003"><ele>769.0</ele><time>2026-05-03T09:43:57.128Z</time></trkpt><trkpt lat="44.0403947" lon="6.8343631"><ele>769.0</ele><time>2026-05-03T09:43:58.128Z</time></trkpt><trkpt lat="44.0404513" lon="6.8342172"><ele>774.75</ele><time>2026-05-03T09:43:59.128Z</time></trkpt><trkpt lat="44.0404921" lon="6.8340405"><ele>780.5</ele><time>2026-05-03T09:44:00.128Z</time></trkpt><trkpt lat="44.0405112" lon="6.8338685"><ele>786.25</ele><time>2026-05-03T09:44:01.128Z</time></trkpt><trkpt lat="44.0405244" lon="6.8336812"><ele>792.0</ele><time>2026-05-03T09:44:02.128Z</time></trkpt><trkpt lat="44.0405597" lon="6.8335013"><ele>794.75</ele><time>2026-05-03T09:44:03.128Z</time></trkpt><trkpt lat="44.0406121" lon="6.8333203"><ele>797.5</ele><time>2026-05-03T09:44:04.128Z</time></trkpt><trkpt lat="44.0406652" lon="6.8331579"><ele>800.25</ele><time>2026-05-03T09:44:05.127Z</time></trkpt><trkpt lat="44.0407437" lon="6.8330016"><ele>803.0</ele><time>2026-05-03T09:44:06.127Z</time></trkpt><trkpt lat="44.0408338" lon="6.8328563"><ele>802.25</ele><time>2026-05-03T09:44:07.128Z</time></trkpt><trkpt lat="44.040938" lon="6.8327226"><ele>801.5</ele><time>2026-05-03T09:44:08.128Z</time></trkpt><trkpt lat="44.0410534" lon="6.8325916"><ele>800.75</ele><time>2026-05-03T09:44:09.128Z</time></trkpt><trkpt lat="44.0411585" lon="6.832458"><ele>800.0</ele><time>2026-05-03T09:44:10.128Z</time></trkpt><trkpt lat="44.04126" lon="6.8323341"><ele>800.0</ele><time>2026-05-03T09:44:11.128Z</time></trkpt><trkpt lat="44.0413393" lon="6.8321997"><ele>800.0</ele><time>2026-05-03T09:44:12.128Z</time></trkpt><trkpt lat="44.0414067" lon="6.8320735"><ele>800.0</ele><time>2026-05-03T09:44:13.127Z</time></trkpt><trkpt lat="44.041477" lon="6.8319381"><ele>800.0</ele><time>2026-05-03T09:44:14.128Z</time></trkpt><trkpt lat="44.0415582" lon="6.8318225"><ele>800.4</ele><time>2026-05-03T09:44:15.128Z</time></trkpt><trkpt lat="44.0416398" lon="6.8317058"><ele>800.8</ele><time>2026-05-03T09:44:16.128Z</time></trkpt><trkpt lat="44.0417407" lon="6.8316351"><ele>801.2</ele><time>2026-05-03T09:44:17.128Z</time></trkpt><trkpt lat="44.0418407" lon="6.8315847"><ele>801.6</ele><time>2026-05-03T09:44:18.128Z</time></trkpt><trkpt lat="44.0419366" lon="6.8315978"><ele>802.0</ele><time>2026-05-03T09:44:19.128Z</time></trkpt><trkpt lat="44.0420043" lon="6.8316404"><ele>802.0</ele><time>2026-05-03T09:44:20.128Z</time></trkpt><trkpt lat="44.0420557" lon="6.8317294"><ele>802.0</ele><time>2026-05-03T09:44:21.128Z</time></trkpt><trkpt lat="44.0420892" lon="6.831869"><ele>802.0</ele><time>2026-05-03T09:44:22.128Z</time></trkpt><trkpt lat="44.042116" lon="6.8320238"><ele>802.0</ele><time>2026-05-03T09:44:23.128Z</time></trkpt><trkpt lat="44.042133" lon="6.8322065"><ele>802.0</ele><time>2026-05-03T09:44:24.128Z</time></trkpt><trkpt lat="44.0421684" lon="6.8323937"><ele>796.25</ele><time>2026-05-03T09:44:25.127Z</time></trkpt><trkpt lat="44.042161" lon="6.8325588"><ele>790.5</ele><time>2026-05-03T09:44:26.128Z</time></trkpt><trkpt lat="44.0421465" lon="6.8327266"><ele>784.75</ele><time>2026-05-03T09:44:27.128Z</time></trkpt><trkpt lat="44.0421083" lon="6.8329007"><ele>779.0</ele><time>2026-05-03T09:44:28.127Z</time></trkpt><trkpt lat="44.0420526" lon="6.8330566"><ele>779.0</ele><time>2026-05-03T09:44:29.128Z</time></trkpt><trkpt lat="44.0419931" lon="6.8332138"><ele>779.0</ele><time>2026-05-03T09:44:30.128Z</time></trkpt><trkpt lat="44.0419424" lon="6.8333585"><ele>779.0</ele><time>2026-05-03T09:44:31.128Z</time></trkpt><trkpt lat="44.0418842" lon="6.8335093"><ele>779.0</ele><time>2026-05-03T09:44:32.128Z</time></trkpt><trkpt lat="44.0418249" lon="6.8336572"><ele>781.75</ele><time>2026-05-03T09:44:33.128Z</time></trkpt><trkpt lat="44.0417684" lon="6.8338026"><ele>784.5</ele><time>2026-05-03T09:44:34.128Z</time></trkpt><trkpt lat="44.041751" lon="6.8339616"><ele>787.25</ele><time>2026-05-03T09:44:35.128Z</time></trkpt><trkpt lat="44.0417514" lon="6.8341342"><ele>790.0</ele><time>2026-05-03T09:44:36.128Z</time></trkpt><trkpt lat="44.0417875" lon="6.8342891"><ele>791.4</ele><time>2026-05-03T09:44:37.128Z</time></trkpt><trkpt lat="44.0418283" lon="6.8344247"><ele>792.8</ele><time>2026-05-03T09:44:38.128Z</time></trkpt><trkpt lat="44.0418593" lon="6.834551"><ele>794.2</ele><time>2026-05-03T09:44:39.128Z</time></trkpt><trkpt lat="44.0418645" lon="6.8346877"><ele>795.6</ele><time>2026-05-03T09:44:40.127Z</time></trkpt><trkpt lat="44.0418438" lon="6.8348285"><ele>797.0</ele><time>2026-05-03T09:44:41.128Z</time></trkpt><trkpt lat="44.0417809" lon="6.8349436"><ele>797.0</ele><time>2026-05-03T09:44:42.128Z</time></trkpt><trkpt lat="44.0417021" lon="6.8350497"><ele>797.0</ele><time>2026-05-03T09:44:43.128Z</time></trkpt><trkpt lat="44.0416101" lon="6.8351459"><ele>797.0</ele><time>2026-05-03T09:44:44.128Z</time></trkpt><trkpt lat="44.0415255" lon="6.8352566"><ele>797.0</ele><time>2026-05-03T09:44:45.128Z</time></trkpt><trkpt lat="44.0414484" lon="6.8353798"><ele>798.8</ele><time>2026-05-03T09:44:46.128Z</time></trkpt><trkpt lat="44.0413825" lon="6.8355116"><ele>800.6</ele><time>2026-05-03T09:44:47.127Z</time></trkpt><trkpt lat="44.0413394" lon="6.8356588"><ele>802.4</ele><time>2026-05-03T09:44:48.128Z</time></trkpt><trkpt lat="44.0413229" lon="6.8358132"><ele>804.1999999999999</ele><time>2026-05-03T09:44:49.128Z</time></trkpt><trkpt lat="44.0413053" lon="6.8359602"><ele>806.0</ele><time>2026-05-03T09:44:50.128Z</time></trkpt><trkpt lat="44.0412684" lon="6.8361013"><ele>806.0</ele><time>2026-05-03T09:44:51.128Z</time></trkpt><trkpt lat="44.0412074" lon="6.8362208"><ele>806.0</ele><time>2026-05-03T09:44:52.128Z</time></trkpt><trkpt lat="44.0411308" lon="6.8363263"><ele>806.0</ele><time>2026-05-03T09:44:53.128Z</time></trkpt><trkpt lat="44.0410302" lon="6.8364106"><ele>806.0</ele><time>2026-05-03T09:44:54.128Z</time></trkpt><trkpt lat="44.0409493" lon="6.8364969"><ele>806.0</ele><time>2026-05-03T09:44:55.128Z</time></trkpt><trkpt lat="44.0408556" lon="6.8365766"><ele>801.8</ele><time>2026-05-03T09:44:56.128Z</time></trkpt><trkpt lat="44.0407681" lon="6.8366625"><ele>797.5999999999999</ele><time>2026-05-03T09:44:57.128Z</time></trkpt><trkpt lat="44.0406827" lon="6.8367539"><ele>793.4</ele><time>2026-05-03T09:44:58.128Z</time></trkpt><trkpt lat="44.0406053" lon="6.8368463"><ele>789.2</ele><time>2026-05-03T09:44:59.128Z</time></trkpt><trkpt lat="44.0405241" lon="6.8369523"><ele>785.0</ele><time>2026-05-03T09:45:00.128Z</time></trkpt><trkpt lat="44.0404443" lon="6.8370654"><ele>785.0</ele><time>2026-05-03T09:45:01.127Z</time></trkpt><trkpt lat="44.0403748" lon="6.8371793"><ele>785.0</ele><time>2026-05-03T09:45:02.128Z</time></trkpt><trkpt lat="44.0403138" lon="6.8372936"><ele>785.0</ele><time>2026-05-03T09:45:03.128Z</time></trkpt><trkpt lat="44.0402805" lon="6.8374233"><ele>785.0</ele><time>2026-05-03T09:45:04.128Z</time></trkpt><trkpt lat="44.0402712" lon="6.8375523"><ele>785.0</ele><time>2026-05-03T09:45:05.128Z</time></trkpt><trkpt lat="44.0403025" lon="6.8376921"><ele>777.6</ele><time>2026-05-03T09:45:06.127Z</time></trkpt><trkpt lat="44.04035" lon="6.8378113"><ele>770.2</ele><time>2026-05-03T09:45:07.127Z</time></trkpt><trkpt lat="44.0404127" lon="6.8379293"><ele>762.8</ele><time>2026-05-03T09:45:08.126Z</time></trkpt><trkpt lat="44.0404777" lon="6.8380414"><ele>755.4</ele><time>2026-05-03T09:45:09.125Z</time></trkpt><trkpt lat="44.040592" lon="6.8381368"><ele>748.0</ele><time>2026-05-03T09:45:10.125Z</time></trkpt><trkpt lat="44.0406752" lon="6.8382278"><ele>748.0</ele><time>2026-05-03T09:45:11.126Z</time></trkpt><trkpt lat="44.0407563" lon="6.8383504"><ele>748.0</ele><time>2026-05-03T09:45:12.131Z</time></trkpt><trkpt lat="44.0408163" lon="6.838466"><ele>748.0</ele><time>2026-05-03T09:45:13.125Z</time></trkpt><trkpt lat="44.0408809" lon="6.8385818"><ele>748.0</ele><time>2026-05-03T09:45:14.125Z</time></trkpt><trkpt lat="44.0409349" lon="6.838643"><ele>748.0</ele><time>2026-05-03T09:45:15.125Z</time></trkpt><trkpt lat="44.0410438" lon="6.8387024"><ele>757.5</ele><time>2026-05-03T09:45:16.125Z</time></trkpt><trkpt lat="44.0411581" lon="6.8387162"><ele>767.0</ele><time>2026-05-03T09:45:17.124Z</time></trkpt><trkpt lat="44.0412916" lon="6.8387334"><ele>776.5</ele><time>2026-05-03T09:45:18.125Z</time></trkpt><trkpt lat="44.0413948" lon="6.8388034"><ele>786.0</ele><time>2026-05-03T09:45:19.125Z</time></trkpt><trkpt lat="44.0414787" lon="6.8389086"><ele>786.0</ele><time>2026-05-03T09:45:20.125Z</time></trkpt><trkpt lat="44.0415317" lon="6.8390367"><ele>786.0</ele><time>2026-05-03T09:45:21.125Z</time></trkpt><trkpt lat="44.0415756" lon="6.839159"><ele>786.0</ele><time>2026-05-03T09:45:22.125Z</time></trkpt><trkpt lat="44.0416293" lon="6.839278"><ele>786.0</ele><time>2026-05-03T09:45:23.125Z</time></trkpt><trkpt lat="44.0417096" lon="6.8393813"><ele>786.0</ele><time>2026-05-03T09:45:24.125Z</time></trkpt><trkpt lat="44.0417732" lon="6.839514"><ele>788.0</ele><time>2026-05-03T09:45:25.124Z</time></trkpt><trkpt lat="44.0418393" lon="6.8396281"><ele>790.0</ele><time>2026-05-03T09:45:26.125Z</time></trkpt><trkpt lat="44.0428318" lon="6.8404337"><ele>790.0</ele><time>2026-05-03T09:45:36.125Z</time></trkpt><trkpt lat="44.042944" lon="6.8404416"><ele>790.0</ele><time>2026-05-03T09:45:37.125Z</time></trkpt><trkpt lat="44.0430559" lon="6.8404553"><ele>790.0</ele><time>2026-05-03T09:45:38.125Z</time></trkpt><trkpt lat="44.0431509" lon="6.8404778"><ele>790.0</ele><time>2026-05-03T09:45:39.125Z</time></trkpt><trkpt lat="44.0432508" lon="6.8404925"><ele>790.0</ele><time>2026-05-03T09:45:40.124Z</time></trkpt><trkpt lat="44.0433352" lon="6.8404932"><ele>794.8333333333333</ele><time>2026-05-03T09:45:41.125Z</time></trkpt><trkpt lat="44.0434005" lon="6.8405584"><ele>799.6666666666666</ele><time>2026-05-03T09:45:42.125Z</time></trkpt><trkpt lat="44.0434517" lon="6.840641"><ele>804.5</ele><time>2026-05-03T09:45:43.125Z</time></trkpt><trkpt lat="44.0435166" lon="6.8407068"><ele>809.3333333333333</ele><time>2026-05-03T09:45:44.125Z</time></trkpt><trkpt lat="44.0435899" lon="6.8407521"><ele>814.1666666666666</ele><time>2026-05-03T09:45:45.125Z</time></trkpt><trkpt lat="44.043676" lon="6.8407826"><ele>819.0</ele><time>2026-05-03T09:45:46.125Z</time></trkpt><trkpt lat="44.0437614" lon="6.8407202"><ele>819.0</ele><time>2026-05-03T09:45:47.125Z</time></trkpt><trkpt lat="44.0438339" lon="6.840636"><ele>819.0</ele><time>2026-05-03T09:45:48.125Z</time></trkpt><trkpt lat="44.0438994" lon="6.8405294"><ele>819.0</ele><time>2026-05-03T09:45:49.125Z</time></trkpt><trkpt lat="44.0439435" lon="6.8404062"><ele>819.0</ele><time>2026-05-03T09:45:50.124Z</time></trkpt><trkpt lat="44.043987" lon="6.840296"><ele>819.0</ele><time>2026-05-03T09:45:51.125Z</time></trkpt><trkpt lat="44.0440333" lon="6.8401978"><ele>819.6666666666666</ele><time>2026-05-03T09:45:52.125Z</time></trkpt><trkpt lat="44.0440927" lon="6.8401149"><ele>820.3333333333333</ele><time>2026-05-03T09:45:53.125Z</time></trkpt><trkpt lat="44.0441677" lon="6.8400802"><ele>821.0</ele><time>2026-05-03T09:45:54.125Z</time></trkpt><trkpt lat="44.0442472" lon="6.8400576"><ele>821.6666666666666</ele><time>2026-05-03T09:45:55.125Z</time></trkpt><trkpt lat="44.0443234" lon="6.8400743"><ele>822.3333333333333</ele><time>2026-05-03T09:45:56.124Z</time></trkpt><trkpt lat="44.0444041" lon="6.8401527"><ele>823.0</ele><time>2026-05-03T09:45:57.125Z</time></trkpt><trkpt lat="44.0444781" lon="6.8403283"><ele>823.0</ele><time>2026-05-03T09:45:58.124Z</time></trkpt><trkpt lat="44.0445613" lon="6.8404633"><ele>823.0</ele><time>2026-05-03T09:45:59.124Z</time></trkpt><trkpt lat="44.0445982" lon="6.840623"><ele>823.0</ele><time>2026-05-03T09:46:00.125Z</time></trkpt><trkpt lat="44.0446363" lon="6.84077"><ele>823.0</ele><time>2026-05-03T09:46:01.125Z</time></trkpt><trkpt lat="44.0445989" lon="6.8409148"><ele>819.8</ele><time>2026-05-03T09:46:02.125Z</time></trkpt><trkpt lat="44.0446015" lon="6.8410514"><ele>816.5999999999999</ele><time>2026-05-03T09:46:03.124Z</time></trkpt><trkpt lat="44.0446107" lon="6.8412006"><ele>813.4000000000001</ele><time>2026-05-03T09:46:04.125Z</time></trkpt><trkpt lat="44.0446675" lon="6.8413068"><ele>810.2</ele><time>2026-05-03T09:46:05.125Z</time></trkpt><trkpt lat="44.0447203" lon="6.8414042"><ele>807.0</ele><time>2026-05-03T09:46:06.125Z</time></trkpt><trkpt lat="44.0447787" lon="6.8414807"><ele>830.0</ele><time>2026-05-03T09:46:07.125Z</time></trkpt><trkpt lat="44.0467144" lon="6.8428971"><ele>830.0</ele><time>2026-05-03T09:46:22.125Z</time></trkpt><trkpt lat="44.0468058" lon="6.8429679"><ele>830.0</ele><time>2026-05-03T09:46:23.125Z</time></trkpt><trkpt lat="44.0468975" lon="6.8430117"><ele>830.0</ele><time>2026-05-03T09:46:24.124Z</time></trkpt><trkpt lat="44.0470232" lon="6.8430295"><ele>830.0</ele><time>2026-05-03T09:46:25.125Z</time></trkpt><trkpt lat="44.0471429" lon="6.8430505"><ele>830.0</ele><time>2026-05-03T09:46:26.124Z</time></trkpt><trkpt lat="44.0472369" lon="6.8430115"><ele>830.0</ele><time>2026-05-03T09:46:27.125Z</time></trkpt><trkpt lat="44.0473121" lon="6.8429906"><ele>830.0</ele><time>2026-05-03T09:46:28.125Z</time></trkpt><trkpt lat="44.0474316" lon="6.8430209"><ele>830.0</ele><time>2026-05-03T09:46:30.125Z</time></trkpt><trkpt lat="44.0474751" lon="6.8431726"><ele>830.0</ele><time>2026-05-03T09:46:32.125Z</time></trkpt><trkpt lat="44.0474675" lon="6.8432748"><ele>830.0</ele><time>2026-05-03T09:46:33.125Z</time></trkpt><trkpt lat="44.047477" lon="6.843376"><ele>830.0000000000001</ele><time>2026-05-03T09:46:34.125Z</time></trkpt><trkpt lat="44.0475095" lon="6.8434771"><ele>830.0</ele><time>2026-05-03T09:46:35.125Z</time></trkpt><trkpt lat="44.0475611" lon="6.8435557"><ele>830.0</ele><time>2026-05-03T09:46:36.125Z</time></trkpt><trkpt lat="44.0476246" lon="6.8436275"><ele>830.0</ele><time>2026-05-03T09:46:37.125Z</time></trkpt><trkpt lat="44.0477112" lon="6.8436849"><ele>830.0000000000001</ele><time>2026-05-03T09:46:38.125Z</time></trkpt><trkpt lat="44.0478025" lon="6.8437525"><ele>830.0</ele><time>2026-05-03T09:46:39.125Z</time></trkpt><trkpt lat="44.0478831" lon="6.8438257"><ele>830.0</ele><time>2026-05-03T09:46:40.125Z</time></trkpt><trkpt lat="44.0479628" lon="6.8439033"><ele>830.0</ele><time>2026-05-03T09:46:41.125Z</time></trkpt><trkpt lat="44.0486873" lon="6.844333"><ele>835.8</ele><time>2026-05-03T09:46:49.125Z</time></trkpt><trkpt lat="44.0487592" lon="6.8442422"><ele>841.6</ele><time>2026-05-03T09:46:50.125Z</time></trkpt><trkpt lat="44.0488077" lon="6.8441093"><ele>847.4000000000001</ele><time>2026-05-03T09:46:51.125Z</time></trkpt><trkpt lat="44.0488747" lon="6.8439984"><ele>853.2</ele><time>2026-05-03T09:46:52.125Z</time></trkpt><trkpt lat="44.0489203" lon="6.8438141"><ele>859.0</ele><time>2026-05-03T09:46:53.13Z</time></trkpt><trkpt lat="44.0489761" lon="6.8436617"><ele>859.0</ele><time>2026-05-03T09:46:54.127Z</time></trkpt><trkpt lat="44.0490323" lon="6.8435053"><ele>859.0</ele><time>2026-05-03T09:46:55.125Z</time></trkpt><trkpt lat="44.0491054" lon="6.8433471"><ele>859.0</ele><time>2026-05-03T09:46:56.125Z</time></trkpt><trkpt lat="44.049171" lon="6.8431996"><ele>859.0</ele><time>2026-05-03T09:46:57.123Z</time></trkpt><trkpt lat="44.0492267" lon="6.8430547"><ele>861.5</ele><time>2026-05-03T09:46:58.126Z</time></trkpt><trkpt lat="44.0492915" lon="6.8429091"><ele>864.0</ele><time>2026-05-03T09:46:59.126Z</time></trkpt><trkpt lat="44.0493512" lon="6.8427696"><ele>866.5</ele><time>2026-05-03T09:47:00.125Z</time></trkpt><trkpt lat="44.0494088" lon="6.8426414"><ele>869.0</ele><time>2026-05-03T09:47:01.125Z</time></trkpt><trkpt lat="44.0494509" lon="6.842497"><ele>869.0</ele><time>2026-05-03T09:47:02.126Z</time></trkpt><trkpt lat="44.0495097" lon="6.8424063"><ele>869.0000000000001</ele><time>2026-05-03T09:47:03.125Z</time></trkpt><trkpt lat="44.0495551" lon="6.8422919"><ele>869.0000000000001</ele><time>2026-05-03T09:47:04.125Z</time></trkpt><trkpt lat="44.0496529" lon="6.8422765"><ele>869.0</ele><time>2026-05-03T09:47:05.125Z</time></trkpt><trkpt lat="44.0497385" lon="6.8422665"><ele>869.0</ele><time>2026-05-03T09:47:06.126Z</time></trkpt><trkpt lat="44.0498277" lon="6.8422991"><ele>869.0</ele><time>2026-05-03T09:47:07.126Z</time></trkpt><trkpt lat="44.0499066" lon="6.8423663"><ele>869.0000000000001</ele><time>2026-05-03T09:47:08.126Z</time></trkpt><trkpt lat="44.0499819" lon="6.8424525"><ele>869.0000000000001</ele><time>2026-05-03T09:47:09.126Z</time></trkpt><trkpt lat="44.0500601" lon="6.8425631"><ele>869.0</ele><time>2026-05-03T09:47:10.126Z</time></trkpt><trkpt lat="44.0501406" lon="6.8426394"><ele>869.0</ele><time>2026-05-03T09:47:11.126Z</time></trkpt><trkpt lat="44.0501713" lon="6.8427502"><ele>862.0000000000001</ele><time>2026-05-03T09:47:12.126Z</time></trkpt><trkpt lat="44.0501877" lon="6.8428622"><ele>855.0</ele><time>2026-05-03T09:47:13.125Z</time></trkpt><trkpt lat="44.0502024" lon="6.8429756"><ele>848.0</ele><time>2026-05-03T09:47:14.126Z</time></trkpt><trkpt lat="44.0502231" lon="6.843098"><ele>841.0</ele><time>2026-05-03T09:47:15.126Z</time></trkpt><trkpt lat="44.0502556" lon="6.843219"><ele>834.0000000000001</ele><time>2026-05-03T09:47:16.126Z</time></trkpt><trkpt lat="44.0502791" lon="6.8433346"><ele>827.0</ele><time>2026-05-03T09:47:17.126Z</time></trkpt><trkpt lat="44.0502885" lon="6.8434536"><ele>823.6666666666667</ele><time>2026-05-03T09:47:18.126Z</time></trkpt><trkpt lat="44.0502772" lon="6.8435686"><ele>820.3333333333334</ele><time>2026-05-03T09:47:19.126Z</time></trkpt><trkpt lat="44.0502445" lon="6.8436858"><ele>817.0</ele><time>2026-05-03T09:47:20.126Z</time></trkpt><trkpt lat="44.0502098" lon="6.8437989"><ele>813.6666666666667</ele><time>2026-05-03T09:47:21.126Z</time></trkpt><trkpt lat="44.0501749" lon="6.8439064"><ele>810.3333333333334</ele><time>2026-05-03T09:47:22.126Z</time></trkpt><trkpt lat="44.0501458" lon="6.8440168"><ele>807.0</ele><time>2026-05-03T09:47:23.126Z</time></trkpt><trkpt lat="44.0501225" lon="6.8441179"><ele>807.0</ele><time>2026-05-03T09:47:24.126Z</time></trkpt><trkpt lat="44.0501223" lon="6.8442229"><ele>807.0</ele><time>2026-05-03T09:47:25.126Z</time></trkpt><trkpt lat="44.0501486" lon="6.8443318"><ele>807.0</ele><time>2026-05-03T09:47:26.125Z</time></trkpt><trkpt lat="44.0501931" lon="6.8444211"><ele>807.0</ele><time>2026-05-03T09:47:27.126Z</time></trkpt><trkpt lat="44.0502424" lon="6.8444997"><ele>807.0</ele><time>2026-05-03T09:47:28.126Z</time></trkpt><trkpt lat="44.0503131" lon="6.844535"><ele>807.0</ele><time>2026-05-03T09:47:29.125Z</time></trkpt><trkpt lat="44.0503923" lon="6.8445474"><ele>807.0</ele><time>2026-05-03T09:47:30.126Z</time></trkpt><trkpt lat="44.050474" lon="6.8445163"><ele>807.0</ele><time>2026-05-03T09:47:31.126Z</time></trkpt><trkpt lat="44.0505578" lon="6.8444629"><ele>807.0</ele><time>2026-05-03T09:47:32.126Z</time></trkpt><trkpt lat="44.0506512" lon="6.8444014"><ele>807.0</ele><time>2026-05-03T09:47:33.126Z</time></trkpt><trkpt lat="44.0507312" lon="6.8442893"><ele>807.0</ele><time>2026-05-03T09:47:34.126Z</time></trkpt><trkpt lat="44.0508081" lon="6.8442018"><ele>809.0000000000001</ele><time>2026-05-03T09:47:35.126Z</time></trkpt><trkpt lat="44.0508642" lon="6.844157"><ele>811.0</ele><time>2026-05-03T09:47:36.125Z</time></trkpt><trkpt lat="44.0509363" lon="6.8441398"><ele>813.0</ele><time>2026-05-03T09:47:37.126Z</time></trkpt><trkpt lat="44.0510079" lon="6.8441289"><ele>815.0</ele><time>2026-05-03T09:47:38.126Z</time></trkpt><trkpt lat="44.0510688" lon="6.8441918"><ele>817.0</ele><time>2026-05-03T09:47:39.126Z</time></trkpt><trkpt lat="44.0511255" lon="6.8442443"><ele>819.0000000000001</ele><time>2026-05-03T09:47:40.126Z</time></trkpt><trkpt lat="44.0511804" lon="6.8443007"><ele>821.0</ele><time>2026-05-03T09:47:41.125Z</time></trkpt><trkpt lat="44.0516047" lon="6.844789"><ele>819.0</ele><time>2026-05-03T09:47:45.126Z</time></trkpt><trkpt lat="44.0517182" lon="6.8449334"><ele>817.0</ele><time>2026-05-03T09:47:46.126Z</time></trkpt><trkpt lat="44.051773" lon="6.8450598"><ele>815.0</ele><time>2026-05-03T09:47:47.126Z</time></trkpt><trkpt lat="44.0518639" lon="6.8451677"><ele>813.0</ele><time>2026-05-03T09:47:48.126Z</time></trkpt><trkpt lat="44.0519515" lon="6.8452564"><ele>813.0</ele><time>2026-05-03T09:47:49.126Z</time></trkpt><trkpt lat="44.0520509" lon="6.8452856"><ele>813.0</ele><time>2026-05-03T09:47:50.126Z</time></trkpt><trkpt lat="44.0521613" lon="6.8452453"><ele>813.0</ele><time>2026-05-03T09:47:51.126Z</time></trkpt><trkpt lat="44.0522658" lon="6.8452073"><ele>813.0</ele><time>2026-05-03T09:47:52.126Z</time></trkpt><trkpt lat="44.0523689" lon="6.8451487"><ele>813.0</ele><time>2026-05-03T09:47:53.126Z</time></trkpt><trkpt lat="44.0524774" lon="6.8451003"><ele>813.2</ele><time>2026-05-03T09:47:54.125Z</time></trkpt><trkpt lat="44.0525879" lon="6.8451252"><ele>813.4</ele><time>2026-05-03T09:47:55.125Z</time></trkpt><trkpt lat="44.0526948" lon="6.8451339"><ele>813.6</ele><time>2026-05-03T09:47:56.126Z</time></trkpt><trkpt lat="44.0528118" lon="6.8451526"><ele>813.8000000000001</ele><time>2026-05-03T09:47:57.126Z</time></trkpt><trkpt lat="44.052897" lon="6.8451896"><ele>814.0</ele><time>2026-05-03T09:47:58.125Z</time></trkpt><trkpt lat="44.0529877" lon="6.8452298"><ele>813.9999999999999</ele><time>2026-05-03T09:47:59.126Z</time></trkpt><trkpt lat="44.0530448" lon="6.84531"><ele>814.0</ele><time>2026-05-03T09:48:00.125Z</time></trkpt><trkpt lat="44.0530623" lon="6.8453981"><ele>814.0</ele><time>2026-05-03T09:48:01.126Z</time></trkpt><trkpt lat="44.0530745" lon="6.8455084"><ele>814.0</ele><time>2026-05-03T09:48:02.127Z</time></trkpt><trkpt lat="44.0530919" lon="6.8456058"><ele>813.9999999999999</ele><time>2026-05-03T09:48:03.125Z</time></trkpt><trkpt lat="44.0531561" lon="6.8456958"><ele>814.0</ele><time>2026-05-03T09:48:04.124Z</time></trkpt><trkpt lat="44.0532128" lon="6.8457797"><ele>815.3333333333333</ele><time>2026-05-03T09:48:05.125Z</time></trkpt><trkpt lat="44.0532919" lon="6.8458068"><ele>816.6666666666666</ele><time>2026-05-03T09:48:06.124Z</time></trkpt><trkpt lat="44.0533707" lon="6.8457885"><ele>818.0</ele><time>2026-05-03T09:48:07.124Z</time></trkpt><trkpt lat="44.0534445" lon="6.8457283"><ele>819.3333333333333</ele><time>2026-05-03T09:48:08.124Z</time></trkpt><trkpt lat="44.0535122" lon="6.845634"><ele>820.6666666666666</ele><time>2026-05-03T09:48:09.124Z</time></trkpt><trkpt lat="44.0535639" lon="6.8455302"><ele>822.0</ele><time>2026-05-03T09:48:10.124Z</time></trkpt><trkpt lat="44.053602" lon="6.8454051"><ele>822.0</ele><time>2026-05-03T09:48:11.125Z</time></trkpt><trkpt lat="44.0536355" lon="6.8452731"><ele>822.0</ele><time>2026-05-03T09:48:12.124Z</time></trkpt><trkpt lat="44.053655" lon="6.84515"><ele>822.0</ele><time>2026-05-03T09:48:13.125Z</time></trkpt><trkpt lat="44.0537103" lon="6.8450691"><ele>822.0</ele><time>2026-05-03T09:48:14.125Z</time></trkpt><trkpt lat="44.0538614" lon="6.8449892"><ele>822.0</ele><time>2026-05-03T09:48:16.125Z</time></trkpt><trkpt lat="44.0539444" lon="6.845005"><ele>819.6</ele><time>2026-05-03T09:48:17.125Z</time></trkpt><trkpt lat="44.0540379" lon="6.8450622"><ele>817.2</ele><time>2026-05-03T09:48:18.124Z</time></trkpt><trkpt lat="44.0541285" lon="6.8451275"><ele>814.8</ele><time>2026-05-03T09:48:19.125Z</time></trkpt><trkpt lat="44.0542204" lon="6.8451798"><ele>812.4</ele><time>2026-05-03T09:48:20.125Z</time></trkpt><trkpt lat="44.0543113" lon="6.8452488"><ele>810.0</ele><time>2026-05-03T09:48:21.125Z</time></trkpt><trkpt lat="44.0543955" lon="6.8453106"><ele>810.0</ele><time>2026-05-03T09:48:22.125Z</time></trkpt><trkpt lat="44.0545008" lon="6.8453542"><ele>810.0</ele><time>2026-05-03T09:48:23.125Z</time></trkpt><trkpt lat="44.054602" lon="6.8453892"><ele>810.0</ele><time>2026-05-03T09:48:24.124Z</time></trkpt><trkpt lat="44.0547301" lon="6.8453808"><ele>810.0</ele><time>2026-05-03T09:48:25.125Z</time></trkpt><trkpt lat="44.0548261" lon="6.8453284"><ele>810.0</ele><time>2026-05-03T09:48:26.125Z</time></trkpt><trkpt lat="44.0549349" lon="6.8452915"><ele>811.2</ele><time>2026-05-03T09:48:27.125Z</time></trkpt><trkpt lat="44.0550362" lon="6.845266"><ele>812.4</ele><time>2026-05-03T09:48:28.125Z</time></trkpt><trkpt lat="44.0551376" lon="6.8452418"><ele>813.5999999999999</ele><time>2026-05-03T09:48:29.125Z</time></trkpt><trkpt lat="44.0552282" lon="6.8452426"><ele>814.8</ele><time>2026-05-03T09:48:30.125Z</time></trkpt><trkpt lat="44.0553058" lon="6.8452944"><ele>816.0</ele><time>2026-05-03T09:48:31.125Z</time></trkpt><trkpt lat="44.0553202" lon="6.8454642"><ele>816.0</ele><time>2026-05-03T09:48:32.125Z</time></trkpt><trkpt lat="44.0553451" lon="6.8456238"><ele>816.0</ele><time>2026-05-03T09:48:33.125Z</time></trkpt><trkpt lat="44.0553869" lon="6.8457711"><ele>816.0</ele><time>2026-05-03T09:48:34.125Z</time></trkpt><trkpt lat="44.0554323" lon="6.8459028"><ele>816.0</ele><time>2026-05-03T09:48:35.124Z</time></trkpt><trkpt lat="44.0554833" lon="6.8460306"><ele>816.0</ele><time>2026-05-03T09:48:36.125Z</time></trkpt><trkpt lat="44.0555239" lon="6.8461582"><ele>813.1999999999999</ele><time>2026-05-03T09:48:37.125Z</time></trkpt><trkpt lat="44.0555312" lon="6.8462759"><ele>810.4</ele><time>2026-05-03T09:48:38.124Z</time></trkpt><trkpt lat="44.0555138" lon="6.8463976"><ele>807.6</ele><time>2026-05-03T09:48:39.125Z</time></trkpt><trkpt lat="44.0554669" lon="6.8465191"><ele>804.8</ele><time>2026-05-03T09:48:40.125Z</time></trkpt><trkpt lat="44.0554078" lon="6.8466473"><ele>802.0</ele><time>2026-05-03T09:48:41.125Z</time></trkpt><trkpt lat="44.055358" lon="6.8467784"><ele>803.0</ele><time>2026-05-03T09:48:42.125Z</time></trkpt><trkpt lat="44.0552878" lon="6.846924"><ele>804.0</ele><time>2026-05-03T09:48:43.125Z</time></trkpt><trkpt lat="44.0552223" lon="6.8470686"><ele>805.0</ele><time>2026-05-03T09:48:44.125Z</time></trkpt><trkpt lat="44.0551656" lon="6.8472099"><ele>806.0</ele><time>2026-05-03T09:48:45.125Z</time></trkpt><trkpt lat="44.0551136" lon="6.8473515"><ele>806.0</ele><time>2026-05-03T09:48:46.125Z</time></trkpt><trkpt lat="44.0550614" lon="6.8474905"><ele>806.0</ele><time>2026-05-03T09:48:47.125Z</time></trkpt><trkpt lat="44.0550128" lon="6.8476204"><ele>806.0</ele><time>2026-05-03T09:48:48.124Z</time></trkpt><trkpt lat="44.0549683" lon="6.8477534"><ele>806.0</ele><time>2026-05-03T09:48:49.124Z</time></trkpt><trkpt lat="44.0549252" lon="6.847893"><ele>806.0</ele><time>2026-05-03T09:48:50.125Z</time></trkpt><trkpt lat="44.0548784" lon="6.8480323"><ele>795.5</ele><time>2026-05-03T09:48:51.125Z</time></trkpt><trkpt lat="44.0548355" lon="6.8481686"><ele>785.0</ele><time>2026-05-03T09:48:52.125Z</time></trkpt><trkpt lat="44.0547999" lon="6.8483226"><ele>774.5</ele><time>2026-05-03T09:48:53.125Z</time></trkpt><trkpt lat="44.0547544" lon="6.848472"><ele>764.0</ele><time>2026-05-03T09:48:54.124Z</time></trkpt><trkpt lat="44.0547002" lon="6.848608"><ele>764.0</ele><time>2026-05-03T09:48:55.125Z</time></trkpt><trkpt lat="44.0546459" lon="6.8487394"><ele>764.0</ele><time>2026-05-03T09:48:56.125Z</time></trkpt><trkpt lat="44.0546091" lon="6.8488677"><ele>764.0</ele><time>2026-05-03T09:48:57.125Z</time></trkpt><trkpt lat="44.0545736" lon="6.848991"><ele>764.0</ele><time>2026-05-03T09:48:58.125Z</time></trkpt><trkpt lat="44.0545614" lon="6.8491209"><ele>764.0</ele><time>2026-05-03T09:48:59.125Z</time></trkpt><trkpt lat="44.0545718" lon="6.8492385"><ele>768.2</ele><time>2026-05-03T09:49:00.125Z</time></trkpt><trkpt lat="44.0545894" lon="6.8493572"><ele>772.4000000000001</ele><time>2026-05-03T09:49:01.125Z</time></trkpt><trkpt lat="44.0546295" lon="6.8494757"><ele>776.6</ele><time>2026-05-03T09:49:02.124Z</time></trkpt><trkpt lat="44.0546843" lon="6.8495844"><ele>780.8</ele><time>2026-05-03T09:49:03.125Z</time></trkpt><trkpt lat="44.0547655" lon="6.8496508"><ele>785.0</ele><time>2026-05-03T09:49:04.125Z</time></trkpt><trkpt lat="44.0548356" lon="6.8497187"><ele>785.0000000000001</ele><time>2026-05-03T09:49:05.125Z</time></trkpt><trkpt lat="44.0549158" lon="6.8497857"><ele>785.0</ele><time>2026-05-03T09:49:06.125Z</time></trkpt><trkpt lat="44.0549969" lon="6.8497908"><ele>785.0</ele><time>2026-05-03T09:49:07.125Z</time></trkpt><trkpt lat="44.0550742" lon="6.8498159"><ele>785.0</ele><time>2026-05-03T09:49:08.125Z</time></trkpt><trkpt lat="44.0551451" lon="6.8498728"><ele>785.0000000000001</ele><time>2026-05-03T09:49:09.125Z</time></trkpt><trkpt lat="44.0551802" lon="6.8499693"><ele>785.0</ele><time>2026-05-03T09:49:10.125Z</time></trkpt><trkpt lat="44.0551972" lon="6.8500765"><ele>787.5000000000001</ele><time>2026-05-03T09:49:11.125Z</time></trkpt><trkpt lat="44.0552008" lon="6.8501985"><ele>790.0</ele><time>2026-05-03T09:49:12.125Z</time></trkpt><trkpt lat="44.0552388" lon="6.8503181"><ele>792.5</ele><time>2026-05-03T09:49:13.125Z</time></trkpt><trkpt lat="44.0552612" lon="6.8504343"><ele>795.0</ele><time>2026-05-03T09:49:14.125Z</time></trkpt><trkpt lat="44.0553232" lon="6.8505326"><ele>797.5000000000001</ele><time>2026-05-03T09:49:15.125Z</time></trkpt><trkpt lat="44.0553921" lon="6.8506026"><ele>800.0</ele><time>2026-05-03T09:49:16.125Z</time></trkpt><trkpt lat="44.0555333" lon="6.8506347"><ele>800.0</ele><time>2026-05-03T09:49:17.124Z</time></trkpt><trkpt lat="44.0556389" lon="6.85069"><ele>800.0</ele><time>2026-05-03T09:49:18.125Z</time></trkpt><trkpt lat="44.0557248" lon="6.8507708"><ele>800.0</ele><time>2026-05-03T09:49:19.125Z</time></trkpt><trkpt lat="44.0558047" lon="6.8507953"><ele>800.0</ele><time>2026-05-03T09:49:20.125Z</time></trkpt><trkpt lat="44.055878" lon="6.85085"><ele>800.0</ele><time>2026-05-03T09:49:21.124Z</time></trkpt><trkpt lat="44.0560406" lon="6.8507885"><ele>801.6666666666667</ele><time>2026-05-03T09:49:23.125Z</time></trkpt><trkpt lat="44.0561332" lon="6.8507545"><ele>803.3333333333334</ele><time>2026-05-03T09:49:24.125Z</time></trkpt><trkpt lat="44.0562299" lon="6.8507461"><ele>805.0</ele><time>2026-05-03T09:49:25.124Z</time></trkpt><trkpt lat="44.0562976" lon="6.8507806"><ele>806.6666666666667</ele><time>2026-05-03T09:49:26.125Z</time></trkpt><trkpt lat="44.0563579" lon="6.8508501"><ele>808.3333333333334</ele><time>2026-05-03T09:49:27.125Z</time></trkpt><trkpt lat="44.0564112" lon="6.8509316"><ele>810.0</ele><time>2026-05-03T09:49:28.125Z</time></trkpt><trkpt lat="44.0564505" lon="6.8510199"><ele>811.6666666666666</ele><time>2026-05-03T09:49:29.125Z</time></trkpt><trkpt lat="44.0565596" lon="6.8511066"><ele>813.3333333333333</ele><time>2026-05-03T09:49:31.124Z</time></trkpt><trkpt lat="44.0566234" lon="6.8511015"><ele>815.0</ele><time>2026-05-03T09:49:32.125Z</time></trkpt><trkpt lat="44.0567058" lon="6.8510848"><ele>816.6666666666666</ele><time>2026-05-03T09:49:33.125Z</time></trkpt><trkpt lat="44.0567605" lon="6.8509995"><ele>818.3333333333333</ele><time>2026-05-03T09:49:34.125Z</time></trkpt><trkpt lat="44.0568262" lon="6.8509405"><ele>820.0</ele><time>2026-05-03T09:49:35.124Z</time></trkpt><trkpt lat="44.0569042" lon="6.8509052"><ele>820.0</ele><time>2026-05-03T09:49:36.125Z</time></trkpt><trkpt lat="44.0569853" lon="6.8509164"><ele>820.0</ele><time>2026-05-03T09:49:37.124Z</time></trkpt><trkpt lat="44.0570572" lon="6.8509328"><ele>820.0</ele><time>2026-05-03T09:49:38.125Z</time></trkpt><trkpt lat="44.0571305" lon="6.8510509"><ele>820.0</ele><time>2026-05-03T09:49:39.124Z</time></trkpt><trkpt lat="44.0571719" lon="6.8511739"><ele>820.0</ele><time>2026-05-03T09:49:40.125Z</time></trkpt><trkpt lat="44.0572205" lon="6.8513001"><ele>814.2</ele><time>2026-05-03T09:49:41.125Z</time></trkpt><trkpt lat="44.0572515" lon="6.8514252"><ele>808.4</ele><time>2026-05-03T09:49:42.125Z</time></trkpt><trkpt lat="44.0572905" lon="6.8515622"><ele>802.5999999999999</ele><time>2026-05-03T09:49:43.125Z</time></trkpt><trkpt lat="44.0572986" lon="6.8516855"><ele>796.8</ele><time>2026-05-03T09:49:44.125Z</time></trkpt><trkpt lat="44.0572934" lon="6.8518128"><ele>791.0</ele><time>2026-05-03T09:49:45.125Z</time></trkpt><trkpt lat="44.0572968" lon="6.851952"><ele>792.5999999999999</ele><time>2026-05-03T09:49:46.124Z</time></trkpt><trkpt lat="44.0573105" lon="6.8520881"><ele>794.2</ele><time>2026-05-03T09:49:47.125Z</time></trkpt><trkpt lat="44.0573445" lon="6.8522215"><ele>795.8</ele><time>2026-05-03T09:49:48.125Z</time></trkpt><trkpt lat="44.0573871" lon="6.8523407"><ele>797.4000000000001</ele><time>2026-05-03T09:49:49.125Z</time></trkpt><trkpt lat="44.0574696" lon="6.8524336"><ele>799.0</ele><time>2026-05-03T09:49:50.125Z</time></trkpt><trkpt lat="44.05754" lon="6.8525297"><ele>798.9999999999999</ele><time>2026-05-03T09:49:51.125Z</time></trkpt><trkpt lat="44.0576037" lon="6.8526076"><ele>799.0</ele><time>2026-05-03T09:49:52.125Z</time></trkpt><trkpt lat="44.0576677" lon="6.8526417"><ele>799.0</ele><time>2026-05-03T09:49:53.125Z</time></trkpt><trkpt lat="44.0577379" lon="6.8526697"><ele>799.0</ele><time>2026-05-03T09:49:54.125Z</time></trkpt><trkpt lat="44.0578152" lon="6.8526758"><ele>798.9999999999999</ele><time>2026-05-03T09:49:55.125Z</time></trkpt><trkpt lat="44.0578994" lon="6.8525944"><ele>799.0</ele><time>2026-05-03T09:49:56.124Z</time></trkpt><trkpt lat="44.0579934" lon="6.8525385"><ele>798.9999999999999</ele><time>2026-05-03T09:49:57.125Z</time></trkpt><trkpt lat="44.0580726" lon="6.8524993"><ele>799.0</ele><time>2026-05-03T09:49:58.125Z</time></trkpt><trkpt lat="44.0581444" lon="6.8525582"><ele>799.0</ele><time>2026-05-03T09:49:59.125Z</time></trkpt><trkpt lat="44.0582077" lon="6.8526235"><ele>799.0</ele><time>2026-05-03T09:50:00.125Z</time></trkpt><trkpt lat="44.058272" lon="6.8526651"><ele>798.9999999999999</ele><time>2026-05-03T09:50:01.125Z</time></trkpt><trkpt lat="44.0583422" lon="6.8526989"><ele>799.0</ele><time>2026-05-03T09:50:02.125Z</time></trkpt><trkpt lat="44.0584038" lon="6.8526534"><ele>798.0</ele><time>2026-05-03T09:50:03.125Z</time></trkpt><trkpt lat="44.0584826" lon="6.85256"><ele>797.0</ele><time>2026-05-03T09:50:04.125Z</time></trkpt><trkpt lat="44.0585516" lon="6.8524642"><ele>796.0</ele><time>2026-05-03T09:50:05.125Z</time></trkpt><trkpt lat="44.0586246" lon="6.8523586"><ele>795.0</ele><time>2026-05-03T09:50:06.125Z</time></trkpt><trkpt lat="44.0586989" lon="6.8522441"><ele>794.0</ele><time>2026-05-03T09:50:07.125Z</time></trkpt><trkpt lat="44.058769" lon="6.8521339"><ele>794.0</ele><time>2026-05-03T09:50:08.125Z</time></trkpt><trkpt lat="44.0588502" lon="6.8520279"><ele>794.0</ele><time>2026-05-03T09:50:09.125Z</time></trkpt><trkpt lat="44.0589315" lon="6.8519698"><ele>794.0</ele><time>2026-05-03T09:50:10.125Z</time></trkpt><trkpt lat="44.0590142" lon="6.8518981"><ele>794.0</ele><time>2026-05-03T09:50:11.125Z</time></trkpt><trkpt lat="44.0591107" lon="6.8518757"><ele>794.0</ele><time>2026-05-03T09:50:12.125Z</time></trkpt><trkpt lat="44.0592108" lon="6.8518562"><ele>791.4000000000001</ele><time>2026-05-03T09:50:13.125Z</time></trkpt><trkpt lat="44.0593184" lon="6.8519124"><ele>788.8</ele><time>2026-05-03T09:50:14.125Z</time></trkpt><trkpt lat="44.059427" lon="6.8519568"><ele>786.2</ele><time>2026-05-03T09:50:15.124Z</time></trkpt><trkpt lat="44.0595325" lon="6.8520019"><ele>783.5999999999999</ele><time>2026-05-03T09:50:16.125Z</time></trkpt><trkpt lat="44.0596238" lon="6.8520654"><ele>781.0</ele><time>2026-05-03T09:50:17.125Z</time></trkpt><trkpt lat="44.0596938" lon="6.8521666"><ele>781.0</ele><time>2026-05-03T09:50:18.125Z</time></trkpt><trkpt lat="44.0597483" lon="6.8522863"><ele>781.0</ele><time>2026-05-03T09:50:19.124Z</time></trkpt><trkpt lat="44.0597776" lon="6.8524088"><ele>781.0</ele><time>2026-05-03T09:50:20.124Z</time></trkpt><trkpt lat="44.0597846" lon="6.8525496"><ele>781.0</ele><time>2026-05-03T09:50:21.125Z</time></trkpt><trkpt lat="44.059774" lon="6.8526688"><ele>781.0</ele><time>2026-05-03T09:50:22.125Z</time></trkpt><trkpt lat="44.0597822" lon="6.8527902"><ele>782.1666666666666</ele><time>2026-05-03T09:50:23.124Z</time></trkpt><trkpt lat="44.0598139" lon="6.8528961"><ele>783.3333333333333</ele><time>2026-05-03T09:50:24.125Z</time></trkpt><trkpt lat="44.05986" lon="6.8529928"><ele>784.5</ele><time>2026-05-03T09:50:25.125Z</time></trkpt><trkpt lat="44.0599089" lon="6.8530648"><ele>785.6666666666667</ele><time>2026-05-03T09:50:26.125Z</time></trkpt><trkpt lat="44.0599858" lon="6.8531035"><ele>786.8333333333334</ele><time>2026-05-03T09:50:27.124Z</time></trkpt><trkpt lat="44.0600688" lon="6.8531231"><ele>788.0</ele><time>2026-05-03T09:50:28.125Z</time></trkpt><trkpt lat="44.0601115" lon="6.8532128"><ele>788.0000000000001</ele><time>2026-05-03T09:50:29.125Z</time></trkpt><trkpt lat="44.060138" lon="6.8533137"><ele>788.0</ele><time>2026-05-03T09:50:30.125Z</time></trkpt><trkpt lat="44.0601432" lon="6.8534209"><ele>788.0</ele><time>2026-05-03T09:50:31.125Z</time></trkpt><trkpt lat="44.0601494" lon="6.8535204"><ele>788.0</ele><time>2026-05-03T09:50:32.124Z</time></trkpt><trkpt lat="44.0601331" lon="6.8536157"><ele>788.0000000000001</ele><time>2026-05-03T09:50:33.125Z</time></trkpt><trkpt lat="44.0601371" lon="6.853707"><ele>788.0</ele><time>2026-05-03T09:50:34.125Z</time></trkpt><trkpt lat="44.0602034" lon="6.8538484"><ele>784.0000000000001</ele><time>2026-05-03T09:50:36.124Z</time></trkpt><trkpt lat="44.060291" lon="6.8538703"><ele>780.0</ele><time>2026-05-03T09:50:37.125Z</time></trkpt><trkpt lat="44.0603676" lon="6.8538814"><ele>776.0</ele><time>2026-05-03T09:50:38.125Z</time></trkpt><trkpt lat="44.0604491" lon="6.8539015"><ele>772.0</ele><time>2026-05-03T09:50:39.124Z</time></trkpt><trkpt lat="44.0605223" lon="6.8539357"><ele>768.0</ele><time>2026-05-03T09:50:40.125Z</time></trkpt><trkpt lat="44.0605722" lon="6.8540232"><ele>764.0</ele><time>2026-05-03T09:50:41.125Z</time></trkpt><trkpt lat="44.0606261" lon="6.8541022"><ele>764.0</ele><time>2026-05-03T09:50:42.124Z</time></trkpt><trkpt lat="44.0606779" lon="6.8541868"><ele>764.0</ele><time>2026-05-03T09:50:43.125Z</time></trkpt><trkpt lat="44.0607296" lon="6.8542568"><ele>764.0</ele><time>2026-05-03T09:50:44.124Z</time></trkpt><trkpt lat="44.0608479" lon="6.8543248"><ele>764.0</ele><time>2026-05-03T09:50:46.125Z</time></trkpt><trkpt lat="44.0609153" lon="6.8543501"><ele>764.0</ele><time>2026-05-03T09:50:47.125Z</time></trkpt><trkpt lat="44.0609877" lon="6.8543614"><ele>764.0</ele><time>2026-05-03T09:50:48.125Z</time></trkpt><trkpt lat="44.0610545" lon="6.8543542"><ele>805.0</ele><time>2026-05-03T09:50:49.124Z</time></trkpt><trkpt lat="44.0614593" lon="6.8540533"><ele>783.0</ele><time>2026-05-03T09:50:55.125Z</time></trkpt><trkpt lat="44.0619037" lon="6.8537909"><ele>783.0</ele><time>2026-05-03T09:50:56.125Z</time></trkpt><trkpt lat="44.0620459" lon="6.8536712"><ele>783.0</ele><time>2026-05-03T09:50:57.125Z</time></trkpt><trkpt lat="44.0621253" lon="6.8534678"><ele>783.0</ele><time>2026-05-03T09:50:58.125Z</time></trkpt><trkpt lat="44.0621639" lon="6.8533069"><ele>788.25</ele><time>2026-05-03T09:50:59.125Z</time></trkpt><trkpt lat="44.0621944" lon="6.8531471"><ele>793.5</ele><time>2026-05-03T09:51:00.124Z</time></trkpt><trkpt lat="44.0622154" lon="6.8529578"><ele>798.75</ele><time>2026-05-03T09:51:01.125Z</time></trkpt><trkpt lat="44.0621657" lon="6.8527766"><ele>804.0</ele><time>2026-05-03T09:51:02.125Z</time></trkpt><trkpt lat="44.0621348" lon="6.8525974"><ele>806.0</ele><time>2026-05-03T09:51:03.125Z</time></trkpt><trkpt lat="44.0621097" lon="6.8523964"><ele>808.0</ele><time>2026-05-03T09:51:04.125Z</time></trkpt><trkpt lat="44.0620837" lon="6.8521763"><ele>810.0</ele><time>2026-05-03T09:51:05.125Z</time></trkpt><trkpt lat="44.062052" lon="6.8519714"><ele>809.75</ele><time>2026-05-03T09:51:06.125Z</time></trkpt><trkpt lat="44.0620335" lon="6.8517741"><ele>809.5</ele><time>2026-05-03T09:51:07.125Z</time></trkpt><trkpt lat="44.06203" lon="6.8515774"><ele>809.25</ele><time>2026-05-03T09:51:08.125Z</time></trkpt><trkpt lat="44.0620229" lon="6.8513778"><ele>809.0</ele><time>2026-05-03T09:51:09.125Z</time></trkpt><trkpt lat="44.062018" lon="6.851188"><ele>809.0</ele><time>2026-05-03T09:51:10.125Z</time></trkpt><trkpt lat="44.0620406" lon="6.8509802"><ele>809.0</ele><time>2026-05-03T09:51:11.125Z</time></trkpt><trkpt lat="44.0620347" lon="6.8507824"><ele>809.0</ele><time>2026-05-03T09:51:12.125Z</time></trkpt><trkpt lat="44.0620294" lon="6.8505723"><ele>809.0</ele><time>2026-05-03T09:51:13.125Z</time></trkpt><trkpt lat="44.0620383" lon="6.8503723"><ele>809.0</ele><time>2026-05-03T09:51:14.125Z</time></trkpt><trkpt lat="44.062064" lon="6.8501999"><ele>809.0</ele><time>2026-05-03T09:51:15.125Z</time></trkpt><trkpt lat="44.0620686" lon="6.8500293"><ele>809.0</ele><time>2026-05-03T09:51:16.125Z</time></trkpt><trkpt lat="44.0620832" lon="6.8498754"><ele>809.0</ele><time>2026-05-03T09:51:17.125Z</time></trkpt><trkpt lat="44.0621119" lon="6.8497413"><ele>810.0</ele><time>2026-05-03T09:51:18.125Z</time></trkpt><trkpt lat="44.0621777" lon="6.8495796"><ele>811.0</ele><time>2026-05-03T09:51:19.125Z</time></trkpt><trkpt lat="44.0621688" lon="6.8494424"><ele>812.0</ele><time>2026-05-03T09:51:20.125Z</time></trkpt><trkpt lat="44.062138" lon="6.8493202"><ele>813.0</ele><time>2026-05-03T09:51:21.124Z</time></trkpt><trkpt lat="44.0621369" lon="6.8491971"><ele>814.0</ele><time>2026-05-03T09:51:22.125Z</time></trkpt><trkpt lat="44.0621226" lon="6.849096"><ele>813.9999999999999</ele><time>2026-05-03T09:51:23.125Z</time></trkpt><trkpt lat="44.0621325" lon="6.8490058"><ele>814.0</ele><time>2026-05-03T09:51:24.125Z</time></trkpt><trkpt lat="44.0621393" lon="6.8489171"><ele>814.0</ele><time>2026-05-03T09:51:25.124Z</time></trkpt><trkpt lat="44.0621824" lon="6.8488094"><ele>814.0</ele><time>2026-05-03T09:51:27.124Z</time></trkpt><trkpt lat="44.0621404" lon="6.8487433"><ele>813.9999999999999</ele><time>2026-05-03T09:51:31.125Z</time></trkpt><trkpt lat="44.0620942" lon="6.8488305"><ele>814.0</ele><time>2026-05-03T09:51:34.125Z</time></trkpt><trkpt lat="44.0621071" lon="6.848984"><ele>814.0</ele><time>2026-05-03T09:51:36.125Z</time></trkpt><trkpt lat="44.0621278" lon="6.8491032"><ele>814.0</ele><time>2026-05-03T09:51:37.125Z</time></trkpt><trkpt lat="44.0621617" lon="6.8492203"><ele>814.0</ele><time>2026-05-03T09:51:38.125Z</time></trkpt><trkpt lat="44.0621934" lon="6.8493557"><ele>814.0</ele><time>2026-05-03T09:51:39.125Z</time></trkpt><trkpt lat="44.0622339" lon="6.8494832"><ele>814.0</ele><time>2026-05-03T09:51:40.125Z</time></trkpt><trkpt lat="44.0622398" lon="6.8496384"><ele>814.25</ele><time>2026-05-03T09:51:41.125Z</time></trkpt><trkpt lat="44.0622481" lon="6.8497838"><ele>814.5</ele><time>2026-05-03T09:51:42.125Z</time></trkpt><trkpt lat="44.0621938" lon="6.8499387"><ele>814.75</ele><time>2026-05-03T09:51:43.125Z</time></trkpt><trkpt lat="44.0621703" lon="6.8501123"><ele>815.0</ele><time>2026-05-03T09:51:44.125Z</time></trkpt><trkpt lat="44.0621219" lon="6.8503058"><ele>813.5</ele><time>2026-05-03T09:51:45.125Z</time></trkpt><trkpt lat="44.0620518" lon="6.8504937"><ele>812.0</ele><time>2026-05-03T09:51:46.125Z</time></trkpt><trkpt lat="44.0620338" lon="6.8506895"><ele>810.5</ele><time>2026-05-03T09:51:47.125Z</time></trkpt><trkpt lat="44.0620028" lon="6.8508873"><ele>809.0</ele><time>2026-05-03T09:51:48.125Z</time></trkpt><trkpt lat="44.061992" lon="6.8510995"><ele>809.0</ele><time>2026-05-03T09:51:49.125Z</time></trkpt><trkpt lat="44.0619586" lon="6.8512639"><ele>809.0</ele><time>2026-05-03T09:51:50.125Z</time></trkpt><trkpt lat="44.061954" lon="6.8514836"><ele>809.0</ele><time>2026-05-03T09:51:51.124Z</time></trkpt><trkpt lat="44.0619533" lon="6.8516714"><ele>809.0</ele><time>2026-05-03T09:51:52.124Z</time></trkpt><trkpt lat="44.0619374" lon="6.8518774"><ele>809.25</ele><time>2026-05-03T09:51:53.125Z</time></trkpt><trkpt lat="44.0619265" lon="6.8520937"><ele>809.5</ele><time>2026-05-03T09:51:54.125Z</time></trkpt><trkpt lat="44.0619593" lon="6.8522688"><ele>809.75</ele><time>2026-05-03T09:51:55.124Z</time></trkpt><trkpt lat="44.061966" lon="6.8524378"><ele>810.0</ele><time>2026-05-03T09:51:56.125Z</time></trkpt><trkpt lat="44.0620469" lon="6.852596"><ele>808.5</ele><time>2026-05-03T09:51:57.124Z</time></trkpt><trkpt lat="44.0620729" lon="6.8527637"><ele>807.0</ele><time>2026-05-03T09:51:58.125Z</time></trkpt><trkpt lat="44.06209" lon="6.8529227"><ele>805.5</ele><time>2026-05-03T09:51:59.125Z</time></trkpt><trkpt lat="44.0621087" lon="6.8530658"><ele>804.0</ele><time>2026-05-03T09:52:00.125Z</time></trkpt><trkpt lat="44.0620936" lon="6.8532294"><ele>804.0</ele><time>2026-05-03T09:52:01.125Z</time></trkpt><trkpt lat="44.0620638" lon="6.853371"><ele>804.0</ele><time>2026-05-03T09:52:02.125Z</time></trkpt><trkpt lat="44.0619867" lon="6.8535098"><ele>804.0</ele><time>2026-05-03T09:52:03.124Z</time></trkpt><trkpt lat="44.0618618" lon="6.8535733"><ele>804.0</ele><time>2026-05-03T09:52:04.125Z</time></trkpt><trkpt lat="44.0617534" lon="6.8536341"><ele>804.25</ele><time>2026-05-03T09:52:05.125Z</time></trkpt><trkpt lat="44.0616373" lon="6.8537047"><ele>804.5</ele><time>2026-05-03T09:52:06.125Z</time></trkpt><trkpt lat="44.06152" lon="6.8538163"><ele>804.75</ele><time>2026-05-03T09:52:07.125Z</time></trkpt><trkpt lat="44.0614018" lon="6.853899"><ele>805.0</ele><time>2026-05-03T09:52:08.125Z</time></trkpt><trkpt lat="44.061282" lon="6.8539777"><ele>805.0</ele><time>2026-05-03T09:52:09.124Z</time></trkpt><trkpt lat="44.0607956" lon="6.8541647"><ele>794.75</ele><time>2026-05-03T09:52:15.125Z</time></trkpt><trkpt lat="44.0606915" lon="6.8541173"><ele>784.5</ele><time>2026-05-03T09:52:16.124Z</time></trkpt><trkpt lat="44.0606196" lon="6.8539275"><ele>774.25</ele><time>2026-05-03T09:52:17.125Z</time></trkpt><trkpt lat="44.0605172" lon="6.8538123"><ele>764.0</ele><time>2026-05-03T09:52:18.125Z</time></trkpt><trkpt lat="44.0604389" lon="6.853691"><ele>764.0</ele><time>2026-05-03T09:52:19.125Z</time></trkpt><trkpt lat="44.0603704" lon="6.8535549"><ele>764.0</ele><time>2026-05-03T09:52:20.124Z</time></trkpt><trkpt lat="44.0603105" lon="6.8534151"><ele>764.0</ele><time>2026-05-03T09:52:21.125Z</time></trkpt><trkpt lat="44.0602518" lon="6.8532841"><ele>764.0</ele><time>2026-05-03T09:52:22.124Z</time></trkpt><trkpt lat="44.0602393" lon="6.853132"><ele>767.4000000000001</ele><time>2026-05-03T09:52:23.125Z</time></trkpt><trkpt lat="44.0601726" lon="6.8530125"><ele>770.8</ele><time>2026-05-03T09:52:24.125Z</time></trkpt><trkpt lat="44.0601242" lon="6.8529189"><ele>774.2</ele><time>2026-05-03T09:52:25.125Z</time></trkpt><trkpt lat="44.06008" lon="6.8528125"><ele>777.5999999999999</ele><time>2026-05-03T09:52:26.125Z</time></trkpt><trkpt lat="44.0600317" lon="6.8526658"><ele>781.0</ele><time>2026-05-03T09:52:27.124Z</time></trkpt><trkpt lat="44.059946" lon="6.8524635"><ele>781.0</ele><time>2026-05-03T09:52:28.124Z</time></trkpt><trkpt lat="44.0598657" lon="6.8523107"><ele>781.0</ele><time>2026-05-03T09:52:29.125Z</time></trkpt><trkpt lat="44.0597689" lon="6.8521639"><ele>781.0</ele><time>2026-05-03T09:52:30.125Z</time></trkpt><trkpt lat="44.0596742" lon="6.8520521"><ele>781.0</ele><time>2026-05-03T09:52:31.125Z</time></trkpt><trkpt lat="44.0595756" lon="6.851943"><ele>781.0</ele><time>2026-05-03T09:52:32.125Z</time></trkpt><trkpt lat="44.0594859" lon="6.8518643"><ele>781.0</ele><time>2026-05-03T09:52:33.125Z</time></trkpt><trkpt lat="44.0593414" lon="6.8518258"><ele>781.0</ele><time>2026-05-03T09:52:34.125Z</time></trkpt><trkpt lat="44.0592208" lon="6.8517883"><ele>781.0</ele><time>2026-05-03T09:52:35.125Z</time></trkpt><trkpt lat="44.0591093" lon="6.8517841"><ele>784.25</ele><time>2026-05-03T09:52:36.125Z</time></trkpt><trkpt lat="44.0589947" lon="6.8517887"><ele>787.5</ele><time>2026-05-03T09:52:37.125Z</time></trkpt><trkpt lat="44.0588771" lon="6.8518856"><ele>790.75</ele><time>2026-05-03T09:52:38.125Z</time></trkpt><trkpt lat="44.0587804" lon="6.8519931"><ele>794.0</ele><time>2026-05-03T09:52:39.125Z</time></trkpt><trkpt lat="44.0586889" lon="6.8521036"><ele>794.0</ele><time>2026-05-03T09:52:40.125Z</time></trkpt><trkpt lat="44.0586226" lon="6.8521952"><ele>794.0</ele><time>2026-05-03T09:52:41.125Z</time></trkpt><trkpt lat="44.0585521" lon="6.8522908"><ele>794.0</ele><time>2026-05-03T09:52:42.125Z</time></trkpt><trkpt lat="44.0584653" lon="6.852318"><ele>794.0</ele><time>2026-05-03T09:52:43.124Z</time></trkpt><trkpt lat="44.058366" lon="6.8523292"><ele>794.0</ele><time>2026-05-03T09:52:44.125Z</time></trkpt><trkpt lat="44.0582676" lon="6.8523129"><ele>795.25</ele><time>2026-05-03T09:52:45.125Z</time></trkpt><trkpt lat="44.0581749" lon="6.8523383"><ele>796.5</ele><time>2026-05-03T09:52:46.125Z</time></trkpt><trkpt lat="44.0580754" lon="6.8523396"><ele>797.75</ele><time>2026-05-03T09:52:47.125Z</time></trkpt><trkpt lat="44.0579305" lon="6.8523994"><ele>799.0</ele><time>2026-05-03T09:52:48.125Z</time></trkpt><trkpt lat="44.0578132" lon="6.8524218"><ele>799.0</ele><time>2026-05-03T09:52:49.125Z</time></trkpt><trkpt lat="44.0577387" lon="6.852412"><ele>799.0</ele><time>2026-05-03T09:52:50.125Z</time></trkpt><trkpt lat="44.0576436" lon="6.8524022"><ele>799.0</ele><time>2026-05-03T09:52:51.124Z</time></trkpt><trkpt lat="44.0575621" lon="6.852372"><ele>799.0</ele><time>2026-05-03T09:52:52.124Z</time></trkpt><trkpt lat="44.0574711" lon="6.8522777"><ele>799.0</ele><time>2026-05-03T09:52:53.125Z</time></trkpt><trkpt lat="44.057416" lon="6.8521624"><ele>797.0</ele><time>2026-05-03T09:52:54.124Z</time></trkpt><trkpt lat="44.057378" lon="6.8519961"><ele>795.0</ele><time>2026-05-03T09:52:55.125Z</time></trkpt><trkpt lat="44.057338" lon="6.8518517"><ele>793.0</ele><time>2026-05-03T09:52:56.125Z</time></trkpt><trkpt lat="44.057335" lon="6.8516541"><ele>791.0</ele><time>2026-05-03T09:52:57.125Z</time></trkpt><trkpt lat="44.0573237" lon="6.8514654"><ele>791.0</ele><time>2026-05-03T09:52:58.125Z</time></trkpt><trkpt lat="44.057278" lon="6.8513148"><ele>791.0</ele><time>2026-05-03T09:52:59.125Z</time></trkpt><trkpt lat="44.0572351" lon="6.85117"><ele>791.0</ele><time>2026-05-03T09:53:00.125Z</time></trkpt><trkpt lat="44.0571743" lon="6.8510407"><ele>791.0</ele><time>2026-05-03T09:53:01.125Z</time></trkpt><trkpt lat="44.0571052" lon="6.8509223"><ele>794.8</ele><time>2026-05-03T09:53:02.125Z</time></trkpt><trkpt lat="44.0569941" lon="6.850881"><ele>798.5999999999999</ele><time>2026-05-03T09:53:03.125Z</time></trkpt><trkpt lat="44.0569038" lon="6.8508202"><ele>802.4</ele><time>2026-05-03T09:53:04.125Z</time></trkpt><trkpt lat="44.0567996" lon="6.8507592"><ele>806.2</ele><time>2026-05-03T09:53:05.125Z</time></trkpt><trkpt lat="44.0566982" lon="6.8507042"><ele>810.0</ele><time>2026-05-03T09:53:06.125Z</time></trkpt><trkpt lat="44.0565979" lon="6.8506415"><ele>810.0</ele><time>2026-05-03T09:53:07.125Z</time></trkpt><trkpt lat="44.0565035" lon="6.8505791"><ele>810.0</ele><time>2026-05-03T09:53:08.125Z</time></trkpt><trkpt lat="44.0563951" lon="6.8505729"><ele>810.0</ele><time>2026-05-03T09:53:09.124Z</time></trkpt><trkpt lat="44.0562595" lon="6.8506225"><ele>810.0</ele><time>2026-05-03T09:53:10.125Z</time></trkpt><trkpt lat="44.0561488" lon="6.8506748"><ele>810.0</ele><time>2026-05-03T09:53:11.125Z</time></trkpt><trkpt lat="44.0560469" lon="6.8507276"><ele>810.0</ele><time>2026-05-03T09:53:12.125Z</time></trkpt><trkpt lat="44.0559398" lon="6.8507515"><ele>810.0</ele><time>2026-05-03T09:53:13.125Z</time></trkpt><trkpt lat="44.0558332" lon="6.8507227"><ele>810.0</ele><time>2026-05-03T09:53:14.125Z</time></trkpt><trkpt lat="44.0557657" lon="6.8505933"><ele>810.0</ele><time>2026-05-03T09:53:15.125Z</time></trkpt><trkpt lat="44.0556349" lon="6.8505305"><ele>808.0</ele><time>2026-05-03T09:53:16.125Z</time></trkpt><trkpt lat="44.0555303" lon="6.8504971"><ele>806.0</ele><time>2026-05-03T09:53:17.124Z</time></trkpt><trkpt lat="44.0554296" lon="6.8504374"><ele>804.0</ele><time>2026-05-03T09:53:18.125Z</time></trkpt><trkpt lat="44.0553334" lon="6.8503577"><ele>802.0</ele><time>2026-05-03T09:53:19.124Z</time></trkpt><trkpt lat="44.0552692" lon="6.8502597"><ele>800.0</ele><time>2026-05-03T09:53:20.125Z</time></trkpt><trkpt lat="44.05527" lon="6.8500899"><ele>799.25</ele><time>2026-05-03T09:53:21.125Z</time></trkpt><trkpt lat="44.0552606" lon="6.8499347"><ele>798.5</ele><time>2026-05-03T09:53:22.125Z</time></trkpt><trkpt lat="44.0552177" lon="6.8497766"><ele>797.75</ele><time>2026-05-03T09:53:23.125Z</time></trkpt><trkpt lat="44.0551591" lon="6.84962"><ele>797.0</ele><time>2026-05-03T09:53:24.124Z</time></trkpt><trkpt lat="44.055104" lon="6.8494506"><ele>802.0</ele><time>2026-05-03T09:53:25.124Z</time></trkpt><trkpt lat="44.0550418" lon="6.8492876"><ele>807.0</ele><time>2026-05-03T09:53:26.125Z</time></trkpt><trkpt lat="44.0549746" lon="6.8491306"><ele>812.0</ele><time>2026-05-03T09:53:27.125Z</time></trkpt><trkpt lat="44.054811" lon="6.8486866"><ele>802.4000000000001</ele><time>2026-05-03T09:53:30.125Z</time></trkpt><trkpt lat="44.0547788" lon="6.8485672"><ele>792.8000000000001</ele><time>2026-05-03T09:53:31.125Z</time></trkpt><trkpt lat="44.0547914" lon="6.8484106"><ele>783.2</ele><time>2026-05-03T09:53:32.125Z</time></trkpt><trkpt lat="44.0547897" lon="6.8482663"><ele>773.6</ele><time>2026-05-03T09:53:33.125Z</time></trkpt><trkpt lat="44.0548147" lon="6.848108"><ele>764.0</ele><time>2026-05-03T09:53:34.126Z</time></trkpt><trkpt lat="44.0548457" lon="6.8479754"><ele>762.75</ele><time>2026-05-03T09:53:35.125Z</time></trkpt><trkpt lat="44.0548947" lon="6.8477948"><ele>761.5</ele><time>2026-05-03T09:53:36.124Z</time></trkpt><trkpt lat="44.0549502" lon="6.8476493"><ele>760.25</ele><time>2026-05-03T09:53:37.126Z</time></trkpt><trkpt lat="44.0550258" lon="6.8475091"><ele>759.0</ele><time>2026-05-03T09:53:38.125Z</time></trkpt><trkpt lat="44.0550777" lon="6.8473675"><ele>769.75</ele><time>2026-05-03T09:53:39.124Z</time></trkpt><trkpt lat="44.0551578" lon="6.8471995"><ele>780.5</ele><time>2026-05-03T09:53:40.123Z</time></trkpt><trkpt lat="44.055236" lon="6.8470336"><ele>791.25</ele><time>2026-05-03T09:53:41.124Z</time></trkpt><trkpt lat="44.0553" lon="6.8468707"><ele>802.0</ele><time>2026-05-03T09:53:42.124Z</time></trkpt><trkpt lat="44.0553616" lon="6.8467059"><ele>802.0</ele><time>2026-05-03T09:53:43.123Z</time></trkpt><trkpt lat="44.0554137" lon="6.8465794"><ele>802.0</ele><time>2026-05-03T09:53:44.124Z</time></trkpt><trkpt lat="44.0554769" lon="6.8464252"><ele>802.0</ele><time>2026-05-03T09:53:45.124Z</time></trkpt><trkpt lat="44.0555239" lon="6.8462817"><ele>802.0</ele><time>2026-05-03T09:53:46.124Z</time></trkpt><trkpt lat="44.0555235" lon="6.846141"><ele>802.0</ele><time>2026-05-03T09:53:47.123Z</time></trkpt><trkpt lat="44.0555012" lon="6.845998"><ele>804.8</ele><time>2026-05-03T09:53:48.124Z</time></trkpt><trkpt lat="44.0554703" lon="6.845867"><ele>807.6</ele><time>2026-05-03T09:53:49.123Z</time></trkpt><trkpt lat="44.0554361" lon="6.8457167"><ele>810.4</ele><time>2026-05-03T09:53:50.124Z</time></trkpt><trkpt lat="44.0554048" lon="6.8455673"><ele>813.1999999999999</ele><time>2026-05-03T09:53:51.124Z</time></trkpt><trkpt lat="44.0553758" lon="6.8454282"><ele>816.0</ele><time>2026-05-03T09:53:52.124Z</time></trkpt><trkpt lat="44.0553409" lon="6.8452928"><ele>816.0</ele><time>2026-05-03T09:53:53.124Z</time></trkpt><trkpt lat="44.0552862" lon="6.8451914"><ele>816.0</ele><time>2026-05-03T09:53:54.124Z</time></trkpt><trkpt lat="44.0551792" lon="6.8451495"><ele>816.0</ele><time>2026-05-03T09:53:55.124Z</time></trkpt><trkpt lat="44.0550819" lon="6.8451131"><ele>816.0</ele><time>2026-05-03T09:53:56.123Z</time></trkpt><trkpt lat="44.054958" lon="6.8450896"><ele>816.0</ele><time>2026-05-03T09:53:57.124Z</time></trkpt><trkpt lat="44.0548326" lon="6.8451487"><ele>814.5</ele><time>2026-05-03T09:53:58.124Z</time></trkpt><trkpt lat="44.0547165" lon="6.8451664"><ele>813.0</ele><time>2026-05-03T09:53:59.124Z</time></trkpt><trkpt lat="44.05459" lon="6.8451592"><ele>811.5</ele><time>2026-05-03T09:54:00.124Z</time></trkpt><trkpt lat="44.0544664" lon="6.8451426"><ele>810.0</ele><time>2026-05-03T09:54:01.124Z</time></trkpt><trkpt lat="44.0543366" lon="6.8451032"><ele>816.6</ele><time>2026-05-03T09:54:02.123Z</time></trkpt><trkpt lat="44.0542646" lon="6.8450453"><ele>823.2</ele><time>2026-05-03T09:54:03.124Z</time></trkpt><trkpt lat="44.0541305" lon="6.8449661"><ele>829.8</ele><time>2026-05-03T09:54:04.123Z</time></trkpt><trkpt lat="44.0540333" lon="6.8449086"><ele>836.4</ele><time>2026-05-03T09:54:05.124Z</time></trkpt><trkpt lat="44.0539423" lon="6.8448506"><ele>843.0</ele><time>2026-05-03T09:54:06.124Z</time></trkpt><trkpt lat="44.0538561" lon="6.844802"><ele>844.25</ele><time>2026-05-03T09:54:07.124Z</time></trkpt><trkpt lat="44.0537637" lon="6.8448384"><ele>845.5</ele><time>2026-05-03T09:54:08.124Z</time></trkpt><trkpt lat="44.0536153" lon="6.8449411"><ele>846.75</ele><time>2026-05-03T09:54:09.124Z</time></trkpt><trkpt lat="44.053514" lon="6.8449885"><ele>848.0</ele><time>2026-05-03T09:54:10.124Z</time></trkpt><trkpt lat="44.0534246" lon="6.8450151"><ele>848.0</ele><time>2026-05-03T09:54:11.124Z</time></trkpt><trkpt lat="44.0533296" lon="6.8450288"><ele>848.0</ele><time>2026-05-03T09:54:12.124Z</time></trkpt><trkpt lat="44.0530106" lon="6.8449944"><ele>848.0</ele><time>2026-05-03T09:54:15.123Z</time></trkpt><trkpt lat="44.0529177" lon="6.8449714"><ele>848.25</ele><time>2026-05-03T09:54:16.124Z</time></trkpt><trkpt lat="44.0528481" lon="6.8449528"><ele>848.5</ele><time>2026-05-03T09:54:17.124Z</time></trkpt><trkpt lat="44.0527343" lon="6.8449216"><ele>848.75</ele><time>2026-05-03T09:54:18.124Z</time></trkpt><trkpt lat="44.0525887" lon="6.8449442"><ele>849.0</ele><time>2026-05-03T09:54:19.124Z</time></trkpt><trkpt lat="44.0524694" lon="6.8449558"><ele>847.0</ele><time>2026-05-03T09:54:20.124Z</time></trkpt><trkpt lat="44.0523703" lon="6.8450042"><ele>845.0</ele><time>2026-05-03T09:54:21.124Z</time></trkpt><trkpt lat="44.0522657" lon="6.8450728"><ele>843.0</ele><time>2026-05-03T09:54:22.124Z</time></trkpt><trkpt lat="44.0521903" lon="6.8451621"><ele>841.0</ele><time>2026-05-03T09:54:23.124Z</time></trkpt><trkpt lat="44.0521044" lon="6.8451834"><ele>839.0</ele><time>2026-05-03T09:54:24.123Z</time></trkpt><trkpt lat="44.0520207" lon="6.8451604"><ele>839.0</ele><time>2026-05-03T09:54:25.123Z</time></trkpt><trkpt lat="44.0518849" lon="6.8451054"><ele>839.0</ele><time>2026-05-03T09:54:26.124Z</time></trkpt><trkpt lat="44.0518001" lon="6.845037"><ele>839.0</ele><time>2026-05-03T09:54:27.123Z</time></trkpt><trkpt lat="44.0517199" lon="6.8448319"><ele>839.0</ele><time>2026-05-03T09:54:28.124Z</time></trkpt><trkpt lat="44.0516343" lon="6.8447245"><ele>840.75</ele><time>2026-05-03T09:54:29.124Z</time></trkpt><trkpt lat="44.0515296" lon="6.8446269"><ele>842.5</ele><time>2026-05-03T09:54:30.124Z</time></trkpt><trkpt lat="44.0514375" lon="6.8445359"><ele>844.25</ele><time>2026-05-03T09:54:31.123Z</time></trkpt><trkpt lat="44.0513374" lon="6.8444583"><ele>846.0</ele><time>2026-05-03T09:54:32.123Z</time></trkpt><trkpt lat="44.0510589" lon="6.8442094"><ele>846.0</ele><time>2026-05-03T09:54:35.124Z</time></trkpt><trkpt lat="44.051036" lon="6.8441271"><ele>846.0</ele><time>2026-05-03T09:54:36.124Z</time></trkpt><trkpt lat="44.0508856" lon="6.8439748"><ele>846.0</ele><time>2026-05-03T09:54:37.123Z</time></trkpt><trkpt lat="44.0507829" lon="6.843901"><ele>846.0</ele><time>2026-05-03T09:54:38.124Z</time></trkpt><trkpt lat="44.0506781" lon="6.8438358"><ele>827.0</ele><time>2026-05-03T09:54:39.124Z</time></trkpt><trkpt lat="44.0502859" lon="6.8431831"><ele>827.0</ele><time>2026-05-03T09:54:44.123Z</time></trkpt><trkpt lat="44.0502078" lon="6.8430083"><ele>827.0</ele><time>2026-05-03T09:54:45.124Z</time></trkpt><trkpt lat="44.0501845" lon="6.842858"><ele>827.0</ele><time>2026-05-03T09:54:46.124Z</time></trkpt><trkpt lat="44.0501513" lon="6.8427319"><ele>827.0</ele><time>2026-05-03T09:54:47.123Z</time></trkpt><trkpt lat="44.0501124" lon="6.8426159"><ele>827.0</ele><time>2026-05-03T09:54:48.124Z</time></trkpt><trkpt lat="44.0500434" lon="6.842509"><ele>831.8</ele><time>2026-05-03T09:54:49.123Z</time></trkpt><trkpt lat="44.0499895" lon="6.8424034"><ele>836.6</ele><time>2026-05-03T09:54:50.124Z</time></trkpt><trkpt lat="44.0498944" lon="6.8423212"><ele>841.4</ele><time>2026-05-03T09:54:51.124Z</time></trkpt><trkpt lat="44.0498034" lon="6.8422446"><ele>846.1999999999999</ele><time>2026-05-03T09:54:52.124Z</time></trkpt><trkpt lat="44.0496982" lon="6.8421945"><ele>851.0</ele><time>2026-05-03T09:54:53.124Z</time></trkpt><trkpt lat="44.0496093" lon="6.8421795"><ele>855.5</ele><time>2026-05-03T09:54:54.124Z</time></trkpt><trkpt lat="44.0495227" lon="6.8421804"><ele>860.0</ele><time>2026-05-03T09:54:55.124Z</time></trkpt><trkpt lat="44.0494287" lon="6.8422092"><ele>864.5</ele><time>2026-05-03T09:54:56.124Z</time></trkpt><trkpt lat="44.0493391" lon="6.8422245"><ele>869.0</ele><time>2026-05-03T09:54:57.123Z</time></trkpt><trkpt lat="44.0473794" lon="6.8429411"><ele>861.2</ele><time>2026-05-03T09:55:14.124Z</time></trkpt><trkpt lat="44.0472763" lon="6.8429738"><ele>853.4000000000001</ele><time>2026-05-03T09:55:15.124Z</time></trkpt><trkpt lat="44.047191" lon="6.8429939"><ele>845.6</ele><time>2026-05-03T09:55:16.124Z</time></trkpt><trkpt lat="44.0470632" lon="6.8430136"><ele>837.8</ele><time>2026-05-03T09:55:17.124Z</time></trkpt><trkpt lat="44.0469457" lon="6.8430233"><ele>830.0</ele><time>2026-05-03T09:55:18.124Z</time></trkpt><trkpt lat="44.0468242" lon="6.8429916"><ele>830.0</ele><time>2026-05-03T09:55:19.124Z</time></trkpt><trkpt lat="44.0467348" lon="6.8429237"><ele>830.0</ele><time>2026-05-03T09:55:20.123Z</time></trkpt><trkpt lat="44.0466131" lon="6.842901"><ele>830.0</ele><time>2026-05-03T09:55:21.124Z</time></trkpt><trkpt lat="44.0464951" lon="6.8428316"><ele>830.0</ele><time>2026-05-03T09:55:22.124Z</time></trkpt><trkpt lat="44.0463789" lon="6.842761"><ele>822.3333333333334</ele><time>2026-05-03T09:55:23.124Z</time></trkpt><trkpt lat="44.0462876" lon="6.8427077"><ele>814.6666666666667</ele><time>2026-05-03T09:55:24.124Z</time></trkpt><trkpt lat="44.0461868" lon="6.8426526"><ele>807.0</ele><time>2026-05-03T09:55:25.124Z</time></trkpt><trkpt lat="44.0447673" lon="6.8411012"><ele>812.3333333333333</ele><time>2026-05-03T09:55:40.124Z</time></trkpt><trkpt lat="44.0446639" lon="6.8407661"><ele>817.6666666666666</ele><time>2026-05-03T09:55:41.124Z</time></trkpt><trkpt lat="44.0446564" lon="6.8406304"><ele>823.0</ele><time>2026-05-03T09:55:42.124Z</time></trkpt><trkpt lat="44.0445942" lon="6.8404749"><ele>823.0</ele><time>2026-05-03T09:55:43.124Z</time></trkpt><trkpt lat="44.0445292" lon="6.8403265"><ele>823.0</ele><time>2026-05-03T09:55:44.124Z</time></trkpt><trkpt lat="44.0444397" lon="6.8401955"><ele>823.0</ele><time>2026-05-03T09:55:45.124Z</time></trkpt><trkpt lat="44.0443372" lon="6.8401223"><ele>823.0</ele><time>2026-05-03T09:55:46.124Z</time></trkpt><trkpt lat="44.0442345" lon="6.8400505"><ele>832.2</ele><time>2026-05-03T09:55:47.124Z</time></trkpt><trkpt lat="44.0441157" lon="6.8400474"><ele>841.4</ele><time>2026-05-03T09:55:48.124Z</time></trkpt><trkpt lat="44.0440069" lon="6.8400345"><ele>850.6000000000001</ele><time>2026-05-03T09:55:49.124Z</time></trkpt><trkpt lat="44.0439065" lon="6.8400866"><ele>859.8000000000001</ele><time>2026-05-03T09:55:50.124Z</time></trkpt><trkpt lat="44.0438087" lon="6.8401109"><ele>869.0</ele><time>2026-05-03T09:55:51.124Z</time></trkpt><trkpt lat="44.0437107" lon="6.8401307"><ele>844.0</ele><time>2026-05-03T09:55:52.124Z</time></trkpt><trkpt lat="44.0433318" lon="6.8402732"><ele>819.0</ele><time>2026-05-03T09:55:55.124Z</time></trkpt><trkpt lat="44.0432513" lon="6.8403309"><ele>811.75</ele><time>2026-05-03T09:55:56.124Z</time></trkpt><trkpt lat="44.0431494" lon="6.8403387"><ele>804.5</ele><time>2026-05-03T09:55:57.124Z</time></trkpt><trkpt lat="44.0430285" lon="6.8402728"><ele>797.25</ele><time>2026-05-03T09:55:58.123Z</time></trkpt><trkpt lat="44.0429249" lon="6.8402187"><ele>790.0</ele><time>2026-05-03T09:55:59.124Z</time></trkpt><trkpt lat="44.0427916" lon="6.8402413"><ele>790.0</ele><time>2026-05-03T09:56:00.124Z</time></trkpt><trkpt lat="44.0426839" lon="6.8402141"><ele>790.0</ele><time>2026-05-03T09:56:01.124Z</time></trkpt><trkpt lat="44.0425914" lon="6.8401379"><ele>790.0</ele><time>2026-05-03T09:56:02.124Z</time></trkpt><trkpt lat="44.0425075" lon="6.8400544"><ele>790.0</ele><time>2026-05-03T09:56:03.124Z</time></trkpt><trkpt lat="44.0424208" lon="6.8399765"><ele>790.0</ele><time>2026-05-03T09:56:04.124Z</time></trkpt><trkpt lat="44.0415193" lon="6.8388947"><ele>789.0</ele><time>2026-05-03T09:56:13.124Z</time></trkpt><trkpt lat="44.0414491" lon="6.8387568"><ele>788.0</ele><time>2026-05-03T09:56:14.124Z</time></trkpt><trkpt lat="44.0413333" lon="6.8386921"><ele>787.0</ele><time>2026-05-03T09:56:15.124Z</time></trkpt><trkpt lat="44.0412396" lon="6.8386257"><ele>786.0</ele><time>2026-05-03T09:56:16.124Z</time></trkpt><trkpt lat="44.0411396" lon="6.8385723"><ele>786.0</ele><time>2026-05-03T09:56:17.124Z</time></trkpt><trkpt lat="44.0410358" lon="6.8385591"><ele>786.0</ele><time>2026-05-03T09:56:18.124Z</time></trkpt><trkpt lat="44.0409482" lon="6.838503"><ele>786.0</ele><time>2026-05-03T09:56:19.124Z</time></trkpt><trkpt lat="44.0408674" lon="6.8383983"><ele>786.0</ele><time>2026-05-03T09:56:20.124Z</time></trkpt><trkpt lat="44.0408179" lon="6.8382692"><ele>786.0</ele><time>2026-05-03T09:56:21.124Z</time></trkpt><trkpt lat="44.040742" lon="6.8381416"><ele>776.5</ele><time>2026-05-03T09:56:22.124Z</time></trkpt><trkpt lat="44.04067" lon="6.8380434"><ele>767.0</ele><time>2026-05-03T09:56:23.123Z</time></trkpt><trkpt lat="44.040589" lon="6.8379399"><ele>757.5</ele><time>2026-05-03T09:56:24.123Z</time></trkpt><trkpt lat="44.0404856" lon="6.8378441"><ele>748.0</ele><time>2026-05-03T09:56:25.124Z</time></trkpt><trkpt lat="44.0403933" lon="6.8377422"><ele>755.4</ele><time>2026-05-03T09:56:26.124Z</time></trkpt><trkpt lat="44.0403092" lon="6.8376339"><ele>762.8</ele><time>2026-05-03T09:56:27.124Z</time></trkpt><trkpt lat="44.0402866" lon="6.8375039"><ele>770.2</ele><time>2026-05-03T09:56:28.124Z</time></trkpt><trkpt lat="44.0402635" lon="6.8373711"><ele>777.6</ele><time>2026-05-03T09:56:29.124Z</time></trkpt><trkpt lat="44.0402981" lon="6.8372028"><ele>785.0</ele><time>2026-05-03T09:56:30.124Z</time></trkpt><trkpt lat="44.0403771" lon="6.8370518"><ele>785.0</ele><time>2026-05-03T09:56:31.124Z</time></trkpt><trkpt lat="44.040446" lon="6.8368692"><ele>785.0</ele><time>2026-05-03T09:56:32.124Z</time></trkpt><trkpt lat="44.0405204" lon="6.83671"><ele>785.0</ele><time>2026-05-03T09:56:33.124Z</time></trkpt><trkpt lat="44.0406234" lon="6.8365656"><ele>785.0</ele><time>2026-05-03T09:56:34.124Z</time></trkpt><trkpt lat="44.0407359" lon="6.8364402"><ele>790.25</ele><time>2026-05-03T09:56:35.123Z</time></trkpt><trkpt lat="44.040841" lon="6.8362958"><ele>795.5</ele><time>2026-05-03T09:56:36.123Z</time></trkpt><trkpt lat="44.0409393" lon="6.8362036"><ele>800.75</ele><time>2026-05-03T09:56:37.123Z</time></trkpt><trkpt lat="44.041024" lon="6.8360747"><ele>806.0</ele><time>2026-05-03T09:56:38.123Z</time></trkpt><trkpt lat="44.0411403" lon="6.836024"><ele>800.0</ele><time>2026-05-03T09:56:39.124Z</time></trkpt><trkpt lat="44.0411865" lon="6.8358937"><ele>794.0</ele><time>2026-05-03T09:56:40.123Z</time></trkpt><trkpt lat="44.0412343" lon="6.8357721"><ele>788.0</ele><time>2026-05-03T09:56:41.124Z</time></trkpt><trkpt lat="44.0412784" lon="6.8356375"><ele>782.0</ele><time>2026-05-03T09:56:42.124Z</time></trkpt><trkpt lat="44.0413377" lon="6.83549"><ele>776.0</ele><time>2026-05-03T09:56:43.123Z</time></trkpt><trkpt lat="44.0414127" lon="6.8353361"><ele>776.0</ele><time>2026-05-03T09:56:44.124Z</time></trkpt><trkpt lat="44.0414849" lon="6.8351871"><ele>776.0</ele><time>2026-05-03T09:56:45.123Z</time></trkpt><trkpt lat="44.0415713" lon="6.8350644"><ele>776.0</ele><time>2026-05-03T09:56:46.124Z</time></trkpt><trkpt lat="44.0416593" lon="6.834969"><ele>776.0</ele><time>2026-05-03T09:56:47.124Z</time></trkpt><trkpt lat="44.0417583" lon="6.8348903"><ele>778.8</ele><time>2026-05-03T09:56:48.124Z</time></trkpt><trkpt lat="44.0418492" lon="6.8348011"><ele>781.5999999999999</ele><time>2026-05-03T09:56:49.124Z</time></trkpt><trkpt lat="44.0419025" lon="6.8346908"><ele>784.4</ele><time>2026-05-03T09:56:50.124Z</time></trkpt><trkpt lat="44.0418931" lon="6.8345647"><ele>787.2</ele><time>2026-05-03T09:56:51.124Z</time></trkpt><trkpt lat="44.0418784" lon="6.8344382"><ele>790.0</ele><time>2026-05-03T09:56:52.124Z</time></trkpt><trkpt lat="44.0418496" lon="6.8343026"><ele>790.0</ele><time>2026-05-03T09:56:53.124Z</time></trkpt><trkpt lat="44.0418036" lon="6.8341515"><ele>790.0</ele><time>2026-05-03T09:56:54.124Z</time></trkpt><trkpt lat="44.0417981" lon="6.8339601"><ele>790.0</ele><time>2026-05-03T09:56:55.123Z</time></trkpt><trkpt lat="44.0418003" lon="6.8337942"><ele>790.0</ele><time>2026-05-03T09:56:56.124Z</time></trkpt><trkpt lat="44.0418489" lon="6.833629"><ele>790.0</ele><time>2026-05-03T09:56:57.124Z</time></trkpt><trkpt lat="44.0419355" lon="6.8334838"><ele>790.0</ele><time>2026-05-03T09:56:58.124Z</time></trkpt><trkpt lat="44.0419788" lon="6.8333409"><ele>790.0</ele><time>2026-05-03T09:56:59.124Z</time></trkpt><trkpt lat="44.0420275" lon="6.8332104"><ele>790.0</ele><time>2026-05-03T09:57:00.124Z</time></trkpt><trkpt lat="44.0420812" lon="6.8330787"><ele>787.8</ele><time>2026-05-03T09:57:01.124Z</time></trkpt><trkpt lat="44.0421544" lon="6.8329476"><ele>785.6</ele><time>2026-05-03T09:57:03.124Z</time></trkpt><trkpt lat="44.0422173" lon="6.8328329"><ele>783.4000000000001</ele><time>2026-05-03T09:57:05.124Z</time></trkpt><trkpt lat="44.0422681" lon="6.8327578"><ele>781.2</ele><time>2026-05-03T09:57:09.124Z</time></trkpt><trkpt lat="44.0421967" lon="6.8327359"><ele>779.0</ele><time>2026-05-03T09:57:33.124Z</time></trkpt><trkpt lat="44.0421063" lon="6.8328634"><ele>779.0000000000001</ele><time>2026-05-03T09:57:35.124Z</time></trkpt><trkpt lat="44.0420715" lon="6.8329479"><ele>779.0</ele><time>2026-05-03T09:57:36.124Z</time></trkpt><trkpt lat="44.0420379" lon="6.8330518"><ele>779.0</ele><time>2026-05-03T09:57:37.124Z</time></trkpt><trkpt lat="44.0419857" lon="6.8331618"><ele>779.0</ele><time>2026-05-03T09:57:38.124Z</time></trkpt><trkpt lat="44.0419364" lon="6.8332701"><ele>779.0000000000001</ele><time>2026-05-03T09:57:39.124Z</time></trkpt><trkpt lat="44.0418841" lon="6.8333992"><ele>779.0</ele><time>2026-05-03T09:57:40.124Z</time></trkpt><trkpt lat="44.0418398" lon="6.8335367"><ele>781.2</ele><time>2026-05-03T09:57:41.124Z</time></trkpt><trkpt lat="44.0417862" lon="6.8336792"><ele>783.4000000000001</ele><time>2026-05-03T09:57:42.124Z</time></trkpt><trkpt lat="44.0417469" lon="6.8338186"><ele>785.6</ele><time>2026-05-03T09:57:43.124Z</time></trkpt><trkpt lat="44.0417159" lon="6.8339563"><ele>787.8</ele><time>2026-05-03T09:57:44.124Z</time></trkpt><trkpt lat="44.0417255" lon="6.8341077"><ele>790.0</ele><time>2026-05-03T09:57:45.124Z</time></trkpt><trkpt lat="44.0417431" lon="6.8342519"><ele>791.4</ele><time>2026-05-03T09:57:46.124Z</time></trkpt><trkpt lat="44.0418008" lon="6.8343883"><ele>792.8</ele><time>2026-05-03T09:57:47.123Z</time></trkpt><trkpt lat="44.0418344" lon="6.8345183"><ele>794.2</ele><time>2026-05-03T09:57:48.124Z</time></trkpt><trkpt lat="44.0418494" lon="6.834648"><ele>795.6</ele><time>2026-05-03T09:57:49.124Z</time></trkpt><trkpt lat="44.0418259" lon="6.8347818"><ele>797.0</ele><time>2026-05-03T09:57:50.123Z</time></trkpt><trkpt lat="44.0417855" lon="6.8349056"><ele>797.0</ele><time>2026-05-03T09:57:51.123Z</time></trkpt><trkpt lat="44.0417165" lon="6.8350051"><ele>797.0</ele><time>2026-05-03T09:57:52.124Z</time></trkpt><trkpt lat="44.0416374" lon="6.8350973"><ele>797.0</ele><time>2026-05-03T09:57:53.124Z</time></trkpt><trkpt lat="44.0415434" lon="6.8352028"><ele>797.0</ele><time>2026-05-03T09:57:54.124Z</time></trkpt><trkpt lat="44.0414613" lon="6.8353236"><ele>797.0</ele><time>2026-05-03T09:57:55.124Z</time></trkpt><trkpt lat="44.0413844" lon="6.835469"><ele>798.8</ele><time>2026-05-03T09:57:56.124Z</time></trkpt><trkpt lat="44.0413277" lon="6.8356046"><ele>800.6</ele><time>2026-05-03T09:57:57.124Z</time></trkpt><trkpt lat="44.041321" lon="6.8357577"><ele>802.4</ele><time>2026-05-03T09:57:58.124Z</time></trkpt><trkpt lat="44.0413007" lon="6.8359017"><ele>804.1999999999999</ele><time>2026-05-03T09:57:59.124Z</time></trkpt><trkpt lat="44.0412712" lon="6.8360462"><ele>806.0</ele><time>2026-05-03T09:58:00.124Z</time></trkpt><trkpt lat="44.0412178" lon="6.836173"><ele>806.0</ele><time>2026-05-03T09:58:01.124Z</time></trkpt><trkpt lat="44.0411298" lon="6.836275"><ele>806.0</ele><time>2026-05-03T09:58:02.124Z</time></trkpt><trkpt lat="44.041039" lon="6.8363672"><ele>806.0</ele><time>2026-05-03T09:58:03.123Z</time></trkpt><trkpt lat="44.0409333" lon="6.8364606"><ele>806.0</ele><time>2026-05-03T09:58:04.124Z</time></trkpt><trkpt lat="44.0408257" lon="6.8365553"><ele>800.75</ele><time>2026-05-03T09:58:05.124Z</time></trkpt><trkpt lat="44.0407216" lon="6.836657"><ele>795.5</ele><time>2026-05-03T09:58:06.124Z</time></trkpt><trkpt lat="44.0406281" lon="6.8367595"><ele>790.25</ele><time>2026-05-03T09:58:07.124Z</time></trkpt><trkpt lat="44.0405481" lon="6.8368632"><ele>785.0</ele><time>2026-05-03T09:58:08.124Z</time></trkpt><trkpt lat="44.0404703" lon="6.8369731"><ele>785.0</ele><time>2026-05-03T09:58:09.124Z</time></trkpt><trkpt lat="44.0403977" lon="6.8370846"><ele>785.0</ele><time>2026-05-03T09:58:10.124Z</time></trkpt><trkpt lat="44.0403321" lon="6.837208"><ele>785.0</ele><time>2026-05-03T09:58:11.124Z</time></trkpt><trkpt lat="44.040283" lon="6.8373135"><ele>785.0</ele><time>2026-05-03T09:58:12.124Z</time></trkpt><trkpt lat="44.040249" lon="6.8374127"><ele>785.0</ele><time>2026-05-03T09:58:13.124Z</time></trkpt><trkpt lat="44.0402565" lon="6.8375162"><ele>778.8333333333334</ele><time>2026-05-03T09:58:14.123Z</time></trkpt><trkpt lat="44.0402794" lon="6.8376552"><ele>772.6666666666667</ele><time>2026-05-03T09:58:16.124Z</time></trkpt><trkpt lat="44.0402859" lon="6.8377558"><ele>766.5</ele><time>2026-05-03T09:58:19.124Z</time></trkpt><trkpt lat="44.0403823" lon="6.8378215"><ele>760.3333333333334</ele><time>2026-05-03T10:08:03.122Z</time></trkpt><trkpt lat="44.0404397" lon="6.8378782"><ele>754.1666666666667</ele><time>2026-05-03T10:08:04.122Z</time></trkpt><trkpt lat="44.0405024" lon="6.8379344"><ele>748.0</ele><time>2026-05-03T10:08:05.122Z</time></trkpt><trkpt lat="44.0405646" lon="6.837992"><ele>748.0</ele><time>2026-05-03T10:08:06.122Z</time></trkpt><trkpt lat="44.0406405" lon="6.8380957"><ele>748.0</ele><time>2026-05-03T10:08:07.122Z</time></trkpt><trkpt lat="44.0407037" lon="6.8382031"><ele>748.0</ele><time>2026-05-03T10:08:08.122Z</time></trkpt><trkpt lat="44.0407769" lon="6.8383069"><ele>748.0</ele><time>2026-05-03T10:08:09.122Z</time></trkpt><trkpt lat="44.0408359" lon="6.8384053"><ele>748.0</ele><time>2026-05-03T10:08:10.122Z</time></trkpt><trkpt lat="44.0409014" lon="6.8384971"><ele>755.5999999999999</ele><time>2026-05-03T10:08:11.122Z</time></trkpt><trkpt lat="44.0409735" lon="6.8385623"><ele>763.1999999999999</ele><time>2026-05-03T10:08:12.122Z</time></trkpt><trkpt lat="44.0410448" lon="6.8386116"><ele>770.8</ele><time>2026-05-03T10:08:13.121Z</time></trkpt><trkpt lat="44.0411867" lon="6.8386084"><ele>778.4</ele><time>2026-05-03T10:08:14.121Z</time></trkpt><trkpt lat="44.041282" lon="6.8386488"><ele>786.0</ele><time>2026-05-03T10:08:15.122Z</time></trkpt><trkpt lat="44.0413722" lon="6.8387142"><ele>786.0</ele><time>2026-05-03T10:08:16.121Z</time></trkpt><trkpt lat="44.0414552" lon="6.8388089"><ele>786.0</ele><time>2026-05-03T10:08:17.122Z</time></trkpt><trkpt lat="44.0415165" lon="6.8389338"><ele>786.0</ele><time>2026-05-03T10:08:18.122Z</time></trkpt><trkpt lat="44.0415557" lon="6.8390673"><ele>786.0</ele><time>2026-05-03T10:08:19.122Z</time></trkpt><trkpt lat="44.041611" lon="6.8391836"><ele>786.0</ele><time>2026-05-03T10:08:20.122Z</time></trkpt><trkpt lat="44.0416647" lon="6.8392893"><ele>787.3333333333333</ele><time>2026-05-03T10:08:21.122Z</time></trkpt><trkpt lat="44.0417197" lon="6.8393873"><ele>788.6666666666666</ele><time>2026-05-03T10:08:22.121Z</time></trkpt><trkpt lat="44.0417833" lon="6.8394586"><ele>790.0</ele><time>2026-05-03T10:08:23.122Z</time></trkpt><trkpt lat="44.0427933" lon="6.8403156"><ele>790.0</ele><time>2026-05-03T10:08:31.122Z</time></trkpt><trkpt lat="44.0429344" lon="6.8403326"><ele>790.0</ele><time>2026-05-03T10:08:32.122Z</time></trkpt><trkpt lat="44.0430462" lon="6.8403808"><ele>790.0</ele><time>2026-05-03T10:08:33.121Z</time></trkpt><trkpt lat="44.0431452" lon="6.8404216"><ele>790.0</ele><time>2026-05-03T10:08:34.122Z</time></trkpt><trkpt lat="44.0432376" lon="6.8404449"><ele>794.8333333333333</ele><time>2026-05-03T10:08:35.122Z</time></trkpt><trkpt lat="44.0433236" lon="6.8404654"><ele>799.6666666666666</ele><time>2026-05-03T10:08:36.122Z</time></trkpt><trkpt lat="44.043403" lon="6.8404981"><ele>804.5</ele><time>2026-05-03T10:08:37.122Z</time></trkpt><trkpt lat="44.043468" lon="6.8405788"><ele>809.3333333333333</ele><time>2026-05-03T10:08:38.122Z</time></trkpt><trkpt lat="44.0435285" lon="6.840652"><ele>814.1666666666666</ele><time>2026-05-03T10:08:39.122Z</time></trkpt><trkpt lat="44.0436007" lon="6.8407032"><ele>819.0</ele><time>2026-05-03T10:08:40.122Z</time></trkpt><trkpt lat="44.0436705" lon="6.8407333"><ele>819.0</ele><time>2026-05-03T10:08:41.122Z</time></trkpt><trkpt lat="44.0437436" lon="6.8407356"><ele>819.0</ele><time>2026-05-03T10:08:42.122Z</time></trkpt><trkpt lat="44.0438201" lon="6.8406846"><ele>819.0</ele><time>2026-05-03T10:08:43.121Z</time></trkpt><trkpt lat="44.0438912" lon="6.8406361"><ele>819.0</ele><time>2026-05-03T10:08:44.122Z</time></trkpt><trkpt lat="44.043952" lon="6.8404763"><ele>819.0</ele><time>2026-05-03T10:08:45.122Z</time></trkpt><trkpt lat="44.0440048" lon="6.840356"><ele>819.0</ele><time>2026-05-03T10:08:46.122Z</time></trkpt><trkpt lat="44.0440565" lon="6.8402332"><ele>819.0</ele><time>2026-05-03T10:08:47.122Z</time></trkpt><trkpt lat="44.0441224" lon="6.8401444"><ele>819.0</ele><time>2026-05-03T10:08:48.122Z</time></trkpt><trkpt lat="44.0441886" lon="6.8400999"><ele>819.0</ele><time>2026-05-03T10:08:49.121Z</time></trkpt><trkpt lat="44.0442694" lon="6.840094"><ele>819.0</ele><time>2026-05-03T10:08:50.121Z</time></trkpt><trkpt lat="44.0443562" lon="6.8401348"><ele>819.0</ele><time>2026-05-03T10:08:51.122Z</time></trkpt><trkpt lat="44.044425" lon="6.8402035"><ele>819.8000000000001</ele><time>2026-05-03T10:08:52.122Z</time></trkpt><trkpt lat="44.0444811" lon="6.8403102"><ele>820.6</ele><time>2026-05-03T10:08:53.122Z</time></trkpt><trkpt lat="44.0445342" lon="6.8404178"><ele>821.4</ele><time>2026-05-03T10:08:54.122Z</time></trkpt><trkpt lat="44.0445799" lon="6.8405291"><ele>822.2</ele><time>2026-05-03T10:08:55.122Z</time></trkpt><trkpt lat="44.044611" lon="6.8406397"><ele>823.0</ele><time>2026-05-03T10:08:56.122Z</time></trkpt><trkpt lat="44.0446193" lon="6.8407707"><ele>823.0</ele><time>2026-05-03T10:08:57.122Z</time></trkpt><trkpt lat="44.0446073" lon="6.8409066"><ele>823.0</ele><time>2026-05-03T10:08:58.122Z</time></trkpt><trkpt lat="44.0445967" lon="6.8410451"><ele>823.0</ele><time>2026-05-03T10:08:59.122Z</time></trkpt><trkpt lat="44.0446347" lon="6.8411694"><ele>823.0</ele><time>2026-05-03T10:09:00.122Z</time></trkpt><trkpt lat="44.044676" lon="6.8412965"><ele>823.0</ele><time>2026-05-03T10:09:01.122Z</time></trkpt><trkpt lat="44.0447384" lon="6.8414145"><ele>826.5</ele><time>2026-05-03T10:09:02.122Z</time></trkpt><trkpt lat="44.0448054" lon="6.8415117"><ele>830.0</ele><time>2026-05-03T10:09:03.122Z</time></trkpt><trkpt lat="44.046741" lon="6.842912"><ele>830.0</ele><time>2026-05-03T10:09:19.122Z</time></trkpt><trkpt lat="44.0468645" lon="6.8429444"><ele>830.0</ele><time>2026-05-03T10:09:20.121Z</time></trkpt><trkpt lat="44.0469511" lon="6.842993"><ele>830.0</ele><time>2026-05-03T10:09:21.122Z</time></trkpt><trkpt lat="44.0470495" lon="6.8430356"><ele>830.0</ele><time>2026-05-03T10:09:22.121Z</time></trkpt><trkpt lat="44.0471513" lon="6.8429875"><ele>830.0</ele><time>2026-05-03T10:09:23.122Z</time></trkpt><trkpt lat="44.0472476" lon="6.8429609"><ele>830.0000000000001</ele><time>2026-05-03T10:09:24.122Z</time></trkpt><trkpt lat="44.0473313" lon="6.842939"><ele>830.0</ele><time>2026-05-03T10:09:25.122Z</time></trkpt><trkpt lat="44.0473928" lon="6.842981"><ele>830.0</ele><time>2026-05-03T10:09:26.122Z</time></trkpt><trkpt lat="44.047457" lon="6.8430476"><ele>830.0</ele><time>2026-05-03T10:09:27.122Z</time></trkpt><trkpt lat="44.0475019" lon="6.8431217"><ele>830.0000000000001</ele><time>2026-05-03T10:09:28.122Z</time></trkpt><trkpt lat="44.0474972" lon="6.8432612"><ele>830.0</ele><time>2026-05-03T10:09:29.122Z</time></trkpt><trkpt lat="44.047508" lon="6.8433705"><ele>830.0</ele><time>2026-05-03T10:09:30.122Z</time></trkpt><trkpt lat="44.0475285" lon="6.8434751"><ele>830.0</ele><time>2026-05-03T10:09:31.122Z</time></trkpt><trkpt lat="44.0476387" lon="6.8436204"><ele>830.0</ele><time>2026-05-03T10:09:33.122Z</time></trkpt><trkpt lat="44.0477393" lon="6.8436875"><ele>830.0</ele><time>2026-05-03T10:09:34.122Z</time></trkpt><trkpt lat="44.0478361" lon="6.8437683"><ele>830.0</ele><time>2026-05-03T10:09:35.121Z</time></trkpt><trkpt lat="44.0479272" lon="6.8438536"><ele>830.0</ele><time>2026-05-03T10:09:36.122Z</time></trkpt><trkpt lat="44.0488334" lon="6.8441635"><ele>837.25</ele><time>2026-05-03T10:09:45.122Z</time></trkpt><trkpt lat="44.0488918" lon="6.8439468"><ele>844.5</ele><time>2026-05-03T10:09:46.121Z</time></trkpt><trkpt lat="44.0489568" lon="6.8438188"><ele>851.75</ele><time>2026-05-03T10:09:47.122Z</time></trkpt><trkpt lat="44.0490094" lon="6.8436588"><ele>859.0</ele><time>2026-05-03T10:09:48.122Z</time></trkpt><trkpt lat="44.0490624" lon="6.8434888"><ele>854.5</ele><time>2026-05-03T10:09:49.122Z</time></trkpt><trkpt lat="44.0491343" lon="6.8433163"><ele>850.0</ele><time>2026-05-03T10:09:50.122Z</time></trkpt><trkpt lat="44.0492016" lon="6.843163"><ele>845.5</ele><time>2026-05-03T10:09:51.121Z</time></trkpt><trkpt lat="44.0492654" lon="6.8430096"><ele>841.0</ele><time>2026-05-03T10:09:52.122Z</time></trkpt><trkpt lat="44.0493337" lon="6.8428604"><ele>841.0</ele><time>2026-05-03T10:09:53.122Z</time></trkpt><trkpt lat="44.0493894" lon="6.842723"><ele>841.0</ele><time>2026-05-03T10:09:54.122Z</time></trkpt><trkpt lat="44.0494483" lon="6.8425871"><ele>841.0</ele><time>2026-05-03T10:09:55.126Z</time></trkpt><trkpt lat="44.0494917" lon="6.8424714"><ele>841.0</ele><time>2026-05-03T10:09:56.121Z</time></trkpt><trkpt lat="44.0495364" lon="6.8423273"><ele>841.0</ele><time>2026-05-03T10:09:57.121Z</time></trkpt><trkpt lat="44.0496034" lon="6.8422592"><ele>843.0</ele><time>2026-05-03T10:09:58.121Z</time></trkpt><trkpt lat="44.0496767" lon="6.8421931"><ele>845.0</ele><time>2026-05-03T10:09:59.132Z</time></trkpt><trkpt lat="44.0497609" lon="6.8421763"><ele>847.0</ele><time>2026-05-03T10:10:00.132Z</time></trkpt><trkpt lat="44.0498601" lon="6.8422689"><ele>849.0</ele><time>2026-05-03T10:10:01.132Z</time></trkpt><trkpt lat="44.0499369" lon="6.8423685"><ele>851.0</ele><time>2026-05-03T10:10:02.132Z</time></trkpt><trkpt lat="44.0500146" lon="6.8424533"><ele>851.0000000000001</ele><time>2026-05-03T10:10:03.132Z</time></trkpt><trkpt lat="44.0500814" lon="6.8425295"><ele>851.0</ele><time>2026-05-03T10:10:04.132Z</time></trkpt><trkpt lat="44.0501377" lon="6.8426166"><ele>851.0</ele><time>2026-05-03T10:10:05.132Z</time></trkpt><trkpt lat="44.0501718" lon="6.8427133"><ele>851.0</ele><time>2026-05-03T10:10:06.132Z</time></trkpt><trkpt lat="44.0501887" lon="6.8428114"><ele>851.0000000000001</ele><time>2026-05-03T10:10:07.132Z</time></trkpt><trkpt lat="44.0502021" lon="6.842911"><ele>851.0</ele><time>2026-05-03T10:10:08.131Z</time></trkpt><trkpt lat="44.0502246" lon="6.8430218"><ele>846.1999999999999</ele><time>2026-05-03T10:10:09.132Z</time></trkpt><trkpt lat="44.0502568" lon="6.8431604"><ele>841.4</ele><time>2026-05-03T10:10:10.132Z</time></trkpt><trkpt lat="44.0502884" lon="6.8432805"><ele>836.6</ele><time>2026-05-03T10:10:11.132Z</time></trkpt><trkpt lat="44.0503062" lon="6.8434099"><ele>831.8</ele><time>2026-05-03T10:10:12.131Z</time></trkpt><trkpt lat="44.0502935" lon="6.8435348"><ele>827.0</ele><time>2026-05-03T10:10:13.132Z</time></trkpt><trkpt lat="44.0502674" lon="6.8436641"><ele>823.6666666666667</ele><time>2026-05-03T10:10:14.132Z</time></trkpt><trkpt lat="44.0502236" lon="6.8437889"><ele>820.3333333333334</ele><time>2026-05-03T10:10:15.131Z</time></trkpt><trkpt lat="44.0501856" lon="6.843906"><ele>817.0</ele><time>2026-05-03T10:10:16.132Z</time></trkpt><trkpt lat="44.0501388" lon="6.8440218"><ele>813.6666666666667</ele><time>2026-05-03T10:10:17.131Z</time></trkpt><trkpt lat="44.050144" lon="6.8441349"><ele>810.3333333333334</ele><time>2026-05-03T10:10:18.132Z</time></trkpt><trkpt lat="44.0501565" lon="6.8442423"><ele>807.0</ele><time>2026-05-03T10:10:19.132Z</time></trkpt><trkpt lat="44.0501656" lon="6.8443525"><ele>802.8333333333334</ele><time>2026-05-03T10:10:20.131Z</time></trkpt><trkpt lat="44.0502481" lon="6.8444265"><ele>798.6666666666667</ele><time>2026-05-03T10:10:21.132Z</time></trkpt><trkpt lat="44.0503015" lon="6.8444985"><ele>794.5</ele><time>2026-05-03T10:10:22.132Z</time></trkpt><trkpt lat="44.0503614" lon="6.8445649"><ele>790.3333333333334</ele><time>2026-05-03T10:10:23.132Z</time></trkpt><trkpt lat="44.05043" lon="6.8445843"><ele>786.1666666666667</ele><time>2026-05-03T10:10:24.131Z</time></trkpt><trkpt lat="44.0505254" lon="6.8444687"><ele>782.0</ele><time>2026-05-03T10:10:25.132Z</time></trkpt><trkpt lat="44.0506152" lon="6.8443927"><ele>782.0000000000001</ele><time>2026-05-03T10:10:26.132Z</time></trkpt><trkpt lat="44.0506869" lon="6.8443031"><ele>782.0</ele><time>2026-05-03T10:10:27.132Z</time></trkpt><trkpt lat="44.0507631" lon="6.8442115"><ele>782.0</ele><time>2026-05-03T10:10:28.132Z</time></trkpt><trkpt lat="44.0508348" lon="6.8441471"><ele>782.0</ele><time>2026-05-03T10:10:29.132Z</time></trkpt><trkpt lat="44.05091" lon="6.8441168"><ele>782.0000000000001</ele><time>2026-05-03T10:10:30.132Z</time></trkpt><trkpt lat="44.0509793" lon="6.8441062"><ele>782.0</ele><time>2026-05-03T10:10:31.132Z</time></trkpt><trkpt lat="44.0510589" lon="6.8441804"><ele>795.0</ele><time>2026-05-03T10:10:32.132Z</time></trkpt><trkpt lat="44.0511327" lon="6.8442551"><ele>808.0</ele><time>2026-05-03T10:10:33.132Z</time></trkpt><trkpt lat="44.05119" lon="6.8443404"><ele>821.0</ele><time>2026-05-03T10:10:34.132Z</time></trkpt><trkpt lat="44.0515283" lon="6.8448675"><ele>821.0</ele><time>2026-05-03T10:10:39.132Z</time></trkpt><trkpt lat="44.0516189" lon="6.8449972"><ele>821.0</ele><time>2026-05-03T10:10:40.132Z</time></trkpt><trkpt lat="44.0517019" lon="6.8450747"><ele>821.0</ele><time>2026-05-03T10:10:41.131Z</time></trkpt><trkpt lat="44.051773" lon="6.8451519"><ele>821.0</ele><time>2026-05-03T10:10:43.131Z</time></trkpt><trkpt lat="44.0519581" lon="6.8452901"><ele>819.0</ele><time>2026-05-03T10:10:44.131Z</time></trkpt><trkpt lat="44.0521074" lon="6.8453273"><ele>817.0</ele><time>2026-05-03T10:10:45.132Z</time></trkpt><trkpt lat="44.0522241" lon="6.8452361"><ele>815.0</ele><time>2026-05-03T10:10:46.132Z</time></trkpt><trkpt lat="44.0523384" lon="6.8451603"><ele>813.0</ele><time>2026-05-03T10:10:47.132Z</time></trkpt><trkpt lat="44.0524588" lon="6.8450887"><ele>813.2</ele><time>2026-05-03T10:10:48.132Z</time></trkpt><trkpt lat="44.0525595" lon="6.8450989"><ele>813.4</ele><time>2026-05-03T10:10:49.132Z</time></trkpt><trkpt lat="44.0526744" lon="6.8450968"><ele>813.6</ele><time>2026-05-03T10:10:50.131Z</time></trkpt><trkpt lat="44.0527904" lon="6.8450991"><ele>813.8000000000001</ele><time>2026-05-03T10:10:51.132Z</time></trkpt><trkpt lat="44.0528858" lon="6.8451428"><ele>814.0</ele><time>2026-05-03T10:10:52.132Z</time></trkpt><trkpt lat="44.0529932" lon="6.8451638"><ele>813.9999999999999</ele><time>2026-05-03T10:10:53.132Z</time></trkpt><trkpt lat="44.0530409" lon="6.8452509"><ele>814.0</ele><time>2026-05-03T10:10:54.131Z</time></trkpt><trkpt lat="44.053063" lon="6.8453695"><ele>814.0</ele><time>2026-05-03T10:10:55.132Z</time></trkpt><trkpt lat="44.053074" lon="6.8454792"><ele>814.0</ele><time>2026-05-03T10:10:56.132Z</time></trkpt><trkpt lat="44.0530932" lon="6.8455887"><ele>813.9999999999999</ele><time>2026-05-03T10:10:57.132Z</time></trkpt><trkpt lat="44.0531176" lon="6.8456883"><ele>814.0</ele><time>2026-05-03T10:10:58.132Z</time></trkpt><trkpt lat="44.0531947" lon="6.8457461"><ele>814.0</ele><time>2026-05-03T10:10:59.132Z</time></trkpt><trkpt lat="44.0532756" lon="6.8457849"><ele>814.0</ele><time>2026-05-03T10:11:00.132Z</time></trkpt><trkpt lat="44.0533526" lon="6.8457856"><ele>814.0</ele><time>2026-05-03T10:11:01.132Z</time></trkpt><trkpt lat="44.0534479" lon="6.8457015"><ele>814.0</ele><time>2026-05-03T10:11:02.132Z</time></trkpt><trkpt lat="44.0535107" lon="6.8456115"><ele>814.0</ele><time>2026-05-03T10:11:03.132Z</time></trkpt><trkpt lat="44.0535636" lon="6.8454939"><ele>815.6</ele><time>2026-05-03T10:11:04.131Z</time></trkpt><trkpt lat="44.0535615" lon="6.8453558"><ele>817.2</ele><time>2026-05-03T10:11:05.132Z</time></trkpt><trkpt lat="44.0535859" lon="6.8452283"><ele>818.8000000000001</ele><time>2026-05-03T10:11:06.132Z</time></trkpt><trkpt lat="44.0536228" lon="6.8451136"><ele>820.4000000000001</ele><time>2026-05-03T10:11:07.132Z</time></trkpt><trkpt lat="44.0536735" lon="6.8450295"><ele>822.0</ele><time>2026-05-03T10:11:08.132Z</time></trkpt><trkpt lat="44.0537575" lon="6.8449961"><ele>820.0</ele><time>2026-05-03T10:11:09.132Z</time></trkpt><trkpt lat="44.0538482" lon="6.8449846"><ele>818.0</ele><time>2026-05-03T10:11:10.132Z</time></trkpt><trkpt lat="44.0539395" lon="6.8449995"><ele>816.0</ele><time>2026-05-03T10:11:11.132Z</time></trkpt><trkpt lat="44.0540152" lon="6.8450397"><ele>814.0</ele><time>2026-05-03T10:11:12.132Z</time></trkpt><trkpt lat="44.0540861" lon="6.8450847"><ele>812.0</ele><time>2026-05-03T10:11:13.131Z</time></trkpt><trkpt lat="44.0541557" lon="6.8451379"><ele>810.0</ele><time>2026-05-03T10:11:14.132Z</time></trkpt><trkpt lat="44.0542247" lon="6.8451764"><ele>810.0</ele><time>2026-05-03T10:11:15.132Z</time></trkpt><trkpt lat="44.054282" lon="6.845224"><ele>810.0</ele><time>2026-05-03T10:11:16.131Z</time></trkpt><trkpt lat="44.0543403" lon="6.8452992"><ele>810.0</ele><time>2026-05-03T10:11:18.132Z</time></trkpt><trkpt lat="44.054377" lon="6.8454077"><ele>810.0</ele><time>2026-05-03T10:11:20.132Z</time></trkpt><trkpt lat="44.0544455" lon="6.8453322"><ele>810.0</ele><time>2026-05-03T10:15:47.131Z</time></trkpt><trkpt lat="44.0545509" lon="6.8453064"><ele>810.0</ele><time>2026-05-03T10:15:49.132Z</time></trkpt><trkpt lat="44.0546288" lon="6.8452955"><ele>810.0</ele><time>2026-05-03T10:15:50.132Z</time></trkpt><trkpt lat="44.0547146" lon="6.8452704"><ele>810.0</ele><time>2026-05-03T10:15:51.132Z</time></trkpt><trkpt lat="44.0548059" lon="6.8452373"><ele>810.0</ele><time>2026-05-03T10:15:52.132Z</time></trkpt><trkpt lat="44.0548932" lon="6.8452141"><ele>810.0</ele><time>2026-05-03T10:15:53.132Z</time></trkpt><trkpt lat="44.054997" lon="6.845195"><ele>810.0</ele><time>2026-05-03T10:15:54.132Z</time></trkpt><trkpt lat="44.0550913" lon="6.8452121"><ele>811.2</ele><time>2026-05-03T10:15:55.132Z</time></trkpt><trkpt lat="44.0551796" lon="6.8452608"><ele>812.4</ele><time>2026-05-03T10:15:56.132Z</time></trkpt><trkpt lat="44.0552668" lon="6.8452933"><ele>813.5999999999999</ele><time>2026-05-03T10:15:57.132Z</time></trkpt><trkpt lat="44.055316" lon="6.8453714"><ele>814.8</ele><time>2026-05-03T10:15:58.132Z</time></trkpt><trkpt lat="44.0553377" lon="6.8455663"><ele>816.0</ele><time>2026-05-03T10:15:59.132Z</time></trkpt><trkpt lat="44.0553803" lon="6.8456931"><ele>816.0</ele><time>2026-05-03T10:16:00.132Z</time></trkpt><trkpt lat="44.0554332" lon="6.8458347"><ele>816.0</ele><time>2026-05-03T10:16:01.132Z</time></trkpt><trkpt lat="44.0554859" lon="6.845963"><ele>816.0</ele><time>2026-05-03T10:16:02.132Z</time></trkpt><trkpt lat="44.055523" lon="6.8460819"><ele>816.0</ele><time>2026-05-03T10:16:03.132Z</time></trkpt><trkpt lat="44.0555351" lon="6.8462012"><ele>816.0</ele><time>2026-05-03T10:16:04.132Z</time></trkpt><trkpt lat="44.0555304" lon="6.8463293"><ele>814.0</ele><time>2026-05-03T10:16:05.132Z</time></trkpt><trkpt lat="44.0554943" lon="6.8464602"><ele>812.0</ele><time>2026-05-03T10:16:06.132Z</time></trkpt><trkpt lat="44.0554479" lon="6.8465781"><ele>810.0</ele><time>2026-05-03T10:16:07.132Z</time></trkpt><trkpt lat="44.0553796" lon="6.8467165"><ele>808.0</ele><time>2026-05-03T10:16:08.132Z</time></trkpt><trkpt lat="44.0553223" lon="6.8468474"><ele>806.0</ele><time>2026-05-03T10:16:09.132Z</time></trkpt><trkpt lat="44.055263" lon="6.84699"><ele>806.0</ele><time>2026-05-03T10:16:10.132Z</time></trkpt><trkpt lat="44.0552073" lon="6.8471215"><ele>806.0</ele><time>2026-05-03T10:16:11.132Z</time></trkpt><trkpt lat="44.0551525" lon="6.8472569"><ele>806.0</ele><time>2026-05-03T10:16:12.132Z</time></trkpt><trkpt lat="44.0550959" lon="6.847382"><ele>806.0</ele><time>2026-05-03T10:16:13.131Z</time></trkpt><trkpt lat="44.055042" lon="6.8475071"><ele>806.0</ele><time>2026-05-03T10:16:14.132Z</time></trkpt><trkpt lat="44.0550037" lon="6.8476141"><ele>806.7142857142858</ele><time>2026-05-03T10:16:15.132Z</time></trkpt><trkpt lat="44.0549663" lon="6.8477219"><ele>807.4285714285713</ele><time>2026-05-03T10:16:16.132Z</time></trkpt><trkpt lat="44.0549356" lon="6.8478169"><ele>808.1428571428571</ele><time>2026-05-03T10:16:17.131Z</time></trkpt><trkpt lat="44.0549072" lon="6.8479045"><ele>808.8571428571429</ele><time>2026-05-03T10:16:18.131Z</time></trkpt><trkpt lat="44.0548713" lon="6.8479955"><ele>809.5714285714287</ele><time>2026-05-03T10:16:19.132Z</time></trkpt><trkpt lat="44.0548414" lon="6.8480816"><ele>810.2857142857142</ele><time>2026-05-03T10:16:20.132Z</time></trkpt><trkpt lat="44.0548107" lon="6.8481674"><ele>811.0</ele><time>2026-05-03T10:16:21.132Z</time></trkpt><trkpt lat="44.054788" lon="6.8482603"><ele>759.0</ele><time>2026-05-03T10:16:23.132Z</time></trkpt><trkpt lat="44.054725" lon="6.8482419"><ele>759.0</ele><time>2026-05-03T10:16:26.132Z</time></trkpt></trkseg><trkseg><trkpt lat="44.0607779" lon="6.8544164"><ele>769.3333333333333</ele><time>2026-05-03T11:01:04.118Z</time></trkpt><trkpt lat="44.0608833" lon="6.8544066"><ele>766.6666666666666</ele><time>2026-05-03T11:02:21.118Z</time></trkpt><trkpt lat="44.0609852" lon="6.854116"><ele>764.0</ele><time>2026-05-03T11:02:25.118Z</time></trkpt><trkpt lat="44.0611637" lon="6.8538089"><ele>773.5</ele><time>2026-05-03T11:02:27.118Z</time></trkpt><trkpt lat="44.0614329" lon="6.8536382"><ele>783.0</ele><time>2026-05-03T11:02:28.117Z</time></trkpt><trkpt lat="44.0617035" lon="6.85364"><ele>783.0</ele><time>2026-05-03T11:02:29.118Z</time></trkpt><trkpt lat="44.0618883" lon="6.8535889"><ele>783.0</ele><time>2026-05-03T11:02:30.118Z</time></trkpt><trkpt lat="44.0619889" lon="6.8535266"><ele>783.0</ele><time>2026-05-03T11:02:31.118Z</time></trkpt><trkpt lat="44.062067" lon="6.8534477"><ele>783.0</ele><time>2026-05-03T11:02:32.118Z</time></trkpt><trkpt lat="44.0621374" lon="6.8533361"><ele>788.25</ele><time>2026-05-03T11:02:33.117Z</time></trkpt><trkpt lat="44.0621941" lon="6.8532258"><ele>793.5</ele><time>2026-05-03T11:02:34.118Z</time></trkpt><trkpt lat="44.0622022" lon="6.853067"><ele>798.75</ele><time>2026-05-03T11:02:35.118Z</time></trkpt><trkpt lat="44.062154" lon="6.8528762"><ele>804.0</ele><time>2026-05-03T11:02:36.118Z</time></trkpt><trkpt lat="44.0621237" lon="6.8526856"><ele>805.5</ele><time>2026-05-03T11:02:37.118Z</time></trkpt><trkpt lat="44.0620872" lon="6.8524825"><ele>807.0</ele><time>2026-05-03T11:02:38.118Z</time></trkpt><trkpt lat="44.0620644" lon="6.8522895"><ele>808.5</ele><time>2026-05-03T11:02:39.118Z</time></trkpt><trkpt lat="44.0620385" lon="6.8520938"><ele>810.0</ele><time>2026-05-03T11:02:40.118Z</time></trkpt><trkpt lat="44.0620201" lon="6.8519003"><ele>809.75</ele><time>2026-05-03T11:02:41.118Z</time></trkpt><trkpt lat="44.062" lon="6.8517083"><ele>809.5</ele><time>2026-05-03T11:02:42.118Z</time></trkpt><trkpt lat="44.0620092" lon="6.8514943"><ele>809.25</ele><time>2026-05-03T11:02:43.118Z</time></trkpt><trkpt lat="44.0620256" lon="6.8512851"><ele>809.0</ele><time>2026-05-03T11:02:44.118Z</time></trkpt><trkpt lat="44.0620345" lon="6.8510747"><ele>809.0</ele><time>2026-05-03T11:02:45.118Z</time></trkpt><trkpt lat="44.0620627" lon="6.8508649"><ele>809.0</ele><time>2026-05-03T11:02:46.118Z</time></trkpt><trkpt lat="44.0620846" lon="6.8506591"><ele>809.0</ele><time>2026-05-03T11:02:47.118Z</time></trkpt><trkpt lat="44.0621168" lon="6.8504474"><ele>809.0</ele><time>2026-05-03T11:02:48.118Z</time></trkpt><trkpt lat="44.0621557" lon="6.8502292"><ele>809.0</ele><time>2026-05-03T11:02:49.118Z</time></trkpt><trkpt lat="44.0621966" lon="6.850017"><ele>809.0</ele><time>2026-05-03T11:02:50.117Z</time></trkpt><trkpt lat="44.0622438" lon="6.8498407"><ele>810.25</ele><time>2026-05-03T11:02:51.118Z</time></trkpt><trkpt lat="44.0622518" lon="6.8496627"><ele>811.5</ele><time>2026-05-03T11:02:52.118Z</time></trkpt><trkpt lat="44.0622536" lon="6.8495095"><ele>812.75</ele><time>2026-05-03T11:02:53.118Z</time></trkpt><trkpt lat="44.0622228" lon="6.8493397"><ele>814.0</ele><time>2026-05-03T11:02:54.118Z</time></trkpt><trkpt lat="44.0621942" lon="6.8491926"><ele>814.0</ele><time>2026-05-03T11:02:55.118Z</time></trkpt><trkpt lat="44.0621719" lon="6.8490505"><ele>814.0</ele><time>2026-05-03T11:02:56.118Z</time></trkpt><trkpt lat="44.0622003" lon="6.8489203"><ele>814.0</ele><time>2026-05-03T11:02:57.117Z</time></trkpt><trkpt lat="44.0622593" lon="6.8488081"><ele>814.0</ele><time>2026-05-03T11:02:58.118Z</time></trkpt><trkpt lat="44.0623544" lon="6.8487326"><ele>814.0</ele><time>2026-05-03T11:02:59.117Z</time></trkpt><trkpt lat="44.0624591" lon="6.848695"><ele>803.0</ele><time>2026-05-03T11:03:00.118Z</time></trkpt><trkpt lat="44.0625927" lon="6.8486824"><ele>792.0</ele><time>2026-05-03T11:03:01.118Z</time></trkpt><trkpt lat="44.0627257" lon="6.8486816"><ele>781.0</ele><time>2026-05-03T11:03:02.118Z</time></trkpt><trkpt lat="44.0628554" lon="6.8486864"><ele>770.0</ele><time>2026-05-03T11:03:03.117Z</time></trkpt><trkpt lat="44.062972" lon="6.8486921"><ele>770.0</ele><time>2026-05-03T11:03:04.118Z</time></trkpt><trkpt lat="44.0630785" lon="6.8487248"><ele>770.0</ele><time>2026-05-03T11:03:05.118Z</time></trkpt><trkpt lat="44.0631689" lon="6.8487735"><ele>770.0</ele><time>2026-05-03T11:03:06.118Z</time></trkpt><trkpt lat="44.0632366" lon="6.8489327"><ele>770.0</ele><time>2026-05-03T11:03:07.118Z</time></trkpt><trkpt lat="44.063283" lon="6.8491067"><ele>772.6666666666667</ele><time>2026-05-03T11:03:08.118Z</time></trkpt><trkpt lat="44.0633109" lon="6.8493221"><ele>775.3333333333333</ele><time>2026-05-03T11:03:09.118Z</time></trkpt><trkpt lat="44.0633376" lon="6.8495559"><ele>778.0</ele><time>2026-05-03T11:03:10.117Z</time></trkpt><trkpt lat="44.0633743" lon="6.8498044"><ele>778.0</ele><time>2026-05-03T11:03:11.118Z</time></trkpt><trkpt lat="44.0634072" lon="6.8500534"><ele>778.0</ele><time>2026-05-03T11:03:12.117Z</time></trkpt><trkpt lat="44.0634448" lon="6.8503066"><ele>778.0</ele><time>2026-05-03T11:03:13.118Z</time></trkpt><trkpt lat="44.0634701" lon="6.8505371"><ele>777.0</ele><time>2026-05-03T11:03:14.117Z</time></trkpt><trkpt lat="44.0635016" lon="6.8507719"><ele>776.0</ele><time>2026-05-03T11:03:15.117Z</time></trkpt><trkpt lat="44.0635278" lon="6.8510043"><ele>775.0</ele><time>2026-05-03T11:03:16.118Z</time></trkpt><trkpt lat="44.0635469" lon="6.8512336"><ele>775.0</ele><time>2026-05-03T11:03:17.117Z</time></trkpt><trkpt lat="44.0635337" lon="6.8514886"><ele>775.0</ele><time>2026-05-03T11:03:18.118Z</time></trkpt><trkpt lat="44.0635277" lon="6.8517336"><ele>775.0</ele><time>2026-05-03T11:03:19.118Z</time></trkpt><trkpt lat="44.0635128" lon="6.8519518"><ele>775.3333333333333</ele><time>2026-05-03T11:03:20.118Z</time></trkpt><trkpt lat="44.0634898" lon="6.8521688"><ele>775.6666666666667</ele><time>2026-05-03T11:03:21.118Z</time></trkpt><trkpt lat="44.0634818" lon="6.8523832"><ele>776.0</ele><time>2026-05-03T11:03:22.118Z</time></trkpt><trkpt lat="44.0634695" lon="6.8525846"><ele>774.6666666666667</ele><time>2026-05-03T11:03:23.118Z</time></trkpt><trkpt lat="44.0634726" lon="6.8527984"><ele>773.3333333333333</ele><time>2026-05-03T11:03:24.118Z</time></trkpt><trkpt lat="44.0634939" lon="6.8530079"><ele>772.0</ele><time>2026-05-03T11:03:25.118Z</time></trkpt><trkpt lat="44.0635275" lon="6.8532094"><ele>772.0</ele><time>2026-05-03T11:03:26.117Z</time></trkpt><trkpt lat="44.0635502" lon="6.8534149"><ele>772.0</ele><time>2026-05-03T11:03:27.117Z</time></trkpt><trkpt lat="44.0635635" lon="6.8535762"><ele>772.0</ele><time>2026-05-03T11:03:28.118Z</time></trkpt><trkpt lat="44.0635662" lon="6.853714"><ele>772.0</ele><time>2026-05-03T11:03:29.118Z</time></trkpt><trkpt lat="44.0635829" lon="6.8538327"><ele>770.6</ele><time>2026-05-03T11:03:30.118Z</time></trkpt><trkpt lat="44.063612" lon="6.8539565"><ele>769.2</ele><time>2026-05-03T11:03:31.118Z</time></trkpt><trkpt lat="44.0636929" lon="6.8540467"><ele>767.8</ele><time>2026-05-03T11:03:32.118Z</time></trkpt><trkpt lat="44.0637859" lon="6.8541004"><ele>766.4</ele><time>2026-05-03T11:03:33.118Z</time></trkpt><trkpt lat="44.0638897" lon="6.854089"><ele>765.0</ele><time>2026-05-03T11:03:34.118Z</time></trkpt><trkpt lat="44.0639898" lon="6.8540479"><ele>765.0</ele><time>2026-05-03T11:03:35.118Z</time></trkpt><trkpt lat="44.0641069" lon="6.8539622"><ele>765.0</ele><time>2026-05-03T11:03:36.118Z</time></trkpt><trkpt lat="44.0642356" lon="6.8538974"><ele>765.0</ele><time>2026-05-03T11:03:37.118Z</time></trkpt><trkpt lat="44.0643718" lon="6.8538804"><ele>765.0</ele><time>2026-05-03T11:03:38.118Z</time></trkpt><trkpt lat="44.0645138" lon="6.8538772"><ele>768.0</ele><time>2026-05-03T11:03:39.118Z</time></trkpt><trkpt lat="44.0646475" lon="6.8539435"><ele>771.0</ele><time>2026-05-03T11:03:40.118Z</time></trkpt><trkpt lat="44.0647793" lon="6.8539767"><ele>774.0</ele><time>2026-05-03T11:03:41.118Z</time></trkpt><trkpt lat="44.0649181" lon="6.8539739"><ele>777.0</ele><time>2026-05-03T11:03:42.118Z</time></trkpt><trkpt lat="44.0650446" lon="6.8539618"><ele>777.0</ele><time>2026-05-03T11:03:43.118Z</time></trkpt><trkpt lat="44.0651907" lon="6.8539162"><ele>777.0</ele><time>2026-05-03T11:03:44.118Z</time></trkpt><trkpt lat="44.0653201" lon="6.8538818"><ele>777.0</ele><time>2026-05-03T11:03:45.118Z</time></trkpt><trkpt lat="44.0655082" lon="6.8538808"><ele>777.0</ele><time>2026-05-03T11:03:46.118Z</time></trkpt><trkpt lat="44.0656954" lon="6.8539066"><ele>777.0</ele><time>2026-05-03T11:03:47.117Z</time></trkpt><trkpt lat="44.065883" lon="6.8539329"><ele>777.0</ele><time>2026-05-03T11:03:48.118Z</time></trkpt><trkpt lat="44.0660605" lon="6.8539656"><ele>776.6666666666667</ele><time>2026-05-03T11:03:49.117Z</time></trkpt><trkpt lat="44.0662476" lon="6.853989"><ele>776.3333333333334</ele><time>2026-05-03T11:03:50.118Z</time></trkpt><trkpt lat="44.0664084" lon="6.8539876"><ele>776.0</ele><time>2026-05-03T11:03:51.118Z</time></trkpt><trkpt lat="44.0665694" lon="6.8539832"><ele>777.0</ele><time>2026-05-03T11:03:52.118Z</time></trkpt><trkpt lat="44.0667293" lon="6.8539829"><ele>778.0</ele><time>2026-05-03T11:03:53.118Z</time></trkpt><trkpt lat="44.0668871" lon="6.8540004"><ele>779.0</ele><time>2026-05-03T11:03:54.117Z</time></trkpt><trkpt lat="44.0670482" lon="6.8540326"><ele>779.0</ele><time>2026-05-03T11:03:55.118Z</time></trkpt><trkpt lat="44.067206" lon="6.8540832"><ele>779.0</ele><time>2026-05-03T11:03:56.118Z</time></trkpt><trkpt lat="44.0673698" lon="6.8541468"><ele>779.0</ele><time>2026-05-03T11:03:57.118Z</time></trkpt><trkpt lat="44.0675202" lon="6.8542349"><ele>770.6666666666667</ele><time>2026-05-03T11:03:58.118Z</time></trkpt><trkpt lat="44.0676691" lon="6.8543278"><ele>762.3333333333334</ele><time>2026-05-03T11:03:59.118Z</time></trkpt><trkpt lat="44.0678098" lon="6.8544231"><ele>754.0</ele><time>2026-05-03T11:04:00.118Z</time></trkpt><trkpt lat="44.0679508" lon="6.8545371"><ele>754.0</ele><time>2026-05-03T11:04:01.118Z</time></trkpt><trkpt lat="44.0680864" lon="6.8546098"><ele>754.0</ele><time>2026-05-03T11:04:02.118Z</time></trkpt><trkpt lat="44.0682377" lon="6.8546813"><ele>754.0</ele><time>2026-05-03T11:04:03.118Z</time></trkpt><trkpt lat="44.0684062" lon="6.8546975"><ele>758.6666666666667</ele><time>2026-05-03T11:04:04.118Z</time></trkpt><trkpt lat="44.0685675" lon="6.8547255"><ele>763.3333333333334</ele><time>2026-05-03T11:04:05.118Z</time></trkpt><trkpt lat="44.0687168" lon="6.8547294"><ele>768.0</ele><time>2026-05-03T11:04:06.118Z</time></trkpt><trkpt lat="44.0688628" lon="6.8547298"><ele>768.0</ele><time>2026-05-03T11:04:07.118Z</time></trkpt><trkpt lat="44.0690003" lon="6.8547221"><ele>768.0</ele><time>2026-05-03T11:04:08.118Z</time></trkpt><trkpt lat="44.0691189" lon="6.8547112"><ele>768.0</ele><time>2026-05-03T11:04:09.118Z</time></trkpt><trkpt lat="44.0692363" lon="6.8547028"><ele>768.0</ele><time>2026-05-03T11:04:10.116Z</time></trkpt><trkpt lat="44.069352" lon="6.8547623"><ele>770.5</ele><time>2026-05-03T11:04:11.114Z</time></trkpt><trkpt lat="44.0694426" lon="6.8548333"><ele>773.0</ele><time>2026-05-03T11:04:12.114Z</time></trkpt><trkpt lat="44.0695067" lon="6.8550144"><ele>775.5</ele><time>2026-05-03T11:04:13.113Z</time></trkpt><trkpt lat="44.0696007" lon="6.8551713"><ele>778.0</ele><time>2026-05-03T11:04:14.114Z</time></trkpt><trkpt lat="44.0696847" lon="6.8553323"><ele>777.6666666666666</ele><time>2026-05-03T11:04:15.113Z</time></trkpt><trkpt lat="44.0697811" lon="6.8554958"><ele>777.3333333333333</ele><time>2026-05-03T11:04:16.114Z</time></trkpt><trkpt lat="44.0698708" lon="6.8556665"><ele>777.0</ele><time>2026-05-03T11:04:17.114Z</time></trkpt><trkpt lat="44.0699707" lon="6.855818"><ele>767.6666666666666</ele><time>2026-05-03T11:04:18.114Z</time></trkpt><trkpt lat="44.0700785" lon="6.8559583"><ele>758.3333333333333</ele><time>2026-05-03T11:04:19.114Z</time></trkpt><trkpt lat="44.0702077" lon="6.8560816"><ele>749.0</ele><time>2026-05-03T11:04:20.114Z</time></trkpt><trkpt lat="44.0703426" lon="6.8561923"><ele>749.0</ele><time>2026-05-03T11:04:21.114Z</time></trkpt><trkpt lat="44.0705367" lon="6.856253"><ele>749.0</ele><time>2026-05-03T11:04:22.114Z</time></trkpt><trkpt lat="44.0707299" lon="6.8563289"><ele>749.0</ele><time>2026-05-03T11:04:23.114Z</time></trkpt><trkpt lat="44.070926" lon="6.8564037"><ele>754.3333333333333</ele><time>2026-05-03T11:04:24.114Z</time></trkpt><trkpt lat="44.0711227" lon="6.8564872"><ele>759.6666666666666</ele><time>2026-05-03T11:04:25.114Z</time></trkpt><trkpt lat="44.0713064" lon="6.856563"><ele>765.0</ele><time>2026-05-03T11:04:26.113Z</time></trkpt><trkpt lat="44.0714836" lon="6.8566282"><ele>770.0</ele><time>2026-05-03T11:04:27.114Z</time></trkpt><trkpt lat="44.0716605" lon="6.8566916"><ele>775.0</ele><time>2026-05-03T11:04:28.113Z</time></trkpt><trkpt lat="44.0718557" lon="6.8567391"><ele>780.0</ele><time>2026-05-03T11:04:29.114Z</time></trkpt><trkpt lat="44.0720658" lon="6.8567681"><ele>774.3333333333334</ele><time>2026-05-03T11:04:30.114Z</time></trkpt><trkpt lat="44.0722789" lon="6.8567947"><ele>768.6666666666667</ele><time>2026-05-03T11:04:31.114Z</time></trkpt><trkpt lat="44.0724884" lon="6.8568102"><ele>763.0</ele><time>2026-05-03T11:04:32.114Z</time></trkpt><trkpt lat="44.0726876" lon="6.856836"><ele>763.0</ele><time>2026-05-03T11:04:33.114Z</time></trkpt><trkpt lat="44.07288" lon="6.856861"><ele>763.0</ele><time>2026-05-03T11:04:34.113Z</time></trkpt><trkpt lat="44.073071" lon="6.8568902"><ele>763.0</ele><time>2026-05-03T11:04:35.114Z</time></trkpt><trkpt lat="44.073265" lon="6.8569307"><ele>766.6666666666667</ele><time>2026-05-03T11:04:36.114Z</time></trkpt><trkpt lat="44.0734503" lon="6.8569678"><ele>770.3333333333334</ele><time>2026-05-03T11:04:37.114Z</time></trkpt><trkpt lat="44.0736249" lon="6.8570015"><ele>774.0</ele><time>2026-05-03T11:04:38.114Z</time></trkpt><trkpt lat="44.0737957" lon="6.857035"><ele>774.0</ele><time>2026-05-03T11:04:39.114Z</time></trkpt><trkpt lat="44.0739659" lon="6.8570631"><ele>774.0</ele><time>2026-05-03T11:04:40.114Z</time></trkpt><trkpt lat="44.074134" lon="6.8570879"><ele>774.0</ele><time>2026-05-03T11:04:41.114Z</time></trkpt><trkpt lat="44.0742741" lon="6.857102"><ele>771.75</ele><time>2026-05-03T11:04:42.114Z</time></trkpt><trkpt lat="44.0744204" lon="6.8571522"><ele>769.5</ele><time>2026-05-03T11:04:43.114Z</time></trkpt><trkpt lat="44.074561" lon="6.8571931"><ele>767.25</ele><time>2026-05-03T11:04:44.114Z</time></trkpt><trkpt lat="44.0746699" lon="6.8573268"><ele>765.0</ele><time>2026-05-03T11:04:45.114Z</time></trkpt><trkpt lat="44.0747807" lon="6.857459"><ele>765.0</ele><time>2026-05-03T11:04:46.113Z</time></trkpt><trkpt lat="44.0748891" lon="6.8575909"><ele>765.0</ele><time>2026-05-03T11:04:47.114Z</time></trkpt><trkpt lat="44.0750224" lon="6.8577112"><ele>765.0</ele><time>2026-05-03T11:04:48.114Z</time></trkpt><trkpt lat="44.0751946" lon="6.8577972"><ele>767.0</ele><time>2026-05-03T11:04:49.114Z</time></trkpt><trkpt lat="44.0753544" lon="6.8578792"><ele>769.0</ele><time>2026-05-03T11:04:50.114Z</time></trkpt><trkpt lat="44.0755132" lon="6.857958"><ele>771.0</ele><time>2026-05-03T11:04:51.114Z</time></trkpt><trkpt lat="44.0756476" lon="6.8580246"><ele>770.6666666666667</ele><time>2026-05-03T11:04:52.114Z</time></trkpt><trkpt lat="44.0757881" lon="6.8580898"><ele>770.3333333333334</ele><time>2026-05-03T11:04:53.114Z</time></trkpt><trkpt lat="44.0759392" lon="6.8580814"><ele>770.0</ele><time>2026-05-03T11:04:54.113Z</time></trkpt><trkpt lat="44.0760954" lon="6.8580507"><ele>770.0</ele><time>2026-05-03T11:04:55.114Z</time></trkpt><trkpt lat="44.0762442" lon="6.8580148"><ele>770.0</ele><time>2026-05-03T11:04:56.114Z</time></trkpt><trkpt lat="44.0764354" lon="6.8579421"><ele>770.0</ele><time>2026-05-03T11:04:57.114Z</time></trkpt><trkpt lat="44.0766374" lon="6.8578684"><ele>771.6666666666667</ele><time>2026-05-03T11:04:58.114Z</time></trkpt><trkpt lat="44.0768316" lon="6.8577995"><ele>773.3333333333333</ele><time>2026-05-03T11:04:59.114Z</time></trkpt><trkpt lat="44.0770462" lon="6.8577154"><ele>775.0</ele><time>2026-05-03T11:05:00.114Z</time></trkpt><trkpt lat="44.0772554" lon="6.8576376"><ele>769.6666666666666</ele><time>2026-05-03T11:05:01.113Z</time></trkpt><trkpt lat="44.0774674" lon="6.8575513"><ele>764.3333333333333</ele><time>2026-05-03T11:05:02.114Z</time></trkpt><trkpt lat="44.0776776" lon="6.8574685"><ele>759.0</ele><time>2026-05-03T11:05:03.114Z</time></trkpt><trkpt lat="44.0778937" lon="6.8573816"><ele>759.0</ele><time>2026-05-03T11:05:04.114Z</time></trkpt><trkpt lat="44.0781135" lon="6.8572936"><ele>759.0</ele><time>2026-05-03T11:05:05.114Z</time></trkpt><trkpt lat="44.0783224" lon="6.857215"><ele>759.0</ele><time>2026-05-03T11:05:06.113Z</time></trkpt><trkpt lat="44.0785293" lon="6.8571288"><ele>761.0</ele><time>2026-05-03T11:05:07.114Z</time></trkpt><trkpt lat="44.0787376" lon="6.8570517"><ele>763.0</ele><time>2026-05-03T11:05:08.114Z</time></trkpt><trkpt lat="44.0789366" lon="6.8569749"><ele>765.0</ele><time>2026-05-03T11:05:09.114Z</time></trkpt><trkpt lat="44.07913" lon="6.8569009"><ele>766.0</ele><time>2026-05-03T11:05:10.114Z</time></trkpt><trkpt lat="44.0793161" lon="6.8568222"><ele>767.0</ele><time>2026-05-03T11:05:11.114Z</time></trkpt><trkpt lat="44.0795017" lon="6.8567472"><ele>768.0</ele><time>2026-05-03T11:05:12.114Z</time></trkpt><trkpt lat="44.0796918" lon="6.8566756"><ele>767.0</ele><time>2026-05-03T11:05:13.114Z</time></trkpt><trkpt lat="44.0798816" lon="6.8566074"><ele>766.0</ele><time>2026-05-03T11:05:14.114Z</time></trkpt><trkpt lat="44.0800584" lon="6.8565398"><ele>765.0</ele><time>2026-05-03T11:05:15.114Z</time></trkpt><trkpt lat="44.0802401" lon="6.8564699"><ele>765.0</ele><time>2026-05-03T11:05:16.114Z</time></trkpt><trkpt lat="44.080423" lon="6.8563924"><ele>765.0</ele><time>2026-05-03T11:05:17.114Z</time></trkpt><trkpt lat="44.0806017" lon="6.8563228"><ele>765.0</ele><time>2026-05-03T11:05:18.114Z</time></trkpt><trkpt lat="44.0807553" lon="6.8562626"><ele>765.3333333333334</ele><time>2026-05-03T11:05:19.113Z</time></trkpt><trkpt lat="44.0809107" lon="6.8562069"><ele>765.6666666666667</ele><time>2026-05-03T11:05:20.114Z</time></trkpt><trkpt lat="44.0810568" lon="6.8561492"><ele>766.0</ele><time>2026-05-03T11:05:21.114Z</time></trkpt><trkpt lat="44.0812044" lon="6.8560937"><ele>766.0</ele><time>2026-05-03T11:05:22.114Z</time></trkpt><trkpt lat="44.0813667" lon="6.85603"><ele>766.0</ele><time>2026-05-03T11:05:23.114Z</time></trkpt><trkpt lat="44.0815259" lon="6.8559694"><ele>766.0</ele><time>2026-05-03T11:05:24.114Z</time></trkpt><trkpt lat="44.0816951" lon="6.8558993"><ele>766.0</ele><time>2026-05-03T11:05:25.114Z</time></trkpt><trkpt lat="44.0818667" lon="6.8558354"><ele>766.0</ele><time>2026-05-03T11:05:26.114Z</time></trkpt><trkpt lat="44.0820348" lon="6.8557626"><ele>766.0</ele><time>2026-05-03T11:05:27.114Z</time></trkpt><trkpt lat="44.0822036" lon="6.8556928"><ele>766.0</ele><time>2026-05-03T11:05:28.114Z</time></trkpt><trkpt lat="44.0823664" lon="6.855626"><ele>766.0</ele><time>2026-05-03T11:05:29.114Z</time></trkpt><trkpt lat="44.0825269" lon="6.8555532"><ele>766.0</ele><time>2026-05-03T11:05:30.114Z</time></trkpt><trkpt lat="44.082693" lon="6.8554904"><ele>767.3333333333334</ele><time>2026-05-03T11:05:31.114Z</time></trkpt><trkpt lat="44.0828638" lon="6.8554206"><ele>768.6666666666667</ele><time>2026-05-03T11:05:32.114Z</time></trkpt><trkpt lat="44.0830341" lon="6.8553537"><ele>770.0</ele><time>2026-05-03T11:05:33.114Z</time></trkpt><trkpt lat="44.0832042" lon="6.8552851"><ele>769.6666666666667</ele><time>2026-05-03T11:05:34.114Z</time></trkpt><trkpt lat="44.0833702" lon="6.8552197"><ele>769.3333333333333</ele><time>2026-05-03T11:05:35.114Z</time></trkpt><trkpt lat="44.0835293" lon="6.8551545"><ele>769.0</ele><time>2026-05-03T11:05:36.114Z</time></trkpt><trkpt lat="44.08369" lon="6.8550935"><ele>769.0</ele><time>2026-05-03T11:05:37.114Z</time></trkpt><trkpt lat="44.0838504" lon="6.8550367"><ele>769.0</ele><time>2026-05-03T11:05:38.113Z</time></trkpt><trkpt lat="44.0840127" lon="6.8549768"><ele>769.0</ele><time>2026-05-03T11:05:39.114Z</time></trkpt><trkpt lat="44.0841747" lon="6.8549156"><ele>769.6666666666666</ele><time>2026-05-03T11:05:40.114Z</time></trkpt><trkpt lat="44.0843382" lon="6.8548537"><ele>770.3333333333333</ele><time>2026-05-03T11:05:41.114Z</time></trkpt><trkpt lat="44.0844978" lon="6.8547953"><ele>771.0</ele><time>2026-05-03T11:05:42.113Z</time></trkpt><trkpt lat="44.0846614" lon="6.8547232"><ele>771.0</ele><time>2026-05-03T11:05:43.114Z</time></trkpt><trkpt lat="44.084818" lon="6.8546622"><ele>771.0</ele><time>2026-05-03T11:05:44.114Z</time></trkpt><trkpt lat="44.0849747" lon="6.8546052"><ele>771.0</ele><time>2026-05-03T11:05:45.114Z</time></trkpt><trkpt lat="44.0851193" lon="6.8545533"><ele>772.25</ele><time>2026-05-03T11:05:46.113Z</time></trkpt><trkpt lat="44.0852507" lon="6.8545019"><ele>773.5</ele><time>2026-05-03T11:05:47.114Z</time></trkpt><trkpt lat="44.0853844" lon="6.8544634"><ele>774.75</ele><time>2026-05-03T11:05:48.114Z</time></trkpt><trkpt lat="44.0854846" lon="6.8544167"><ele>776.0</ele><time>2026-05-03T11:05:49.114Z</time></trkpt><trkpt lat="44.0856088" lon="6.8543659"><ele>776.0</ele><time>2026-05-03T11:05:50.114Z</time></trkpt><trkpt lat="44.0857281" lon="6.8543353"><ele>776.0</ele><time>2026-05-03T11:05:51.114Z</time></trkpt><trkpt lat="44.0858563" lon="6.8542823"><ele>776.0</ele><time>2026-05-03T11:05:52.114Z</time></trkpt><trkpt lat="44.0859797" lon="6.8542588"><ele>776.0</ele><time>2026-05-03T11:05:53.113Z</time></trkpt><trkpt lat="44.0861098" lon="6.854244"><ele>778.0</ele><time>2026-05-03T11:05:54.114Z</time></trkpt><trkpt lat="44.0862363" lon="6.8542494"><ele>780.0</ele><time>2026-05-03T11:05:55.114Z</time></trkpt><trkpt lat="44.0863557" lon="6.8542572"><ele>782.0</ele><time>2026-05-03T11:05:56.114Z</time></trkpt><trkpt lat="44.0864689" lon="6.8542625"><ele>784.0</ele><time>2026-05-03T11:05:57.114Z</time></trkpt><trkpt lat="44.0865778" lon="6.8542719"><ele>785.6</ele><time>2026-05-03T11:05:58.114Z</time></trkpt><trkpt lat="44.0866769" lon="6.8542814"><ele>787.2</ele><time>2026-05-03T11:05:59.114Z</time></trkpt><trkpt lat="44.0867759" lon="6.8542649"><ele>788.8000000000001</ele><time>2026-05-03T11:06:00.114Z</time></trkpt><trkpt lat="44.0868806" lon="6.8542471"><ele>790.4000000000001</ele><time>2026-05-03T11:06:01.114Z</time></trkpt><trkpt lat="44.0869544" lon="6.854164"><ele>792.0</ele><time>2026-05-03T11:06:02.114Z</time></trkpt><trkpt lat="44.0870308" lon="6.8540578"><ele>792.0</ele><time>2026-05-03T11:06:03.114Z</time></trkpt><trkpt lat="44.0871087" lon="6.8539642"><ele>792.0</ele><time>2026-05-03T11:06:04.114Z</time></trkpt><trkpt lat="44.0871857" lon="6.8538709"><ele>792.0</ele><time>2026-05-03T11:06:05.114Z</time></trkpt><trkpt lat="44.087273" lon="6.8537914"><ele>792.0</ele><time>2026-05-03T11:06:06.114Z</time></trkpt><trkpt lat="44.0873665" lon="6.8537155"><ele>792.0</ele><time>2026-05-03T11:06:07.114Z</time></trkpt><trkpt lat="44.0874492" lon="6.8536444"><ele>794.0</ele><time>2026-05-03T11:06:08.114Z</time></trkpt><trkpt lat="44.0875376" lon="6.8535892"><ele>796.0</ele><time>2026-05-03T11:06:09.114Z</time></trkpt><trkpt lat="44.0876366" lon="6.853582"><ele>798.0</ele><time>2026-05-03T11:06:10.114Z</time></trkpt><trkpt lat="44.0877318" lon="6.8535982"><ele>800.0</ele><time>2026-05-03T11:06:11.114Z</time></trkpt><trkpt lat="44.0878229" lon="6.8536219"><ele>802.0</ele><time>2026-05-03T11:06:12.114Z</time></trkpt><trkpt lat="44.0879031" lon="6.8536428"><ele>801.9999999999999</ele><time>2026-05-03T11:06:13.114Z</time></trkpt><trkpt lat="44.0879712" lon="6.853722"><ele>802.0</ele><time>2026-05-03T11:06:14.114Z</time></trkpt><trkpt lat="44.0880382" lon="6.8537735"><ele>802.0</ele><time>2026-05-03T11:06:15.114Z</time></trkpt><trkpt lat="44.0881083" lon="6.8538263"><ele>802.0</ele><time>2026-05-03T11:06:16.113Z</time></trkpt><trkpt lat="44.0881917" lon="6.8538648"><ele>801.9999999999999</ele><time>2026-05-03T11:06:17.114Z</time></trkpt><trkpt lat="44.0882791" lon="6.8538558"><ele>802.0</ele><time>2026-05-03T11:06:18.114Z</time></trkpt><trkpt lat="44.0883681" lon="6.8538325"><ele>800.1666666666666</ele><time>2026-05-03T11:06:19.114Z</time></trkpt><trkpt lat="44.0884603" lon="6.8538057"><ele>798.3333333333333</ele><time>2026-05-03T11:06:20.113Z</time></trkpt><trkpt lat="44.0885469" lon="6.8537815"><ele>796.5</ele><time>2026-05-03T11:06:21.114Z</time></trkpt><trkpt lat="44.0886256" lon="6.8537553"><ele>794.6666666666667</ele><time>2026-05-03T11:06:22.113Z</time></trkpt><trkpt lat="44.0887036" lon="6.8537391"><ele>792.8333333333334</ele><time>2026-05-03T11:06:23.113Z</time></trkpt><trkpt lat="44.0887817" lon="6.8537203"><ele>791.0</ele><time>2026-05-03T11:06:24.114Z</time></trkpt><trkpt lat="44.0888616" lon="6.8537056"><ele>791.0000000000001</ele><time>2026-05-03T11:06:25.114Z</time></trkpt><trkpt lat="44.0889393" lon="6.8536848"><ele>791.0</ele><time>2026-05-03T11:06:26.114Z</time></trkpt><trkpt lat="44.0890158" lon="6.8536589"><ele>791.0</ele><time>2026-05-03T11:06:27.114Z</time></trkpt><trkpt lat="44.0890931" lon="6.8536388"><ele>791.0</ele><time>2026-05-03T11:06:28.114Z</time></trkpt><trkpt lat="44.0891703" lon="6.8536125"><ele>791.0000000000001</ele><time>2026-05-03T11:06:29.114Z</time></trkpt><trkpt lat="44.0892425" lon="6.8535953"><ele>791.0</ele><time>2026-05-03T11:06:30.113Z</time></trkpt><trkpt lat="44.0893284" lon="6.8535719"><ele>791.3333333333334</ele><time>2026-05-03T11:06:31.114Z</time></trkpt><trkpt lat="44.0894124" lon="6.8535401"><ele>791.6666666666667</ele><time>2026-05-03T11:06:32.114Z</time></trkpt><trkpt lat="44.0894749" lon="6.8535255"><ele>792.0</ele><time>2026-05-03T11:06:33.114Z</time></trkpt><trkpt lat="44.0895491" lon="6.8535206"><ele>792.3333333333333</ele><time>2026-05-03T11:06:34.114Z</time></trkpt><trkpt lat="44.0896165" lon="6.8535187"><ele>792.6666666666666</ele><time>2026-05-03T11:06:35.114Z</time></trkpt><trkpt lat="44.0896956" lon="6.8535078"><ele>793.0</ele><time>2026-05-03T11:06:36.114Z</time></trkpt><trkpt lat="44.0897723" lon="6.8534795"><ele>792.8333333333333</ele><time>2026-05-03T11:06:37.114Z</time></trkpt><trkpt lat="44.089847" lon="6.8534541"><ele>792.6666666666666</ele><time>2026-05-03T11:06:38.114Z</time></trkpt><trkpt lat="44.0899194" lon="6.8534266"><ele>792.5</ele><time>2026-05-03T11:06:39.114Z</time></trkpt><trkpt lat="44.0900004" lon="6.8534197"><ele>792.3333333333333</ele><time>2026-05-03T11:06:40.114Z</time></trkpt><trkpt lat="44.0900856" lon="6.8534077"><ele>792.1666666666666</ele><time>2026-05-03T11:06:41.114Z</time></trkpt><trkpt lat="44.0901638" lon="6.8533905"><ele>792.0</ele><time>2026-05-03T11:06:42.114Z</time></trkpt><trkpt lat="44.090238" lon="6.8533751"><ele>792.0</ele><time>2026-05-03T11:06:43.114Z</time></trkpt><trkpt lat="44.0903183" lon="6.8533468"><ele>792.0</ele><time>2026-05-03T11:06:44.113Z</time></trkpt><trkpt lat="44.0903878" lon="6.853321"><ele>792.0</ele><time>2026-05-03T11:06:45.114Z</time></trkpt><trkpt lat="44.0904582" lon="6.8532871"><ele>792.0</ele><time>2026-05-03T11:06:46.114Z</time></trkpt><trkpt lat="44.0905273" lon="6.8532414"><ele>792.0</ele><time>2026-05-03T11:06:47.113Z</time></trkpt><trkpt lat="44.0906109" lon="6.8531986"><ele>792.0</ele><time>2026-05-03T11:06:48.113Z</time></trkpt><trkpt lat="44.0906966" lon="6.8531532"><ele>792.6</ele><time>2026-05-03T11:06:49.114Z</time></trkpt><trkpt lat="44.0907878" lon="6.8530953"><ele>793.2</ele><time>2026-05-03T11:06:50.114Z</time></trkpt><trkpt lat="44.0908804" lon="6.8530386"><ele>793.8</ele><time>2026-05-03T11:06:51.113Z</time></trkpt><trkpt lat="44.0909757" lon="6.8529884"><ele>794.4</ele><time>2026-05-03T11:06:52.114Z</time></trkpt><trkpt lat="44.0910721" lon="6.8529372"><ele>795.0</ele><time>2026-05-03T11:06:53.114Z</time></trkpt><trkpt lat="44.0911684" lon="6.8528873"><ele>795.0</ele><time>2026-05-03T11:06:54.113Z</time></trkpt><trkpt lat="44.0912646" lon="6.8528438"><ele>795.0</ele><time>2026-05-03T11:06:55.113Z</time></trkpt><trkpt lat="44.0913546" lon="6.8528041"><ele>795.0</ele><time>2026-05-03T11:06:56.114Z</time></trkpt><trkpt lat="44.0914484" lon="6.8527648"><ele>795.0</ele><time>2026-05-03T11:06:57.113Z</time></trkpt><trkpt lat="44.0915378" lon="6.8527222"><ele>795.0</ele><time>2026-05-03T11:06:58.113Z</time></trkpt><trkpt lat="44.0916213" lon="6.8526813"><ele>794.4</ele><time>2026-05-03T11:06:59.114Z</time></trkpt><trkpt lat="44.0917114" lon="6.8526395"><ele>793.8</ele><time>2026-05-03T11:07:00.114Z</time></trkpt><trkpt lat="44.0917959" lon="6.8525901"><ele>793.2</ele><time>2026-05-03T11:07:01.114Z</time></trkpt><trkpt lat="44.0918876" lon="6.8525504"><ele>792.6</ele><time>2026-05-03T11:07:02.113Z</time></trkpt><trkpt lat="44.0919834" lon="6.852498"><ele>792.0</ele><time>2026-05-03T11:07:03.114Z</time></trkpt><trkpt lat="44.092076" lon="6.8524516"><ele>792.0</ele><time>2026-05-03T11:07:04.114Z</time></trkpt><trkpt lat="44.0921641" lon="6.8524037"><ele>792.0</ele><time>2026-05-03T11:07:05.114Z</time></trkpt><trkpt lat="44.0922551" lon="6.8523525"><ele>792.0</ele><time>2026-05-03T11:07:06.114Z</time></trkpt><trkpt lat="44.092347" lon="6.8522932"><ele>792.0</ele><time>2026-05-03T11:07:07.113Z</time></trkpt><trkpt lat="44.0924396" lon="6.8522644"><ele>792.0</ele><time>2026-05-03T11:07:08.114Z</time></trkpt><trkpt lat="44.092533" lon="6.8522558"><ele>793.0</ele><time>2026-05-03T11:07:09.114Z</time></trkpt><trkpt lat="44.0926258" lon="6.8522526"><ele>794.0</ele><time>2026-05-03T11:07:10.114Z</time></trkpt><trkpt lat="44.092714" lon="6.8522793"><ele>795.0</ele><time>2026-05-03T11:07:11.113Z</time></trkpt><trkpt lat="44.0928109" lon="6.8523468"><ele>796.0</ele><time>2026-05-03T11:07:12.114Z</time></trkpt><trkpt lat="44.0929025" lon="6.8524049"><ele>797.0</ele><time>2026-05-03T11:07:13.114Z</time></trkpt><trkpt lat="44.0929963" lon="6.8524758"><ele>797.0</ele><time>2026-05-03T11:07:14.114Z</time></trkpt><trkpt lat="44.0931011" lon="6.8525252"><ele>797.0</ele><time>2026-05-03T11:07:15.114Z</time></trkpt><trkpt lat="44.0931966" lon="6.8525569"><ele>797.0</ele><time>2026-05-03T11:07:16.114Z</time></trkpt><trkpt lat="44.0932992" lon="6.8525601"><ele>797.0</ele><time>2026-05-03T11:07:17.114Z</time></trkpt><trkpt lat="44.0933989" lon="6.8525593"><ele>797.0</ele><time>2026-05-03T11:07:18.114Z</time></trkpt><trkpt lat="44.0934975" lon="6.8525452"><ele>798.8333333333334</ele><time>2026-05-03T11:07:19.114Z</time></trkpt><trkpt lat="44.093575" lon="6.8525499"><ele>800.6666666666667</ele><time>2026-05-03T11:07:20.114Z</time></trkpt><trkpt lat="44.0936782" lon="6.8525392"><ele>802.5</ele><time>2026-05-03T11:07:21.114Z</time></trkpt><trkpt lat="44.09376" lon="6.8525573"><ele>804.3333333333333</ele><time>2026-05-03T11:07:22.114Z</time></trkpt><trkpt lat="44.0938446" lon="6.8525579"><ele>806.1666666666666</ele><time>2026-05-03T11:07:23.114Z</time></trkpt><trkpt lat="44.0939283" lon="6.8525634"><ele>808.0</ele><time>2026-05-03T11:07:24.114Z</time></trkpt><trkpt lat="44.0940185" lon="6.8525707"><ele>813.0</ele><time>2026-05-03T11:07:25.114Z</time></trkpt><trkpt lat="44.0941054" lon="6.8525684"><ele>818.0</ele><time>2026-05-03T11:07:26.114Z</time></trkpt><trkpt lat="44.094207" lon="6.8525536"><ele>823.0</ele><time>2026-05-03T11:07:27.114Z</time></trkpt><trkpt lat="44.0943655" lon="6.8524567"><ele>828.0</ele><time>2026-05-03T11:07:28.114Z</time></trkpt><trkpt lat="44.0944853" lon="6.8523856"><ele>828.0</ele><time>2026-05-03T11:07:29.114Z</time></trkpt><trkpt lat="44.094616" lon="6.8523183"><ele>828.0</ele><time>2026-05-03T11:07:30.114Z</time></trkpt><trkpt lat="44.094771" lon="6.8522294"><ele>828.0</ele><time>2026-05-03T11:07:31.114Z</time></trkpt><trkpt lat="44.0949191" lon="6.8521816"><ele>839.0</ele><time>2026-05-03T11:07:32.114Z</time></trkpt><trkpt lat="44.0950215" lon="6.852132"><ele>850.0</ele><time>2026-05-03T11:07:33.114Z</time></trkpt><trkpt lat="44.0951391" lon="6.8520596"><ele>861.0</ele><time>2026-05-03T11:07:34.114Z</time></trkpt><trkpt lat="44.0953137" lon="6.8519565"><ele>872.0</ele><time>2026-05-03T11:07:35.114Z</time></trkpt><trkpt lat="44.0954546" lon="6.8518592"><ele>864.6666666666667</ele><time>2026-05-03T11:07:36.113Z</time></trkpt><trkpt lat="44.0956075" lon="6.8517369"><ele>857.3333333333333</ele><time>2026-05-03T11:07:37.114Z</time></trkpt><trkpt lat="44.0957541" lon="6.8516377"><ele>850.0</ele><time>2026-05-03T11:07:38.114Z</time></trkpt><trkpt lat="44.0962655" lon="6.8512003"><ele>850.0</ele><time>2026-05-03T11:07:42.114Z</time></trkpt><trkpt lat="44.0963927" lon="6.8510078"><ele>850.0</ele><time>2026-05-03T11:07:43.114Z</time></trkpt><trkpt lat="44.0965008" lon="6.8509092"><ele>850.0</ele><time>2026-05-03T11:07:44.114Z</time></trkpt><trkpt lat="44.09658" lon="6.8507229"><ele>840.3333333333333</ele><time>2026-05-03T11:07:45.114Z</time></trkpt><trkpt lat="44.0966441" lon="6.8505424"><ele>830.6666666666667</ele><time>2026-05-03T11:07:46.114Z</time></trkpt><trkpt lat="44.0967646" lon="6.8503724"><ele>821.0</ele><time>2026-05-03T11:07:47.114Z</time></trkpt><trkpt lat="44.0968713" lon="6.8502196"><ele>814.6666666666667</ele><time>2026-05-03T11:07:48.114Z</time></trkpt><trkpt lat="44.0969978" lon="6.8500787"><ele>808.3333333333333</ele><time>2026-05-03T11:07:49.114Z</time></trkpt><trkpt lat="44.0971302" lon="6.849934"><ele>802.0</ele><time>2026-05-03T11:07:50.114Z</time></trkpt><trkpt lat="44.0972877" lon="6.849847"><ele>808.3333333333333</ele><time>2026-05-03T11:07:51.114Z</time></trkpt><trkpt lat="44.0974447" lon="6.8497538"><ele>814.6666666666667</ele><time>2026-05-03T11:07:52.114Z</time></trkpt><trkpt lat="44.0975973" lon="6.8496674"><ele>821.0</ele><time>2026-05-03T11:07:53.114Z</time></trkpt><trkpt lat="44.0977553" lon="6.8495978"><ele>821.0</ele><time>2026-05-03T11:07:54.113Z</time></trkpt><trkpt lat="44.0979133" lon="6.849512"><ele>821.0</ele><time>2026-05-03T11:07:55.114Z</time></trkpt><trkpt lat="44.0980468" lon="6.8494451"><ele>821.0</ele><time>2026-05-03T11:07:56.114Z</time></trkpt><trkpt lat="44.0981902" lon="6.849374"><ele>819.25</ele><time>2026-05-03T11:07:57.114Z</time></trkpt><trkpt lat="44.0983316" lon="6.8493205"><ele>817.5</ele><time>2026-05-03T11:07:58.114Z</time></trkpt><trkpt lat="44.0984835" lon="6.8493046"><ele>815.75</ele><time>2026-05-03T11:07:59.113Z</time></trkpt><trkpt lat="44.0986309" lon="6.8493056"><ele>814.0</ele><time>2026-05-03T11:08:00.114Z</time></trkpt><trkpt lat="44.0987779" lon="6.8492879"><ele>814.0</ele><time>2026-05-03T11:08:01.114Z</time></trkpt><trkpt lat="44.0989389" lon="6.8492547"><ele>814.0</ele><time>2026-05-03T11:08:02.114Z</time></trkpt><trkpt lat="44.0990847" lon="6.8491932"><ele>814.0</ele><time>2026-05-03T11:08:03.114Z</time></trkpt><trkpt lat="44.0992434" lon="6.8491479"><ele>819.3333333333333</ele><time>2026-05-03T11:08:04.114Z</time></trkpt><trkpt lat="44.0994094" lon="6.8490994"><ele>824.6666666666667</ele><time>2026-05-03T11:08:05.114Z</time></trkpt><trkpt lat="44.0995721" lon="6.8490458"><ele>830.0</ele><time>2026-05-03T11:08:06.114Z</time></trkpt><trkpt lat="44.0997274" lon="6.8489956"><ele>830.0</ele><time>2026-05-03T11:08:07.114Z</time></trkpt><trkpt lat="44.0998768" lon="6.8489758"><ele>830.0</ele><time>2026-05-03T11:08:08.114Z</time></trkpt><trkpt lat="44.100022" lon="6.8489588"><ele>830.0</ele><time>2026-05-03T11:08:09.114Z</time></trkpt><trkpt lat="44.1001595" lon="6.8489369"><ele>830.0</ele><time>2026-05-03T11:08:10.114Z</time></trkpt><trkpt lat="44.1002322" lon="6.8488879"><ele>836.5</ele><time>2026-05-03T11:08:11.114Z</time></trkpt><trkpt lat="44.1003213" lon="6.8488386"><ele>843.0</ele><time>2026-05-03T11:08:12.114Z</time></trkpt><trkpt lat="44.1004238" lon="6.8487402"><ele>849.5</ele><time>2026-05-03T11:08:13.114Z</time></trkpt><trkpt lat="44.1005349" lon="6.848625"><ele>856.0</ele><time>2026-05-03T11:08:14.114Z</time></trkpt><trkpt lat="44.1006473" lon="6.8485447"><ele>856.25</ele><time>2026-05-03T11:08:15.114Z</time></trkpt><trkpt lat="44.100755" lon="6.8485113"><ele>856.5</ele><time>2026-05-03T11:08:16.113Z</time></trkpt><trkpt lat="44.1008743" lon="6.8485011"><ele>856.75</ele><time>2026-05-03T11:08:17.114Z</time></trkpt><trkpt lat="44.1009932" lon="6.8485811"><ele>857.0</ele><time>2026-05-03T11:08:18.114Z</time></trkpt><trkpt lat="44.1011253" lon="6.8486905"><ele>857.0</ele><time>2026-05-03T11:08:19.114Z</time></trkpt><trkpt lat="44.1012518" lon="6.8487851"><ele>857.0</ele><time>2026-05-03T11:08:20.113Z</time></trkpt><trkpt lat="44.1013896" lon="6.8488803"><ele>857.0</ele><time>2026-05-03T11:08:21.114Z</time></trkpt><trkpt lat="44.1015409" lon="6.8489392"><ele>852.6666666666667</ele><time>2026-05-03T11:08:22.113Z</time></trkpt><trkpt lat="44.1016851" lon="6.8490118"><ele>848.3333333333333</ele><time>2026-05-03T11:08:23.114Z</time></trkpt><trkpt lat="44.1018423" lon="6.849093"><ele>844.0</ele><time>2026-05-03T11:08:24.114Z</time></trkpt><trkpt lat="44.1020025" lon="6.8491668"><ele>844.0</ele><time>2026-05-03T11:08:25.114Z</time></trkpt><trkpt lat="44.1021792" lon="6.8492191"><ele>844.0</ele><time>2026-05-03T11:08:26.114Z</time></trkpt><trkpt lat="44.1023494" lon="6.8492906"><ele>844.0</ele><time>2026-05-03T11:08:27.114Z</time></trkpt><trkpt lat="44.1025505" lon="6.8492939"><ele>853.0</ele><time>2026-05-03T11:08:28.114Z</time></trkpt><trkpt lat="44.1027284" lon="6.8493258"><ele>862.0</ele><time>2026-05-03T11:08:29.114Z</time></trkpt><trkpt lat="44.1028889" lon="6.8493514"><ele>871.0</ele><time>2026-05-03T11:08:30.114Z</time></trkpt><trkpt lat="44.1030481" lon="6.8493639"><ele>871.0</ele><time>2026-05-03T11:08:31.114Z</time></trkpt><trkpt lat="44.1031868" lon="6.8493932"><ele>871.0</ele><time>2026-05-03T11:08:32.113Z</time></trkpt><trkpt lat="44.1033311" lon="6.8494074"><ele>871.0</ele><time>2026-05-03T11:08:33.114Z</time></trkpt><trkpt lat="44.1034609" lon="6.8494209"><ele>871.0</ele><time>2026-05-03T11:08:34.114Z</time></trkpt><trkpt lat="44.1035765" lon="6.8494324"><ele>868.9999999999999</ele><time>2026-05-03T11:08:35.114Z</time></trkpt><trkpt lat="44.1036828" lon="6.8494505"><ele>867.0</ele><time>2026-05-03T11:08:36.114Z</time></trkpt><trkpt lat="44.103767" lon="6.8494678"><ele>865.0</ele><time>2026-05-03T11:08:37.114Z</time></trkpt><trkpt lat="44.1038568" lon="6.8494749"><ele>863.0</ele><time>2026-05-03T11:08:38.114Z</time></trkpt><trkpt lat="44.1039193" lon="6.8494207"><ele>860.9999999999999</ele><time>2026-05-03T11:08:39.113Z</time></trkpt><trkpt lat="44.1039663" lon="6.8493535"><ele>859.0</ele><time>2026-05-03T11:08:40.114Z</time></trkpt><trkpt lat="44.1040155" lon="6.849274"><ele>858.8000000000001</ele><time>2026-05-03T11:08:41.114Z</time></trkpt><trkpt lat="44.1040441" lon="6.8491454"><ele>858.6000000000001</ele><time>2026-05-03T11:08:42.114Z</time></trkpt><trkpt lat="44.1040676" lon="6.8489912"><ele>858.4</ele><time>2026-05-03T11:08:43.114Z</time></trkpt><trkpt lat="44.1041107" lon="6.8488514"><ele>858.2</ele><time>2026-05-03T11:08:44.114Z</time></trkpt><trkpt lat="44.1041605" lon="6.8487054"><ele>858.0</ele><time>2026-05-03T11:08:45.114Z</time></trkpt><trkpt lat="44.1042163" lon="6.8485646"><ele>855.5</ele><time>2026-05-03T11:08:46.114Z</time></trkpt><trkpt lat="44.1042821" lon="6.8484515"><ele>853.0</ele><time>2026-05-03T11:08:47.114Z</time></trkpt><trkpt lat="44.1043934" lon="6.8483546"><ele>850.5</ele><time>2026-05-03T11:08:48.113Z</time></trkpt><trkpt lat="44.1044941" lon="6.8482331"><ele>848.0</ele><time>2026-05-03T11:08:49.114Z</time></trkpt><trkpt lat="44.1045742" lon="6.8480969"><ele>848.0</ele><time>2026-05-03T11:08:50.114Z</time></trkpt><trkpt lat="44.1046579" lon="6.8479685"><ele>848.0</ele><time>2026-05-03T11:08:51.113Z</time></trkpt><trkpt lat="44.1047495" lon="6.8478254"><ele>848.0</ele><time>2026-05-03T11:08:52.114Z</time></trkpt><trkpt lat="44.104865" lon="6.8477112"><ele>848.0</ele><time>2026-05-03T11:08:53.113Z</time></trkpt><trkpt lat="44.1049813" lon="6.8475796"><ele>850.5</ele><time>2026-05-03T11:08:54.114Z</time></trkpt><trkpt lat="44.1050673" lon="6.8474358"><ele>853.0</ele><time>2026-05-03T11:08:55.114Z</time></trkpt><trkpt lat="44.1051568" lon="6.8472839"><ele>855.5</ele><time>2026-05-03T11:08:56.114Z</time></trkpt><trkpt lat="44.1052455" lon="6.8471633"><ele>858.0</ele><time>2026-05-03T11:08:57.113Z</time></trkpt><trkpt lat="44.1053308" lon="6.8470288"><ele>858.0</ele><time>2026-05-03T11:08:58.114Z</time></trkpt><trkpt lat="44.1054259" lon="6.8469066"><ele>858.0</ele><time>2026-05-03T11:08:59.114Z</time></trkpt><trkpt lat="44.1055112" lon="6.8467832"><ele>858.0</ele><time>2026-05-03T11:09:00.114Z</time></trkpt><trkpt lat="44.1056074" lon="6.846657"><ele>858.0</ele><time>2026-05-03T11:09:01.114Z</time></trkpt><trkpt lat="44.1056892" lon="6.8465291"><ele>859.5</ele><time>2026-05-03T11:09:02.114Z</time></trkpt><trkpt lat="44.1057792" lon="6.8464028"><ele>861.0</ele><time>2026-05-03T11:09:03.114Z</time></trkpt><trkpt lat="44.1058869" lon="6.8462849"><ele>862.5</ele><time>2026-05-03T11:09:04.114Z</time></trkpt><trkpt lat="44.1059795" lon="6.8461811"><ele>864.0</ele><time>2026-05-03T11:09:05.114Z</time></trkpt><trkpt lat="44.1060855" lon="6.8460367"><ele>861.3333333333333</ele><time>2026-05-03T11:09:06.114Z</time></trkpt><trkpt lat="44.1061701" lon="6.8458621"><ele>858.6666666666666</ele><time>2026-05-03T11:09:07.114Z</time></trkpt><trkpt lat="44.106228" lon="6.8456576"><ele>856.0</ele><time>2026-05-03T11:09:08.114Z</time></trkpt><trkpt lat="44.1062973" lon="6.8454732"><ele>856.0</ele><time>2026-05-03T11:09:09.113Z</time></trkpt><trkpt lat="44.1063692" lon="6.845296"><ele>856.0</ele><time>2026-05-03T11:09:10.114Z</time></trkpt><trkpt lat="44.1064166" lon="6.845099"><ele>856.0</ele><time>2026-05-03T11:09:11.114Z</time></trkpt><trkpt lat="44.1064584" lon="6.8449146"><ele>856.0</ele><time>2026-05-03T11:09:12.114Z</time></trkpt><trkpt lat="44.106487" lon="6.844743"><ele>856.8</ele><time>2026-05-03T11:09:13.114Z</time></trkpt><trkpt lat="44.1065118" lon="6.8445938"><ele>857.5999999999999</ele><time>2026-05-03T11:09:14.114Z</time></trkpt><trkpt lat="44.1065415" lon="6.8444734"><ele>858.4</ele><time>2026-05-03T11:09:15.114Z</time></trkpt><trkpt lat="44.1066117" lon="6.8443789"><ele>859.2</ele><time>2026-05-03T11:09:16.114Z</time></trkpt><trkpt lat="44.1066841" lon="6.8443195"><ele>860.0</ele><time>2026-05-03T11:09:17.114Z</time></trkpt><trkpt lat="44.1067417" lon="6.8442306"><ele>860.0</ele><time>2026-05-03T11:09:18.114Z</time></trkpt><trkpt lat="44.1068083" lon="6.8441245"><ele>860.0</ele><time>2026-05-03T11:09:19.114Z</time></trkpt><trkpt lat="44.106839" lon="6.8440031"><ele>860.0</ele><time>2026-05-03T11:09:20.113Z</time></trkpt><trkpt lat="44.1067521" lon="6.8438249"><ele>860.0</ele><time>2026-05-03T11:09:21.113Z</time></trkpt><trkpt lat="44.106722" lon="6.843692"><ele>860.0</ele><time>2026-05-03T11:09:22.114Z</time></trkpt><trkpt lat="44.1067175" lon="6.8435559"><ele>859.0</ele><time>2026-05-03T11:09:23.114Z</time></trkpt><trkpt lat="44.1067284" lon="6.8434148"><ele>858.0</ele><time>2026-05-03T11:09:24.114Z</time></trkpt><trkpt lat="44.1067583" lon="6.8432759"><ele>857.0</ele><time>2026-05-03T11:09:25.113Z</time></trkpt><trkpt lat="44.1068184" lon="6.8430879"><ele>856.0</ele><time>2026-05-03T11:09:26.114Z</time></trkpt><trkpt lat="44.1068867" lon="6.8429082"><ele>856.0</ele><time>2026-05-03T11:09:27.114Z</time></trkpt><trkpt lat="44.1069487" lon="6.842729"><ele>856.0</ele><time>2026-05-03T11:09:28.114Z</time></trkpt><trkpt lat="44.1070138" lon="6.8425515"><ele>856.0</ele><time>2026-05-03T11:09:29.113Z</time></trkpt><trkpt lat="44.1070668" lon="6.8424003"><ele>856.0</ele><time>2026-05-03T11:09:30.114Z</time></trkpt><trkpt lat="44.107128" lon="6.842244"><ele>854.25</ele><time>2026-05-03T11:09:31.113Z</time></trkpt><trkpt lat="44.1071781" lon="6.8420831"><ele>852.5</ele><time>2026-05-03T11:09:32.114Z</time></trkpt><trkpt lat="44.1072066" lon="6.841929"><ele>850.75</ele><time>2026-05-03T11:09:33.114Z</time></trkpt><trkpt lat="44.1072179" lon="6.8417575"><ele>849.0</ele><time>2026-05-03T11:09:34.114Z</time></trkpt><trkpt lat="44.1072226" lon="6.8415959"><ele>847.75</ele><time>2026-05-03T11:09:35.114Z</time></trkpt><trkpt lat="44.1072413" lon="6.8414359"><ele>846.5</ele><time>2026-05-03T11:09:36.114Z</time></trkpt><trkpt lat="44.1072875" lon="6.8412897"><ele>845.25</ele><time>2026-05-03T11:09:37.114Z</time></trkpt><trkpt lat="44.1073482" lon="6.8411505"><ele>844.0</ele><time>2026-05-03T11:09:38.114Z</time></trkpt><trkpt lat="44.1074271" lon="6.8410053"><ele>850.75</ele><time>2026-05-03T11:09:39.114Z</time></trkpt><trkpt lat="44.1074943" lon="6.8408579"><ele>857.5</ele><time>2026-05-03T11:09:40.114Z</time></trkpt><trkpt lat="44.1075554" lon="6.8407053"><ele>864.25</ele><time>2026-05-03T11:09:41.114Z</time></trkpt><trkpt lat="44.1076018" lon="6.8405451"><ele>871.0</ele><time>2026-05-03T11:09:42.114Z</time></trkpt><trkpt lat="44.1076681" lon="6.8403838"><ele>871.0</ele><time>2026-05-03T11:09:43.114Z</time></trkpt><trkpt lat="44.1077298" lon="6.840261"><ele>870.9999999999999</ele><time>2026-05-03T11:09:44.113Z</time></trkpt><trkpt lat="44.1077709" lon="6.8401224"><ele>870.9999999999999</ele><time>2026-05-03T11:09:45.113Z</time></trkpt><trkpt lat="44.1078208" lon="6.8399899"><ele>871.0</ele><time>2026-05-03T11:09:46.114Z</time></trkpt><trkpt lat="44.1078567" lon="6.8398616"><ele>871.0</ele><time>2026-05-03T11:09:47.113Z</time></trkpt><trkpt lat="44.1078648" lon="6.8397262"><ele>869.0</ele><time>2026-05-03T11:09:48.114Z</time></trkpt><trkpt lat="44.1078598" lon="6.8396032"><ele>866.9999999999999</ele><time>2026-05-03T11:09:49.113Z</time></trkpt><trkpt lat="44.1078754" lon="6.8394746"><ele>864.9999999999999</ele><time>2026-05-03T11:09:50.114Z</time></trkpt><trkpt lat="44.1079147" lon="6.8393352"><ele>863.0</ele><time>2026-05-03T11:09:51.114Z</time></trkpt><trkpt lat="44.1079741" lon="6.8391982"><ele>861.0</ele><time>2026-05-03T11:09:52.114Z</time></trkpt><trkpt lat="44.1080284" lon="6.8390577"><ele>860.1999999999999</ele><time>2026-05-03T11:09:53.114Z</time></trkpt><trkpt lat="44.1080754" lon="6.8389041"><ele>859.3999999999999</ele><time>2026-05-03T11:09:54.114Z</time></trkpt><trkpt lat="44.1081104" lon="6.8387507"><ele>858.6</ele><time>2026-05-03T11:09:55.114Z</time></trkpt><trkpt lat="44.1081537" lon="6.838611"><ele>857.8</ele><time>2026-05-03T11:09:56.114Z</time></trkpt><trkpt lat="44.1082048" lon="6.8384955"><ele>857.0</ele><time>2026-05-03T11:09:57.114Z</time></trkpt><trkpt lat="44.1082841" lon="6.8384013"><ele>859.0</ele><time>2026-05-03T11:09:58.114Z</time></trkpt><trkpt lat="44.1083914" lon="6.8382987"><ele>861.0</ele><time>2026-05-03T11:09:59.114Z</time></trkpt><trkpt lat="44.1085013" lon="6.8381974"><ele>863.0</ele><time>2026-05-03T11:10:00.114Z</time></trkpt><trkpt lat="44.1086037" lon="6.8380854"><ele>865.0</ele><time>2026-05-03T11:10:01.113Z</time></trkpt><trkpt lat="44.1087044" lon="6.8380236"><ele>865.0</ele><time>2026-05-03T11:10:02.114Z</time></trkpt><trkpt lat="44.1088093" lon="6.837952"><ele>865.0</ele><time>2026-05-03T11:10:03.114Z</time></trkpt><trkpt lat="44.108953" lon="6.8379004"><ele>865.0</ele><time>2026-05-03T11:10:04.114Z</time></trkpt><trkpt lat="44.1090883" lon="6.8378612"><ele>865.0</ele><time>2026-05-03T11:10:05.114Z</time></trkpt><trkpt lat="44.1092328" lon="6.8378152"><ele>863.3333333333333</ele><time>2026-05-03T11:10:06.114Z</time></trkpt><trkpt lat="44.1093668" lon="6.8377691"><ele>861.6666666666667</ele><time>2026-05-03T11:10:07.114Z</time></trkpt><trkpt lat="44.1095253" lon="6.837676"><ele>860.0</ele><time>2026-05-03T11:10:08.114Z</time></trkpt><trkpt lat="44.1096863" lon="6.8375739"><ele>860.0</ele><time>2026-05-03T11:10:09.114Z</time></trkpt><trkpt lat="44.109838" lon="6.8374792"><ele>860.0</ele><time>2026-05-03T11:10:10.113Z</time></trkpt><trkpt lat="44.1099831" lon="6.8373737"><ele>860.0</ele><time>2026-05-03T11:10:11.114Z</time></trkpt><trkpt lat="44.110125" lon="6.8372779"><ele>866.0</ele><time>2026-05-03T11:10:12.114Z</time></trkpt><trkpt lat="44.110273" lon="6.8371896"><ele>872.0</ele><time>2026-05-03T11:10:13.114Z</time></trkpt><trkpt lat="44.1104307" lon="6.8371069"><ele>878.0</ele><time>2026-05-03T11:10:14.114Z</time></trkpt><trkpt lat="44.1105833" lon="6.837084"><ele>878.0</ele><time>2026-05-03T11:10:15.114Z</time></trkpt><trkpt lat="44.110734" lon="6.837045"><ele>878.0</ele><time>2026-05-03T11:10:16.114Z</time></trkpt><trkpt lat="44.1108847" lon="6.8370209"><ele>878.0</ele><time>2026-05-03T11:10:17.113Z</time></trkpt><trkpt lat="44.1110376" lon="6.8369952"><ele>882.3333333333334</ele><time>2026-05-03T11:10:18.113Z</time></trkpt><trkpt lat="44.1112106" lon="6.8369992"><ele>886.6666666666667</ele><time>2026-05-03T11:10:19.114Z</time></trkpt><trkpt lat="44.1113852" lon="6.8369999"><ele>891.0</ele><time>2026-05-03T11:10:20.114Z</time></trkpt><trkpt lat="44.1115365" lon="6.8369746"><ele>893.75</ele><time>2026-05-03T11:10:21.114Z</time></trkpt><trkpt lat="44.1116822" lon="6.8369436"><ele>896.5</ele><time>2026-05-03T11:10:22.114Z</time></trkpt><trkpt lat="44.1118176" lon="6.8369376"><ele>899.25</ele><time>2026-05-03T11:10:23.114Z</time></trkpt><trkpt lat="44.1119386" lon="6.8369184"><ele>902.0</ele><time>2026-05-03T11:10:24.114Z</time></trkpt><trkpt lat="44.112028" lon="6.8368842"><ele>902.0</ele><time>2026-05-03T11:10:25.114Z</time></trkpt><trkpt lat="44.1121184" lon="6.8368405"><ele>902.0</ele><time>2026-05-03T11:10:26.114Z</time></trkpt><trkpt lat="44.1121696" lon="6.8367115"><ele>902.0</ele><time>2026-05-03T11:10:27.113Z</time></trkpt><trkpt lat="44.1122311" lon="6.8365922"><ele>902.0</ele><time>2026-05-03T11:10:28.114Z</time></trkpt><trkpt lat="44.1122395" lon="6.8363977"><ele>902.0</ele><time>2026-05-03T11:10:29.114Z</time></trkpt><trkpt lat="44.1122509" lon="6.8362084"><ele>894.8</ele><time>2026-05-03T11:10:30.114Z</time></trkpt><trkpt lat="44.112256" lon="6.8360298"><ele>887.6</ele><time>2026-05-03T11:10:31.114Z</time></trkpt><trkpt lat="44.112271" lon="6.8358749"><ele>880.3999999999999</ele><time>2026-05-03T11:10:32.114Z</time></trkpt><trkpt lat="44.1122681" lon="6.8357387"><ele>873.1999999999999</ele><time>2026-05-03T11:10:33.114Z</time></trkpt><trkpt lat="44.1122472" lon="6.8356089"><ele>866.0</ele><time>2026-05-03T11:10:34.114Z</time></trkpt><trkpt lat="44.1122147" lon="6.8354652"><ele>864.0</ele><time>2026-05-03T11:10:35.114Z</time></trkpt><trkpt lat="44.1121534" lon="6.8353098"><ele>862.0</ele><time>2026-05-03T11:10:36.114Z</time></trkpt><trkpt lat="44.1119984" lon="6.8351647"><ele>860.0</ele><time>2026-05-03T11:10:37.114Z</time></trkpt><trkpt lat="44.1118642" lon="6.8350046"><ele>862.0</ele><time>2026-05-03T11:10:38.114Z</time></trkpt><trkpt lat="44.1117309" lon="6.83486"><ele>864.0</ele><time>2026-05-03T11:10:39.114Z</time></trkpt><trkpt lat="44.1116017" lon="6.8347253"><ele>866.0</ele><time>2026-05-03T11:10:40.114Z</time></trkpt><trkpt lat="44.1114808" lon="6.8345743"><ele>866.0</ele><time>2026-05-03T11:10:41.114Z</time></trkpt><trkpt lat="44.1113695" lon="6.8344212"><ele>866.0</ele><time>2026-05-03T11:10:42.114Z</time></trkpt><trkpt lat="44.1112425" lon="6.8343353"><ele>866.0</ele><time>2026-05-03T11:10:43.114Z</time></trkpt><trkpt lat="44.1111153" lon="6.8342238"><ele>866.0</ele><time>2026-05-03T11:10:44.114Z</time></trkpt><trkpt lat="44.1109757" lon="6.8341204"><ele>869.0</ele><time>2026-05-03T11:10:45.114Z</time></trkpt><trkpt lat="44.1108499" lon="6.8340431"><ele>872.0</ele><time>2026-05-03T11:10:46.114Z</time></trkpt><trkpt lat="44.1107166" lon="6.8340172"><ele>875.0</ele><time>2026-05-03T11:10:47.114Z</time></trkpt><trkpt lat="44.110553" lon="6.8340154"><ele>878.0</ele><time>2026-05-03T11:10:48.114Z</time></trkpt><trkpt lat="44.1104184" lon="6.8339985"><ele>878.0</ele><time>2026-05-03T11:10:49.113Z</time></trkpt><trkpt lat="44.1102594" lon="6.8339999"><ele>878.0</ele><time>2026-05-03T11:10:50.114Z</time></trkpt><trkpt lat="44.1101282" lon="6.8339753"><ele>878.0</ele><time>2026-05-03T11:10:51.113Z</time></trkpt><trkpt lat="44.109993" lon="6.8339391"><ele>878.0</ele><time>2026-05-03T11:10:52.114Z</time></trkpt><trkpt lat="44.1098661" lon="6.833883"><ele>876.25</ele><time>2026-05-03T11:10:53.114Z</time></trkpt><trkpt lat="44.1097436" lon="6.8338195"><ele>874.5</ele><time>2026-05-03T11:10:54.114Z</time></trkpt><trkpt lat="44.1096285" lon="6.8337706"><ele>872.75</ele><time>2026-05-03T11:10:55.114Z</time></trkpt><trkpt lat="44.1095238" lon="6.8336976"><ele>871.0</ele><time>2026-05-03T11:10:56.114Z</time></trkpt><trkpt lat="44.1094289" lon="6.833609"><ele>871.0</ele><time>2026-05-03T11:10:57.113Z</time></trkpt><trkpt lat="44.1093426" lon="6.8334983"><ele>871.0</ele><time>2026-05-03T11:10:58.114Z</time></trkpt><trkpt lat="44.1092469" lon="6.833388"><ele>871.0</ele><time>2026-05-03T11:10:59.114Z</time></trkpt><trkpt lat="44.1091784" lon="6.8332314"><ele>871.0</ele><time>2026-05-03T11:11:00.114Z</time></trkpt><trkpt lat="44.1091183" lon="6.8330738"><ele>869.25</ele><time>2026-05-03T11:11:01.114Z</time></trkpt><trkpt lat="44.1090702" lon="6.8329105"><ele>867.5</ele><time>2026-05-03T11:11:02.114Z</time></trkpt><trkpt lat="44.1090315" lon="6.8327364"><ele>865.75</ele><time>2026-05-03T11:11:03.114Z</time></trkpt><trkpt lat="44.1090026" lon="6.8325527"><ele>864.0</ele><time>2026-05-03T11:11:04.114Z</time></trkpt><trkpt lat="44.1089698" lon="6.8323684"><ele>864.0</ele><time>2026-05-03T11:11:05.114Z</time></trkpt><trkpt lat="44.1089445" lon="6.8321846"><ele>864.0</ele><time>2026-05-03T11:11:06.114Z</time></trkpt><trkpt lat="44.1089242" lon="6.8320001"><ele>864.0</ele><time>2026-05-03T11:11:07.114Z</time></trkpt><trkpt lat="44.1088958" lon="6.8318068"><ele>864.0</ele><time>2026-05-03T11:11:08.114Z</time></trkpt><trkpt lat="44.1088748" lon="6.8316156"><ele>862.5</ele><time>2026-05-03T11:11:09.114Z</time></trkpt><trkpt lat="44.1088537" lon="6.8314104"><ele>861.0</ele><time>2026-05-03T11:11:10.113Z</time></trkpt><trkpt lat="44.1088536" lon="6.8312102"><ele>859.5</ele><time>2026-05-03T11:11:11.114Z</time></trkpt><trkpt lat="44.1088669" lon="6.8310066"><ele>858.0</ele><time>2026-05-03T11:11:12.113Z</time></trkpt><trkpt lat="44.1088895" lon="6.830784"><ele>858.0</ele><time>2026-05-03T11:11:13.114Z</time></trkpt><trkpt lat="44.1089074" lon="6.8305737"><ele>858.0</ele><time>2026-05-03T11:11:14.114Z</time></trkpt><trkpt lat="44.1089281" lon="6.8303726"><ele>858.0</ele><time>2026-05-03T11:11:15.114Z</time></trkpt><trkpt lat="44.1089373" lon="6.8301979"><ele>858.0</ele><time>2026-05-03T11:11:16.114Z</time></trkpt><trkpt lat="44.1089336" lon="6.83002"><ele>858.0</ele><time>2026-05-03T11:11:17.114Z</time></trkpt><trkpt lat="44.108909" lon="6.8298369"><ele>858.0</ele><time>2026-05-03T11:11:18.114Z</time></trkpt><trkpt lat="44.1088711" lon="6.829662"><ele>858.0</ele><time>2026-05-03T11:11:19.114Z</time></trkpt><trkpt lat="44.1088271" lon="6.8294817"><ele>858.0</ele><time>2026-05-03T11:11:20.114Z</time></trkpt><trkpt lat="44.1088062" lon="6.829299"><ele>858.0</ele><time>2026-05-03T11:11:21.114Z</time></trkpt><trkpt lat="44.1088015" lon="6.8291073"><ele>858.0</ele><time>2026-05-03T11:11:22.114Z</time></trkpt><trkpt lat="44.1088081" lon="6.8289093"><ele>858.0</ele><time>2026-05-03T11:11:23.114Z</time></trkpt><trkpt lat="44.1088354" lon="6.8287039"><ele>858.0</ele><time>2026-05-03T11:11:24.113Z</time></trkpt><trkpt lat="44.1088569" lon="6.8284865"><ele>859.0</ele><time>2026-05-03T11:11:25.113Z</time></trkpt><trkpt lat="44.1088646" lon="6.8282642"><ele>860.0</ele><time>2026-05-03T11:11:26.113Z</time></trkpt><trkpt lat="44.108875" lon="6.8280555"><ele>861.0</ele><time>2026-05-03T11:11:27.114Z</time></trkpt><trkpt lat="44.108913" lon="6.8278682"><ele>861.0</ele><time>2026-05-03T11:11:28.114Z</time></trkpt><trkpt lat="44.1089413" lon="6.8276696"><ele>861.0</ele><time>2026-05-03T11:11:29.114Z</time></trkpt><trkpt lat="44.108977" lon="6.8274654"><ele>861.0</ele><time>2026-05-03T11:11:30.114Z</time></trkpt><trkpt lat="44.1090538" lon="6.8272736"><ele>868.5</ele><time>2026-05-03T11:11:31.114Z</time></trkpt><trkpt lat="44.1091178" lon="6.8270933"><ele>876.0</ele><time>2026-05-03T11:11:32.114Z</time></trkpt><trkpt lat="44.1091824" lon="6.8269301"><ele>883.5</ele><time>2026-05-03T11:11:33.114Z</time></trkpt><trkpt lat="44.1092323" lon="6.8267771"><ele>891.0</ele><time>2026-05-03T11:11:34.114Z</time></trkpt><trkpt lat="44.1092752" lon="6.8266068"><ele>891.0</ele><time>2026-05-03T11:11:35.114Z</time></trkpt><trkpt lat="44.1092842" lon="6.8264322"><ele>891.0</ele><time>2026-05-03T11:11:36.114Z</time></trkpt><trkpt lat="44.1092361" lon="6.8262641"><ele>891.0</ele><time>2026-05-03T11:11:37.114Z</time></trkpt><trkpt lat="44.1091995" lon="6.8260884"><ele>891.0</ele><time>2026-05-03T11:11:38.114Z</time></trkpt><trkpt lat="44.1091733" lon="6.8258585"><ele>893.0</ele><time>2026-05-03T11:11:39.114Z</time></trkpt><trkpt lat="44.1091592" lon="6.8256346"><ele>895.0</ele><time>2026-05-03T11:11:40.113Z</time></trkpt><trkpt lat="44.1091572" lon="6.8253871"><ele>897.0</ele><time>2026-05-03T11:11:41.114Z</time></trkpt><trkpt lat="44.109161" lon="6.8251423"><ele>899.6666666666667</ele><time>2026-05-03T11:11:42.114Z</time></trkpt><trkpt lat="44.1091568" lon="6.8248844"><ele>902.3333333333334</ele><time>2026-05-03T11:11:43.114Z</time></trkpt><trkpt lat="44.1091524" lon="6.8246492"><ele>905.0</ele><time>2026-05-03T11:11:44.114Z</time></trkpt><trkpt lat="44.1091797" lon="6.8244287"><ele>900.6666666666667</ele><time>2026-05-03T11:11:45.114Z</time></trkpt><trkpt lat="44.109209" lon="6.8242144"><ele>896.3333333333333</ele><time>2026-05-03T11:11:46.113Z</time></trkpt><trkpt lat="44.1092388" lon="6.8240012"><ele>892.0</ele><time>2026-05-03T11:11:47.114Z</time></trkpt><trkpt lat="44.1092816" lon="6.8238088"><ele>892.0</ele><time>2026-05-03T11:11:48.114Z</time></trkpt><trkpt lat="44.109322" lon="6.8236181"><ele>892.0</ele><time>2026-05-03T11:11:49.113Z</time></trkpt><trkpt lat="44.1093832" lon="6.8234504"><ele>892.0</ele><time>2026-05-03T11:11:50.113Z</time></trkpt><trkpt lat="44.1094623" lon="6.8233158"><ele>892.0</ele><time>2026-05-03T11:11:51.114Z</time></trkpt><trkpt lat="44.1095341" lon="6.8231818"><ele>887.0</ele><time>2026-05-03T11:11:52.113Z</time></trkpt><trkpt lat="44.1096652" lon="6.8230361"><ele>882.0</ele><time>2026-05-03T11:11:53.113Z</time></trkpt><trkpt lat="44.1097709" lon="6.82293"><ele>877.0</ele><time>2026-05-03T11:11:54.114Z</time></trkpt><trkpt lat="44.1098779" lon="6.8228269"><ele>872.0</ele><time>2026-05-03T11:11:55.113Z</time></trkpt><trkpt lat="44.1099873" lon="6.8227343"><ele>874.0</ele><time>2026-05-03T11:11:56.114Z</time></trkpt><trkpt lat="44.1100931" lon="6.8226611"><ele>876.0</ele><time>2026-05-03T11:11:57.114Z</time></trkpt><trkpt lat="44.1101419" lon="6.822591"><ele>878.0</ele><time>2026-05-03T11:11:58.114Z</time></trkpt><trkpt lat="44.1102044" lon="6.8224584"><ele>880.0</ele><time>2026-05-03T11:11:59.114Z</time></trkpt><trkpt lat="44.1102669" lon="6.8222953"><ele>882.0</ele><time>2026-05-03T11:12:00.113Z</time></trkpt><trkpt lat="44.1103596" lon="6.8221254"><ele>882.0</ele><time>2026-05-03T11:12:01.114Z</time></trkpt><trkpt lat="44.1104291" lon="6.8219575"><ele>882.0</ele><time>2026-05-03T11:12:02.114Z</time></trkpt><trkpt lat="44.110479" lon="6.8217808"><ele>882.0</ele><time>2026-05-03T11:12:03.114Z</time></trkpt><trkpt lat="44.1105234" lon="6.8216039"><ele>882.0</ele><time>2026-05-03T11:12:04.113Z</time></trkpt><trkpt lat="44.1105826" lon="6.8214252"><ele>881.0</ele><time>2026-05-03T11:12:05.114Z</time></trkpt><trkpt lat="44.1106612" lon="6.8212687"><ele>880.0</ele><time>2026-05-03T11:12:06.114Z</time></trkpt><trkpt lat="44.1107343" lon="6.821114"><ele>879.0</ele><time>2026-05-03T11:12:07.114Z</time></trkpt><trkpt lat="44.1108373" lon="6.8209553"><ele>878.0</ele><time>2026-05-03T11:12:08.114Z</time></trkpt><trkpt lat="44.1109344" lon="6.8207984"><ele>878.0</ele><time>2026-05-03T11:12:09.114Z</time></trkpt><trkpt lat="44.1110511" lon="6.820694"><ele>878.0</ele><time>2026-05-03T11:12:10.114Z</time></trkpt><trkpt lat="44.1111656" lon="6.820611"><ele>878.0</ele><time>2026-05-03T11:12:11.114Z</time></trkpt><trkpt lat="44.1113152" lon="6.8205413"><ele>878.0</ele><time>2026-05-03T11:12:12.113Z</time></trkpt><trkpt lat="44.1114621" lon="6.8204909"><ele>882.25</ele><time>2026-05-03T11:12:13.114Z</time></trkpt><trkpt lat="44.1115777" lon="6.8204663"><ele>886.5</ele><time>2026-05-03T11:12:14.114Z</time></trkpt><trkpt lat="44.111705" lon="6.8204147"><ele>890.75</ele><time>2026-05-03T11:12:15.114Z</time></trkpt><trkpt lat="44.1118255" lon="6.8203624"><ele>895.0</ele><time>2026-05-03T11:12:16.113Z</time></trkpt><trkpt lat="44.1119082" lon="6.820278"><ele>895.0</ele><time>2026-05-03T11:12:17.113Z</time></trkpt><trkpt lat="44.1119778" lon="6.8201709"><ele>895.0</ele><time>2026-05-03T11:12:18.114Z</time></trkpt><trkpt lat="44.1120332" lon="6.8200508"><ele>895.0</ele><time>2026-05-03T11:12:19.114Z</time></trkpt><trkpt lat="44.1120426" lon="6.8198891"><ele>895.0</ele><time>2026-05-03T11:12:20.114Z</time></trkpt><trkpt lat="44.1120693" lon="6.8197603"><ele>895.0</ele><time>2026-05-03T11:12:21.114Z</time></trkpt><trkpt lat="44.1119853" lon="6.8196064"><ele>890.6</ele><time>2026-05-03T11:12:22.114Z</time></trkpt><trkpt lat="44.1119371" lon="6.819469"><ele>886.2</ele><time>2026-05-03T11:12:23.114Z</time></trkpt><trkpt lat="44.1118951" lon="6.8193222"><ele>881.8</ele><time>2026-05-03T11:12:24.114Z</time></trkpt><trkpt lat="44.1118588" lon="6.8191815"><ele>877.4</ele><time>2026-05-03T11:12:25.114Z</time></trkpt><trkpt lat="44.1118645" lon="6.8190225"><ele>873.0</ele><time>2026-05-03T11:12:26.113Z</time></trkpt><trkpt lat="44.1119172" lon="6.8189031"><ele>871.0</ele><time>2026-05-03T11:12:27.114Z</time></trkpt><trkpt lat="44.1119973" lon="6.8187599"><ele>869.0</ele><time>2026-05-03T11:12:28.114Z</time></trkpt><trkpt lat="44.1121754" lon="6.8185843"><ele>867.0</ele><time>2026-05-03T11:12:29.114Z</time></trkpt><trkpt lat="44.1123653" lon="6.8184153"><ele>871.6666666666667</ele><time>2026-05-03T11:12:30.114Z</time></trkpt><trkpt lat="44.1125173" lon="6.8182525"><ele>876.3333333333334</ele><time>2026-05-03T11:12:31.114Z</time></trkpt><trkpt lat="44.1126644" lon="6.8180793"><ele>881.0</ele><time>2026-05-03T11:12:32.114Z</time></trkpt><trkpt lat="44.1128113" lon="6.817866"><ele>881.0</ele><time>2026-05-03T11:12:33.114Z</time></trkpt><trkpt lat="44.1129669" lon="6.8176705"><ele>881.0</ele><time>2026-05-03T11:12:34.114Z</time></trkpt><trkpt lat="44.1130954" lon="6.8174503"><ele>881.0</ele><time>2026-05-03T11:12:35.114Z</time></trkpt><trkpt lat="44.1132262" lon="6.8172652"><ele>882.3333333333334</ele><time>2026-05-03T11:12:36.114Z</time></trkpt><trkpt lat="44.1133461" lon="6.8170803"><ele>883.6666666666667</ele><time>2026-05-03T11:12:37.113Z</time></trkpt><trkpt lat="44.1134595" lon="6.8168839"><ele>885.0</ele><time>2026-05-03T11:12:38.114Z</time></trkpt><trkpt lat="44.1135624" lon="6.8166788"><ele>881.0</ele><time>2026-05-03T11:12:39.114Z</time></trkpt><trkpt lat="44.1136358" lon="6.8164371"><ele>877.0</ele><time>2026-05-03T11:12:40.114Z</time></trkpt><trkpt lat="44.1137059" lon="6.8162056"><ele>873.0</ele><time>2026-05-03T11:12:41.114Z</time></trkpt><trkpt lat="44.1137658" lon="6.8159562"><ele>871.3333333333333</ele><time>2026-05-03T11:12:42.114Z</time></trkpt><trkpt lat="44.1138358" lon="6.8157112"><ele>869.6666666666666</ele><time>2026-05-03T11:12:43.114Z</time></trkpt><trkpt lat="44.1138937" lon="6.8154551"><ele>868.0</ele><time>2026-05-03T11:12:44.114Z</time></trkpt><trkpt lat="44.1139542" lon="6.815202"><ele>868.0</ele><time>2026-05-03T11:12:45.114Z</time></trkpt><trkpt lat="44.1140191" lon="6.8149534"><ele>868.0</ele><time>2026-05-03T11:12:46.114Z</time></trkpt><trkpt lat="44.1140849" lon="6.8146982"><ele>868.0</ele><time>2026-05-03T11:12:47.113Z</time></trkpt><trkpt lat="44.114165" lon="6.8144478"><ele>871.0</ele><time>2026-05-03T11:12:48.114Z</time></trkpt><trkpt lat="44.1142534" lon="6.8141918"><ele>874.0</ele><time>2026-05-03T11:12:49.114Z</time></trkpt><trkpt lat="44.1143312" lon="6.8139385"><ele>877.0</ele><time>2026-05-03T11:12:50.113Z</time></trkpt><trkpt lat="44.1144019" lon="6.8136833"><ele>876.3333333333333</ele><time>2026-05-03T11:12:51.114Z</time></trkpt><trkpt lat="44.1144681" lon="6.8134331"><ele>875.6666666666667</ele><time>2026-05-03T11:12:52.113Z</time></trkpt><trkpt lat="44.1145336" lon="6.813181"><ele>875.0</ele><time>2026-05-03T11:12:53.114Z</time></trkpt><trkpt lat="44.1145969" lon="6.8129362"><ele>875.0</ele><time>2026-05-03T11:12:54.114Z</time></trkpt><trkpt lat="44.1146528" lon="6.8126731"><ele>875.0</ele><time>2026-05-03T11:12:55.114Z</time></trkpt><trkpt lat="44.1147146" lon="6.812427"><ele>875.0</ele><time>2026-05-03T11:12:56.114Z</time></trkpt><trkpt lat="44.1147675" lon="6.8121779"><ele>875.0</ele><time>2026-05-03T11:12:57.114Z</time></trkpt><trkpt lat="44.1148195" lon="6.8119335"><ele>875.0</ele><time>2026-05-03T11:12:58.114Z</time></trkpt><trkpt lat="44.1148763" lon="6.8116976"><ele>875.0</ele><time>2026-05-03T11:12:59.114Z</time></trkpt><trkpt lat="44.1149307" lon="6.8114531"><ele>879.6666666666667</ele><time>2026-05-03T11:13:00.114Z</time></trkpt><trkpt lat="44.1149779" lon="6.8112121"><ele>884.3333333333333</ele><time>2026-05-03T11:13:01.114Z</time></trkpt><trkpt lat="44.1150159" lon="6.81096"><ele>889.0</ele><time>2026-05-03T11:13:02.114Z</time></trkpt><trkpt lat="44.1150546" lon="6.810721"><ele>891.3333333333333</ele><time>2026-05-03T11:13:03.114Z</time></trkpt><trkpt lat="44.1150741" lon="6.8104733"><ele>893.6666666666667</ele><time>2026-05-03T11:13:04.113Z</time></trkpt><trkpt lat="44.1150928" lon="6.810223"><ele>896.0</ele><time>2026-05-03T11:13:05.114Z</time></trkpt><trkpt lat="44.1151108" lon="6.8099756"><ele>895.6666666666667</ele><time>2026-05-03T11:13:06.114Z</time></trkpt><trkpt lat="44.1151303" lon="6.8097406"><ele>895.3333333333333</ele><time>2026-05-03T11:13:07.114Z</time></trkpt><trkpt lat="44.1151628" lon="6.809513"><ele>895.0</ele><time>2026-05-03T11:13:08.114Z</time></trkpt><trkpt lat="44.1151891" lon="6.8092705"><ele>895.0</ele><time>2026-05-03T11:13:09.114Z</time></trkpt><trkpt lat="44.1152788" lon="6.8090696"><ele>895.0</ele><time>2026-05-03T11:13:10.114Z</time></trkpt><trkpt lat="44.1153658" lon="6.808875"><ele>895.0</ele><time>2026-05-03T11:13:11.114Z</time></trkpt><trkpt lat="44.1154982" lon="6.8087115"><ele>895.0</ele><time>2026-05-03T11:13:12.114Z</time></trkpt><trkpt lat="44.1156138" lon="6.8085393"><ele>895.0</ele><time>2026-05-03T11:13:13.114Z</time></trkpt><trkpt lat="44.1157104" lon="6.8083352"><ele>895.0</ele><time>2026-05-03T11:13:14.114Z</time></trkpt><trkpt lat="44.1157856" lon="6.8081025"><ele>897.0</ele><time>2026-05-03T11:13:15.114Z</time></trkpt><trkpt lat="44.1158604" lon="6.8078823"><ele>899.0</ele><time>2026-05-03T11:13:16.114Z</time></trkpt><trkpt lat="44.1158876" lon="6.8076184"><ele>901.0</ele><time>2026-05-03T11:13:17.114Z</time></trkpt><trkpt lat="44.1159364" lon="6.8073769"><ele>901.0</ele><time>2026-05-03T11:13:18.114Z</time></trkpt><trkpt lat="44.1159958" lon="6.8071337"><ele>901.0</ele><time>2026-05-03T11:13:19.114Z</time></trkpt><trkpt lat="44.1160696" lon="6.8068995"><ele>901.0</ele><time>2026-05-03T11:13:20.114Z</time></trkpt><trkpt lat="44.1161743" lon="6.8066661"><ele>898.0</ele><time>2026-05-03T11:13:21.114Z</time></trkpt><trkpt lat="44.1162689" lon="6.8064294"><ele>895.0</ele><time>2026-05-03T11:13:22.114Z</time></trkpt><trkpt lat="44.116352" lon="6.8062041"><ele>892.0</ele><time>2026-05-03T11:13:23.114Z</time></trkpt><trkpt lat="44.1164368" lon="6.8060104"><ele>890.3333333333333</ele><time>2026-05-03T11:13:24.114Z</time></trkpt><trkpt lat="44.1165196" lon="6.8058191"><ele>888.6666666666667</ele><time>2026-05-03T11:13:25.114Z</time></trkpt><trkpt lat="44.1166446" lon="6.805663"><ele>887.0</ele><time>2026-05-03T11:13:26.114Z</time></trkpt><trkpt lat="44.1167763" lon="6.8054787"><ele>891.0</ele><time>2026-05-03T11:13:27.114Z</time></trkpt><trkpt lat="44.1168748" lon="6.8052826"><ele>895.0</ele><time>2026-05-03T11:13:28.114Z</time></trkpt><trkpt lat="44.1169715" lon="6.8050946"><ele>899.0</ele><time>2026-05-03T11:13:29.114Z</time></trkpt><trkpt lat="44.1170624" lon="6.8049002"><ele>899.0</ele><time>2026-05-03T11:13:30.114Z</time></trkpt><trkpt lat="44.1171748" lon="6.8047147"><ele>899.0</ele><time>2026-05-03T11:13:31.113Z</time></trkpt><trkpt lat="44.1172894" lon="6.804558"><ele>899.0</ele><time>2026-05-03T11:13:32.114Z</time></trkpt><trkpt lat="44.1174287" lon="6.8044383"><ele>901.6666666666667</ele><time>2026-05-03T11:13:33.114Z</time></trkpt><trkpt lat="44.11756" lon="6.8043239"><ele>904.3333333333333</ele><time>2026-05-03T11:13:34.113Z</time></trkpt><trkpt lat="44.1177058" lon="6.8042407"><ele>907.0</ele><time>2026-05-03T11:13:35.114Z</time></trkpt><trkpt lat="44.1178603" lon="6.8041755"><ele>907.0</ele><time>2026-05-03T11:13:36.114Z</time></trkpt><trkpt lat="44.1180155" lon="6.8041354"><ele>907.0</ele><time>2026-05-03T11:13:37.114Z</time></trkpt><trkpt lat="44.1181639" lon="6.8041028"><ele>907.0</ele><time>2026-05-03T11:13:38.114Z</time></trkpt><trkpt lat="44.118301" lon="6.8040699"><ele>907.0</ele><time>2026-05-03T11:13:39.114Z</time></trkpt><trkpt lat="44.1184043" lon="6.8040107"><ele>910.0</ele><time>2026-05-03T11:13:40.114Z</time></trkpt><trkpt lat="44.118511" lon="6.8039072"><ele>913.0</ele><time>2026-05-03T11:13:41.113Z</time></trkpt><trkpt lat="44.1186075" lon="6.8037969"><ele>916.0</ele><time>2026-05-03T11:13:42.114Z</time></trkpt><trkpt lat="44.118684" lon="6.8036629"><ele>919.0</ele><time>2026-05-03T11:13:43.114Z</time></trkpt><trkpt lat="44.1187131" lon="6.8035082"><ele>916.0</ele><time>2026-05-03T11:13:44.113Z</time></trkpt><trkpt lat="44.1187124" lon="6.8033392"><ele>913.0</ele><time>2026-05-03T11:13:45.114Z</time></trkpt><trkpt lat="44.1186855" lon="6.8031326"><ele>910.0</ele><time>2026-05-03T11:13:46.114Z</time></trkpt><trkpt lat="44.1185327" lon="6.8030045"><ele>910.0</ele><time>2026-05-03T11:13:47.114Z</time></trkpt><trkpt lat="44.1184202" lon="6.8028798"><ele>910.0</ele><time>2026-05-03T11:13:48.114Z</time></trkpt><trkpt lat="44.1182641" lon="6.8027808"><ele>910.0</ele><time>2026-05-03T11:13:49.113Z</time></trkpt><trkpt lat="44.1181265" lon="6.8026917"><ele>910.6</ele><time>2026-05-03T11:13:50.114Z</time></trkpt><trkpt lat="44.1180241" lon="6.8025905"><ele>911.2</ele><time>2026-05-03T11:13:51.114Z</time></trkpt><trkpt lat="44.1179444" lon="6.8024927"><ele>911.8</ele><time>2026-05-03T11:13:52.114Z</time></trkpt><trkpt lat="44.1178915" lon="6.8023649"><ele>912.4</ele><time>2026-05-03T11:13:53.114Z</time></trkpt><trkpt lat="44.1178717" lon="6.8022333"><ele>913.0</ele><time>2026-05-03T11:13:54.113Z</time></trkpt><trkpt lat="44.117881" lon="6.802094"><ele>913.0</ele><time>2026-05-03T11:13:55.114Z</time></trkpt><trkpt lat="44.1179062" lon="6.8019373"><ele>913.0</ele><time>2026-05-03T11:13:56.113Z</time></trkpt><trkpt lat="44.1179649" lon="6.801759"><ele>913.0</ele><time>2026-05-03T11:13:57.114Z</time></trkpt><trkpt lat="44.1180349" lon="6.8015853"><ele>913.0</ele><time>2026-05-03T11:13:58.114Z</time></trkpt><trkpt lat="44.118123" lon="6.8014275"><ele>914.75</ele><time>2026-05-03T11:13:59.114Z</time></trkpt><trkpt lat="44.1182083" lon="6.8013041"><ele>916.5</ele><time>2026-05-03T11:14:00.114Z</time></trkpt><trkpt lat="44.1182654" lon="6.8011568"><ele>918.25</ele><time>2026-05-03T11:14:01.113Z</time></trkpt><trkpt lat="44.1183169" lon="6.8010093"><ele>920.0</ele><time>2026-05-03T11:14:02.113Z</time></trkpt><trkpt lat="44.1183574" lon="6.800852"><ele>920.5</ele><time>2026-05-03T11:14:03.114Z</time></trkpt><trkpt lat="44.1183295" lon="6.8006769"><ele>921.0</ele><time>2026-05-03T11:14:04.114Z</time></trkpt><trkpt lat="44.1182548" lon="6.8004999"><ele>921.5</ele><time>2026-05-03T11:14:05.114Z</time></trkpt><trkpt lat="44.1181928" lon="6.800315"><ele>922.0</ele><time>2026-05-03T11:14:06.114Z</time></trkpt><trkpt lat="44.1181593" lon="6.8001311"><ele>923.0</ele><time>2026-05-03T11:14:07.114Z</time></trkpt><trkpt lat="44.1181471" lon="6.799906"><ele>924.0</ele><time>2026-05-03T11:14:08.114Z</time></trkpt><trkpt lat="44.1181567" lon="6.7996738"><ele>925.0</ele><time>2026-05-03T11:14:09.114Z</time></trkpt><trkpt lat="44.1181773" lon="6.7994355"><ele>925.3333333333333</ele><time>2026-05-03T11:14:10.114Z</time></trkpt><trkpt lat="44.1182093" lon="6.7991923"><ele>925.6666666666667</ele><time>2026-05-03T11:14:11.114Z</time></trkpt><trkpt lat="44.1182409" lon="6.7989389"><ele>926.0</ele><time>2026-05-03T11:14:12.114Z</time></trkpt><trkpt lat="44.1182913" lon="6.7986956"><ele>929.0</ele><time>2026-05-03T11:14:13.114Z</time></trkpt><trkpt lat="44.1183454" lon="6.7984554"><ele>932.0</ele><time>2026-05-03T11:14:14.114Z</time></trkpt><trkpt lat="44.1184081" lon="6.7982276"><ele>935.0</ele><time>2026-05-03T11:14:15.114Z</time></trkpt><trkpt lat="44.1184667" lon="6.7979875"><ele>935.0</ele><time>2026-05-03T11:14:16.114Z</time></trkpt><trkpt lat="44.1185379" lon="6.7977636"><ele>935.0</ele><time>2026-05-03T11:14:17.114Z</time></trkpt><trkpt lat="44.1186453" lon="6.7975841"><ele>935.0</ele><time>2026-05-03T11:14:18.114Z</time></trkpt><trkpt lat="44.118742" lon="6.7973852"><ele>935.0</ele><time>2026-05-03T11:14:19.113Z</time></trkpt><trkpt lat="44.118869" lon="6.7972408"><ele>935.0</ele><time>2026-05-03T11:14:20.114Z</time></trkpt><trkpt lat="44.1189937" lon="6.7970948"><ele>935.0</ele><time>2026-05-03T11:14:21.113Z</time></trkpt><trkpt lat="44.1191033" lon="6.7969663"><ele>936.0</ele><time>2026-05-03T11:14:22.114Z</time></trkpt><trkpt lat="44.1191991" lon="6.7968562"><ele>937.0</ele><time>2026-05-03T11:14:23.113Z</time></trkpt><trkpt lat="44.1192941" lon="6.7967569"><ele>938.0</ele><time>2026-05-03T11:14:24.114Z</time></trkpt><trkpt lat="44.1193769" lon="6.7966633"><ele>939.0</ele><time>2026-05-03T11:14:25.114Z</time></trkpt><trkpt lat="44.1194536" lon="6.7965781"><ele>940.0</ele><time>2026-05-03T11:14:26.114Z</time></trkpt><trkpt lat="44.1195237" lon="6.7964758"><ele>939.9999999999999</ele><time>2026-05-03T11:14:27.113Z</time></trkpt><trkpt lat="44.1195989" lon="6.796386"><ele>940.0</ele><time>2026-05-03T11:14:28.114Z</time></trkpt><trkpt lat="44.1196654" lon="6.7963056"><ele>940.0</ele><time>2026-05-03T11:14:29.113Z</time></trkpt><trkpt lat="44.1197298" lon="6.7962181"><ele>940.0</ele><time>2026-05-03T11:14:30.114Z</time></trkpt><trkpt lat="44.119796" lon="6.7961353"><ele>939.9999999999999</ele><time>2026-05-03T11:14:31.114Z</time></trkpt><trkpt lat="44.1198549" lon="6.7960623"><ele>940.0</ele><time>2026-05-03T11:14:32.113Z</time></trkpt><trkpt lat="44.1199204" lon="6.7959758"><ele>942.0</ele><time>2026-05-03T11:14:33.114Z</time></trkpt><trkpt lat="44.1199872" lon="6.7958874"><ele>944.0</ele><time>2026-05-03T11:14:34.114Z</time></trkpt><trkpt lat="44.1200514" lon="6.795793"><ele>946.0</ele><time>2026-05-03T11:14:35.113Z</time></trkpt><trkpt lat="44.1201178" lon="6.7956684"><ele>948.0</ele><time>2026-05-03T11:14:36.114Z</time></trkpt><trkpt lat="44.1201764" lon="6.7955471"><ele>950.0</ele><time>2026-05-03T11:14:37.113Z</time></trkpt><trkpt lat="44.1202331" lon="6.7954213"><ele>950.0</ele><time>2026-05-03T11:14:38.114Z</time></trkpt><trkpt lat="44.1202915" lon="6.795299"><ele>950.0</ele><time>2026-05-03T11:14:39.114Z</time></trkpt><trkpt lat="44.1203531" lon="6.7951784"><ele>950.0</ele><time>2026-05-03T11:14:40.114Z</time></trkpt><trkpt lat="44.1204332" lon="6.7950908"><ele>950.0</ele><time>2026-05-03T11:14:41.114Z</time></trkpt><trkpt lat="44.1205" lon="6.7949999"><ele>950.0</ele><time>2026-05-03T11:14:42.114Z</time></trkpt><trkpt lat="44.1205764" lon="6.7948997"><ele>950.25</ele><time>2026-05-03T11:14:43.114Z</time></trkpt><trkpt lat="44.1206662" lon="6.7948022"><ele>950.5</ele><time>2026-05-03T11:14:44.114Z</time></trkpt><trkpt lat="44.1207591" lon="6.7946823"><ele>950.75</ele><time>2026-05-03T11:14:45.114Z</time></trkpt><trkpt lat="44.1208467" lon="6.7945468"><ele>951.0</ele><time>2026-05-03T11:14:46.114Z</time></trkpt><trkpt lat="44.120941" lon="6.7943877"><ele>949.0</ele><time>2026-05-03T11:14:47.114Z</time></trkpt><trkpt lat="44.1210482" lon="6.7942186"><ele>947.0</ele><time>2026-05-03T11:14:48.114Z</time></trkpt><trkpt lat="44.1211607" lon="6.7940364"><ele>945.0</ele><time>2026-05-03T11:14:49.114Z</time></trkpt><trkpt lat="44.1212742" lon="6.7938508"><ele>945.0</ele><time>2026-05-03T11:14:50.114Z</time></trkpt><trkpt lat="44.1213838" lon="6.7936699"><ele>945.0</ele><time>2026-05-03T11:14:51.114Z</time></trkpt><trkpt lat="44.121495" lon="6.7934954"><ele>945.0</ele><time>2026-05-03T11:14:52.113Z</time></trkpt><trkpt lat="44.1216089" lon="6.7933343"><ele>947.0</ele><time>2026-05-03T11:14:53.114Z</time></trkpt><trkpt lat="44.1217281" lon="6.7931953"><ele>949.0</ele><time>2026-05-03T11:14:54.114Z</time></trkpt><trkpt lat="44.1218494" lon="6.7930621"><ele>951.0</ele><time>2026-05-03T11:14:55.114Z</time></trkpt><trkpt lat="44.1219474" lon="6.7929723"><ele>953.0</ele><time>2026-05-03T11:14:56.114Z</time></trkpt><trkpt lat="44.1220359" lon="6.7928681"><ele>953.0</ele><time>2026-05-03T11:14:57.114Z</time></trkpt><trkpt lat="44.1221217" lon="6.7927615"><ele>953.0</ele><time>2026-05-03T11:14:58.114Z</time></trkpt><trkpt lat="44.1221609" lon="6.7926274"><ele>953.0</ele><time>2026-05-03T11:14:59.114Z</time></trkpt><trkpt lat="44.1221936" lon="6.7924855"><ele>953.0</ele><time>2026-05-03T11:15:00.114Z</time></trkpt><trkpt lat="44.1222112" lon="6.7923362"><ele>953.0</ele><time>2026-05-03T11:15:01.114Z</time></trkpt><trkpt lat="44.1221981" lon="6.7921567"><ele>949.75</ele><time>2026-05-03T11:15:02.114Z</time></trkpt><trkpt lat="44.1222029" lon="6.7919648"><ele>946.5</ele><time>2026-05-03T11:15:03.114Z</time></trkpt><trkpt lat="44.1222153" lon="6.7917812"><ele>943.25</ele><time>2026-05-03T11:15:04.114Z</time></trkpt><trkpt lat="44.1222828" lon="6.7916234"><ele>940.0</ele><time>2026-05-03T11:15:05.114Z</time></trkpt><trkpt lat="44.12236" lon="6.7915043"><ele>940.75</ele><time>2026-05-03T11:15:06.114Z</time></trkpt><trkpt lat="44.1224664" lon="6.7913818"><ele>941.5</ele><time>2026-05-03T11:15:07.114Z</time></trkpt><trkpt lat="44.1225635" lon="6.7912376"><ele>942.25</ele><time>2026-05-03T11:15:08.114Z</time></trkpt><trkpt lat="44.1226339" lon="6.7910861"><ele>943.0</ele><time>2026-05-03T11:15:09.113Z</time></trkpt><trkpt lat="44.122644" lon="6.7909053"><ele>943.0</ele><time>2026-05-03T11:15:10.114Z</time></trkpt><trkpt lat="44.1226493" lon="6.7907081"><ele>943.0</ele><time>2026-05-03T11:15:11.114Z</time></trkpt><trkpt lat="44.1226724" lon="6.7905136"><ele>943.0</ele><time>2026-05-03T11:15:12.113Z</time></trkpt><trkpt lat="44.1227005" lon="6.7903304"><ele>943.0</ele><time>2026-05-03T11:15:13.113Z</time></trkpt><trkpt lat="44.1227571" lon="6.7901534"><ele>942.5</ele><time>2026-05-03T11:15:14.114Z</time></trkpt><trkpt lat="44.1228284" lon="6.7899826"><ele>942.0</ele><time>2026-05-03T11:15:15.113Z</time></trkpt><trkpt lat="44.1229158" lon="6.7898377"><ele>941.5</ele><time>2026-05-03T11:15:16.114Z</time></trkpt><trkpt lat="44.1229791" lon="6.7896789"><ele>941.0</ele><time>2026-05-03T11:15:17.114Z</time></trkpt><trkpt lat="44.1230363" lon="6.7895252"><ele>941.0</ele><time>2026-05-03T11:15:18.114Z</time></trkpt><trkpt lat="44.1230743" lon="6.7893756"><ele>941.0</ele><time>2026-05-03T11:15:19.114Z</time></trkpt><trkpt lat="44.1231116" lon="6.7892148"><ele>941.0</ele><time>2026-05-03T11:15:20.114Z</time></trkpt><trkpt lat="44.1230682" lon="6.7890661"><ele>941.0</ele><time>2026-05-03T11:15:21.114Z</time></trkpt><trkpt lat="44.12302" lon="6.788926"><ele>941.25</ele><time>2026-05-03T11:15:22.113Z</time></trkpt><trkpt lat="44.1229582" lon="6.7887822"><ele>941.5</ele><time>2026-05-03T11:15:23.114Z</time></trkpt><trkpt lat="44.1229004" lon="6.7886308"><ele>941.75</ele><time>2026-05-03T11:15:24.114Z</time></trkpt><trkpt lat="44.1228607" lon="6.7884723"><ele>942.0</ele><time>2026-05-03T11:15:25.114Z</time></trkpt><trkpt lat="44.1228447" lon="6.7882956"><ele>941.75</ele><time>2026-05-03T11:15:26.114Z</time></trkpt><trkpt lat="44.1228382" lon="6.7881309"><ele>941.5</ele><time>2026-05-03T11:15:27.114Z</time></trkpt><trkpt lat="44.1228434" lon="6.7879623"><ele>941.25</ele><time>2026-05-03T11:15:28.114Z</time></trkpt><trkpt lat="44.1228813" lon="6.7878078"><ele>941.0</ele><time>2026-05-03T11:15:29.114Z</time></trkpt><trkpt lat="44.1229249" lon="6.7876533"><ele>941.0</ele><time>2026-05-03T11:15:30.113Z</time></trkpt><trkpt lat="44.1230168" lon="6.7875671"><ele>941.0</ele><time>2026-05-03T11:15:31.114Z</time></trkpt><trkpt lat="44.1231385" lon="6.7875189"><ele>941.0</ele><time>2026-05-03T11:15:32.114Z</time></trkpt><trkpt lat="44.1232594" lon="6.7874487"><ele>941.0</ele><time>2026-05-03T11:15:33.114Z</time></trkpt><trkpt lat="44.1233915" lon="6.7874076"><ele>943.0</ele><time>2026-05-03T11:15:34.114Z</time></trkpt><trkpt lat="44.1234968" lon="6.7873676"><ele>944.9999999999999</ele><time>2026-05-03T11:15:35.114Z</time></trkpt><trkpt lat="44.1235994" lon="6.7873049"><ele>946.9999999999999</ele><time>2026-05-03T11:15:36.114Z</time></trkpt><trkpt lat="44.1236633" lon="6.7871805"><ele>949.0</ele><time>2026-05-03T11:15:37.114Z</time></trkpt><trkpt lat="44.1237188" lon="6.7870812"><ele>951.0</ele><time>2026-05-03T11:15:38.114Z</time></trkpt><trkpt lat="44.1237292" lon="6.7868928"><ele>949.0</ele><time>2026-05-03T11:15:39.114Z</time></trkpt><trkpt lat="44.1237504" lon="6.7866958"><ele>947.0</ele><time>2026-05-03T11:15:40.114Z</time></trkpt><trkpt lat="44.1237744" lon="6.7865123"><ele>945.0</ele><time>2026-05-03T11:15:41.114Z</time></trkpt><trkpt lat="44.1237914" lon="6.7862875"><ele>943.0</ele><time>2026-05-03T11:15:42.114Z</time></trkpt><trkpt lat="44.1238076" lon="6.7860994"><ele>942.75</ele><time>2026-05-03T11:15:43.114Z</time></trkpt><trkpt lat="44.1238248" lon="6.7858924"><ele>942.5</ele><time>2026-05-03T11:15:44.114Z</time></trkpt><trkpt lat="44.1238442" lon="6.7856718"><ele>942.25</ele><time>2026-05-03T11:15:45.114Z</time></trkpt><trkpt lat="44.1238829" lon="6.7855362"><ele>942.0</ele><time>2026-05-03T11:15:46.114Z</time></trkpt><trkpt lat="44.1239533" lon="6.7853848"><ele>942.0</ele><time>2026-05-03T11:15:47.114Z</time></trkpt><trkpt lat="44.1240317" lon="6.7852213"><ele>942.0</ele><time>2026-05-03T11:15:48.114Z</time></trkpt><trkpt lat="44.1241195" lon="6.7850527"><ele>942.0</ele><time>2026-05-03T11:15:49.114Z</time></trkpt><trkpt lat="44.1242135" lon="6.7848896"><ele>942.0</ele><time>2026-05-03T11:15:50.114Z</time></trkpt><trkpt lat="44.1243109" lon="6.7847365"><ele>944.75</ele><time>2026-05-03T11:15:51.113Z</time></trkpt><trkpt lat="44.1244158" lon="6.784658"><ele>947.5</ele><time>2026-05-03T11:15:52.114Z</time></trkpt><trkpt lat="44.1245376" lon="6.7845895"><ele>950.25</ele><time>2026-05-03T11:15:53.114Z</time></trkpt><trkpt lat="44.1246609" lon="6.7845711"><ele>953.0</ele><time>2026-05-03T11:15:54.114Z</time></trkpt><trkpt lat="44.1247789" lon="6.7845441"><ele>953.0</ele><time>2026-05-03T11:15:55.114Z</time></trkpt><trkpt lat="44.1248932" lon="6.7845132"><ele>953.0</ele><time>2026-05-03T11:15:56.114Z</time></trkpt><trkpt lat="44.1249894" lon="6.7844456"><ele>953.0</ele><time>2026-05-03T11:15:57.114Z</time></trkpt><trkpt lat="44.1250788" lon="6.7843366"><ele>953.0</ele><time>2026-05-03T11:15:58.114Z</time></trkpt><trkpt lat="44.1251612" lon="6.7842314"><ele>953.75</ele><time>2026-05-03T11:15:59.114Z</time></trkpt><trkpt lat="44.1252215" lon="6.7840572"><ele>954.5</ele><time>2026-05-03T11:16:00.114Z</time></trkpt><trkpt lat="44.1252811" lon="6.7838965"><ele>955.25</ele><time>2026-05-03T11:16:01.114Z</time></trkpt><trkpt lat="44.1253316" lon="6.783721"><ele>956.0</ele><time>2026-05-03T11:16:02.114Z</time></trkpt><trkpt lat="44.1253985" lon="6.7835804"><ele>954.5</ele><time>2026-05-03T11:16:03.114Z</time></trkpt><trkpt lat="44.1254749" lon="6.7834477"><ele>953.0</ele><time>2026-05-03T11:16:04.114Z</time></trkpt><trkpt lat="44.1255733" lon="6.7833701"><ele>951.5</ele><time>2026-05-03T11:16:05.114Z</time></trkpt><trkpt lat="44.1256793" lon="6.7832939"><ele>950.0</ele><time>2026-05-03T11:16:06.114Z</time></trkpt><trkpt lat="44.1257725" lon="6.7831851"><ele>951.25</ele><time>2026-05-03T11:16:07.114Z</time></trkpt><trkpt lat="44.1258457" lon="6.783065"><ele>952.5</ele><time>2026-05-03T11:16:08.113Z</time></trkpt><trkpt lat="44.1259128" lon="6.7829288"><ele>953.75</ele><time>2026-05-03T11:16:09.114Z</time></trkpt><trkpt lat="44.1259513" lon="6.7827649"><ele>955.0</ele><time>2026-05-03T11:16:10.113Z</time></trkpt><trkpt lat="44.1260142" lon="6.7826206"><ele>955.0</ele><time>2026-05-03T11:16:11.114Z</time></trkpt><trkpt lat="44.126102" lon="6.7825037"><ele>955.0</ele><time>2026-05-03T11:16:12.114Z</time></trkpt><trkpt lat="44.1262006" lon="6.7823825"><ele>955.0</ele><time>2026-05-03T11:16:13.114Z</time></trkpt><trkpt lat="44.1263301" lon="6.7823554"><ele>955.0</ele><time>2026-05-03T11:16:14.114Z</time></trkpt><trkpt lat="44.1264444" lon="6.7823302"><ele>955.0</ele><time>2026-05-03T11:16:15.113Z</time></trkpt><trkpt lat="44.1265488" lon="6.7823035"><ele>955.0</ele><time>2026-05-03T11:16:16.114Z</time></trkpt><trkpt lat="44.1266484" lon="6.7822464"><ele>955.0</ele><time>2026-05-03T11:16:17.114Z</time></trkpt><trkpt lat="44.1267273" lon="6.7821566"><ele>955.0</ele><time>2026-05-03T11:16:18.114Z</time></trkpt><trkpt lat="44.126804" lon="6.782045"><ele>955.0</ele><time>2026-05-03T11:16:19.114Z</time></trkpt><trkpt lat="44.1268295" lon="6.7819041"><ele>957.25</ele><time>2026-05-03T11:16:20.114Z</time></trkpt><trkpt lat="44.1268505" lon="6.7817627"><ele>959.5</ele><time>2026-05-03T11:16:21.114Z</time></trkpt><trkpt lat="44.1268619" lon="6.7816109"><ele>961.75</ele><time>2026-05-03T11:16:22.114Z</time></trkpt><trkpt lat="44.1268114" lon="6.7814384"><ele>964.0</ele><time>2026-05-03T11:16:23.113Z</time></trkpt><trkpt lat="44.1267924" lon="6.7812835"><ele>964.0</ele><time>2026-05-03T11:16:24.113Z</time></trkpt><trkpt lat="44.1267875" lon="6.7811343"><ele>964.0</ele><time>2026-05-03T11:16:25.114Z</time></trkpt><trkpt lat="44.1268233" lon="6.7810121"><ele>964.0</ele><time>2026-05-03T11:16:26.114Z</time></trkpt><trkpt lat="44.1269191" lon="6.7808627"><ele>964.0</ele><time>2026-05-03T11:16:27.114Z</time></trkpt><trkpt lat="44.1270051" lon="6.7807498"><ele>963.25</ele><time>2026-05-03T11:16:28.114Z</time></trkpt><trkpt lat="44.1270788" lon="6.7806217"><ele>962.5</ele><time>2026-05-03T11:16:29.114Z</time></trkpt><trkpt lat="44.1271409" lon="6.7804733"><ele>961.75</ele><time>2026-05-03T11:16:30.114Z</time></trkpt><trkpt lat="44.1271862" lon="6.780309"><ele>961.0</ele><time>2026-05-03T11:16:31.114Z</time></trkpt><trkpt lat="44.1272109" lon="6.7801142"><ele>958.0</ele><time>2026-05-03T11:16:32.114Z</time></trkpt><trkpt lat="44.1272388" lon="6.7799077"><ele>955.0</ele><time>2026-05-03T11:16:33.114Z</time></trkpt><trkpt lat="44.1272556" lon="6.7796999"><ele>952.0</ele><time>2026-05-03T11:16:34.114Z</time></trkpt><trkpt lat="44.1272735" lon="6.7794899"><ele>953.3333333333333</ele><time>2026-05-03T11:16:35.114Z</time></trkpt><trkpt lat="44.1272884" lon="6.7792743"><ele>954.6666666666667</ele><time>2026-05-03T11:16:36.114Z</time></trkpt><trkpt lat="44.1273103" lon="6.779045"><ele>956.0</ele><time>2026-05-03T11:16:37.114Z</time></trkpt><trkpt lat="44.1273274" lon="6.7788451"><ele>956.0</ele><time>2026-05-03T11:16:38.113Z</time></trkpt><trkpt lat="44.1273288" lon="6.7786464"><ele>956.0</ele><time>2026-05-03T11:16:39.114Z</time></trkpt><trkpt lat="44.127371" lon="6.7784782"><ele>956.0</ele><time>2026-05-03T11:16:40.114Z</time></trkpt><trkpt lat="44.127429" lon="6.7783106"><ele>956.0</ele><time>2026-05-03T11:16:41.114Z</time></trkpt><trkpt lat="44.1275052" lon="6.7781305"><ele>958.75</ele><time>2026-05-03T11:16:42.113Z</time></trkpt><trkpt lat="44.1275703" lon="6.7779626"><ele>961.5</ele><time>2026-05-03T11:16:43.114Z</time></trkpt><trkpt lat="44.1276653" lon="6.7777707"><ele>964.25</ele><time>2026-05-03T11:16:44.114Z</time></trkpt><trkpt lat="44.1277438" lon="6.7776139"><ele>967.0</ele><time>2026-05-03T11:16:45.114Z</time></trkpt><trkpt lat="44.1278201" lon="6.7774536"><ele>967.0</ele><time>2026-05-03T11:16:46.114Z</time></trkpt><trkpt lat="44.127911" lon="6.777308"><ele>967.0</ele><time>2026-05-03T11:16:47.114Z</time></trkpt><trkpt lat="44.1280192" lon="6.7771997"><ele>967.0</ele><time>2026-05-03T11:16:48.113Z</time></trkpt><trkpt lat="44.1281245" lon="6.7770983"><ele>967.0</ele><time>2026-05-03T11:16:49.114Z</time></trkpt><trkpt lat="44.1282399" lon="6.7769923"><ele>968.25</ele><time>2026-05-03T11:16:50.114Z</time></trkpt><trkpt lat="44.1283374" lon="6.7768782"><ele>969.5</ele><time>2026-05-03T11:16:51.114Z</time></trkpt><trkpt lat="44.1284209" lon="6.776739"><ele>970.75</ele><time>2026-05-03T11:16:52.114Z</time></trkpt><trkpt lat="44.1284986" lon="6.7765541"><ele>972.0</ele><time>2026-05-03T11:16:53.113Z</time></trkpt><trkpt lat="44.1285886" lon="6.7763902"><ele>972.0</ele><time>2026-05-03T11:16:54.113Z</time></trkpt><trkpt lat="44.1286741" lon="6.7762123"><ele>972.0</ele><time>2026-05-03T11:16:55.114Z</time></trkpt><trkpt lat="44.1287814" lon="6.7760345"><ele>972.0</ele><time>2026-05-03T11:16:56.114Z</time></trkpt><trkpt lat="44.1288784" lon="6.7758533"><ele>969.6666666666667</ele><time>2026-05-03T11:16:57.114Z</time></trkpt><trkpt lat="44.1289875" lon="6.7756864"><ele>967.3333333333334</ele><time>2026-05-03T11:16:58.113Z</time></trkpt><trkpt lat="44.1291072" lon="6.7755485"><ele>965.0</ele><time>2026-05-03T11:16:59.114Z</time></trkpt><trkpt lat="44.1292203" lon="6.7754307"><ele>969.5</ele><time>2026-05-03T11:17:00.114Z</time></trkpt><trkpt lat="44.1293201" lon="6.7753168"><ele>974.0</ele><time>2026-05-03T11:17:01.114Z</time></trkpt><trkpt lat="44.1294019" lon="6.7751693"><ele>978.5</ele><time>2026-05-03T11:17:02.114Z</time></trkpt><trkpt lat="44.1294586" lon="6.7750035"><ele>983.0</ele><time>2026-05-03T11:17:03.114Z</time></trkpt><trkpt lat="44.1295012" lon="6.7748276"><ele>983.0</ele><time>2026-05-03T11:17:04.113Z</time></trkpt><trkpt lat="44.1295087" lon="6.7746429"><ele>983.0</ele><time>2026-05-03T11:17:05.114Z</time></trkpt><trkpt lat="44.1295345" lon="6.7744465"><ele>983.0</ele><time>2026-05-03T11:17:06.114Z</time></trkpt><trkpt lat="44.1295838" lon="6.7742739"><ele>983.0</ele><time>2026-05-03T11:17:07.113Z</time></trkpt><trkpt lat="44.1296465" lon="6.7741088"><ele>984.25</ele><time>2026-05-03T11:17:08.114Z</time></trkpt><trkpt lat="44.1297227" lon="6.7739872"><ele>985.5</ele><time>2026-05-03T11:17:09.114Z</time></trkpt><trkpt lat="44.1298339" lon="6.7739303"><ele>986.75</ele><time>2026-05-03T11:17:10.114Z</time></trkpt><trkpt lat="44.1299971" lon="6.7739261"><ele>988.0</ele><time>2026-05-03T11:17:11.114Z</time></trkpt><trkpt lat="44.1301547" lon="6.7739365"><ele>988.0</ele><time>2026-05-03T11:17:12.114Z</time></trkpt><trkpt lat="44.1303266" lon="6.7739756"><ele>988.0</ele><time>2026-05-03T11:17:13.114Z</time></trkpt><trkpt lat="44.1305124" lon="6.7739962"><ele>988.0</ele><time>2026-05-03T11:17:14.114Z</time></trkpt><trkpt lat="44.130694" lon="6.7740185"><ele>990.6666666666666</ele><time>2026-05-03T11:17:15.114Z</time></trkpt><trkpt lat="44.1308621" lon="6.7740476"><ele>993.3333333333333</ele><time>2026-05-03T11:17:16.114Z</time></trkpt><trkpt lat="44.1310218" lon="6.7740633"><ele>996.0</ele><time>2026-05-03T11:17:17.114Z</time></trkpt><trkpt lat="44.131179" lon="6.7740791"><ele>996.0</ele><time>2026-05-03T11:17:18.114Z</time></trkpt><trkpt lat="44.1313173" lon="6.774046"><ele>996.0</ele><time>2026-05-03T11:17:19.116Z</time></trkpt><trkpt lat="44.1314556" lon="6.7739848"><ele>996.0</ele><time>2026-05-03T11:17:20.114Z</time></trkpt><trkpt lat="44.1315954" lon="6.7738979"><ele>996.0</ele><time>2026-05-03T11:17:21.114Z</time></trkpt><trkpt lat="44.1317221" lon="6.7737722"><ele>998.3333333333333</ele><time>2026-05-03T11:17:22.113Z</time></trkpt><trkpt lat="44.1318473" lon="6.7736258"><ele>1000.6666666666666</ele><time>2026-05-03T11:17:23.115Z</time></trkpt><trkpt lat="44.1319507" lon="6.7734441"><ele>1003.0</ele><time>2026-05-03T11:17:24.114Z</time></trkpt><trkpt lat="44.1320502" lon="6.7732619"><ele>1002.0</ele><time>2026-05-03T11:17:25.114Z</time></trkpt><trkpt lat="44.1321761" lon="6.7730653"><ele>1001.0</ele><time>2026-05-03T11:17:26.114Z</time></trkpt><trkpt lat="44.1322854" lon="6.7728567"><ele>1000.0</ele><time>2026-05-03T11:17:27.114Z</time></trkpt><trkpt lat="44.1323946" lon="6.7726338"><ele>1000.0</ele><time>2026-05-03T11:17:28.114Z</time></trkpt><trkpt lat="44.1324916" lon="6.772443"><ele>1000.0</ele><time>2026-05-03T11:17:29.114Z</time></trkpt><trkpt lat="44.1325631" lon="6.7722307"><ele>1000.0</ele><time>2026-05-03T11:17:30.114Z</time></trkpt><trkpt lat="44.1326298" lon="6.7720287"><ele>997.0</ele><time>2026-05-03T11:17:31.114Z</time></trkpt><trkpt lat="44.1326904" lon="6.7718294"><ele>994.0</ele><time>2026-05-03T11:17:32.114Z</time></trkpt><trkpt lat="44.1327783" lon="6.7716058"><ele>991.0</ele><time>2026-05-03T11:17:33.114Z</time></trkpt><trkpt lat="44.1328649" lon="6.7714112"><ele>991.0</ele><time>2026-05-03T11:17:34.114Z</time></trkpt><trkpt lat="44.1329392" lon="6.7712022"><ele>991.0</ele><time>2026-05-03T11:17:35.114Z</time></trkpt><trkpt lat="44.1330353" lon="6.7710162"><ele>991.0</ele><time>2026-05-03T11:17:36.114Z</time></trkpt><trkpt lat="44.1331434" lon="6.7708411"><ele>996.3333333333333</ele><time>2026-05-03T11:17:37.114Z</time></trkpt><trkpt lat="44.1332357" lon="6.7706626"><ele>1001.6666666666667</ele><time>2026-05-03T11:17:38.114Z</time></trkpt><trkpt lat="44.1333373" lon="6.7704835"><ele>1007.0</ele><time>2026-05-03T11:17:39.113Z</time></trkpt><trkpt lat="44.1334219" lon="6.7703"><ele>1003.75</ele><time>2026-05-03T11:17:40.114Z</time></trkpt><trkpt lat="44.1335051" lon="6.7701233"><ele>1000.5</ele><time>2026-05-03T11:17:41.114Z</time></trkpt><trkpt lat="44.1335891" lon="6.7699463"><ele>997.25</ele><time>2026-05-03T11:17:42.113Z</time></trkpt><trkpt lat="44.13367" lon="6.7697923"><ele>994.0</ele><time>2026-05-03T11:17:43.114Z</time></trkpt><trkpt lat="44.1337581" lon="6.7696442"><ele>994.0</ele><time>2026-05-03T11:17:44.113Z</time></trkpt><trkpt lat="44.1338525" lon="6.7695301"><ele>994.0</ele><time>2026-05-03T11:17:45.114Z</time></trkpt><trkpt lat="44.1339851" lon="6.7695218"><ele>994.0</ele><time>2026-05-03T11:17:46.114Z</time></trkpt><trkpt lat="44.1341044" lon="6.7694879"><ele>994.0</ele><time>2026-05-03T11:17:47.114Z</time></trkpt><trkpt lat="44.1342633" lon="6.7694349"><ele>994.0</ele><time>2026-05-03T11:17:48.114Z</time></trkpt><trkpt lat="44.1344132" lon="6.7693591"><ele>994.0</ele><time>2026-05-03T11:17:49.114Z</time></trkpt><trkpt lat="44.1345672" lon="6.7692973"><ele>994.0</ele><time>2026-05-03T11:17:50.114Z</time></trkpt><trkpt lat="44.1347141" lon="6.769232"><ele>994.0</ele><time>2026-05-03T11:17:51.114Z</time></trkpt><trkpt lat="44.1348694" lon="6.7691428"><ele>994.0</ele><time>2026-05-03T11:17:52.114Z</time></trkpt><trkpt lat="44.1350143" lon="6.7690593"><ele>994.0</ele><time>2026-05-03T11:17:53.114Z</time></trkpt><trkpt lat="44.1351524" lon="6.7689201"><ele>994.0</ele><time>2026-05-03T11:17:54.114Z</time></trkpt><trkpt lat="44.135289" lon="6.7687762"><ele>994.0</ele><time>2026-05-03T11:17:55.114Z</time></trkpt><trkpt lat="44.135417" lon="6.7686283"><ele>994.0</ele><time>2026-05-03T11:17:56.114Z</time></trkpt><trkpt lat="44.1355369" lon="6.7684988"><ele>994.0</ele><time>2026-05-03T11:17:57.114Z</time></trkpt><trkpt lat="44.1356613" lon="6.7683998"><ele>994.0</ele><time>2026-05-03T11:17:58.114Z</time></trkpt><trkpt lat="44.1358266" lon="6.7683289"><ele>994.0</ele><time>2026-05-03T11:17:59.114Z</time></trkpt><trkpt lat="44.1359503" lon="6.7682688"><ele>994.0</ele><time>2026-05-03T11:18:00.114Z</time></trkpt><trkpt lat="44.13608" lon="6.7681886"><ele>998.6666666666666</ele><time>2026-05-03T11:18:01.114Z</time></trkpt><trkpt lat="44.1362115" lon="6.7680699"><ele>1003.3333333333333</ele><time>2026-05-03T11:18:02.114Z</time></trkpt><trkpt lat="44.1363303" lon="6.7679178"><ele>1008.0</ele><time>2026-05-03T11:18:03.114Z</time></trkpt><trkpt lat="44.1364345" lon="6.7677547"><ele>1008.0</ele><time>2026-05-03T11:18:04.114Z</time></trkpt><trkpt lat="44.1365387" lon="6.767572"><ele>1008.0</ele><time>2026-05-03T11:18:05.114Z</time></trkpt><trkpt lat="44.1366244" lon="6.7673538"><ele>1008.0</ele><time>2026-05-03T11:18:06.114Z</time></trkpt><trkpt lat="44.136716" lon="6.7671448"><ele>1008.0</ele><time>2026-05-03T11:18:07.114Z</time></trkpt><trkpt lat="44.1367894" lon="6.7669288"><ele>1008.0</ele><time>2026-05-03T11:18:08.114Z</time></trkpt><trkpt lat="44.1368661" lon="6.7667094"><ele>1008.0</ele><time>2026-05-03T11:18:09.114Z</time></trkpt><trkpt lat="44.1369478" lon="6.7665084"><ele>1010.0</ele><time>2026-05-03T11:18:10.114Z</time></trkpt><trkpt lat="44.1370478" lon="6.7663151"><ele>1012.0</ele><time>2026-05-03T11:18:11.114Z</time></trkpt><trkpt lat="44.1371614" lon="6.7661438"><ele>1014.0</ele><time>2026-05-03T11:18:12.113Z</time></trkpt><trkpt lat="44.1372968" lon="6.7659879"><ele>1011.6666666666667</ele><time>2026-05-03T11:18:13.114Z</time></trkpt><trkpt lat="44.1374243" lon="6.7658233"><ele>1009.3333333333334</ele><time>2026-05-03T11:18:14.114Z</time></trkpt><trkpt lat="44.1375758" lon="6.7656881"><ele>1007.0</ele><time>2026-05-03T11:18:15.114Z</time></trkpt><trkpt lat="44.1377209" lon="6.7655381"><ele>1007.0</ele><time>2026-05-03T11:18:16.113Z</time></trkpt><trkpt lat="44.1378655" lon="6.7653852"><ele>1007.0</ele><time>2026-05-03T11:18:17.114Z</time></trkpt><trkpt lat="44.1380037" lon="6.7652391"><ele>1007.0</ele><time>2026-05-03T11:18:18.113Z</time></trkpt><trkpt lat="44.138138" lon="6.7650839"><ele>1010.3333333333334</ele><time>2026-05-03T11:18:19.114Z</time></trkpt><trkpt lat="44.1382889" lon="6.7649822"><ele>1013.6666666666667</ele><time>2026-05-03T11:18:20.114Z</time></trkpt><trkpt lat="44.1384439" lon="6.7648652"><ele>1017.0</ele><time>2026-05-03T11:18:21.114Z</time></trkpt><trkpt lat="44.138591" lon="6.7647302"><ele>1017.0</ele><time>2026-05-03T11:18:22.114Z</time></trkpt><trkpt lat="44.1387477" lon="6.7646011"><ele>1017.0</ele><time>2026-05-03T11:18:23.114Z</time></trkpt><trkpt lat="44.1388959" lon="6.7644625"><ele>1017.0</ele><time>2026-05-03T11:18:24.114Z</time></trkpt><trkpt lat="44.1390483" lon="6.764333"><ele>1019.3333333333333</ele><time>2026-05-03T11:18:25.113Z</time></trkpt><trkpt lat="44.1391978" lon="6.7641968"><ele>1021.6666666666666</ele><time>2026-05-03T11:18:26.114Z</time></trkpt><trkpt lat="44.1393394" lon="6.7640421"><ele>1024.0</ele><time>2026-05-03T11:18:27.114Z</time></trkpt><trkpt lat="44.1394743" lon="6.7638952"><ele>1024.0</ele><time>2026-05-03T11:18:28.113Z</time></trkpt><trkpt lat="44.1396104" lon="6.7637535"><ele>1024.0</ele><time>2026-05-03T11:18:29.113Z</time></trkpt><trkpt lat="44.1397625" lon="6.7636353"><ele>1024.0</ele><time>2026-05-03T11:18:30.114Z</time></trkpt><trkpt lat="44.1398976" lon="6.7635399"><ele>1024.25</ele><time>2026-05-03T11:18:31.114Z</time></trkpt><trkpt lat="44.1400268" lon="6.7634526"><ele>1024.5</ele><time>2026-05-03T11:18:32.114Z</time></trkpt><trkpt lat="44.140162" lon="6.7633773"><ele>1024.75</ele><time>2026-05-03T11:18:33.114Z</time></trkpt><trkpt lat="44.1402813" lon="6.7633174"><ele>1025.0</ele><time>2026-05-03T11:18:34.114Z</time></trkpt><trkpt lat="44.1403622" lon="6.7632284"><ele>1025.0</ele><time>2026-05-03T11:18:35.114Z</time></trkpt><trkpt lat="44.1404266" lon="6.7631149"><ele>1025.0</ele><time>2026-05-03T11:18:36.114Z</time></trkpt><trkpt lat="44.140486" lon="6.7629975"><ele>1025.0</ele><time>2026-05-03T11:18:37.114Z</time></trkpt><trkpt lat="44.1405038" lon="6.7628691"><ele>1025.0</ele><time>2026-05-03T11:18:38.114Z</time></trkpt><trkpt lat="44.1404612" lon="6.7626602"><ele>1029.0</ele><time>2026-05-03T11:18:39.114Z</time></trkpt><trkpt lat="44.1404288" lon="6.7624663"><ele>1033.0</ele><time>2026-05-03T11:18:40.114Z</time></trkpt><trkpt lat="44.1404041" lon="6.7622723"><ele>1037.0</ele><time>2026-05-03T11:18:41.114Z</time></trkpt><trkpt lat="44.1404165" lon="6.7620955"><ele>1041.0</ele><time>2026-05-03T11:18:42.114Z</time></trkpt><trkpt lat="44.1404301" lon="6.7619367"><ele>1039.0</ele><time>2026-05-03T11:18:43.114Z</time></trkpt><trkpt lat="44.1405122" lon="6.7617898"><ele>1037.0</ele><time>2026-05-03T11:18:44.114Z</time></trkpt><trkpt lat="44.1405787" lon="6.7616442"><ele>1035.0</ele><time>2026-05-03T11:18:45.114Z</time></trkpt><trkpt lat="44.1406677" lon="6.7615078"><ele>1033.0</ele><time>2026-05-03T11:18:46.114Z</time></trkpt><trkpt lat="44.140775" lon="6.7614045"><ele>1033.0</ele><time>2026-05-03T11:18:47.114Z</time></trkpt><trkpt lat="44.1409048" lon="6.7613439"><ele>1033.0</ele><time>2026-05-03T11:18:48.114Z</time></trkpt><trkpt lat="44.1410181" lon="6.7612729"><ele>1033.0</ele><time>2026-05-03T11:18:49.114Z</time></trkpt><trkpt lat="44.1411394" lon="6.7612245"><ele>1033.0</ele><time>2026-05-03T11:18:50.114Z</time></trkpt><trkpt lat="44.1412668" lon="6.7611612"><ele>1033.0</ele><time>2026-05-03T11:18:51.114Z</time></trkpt><trkpt lat="44.14139" lon="6.7610902"><ele>1033.0</ele><time>2026-05-03T11:18:52.114Z</time></trkpt><trkpt lat="44.1415029" lon="6.7610099"><ele>1033.0</ele><time>2026-05-03T11:18:53.114Z</time></trkpt><trkpt lat="44.1415897" lon="6.7609114"><ele>1033.0</ele><time>2026-05-03T11:18:54.113Z</time></trkpt><trkpt lat="44.1416678" lon="6.7608094"><ele>1034.0</ele><time>2026-05-03T11:18:55.113Z</time></trkpt><trkpt lat="44.1417325" lon="6.7607169"><ele>1035.0</ele><time>2026-05-03T11:18:56.114Z</time></trkpt><trkpt lat="44.141792" lon="6.7606285"><ele>1036.0</ele><time>2026-05-03T11:18:57.114Z</time></trkpt><trkpt lat="44.1418459" lon="6.7605594"><ele>1037.0</ele><time>2026-05-03T11:18:58.114Z</time></trkpt><trkpt lat="44.1419102" lon="6.760494"><ele>1038.0</ele><time>2026-05-03T11:18:59.114Z</time></trkpt><trkpt lat="44.1419978" lon="6.760438"><ele>1039.0</ele><time>2026-05-03T11:19:00.114Z</time></trkpt><trkpt lat="44.1420818" lon="6.7603975"><ele>1039.0</ele><time>2026-05-03T11:19:01.114Z</time></trkpt><trkpt lat="44.1421847" lon="6.7604098"><ele>1039.0</ele><time>2026-05-03T11:19:02.114Z</time></trkpt><trkpt lat="44.1422797" lon="6.7604325"><ele>1039.0</ele><time>2026-05-03T11:19:03.114Z</time></trkpt><trkpt lat="44.1423443" lon="6.7605215"><ele>1039.0</ele><time>2026-05-03T11:19:04.114Z</time></trkpt><trkpt lat="44.1424106" lon="6.7606035"><ele>1039.0</ele><time>2026-05-03T11:19:05.114Z</time></trkpt><trkpt lat="44.1424399" lon="6.7607536"><ele>1039.0</ele><time>2026-05-03T11:19:06.114Z</time></trkpt><trkpt lat="44.1424538" lon="6.7609029"><ele>1039.0</ele><time>2026-05-03T11:19:07.114Z</time></trkpt><trkpt lat="44.1424223" lon="6.7610359"><ele>1039.0</ele><time>2026-05-03T11:19:08.114Z</time></trkpt><trkpt lat="44.1423919" lon="6.7611675"><ele>1039.0</ele><time>2026-05-03T11:19:09.113Z</time></trkpt><trkpt lat="44.142347" lon="6.7612896"><ele>1039.0</ele><time>2026-05-03T11:19:10.114Z</time></trkpt><trkpt lat="44.1422764" lon="6.7614185"><ele>1039.0</ele><time>2026-05-03T11:19:11.113Z</time></trkpt><trkpt lat="44.1421895" lon="6.7615269"><ele>1039.0</ele><time>2026-05-03T11:19:12.114Z</time></trkpt><trkpt lat="44.1421087" lon="6.7616278"><ele>1039.0</ele><time>2026-05-03T11:19:13.114Z</time></trkpt><trkpt lat="44.142034" lon="6.7617241"><ele>1039.0</ele><time>2026-05-03T11:19:14.114Z</time></trkpt><trkpt lat="44.1419511" lon="6.7618241"><ele>1039.0</ele><time>2026-05-03T11:19:15.114Z</time></trkpt><trkpt lat="44.1418644" lon="6.7619095"><ele>1040.6666666666665</ele><time>2026-05-03T11:19:16.114Z</time></trkpt><trkpt lat="44.1417951" lon="6.7619971"><ele>1042.3333333333333</ele><time>2026-05-03T11:19:17.114Z</time></trkpt><trkpt lat="44.141729" lon="6.7620885"><ele>1044.0</ele><time>2026-05-03T11:19:18.114Z</time></trkpt><trkpt lat="44.1416581" lon="6.7621829"><ele>1045.6666666666667</ele><time>2026-05-03T11:19:19.114Z</time></trkpt><trkpt lat="44.1416098" lon="6.7622832"><ele>1047.3333333333335</ele><time>2026-05-03T11:19:20.114Z</time></trkpt><trkpt lat="44.141576" lon="6.7623765"><ele>1049.0</ele><time>2026-05-03T11:19:21.113Z</time></trkpt><trkpt lat="44.1414744" lon="6.7624837"><ele>1049.0</ele><time>2026-05-03T11:19:23.114Z</time></trkpt><trkpt lat="44.1414139" lon="6.7625602"><ele>1049.0</ele><time>2026-05-03T11:19:25.113Z</time></trkpt><trkpt lat="44.141449" lon="6.7626449"><ele>1049.0</ele><time>2026-05-03T11:19:27.114Z</time></trkpt><trkpt lat="44.1415483" lon="6.7626389"><ele>1049.0</ele><time>2026-05-03T11:19:29.114Z</time></trkpt><trkpt lat="44.1416683" lon="6.7626037"><ele>1049.0</ele><time>2026-05-03T11:19:31.114Z</time></trkpt><trkpt lat="44.1417276" lon="6.7625278"><ele>1049.0</ele><time>2026-05-03T11:19:32.114Z</time></trkpt><trkpt lat="44.1417437" lon="6.7623453"><ele>1049.0</ele><time>2026-05-03T11:19:33.113Z</time></trkpt><trkpt lat="44.1417881" lon="6.7622533"><ele>1049.0</ele><time>2026-05-03T11:19:34.114Z</time></trkpt><trkpt lat="44.1418644" lon="6.7621427"><ele>1049.0</ele><time>2026-05-03T11:19:35.114Z</time></trkpt><trkpt lat="44.1419549" lon="6.7620514"><ele>1049.0</ele><time>2026-05-03T11:19:36.114Z</time></trkpt><trkpt lat="44.1420569" lon="6.7619596"><ele>1047.8</ele><time>2026-05-03T11:19:37.113Z</time></trkpt><trkpt lat="44.1421455" lon="6.7618587"><ele>1046.6000000000001</ele><time>2026-05-03T11:19:38.114Z</time></trkpt><trkpt lat="44.1422316" lon="6.7617533"><ele>1045.4</ele><time>2026-05-03T11:19:39.114Z</time></trkpt><trkpt lat="44.1423254" lon="6.7616594"><ele>1044.2</ele><time>2026-05-03T11:19:40.114Z</time></trkpt><trkpt lat="44.1423971" lon="6.7615645"><ele>1043.0</ele><time>2026-05-03T11:19:41.114Z</time></trkpt><trkpt lat="44.1424691" lon="6.761483"><ele>1043.0</ele><time>2026-05-03T11:19:42.114Z</time></trkpt><trkpt lat="44.1425506" lon="6.7614175"><ele>1043.0</ele><time>2026-05-03T11:19:43.114Z</time></trkpt><trkpt lat="44.1426342" lon="6.7613632"><ele>1043.0</ele><time>2026-05-03T11:19:44.114Z</time></trkpt><trkpt lat="44.1427316" lon="6.7613026"><ele>1043.0</ele><time>2026-05-03T11:19:45.114Z</time></trkpt><trkpt lat="44.14283" lon="6.7612751"><ele>1043.0</ele><time>2026-05-03T11:19:46.113Z</time></trkpt><trkpt lat="44.1429265" lon="6.7612413"><ele>1043.0</ele><time>2026-05-03T11:19:47.113Z</time></trkpt><trkpt lat="44.1430236" lon="6.761206"><ele>1043.0</ele><time>2026-05-03T11:19:48.114Z</time></trkpt><trkpt lat="44.1431101" lon="6.7611213"><ele>1043.0</ele><time>2026-05-03T11:19:49.114Z</time></trkpt><trkpt lat="44.1431931" lon="6.7610409"><ele>1043.0</ele><time>2026-05-03T11:19:50.114Z</time></trkpt><trkpt lat="44.1432756" lon="6.7608918"><ele>1043.0</ele><time>2026-05-03T11:19:51.114Z</time></trkpt><trkpt lat="44.1433478" lon="6.760749"><ele>1044.0</ele><time>2026-05-03T11:19:52.114Z</time></trkpt><trkpt lat="44.1434274" lon="6.7606148"><ele>1045.0</ele><time>2026-05-03T11:19:53.113Z</time></trkpt><trkpt lat="44.1435374" lon="6.7604792"><ele>1046.0</ele><time>2026-05-03T11:19:54.114Z</time></trkpt><trkpt lat="44.1436516" lon="6.7603569"><ele>1047.0</ele><time>2026-05-03T11:19:55.114Z</time></trkpt><trkpt lat="44.1437608" lon="6.7602443"><ele>1048.0</ele><time>2026-05-03T11:19:56.114Z</time></trkpt><trkpt lat="44.1438634" lon="6.7601295"><ele>1049.0</ele><time>2026-05-03T11:19:57.114Z</time></trkpt><trkpt lat="44.1439809" lon="6.7600028"><ele>1050.0</ele><time>2026-05-03T11:19:58.114Z</time></trkpt><trkpt lat="44.144101" lon="6.7598761"><ele>1051.0</ele><time>2026-05-03T11:19:59.113Z</time></trkpt><trkpt lat="44.144211" lon="6.7597283"><ele>1051.0</ele><time>2026-05-03T11:20:00.114Z</time></trkpt><trkpt lat="44.1443113" lon="6.759573"><ele>1051.0</ele><time>2026-05-03T11:20:01.114Z</time></trkpt><trkpt lat="44.144424" lon="6.7594224"><ele>1051.0</ele><time>2026-05-03T11:20:02.114Z</time></trkpt><trkpt lat="44.1445386" lon="6.7592759"><ele>1056.0</ele><time>2026-05-03T11:20:03.113Z</time></trkpt><trkpt lat="44.1446433" lon="6.7591191"><ele>1061.0</ele><time>2026-05-03T11:20:04.114Z</time></trkpt><trkpt lat="44.144734" lon="6.7589415"><ele>1066.0</ele><time>2026-05-03T11:20:05.114Z</time></trkpt><trkpt lat="44.1448175" lon="6.7587846"><ele>1064.75</ele><time>2026-05-03T11:20:06.113Z</time></trkpt><trkpt lat="44.1448951" lon="6.7586121"><ele>1063.5</ele><time>2026-05-03T11:20:07.114Z</time></trkpt><trkpt lat="44.144971" lon="6.7584448"><ele>1062.25</ele><time>2026-05-03T11:20:08.114Z</time></trkpt><trkpt lat="44.1450272" lon="6.7582881"><ele>1061.0</ele><time>2026-05-03T11:20:09.114Z</time></trkpt><trkpt lat="44.1451177" lon="6.7581481"><ele>1061.0</ele><time>2026-05-03T11:20:10.114Z</time></trkpt><trkpt lat="44.1452217" lon="6.7580086"><ele>1061.0</ele><time>2026-05-03T11:20:11.114Z</time></trkpt><trkpt lat="44.1453334" lon="6.7578915"><ele>1061.0</ele><time>2026-05-03T11:20:12.114Z</time></trkpt><trkpt lat="44.1454691" lon="6.7578077"><ele>1061.0</ele><time>2026-05-03T11:20:13.114Z</time></trkpt><trkpt lat="44.1455891" lon="6.7577292"><ele>1062.6666666666667</ele><time>2026-05-03T11:20:14.113Z</time></trkpt><trkpt lat="44.1457319" lon="6.7576542"><ele>1064.3333333333333</ele><time>2026-05-03T11:20:15.114Z</time></trkpt><trkpt lat="44.1458916" lon="6.7575962"><ele>1066.0</ele><time>2026-05-03T11:20:16.114Z</time></trkpt><trkpt lat="44.146065" lon="6.7575367"><ele>1066.0</ele><time>2026-05-03T11:20:17.113Z</time></trkpt><trkpt lat="44.1462344" lon="6.7574838"><ele>1066.0</ele><time>2026-05-03T11:20:18.113Z</time></trkpt><trkpt lat="44.1464009" lon="6.7574284"><ele>1066.0</ele><time>2026-05-03T11:20:19.114Z</time></trkpt><trkpt lat="44.1465656" lon="6.7573814"><ele>1065.6666666666665</ele><time>2026-05-03T11:20:20.114Z</time></trkpt><trkpt lat="44.14673" lon="6.7573305"><ele>1065.3333333333333</ele><time>2026-05-03T11:20:21.114Z</time></trkpt><trkpt lat="44.1468814" lon="6.7572722"><ele>1065.0</ele><time>2026-05-03T11:20:22.114Z</time></trkpt><trkpt lat="44.1470456" lon="6.7572005"><ele>1065.0</ele><time>2026-05-03T11:20:23.113Z</time></trkpt><trkpt lat="44.1471556" lon="6.7572451"><ele>1065.0</ele><time>2026-05-03T11:20:24.113Z</time></trkpt><trkpt lat="44.1472957" lon="6.7572712"><ele>1065.0</ele><time>2026-05-03T11:20:25.113Z</time></trkpt><trkpt lat="44.1474442" lon="6.7573114"><ele>1065.0</ele><time>2026-05-03T11:20:26.114Z</time></trkpt><trkpt lat="44.1476" lon="6.7573336"><ele>1065.3333333333333</ele><time>2026-05-03T11:20:27.114Z</time></trkpt><trkpt lat="44.1477569" lon="6.7573311"><ele>1065.6666666666665</ele><time>2026-05-03T11:20:28.114Z</time></trkpt><trkpt lat="44.1479097" lon="6.7573142"><ele>1066.0</ele><time>2026-05-03T11:20:29.113Z</time></trkpt><trkpt lat="44.1480773" lon="6.757296"><ele>1066.3333333333333</ele><time>2026-05-03T11:20:30.114Z</time></trkpt><trkpt lat="44.1482513" lon="6.7572567"><ele>1066.6666666666667</ele><time>2026-05-03T11:20:31.114Z</time></trkpt><trkpt lat="44.1484226" lon="6.7572087"><ele>1067.0</ele><time>2026-05-03T11:20:32.114Z</time></trkpt><trkpt lat="44.1486034" lon="6.7571194"><ele>1067.0</ele><time>2026-05-03T11:20:33.114Z</time></trkpt><trkpt lat="44.1487961" lon="6.75699"><ele>1067.0</ele><time>2026-05-03T11:20:34.113Z</time></trkpt><trkpt lat="44.1489592" lon="6.7568928"><ele>1067.0</ele><time>2026-05-03T11:20:35.114Z</time></trkpt><trkpt lat="44.1491237" lon="6.7567888"><ele>1071.6666666666667</ele><time>2026-05-03T11:20:36.113Z</time></trkpt><trkpt lat="44.149276" lon="6.7566977"><ele>1076.3333333333333</ele><time>2026-05-03T11:20:37.114Z</time></trkpt><trkpt lat="44.1494323" lon="6.7565985"><ele>1081.0</ele><time>2026-05-03T11:20:38.114Z</time></trkpt><trkpt lat="44.1495964" lon="6.7565574"><ele>1081.0</ele><time>2026-05-03T11:20:39.114Z</time></trkpt><trkpt lat="44.1497691" lon="6.7565094"><ele>1081.0</ele><time>2026-05-03T11:20:40.114Z</time></trkpt><trkpt lat="44.1499264" lon="6.756467"><ele>1081.0</ele><time>2026-05-03T11:20:41.114Z</time></trkpt><trkpt lat="44.1500647" lon="6.7564372"><ele>1080.5</ele><time>2026-05-03T11:20:42.114Z</time></trkpt><trkpt lat="44.150215" lon="6.7564139"><ele>1080.0</ele><time>2026-05-03T11:20:43.114Z</time></trkpt><trkpt lat="44.1503523" lon="6.756414"><ele>1079.5</ele><time>2026-05-03T11:20:44.114Z</time></trkpt><trkpt lat="44.1504601" lon="6.7564925"><ele>1079.0</ele><time>2026-05-03T11:20:45.114Z</time></trkpt><trkpt lat="44.15056" lon="6.7565762"><ele>1079.0</ele><time>2026-05-03T11:20:46.114Z</time></trkpt><trkpt lat="44.1506598" lon="6.7566583"><ele>1079.0</ele><time>2026-05-03T11:20:47.113Z</time></trkpt><trkpt lat="44.150764" lon="6.7567252"><ele>1079.0</ele><time>2026-05-03T11:20:48.114Z</time></trkpt><trkpt lat="44.1508875" lon="6.7567832"><ele>1079.0</ele><time>2026-05-03T11:20:49.114Z</time></trkpt><trkpt lat="44.1510258" lon="6.7567589"><ele>1079.75</ele><time>2026-05-03T11:20:50.114Z</time></trkpt><trkpt lat="44.1511563" lon="6.7567492"><ele>1080.5</ele><time>2026-05-03T11:20:51.114Z</time></trkpt><trkpt lat="44.1512856" lon="6.7567267"><ele>1081.25</ele><time>2026-05-03T11:20:52.113Z</time></trkpt><trkpt lat="44.1514654" lon="6.7566647"><ele>1082.0</ele><time>2026-05-03T11:20:53.114Z</time></trkpt><trkpt lat="44.1516162" lon="6.7566287"><ele>1083.3333333333335</ele><time>2026-05-03T11:20:54.114Z</time></trkpt><trkpt lat="44.1518281" lon="6.7565777"><ele>1084.6666666666667</ele><time>2026-05-03T11:20:55.114Z</time></trkpt><trkpt lat="44.152023" lon="6.7565142"><ele>1086.0</ele><time>2026-05-03T11:20:56.114Z</time></trkpt><trkpt lat="44.1521979" lon="6.7564656"><ele>1086.0</ele><time>2026-05-03T11:20:57.114Z</time></trkpt><trkpt lat="44.1523665" lon="6.7564195"><ele>1086.0</ele><time>2026-05-03T11:20:58.114Z</time></trkpt><trkpt lat="44.1525405" lon="6.7564051"><ele>1086.0</ele><time>2026-05-03T11:20:59.113Z</time></trkpt><trkpt lat="44.1527192" lon="6.7564106"><ele>1086.3333333333333</ele><time>2026-05-03T11:21:00.113Z</time></trkpt><trkpt lat="44.1529027" lon="6.7564241"><ele>1086.6666666666665</ele><time>2026-05-03T11:21:01.113Z</time></trkpt><trkpt lat="44.1530809" lon="6.7564318"><ele>1087.0</ele><time>2026-05-03T11:21:02.114Z</time></trkpt><trkpt lat="44.1532528" lon="6.7564329"><ele>1087.0</ele><time>2026-05-03T11:21:03.114Z</time></trkpt><trkpt lat="44.1534224" lon="6.7564318"><ele>1087.0</ele><time>2026-05-03T11:21:04.114Z</time></trkpt><trkpt lat="44.1535699" lon="6.7564693"><ele>1087.0</ele><time>2026-05-03T11:21:05.114Z</time></trkpt><trkpt lat="44.1537242" lon="6.7565355"><ele>1087.0</ele><time>2026-05-03T11:21:06.114Z</time></trkpt><trkpt lat="44.1538625" lon="6.7566041"><ele>1087.0</ele><time>2026-05-03T11:21:07.114Z</time></trkpt><trkpt lat="44.1540151" lon="6.7566756"><ele>1087.0</ele><time>2026-05-03T11:21:08.113Z</time></trkpt><trkpt lat="44.1541706" lon="6.756739"><ele>1089.6666666666665</ele><time>2026-05-03T11:21:09.114Z</time></trkpt><trkpt lat="44.1543322" lon="6.756791"><ele>1092.3333333333333</ele><time>2026-05-03T11:21:10.113Z</time></trkpt><trkpt lat="44.1544967" lon="6.7568453"><ele>1095.0</ele><time>2026-05-03T11:21:11.113Z</time></trkpt><trkpt lat="44.1546413" lon="6.7569206"><ele>1090.5</ele><time>2026-05-03T11:21:12.114Z</time></trkpt><trkpt lat="44.1547892" lon="6.7570141"><ele>1086.0</ele><time>2026-05-03T11:21:13.114Z</time></trkpt><trkpt lat="44.1549263" lon="6.7571129"><ele>1081.5</ele><time>2026-05-03T11:21:14.113Z</time></trkpt><trkpt lat="44.1550536" lon="6.7571621"><ele>1077.0</ele><time>2026-05-03T11:21:15.114Z</time></trkpt><trkpt lat="44.1551773" lon="6.7571967"><ele>1077.0</ele><time>2026-05-03T11:21:16.113Z</time></trkpt><trkpt lat="44.1553045" lon="6.7572272"><ele>1077.0</ele><time>2026-05-03T11:21:17.114Z</time></trkpt><trkpt lat="44.1554193" lon="6.7572354"><ele>1077.0</ele><time>2026-05-03T11:21:18.114Z</time></trkpt><trkpt lat="44.155542" lon="6.7572405"><ele>1077.0</ele><time>2026-05-03T11:21:19.114Z</time></trkpt><trkpt lat="44.1556705" lon="6.7572347"><ele>1077.5</ele><time>2026-05-03T11:21:20.114Z</time></trkpt><trkpt lat="44.1558239" lon="6.7572426"><ele>1078.0</ele><time>2026-05-03T11:21:21.114Z</time></trkpt><trkpt lat="44.1559755" lon="6.7572522"><ele>1078.5</ele><time>2026-05-03T11:21:22.114Z</time></trkpt><trkpt lat="44.156112" lon="6.7572815"><ele>1079.0</ele><time>2026-05-03T11:21:23.113Z</time></trkpt><trkpt lat="44.15624" lon="6.7573288"><ele>1079.0</ele><time>2026-05-03T11:21:24.114Z</time></trkpt><trkpt lat="44.1563669" lon="6.7573805"><ele>1079.0</ele><time>2026-05-03T11:21:25.114Z</time></trkpt><trkpt lat="44.1590226" lon="6.7575414"><ele>1089.75</ele><time>2026-05-03T11:21:43.114Z</time></trkpt><trkpt lat="44.1591686" lon="6.7575503"><ele>1100.5</ele><time>2026-05-03T11:21:44.114Z</time></trkpt><trkpt lat="44.1592777" lon="6.757535"><ele>1111.25</ele><time>2026-05-03T11:21:45.114Z</time></trkpt><trkpt lat="44.1593783" lon="6.7575004"><ele>1122.0</ele><time>2026-05-03T11:21:46.113Z</time></trkpt><trkpt lat="44.1594899" lon="6.7574662"><ele>1122.0</ele><time>2026-05-03T11:21:47.114Z</time></trkpt><trkpt lat="44.1596276" lon="6.7574334"><ele>1122.0</ele><time>2026-05-03T11:21:48.113Z</time></trkpt><trkpt lat="44.1597757" lon="6.7574112"><ele>1122.0</ele><time>2026-05-03T11:21:49.114Z</time></trkpt><trkpt lat="44.159921" lon="6.7574672"><ele>1122.0</ele><time>2026-05-03T11:21:50.114Z</time></trkpt><trkpt lat="44.1600779" lon="6.7575041"><ele>1122.5</ele><time>2026-05-03T11:21:51.113Z</time></trkpt><trkpt lat="44.1602281" lon="6.7574789"><ele>1123.0</ele><time>2026-05-03T11:21:52.114Z</time></trkpt><trkpt lat="44.1603413" lon="6.7574029"><ele>1123.5</ele><time>2026-05-03T11:21:53.114Z</time></trkpt><trkpt lat="44.1604349" lon="6.7573391"><ele>1124.0</ele><time>2026-05-03T11:21:54.114Z</time></trkpt><trkpt lat="44.1605153" lon="6.7571991"><ele>1124.0</ele><time>2026-05-03T11:21:55.113Z</time></trkpt><trkpt lat="44.1605776" lon="6.7570433"><ele>1124.0</ele><time>2026-05-03T11:21:56.114Z</time></trkpt><trkpt lat="44.1606305" lon="6.7568628"><ele>1124.0</ele><time>2026-05-03T11:21:57.114Z</time></trkpt><trkpt lat="44.1606938" lon="6.7567043"><ele>1124.0</ele><time>2026-05-03T11:21:58.113Z</time></trkpt><trkpt lat="44.1607826" lon="6.7565849"><ele>1123.6666666666667</ele><time>2026-05-03T11:21:59.114Z</time></trkpt><trkpt lat="44.1609231" lon="6.7564641"><ele>1123.3333333333333</ele><time>2026-05-03T11:22:00.114Z</time></trkpt><trkpt lat="44.1610578" lon="6.7563397"><ele>1123.0</ele><time>2026-05-03T11:22:01.114Z</time></trkpt><trkpt lat="44.1611877" lon="6.7562316"><ele>1123.0</ele><time>2026-05-03T11:22:02.114Z</time></trkpt><trkpt lat="44.1613532" lon="6.7561035"><ele>1123.0</ele><time>2026-05-03T11:22:03.114Z</time></trkpt><trkpt lat="44.1615258" lon="6.755969"><ele>1123.0</ele><time>2026-05-03T11:22:04.113Z</time></trkpt><trkpt lat="44.1616819" lon="6.7558449"><ele>1126.3333333333333</ele><time>2026-05-03T11:22:05.114Z</time></trkpt><trkpt lat="44.1618359" lon="6.7557674"><ele>1129.6666666666667</ele><time>2026-05-03T11:22:06.114Z</time></trkpt><trkpt lat="44.1619843" lon="6.7556884"><ele>1133.0</ele><time>2026-05-03T11:22:07.113Z</time></trkpt><trkpt lat="44.1621357" lon="6.7556198"><ele>1133.0</ele><time>2026-05-03T11:22:08.114Z</time></trkpt><trkpt lat="44.1622827" lon="6.7555677"><ele>1133.0</ele><time>2026-05-03T11:22:09.114Z</time></trkpt><trkpt lat="44.1624438" lon="6.7555212"><ele>1133.0</ele><time>2026-05-03T11:22:10.114Z</time></trkpt><trkpt lat="44.162555" lon="6.7554695"><ele>1133.0</ele><time>2026-05-03T11:22:11.114Z</time></trkpt><trkpt lat="44.1626981" lon="6.7554073"><ele>1133.6</ele><time>2026-05-03T11:22:12.114Z</time></trkpt><trkpt lat="44.1628277" lon="6.7553163"><ele>1134.1999999999998</ele><time>2026-05-03T11:22:13.113Z</time></trkpt><trkpt lat="44.162885" lon="6.7552584"><ele>1134.8</ele><time>2026-05-03T11:22:14.114Z</time></trkpt><trkpt lat="44.1629344" lon="6.7551569"><ele>1135.3999999999999</ele><time>2026-05-03T11:22:15.114Z</time></trkpt><trkpt lat="44.1629814" lon="6.7549917"><ele>1136.0</ele><time>2026-05-03T11:22:16.114Z</time></trkpt><trkpt lat="44.1630044" lon="6.754793"><ele>1136.0</ele><time>2026-05-03T11:22:17.114Z</time></trkpt><trkpt lat="44.162951" lon="6.7545514"><ele>1136.0</ele><time>2026-05-03T11:22:18.114Z</time></trkpt><trkpt lat="44.1629601" lon="6.7543611"><ele>1136.0</ele><time>2026-05-03T11:22:19.114Z</time></trkpt><trkpt lat="44.1629587" lon="6.7541775"><ele>1139.75</ele><time>2026-05-03T11:22:20.114Z</time></trkpt><trkpt lat="44.1629192" lon="6.7540104"><ele>1143.5</ele><time>2026-05-03T11:22:21.114Z</time></trkpt><trkpt lat="44.1628836" lon="6.7538385"><ele>1147.25</ele><time>2026-05-03T11:22:22.114Z</time></trkpt><trkpt lat="44.1628822" lon="6.7536813"><ele>1151.0</ele><time>2026-05-03T11:22:23.114Z</time></trkpt><trkpt lat="44.1628494" lon="6.7535502"><ele>1152.2</ele><time>2026-05-03T11:22:24.113Z</time></trkpt><trkpt lat="44.1629617" lon="6.7534896"><ele>1153.3999999999999</ele><time>2026-05-03T11:22:25.114Z</time></trkpt><trkpt lat="44.1630561" lon="6.7534529"><ele>1154.6</ele><time>2026-05-03T11:22:26.114Z</time></trkpt><trkpt lat="44.1631507" lon="6.7534685"><ele>1155.8</ele><time>2026-05-03T11:22:27.114Z</time></trkpt><trkpt lat="44.1632586" lon="6.7535079"><ele>1157.0</ele><time>2026-05-03T11:22:28.114Z</time></trkpt><trkpt lat="44.163343" lon="6.75369"><ele>1152.6</ele><time>2026-05-03T11:22:29.114Z</time></trkpt><trkpt lat="44.1634177" lon="6.7538212"><ele>1148.2</ele><time>2026-05-03T11:22:30.114Z</time></trkpt><trkpt lat="44.1634929" lon="6.7539409"><ele>1143.8</ele><time>2026-05-03T11:22:31.114Z</time></trkpt><trkpt lat="44.1635738" lon="6.7540097"><ele>1139.4</ele><time>2026-05-03T11:22:32.114Z</time></trkpt><trkpt lat="44.1636672" lon="6.7540467"><ele>1135.0</ele><time>2026-05-03T11:22:33.114Z</time></trkpt><trkpt lat="44.1637956" lon="6.7540586"><ele>1135.0</ele><time>2026-05-03T11:22:34.114Z</time></trkpt><trkpt lat="44.1639397" lon="6.7539665"><ele>1135.0</ele><time>2026-05-03T11:22:35.114Z</time></trkpt><trkpt lat="44.1640795" lon="6.7538927"><ele>1135.0</ele><time>2026-05-03T11:22:36.114Z</time></trkpt><trkpt lat="44.1642473" lon="6.7538311"><ele>1135.0</ele><time>2026-05-03T11:22:37.114Z</time></trkpt><trkpt lat="44.1644294" lon="6.7537625"><ele>1135.0</ele><time>2026-05-03T11:22:38.114Z</time></trkpt><trkpt lat="44.1645999" lon="6.753691"><ele>1135.0</ele><time>2026-05-03T11:22:39.113Z</time></trkpt><trkpt lat="44.1647941" lon="6.7536069"><ele>1146.3333333333333</ele><time>2026-05-03T11:22:40.114Z</time></trkpt><trkpt lat="44.1649718" lon="6.7535261"><ele>1157.6666666666667</ele><time>2026-05-03T11:22:41.114Z</time></trkpt><trkpt lat="44.165136" lon="6.7534443"><ele>1169.0</ele><time>2026-05-03T11:22:42.114Z</time></trkpt><trkpt lat="44.1652995" lon="6.7533859"><ele>1169.0</ele><time>2026-05-03T11:22:43.114Z</time></trkpt><trkpt lat="44.1654509" lon="6.753345"><ele>1169.0</ele><time>2026-05-03T11:22:44.113Z</time></trkpt><trkpt lat="44.1655957" lon="6.7533203"><ele>1169.0</ele><time>2026-05-03T11:22:45.114Z</time></trkpt><trkpt lat="44.165736" lon="6.753315"><ele>1169.0</ele><time>2026-05-03T11:22:46.113Z</time></trkpt><trkpt lat="44.1658717" lon="6.7532655"><ele>1161.3333333333335</ele><time>2026-05-03T11:22:47.113Z</time></trkpt><trkpt lat="44.1660187" lon="6.7531701"><ele>1153.6666666666667</ele><time>2026-05-03T11:22:48.113Z</time></trkpt><trkpt lat="44.1661598" lon="6.7530726"><ele>1146.0</ele><time>2026-05-03T11:22:49.114Z</time></trkpt><trkpt lat="44.1663066" lon="6.7529576"><ele>1146.0</ele><time>2026-05-03T11:22:50.114Z</time></trkpt><trkpt lat="44.1664699" lon="6.7528304"><ele>1146.0</ele><time>2026-05-03T11:22:51.114Z</time></trkpt><trkpt lat="44.1666207" lon="6.7526937"><ele>1146.0</ele><time>2026-05-03T11:22:52.114Z</time></trkpt><trkpt lat="44.1667872" lon="6.7525801"><ele>1156.3333333333333</ele><time>2026-05-03T11:22:53.114Z</time></trkpt><trkpt lat="44.1669435" lon="6.7525003"><ele>1166.6666666666665</ele><time>2026-05-03T11:22:54.113Z</time></trkpt><trkpt lat="44.1670934" lon="6.7524068"><ele>1177.0</ele><time>2026-05-03T11:22:55.114Z</time></trkpt><trkpt lat="44.1672104" lon="6.7522494"><ele>1177.0</ele><time>2026-05-03T11:22:56.113Z</time></trkpt><trkpt lat="44.167325" lon="6.7521398"><ele>1177.0</ele><time>2026-05-03T11:22:57.113Z</time></trkpt><trkpt lat="44.1674536" lon="6.7520194"><ele>1177.0</ele><time>2026-05-03T11:22:58.114Z</time></trkpt><trkpt lat="44.167577" lon="6.7519364"><ele>1177.0</ele><time>2026-05-03T11:22:59.114Z</time></trkpt><trkpt lat="44.1677218" lon="6.751867"><ele>1181.0</ele><time>2026-05-03T11:23:00.114Z</time></trkpt><trkpt lat="44.1678849" lon="6.7518051"><ele>1185.0</ele><time>2026-05-03T11:23:01.114Z</time></trkpt><trkpt lat="44.1680284" lon="6.7517471"><ele>1189.0</ele><time>2026-05-03T11:23:02.113Z</time></trkpt><trkpt lat="44.1681801" lon="6.7516862"><ele>1185.3333333333333</ele><time>2026-05-03T11:23:03.114Z</time></trkpt><trkpt lat="44.1683395" lon="6.7516382"><ele>1181.6666666666667</ele><time>2026-05-03T11:23:04.114Z</time></trkpt><trkpt lat="44.1684971" lon="6.7515895"><ele>1178.0</ele><time>2026-05-03T11:23:05.113Z</time></trkpt><trkpt lat="44.1686521" lon="6.7515628"><ele>1178.0</ele><time>2026-05-03T11:23:06.114Z</time></trkpt><trkpt lat="44.1688252" lon="6.7515571"><ele>1178.0</ele><time>2026-05-03T11:23:07.114Z</time></trkpt><trkpt lat="44.1690188" lon="6.7514922"><ele>1178.0</ele><time>2026-05-03T11:23:08.113Z</time></trkpt><trkpt lat="44.169185" lon="6.7514806"><ele>1176.0</ele><time>2026-05-03T11:23:09.114Z</time></trkpt><trkpt lat="44.1693451" lon="6.751472"><ele>1174.0</ele><time>2026-05-03T11:23:10.114Z</time></trkpt><trkpt lat="44.169517" lon="6.7514494"><ele>1172.0</ele><time>2026-05-03T11:23:11.114Z</time></trkpt><trkpt lat="44.1696689" lon="6.7514644"><ele>1172.0</ele><time>2026-05-03T11:23:12.113Z</time></trkpt><trkpt lat="44.1698155" lon="6.7514808"><ele>1172.0</ele><time>2026-05-03T11:23:13.114Z</time></trkpt><trkpt lat="44.1699651" lon="6.7515054"><ele>1172.0</ele><time>2026-05-03T11:23:14.114Z</time></trkpt><trkpt lat="44.1701221" lon="6.7514663"><ele>1171.6666666666667</ele><time>2026-05-03T11:23:15.114Z</time></trkpt><trkpt lat="44.1702922" lon="6.7514204"><ele>1171.3333333333333</ele><time>2026-05-03T11:23:16.114Z</time></trkpt><trkpt lat="44.1704758" lon="6.7513209"><ele>1171.0</ele><time>2026-05-03T11:23:17.114Z</time></trkpt><trkpt lat="44.1706439" lon="6.7512463"><ele>1168.75</ele><time>2026-05-03T11:23:18.114Z</time></trkpt><trkpt lat="44.1707865" lon="6.751138"><ele>1166.5</ele><time>2026-05-03T11:23:19.113Z</time></trkpt><trkpt lat="44.1709123" lon="6.7510362"><ele>1164.25</ele><time>2026-05-03T11:23:20.114Z</time></trkpt><trkpt lat="44.1710314" lon="6.7509625"><ele>1162.0</ele><time>2026-05-03T11:23:21.114Z</time></trkpt><trkpt lat="44.1711359" lon="6.7509816"><ele>1166.75</ele><time>2026-05-03T11:23:22.114Z</time></trkpt><trkpt lat="44.1712681" lon="6.7509369"><ele>1171.5</ele><time>2026-05-03T11:23:23.114Z</time></trkpt><trkpt lat="44.1713772" lon="6.7508892"><ele>1176.25</ele><time>2026-05-03T11:23:24.114Z</time></trkpt><trkpt lat="44.1714863" lon="6.7507175"><ele>1181.0</ele><time>2026-05-03T11:23:25.114Z</time></trkpt><trkpt lat="44.1715959" lon="6.7505945"><ele>1181.0</ele><time>2026-05-03T11:23:26.114Z</time></trkpt><trkpt lat="44.1717115" lon="6.7504589"><ele>1181.0</ele><time>2026-05-03T11:23:27.114Z</time></trkpt><trkpt lat="44.171858" lon="6.7503105"><ele>1181.0</ele><time>2026-05-03T11:23:28.114Z</time></trkpt><trkpt lat="44.1720011" lon="6.7501757"><ele>1187.6666666666667</ele><time>2026-05-03T11:23:29.114Z</time></trkpt><trkpt lat="44.172141" lon="6.7500781"><ele>1194.3333333333333</ele><time>2026-05-03T11:23:30.114Z</time></trkpt><trkpt lat="44.1722725" lon="6.749983"><ele>1201.0</ele><time>2026-05-03T11:23:31.114Z</time></trkpt><trkpt lat="44.1724167" lon="6.7499078"><ele>1201.0</ele><time>2026-05-03T11:23:32.114Z</time></trkpt><trkpt lat="44.1725601" lon="6.7498723"><ele>1201.0</ele><time>2026-05-03T11:23:33.114Z</time></trkpt><trkpt lat="44.1727164" lon="6.7499117"><ele>1201.0</ele><time>2026-05-03T11:23:34.114Z</time></trkpt><trkpt lat="44.1728664" lon="6.7499205"><ele>1201.0</ele><time>2026-05-03T11:23:35.113Z</time></trkpt><trkpt lat="44.1730086" lon="6.7499572"><ele>1201.0</ele><time>2026-05-03T11:23:36.113Z</time></trkpt><trkpt lat="44.1731408" lon="6.750057"><ele>1201.0</ele><time>2026-05-03T11:23:37.114Z</time></trkpt><trkpt lat="44.173253" lon="6.7501665"><ele>1201.0</ele><time>2026-05-03T11:23:38.114Z</time></trkpt><trkpt lat="44.1733744" lon="6.7502547"><ele>1196.0</ele><time>2026-05-03T11:23:39.114Z</time></trkpt><trkpt lat="44.173502" lon="6.7502295"><ele>1191.0</ele><time>2026-05-03T11:23:40.114Z</time></trkpt><trkpt lat="44.1736316" lon="6.7502689"><ele>1186.0</ele><time>2026-05-03T11:23:41.114Z</time></trkpt><trkpt lat="44.1737574" lon="6.7502699"><ele>1181.0</ele><time>2026-05-03T11:23:42.114Z</time></trkpt><trkpt lat="44.1738959" lon="6.7502838"><ele>1181.5</ele><time>2026-05-03T11:23:43.114Z</time></trkpt><trkpt lat="44.1740447" lon="6.7502348"><ele>1182.0</ele><time>2026-05-03T11:23:44.114Z</time></trkpt><trkpt lat="44.1741838" lon="6.7502207"><ele>1182.5</ele><time>2026-05-03T11:23:45.114Z</time></trkpt><trkpt lat="44.1743166" lon="6.7501896"><ele>1183.0</ele><time>2026-05-03T11:23:46.113Z</time></trkpt><trkpt lat="44.1744328" lon="6.7501182"><ele>1189.6666666666665</ele><time>2026-05-03T11:23:47.113Z</time></trkpt><trkpt lat="44.1745533" lon="6.7500048"><ele>1196.3333333333333</ele><time>2026-05-03T11:23:48.114Z</time></trkpt><trkpt lat="44.1746833" lon="6.7498612"><ele>1203.0</ele><time>2026-05-03T11:23:49.114Z</time></trkpt><trkpt lat="44.1748228" lon="6.7497109"><ele>1199.0</ele><time>2026-05-03T11:23:50.114Z</time></trkpt><trkpt lat="44.1749666" lon="6.7496607"><ele>1195.0</ele><time>2026-05-03T11:23:51.114Z</time></trkpt><trkpt lat="44.1750935" lon="6.7496299"><ele>1191.0</ele><time>2026-05-03T11:23:52.114Z</time></trkpt><trkpt lat="44.1752157" lon="6.7496314"><ele>1187.0</ele><time>2026-05-03T11:23:53.114Z</time></trkpt><trkpt lat="44.1753662" lon="6.7495184"><ele>1187.0</ele><time>2026-05-03T11:23:54.114Z</time></trkpt><trkpt lat="44.1754981" lon="6.7494277"><ele>1187.0</ele><time>2026-05-03T11:23:55.113Z</time></trkpt><trkpt lat="44.1756108" lon="6.7493737"><ele>1187.0</ele><time>2026-05-03T11:23:56.114Z</time></trkpt><trkpt lat="44.175737" lon="6.7493152"><ele>1187.0</ele><time>2026-05-03T11:23:57.114Z</time></trkpt><trkpt lat="44.1758857" lon="6.7492575"><ele>1194.0</ele><time>2026-05-03T11:23:58.114Z</time></trkpt><trkpt lat="44.1760388" lon="6.7492048"><ele>1201.0</ele><time>2026-05-03T11:23:59.114Z</time></trkpt><trkpt lat="44.1761927" lon="6.7491467"><ele>1208.0</ele><time>2026-05-03T11:24:00.113Z</time></trkpt><trkpt lat="44.1763421" lon="6.7489933"><ele>1208.0</ele><time>2026-05-03T11:24:01.114Z</time></trkpt><trkpt lat="44.1764901" lon="6.7488826"><ele>1208.0</ele><time>2026-05-03T11:24:02.114Z</time></trkpt><trkpt lat="44.1766172" lon="6.7487651"><ele>1208.0</ele><time>2026-05-03T11:24:03.114Z</time></trkpt><trkpt lat="44.1767363" lon="6.7486432"><ele>1212.3333333333335</ele><time>2026-05-03T11:24:04.114Z</time></trkpt><trkpt lat="44.1768706" lon="6.7485309"><ele>1216.6666666666667</ele><time>2026-05-03T11:24:05.114Z</time></trkpt><trkpt lat="44.1770146" lon="6.7484711"><ele>1221.0</ele><time>2026-05-03T11:24:06.114Z</time></trkpt><trkpt lat="44.1771631" lon="6.7484228"><ele>1221.0</ele><time>2026-05-03T11:24:07.114Z</time></trkpt><trkpt lat="44.1773107" lon="6.7483858"><ele>1221.0</ele><time>2026-05-03T11:24:08.114Z</time></trkpt><trkpt lat="44.1774494" lon="6.7483383"><ele>1221.0</ele><time>2026-05-03T11:24:09.114Z</time></trkpt><trkpt lat="44.1775717" lon="6.7482874"><ele>1221.0</ele><time>2026-05-03T11:24:10.113Z</time></trkpt><trkpt lat="44.1777022" lon="6.7482396"><ele>1220.25</ele><time>2026-05-03T11:24:11.114Z</time></trkpt><trkpt lat="44.177829" lon="6.7482138"><ele>1219.5</ele><time>2026-05-03T11:24:12.114Z</time></trkpt><trkpt lat="44.1778503" lon="6.7483656"><ele>1218.75</ele><time>2026-05-03T11:24:13.114Z</time></trkpt><trkpt lat="44.1779183" lon="6.7484809"><ele>1218.0</ele><time>2026-05-03T11:24:14.113Z</time></trkpt><trkpt lat="44.1779613" lon="6.7486438"><ele>1217.5</ele><time>2026-05-03T11:24:15.114Z</time></trkpt><trkpt lat="44.1780334" lon="6.7487752"><ele>1217.0</ele><time>2026-05-03T11:24:16.114Z</time></trkpt><trkpt lat="44.1781214" lon="6.7488945"><ele>1216.5</ele><time>2026-05-03T11:24:17.114Z</time></trkpt><trkpt lat="44.1782288" lon="6.7489731"><ele>1216.0</ele><time>2026-05-03T11:24:18.114Z</time></trkpt><trkpt lat="44.1783508" lon="6.7490044"><ele>1216.0</ele><time>2026-05-03T11:24:19.114Z</time></trkpt><trkpt lat="44.1785034" lon="6.7489891"><ele>1216.0</ele><time>2026-05-03T11:24:20.114Z</time></trkpt><trkpt lat="44.1786722" lon="6.7489719"><ele>1216.0</ele><time>2026-05-03T11:24:21.114Z</time></trkpt><trkpt lat="44.1788508" lon="6.7489567"><ele>1216.6666666666665</ele><time>2026-05-03T11:24:22.113Z</time></trkpt><trkpt lat="44.1790215" lon="6.7489241"><ele>1217.3333333333333</ele><time>2026-05-03T11:24:23.114Z</time></trkpt><trkpt lat="44.1792008" lon="6.7488951"><ele>1218.0</ele><time>2026-05-03T11:24:24.114Z</time></trkpt><trkpt lat="44.1793558" lon="6.7488979"><ele>1218.0</ele><time>2026-05-03T11:24:25.114Z</time></trkpt><trkpt lat="44.1795128" lon="6.7489093"><ele>1218.0</ele><time>2026-05-03T11:24:26.114Z</time></trkpt><trkpt lat="44.1796823" lon="6.7489408"><ele>1218.0</ele><time>2026-05-03T11:24:27.114Z</time></trkpt><trkpt lat="44.1798252" lon="6.749003"><ele>1216.6666666666667</ele><time>2026-05-03T11:24:28.114Z</time></trkpt><trkpt lat="44.1799761" lon="6.7490121"><ele>1215.3333333333335</ele><time>2026-05-03T11:24:29.114Z</time></trkpt><trkpt lat="44.1801387" lon="6.7490003"><ele>1214.0</ele><time>2026-05-03T11:24:30.114Z</time></trkpt><trkpt lat="44.1802987" lon="6.7489621"><ele>1214.0</ele><time>2026-05-03T11:24:31.114Z</time></trkpt><trkpt lat="44.1804561" lon="6.7489056"><ele>1214.0</ele><time>2026-05-03T11:24:32.113Z</time></trkpt><trkpt lat="44.1806315" lon="6.7488285"><ele>1214.0</ele><time>2026-05-03T11:24:33.113Z</time></trkpt><trkpt lat="44.1807889" lon="6.7487488"><ele>1213.0</ele><time>2026-05-03T11:24:34.113Z</time></trkpt><trkpt lat="44.1809444" lon="6.7486766"><ele>1212.0</ele><time>2026-05-03T11:24:35.114Z</time></trkpt><trkpt lat="44.1811005" lon="6.7485881"><ele>1211.0</ele><time>2026-05-03T11:24:36.114Z</time></trkpt><trkpt lat="44.1812485" lon="6.748496"><ele>1217.0</ele><time>2026-05-03T11:24:37.114Z</time></trkpt><trkpt lat="44.181376" lon="6.7484138"><ele>1223.0</ele><time>2026-05-03T11:24:38.114Z</time></trkpt><trkpt lat="44.1814885" lon="6.7483245"><ele>1229.0</ele><time>2026-05-03T11:24:39.114Z</time></trkpt><trkpt lat="44.1816032" lon="6.7482643"><ele>1235.0</ele><time>2026-05-03T11:24:40.114Z</time></trkpt><trkpt lat="44.1817404" lon="6.7481678"><ele>1235.0</ele><time>2026-05-03T11:24:41.114Z</time></trkpt><trkpt lat="44.1818655" lon="6.7480774"><ele>1235.0</ele><time>2026-05-03T11:24:42.114Z</time></trkpt><trkpt lat="44.1819701" lon="6.7481395"><ele>1235.0</ele><time>2026-05-03T11:24:43.114Z</time></trkpt><trkpt lat="44.1820947" lon="6.7481475"><ele>1235.0</ele><time>2026-05-03T11:24:44.114Z</time></trkpt><trkpt lat="44.182213" lon="6.7482256"><ele>1238.0</ele><time>2026-05-03T11:24:45.114Z</time></trkpt><trkpt lat="44.1823527" lon="6.7483315"><ele>1241.0</ele><time>2026-05-03T11:24:46.114Z</time></trkpt><trkpt lat="44.1824862" lon="6.7484343"><ele>1244.0</ele><time>2026-05-03T11:24:47.114Z</time></trkpt><trkpt lat="44.1826491" lon="6.7485503"><ele>1235.0</ele><time>2026-05-03T11:24:48.114Z</time></trkpt><trkpt lat="44.1827827" lon="6.74868"><ele>1226.0</ele><time>2026-05-03T11:24:49.114Z</time></trkpt><trkpt lat="44.1829094" lon="6.7487912"><ele>1217.0</ele><time>2026-05-03T11:24:50.114Z</time></trkpt><trkpt lat="44.1830521" lon="6.748879"><ele>1222.3333333333335</ele><time>2026-05-03T11:24:51.114Z</time></trkpt><trkpt lat="44.1832014" lon="6.7489707"><ele>1227.6666666666667</ele><time>2026-05-03T11:24:52.114Z</time></trkpt><trkpt lat="44.1833726" lon="6.7490399"><ele>1233.0</ele><time>2026-05-03T11:24:53.113Z</time></trkpt><trkpt lat="44.1835203" lon="6.7490689"><ele>1233.0</ele><time>2026-05-03T11:24:54.114Z</time></trkpt><trkpt lat="44.1836769" lon="6.7490811"><ele>1233.0</ele><time>2026-05-03T11:24:55.113Z</time></trkpt><trkpt lat="44.1838434" lon="6.7490913"><ele>1233.0</ele><time>2026-05-03T11:24:56.114Z</time></trkpt><trkpt lat="44.1840266" lon="6.7490751"><ele>1233.6666666666667</ele><time>2026-05-03T11:24:57.114Z</time></trkpt><trkpt lat="44.1841927" lon="6.7490497"><ele>1234.3333333333335</ele><time>2026-05-03T11:24:58.114Z</time></trkpt><trkpt lat="44.1843583" lon="6.7489995"><ele>1235.0</ele><time>2026-05-03T11:24:59.114Z</time></trkpt><trkpt lat="44.1845338" lon="6.7489288"><ele>1235.0</ele><time>2026-05-03T11:25:00.113Z</time></trkpt><trkpt lat="44.1847006" lon="6.7488594"><ele>1235.0</ele><time>2026-05-03T11:25:01.114Z</time></trkpt><trkpt lat="44.1848486" lon="6.7487999"><ele>1235.0</ele><time>2026-05-03T11:25:02.113Z</time></trkpt><trkpt lat="44.1850126" lon="6.7487135"><ele>1234.6666666666667</ele><time>2026-05-03T11:25:03.114Z</time></trkpt><trkpt lat="44.185164" lon="6.7486519"><ele>1234.3333333333333</ele><time>2026-05-03T11:25:04.113Z</time></trkpt><trkpt lat="44.1853179" lon="6.7485843"><ele>1234.0</ele><time>2026-05-03T11:25:05.114Z</time></trkpt><trkpt lat="44.185467" lon="6.7485198"><ele>1239.6666666666665</ele><time>2026-05-03T11:25:06.114Z</time></trkpt><trkpt lat="44.1856186" lon="6.7484481"><ele>1245.3333333333333</ele><time>2026-05-03T11:25:07.114Z</time></trkpt><trkpt lat="44.1857693" lon="6.7483758"><ele>1251.0</ele><time>2026-05-03T11:25:08.114Z</time></trkpt><trkpt lat="44.1859042" lon="6.7483063"><ele>1251.0</ele><time>2026-05-03T11:25:09.114Z</time></trkpt><trkpt lat="44.1860494" lon="6.7482215"><ele>1251.0</ele><time>2026-05-03T11:25:10.114Z</time></trkpt><trkpt lat="44.1861617" lon="6.7481751"><ele>1251.0</ele><time>2026-05-03T11:25:11.114Z</time></trkpt><trkpt lat="44.1862817" lon="6.7481265"><ele>1251.0</ele><time>2026-05-03T11:25:12.114Z</time></trkpt><trkpt lat="44.1863907" lon="6.7480628"><ele>1251.0</ele><time>2026-05-03T11:25:13.114Z</time></trkpt><trkpt lat="44.1865009" lon="6.7479926"><ele>1251.0</ele><time>2026-05-03T11:25:14.114Z</time></trkpt><trkpt lat="44.1865922" lon="6.7479263"><ele>1251.0</ele><time>2026-05-03T11:25:15.114Z</time></trkpt><trkpt lat="44.1866888" lon="6.7478674"><ele>1251.0</ele><time>2026-05-03T11:25:16.114Z</time></trkpt><trkpt lat="44.1867813" lon="6.7478228"><ele>1251.0</ele><time>2026-05-03T11:25:17.114Z</time></trkpt><trkpt lat="44.1868712" lon="6.7477653"><ele>1251.0</ele><time>2026-05-03T11:25:18.114Z</time></trkpt><trkpt lat="44.1869573" lon="6.7477319"><ele>1251.0</ele><time>2026-05-03T11:25:19.113Z</time></trkpt><trkpt lat="44.1870691" lon="6.7477103"><ele>1251.0</ele><time>2026-05-03T11:25:20.114Z</time></trkpt><trkpt lat="44.1871748" lon="6.7476901"><ele>1251.0</ele><time>2026-05-03T11:25:21.114Z</time></trkpt><trkpt lat="44.187278" lon="6.7476738"><ele>1251.0</ele><time>2026-05-03T11:25:22.114Z</time></trkpt><trkpt lat="44.1873534" lon="6.7478029"><ele>1251.6666666666667</ele><time>2026-05-03T11:25:23.114Z</time></trkpt><trkpt lat="44.1874391" lon="6.7478957"><ele>1252.3333333333333</ele><time>2026-05-03T11:25:24.114Z</time></trkpt><trkpt lat="44.1875101" lon="6.7479639"><ele>1253.0</ele><time>2026-05-03T11:25:25.114Z</time></trkpt><trkpt lat="44.1875785" lon="6.7480187"><ele>1253.6666666666665</ele><time>2026-05-03T11:25:26.114Z</time></trkpt><trkpt lat="44.187649" lon="6.7480976"><ele>1254.3333333333333</ele><time>2026-05-03T11:25:27.114Z</time></trkpt><trkpt lat="44.1877157" lon="6.7481596"><ele>1255.0</ele><time>2026-05-03T11:25:28.114Z</time></trkpt><trkpt lat="44.1877794" lon="6.7482377"><ele>1255.0</ele><time>2026-05-03T11:25:29.114Z</time></trkpt><trkpt lat="44.187851" lon="6.7482894"><ele>1255.0</ele><time>2026-05-03T11:25:30.113Z</time></trkpt><trkpt lat="44.187921" lon="6.7483481"><ele>1255.0</ele><time>2026-05-03T11:25:31.114Z</time></trkpt><trkpt lat="44.1879926" lon="6.7483965"><ele>1255.0</ele><time>2026-05-03T11:25:32.114Z</time></trkpt><trkpt lat="44.1880635" lon="6.7484376"><ele>1255.0</ele><time>2026-05-03T11:25:33.114Z</time></trkpt><trkpt lat="44.1881343" lon="6.748483"><ele>1255.0</ele><time>2026-05-03T11:25:34.114Z</time></trkpt><trkpt lat="44.1882134" lon="6.7485192"><ele>1256.8</ele><time>2026-05-03T11:25:35.114Z</time></trkpt><trkpt lat="44.1883225" lon="6.7485606"><ele>1258.6</ele><time>2026-05-03T11:25:36.114Z</time></trkpt><trkpt lat="44.1883985" lon="6.7485672"><ele>1260.4</ele><time>2026-05-03T11:25:37.114Z</time></trkpt><trkpt lat="44.1884874" lon="6.7486206"><ele>1262.2</ele><time>2026-05-03T11:25:38.114Z</time></trkpt><trkpt lat="44.1885697" lon="6.7486473"><ele>1264.0</ele><time>2026-05-03T11:25:39.114Z</time></trkpt><trkpt lat="44.1886476" lon="6.7486989"><ele>1264.0</ele><time>2026-05-03T11:25:40.114Z</time></trkpt><trkpt lat="44.1887312" lon="6.7487427"><ele>1264.0</ele><time>2026-05-03T11:25:41.114Z</time></trkpt><trkpt lat="44.1888256" lon="6.7487989"><ele>1264.0</ele><time>2026-05-03T11:25:42.114Z</time></trkpt><trkpt lat="44.1889297" lon="6.7488644"><ele>1264.0</ele><time>2026-05-03T11:25:43.114Z</time></trkpt><trkpt lat="44.1890314" lon="6.7489589"><ele>1264.0</ele><time>2026-05-03T11:25:44.114Z</time></trkpt><trkpt lat="44.1891501" lon="6.7490014"><ele>1264.6000000000001</ele><time>2026-05-03T11:25:45.114Z</time></trkpt><trkpt lat="44.1892403" lon="6.7490428"><ele>1265.2</ele><time>2026-05-03T11:25:46.114Z</time></trkpt><trkpt lat="44.1893311" lon="6.7491099"><ele>1265.8000000000002</ele><time>2026-05-03T11:25:47.113Z</time></trkpt><trkpt lat="44.1894315" lon="6.7491416"><ele>1266.4</ele><time>2026-05-03T11:25:48.114Z</time></trkpt><trkpt lat="44.1895462" lon="6.7491722"><ele>1267.0</ele><time>2026-05-03T11:25:49.114Z</time></trkpt><trkpt lat="44.1896657" lon="6.7491338"><ele>1267.0</ele><time>2026-05-03T11:25:50.114Z</time></trkpt><trkpt lat="44.1897823" lon="6.7491019"><ele>1267.0</ele><time>2026-05-03T11:25:51.114Z</time></trkpt><trkpt lat="44.1899015" lon="6.7490435"><ele>1267.0</ele><time>2026-05-03T11:25:52.114Z</time></trkpt><trkpt lat="44.1900174" lon="6.748986"><ele>1267.0</ele><time>2026-05-03T11:25:53.114Z</time></trkpt><trkpt lat="44.1901464" lon="6.7489058"><ele>1271.0</ele><time>2026-05-03T11:25:54.114Z</time></trkpt><trkpt lat="44.190272" lon="6.748827"><ele>1275.0</ele><time>2026-05-03T11:25:55.114Z</time></trkpt><trkpt lat="44.1903817" lon="6.7487393"><ele>1279.0</ele><time>2026-05-03T11:25:56.114Z</time></trkpt><trkpt lat="44.1904784" lon="6.7486478"><ele>1283.0</ele><time>2026-05-03T11:25:57.114Z</time></trkpt><trkpt lat="44.1905913" lon="6.7485698"><ele>1282.75</ele><time>2026-05-03T11:25:58.114Z</time></trkpt><trkpt lat="44.1907169" lon="6.7484964"><ele>1282.5</ele><time>2026-05-03T11:25:59.114Z</time></trkpt><trkpt lat="44.1908328" lon="6.7484261"><ele>1282.25</ele><time>2026-05-03T11:26:00.114Z</time></trkpt><trkpt lat="44.1909474" lon="6.7483409"><ele>1282.0</ele><time>2026-05-03T11:26:01.114Z</time></trkpt><trkpt lat="44.1910446" lon="6.7482365"><ele>1282.0</ele><time>2026-05-03T11:26:02.114Z</time></trkpt><trkpt lat="44.1911413" lon="6.748132"><ele>1282.0</ele><time>2026-05-03T11:26:03.114Z</time></trkpt><trkpt lat="44.1912374" lon="6.7480465"><ele>1282.0</ele><time>2026-05-03T11:26:04.114Z</time></trkpt><trkpt lat="44.1913411" lon="6.7479627"><ele>1282.0</ele><time>2026-05-03T11:26:05.114Z</time></trkpt><trkpt lat="44.1914387" lon="6.7478808"><ele>1282.25</ele><time>2026-05-03T11:26:06.113Z</time></trkpt><trkpt lat="44.1915319" lon="6.7477837"><ele>1282.5</ele><time>2026-05-03T11:26:07.114Z</time></trkpt><trkpt lat="44.191622" lon="6.7476649"><ele>1282.75</ele><time>2026-05-03T11:26:08.114Z</time></trkpt><trkpt lat="44.1917259" lon="6.7475954"><ele>1283.0</ele><time>2026-05-03T11:26:09.114Z</time></trkpt><trkpt lat="44.1918451" lon="6.7475586"><ele>1283.0</ele><time>2026-05-03T11:26:10.114Z</time></trkpt><trkpt lat="44.1919629" lon="6.7475284"><ele>1283.0</ele><time>2026-05-03T11:26:11.114Z</time></trkpt><trkpt lat="44.1920959" lon="6.7475469"><ele>1283.0</ele><time>2026-05-03T11:26:12.114Z</time></trkpt><trkpt lat="44.192219" lon="6.7475837"><ele>1283.0</ele><time>2026-05-03T11:26:13.114Z</time></trkpt><trkpt lat="44.1923379" lon="6.7475991"><ele>1285.0</ele><time>2026-05-03T11:26:14.113Z</time></trkpt><trkpt lat="44.19246" lon="6.747611"><ele>1287.0</ele><time>2026-05-03T11:26:15.114Z</time></trkpt><trkpt lat="44.1925727" lon="6.7476172"><ele>1289.0</ele><time>2026-05-03T11:26:16.114Z</time></trkpt><trkpt lat="44.1926853" lon="6.7476163"><ele>1291.0</ele><time>2026-05-03T11:26:17.113Z</time></trkpt><trkpt lat="44.192776" lon="6.7475621"><ele>1293.0</ele><time>2026-05-03T11:26:18.114Z</time></trkpt><trkpt lat="44.1928689" lon="6.7475155"><ele>1293.0</ele><time>2026-05-03T11:26:19.114Z</time></trkpt><trkpt lat="44.1929563" lon="6.7474268"><ele>1293.0</ele><time>2026-05-03T11:26:20.114Z</time></trkpt><trkpt lat="44.192988" lon="6.7472933"><ele>1293.0</ele><time>2026-05-03T11:26:21.114Z</time></trkpt><trkpt lat="44.1930277" lon="6.7472004"><ele>1293.0</ele><time>2026-05-03T11:26:22.114Z</time></trkpt><trkpt lat="44.1930769" lon="6.7471037"><ele>1293.0</ele><time>2026-05-03T11:26:23.114Z</time></trkpt><trkpt lat="44.1931351" lon="6.7470245"><ele>1294.4</ele><time>2026-05-03T11:26:24.114Z</time></trkpt><trkpt lat="44.1932179" lon="6.7469451"><ele>1295.8000000000002</ele><time>2026-05-03T11:26:25.114Z</time></trkpt><trkpt lat="44.193297" lon="6.7468955"><ele>1297.2</ele><time>2026-05-03T11:26:26.114Z</time></trkpt><trkpt lat="44.1933957" lon="6.7468322"><ele>1298.6</ele><time>2026-05-03T11:26:27.113Z</time></trkpt><trkpt lat="44.193509" lon="6.7467661"><ele>1300.0</ele><time>2026-05-03T11:26:28.114Z</time></trkpt><trkpt lat="44.1936302" lon="6.7466966"><ele>1300.0</ele><time>2026-05-03T11:26:29.114Z</time></trkpt><trkpt lat="44.1937421" lon="6.7466419"><ele>1300.0</ele><time>2026-05-03T11:26:30.114Z</time></trkpt><trkpt lat="44.1938366" lon="6.7465571"><ele>1300.0</ele><time>2026-05-03T11:26:31.113Z</time></trkpt><trkpt lat="44.1939369" lon="6.7464909"><ele>1300.0</ele><time>2026-05-03T11:26:32.114Z</time></trkpt><trkpt lat="44.1940403" lon="6.7464355"><ele>1305.25</ele><time>2026-05-03T11:26:33.113Z</time></trkpt><trkpt lat="44.1941625" lon="6.746458"><ele>1310.5</ele><time>2026-05-03T11:26:34.113Z</time></trkpt><trkpt lat="44.1942812" lon="6.7464793"><ele>1315.75</ele><time>2026-05-03T11:26:35.114Z</time></trkpt><trkpt lat="44.1944085" lon="6.7464968"><ele>1321.0</ele><time>2026-05-03T11:26:36.114Z</time></trkpt><trkpt lat="44.1945363" lon="6.7465006"><ele>1321.0</ele><time>2026-05-03T11:26:37.114Z</time></trkpt><trkpt lat="44.194655" lon="6.7464666"><ele>1321.0</ele><time>2026-05-03T11:26:38.113Z</time></trkpt><trkpt lat="44.1947692" lon="6.7464001"><ele>1321.0</ele><time>2026-05-03T11:26:39.114Z</time></trkpt><trkpt lat="44.1948584" lon="6.7463815"><ele>1321.0</ele><time>2026-05-03T11:26:40.114Z</time></trkpt><trkpt lat="44.1949461" lon="6.746373"><ele>1321.0</ele><time>2026-05-03T11:26:41.114Z</time></trkpt><trkpt lat="44.1950196" lon="6.746399"><ele>1322.7142857142856</ele><time>2026-05-03T11:26:42.114Z</time></trkpt><trkpt lat="44.1950742" lon="6.7464704"><ele>1324.4285714285716</ele><time>2026-05-03T11:26:43.114Z</time></trkpt><trkpt lat="44.1951325" lon="6.7465637"><ele>1326.142857142857</ele><time>2026-05-03T11:26:44.114Z</time></trkpt><trkpt lat="44.1951895" lon="6.7466113"><ele>1327.8571428571427</ele><time>2026-05-03T11:26:45.114Z</time></trkpt><trkpt lat="44.1952498" lon="6.7466531"><ele>1329.5714285714284</ele><time>2026-05-03T11:26:46.114Z</time></trkpt><trkpt lat="44.1953174" lon="6.746602"><ele>1331.2857142857142</ele><time>2026-05-03T11:26:47.114Z</time></trkpt><trkpt lat="44.1953712" lon="6.7465521"><ele>1333.0</ele><time>2026-05-03T11:26:48.113Z</time></trkpt><trkpt lat="44.1953982" lon="6.7463579"><ele>1333.0</ele><time>2026-05-03T11:26:49.113Z</time></trkpt><trkpt lat="44.1954442" lon="6.7462341"><ele>1333.0</ele><time>2026-05-03T11:26:50.114Z</time></trkpt><trkpt lat="44.1954731" lon="6.7461195"><ele>1333.0</ele><time>2026-05-03T11:26:51.114Z</time></trkpt><trkpt lat="44.1955265" lon="6.74603"><ele>1333.0</ele><time>2026-05-03T11:26:52.114Z</time></trkpt><trkpt lat="44.1955923" lon="6.7459839"><ele>1333.0</ele><time>2026-05-03T11:26:53.114Z</time></trkpt><trkpt lat="44.1956655" lon="6.7459614"><ele>1333.0</ele><time>2026-05-03T11:26:54.114Z</time></trkpt><trkpt lat="44.1958197" lon="6.7460579"><ele>1336.25</ele><time>2026-05-03T11:26:56.114Z</time></trkpt><trkpt lat="44.1959332" lon="6.7461302"><ele>1339.5</ele><time>2026-05-03T11:26:57.113Z</time></trkpt><trkpt lat="44.1960417" lon="6.7462123"><ele>1342.75</ele><time>2026-05-03T11:26:58.114Z</time></trkpt><trkpt lat="44.1961421" lon="6.7462945"><ele>1346.0</ele><time>2026-05-03T11:26:59.114Z</time></trkpt><trkpt lat="44.1962115" lon="6.7463818"><ele>1346.0</ele><time>2026-05-03T11:27:00.114Z</time></trkpt><trkpt lat="44.1962998" lon="6.74643"><ele>1346.0</ele><time>2026-05-03T11:27:01.114Z</time></trkpt><trkpt lat="44.196363" lon="6.7464762"><ele>1346.0</ele><time>2026-05-03T11:27:02.114Z</time></trkpt><trkpt lat="44.196424" lon="6.7465197"><ele>1346.0</ele><time>2026-05-03T11:27:03.114Z</time></trkpt><trkpt lat="44.1964191" lon="6.7466266"><ele>1346.0</ele><time>2026-05-03T11:27:05.113Z</time></trkpt><trkpt lat="44.1963117" lon="6.7466362"><ele>1346.0</ele><time>2026-05-03T11:27:07.114Z</time></trkpt><trkpt lat="44.1961897" lon="6.7465696"><ele>1346.0</ele><time>2026-05-03T11:27:09.114Z</time></trkpt><trkpt lat="44.1960783" lon="6.7464679"><ele>1346.0</ele><time>2026-05-03T11:27:10.114Z</time></trkpt><trkpt lat="44.1959866" lon="6.7464124"><ele>1346.0</ele><time>2026-05-03T11:27:11.114Z</time></trkpt><trkpt lat="44.195905" lon="6.7463871"><ele>1346.0</ele><time>2026-05-03T11:27:12.114Z</time></trkpt><trkpt lat="44.1957928" lon="6.7463676"><ele>1346.0</ele><time>2026-05-03T11:27:13.114Z</time></trkpt><trkpt lat="44.1957138" lon="6.7463663"><ele>1343.4</ele><time>2026-05-03T11:27:14.113Z</time></trkpt><trkpt lat="44.1956365" lon="6.7463636"><ele>1340.8</ele><time>2026-05-03T11:27:15.114Z</time></trkpt><trkpt lat="44.1955658" lon="6.7464331"><ele>1338.2</ele><time>2026-05-03T11:27:16.114Z</time></trkpt><trkpt lat="44.1955187" lon="6.7465217"><ele>1335.6000000000001</ele><time>2026-05-03T11:27:17.114Z</time></trkpt><trkpt lat="44.1954834" lon="6.7466599"><ele>1333.0</ele><time>2026-05-03T11:27:18.114Z</time></trkpt><trkpt lat="44.1954733" lon="6.7468161"><ele>1339.25</ele><time>2026-05-03T11:27:19.114Z</time></trkpt><trkpt lat="44.1954981" lon="6.7470447"><ele>1345.5</ele><time>2026-05-03T11:27:20.114Z</time></trkpt><trkpt lat="44.1955134" lon="6.7472238"><ele>1351.75</ele><time>2026-05-03T11:27:21.113Z</time></trkpt><trkpt lat="44.1955318" lon="6.7473717"><ele>1358.0</ele><time>2026-05-03T11:27:22.114Z</time></trkpt><trkpt lat="44.1955361" lon="6.7475158"><ele>1358.0</ele><time>2026-05-03T11:27:23.114Z</time></trkpt><trkpt lat="44.195516" lon="6.7476381"><ele>1358.0</ele><time>2026-05-03T11:27:24.114Z</time></trkpt><trkpt lat="44.1954329" lon="6.7477168"><ele>1358.0</ele><time>2026-05-03T11:27:25.114Z</time></trkpt><trkpt lat="44.1953471" lon="6.7477361"><ele>1358.0</ele><time>2026-05-03T11:27:26.113Z</time></trkpt><trkpt lat="44.1951673" lon="6.7476881"><ele>1358.0</ele><time>2026-05-03T11:27:27.114Z</time></trkpt><trkpt lat="44.1950276" lon="6.7476722"><ele>1358.0</ele><time>2026-05-03T11:27:28.114Z</time></trkpt><trkpt lat="44.1948948" lon="6.7476419"><ele>1358.0</ele><time>2026-05-03T11:27:29.113Z</time></trkpt><trkpt lat="44.1947813" lon="6.7476437"><ele>1358.0</ele><time>2026-05-03T11:27:30.114Z</time></trkpt><trkpt lat="44.194665" lon="6.7476866"><ele>1360.5</ele><time>2026-05-03T11:27:31.114Z</time></trkpt><trkpt lat="44.194545" lon="6.7477424"><ele>1363.0</ele><time>2026-05-03T11:27:32.114Z</time></trkpt><trkpt lat="44.1944277" lon="6.7478029"><ele>1365.5</ele><time>2026-05-03T11:27:33.114Z</time></trkpt><trkpt lat="44.1943151" lon="6.7478707"><ele>1368.0</ele><time>2026-05-03T11:27:34.114Z</time></trkpt><trkpt lat="44.1942094" lon="6.7479252"><ele>1368.0</ele><time>2026-05-03T11:27:35.114Z</time></trkpt><trkpt lat="44.1941106" lon="6.748001"><ele>1368.0</ele><time>2026-05-03T11:27:36.114Z</time></trkpt><trkpt lat="44.1939966" lon="6.7480671"><ele>1368.0</ele><time>2026-05-03T11:27:38.114Z</time></trkpt><trkpt lat="44.1939391" lon="6.7481106"><ele>1368.0</ele><time>2026-05-03T11:27:39.114Z</time></trkpt><trkpt lat="44.1939237" lon="6.7482245"><ele>1368.0</ele><time>2026-05-03T11:27:40.114Z</time></trkpt><trkpt lat="44.1939808" lon="6.748318"><ele>1368.0</ele><time>2026-05-03T11:27:41.114Z</time></trkpt><trkpt lat="44.1940619" lon="6.7483484"><ele>1368.0</ele><time>2026-05-03T11:27:42.114Z</time></trkpt><trkpt lat="44.1941306" lon="6.7483721"><ele>1368.0</ele><time>2026-05-03T11:27:43.114Z</time></trkpt><trkpt lat="44.1942137" lon="6.7483671"><ele>1368.0</ele><time>2026-05-03T11:27:44.113Z</time></trkpt><trkpt lat="44.1943369" lon="6.7482373"><ele>1368.0</ele><time>2026-05-03T11:27:45.113Z</time></trkpt><trkpt lat="44.1944425" lon="6.7481667"><ele>1368.0</ele><time>2026-05-03T11:27:46.114Z</time></trkpt><trkpt lat="44.1945288" lon="6.7481083"><ele>1368.0</ele><time>2026-05-03T11:27:47.114Z</time></trkpt><trkpt lat="44.1946256" lon="6.7480649"><ele>1368.0</ele><time>2026-05-03T11:27:48.114Z</time></trkpt><trkpt lat="44.1947025" lon="6.7480687"><ele>1368.0</ele><time>2026-05-03T11:27:49.113Z</time></trkpt><trkpt lat="44.1947964" lon="6.7481058"><ele>1368.0</ele><time>2026-05-03T11:27:50.114Z</time></trkpt><trkpt lat="44.1948566" lon="6.7483105"><ele>1370.0</ele><time>2026-05-03T11:27:51.113Z</time></trkpt><trkpt lat="44.1949202" lon="6.7484594"><ele>1372.0</ele><time>2026-05-03T11:27:52.114Z</time></trkpt><trkpt lat="44.1949683" lon="6.7486281"><ele>1374.0</ele><time>2026-05-03T11:27:53.113Z</time></trkpt><trkpt lat="44.1949836" lon="6.7488042"><ele>1376.0</ele><time>2026-05-03T11:27:54.114Z</time></trkpt><trkpt lat="44.1949667" lon="6.7489762"><ele>1379.0</ele><time>2026-05-03T11:27:55.113Z</time></trkpt><trkpt lat="44.1949654" lon="6.7491281"><ele>1382.0</ele><time>2026-05-03T11:27:56.114Z</time></trkpt><trkpt lat="44.1949811" lon="6.7492685"><ele>1385.0</ele><time>2026-05-03T11:27:57.113Z</time></trkpt><trkpt lat="44.1950217" lon="6.7493878"><ele>1388.0</ele><time>2026-05-03T11:27:58.114Z</time></trkpt><trkpt lat="44.1950809" lon="6.7494731"><ele>1391.0</ele><time>2026-05-03T11:27:59.114Z</time></trkpt><trkpt lat="44.1951643" lon="6.7495026"><ele>1391.0</ele><time>2026-05-03T11:28:00.113Z</time></trkpt><trkpt lat="44.1952577" lon="6.7494923"><ele>1391.0</ele><time>2026-05-03T11:28:01.114Z</time></trkpt><trkpt lat="44.1953599" lon="6.7494422"><ele>1391.0</ele><time>2026-05-03T11:28:02.114Z</time></trkpt><trkpt lat="44.1954524" lon="6.7493855"><ele>1391.0</ele><time>2026-05-03T11:28:03.114Z</time></trkpt><trkpt lat="44.1955455" lon="6.7493206"><ele>1391.0</ele><time>2026-05-03T11:28:04.114Z</time></trkpt><trkpt lat="44.1956283" lon="6.7492128"><ele>1392.75</ele><time>2026-05-03T11:28:05.114Z</time></trkpt><trkpt lat="44.1956935" lon="6.7490435"><ele>1394.5</ele><time>2026-05-03T11:28:06.114Z</time></trkpt><trkpt lat="44.1957702" lon="6.748922"><ele>1396.25</ele><time>2026-05-03T11:28:07.114Z</time></trkpt><trkpt lat="44.1958695" lon="6.7488015"><ele>1398.0</ele><time>2026-05-03T11:28:08.114Z</time></trkpt><trkpt lat="44.1959636" lon="6.7486969"><ele>1398.0</ele><time>2026-05-03T11:28:09.113Z</time></trkpt><trkpt lat="44.1960446" lon="6.7485809"><ele>1398.0</ele><time>2026-05-03T11:28:10.114Z</time></trkpt><trkpt lat="44.1961186" lon="6.7484993"><ele>1398.0</ele><time>2026-05-03T11:28:11.114Z</time></trkpt><trkpt lat="44.1961942" lon="6.7484325"><ele>1398.0</ele><time>2026-05-03T11:28:12.114Z</time></trkpt><trkpt lat="44.1962583" lon="6.7483966"><ele>1398.0</ele><time>2026-05-03T11:28:13.114Z</time></trkpt><trkpt lat="44.1963213" lon="6.7485066"><ele>1398.0</ele><time>2026-05-03T11:28:14.114Z</time></trkpt><trkpt lat="44.1963825" lon="6.7485779"><ele>1398.0</ele><time>2026-05-03T11:28:15.113Z</time></trkpt><trkpt lat="44.1964167" lon="6.7487065"><ele>1398.0</ele><time>2026-05-03T11:28:16.114Z</time></trkpt><trkpt lat="44.1964597" lon="6.7488094"><ele>1398.0</ele><time>2026-05-03T11:28:17.113Z</time></trkpt><trkpt lat="44.1965093" lon="6.7489083"><ele>1398.0</ele><time>2026-05-03T11:28:18.113Z</time></trkpt><trkpt lat="44.1965578" lon="6.7489932"><ele>1398.0</ele><time>2026-05-03T11:28:19.114Z</time></trkpt><trkpt lat="44.1966065" lon="6.7491029"><ele>1399.6666666666667</ele><time>2026-05-03T11:28:20.114Z</time></trkpt><trkpt lat="44.196645" lon="6.749204"><ele>1401.3333333333333</ele><time>2026-05-03T11:28:21.114Z</time></trkpt><trkpt lat="44.1966922" lon="6.7492824"><ele>1403.0</ele><time>2026-05-03T11:28:22.114Z</time></trkpt><trkpt lat="44.196754" lon="6.7493359"><ele>1404.6666666666665</ele><time>2026-05-03T11:28:23.114Z</time></trkpt><trkpt lat="44.19683" lon="6.7493455"><ele>1406.3333333333333</ele><time>2026-05-03T11:28:24.114Z</time></trkpt><trkpt lat="44.1969184" lon="6.7493287"><ele>1408.0</ele><time>2026-05-03T11:28:25.114Z</time></trkpt><trkpt lat="44.1969977" lon="6.7492982"><ele>1408.0</ele><time>2026-05-03T11:28:26.114Z</time></trkpt><trkpt lat="44.197078" lon="6.7492171"><ele>1408.0</ele><time>2026-05-03T11:28:27.114Z</time></trkpt><trkpt lat="44.197171" lon="6.7491667"><ele>1408.0</ele><time>2026-05-03T11:28:28.114Z</time></trkpt><trkpt lat="44.1972541" lon="6.749123"><ele>1408.0</ele><time>2026-05-03T11:28:29.114Z</time></trkpt><trkpt lat="44.19735" lon="6.7490881"><ele>1408.0</ele><time>2026-05-03T11:28:30.113Z</time></trkpt><trkpt lat="44.1974052" lon="6.7490181"><ele>1410.3333333333333</ele><time>2026-05-03T11:28:31.114Z</time></trkpt><trkpt lat="44.1974489" lon="6.7488795"><ele>1412.6666666666665</ele><time>2026-05-03T11:28:32.113Z</time></trkpt><trkpt lat="44.1975023" lon="6.7487807"><ele>1415.0</ele><time>2026-05-03T11:28:33.114Z</time></trkpt><trkpt lat="44.1975734" lon="6.748706"><ele>1417.3333333333333</ele><time>2026-05-03T11:28:34.114Z</time></trkpt><trkpt lat="44.1976545" lon="6.7486666"><ele>1419.6666666666667</ele><time>2026-05-03T11:28:35.114Z</time></trkpt><trkpt lat="44.1977262" lon="6.7486314"><ele>1422.0</ele><time>2026-05-03T11:28:36.114Z</time></trkpt><trkpt lat="44.1978849" lon="6.7487845"><ele>1422.0</ele><time>2026-05-03T11:28:38.114Z</time></trkpt><trkpt lat="44.1979711" lon="6.7488905"><ele>1422.0</ele><time>2026-05-03T11:28:39.114Z</time></trkpt><trkpt lat="44.1980456" lon="6.7490044"><ele>1422.0</ele><time>2026-05-03T11:28:40.114Z</time></trkpt><trkpt lat="44.1980983" lon="6.7491191"><ele>1422.0</ele><time>2026-05-03T11:28:41.114Z</time></trkpt><trkpt lat="44.1981501" lon="6.7492192"><ele>1422.0</ele><time>2026-05-03T11:28:42.114Z</time></trkpt><trkpt lat="44.1982036" lon="6.7493054"><ele>1423.1999999999998</ele><time>2026-05-03T11:28:43.113Z</time></trkpt><trkpt lat="44.1982605" lon="6.7493668"><ele>1424.4</ele><time>2026-05-03T11:28:44.114Z</time></trkpt><trkpt lat="44.1983926" lon="6.749354"><ele>1425.6</ele><time>2026-05-03T11:28:46.114Z</time></trkpt><trkpt lat="44.1984863" lon="6.7492079"><ele>1426.8000000000002</ele><time>2026-05-03T11:28:48.113Z</time></trkpt><trkpt lat="44.1985221" lon="6.7490757"><ele>1428.0</ele><time>2026-05-03T11:28:49.114Z</time></trkpt><trkpt lat="44.1985631" lon="6.7489612"><ele>1428.0</ele><time>2026-05-03T11:28:50.114Z</time></trkpt><trkpt lat="44.198619" lon="6.7488144"><ele>1428.0</ele><time>2026-05-03T11:28:51.114Z</time></trkpt><trkpt lat="44.1986791" lon="6.7486933"><ele>1428.0</ele><time>2026-05-03T11:28:52.114Z</time></trkpt><trkpt lat="44.1987353" lon="6.7485874"><ele>1428.0</ele><time>2026-05-03T11:28:53.114Z</time></trkpt><trkpt lat="44.1988025" lon="6.7485119"><ele>1428.0</ele><time>2026-05-03T11:28:54.114Z</time></trkpt><trkpt lat="44.198896" lon="6.7484725"><ele>1430.5</ele><time>2026-05-03T11:28:55.114Z</time></trkpt><trkpt lat="44.1990007" lon="6.7484395"><ele>1433.0</ele><time>2026-05-03T11:28:56.114Z</time></trkpt><trkpt lat="44.1991064" lon="6.7484202"><ele>1435.5</ele><time>2026-05-03T11:28:57.114Z</time></trkpt><trkpt lat="44.199216" lon="6.7484099"><ele>1438.0</ele><time>2026-05-03T11:28:58.114Z</time></trkpt><trkpt lat="44.1993635" lon="6.7483888"><ele>1438.0</ele><time>2026-05-03T11:28:59.114Z</time></trkpt><trkpt lat="44.1994771" lon="6.7483545"><ele>1438.0</ele><time>2026-05-03T11:29:00.114Z</time></trkpt><trkpt lat="44.1996034" lon="6.7483226"><ele>1438.0</ele><time>2026-05-03T11:29:01.114Z</time></trkpt><trkpt lat="44.1997188" lon="6.7482889"><ele>1438.0</ele><time>2026-05-03T11:29:02.114Z</time></trkpt><trkpt lat="44.1998476" lon="6.7482369"><ele>1440.75</ele><time>2026-05-03T11:29:03.114Z</time></trkpt><trkpt lat="44.1999704" lon="6.7481968"><ele>1443.5</ele><time>2026-05-03T11:29:04.113Z</time></trkpt><trkpt lat="44.2000839" lon="6.7481493"><ele>1446.25</ele><time>2026-05-03T11:29:05.113Z</time></trkpt><trkpt lat="44.2002128" lon="6.7481472"><ele>1449.0</ele><time>2026-05-03T11:29:06.114Z</time></trkpt><trkpt lat="44.2003335" lon="6.7481261"><ele>1449.0</ele><time>2026-05-03T11:29:07.114Z</time></trkpt><trkpt lat="44.2004583" lon="6.7480845"><ele>1449.0</ele><time>2026-05-03T11:29:08.114Z</time></trkpt><trkpt lat="44.2005596" lon="6.7480154"><ele>1449.0</ele><time>2026-05-03T11:29:09.114Z</time></trkpt><trkpt lat="44.2006537" lon="6.7479314"><ele>1449.0</ele><time>2026-05-03T11:29:10.114Z</time></trkpt><trkpt lat="44.2007442" lon="6.7478086"><ele>1448.75</ele><time>2026-05-03T11:29:11.114Z</time></trkpt><trkpt lat="44.2008238" lon="6.7476721"><ele>1448.5</ele><time>2026-05-03T11:29:12.114Z</time></trkpt><trkpt lat="44.2008956" lon="6.7475571"><ele>1448.25</ele><time>2026-05-03T11:29:13.114Z</time></trkpt><trkpt lat="44.2009834" lon="6.7474433"><ele>1448.0</ele><time>2026-05-03T11:29:14.114Z</time></trkpt><trkpt lat="44.2010847" lon="6.7473683"><ele>1448.0</ele><time>2026-05-03T11:29:15.114Z</time></trkpt><trkpt lat="44.2011757" lon="6.7473134"><ele>1448.0</ele><time>2026-05-03T11:29:16.114Z</time></trkpt><trkpt lat="44.2012856" lon="6.7473458"><ele>1448.0</ele><time>2026-05-03T11:29:17.114Z</time></trkpt><trkpt lat="44.2013731" lon="6.7473921"><ele>1448.0</ele><time>2026-05-03T11:29:18.114Z</time></trkpt><trkpt lat="44.2014785" lon="6.7474095"><ele>1448.0</ele><time>2026-05-03T11:29:19.114Z</time></trkpt><trkpt lat="44.2016013" lon="6.7473792"><ele>1452.5</ele><time>2026-05-03T11:29:20.113Z</time></trkpt><trkpt lat="44.2017082" lon="6.7473306"><ele>1457.0</ele><time>2026-05-03T11:29:21.114Z</time></trkpt><trkpt lat="44.2018059" lon="6.7472412"><ele>1461.5</ele><time>2026-05-03T11:29:22.114Z</time></trkpt><trkpt lat="44.2019108" lon="6.7471634"><ele>1466.0</ele><time>2026-05-03T11:29:23.113Z</time></trkpt><trkpt lat="44.2019852" lon="6.7470222"><ele>1466.0</ele><time>2026-05-03T11:29:24.114Z</time></trkpt><trkpt lat="44.2020534" lon="6.746888"><ele>1466.0</ele><time>2026-05-03T11:29:25.114Z</time></trkpt><trkpt lat="44.2021068" lon="6.7467517"><ele>1466.0</ele><time>2026-05-03T11:29:26.113Z</time></trkpt><trkpt lat="44.2021902" lon="6.7466933"><ele>1466.0</ele><time>2026-05-03T11:29:27.114Z</time></trkpt><trkpt lat="44.2022826" lon="6.7466105"><ele>1466.0</ele><time>2026-05-03T11:29:28.114Z</time></trkpt><trkpt lat="44.2023904" lon="6.7465673"><ele>1465.75</ele><time>2026-05-03T11:29:29.114Z</time></trkpt><trkpt lat="44.2025078" lon="6.7465708"><ele>1465.5</ele><time>2026-05-03T11:29:30.114Z</time></trkpt><trkpt lat="44.2026249" lon="6.7466199"><ele>1465.25</ele><time>2026-05-03T11:29:31.113Z</time></trkpt><trkpt lat="44.2027565" lon="6.7466551"><ele>1465.0</ele><time>2026-05-03T11:29:32.114Z</time></trkpt><trkpt lat="44.2028879" lon="6.7466841"><ele>1465.0</ele><time>2026-05-03T11:29:33.113Z</time></trkpt><trkpt lat="44.2030114" lon="6.7467131"><ele>1465.0</ele><time>2026-05-03T11:29:34.114Z</time></trkpt><trkpt lat="44.2031408" lon="6.7467331"><ele>1465.0</ele><time>2026-05-03T11:29:35.113Z</time></trkpt><trkpt lat="44.2032532" lon="6.7467686"><ele>1465.0</ele><time>2026-05-03T11:29:36.114Z</time></trkpt><trkpt lat="44.2033559" lon="6.7468016"><ele>1467.8</ele><time>2026-05-03T11:29:37.114Z</time></trkpt><trkpt lat="44.2034605" lon="6.74681"><ele>1470.6</ele><time>2026-05-03T11:29:38.113Z</time></trkpt><trkpt lat="44.2035708" lon="6.7467905"><ele>1473.4</ele><time>2026-05-03T11:29:39.114Z</time></trkpt><trkpt lat="44.2036729" lon="6.746759"><ele>1476.2</ele><time>2026-05-03T11:29:40.114Z</time></trkpt><trkpt lat="44.2037547" lon="6.7466959"><ele>1479.0</ele><time>2026-05-03T11:29:41.114Z</time></trkpt><trkpt lat="44.2038266" lon="6.7465475"><ele>1479.0</ele><time>2026-05-03T11:29:42.113Z</time></trkpt><trkpt lat="44.2038958" lon="6.7464188"><ele>1479.0</ele><time>2026-05-03T11:29:43.114Z</time></trkpt><trkpt lat="44.2039297" lon="6.7462605"><ele>1479.0</ele><time>2026-05-03T11:29:44.114Z</time></trkpt><trkpt lat="44.2039658" lon="6.746096"><ele>1479.0</ele><time>2026-05-03T11:29:45.113Z</time></trkpt><trkpt lat="44.2040044" lon="6.7459692"><ele>1480.6</ele><time>2026-05-03T11:29:46.114Z</time></trkpt><trkpt lat="44.2040674" lon="6.7458618"><ele>1482.2</ele><time>2026-05-03T11:29:47.114Z</time></trkpt><trkpt lat="44.2041113" lon="6.7457548"><ele>1483.8</ele><time>2026-05-03T11:29:48.113Z</time></trkpt><trkpt lat="44.204223" lon="6.7457016"><ele>1485.3999999999999</ele><time>2026-05-03T11:29:49.114Z</time></trkpt><trkpt lat="44.2042859" lon="6.745777"><ele>1487.0</ele><time>2026-05-03T11:29:50.114Z</time></trkpt><trkpt lat="44.2043567" lon="6.7458686"><ele>1487.0</ele><time>2026-05-03T11:29:51.114Z</time></trkpt><trkpt lat="44.2044392" lon="6.7459585"><ele>1487.0</ele><time>2026-05-03T11:29:52.114Z</time></trkpt><trkpt lat="44.2045381" lon="6.7460894"><ele>1487.0</ele><time>2026-05-03T11:29:53.114Z</time></trkpt><trkpt lat="44.2046375" lon="6.7461846"><ele>1487.0</ele><time>2026-05-03T11:29:54.114Z</time></trkpt><trkpt lat="44.2047385" lon="6.7462508"><ele>1494.5</ele><time>2026-05-03T11:29:55.114Z</time></trkpt><trkpt lat="44.2048614" lon="6.7462957"><ele>1502.0</ele><time>2026-05-03T11:29:56.114Z</time></trkpt><trkpt lat="44.2049801" lon="6.7463144"><ele>1509.5</ele><time>2026-05-03T11:29:57.114Z</time></trkpt><trkpt lat="44.205108" lon="6.746264"><ele>1517.0</ele><time>2026-05-03T11:29:58.114Z</time></trkpt><trkpt lat="44.2052336" lon="6.7462167"><ele>1517.0</ele><time>2026-05-03T11:29:59.114Z</time></trkpt><trkpt lat="44.2053809" lon="6.7461302"><ele>1517.0</ele><time>2026-05-03T11:30:00.113Z</time></trkpt><trkpt lat="44.2055152" lon="6.746072"><ele>1517.0</ele><time>2026-05-03T11:30:01.114Z</time></trkpt><trkpt lat="44.2056395" lon="6.7460223"><ele>1517.0</ele><time>2026-05-03T11:30:02.114Z</time></trkpt><trkpt lat="44.2057671" lon="6.74596"><ele>1513.5</ele><time>2026-05-03T11:30:03.114Z</time></trkpt><trkpt lat="44.2058967" lon="6.7458893"><ele>1510.0</ele><time>2026-05-03T11:30:04.114Z</time></trkpt><trkpt lat="44.2060238" lon="6.7458226"><ele>1506.5</ele><time>2026-05-03T11:30:05.114Z</time></trkpt><trkpt lat="44.2061474" lon="6.7457778"><ele>1503.0</ele><time>2026-05-03T11:30:06.114Z</time></trkpt><trkpt lat="44.2062848" lon="6.7457356"><ele>1503.0</ele><time>2026-05-03T11:30:07.113Z</time></trkpt><trkpt lat="44.2064141" lon="6.7457558"><ele>1503.0</ele><time>2026-05-03T11:30:08.114Z</time></trkpt><trkpt lat="44.2065361" lon="6.745757"><ele>1503.0</ele><time>2026-05-03T11:30:09.114Z</time></trkpt><trkpt lat="44.2066599" lon="6.7457753"><ele>1503.0</ele><time>2026-05-03T11:30:10.114Z</time></trkpt><trkpt lat="44.2067705" lon="6.7457808"><ele>1504.75</ele><time>2026-05-03T11:30:11.114Z</time></trkpt><trkpt lat="44.2068811" lon="6.7458237"><ele>1506.5</ele><time>2026-05-03T11:30:12.114Z</time></trkpt><trkpt lat="44.206978" lon="6.7458971"><ele>1508.25</ele><time>2026-05-03T11:30:13.114Z</time></trkpt><trkpt lat="44.2070783" lon="6.745977"><ele>1510.0</ele><time>2026-05-03T11:30:14.114Z</time></trkpt><trkpt lat="44.2071571" lon="6.7460859"><ele>1515.2</ele><time>2026-05-03T11:30:15.114Z</time></trkpt><trkpt lat="44.2072289" lon="6.7461559"><ele>1520.4</ele><time>2026-05-03T11:30:16.114Z</time></trkpt><trkpt lat="44.2073077" lon="6.7462416"><ele>1525.6</ele><time>2026-05-03T11:30:17.114Z</time></trkpt><trkpt lat="44.2073904" lon="6.7462663"><ele>1530.8</ele><time>2026-05-03T11:30:18.113Z</time></trkpt><trkpt lat="44.2074641" lon="6.746256"><ele>1536.0</ele><time>2026-05-03T11:30:19.113Z</time></trkpt><trkpt lat="44.2075845" lon="6.7461344"><ele>1536.75</ele><time>2026-05-03T11:30:20.114Z</time></trkpt><trkpt lat="44.2076882" lon="6.7460573"><ele>1537.5</ele><time>2026-05-03T11:30:21.114Z</time></trkpt><trkpt lat="44.2078059" lon="6.7459672"><ele>1538.25</ele><time>2026-05-03T11:30:22.114Z</time></trkpt><trkpt lat="44.2079173" lon="6.7458837"><ele>1539.0</ele><time>2026-05-03T11:30:23.114Z</time></trkpt><trkpt lat="44.2080183" lon="6.7457902"><ele>1539.5</ele><time>2026-05-03T11:30:24.114Z</time></trkpt><trkpt lat="44.2081368" lon="6.7456971"><ele>1540.0</ele><time>2026-05-03T11:30:25.114Z</time></trkpt><trkpt lat="44.2082426" lon="6.7456062"><ele>1540.5</ele><time>2026-05-03T11:30:26.114Z</time></trkpt><trkpt lat="44.2083102" lon="6.7454585"><ele>1541.0</ele><time>2026-05-03T11:30:27.114Z</time></trkpt><trkpt lat="44.2083833" lon="6.7453202"><ele>1536.5</ele><time>2026-05-03T11:30:28.114Z</time></trkpt><trkpt lat="44.2084524" lon="6.7451956"><ele>1532.0</ele><time>2026-05-03T11:30:29.114Z</time></trkpt><trkpt lat="44.2085404" lon="6.7450882"><ele>1527.5</ele><time>2026-05-03T11:30:30.113Z</time></trkpt><trkpt lat="44.208626" lon="6.7449822"><ele>1523.0</ele><time>2026-05-03T11:30:31.114Z</time></trkpt><trkpt lat="44.208724" lon="6.7449005"><ele>1523.0</ele><time>2026-05-03T11:30:32.114Z</time></trkpt><trkpt lat="44.2088189" lon="6.744819"><ele>1523.0</ele><time>2026-05-03T11:30:33.114Z</time></trkpt><trkpt lat="44.2089043" lon="6.7447349"><ele>1523.0</ele><time>2026-05-03T11:30:34.114Z</time></trkpt><trkpt lat="44.2089924" lon="6.7446777"><ele>1523.0</ele><time>2026-05-03T11:30:35.114Z</time></trkpt><trkpt lat="44.2090873" lon="6.744652"><ele>1523.0</ele><time>2026-05-03T11:30:36.114Z</time></trkpt><trkpt lat="44.209173" lon="6.7447389"><ele>1527.5</ele><time>2026-05-03T11:30:37.114Z</time></trkpt><trkpt lat="44.2092489" lon="6.7448319"><ele>1532.0</ele><time>2026-05-03T11:30:38.114Z</time></trkpt><trkpt lat="44.209339" lon="6.7449581"><ele>1536.5</ele><time>2026-05-03T11:30:39.114Z</time></trkpt><trkpt lat="44.2094226" lon="6.7450895"><ele>1541.0</ele><time>2026-05-03T11:30:40.114Z</time></trkpt><trkpt lat="44.2095061" lon="6.7452176"><ele>1546.0</ele><time>2026-05-03T11:30:41.114Z</time></trkpt><trkpt lat="44.2095709" lon="6.7453531"><ele>1551.0</ele><time>2026-05-03T11:30:42.114Z</time></trkpt><trkpt lat="44.2096374" lon="6.7454969"><ele>1556.0</ele><time>2026-05-03T11:30:43.114Z</time></trkpt><trkpt lat="44.2097107" lon="6.7456336"><ele>1561.0</ele><time>2026-05-03T11:30:44.114Z</time></trkpt><trkpt lat="44.2097834" lon="6.7457883"><ele>1562.5</ele><time>2026-05-03T11:30:45.114Z</time></trkpt><trkpt lat="44.2098474" lon="6.7459244"><ele>1564.0</ele><time>2026-05-03T11:30:46.114Z</time></trkpt><trkpt lat="44.2099126" lon="6.7460704"><ele>1565.5</ele><time>2026-05-03T11:30:47.114Z</time></trkpt><trkpt lat="44.2099762" lon="6.746217"><ele>1567.0</ele><time>2026-05-03T11:30:48.114Z</time></trkpt><trkpt lat="44.2100512" lon="6.7463532"><ele>1567.0</ele><time>2026-05-03T11:30:49.114Z</time></trkpt><trkpt lat="44.2101209" lon="6.7464706"><ele>1567.0</ele><time>2026-05-03T11:30:50.114Z</time></trkpt><trkpt lat="44.2102029" lon="6.7465627"><ele>1567.0</ele><time>2026-05-03T11:30:51.114Z</time></trkpt><trkpt lat="44.2102932" lon="6.7466196"><ele>1567.0</ele><time>2026-05-03T11:30:52.113Z</time></trkpt><trkpt lat="44.2104355" lon="6.7465922"><ele>1567.0</ele><time>2026-05-03T11:30:53.114Z</time></trkpt><trkpt lat="44.2105528" lon="6.7465777"><ele>1567.0</ele><time>2026-05-03T11:30:54.114Z</time></trkpt><trkpt lat="44.2106825" lon="6.7465202"><ele>1567.0</ele><time>2026-05-03T11:30:55.114Z</time></trkpt><trkpt lat="44.2108012" lon="6.7465159"><ele>1567.0</ele><time>2026-05-03T11:30:56.114Z</time></trkpt><trkpt lat="44.2109091" lon="6.7465455"><ele>1565.3999999999999</ele><time>2026-05-03T11:30:57.114Z</time></trkpt><trkpt lat="44.2110154" lon="6.7465739"><ele>1563.8</ele><time>2026-05-03T11:30:58.113Z</time></trkpt><trkpt lat="44.2110797" lon="6.7466688"><ele>1562.2</ele><time>2026-05-03T11:30:59.114Z</time></trkpt><trkpt lat="44.2111386" lon="6.7468101"><ele>1560.6</ele><time>2026-05-03T11:31:00.114Z</time></trkpt><trkpt lat="44.2111919" lon="6.7469443"><ele>1559.0</ele><time>2026-05-03T11:31:01.114Z</time></trkpt><trkpt lat="44.2112738" lon="6.7470434"><ele>1566.75</ele><time>2026-05-03T11:31:02.114Z</time></trkpt><trkpt lat="44.211354" lon="6.7471475"><ele>1574.5</ele><time>2026-05-03T11:31:03.114Z</time></trkpt><trkpt lat="44.21146" lon="6.7472151"><ele>1582.25</ele><time>2026-05-03T11:31:04.114Z</time></trkpt><trkpt lat="44.2115776" lon="6.7472334"><ele>1590.0</ele><time>2026-05-03T11:31:05.114Z</time></trkpt><trkpt lat="44.2117319" lon="6.7471861"><ele>1590.0</ele><time>2026-05-03T11:31:06.114Z</time></trkpt><trkpt lat="44.2118616" lon="6.7471832"><ele>1590.0</ele><time>2026-05-03T11:31:07.114Z</time></trkpt><trkpt lat="44.2119965" lon="6.7472095"><ele>1590.0</ele><time>2026-05-03T11:31:08.113Z</time></trkpt><trkpt lat="44.2120957" lon="6.7472605"><ele>1590.0</ele><time>2026-05-03T11:31:09.114Z</time></trkpt><trkpt lat="44.2122049" lon="6.7473074"><ele>1590.0</ele><time>2026-05-03T11:31:10.114Z</time></trkpt><trkpt lat="44.212318" lon="6.7473464"><ele>1590.0</ele><time>2026-05-03T11:31:11.114Z</time></trkpt><trkpt lat="44.2124671" lon="6.7473397"><ele>1590.0</ele><time>2026-05-03T11:31:12.114Z</time></trkpt><trkpt lat="44.212606" lon="6.7473375"><ele>1590.0</ele><time>2026-05-03T11:31:13.114Z</time></trkpt><trkpt lat="44.2127392" lon="6.7473526"><ele>1588.25</ele><time>2026-05-03T11:31:14.114Z</time></trkpt><trkpt lat="44.2128771" lon="6.7473703"><ele>1586.5</ele><time>2026-05-03T11:31:15.114Z</time></trkpt><trkpt lat="44.2129742" lon="6.7474559"><ele>1584.75</ele><time>2026-05-03T11:31:16.114Z</time></trkpt><trkpt lat="44.2130953" lon="6.7475054"><ele>1583.0</ele><time>2026-05-03T11:31:17.114Z</time></trkpt><trkpt lat="44.2131792" lon="6.7476112"><ele>1589.0</ele><time>2026-05-03T11:31:18.113Z</time></trkpt><trkpt lat="44.2132449" lon="6.7477116"><ele>1595.0</ele><time>2026-05-03T11:31:19.113Z</time></trkpt><trkpt lat="44.2133264" lon="6.7477916"><ele>1601.0</ele><time>2026-05-03T11:31:20.114Z</time></trkpt><trkpt lat="44.2134069" lon="6.7478732"><ele>1607.0</ele><time>2026-05-03T11:31:21.113Z</time></trkpt><trkpt lat="44.2134977" lon="6.7479014"><ele>1613.0</ele><time>2026-05-03T11:31:22.114Z</time></trkpt><trkpt lat="44.2136289" lon="6.7478764"><ele>1613.0</ele><time>2026-05-03T11:31:23.114Z</time></trkpt><trkpt lat="44.2137838" lon="6.7478646"><ele>1613.0</ele><time>2026-05-03T11:31:24.114Z</time></trkpt><trkpt lat="44.2139194" lon="6.7478695"><ele>1613.0</ele><time>2026-05-03T11:31:25.114Z</time></trkpt><trkpt lat="44.214046" lon="6.7478665"><ele>1613.0</ele><time>2026-05-03T11:31:26.114Z</time></trkpt><trkpt lat="44.2141829" lon="6.7478454"><ele>1612.5</ele><time>2026-05-03T11:31:27.113Z</time></trkpt><trkpt lat="44.2143057" lon="6.7478276"><ele>1612.0</ele><time>2026-05-03T11:31:28.113Z</time></trkpt><trkpt lat="44.2144321" lon="6.7478123"><ele>1611.5</ele><time>2026-05-03T11:31:29.114Z</time></trkpt><trkpt lat="44.2145546" lon="6.7478148"><ele>1611.0</ele><time>2026-05-03T11:31:30.114Z</time></trkpt><trkpt lat="44.2146779" lon="6.7478167"><ele>1611.0</ele><time>2026-05-03T11:31:31.114Z</time></trkpt><trkpt lat="44.2147952" lon="6.7478221"><ele>1611.0</ele><time>2026-05-03T11:31:32.114Z</time></trkpt><trkpt lat="44.2149032" lon="6.7478563"><ele>1611.0</ele><time>2026-05-03T11:31:33.114Z</time></trkpt><trkpt lat="44.2150142" lon="6.7479187"><ele>1611.0</ele><time>2026-05-03T11:31:34.114Z</time></trkpt><trkpt lat="44.2151229" lon="6.7479946"><ele>1608.75</ele><time>2026-05-03T11:31:35.114Z</time></trkpt><trkpt lat="44.2152301" lon="6.7480948"><ele>1606.5</ele><time>2026-05-03T11:31:36.113Z</time></trkpt><trkpt lat="44.2153343" lon="6.7481749"><ele>1604.25</ele><time>2026-05-03T11:31:37.114Z</time></trkpt><trkpt lat="44.215458" lon="6.7482053"><ele>1602.0</ele><time>2026-05-03T11:31:38.113Z</time></trkpt><trkpt lat="44.2155838" lon="6.7482226"><ele>1597.5</ele><time>2026-05-03T11:31:39.114Z</time></trkpt><trkpt lat="44.2157263" lon="6.7482406"><ele>1593.0</ele><time>2026-05-03T11:31:40.114Z</time></trkpt><trkpt lat="44.2158452" lon="6.7482932"><ele>1588.5</ele><time>2026-05-03T11:31:41.113Z</time></trkpt><trkpt lat="44.2159543" lon="6.7483326"><ele>1584.0</ele><time>2026-05-03T11:31:42.114Z</time></trkpt><trkpt lat="44.2160332" lon="6.7484531"><ele>1588.8000000000002</ele><time>2026-05-03T11:31:43.114Z</time></trkpt><trkpt lat="44.2161051" lon="6.74856"><ele>1593.6000000000001</ele><time>2026-05-03T11:31:44.114Z</time></trkpt><trkpt lat="44.2161653" lon="6.7486927"><ele>1598.4</ele><time>2026-05-03T11:31:45.114Z</time></trkpt><trkpt lat="44.2161627" lon="6.748835"><ele>1603.2</ele><time>2026-05-03T11:31:46.114Z</time></trkpt><trkpt lat="44.2161849" lon="6.7489486"><ele>1608.0</ele><time>2026-05-03T11:31:47.114Z</time></trkpt><trkpt lat="44.2162455" lon="6.7490471"><ele>1608.0</ele><time>2026-05-03T11:31:48.114Z</time></trkpt><trkpt lat="44.2163228" lon="6.7491198"><ele>1608.0</ele><time>2026-05-03T11:31:49.113Z</time></trkpt><trkpt lat="44.2164169" lon="6.749156"><ele>1608.0</ele><time>2026-05-03T11:31:50.114Z</time></trkpt><trkpt lat="44.2165199" lon="6.7491861"><ele>1608.0</ele><time>2026-05-03T11:31:51.114Z</time></trkpt><trkpt lat="44.2166372" lon="6.7491289"><ele>1608.0</ele><time>2026-05-03T11:31:52.113Z</time></trkpt><trkpt lat="44.2167565" lon="6.7490857"><ele>1604.25</ele><time>2026-05-03T11:31:53.114Z</time></trkpt><trkpt lat="44.2168824" lon="6.7490482"><ele>1600.5</ele><time>2026-05-03T11:31:54.114Z</time></trkpt><trkpt lat="44.2170156" lon="6.7490044"><ele>1596.75</ele><time>2026-05-03T11:31:55.114Z</time></trkpt><trkpt lat="44.2171316" lon="6.7489784"><ele>1593.0</ele><time>2026-05-03T11:31:56.114Z</time></trkpt><trkpt lat="44.2172566" lon="6.7489376"><ele>1590.2</ele><time>2026-05-03T11:31:57.114Z</time></trkpt><trkpt lat="44.2173707" lon="6.7488757"><ele>1587.4</ele><time>2026-05-03T11:31:58.114Z</time></trkpt><trkpt lat="44.2174588" lon="6.748811"><ele>1584.6000000000001</ele><time>2026-05-03T11:31:59.113Z</time></trkpt><trkpt lat="44.2175387" lon="6.7487203"><ele>1581.8000000000002</ele><time>2026-05-03T11:32:00.114Z</time></trkpt><trkpt lat="44.2176213" lon="6.7486346"><ele>1579.0</ele><time>2026-05-03T11:32:01.114Z</time></trkpt><trkpt lat="44.2177027" lon="6.7485411"><ele>1579.0</ele><time>2026-05-03T11:32:02.114Z</time></trkpt><trkpt lat="44.2177817" lon="6.7484449"><ele>1579.0</ele><time>2026-05-03T11:32:03.114Z</time></trkpt><trkpt lat="44.2184224" lon="6.7477067"><ele>1602.0</ele><time>2026-05-03T11:32:10.114Z</time></trkpt><trkpt lat="44.2150142" lon="6.7479187"><ele>1602.0</ele><time>2026-05-03T11:31:34.114Z</time></trkpt><trkpt lat="44.2151229" lon="6.7479946"><ele>1602.0</ele><time>2026-05-03T11:31:35.114Z</time></trkpt><trkpt lat="44.2152301" lon="6.7480948"><ele>1602.0</ele><time>2026-05-03T11:31:36.113Z</time></trkpt><trkpt lat="44.2153343" lon="6.7481749"><ele>1602.0</ele><time>2026-05-03T11:31:37.114Z</time></trkpt><trkpt lat="44.215458" lon="6.7482053"><ele>1602.0</ele><time>2026-05-03T11:31:38.113Z</time></trkpt><trkpt lat="44.2155838" lon="6.7482226"><ele>1602.0</ele><time>2026-05-03T11:31:39.114Z</time></trkpt><trkpt lat="44.2157263" lon="6.7482406"><ele>1602.0</ele><time>2026-05-03T11:31:40.114Z</time></trkpt><trkpt lat="44.2158452" lon="6.7482932"><ele>1602.0</ele><time>2026-05-03T11:31:41.113Z</time></trkpt><trkpt lat="44.2159543" lon="6.7483326"><ele>1603.1999999999998</ele><time>2026-05-03T11:31:42.114Z</time></trkpt><trkpt lat="44.2160332" lon="6.7484531"><ele>1604.4</ele><time>2026-05-03T11:31:43.114Z</time></trkpt><trkpt lat="44.2161051" lon="6.74856"><ele>1605.6</ele><time>2026-05-03T11:31:44.114Z</time></trkpt><trkpt lat="44.2161653" lon="6.7486927"><ele>1606.8000000000002</ele><time>2026-05-03T11:31:45.114Z</time></trkpt><trkpt lat="44.2161627" lon="6.748835"><ele>1608.0</ele><time>2026-05-03T11:31:46.114Z</time></trkpt><trkpt lat="44.2161849" lon="6.7489486"><ele>1608.0</ele><time>2026-05-03T11:31:47.114Z</time></trkpt><trkpt lat="44.2162455" lon="6.7490471"><ele>1608.0</ele><time>2026-05-03T11:31:48.114Z</time></trkpt><trkpt lat="44.2163228" lon="6.7491198"><ele>1608.0</ele><time>2026-05-03T11:31:49.113Z</time></trkpt><trkpt lat="44.2164169" lon="6.749156"><ele>1608.0</ele><time>2026-05-03T11:31:50.114Z</time></trkpt><trkpt lat="44.2165199" lon="6.7491861"><ele>1608.0</ele><time>2026-05-03T11:31:51.114Z</time></trkpt><trkpt lat="44.2166372" lon="6.7491289"><ele>1604.25</ele><time>2026-05-03T11:31:52.113Z</time></trkpt><trkpt lat="44.2167565" lon="6.7490857"><ele>1600.5</ele><time>2026-05-03T11:31:53.114Z</time></trkpt><trkpt lat="44.2168824" lon="6.7490482"><ele>1596.75</ele><time>2026-05-03T11:31:54.114Z</time></trkpt><trkpt lat="44.2170156" lon="6.7490044"><ele>1593.0</ele><time>2026-05-03T11:31:55.114Z</time></trkpt><trkpt lat="44.2171316" lon="6.7489784"><ele>1593.0</ele><time>2026-05-03T11:31:56.114Z</time></trkpt><trkpt lat="44.2172566" lon="6.7489376"><ele>1593.0</ele><time>2026-05-03T11:31:57.114Z</time></trkpt><trkpt lat="44.2173707" lon="6.7488757"><ele>1593.0</ele><time>2026-05-03T11:31:58.114Z</time></trkpt><trkpt lat="44.2174588" lon="6.748811"><ele>1593.0</ele><time>2026-05-03T11:31:59.113Z</time></trkpt><trkpt lat="44.2175387" lon="6.7487203"><ele>1589.5</ele><time>2026-05-03T11:32:00.114Z</time></trkpt><trkpt lat="44.2176213" lon="6.7486346"><ele>1586.0</ele><time>2026-05-03T11:32:01.114Z</time></trkpt><trkpt lat="44.2177027" lon="6.7485411"><ele>1582.5</ele><time>2026-05-03T11:32:02.114Z</time></trkpt><trkpt lat="44.2177817" lon="6.7484449"><ele>1579.0</ele><time>2026-05-03T11:32:03.114Z</time></trkpt><trkpt lat="44.2184224" lon="6.7477067"><ele>1584.5</ele><time>2026-05-03T11:32:10.114Z</time></trkpt><trkpt lat="44.2186637" lon="6.7477268"><ele>1590.0</ele><time>2026-05-03T11:32:11.114Z</time></trkpt><trkpt lat="44.2187491" lon="6.7477765"><ele>1595.5</ele><time>2026-05-03T11:32:12.114Z</time></trkpt><trkpt lat="44.2188495" lon="6.7478539"><ele>1601.0</ele><time>2026-05-03T11:32:13.113Z</time></trkpt><trkpt lat="44.2189347" lon="6.7479039"><ele>1599.1666666666665</ele><time>2026-05-03T11:32:14.114Z</time></trkpt><trkpt lat="44.2190246" lon="6.7479566"><ele>1597.3333333333333</ele><time>2026-05-03T11:32:15.114Z</time></trkpt><trkpt lat="44.2191097" lon="6.7480182"><ele>1595.5</ele><time>2026-05-03T11:32:16.114Z</time></trkpt><trkpt lat="44.2191939" lon="6.7480724"><ele>1593.6666666666665</ele><time>2026-05-03T11:32:17.114Z</time></trkpt><trkpt lat="44.2192719" lon="6.7480962"><ele>1591.8333333333333</ele><time>2026-05-03T11:32:18.114Z</time></trkpt><trkpt lat="44.2193535" lon="6.7480806"><ele>1590.0</ele><time>2026-05-03T11:32:19.114Z</time></trkpt><trkpt lat="44.2194234" lon="6.7480179"><ele>1590.0</ele><time>2026-05-03T11:32:20.114Z</time></trkpt><trkpt lat="44.2194913" lon="6.7479463"><ele>1590.0</ele><time>2026-05-03T11:32:21.114Z</time></trkpt><trkpt lat="44.2195548" lon="6.7478775"><ele>1590.0</ele><time>2026-05-03T11:32:22.114Z</time></trkpt><trkpt lat="44.2196052" lon="6.7477282"><ele>1590.0</ele><time>2026-05-03T11:32:23.113Z</time></trkpt><trkpt lat="44.219649" lon="6.747583"><ele>1590.0</ele><time>2026-05-03T11:32:24.114Z</time></trkpt><trkpt lat="44.2197075" lon="6.7474599"><ele>1593.0</ele><time>2026-05-03T11:32:25.114Z</time></trkpt><trkpt lat="44.2197544" lon="6.7473262"><ele>1596.0</ele><time>2026-05-03T11:32:26.113Z</time></trkpt><trkpt lat="44.219798" lon="6.7471897"><ele>1599.0</ele><time>2026-05-03T11:32:27.114Z</time></trkpt><trkpt lat="44.2198535" lon="6.747087"><ele>1602.0</ele><time>2026-05-03T11:32:28.114Z</time></trkpt><trkpt lat="44.219915" lon="6.7469507"><ele>1605.0</ele><time>2026-05-03T11:32:29.113Z</time></trkpt><trkpt lat="44.2199198" lon="6.7467884"><ele>1605.6</ele><time>2026-05-03T11:32:30.114Z</time></trkpt><trkpt lat="44.2199228" lon="6.7466406"><ele>1606.2</ele><time>2026-05-03T11:32:31.114Z</time></trkpt><trkpt lat="44.2199309" lon="6.7464953"><ele>1606.8000000000002</ele><time>2026-05-03T11:32:32.114Z</time></trkpt><trkpt lat="44.2199324" lon="6.7463517"><ele>1607.4</ele><time>2026-05-03T11:32:33.114Z</time></trkpt><trkpt lat="44.2199236" lon="6.7462258"><ele>1608.0</ele><time>2026-05-03T11:32:34.12Z</time></trkpt><trkpt lat="44.219762" lon="6.7460918"><ele>1604.0</ele><time>2026-05-03T11:32:35.114Z</time></trkpt><trkpt lat="44.21968" lon="6.745953"><ele>1600.0</ele><time>2026-05-03T11:32:36.113Z</time></trkpt><trkpt lat="44.219581" lon="6.7458825"><ele>1596.0</ele><time>2026-05-03T11:32:37.116Z</time></trkpt><trkpt lat="44.2194905" lon="6.7457977"><ele>1592.0</ele><time>2026-05-03T11:32:38.111Z</time></trkpt><trkpt lat="44.2193803" lon="6.745762"><ele>1592.0</ele><time>2026-05-03T11:32:39.112Z</time></trkpt><trkpt lat="44.2192795" lon="6.7457119"><ele>1592.0</ele><time>2026-05-03T11:32:40.111Z</time></trkpt><trkpt lat="44.2191815" lon="6.7456747"><ele>1592.0</ele><time>2026-05-03T11:32:41.112Z</time></trkpt><trkpt lat="44.2190584" lon="6.7457128"><ele>1592.0</ele><time>2026-05-03T11:32:42.112Z</time></trkpt><trkpt lat="44.2189849" lon="6.7456832"><ele>1592.0</ele><time>2026-05-03T11:32:43.112Z</time></trkpt><trkpt lat="44.2188698" lon="6.7456092"><ele>1591.9999999999998</ele><time>2026-05-03T11:32:45.112Z</time></trkpt><trkpt lat="44.2188356" lon="6.7454886"><ele>1592.0</ele><time>2026-05-03T11:32:47.112Z</time></trkpt><trkpt lat="44.218872" lon="6.7453932"><ele>1592.0</ele><time>2026-05-03T11:32:49.112Z</time></trkpt><trkpt lat="44.2189443" lon="6.7454153"><ele>1592.0</ele><time>2026-05-03T11:32:50.112Z</time></trkpt><trkpt lat="44.2190519" lon="6.7454555"><ele>1591.9999999999998</ele><time>2026-05-03T11:32:52.112Z</time></trkpt><trkpt lat="44.2191109" lon="6.7455359"><ele>1592.0</ele><time>2026-05-03T11:32:55.112Z</time></trkpt><trkpt lat="44.2191706" lon="6.745572"><ele>1591.9999999999998</ele><time>2026-05-03T11:32:58.112Z</time></trkpt><trkpt lat="44.2191093" lon="6.7456263"><ele>1592.0</ele><time>2026-05-03T11:34:04.112Z</time></trkpt><trkpt lat="44.2190405" lon="6.7456072"><ele>1592.0</ele><time>2026-05-03T11:34:09.112Z</time></trkpt><trkpt lat="44.2189807" lon="6.7455497"><ele>1592.0</ele><time>2026-05-03T11:34:13.112Z</time></trkpt><trkpt lat="44.21892" lon="6.7455051"><ele>1592.0</ele><time>2026-05-03T11:34:20.112Z</time></trkpt><trkpt lat="44.2188572" lon="6.745489"><ele>1591.9999999999998</ele><time>2026-05-03T11:34:25.112Z</time></trkpt><trkpt lat="44.2189267" lon="6.745507"><ele>1592.0</ele><time>2026-05-03T11:34:51.112Z</time></trkpt><trkpt lat="44.2189907" lon="6.7454564"><ele>1591.9999999999998</ele><time>2026-05-03T11:34:58.112Z</time></trkpt><trkpt lat="44.2190581" lon="6.7454199"><ele>1592.0</ele><time>2026-05-03T11:35:04.112Z</time></trkpt><trkpt lat="44.2191335" lon="6.7454348"><ele>1592.0</ele><time>2026-05-03T11:35:10.112Z</time></trkpt><trkpt lat="44.2191835" lon="6.7454983"><ele>1592.0</ele><time>2026-05-03T11:35:13.111Z</time></trkpt><trkpt lat="44.2191497" lon="6.7455949"><ele>1592.0</ele><time>2026-05-03T11:35:58.111Z</time></trkpt><trkpt lat="44.2192199" lon="6.7456028"><ele>1591.9999999999998</ele><time>2026-05-03T11:43:25.112Z</time></trkpt><trkpt lat="44.2192985" lon="6.7456017"><ele>1592.0</ele><time>2026-05-03T11:43:26.112Z</time></trkpt><trkpt lat="44.2193832" lon="6.7456133"><ele>1592.0</ele><time>2026-05-03T11:43:27.112Z</time></trkpt><trkpt lat="44.2194724" lon="6.7456323"><ele>1592.0</ele><time>2026-05-03T11:43:28.111Z</time></trkpt><trkpt lat="44.2196012" lon="6.7456493"><ele>1592.0</ele><time>2026-05-03T11:43:29.112Z</time></trkpt><trkpt lat="44.2196695" lon="6.7456607"><ele>1592.0</ele><time>2026-05-03T11:43:30.111Z</time></trkpt><trkpt lat="44.2197776" lon="6.7456729"><ele>1592.0</ele><time>2026-05-03T11:43:31.112Z</time></trkpt><trkpt lat="44.2198761" lon="6.7457193"><ele>1595.1999999999998</ele><time>2026-05-03T11:43:32.112Z</time></trkpt><trkpt lat="44.2199749" lon="6.7457623"><ele>1598.4</ele><time>2026-05-03T11:43:33.112Z</time></trkpt><trkpt lat="44.2200696" lon="6.7457955"><ele>1601.6</ele><time>2026-05-03T11:43:34.111Z</time></trkpt><trkpt lat="44.2201572" lon="6.7458539"><ele>1604.8000000000002</ele><time>2026-05-03T11:43:35.111Z</time></trkpt><trkpt lat="44.2202029" lon="6.746003"><ele>1608.0</ele><time>2026-05-03T11:43:36.112Z</time></trkpt><trkpt lat="44.2202693" lon="6.7461028"><ele>1608.0</ele><time>2026-05-03T11:43:37.112Z</time></trkpt><trkpt lat="44.220338" lon="6.7462168"><ele>1608.0</ele><time>2026-05-03T11:43:38.111Z</time></trkpt><trkpt lat="44.2203998" lon="6.7463302"><ele>1608.0</ele><time>2026-05-03T11:43:39.112Z</time></trkpt><trkpt lat="44.2204571" lon="6.7464455"><ele>1608.0</ele><time>2026-05-03T11:43:40.112Z</time></trkpt><trkpt lat="44.2205065" lon="6.7465745"><ele>1608.0</ele><time>2026-05-03T11:43:41.112Z</time></trkpt><trkpt lat="44.2205672" lon="6.7467158"><ele>1608.0</ele><time>2026-05-03T11:43:42.112Z</time></trkpt><trkpt lat="44.2206234" lon="6.7468606"><ele>1608.0</ele><time>2026-05-03T11:43:43.112Z</time></trkpt><trkpt lat="44.220677" lon="6.7470065"><ele>1608.0</ele><time>2026-05-03T11:43:44.112Z</time></trkpt><trkpt lat="44.22075" lon="6.7471252"><ele>1608.0</ele><time>2026-05-03T11:43:45.112Z</time></trkpt><trkpt lat="44.2208305" lon="6.7472515"><ele>1615.75</ele><time>2026-05-03T11:43:46.112Z</time></trkpt><trkpt lat="44.2209247" lon="6.7473682"><ele>1623.5</ele><time>2026-05-03T11:43:47.112Z</time></trkpt><trkpt lat="44.2210215" lon="6.7474688"><ele>1631.25</ele><time>2026-05-03T11:43:48.112Z</time></trkpt><trkpt lat="44.2211183" lon="6.7476008"><ele>1639.0</ele><time>2026-05-03T11:43:49.112Z</time></trkpt><trkpt lat="44.2212083" lon="6.7477052"><ele>1639.0</ele><time>2026-05-03T11:43:50.112Z</time></trkpt><trkpt lat="44.2212984" lon="6.7478158"><ele>1639.0</ele><time>2026-05-03T11:43:51.112Z</time></trkpt><trkpt lat="44.2213835" lon="6.7479206"><ele>1639.0</ele><time>2026-05-03T11:43:52.112Z</time></trkpt><trkpt lat="44.2214878" lon="6.7480085"><ele>1639.0</ele><time>2026-05-03T11:43:53.112Z</time></trkpt><trkpt lat="44.2215947" lon="6.748081"><ele>1639.0</ele><time>2026-05-03T11:43:54.112Z</time></trkpt><trkpt lat="44.2217208" lon="6.7481285"><ele>1639.0</ele><time>2026-05-03T11:43:55.112Z</time></trkpt><trkpt lat="44.2218718" lon="6.7481292"><ele>1639.0</ele><time>2026-05-03T11:43:56.112Z</time></trkpt><trkpt lat="44.2220097" lon="6.7481538"><ele>1639.0</ele><time>2026-05-03T11:43:57.112Z</time></trkpt><trkpt lat="44.2221422" lon="6.7481729"><ele>1639.0</ele><time>2026-05-03T11:43:58.112Z</time></trkpt><trkpt lat="44.2222857" lon="6.7481821"><ele>1639.0</ele><time>2026-05-03T11:43:59.112Z</time></trkpt><trkpt lat="44.2224256" lon="6.7482049"><ele>1639.0</ele><time>2026-05-03T11:44:00.111Z</time></trkpt><trkpt lat="44.2225579" lon="6.7482031"><ele>1639.0</ele><time>2026-05-03T11:44:01.112Z</time></trkpt><trkpt lat="44.2226933" lon="6.7481836"><ele>1642.5</ele><time>2026-05-03T11:44:02.111Z</time></trkpt><trkpt lat="44.2228279" lon="6.7481632"><ele>1646.0</ele><time>2026-05-03T11:44:03.111Z</time></trkpt><trkpt lat="44.2229569" lon="6.7481478"><ele>1649.5</ele><time>2026-05-03T11:44:04.112Z</time></trkpt><trkpt lat="44.2231013" lon="6.7481388"><ele>1653.0</ele><time>2026-05-03T11:44:05.112Z</time></trkpt><trkpt lat="44.2232301" lon="6.7481253"><ele>1655.0</ele><time>2026-05-03T11:44:06.111Z</time></trkpt><trkpt lat="44.2233721" lon="6.748136"><ele>1657.0</ele><time>2026-05-03T11:44:07.112Z</time></trkpt><trkpt lat="44.223507" lon="6.7481359"><ele>1659.0</ele><time>2026-05-03T11:44:08.112Z</time></trkpt><trkpt lat="44.2236557" lon="6.7481512"><ele>1661.0</ele><time>2026-05-03T11:44:09.111Z</time></trkpt><trkpt lat="44.2237826" lon="6.7481716"><ele>1661.0</ele><time>2026-05-03T11:44:10.112Z</time></trkpt><trkpt lat="44.2239403" lon="6.7481881"><ele>1661.0</ele><time>2026-05-03T11:44:11.111Z</time></trkpt><trkpt lat="44.2240864" lon="6.7482047"><ele>1661.0</ele><time>2026-05-03T11:44:12.112Z</time></trkpt><trkpt lat="44.2242267" lon="6.7482095"><ele>1661.0</ele><time>2026-05-03T11:44:13.112Z</time></trkpt><trkpt lat="44.2243732" lon="6.7482256"><ele>1663.25</ele><time>2026-05-03T11:44:14.112Z</time></trkpt><trkpt lat="44.2245126" lon="6.7482389"><ele>1665.5</ele><time>2026-05-03T11:44:15.112Z</time></trkpt><trkpt lat="44.2246484" lon="6.7482527"><ele>1667.75</ele><time>2026-05-03T11:44:16.111Z</time></trkpt><trkpt lat="44.2247843" lon="6.7482725"><ele>1670.0</ele><time>2026-05-03T11:44:17.112Z</time></trkpt><trkpt lat="44.2249003" lon="6.7483257"><ele>1667.5</ele><time>2026-05-03T11:44:18.112Z</time></trkpt><trkpt lat="44.2250097" lon="6.7484341"><ele>1665.0</ele><time>2026-05-03T11:44:19.112Z</time></trkpt><trkpt lat="44.2251204" lon="6.748526"><ele>1662.5</ele><time>2026-05-03T11:44:20.111Z</time></trkpt><trkpt lat="44.2252288" lon="6.7486263"><ele>1660.0</ele><time>2026-05-03T11:44:21.112Z</time></trkpt><trkpt lat="44.2253207" lon="6.7487145"><ele>1660.0</ele><time>2026-05-03T11:44:22.112Z</time></trkpt><trkpt lat="44.2254183" lon="6.7487468"><ele>1660.0</ele><time>2026-05-03T11:44:23.112Z</time></trkpt><trkpt lat="44.2255249" lon="6.7487368"><ele>1660.0</ele><time>2026-05-03T11:44:24.112Z</time></trkpt><trkpt lat="44.2256638" lon="6.7486548"><ele>1660.0</ele><time>2026-05-03T11:44:25.112Z</time></trkpt><trkpt lat="44.2257965" lon="6.748613"><ele>1662.75</ele><time>2026-05-03T11:44:26.112Z</time></trkpt><trkpt lat="44.2259284" lon="6.7485527"><ele>1665.5</ele><time>2026-05-03T11:44:27.112Z</time></trkpt><trkpt lat="44.2260617" lon="6.7485911"><ele>1668.25</ele><time>2026-05-03T11:44:28.112Z</time></trkpt><trkpt lat="44.2261892" lon="6.7486275"><ele>1671.0</ele><time>2026-05-03T11:44:29.112Z</time></trkpt><trkpt lat="44.2262909" lon="6.7487285"><ele>1671.0</ele><time>2026-05-03T11:44:30.111Z</time></trkpt><trkpt lat="44.2263946" lon="6.7487962"><ele>1671.0</ele><time>2026-05-03T11:44:31.112Z</time></trkpt><trkpt lat="44.2265024" lon="6.7488565"><ele>1671.0</ele><time>2026-05-03T11:44:32.112Z</time></trkpt><trkpt lat="44.2266338" lon="6.7488799"><ele>1671.0</ele><time>2026-05-03T11:44:33.112Z</time></trkpt><trkpt lat="44.2267633" lon="6.748875"><ele>1673.0</ele><time>2026-05-03T11:44:34.112Z</time></trkpt><trkpt lat="44.2268961" lon="6.7488327"><ele>1675.0</ele><time>2026-05-03T11:44:35.112Z</time></trkpt><trkpt lat="44.2270212" lon="6.7487786"><ele>1677.0</ele><time>2026-05-03T11:44:36.112Z</time></trkpt><trkpt lat="44.227139" lon="6.748701"><ele>1679.0</ele><time>2026-05-03T11:44:37.111Z</time></trkpt><trkpt lat="44.2272823" lon="6.7486746"><ele>1681.75</ele><time>2026-05-03T11:44:38.112Z</time></trkpt><trkpt lat="44.2274221" lon="6.7486434"><ele>1684.5</ele><time>2026-05-03T11:44:39.112Z</time></trkpt><trkpt lat="44.2275625" lon="6.7486377"><ele>1687.25</ele><time>2026-05-03T11:44:40.112Z</time></trkpt><trkpt lat="44.227684" lon="6.7486827"><ele>1690.0</ele><time>2026-05-03T11:44:41.112Z</time></trkpt><trkpt lat="44.227776" lon="6.7488088"><ele>1690.0</ele><time>2026-05-03T11:44:42.112Z</time></trkpt><trkpt lat="44.2278821" lon="6.7488753"><ele>1690.0</ele><time>2026-05-03T11:44:43.111Z</time></trkpt><trkpt lat="44.2280116" lon="6.7488847"><ele>1690.0</ele><time>2026-05-03T11:44:44.112Z</time></trkpt><trkpt lat="44.2281327" lon="6.7488328"><ele>1690.0</ele><time>2026-05-03T11:44:45.111Z</time></trkpt><trkpt lat="44.2282482" lon="6.7488009"><ele>1693.5</ele><time>2026-05-03T11:44:46.112Z</time></trkpt><trkpt lat="44.2283644" lon="6.7488367"><ele>1697.0</ele><time>2026-05-03T11:44:47.112Z</time></trkpt><trkpt lat="44.2284617" lon="6.7488571"><ele>1700.5</ele><time>2026-05-03T11:44:48.112Z</time></trkpt><trkpt lat="44.2285636" lon="6.7489609"><ele>1704.0</ele><time>2026-05-03T11:44:49.112Z</time></trkpt><trkpt lat="44.228676" lon="6.7490331"><ele>1704.0</ele><time>2026-05-03T11:44:50.112Z</time></trkpt><trkpt lat="44.2287969" lon="6.7490689"><ele>1704.0</ele><time>2026-05-03T11:44:51.112Z</time></trkpt><trkpt lat="44.2289234" lon="6.7490733"><ele>1704.0</ele><time>2026-05-03T11:44:52.112Z</time></trkpt><trkpt lat="44.2290632" lon="6.7490513"><ele>1704.0</ele><time>2026-05-03T11:44:53.112Z</time></trkpt><trkpt lat="44.2292225" lon="6.7489882"><ele>1707.6666666666665</ele><time>2026-05-03T11:44:54.112Z</time></trkpt><trkpt lat="44.2293876" lon="6.7489277"><ele>1711.3333333333333</ele><time>2026-05-03T11:44:55.112Z</time></trkpt><trkpt lat="44.2295515" lon="6.7488705"><ele>1715.0</ele><time>2026-05-03T11:44:56.112Z</time></trkpt><trkpt lat="44.229708" lon="6.7487998"><ele>1716.25</ele><time>2026-05-03T11:44:57.112Z</time></trkpt><trkpt lat="44.22985" lon="6.7487631"><ele>1717.5</ele><time>2026-05-03T11:44:58.112Z</time></trkpt><trkpt lat="44.2299963" lon="6.7487293"><ele>1718.75</ele><time>2026-05-03T11:44:59.112Z</time></trkpt><trkpt lat="44.2301085" lon="6.7487615"><ele>1720.0</ele><time>2026-05-03T11:45:00.112Z</time></trkpt><trkpt lat="44.2302309" lon="6.7487848"><ele>1720.0</ele><time>2026-05-03T11:45:01.112Z</time></trkpt><trkpt lat="44.2303545" lon="6.7488264"><ele>1720.0</ele><time>2026-05-03T11:45:02.111Z</time></trkpt><trkpt lat="44.2304549" lon="6.7489376"><ele>1720.0</ele><time>2026-05-03T11:45:03.112Z</time></trkpt><trkpt lat="44.2305359" lon="6.749044"><ele>1720.0</ele><time>2026-05-03T11:45:04.112Z</time></trkpt><trkpt lat="44.2305772" lon="6.7492132"><ele>1722.4</ele><time>2026-05-03T11:45:05.112Z</time></trkpt><trkpt lat="44.2305994" lon="6.749415"><ele>1724.8</ele><time>2026-05-03T11:45:06.112Z</time></trkpt><trkpt lat="44.2306109" lon="6.7495768"><ele>1727.1999999999998</ele><time>2026-05-03T11:45:07.112Z</time></trkpt><trkpt lat="44.2306804" lon="6.7496455"><ele>1729.6</ele><time>2026-05-03T11:45:08.112Z</time></trkpt><trkpt lat="44.2307559" lon="6.7496997"><ele>1732.0</ele><time>2026-05-03T11:45:09.112Z</time></trkpt><trkpt lat="44.2308244" lon="6.7497332"><ele>1732.0</ele><time>2026-05-03T11:45:10.112Z</time></trkpt><trkpt lat="44.2309205" lon="6.7497557"><ele>1732.0</ele><time>2026-05-03T11:45:11.112Z</time></trkpt><trkpt lat="44.2310453" lon="6.7498414"><ele>1732.0</ele><time>2026-05-03T11:45:12.112Z</time></trkpt><trkpt lat="44.2311597" lon="6.7499169"><ele>1732.0</ele><time>2026-05-03T11:45:13.111Z</time></trkpt><trkpt lat="44.2312657" lon="6.7500073"><ele>1732.0</ele><time>2026-05-03T11:45:14.112Z</time></trkpt><trkpt lat="44.231363" lon="6.750102"><ele>1732.0</ele><time>2026-05-03T11:45:15.112Z</time></trkpt><trkpt lat="44.2314238" lon="6.7502568"><ele>1732.0</ele><time>2026-05-03T11:45:16.112Z</time></trkpt><trkpt lat="44.2314635" lon="6.7504045"><ele>1732.0</ele><time>2026-05-03T11:45:17.112Z</time></trkpt><trkpt lat="44.2314874" lon="6.7505603"><ele>1732.1999999999998</ele><time>2026-05-03T11:45:18.112Z</time></trkpt><trkpt lat="44.2314949" lon="6.7507029"><ele>1732.3999999999999</ele><time>2026-05-03T11:45:19.112Z</time></trkpt><trkpt lat="44.2315107" lon="6.7508461"><ele>1732.6000000000001</ele><time>2026-05-03T11:45:20.112Z</time></trkpt><trkpt lat="44.2315894" lon="6.7510197"><ele>1732.8000000000002</ele><time>2026-05-03T11:45:22.112Z</time></trkpt><trkpt lat="44.2316481" lon="6.7510684"><ele>1733.0</ele><time>2026-05-03T11:45:23.112Z</time></trkpt><trkpt lat="44.2318078" lon="6.7510884"><ele>1733.0</ele><time>2026-05-03T11:45:24.111Z</time></trkpt><trkpt lat="44.2319441" lon="6.7510978"><ele>1733.0</ele><time>2026-05-03T11:45:25.112Z</time></trkpt><trkpt lat="44.2320741" lon="6.751096"><ele>1733.0</ele><time>2026-05-03T11:45:26.112Z</time></trkpt><trkpt lat="44.2321848" lon="6.7510799"><ele>1733.0</ele><time>2026-05-03T11:45:27.112Z</time></trkpt><trkpt lat="44.2322888" lon="6.7510915"><ele>1738.2</ele><time>2026-05-03T11:45:28.112Z</time></trkpt><trkpt lat="44.2323794" lon="6.7510941"><ele>1743.4</ele><time>2026-05-03T11:45:29.112Z</time></trkpt><trkpt lat="44.2324633" lon="6.751149"><ele>1748.6000000000001</ele><time>2026-05-03T11:45:30.112Z</time></trkpt><trkpt lat="44.23252" lon="6.7512324"><ele>1753.8000000000002</ele><time>2026-05-03T11:45:31.112Z</time></trkpt><trkpt lat="44.2325614" lon="6.7513345"><ele>1759.0</ele><time>2026-05-03T11:45:32.112Z</time></trkpt><trkpt lat="44.2325567" lon="6.7515278"><ele>1759.0</ele><time>2026-05-03T11:45:33.112Z</time></trkpt><trkpt lat="44.2325822" lon="6.7516618"><ele>1759.0</ele><time>2026-05-03T11:45:34.112Z</time></trkpt><trkpt lat="44.2326092" lon="6.7517689"><ele>1759.0</ele><time>2026-05-03T11:45:35.111Z</time></trkpt><trkpt lat="44.2326507" lon="6.7518793"><ele>1759.0</ele><time>2026-05-03T11:45:36.111Z</time></trkpt><trkpt lat="44.2327298" lon="6.7519853"><ele>1759.0</ele><time>2026-05-03T11:45:37.112Z</time></trkpt><trkpt lat="44.2327996" lon="6.7520562"><ele>1760.0</ele><time>2026-05-03T11:45:38.112Z</time></trkpt><trkpt lat="44.2329579" lon="6.7521067"><ele>1761.0</ele><time>2026-05-03T11:45:39.112Z</time></trkpt><trkpt lat="44.2330787" lon="6.7521656"><ele>1762.0</ele><time>2026-05-03T11:45:40.112Z</time></trkpt><trkpt lat="44.2332155" lon="6.7522206"><ele>1763.0</ele><time>2026-05-03T11:45:41.112Z</time></trkpt><trkpt lat="44.2333477" lon="6.7522653"><ele>1763.0</ele><time>2026-05-03T11:45:42.111Z</time></trkpt><trkpt lat="44.2334785" lon="6.752329"><ele>1763.0</ele><time>2026-05-03T11:45:43.111Z</time></trkpt><trkpt lat="44.233607" lon="6.7523748"><ele>1763.0</ele><time>2026-05-03T11:45:44.112Z</time></trkpt><trkpt lat="44.2337305" lon="6.7524121"><ele>1763.0</ele><time>2026-05-03T11:45:45.112Z</time></trkpt><trkpt lat="44.2338693" lon="6.7524427"><ele>1764.25</ele><time>2026-05-03T11:45:46.112Z</time></trkpt><trkpt lat="44.2340014" lon="6.7524619"><ele>1765.5</ele><time>2026-05-03T11:45:47.112Z</time></trkpt><trkpt lat="44.2341269" lon="6.7524664"><ele>1766.75</ele><time>2026-05-03T11:45:48.112Z</time></trkpt><trkpt lat="44.2342481" lon="6.7524564"><ele>1768.0</ele><time>2026-05-03T11:45:49.112Z</time></trkpt><trkpt lat="44.2343649" lon="6.7524413"><ele>1768.0</ele><time>2026-05-03T11:45:50.112Z</time></trkpt><trkpt lat="44.2345058" lon="6.7524525"><ele>1768.0</ele><time>2026-05-03T11:45:51.112Z</time></trkpt><trkpt lat="44.2346407" lon="6.7524536"><ele>1768.0</ele><time>2026-05-03T11:45:52.111Z</time></trkpt><trkpt lat="44.2347582" lon="6.752455"><ele>1768.0</ele><time>2026-05-03T11:45:53.112Z</time></trkpt><trkpt lat="44.2348681" lon="6.7524477"><ele>1770.2</ele><time>2026-05-03T11:45:54.112Z</time></trkpt><trkpt lat="44.2349545" lon="6.7524338"><ele>1772.4</ele><time>2026-05-03T11:45:55.112Z</time></trkpt><trkpt lat="44.2350352" lon="6.7524028"><ele>1774.6000000000001</ele><time>2026-05-03T11:45:56.112Z</time></trkpt><trkpt lat="44.2351138" lon="6.7523123"><ele>1776.8000000000002</ele><time>2026-05-03T11:45:57.111Z</time></trkpt><trkpt lat="44.2351899" lon="6.7522171"><ele>1779.0</ele><time>2026-05-03T11:45:58.111Z</time></trkpt><trkpt lat="44.2352442" lon="6.7521149"><ele>1779.0</ele><time>2026-05-03T11:45:59.112Z</time></trkpt><trkpt lat="44.2353373" lon="6.7519839"><ele>1779.0</ele><time>2026-05-03T11:46:00.112Z</time></trkpt><trkpt lat="44.2354185" lon="6.7518552"><ele>1779.0</ele><time>2026-05-03T11:46:01.112Z</time></trkpt><trkpt lat="44.2355036" lon="6.7517195"><ele>1779.0</ele><time>2026-05-03T11:46:02.111Z</time></trkpt><trkpt lat="44.2355867" lon="6.751587"><ele>1779.0</ele><time>2026-05-03T11:46:03.112Z</time></trkpt><trkpt lat="44.2356669" lon="6.7514442"><ele>1779.0</ele><time>2026-05-03T11:46:04.111Z</time></trkpt><trkpt lat="44.2357461" lon="6.7513178"><ele>1779.0</ele><time>2026-05-03T11:46:05.112Z</time></trkpt><trkpt lat="44.2358267" lon="6.7512067"><ele>1779.0</ele><time>2026-05-03T11:46:06.112Z</time></trkpt><trkpt lat="44.2359222" lon="6.7511215"><ele>1779.0</ele><time>2026-05-03T11:46:07.112Z</time></trkpt><trkpt lat="44.2360242" lon="6.7510822"><ele>1779.0</ele><time>2026-05-03T11:46:08.112Z</time></trkpt><trkpt lat="44.2361347" lon="6.7511195"><ele>1779.0</ele><time>2026-05-03T11:46:09.112Z</time></trkpt><trkpt lat="44.2362564" lon="6.7512004"><ele>1779.0</ele><time>2026-05-03T11:46:10.111Z</time></trkpt><trkpt lat="44.2363838" lon="6.7512652"><ele>1779.0</ele><time>2026-05-03T11:46:11.111Z</time></trkpt><trkpt lat="44.2365073" lon="6.7513117"><ele>1779.0</ele><time>2026-05-03T11:46:12.112Z</time></trkpt><trkpt lat="44.2366436" lon="6.7513731"><ele>1779.0</ele><time>2026-05-03T11:46:13.111Z</time></trkpt><trkpt lat="44.2367651" lon="6.7514428"><ele>1779.0</ele><time>2026-05-03T11:46:14.111Z</time></trkpt><trkpt lat="44.2368855" lon="6.7514955"><ele>1779.0</ele><time>2026-05-03T11:46:15.112Z</time></trkpt><trkpt lat="44.2370242" lon="6.7515367"><ele>1779.0</ele><time>2026-05-03T11:46:16.112Z</time></trkpt><trkpt lat="44.2371795" lon="6.7515673"><ele>1779.0</ele><time>2026-05-03T11:46:17.112Z</time></trkpt><trkpt lat="44.2373297" lon="6.7515805"><ele>1779.0</ele><time>2026-05-03T11:46:18.112Z</time></trkpt><trkpt lat="44.2374758" lon="6.751604"><ele>1781.75</ele><time>2026-05-03T11:46:19.112Z</time></trkpt><trkpt lat="44.2376214" lon="6.7516162"><ele>1784.5</ele><time>2026-05-03T11:46:20.112Z</time></trkpt><trkpt lat="44.2377515" lon="6.7516036"><ele>1787.25</ele><time>2026-05-03T11:46:21.112Z</time></trkpt><trkpt lat="44.2378928" lon="6.7515768"><ele>1790.0</ele><time>2026-05-03T11:46:22.112Z</time></trkpt><trkpt lat="44.238012" lon="6.7514821"><ele>1790.0</ele><time>2026-05-03T11:46:23.112Z</time></trkpt><trkpt lat="44.2381159" lon="6.7513654"><ele>1790.0</ele><time>2026-05-03T11:46:24.112Z</time></trkpt><trkpt lat="44.2382166" lon="6.7512505"><ele>1790.0</ele><time>2026-05-03T11:46:25.111Z</time></trkpt><trkpt lat="44.2383092" lon="6.7511639"><ele>1790.0</ele><time>2026-05-03T11:46:26.112Z</time></trkpt><trkpt lat="44.2384098" lon="6.751075"><ele>1791.5</ele><time>2026-05-03T11:46:27.112Z</time></trkpt><trkpt lat="44.2385302" lon="6.7510584"><ele>1793.0</ele><time>2026-05-03T11:46:28.112Z</time></trkpt><trkpt lat="44.2386512" lon="6.7510592"><ele>1794.5</ele><time>2026-05-03T11:46:29.112Z</time></trkpt><trkpt lat="44.238742" lon="6.751183"><ele>1796.0</ele><time>2026-05-03T11:46:30.112Z</time></trkpt><trkpt lat="44.238841" lon="6.7512973"><ele>1796.0</ele><time>2026-05-03T11:46:31.112Z</time></trkpt><trkpt lat="44.2389465" lon="6.7514214"><ele>1796.0</ele><time>2026-05-03T11:46:32.112Z</time></trkpt><trkpt lat="44.2390415" lon="6.7515317"><ele>1796.0</ele><time>2026-05-03T11:46:33.112Z</time></trkpt><trkpt lat="44.2391579" lon="6.7516257"><ele>1796.0</ele><time>2026-05-03T11:46:34.111Z</time></trkpt><trkpt lat="44.2392887" lon="6.7516887"><ele>1799.0</ele><time>2026-05-03T11:46:35.111Z</time></trkpt><trkpt lat="44.2394084" lon="6.7517512"><ele>1802.0</ele><time>2026-05-03T11:46:36.112Z</time></trkpt><trkpt lat="44.2395462" lon="6.7517891"><ele>1805.0</ele><time>2026-05-03T11:46:37.112Z</time></trkpt><trkpt lat="44.2396703" lon="6.7518313"><ele>1808.0</ele><time>2026-05-03T11:46:38.111Z</time></trkpt><trkpt lat="44.2398038" lon="6.7518547"><ele>1808.0</ele><time>2026-05-03T11:46:39.112Z</time></trkpt><trkpt lat="44.2399358" lon="6.7518856"><ele>1808.0</ele><time>2026-05-03T11:46:40.112Z</time></trkpt><trkpt lat="44.2400849" lon="6.751931"><ele>1808.0</ele><time>2026-05-03T11:46:41.111Z</time></trkpt><trkpt lat="44.2402176" lon="6.7519706"><ele>1808.0</ele><time>2026-05-03T11:46:42.112Z</time></trkpt><trkpt lat="44.2403654" lon="6.7520902"><ele>1808.0</ele><time>2026-05-03T11:46:43.112Z</time></trkpt><trkpt lat="44.2405026" lon="6.7521744"><ele>1808.0</ele><time>2026-05-03T11:46:44.112Z</time></trkpt><trkpt lat="44.240637" lon="6.752265"><ele>1808.0</ele><time>2026-05-03T11:46:45.112Z</time></trkpt><trkpt lat="44.2407717" lon="6.7523659"><ele>1812.3333333333333</ele><time>2026-05-03T11:46:46.112Z</time></trkpt><trkpt lat="44.2409305" lon="6.7524218"><ele>1816.6666666666665</ele><time>2026-05-03T11:46:47.112Z</time></trkpt><trkpt lat="44.2410802" lon="6.7524954"><ele>1821.0</ele><time>2026-05-03T11:46:48.112Z</time></trkpt><trkpt lat="44.241263" lon="6.7524477"><ele>1821.0</ele><time>2026-05-03T11:46:49.111Z</time></trkpt><trkpt lat="44.2414051" lon="6.7524272"><ele>1821.0</ele><time>2026-05-03T11:46:50.112Z</time></trkpt><trkpt lat="44.2415575" lon="6.7524006"><ele>1821.0</ele><time>2026-05-03T11:46:51.112Z</time></trkpt><trkpt lat="44.2417036" lon="6.7523741"><ele>1821.0</ele><time>2026-05-03T11:46:52.111Z</time></trkpt><trkpt lat="44.2418385" lon="6.752418"><ele>1822.25</ele><time>2026-05-03T11:46:53.112Z</time></trkpt><trkpt lat="44.2419798" lon="6.7524679"><ele>1823.5</ele><time>2026-05-03T11:46:54.112Z</time></trkpt><trkpt lat="44.242109" lon="6.7525266"><ele>1824.75</ele><time>2026-05-03T11:46:55.112Z</time></trkpt><trkpt lat="44.2422" lon="6.7526997"><ele>1826.0</ele><time>2026-05-03T11:46:56.112Z</time></trkpt><trkpt lat="44.2422887" lon="6.7528346"><ele>1830.6666666666665</ele><time>2026-05-03T11:46:57.112Z</time></trkpt><trkpt lat="44.2423534" lon="6.7530585"><ele>1835.3333333333335</ele><time>2026-05-03T11:46:58.111Z</time></trkpt><trkpt lat="44.2424139" lon="6.7532532"><ele>1840.0</ele><time>2026-05-03T11:46:59.112Z</time></trkpt><trkpt lat="44.2424786" lon="6.7534406"><ele>1840.0</ele><time>2026-05-03T11:47:00.112Z</time></trkpt><trkpt lat="44.2425278" lon="6.7536212"><ele>1840.0</ele><time>2026-05-03T11:47:01.112Z</time></trkpt><trkpt lat="44.242589" lon="6.7538028"><ele>1840.0</ele><time>2026-05-03T11:47:02.112Z</time></trkpt><trkpt lat="44.2426473" lon="6.7539853"><ele>1840.0</ele><time>2026-05-03T11:47:03.112Z</time></trkpt><trkpt lat="44.2427064" lon="6.7541639"><ele>1840.0</ele><time>2026-05-03T11:47:04.111Z</time></trkpt><trkpt lat="44.2427651" lon="6.7543402"><ele>1840.0</ele><time>2026-05-03T11:47:05.112Z</time></trkpt><trkpt lat="44.2428233" lon="6.7545163"><ele>1840.0</ele><time>2026-05-03T11:47:06.112Z</time></trkpt><trkpt lat="44.2428785" lon="6.7546929"><ele>1840.0</ele><time>2026-05-03T11:47:07.111Z</time></trkpt><trkpt lat="44.2429345" lon="6.7548701"><ele>1840.5</ele><time>2026-05-03T11:47:08.112Z</time></trkpt><trkpt lat="44.2429836" lon="6.755039"><ele>1841.0</ele><time>2026-05-03T11:47:09.112Z</time></trkpt><trkpt lat="44.2430457" lon="6.7552058"><ele>1841.5</ele><time>2026-05-03T11:47:10.111Z</time></trkpt><trkpt lat="44.2431096" lon="6.7553767"><ele>1842.0</ele><time>2026-05-03T11:47:11.112Z</time></trkpt><trkpt lat="44.2431688" lon="6.7555674"><ele>1848.6666666666665</ele><time>2026-05-03T11:47:12.112Z</time></trkpt><trkpt lat="44.2432303" lon="6.7557599"><ele>1855.3333333333333</ele><time>2026-05-03T11:47:13.111Z</time></trkpt><trkpt lat="44.2432948" lon="6.7559377"><ele>1862.0</ele><time>2026-05-03T11:47:14.112Z</time></trkpt><trkpt lat="44.2433572" lon="6.7561402"><ele>1862.5</ele><time>2026-05-03T11:47:15.112Z</time></trkpt><trkpt lat="44.2434214" lon="6.7563225"><ele>1863.0</ele><time>2026-05-03T11:47:16.112Z</time></trkpt><trkpt lat="44.243496" lon="6.7565008"><ele>1863.5</ele><time>2026-05-03T11:47:17.112Z</time></trkpt><trkpt lat="44.2435762" lon="6.7566644"><ele>1864.0</ele><time>2026-05-03T11:47:18.112Z</time></trkpt><trkpt lat="44.2436936" lon="6.7567627"><ele>1865.3333333333335</ele><time>2026-05-03T11:47:19.111Z</time></trkpt><trkpt lat="44.2438101" lon="6.7568793"><ele>1866.6666666666665</ele><time>2026-05-03T11:47:20.112Z</time></trkpt><trkpt lat="44.2439575" lon="6.7569547"><ele>1868.0</ele><time>2026-05-03T11:47:21.112Z</time></trkpt><trkpt lat="44.2441448" lon="6.7570228"><ele>1868.0</ele><time>2026-05-03T11:47:22.112Z</time></trkpt><trkpt lat="44.2443048" lon="6.7570797"><ele>1868.0</ele><time>2026-05-03T11:47:23.112Z</time></trkpt><trkpt lat="44.2444618" lon="6.7571214"><ele>1868.0</ele><time>2026-05-03T11:47:24.112Z</time></trkpt><trkpt lat="44.2446124" lon="6.7571434"><ele>1868.0</ele><time>2026-05-03T11:47:25.112Z</time></trkpt><trkpt lat="44.2447407" lon="6.757165"><ele>1868.0000000000002</ele><time>2026-05-03T11:47:26.111Z</time></trkpt><trkpt lat="44.2448099" lon="6.7571769"><ele>1868.0000000000002</ele><time>2026-05-03T11:47:27.112Z</time></trkpt><trkpt lat="44.2448788" lon="6.7571906"><ele>1868.0</ele><time>2026-05-03T11:47:28.111Z</time></trkpt><trkpt lat="44.2449151" lon="6.7570926"><ele>1868.0</ele><time>2026-05-03T11:47:30.112Z</time></trkpt><trkpt lat="44.2448873" lon="6.7569404"><ele>1868.0</ele><time>2026-05-03T11:47:32.112Z</time></trkpt><trkpt lat="44.2447705" lon="6.7568781"><ele>1868.0</ele><time>2026-05-03T11:47:33.112Z</time></trkpt><trkpt lat="44.244666" lon="6.7568069"><ele>1868.0</ele><time>2026-05-03T11:47:34.112Z</time></trkpt><trkpt lat="44.2445675" lon="6.7567334"><ele>1868.0</ele><time>2026-05-03T11:47:35.112Z</time></trkpt><trkpt lat="44.2444848" lon="6.7566392"><ele>1869.2</ele><time>2026-05-03T11:47:36.112Z</time></trkpt><trkpt lat="44.2444168" lon="6.7565342"><ele>1870.4</ele><time>2026-05-03T11:47:37.112Z</time></trkpt><trkpt lat="44.244371" lon="6.7564225"><ele>1871.6000000000001</ele><time>2026-05-03T11:47:38.112Z</time></trkpt><trkpt lat="44.244343" lon="6.7563274"><ele>1872.8000000000002</ele><time>2026-05-03T11:47:39.112Z</time></trkpt><trkpt lat="44.2443776" lon="6.7561846"><ele>1874.0</ele><time>2026-05-03T11:47:40.112Z</time></trkpt><trkpt lat="44.244463" lon="6.7560571"><ele>1874.0</ele><time>2026-05-03T11:47:41.112Z</time></trkpt><trkpt lat="44.244528" lon="6.7559327"><ele>1874.0</ele><time>2026-05-03T11:47:42.112Z</time></trkpt><trkpt lat="44.2446003" lon="6.7558033"><ele>1874.0</ele><time>2026-05-03T11:47:43.112Z</time></trkpt><trkpt lat="44.2446587" lon="6.7556775"><ele>1874.0</ele><time>2026-05-03T11:47:44.112Z</time></trkpt><trkpt lat="44.2446662" lon="6.755499"><ele>1874.0</ele><time>2026-05-03T11:47:45.112Z</time></trkpt><trkpt lat="44.2446739" lon="6.7553499"><ele>1874.0</ele><time>2026-05-03T11:47:46.111Z</time></trkpt><trkpt lat="44.2446521" lon="6.7551672"><ele>1874.0</ele><time>2026-05-03T11:47:47.112Z</time></trkpt><trkpt lat="44.2445447" lon="6.7550112"><ele>1874.0</ele><time>2026-05-03T11:47:48.112Z</time></trkpt><trkpt lat="44.2444844" lon="6.7548355"><ele>1874.75</ele><time>2026-05-03T11:47:49.111Z</time></trkpt><trkpt lat="44.2443881" lon="6.7547023"><ele>1875.5</ele><time>2026-05-03T11:47:50.112Z</time></trkpt><trkpt lat="44.2443114" lon="6.7545672"><ele>1876.25</ele><time>2026-05-03T11:47:51.112Z</time></trkpt><trkpt lat="44.2442393" lon="6.7544443"><ele>1877.0</ele><time>2026-05-03T11:47:52.112Z</time></trkpt><trkpt lat="44.2441813" lon="6.7543531"><ele>1876.9999999999998</ele><time>2026-05-03T11:47:53.111Z</time></trkpt><trkpt lat="44.2441296" lon="6.7542788"><ele>1877.0</ele><time>2026-05-03T11:47:54.111Z</time></trkpt><trkpt lat="44.2440867" lon="6.7542115"><ele>1877.0</ele><time>2026-05-03T11:47:55.112Z</time></trkpt><trkpt lat="44.244078" lon="6.7540748"><ele>1877.0</ele><time>2026-05-03T11:47:57.112Z</time></trkpt><trkpt lat="44.2441462" lon="6.7540407"><ele>1876.9999999999998</ele><time>2026-05-03T11:47:59.112Z</time></trkpt><trkpt lat="44.244202" lon="6.7541811"><ele>1877.0</ele><time>2026-05-03T11:48:01.111Z</time></trkpt><trkpt lat="44.24428" lon="6.7543903"><ele>1877.0</ele><time>2026-05-03T11:48:03.112Z</time></trkpt><trkpt lat="44.2443456" lon="6.7545018"><ele>1876.9999999999998</ele><time>2026-05-03T11:48:04.111Z</time></trkpt><trkpt lat="44.2444144" lon="6.7545955"><ele>1876.9999999999998</ele><time>2026-05-03T11:48:05.111Z</time></trkpt><trkpt lat="44.2444962" lon="6.7546694"><ele>1877.0</ele><time>2026-05-03T11:48:06.112Z</time></trkpt><trkpt lat="44.2446058" lon="6.7547264"><ele>1877.0</ele><time>2026-05-03T11:48:07.112Z</time></trkpt><trkpt lat="44.2447021" lon="6.754802"><ele>1884.0</ele><time>2026-05-03T11:48:08.111Z</time></trkpt><trkpt lat="44.2448163" lon="6.7548597"><ele>1891.0</ele><time>2026-05-03T11:48:09.112Z</time></trkpt><trkpt lat="44.244913" lon="6.7549535"><ele>1898.0</ele><time>2026-05-03T11:48:10.112Z</time></trkpt><trkpt lat="44.245019" lon="6.7550243"><ele>1905.0</ele><time>2026-05-03T11:48:11.111Z</time></trkpt><trkpt lat="44.245121" lon="6.7550744"><ele>1905.0</ele><time>2026-05-03T11:48:12.111Z</time></trkpt><trkpt lat="44.2452212" lon="6.7551588"><ele>1905.0</ele><time>2026-05-03T11:48:13.112Z</time></trkpt><trkpt lat="44.245334" lon="6.7552281"><ele>1905.0</ele><time>2026-05-03T11:48:14.112Z</time></trkpt><trkpt lat="44.2454404" lon="6.7553072"><ele>1905.0</ele><time>2026-05-03T11:48:15.112Z</time></trkpt><trkpt lat="44.2455472" lon="6.7553998"><ele>1906.0</ele><time>2026-05-03T11:48:16.112Z</time></trkpt><trkpt lat="44.2456477" lon="6.7554921"><ele>1907.0</ele><time>2026-05-03T11:48:17.111Z</time></trkpt><trkpt lat="44.2457476" lon="6.7555731"><ele>1908.0</ele><time>2026-05-03T11:48:18.112Z</time></trkpt><trkpt lat="44.245842" lon="6.755661"><ele>1909.0</ele><time>2026-05-03T11:48:19.112Z</time></trkpt><trkpt lat="44.2459418" lon="6.7557582"><ele>1909.0</ele><time>2026-05-03T11:48:20.112Z</time></trkpt><trkpt lat="44.246036" lon="6.7558536"><ele>1909.0</ele><time>2026-05-03T11:48:21.112Z</time></trkpt><trkpt lat="44.2461335" lon="6.7559439"><ele>1909.0</ele><time>2026-05-03T11:48:22.112Z</time></trkpt><trkpt lat="44.2462327" lon="6.7560292"><ele>1909.0</ele><time>2026-05-03T11:48:23.111Z</time></trkpt><trkpt lat="44.2463278" lon="6.7561172"><ele>1906.75</ele><time>2026-05-03T11:48:24.112Z</time></trkpt><trkpt lat="44.2464239" lon="6.7562109"><ele>1904.5</ele><time>2026-05-03T11:48:25.112Z</time></trkpt><trkpt lat="44.2465156" lon="6.7563179"><ele>1902.25</ele><time>2026-05-03T11:48:26.112Z</time></trkpt><trkpt lat="44.2465872" lon="6.7564524"><ele>1900.0</ele><time>2026-05-03T11:48:27.112Z</time></trkpt><trkpt lat="44.2466396" lon="6.7565995"><ele>1904.5</ele><time>2026-05-03T11:48:28.112Z</time></trkpt><trkpt lat="44.2466975" lon="6.7567492"><ele>1909.0</ele><time>2026-05-03T11:48:29.111Z</time></trkpt><trkpt lat="44.2467086" lon="6.7569256"><ele>1913.5</ele><time>2026-05-03T11:48:30.111Z</time></trkpt><trkpt lat="44.2467309" lon="6.7570907"><ele>1918.0</ele><time>2026-05-03T11:48:31.112Z</time></trkpt><trkpt lat="44.2467525" lon="6.7572531"><ele>1918.0</ele><time>2026-05-03T11:48:32.111Z</time></trkpt><trkpt lat="44.2467704" lon="6.7574206"><ele>1918.0</ele><time>2026-05-03T11:48:33.112Z</time></trkpt><trkpt lat="44.246794" lon="6.7575938"><ele>1918.0</ele><time>2026-05-03T11:48:34.111Z</time></trkpt><trkpt lat="44.2468148" lon="6.7577704"><ele>1918.0</ele><time>2026-05-03T11:48:35.112Z</time></trkpt><trkpt lat="44.2468391" lon="6.7579468"><ele>1918.5</ele><time>2026-05-03T11:48:36.111Z</time></trkpt><trkpt lat="44.2468568" lon="6.7581368"><ele>1919.0</ele><time>2026-05-03T11:48:37.112Z</time></trkpt><trkpt lat="44.2468756" lon="6.7583144"><ele>1919.5</ele><time>2026-05-03T11:48:38.112Z</time></trkpt><trkpt lat="44.2468865" lon="6.758495"><ele>1920.0</ele><time>2026-05-03T11:48:39.111Z</time></trkpt><trkpt lat="44.2468976" lon="6.7586738"><ele>1920.0</ele><time>2026-05-03T11:48:40.112Z</time></trkpt><trkpt lat="44.2469089" lon="6.758859"><ele>1920.0</ele><time>2026-05-03T11:48:41.112Z</time></trkpt><trkpt lat="44.2469189" lon="6.7590447"><ele>1920.0</ele><time>2026-05-03T11:48:42.112Z</time></trkpt><trkpt lat="44.2469213" lon="6.7592153"><ele>1920.0</ele><time>2026-05-03T11:48:43.112Z</time></trkpt><trkpt lat="44.2469396" lon="6.759395"><ele>1919.6</ele><time>2026-05-03T11:48:44.112Z</time></trkpt><trkpt lat="44.246952" lon="6.7595613"><ele>1919.2</ele><time>2026-05-03T11:48:45.111Z</time></trkpt><trkpt lat="44.246997" lon="6.7596952"><ele>1918.8000000000002</ele><time>2026-05-03T11:48:46.111Z</time></trkpt><trkpt lat="44.247047" lon="6.759806"><ele>1918.4</ele><time>2026-05-03T11:48:47.112Z</time></trkpt><trkpt lat="44.2470923" lon="6.7598975"><ele>1918.0</ele><time>2026-05-03T11:48:48.111Z</time></trkpt><trkpt lat="44.2471757" lon="6.7600009"><ele>1918.0</ele><time>2026-05-03T11:48:49.112Z</time></trkpt><trkpt lat="44.2472768" lon="6.7600473"><ele>1918.0</ele><time>2026-05-03T11:48:50.112Z</time></trkpt><trkpt lat="44.2473868" lon="6.7601444"><ele>1918.0</ele><time>2026-05-03T11:48:51.112Z</time></trkpt><trkpt lat="44.2475258" lon="6.760206"><ele>1918.0</ele><time>2026-05-03T11:48:52.112Z</time></trkpt><trkpt lat="44.2476502" lon="6.7602728"><ele>1922.75</ele><time>2026-05-03T11:48:53.111Z</time></trkpt><trkpt lat="44.2477731" lon="6.7603332"><ele>1927.5</ele><time>2026-05-03T11:48:54.111Z</time></trkpt><trkpt lat="44.2478419" lon="6.7604694"><ele>1932.25</ele><time>2026-05-03T11:48:55.112Z</time></trkpt><trkpt lat="44.2479289" lon="6.7605878"><ele>1937.0</ele><time>2026-05-03T11:48:56.112Z</time></trkpt><trkpt lat="44.2479836" lon="6.7607245"><ele>1937.0</ele><time>2026-05-03T11:48:57.111Z</time></trkpt><trkpt lat="44.2480404" lon="6.7608801"><ele>1937.0</ele><time>2026-05-03T11:48:58.112Z</time></trkpt><trkpt lat="44.248112" lon="6.7610229"><ele>1937.0</ele><time>2026-05-03T11:48:59.112Z</time></trkpt><trkpt lat="44.2481724" lon="6.7611764"><ele>1937.0</ele><time>2026-05-03T11:49:00.112Z</time></trkpt><trkpt lat="44.2482165" lon="6.7613343"><ele>1941.0</ele><time>2026-05-03T11:49:01.111Z</time></trkpt><trkpt lat="44.2482894" lon="6.7615016"><ele>1945.0</ele><time>2026-05-03T11:49:02.112Z</time></trkpt><trkpt lat="44.2483517" lon="6.7616781"><ele>1949.0</ele><time>2026-05-03T11:49:03.112Z</time></trkpt><trkpt lat="44.2484219" lon="6.7618691"><ele>1953.0</ele><time>2026-05-03T11:49:04.112Z</time></trkpt><trkpt lat="44.248481" lon="6.7620496"><ele>1953.0</ele><time>2026-05-03T11:49:05.112Z</time></trkpt><trkpt lat="44.2485333" lon="6.7622342"><ele>1953.0</ele><time>2026-05-03T11:49:06.111Z</time></trkpt><trkpt lat="44.2485836" lon="6.7624195"><ele>1953.0</ele><time>2026-05-03T11:49:07.111Z</time></trkpt><trkpt lat="44.2486084" lon="6.762577"><ele>1953.0</ele><time>2026-05-03T11:49:08.112Z</time></trkpt><trkpt lat="44.2486439" lon="6.7627465"><ele>1953.0</ele><time>2026-05-03T11:49:09.112Z</time></trkpt><trkpt lat="44.2486786" lon="6.7629097"><ele>1953.0</ele><time>2026-05-03T11:49:10.112Z</time></trkpt><trkpt lat="44.2487121" lon="6.7630542"><ele>1953.0</ele><time>2026-05-03T11:49:11.112Z</time></trkpt><trkpt lat="44.2487437" lon="6.7632052"><ele>1953.0</ele><time>2026-05-03T11:49:12.112Z</time></trkpt><trkpt lat="44.2488064" lon="6.7633507"><ele>1953.0</ele><time>2026-05-03T11:49:13.111Z</time></trkpt><trkpt lat="44.2488936" lon="6.7634884"><ele>1953.0</ele><time>2026-05-03T11:49:14.112Z</time></trkpt><trkpt lat="44.2489758" lon="6.7636352"><ele>1953.0</ele><time>2026-05-03T11:49:15.112Z</time></trkpt><trkpt lat="44.249078" lon="6.7637603"><ele>1953.0</ele><time>2026-05-03T11:49:16.112Z</time></trkpt><trkpt lat="44.2491835" lon="6.7638808"><ele>1958.0</ele><time>2026-05-03T11:49:17.111Z</time></trkpt><trkpt lat="44.2492832" lon="6.7640119"><ele>1963.0</ele><time>2026-05-03T11:49:18.112Z</time></trkpt><trkpt lat="44.2493563" lon="6.7641597"><ele>1968.0</ele><time>2026-05-03T11:49:19.112Z</time></trkpt><trkpt lat="44.2494127" lon="6.7643028"><ele>1973.0</ele><time>2026-05-03T11:49:20.112Z</time></trkpt><trkpt lat="44.2494309" lon="6.7644819"><ele>1973.5</ele><time>2026-05-03T11:49:21.111Z</time></trkpt><trkpt lat="44.2494435" lon="6.7646626"><ele>1974.0</ele><time>2026-05-03T11:49:22.111Z</time></trkpt><trkpt lat="44.249433" lon="6.7648406"><ele>1974.5</ele><time>2026-05-03T11:49:23.112Z</time></trkpt><trkpt lat="44.2494332" lon="6.7650064"><ele>1975.0</ele><time>2026-05-03T11:49:24.112Z</time></trkpt><trkpt lat="44.2494294" lon="6.7651495"><ele>1975.6</ele><time>2026-05-03T11:49:25.112Z</time></trkpt><trkpt lat="44.2494155" lon="6.7652985"><ele>1976.2</ele><time>2026-05-03T11:49:26.111Z</time></trkpt><trkpt lat="44.2494486" lon="6.7654145"><ele>1976.8000000000002</ele><time>2026-05-03T11:49:27.112Z</time></trkpt><trkpt lat="44.2494845" lon="6.7655149"><ele>1977.4</ele><time>2026-05-03T11:49:28.112Z</time></trkpt><trkpt lat="44.2495234" lon="6.765612"><ele>1978.0</ele><time>2026-05-03T11:49:29.112Z</time></trkpt><trkpt lat="44.2496957" lon="6.765686"><ele>1978.0</ele><time>2026-05-03T11:49:31.112Z</time></trkpt><trkpt lat="44.2497884" lon="6.7656732"><ele>1978.0</ele><time>2026-05-03T11:49:32.112Z</time></trkpt><trkpt lat="44.2498214" lon="6.7654229"><ele>1978.0</ele><time>2026-05-03T11:49:33.112Z</time></trkpt><trkpt lat="44.2498908" lon="6.7652072"><ele>1978.0</ele><time>2026-05-03T11:49:34.111Z</time></trkpt><trkpt lat="44.2499128" lon="6.7650441"><ele>1982.5</ele><time>2026-05-03T11:49:35.111Z</time></trkpt><trkpt lat="44.2499489" lon="6.7648525"><ele>1987.0</ele><time>2026-05-03T11:49:36.112Z</time></trkpt><trkpt lat="44.2499791" lon="6.7646611"><ele>1991.5</ele><time>2026-05-03T11:49:37.112Z</time></trkpt><trkpt lat="44.2500209" lon="6.7644693"><ele>1996.0</ele><time>2026-05-03T11:49:38.112Z</time></trkpt><trkpt lat="44.2500558" lon="6.7642625"><ele>1996.5</ele><time>2026-05-03T11:49:39.112Z</time></trkpt><trkpt lat="44.2500861" lon="6.7640957"><ele>1997.0</ele><time>2026-05-03T11:49:40.111Z</time></trkpt><trkpt lat="44.2500239" lon="6.7639289"><ele>1997.5</ele><time>2026-05-03T11:49:41.112Z</time></trkpt><trkpt lat="44.2499708" lon="6.7637643"><ele>1998.0</ele><time>2026-05-03T11:49:42.112Z</time></trkpt><trkpt lat="44.2499295" lon="6.7636018"><ele>2000.25</ele><time>2026-05-03T11:49:43.112Z</time></trkpt><trkpt lat="44.2498892" lon="6.7634314"><ele>2002.5</ele><time>2026-05-03T11:49:44.111Z</time></trkpt><trkpt lat="44.2498773" lon="6.7632404"><ele>2004.75</ele><time>2026-05-03T11:49:45.112Z</time></trkpt><trkpt lat="44.2498444" lon="6.7630403"><ele>2007.0</ele><time>2026-05-03T11:49:46.112Z</time></trkpt><trkpt lat="44.2498426" lon="6.7628625"><ele>2009.75</ele><time>2026-05-03T11:49:47.111Z</time></trkpt><trkpt lat="44.2498235" lon="6.762668"><ele>2012.5</ele><time>2026-05-03T11:49:48.112Z</time></trkpt><trkpt lat="44.2498118" lon="6.7624854"><ele>2015.25</ele><time>2026-05-03T11:49:49.112Z</time></trkpt><trkpt lat="44.2497741" lon="6.7623055"><ele>2018.0</ele><time>2026-05-03T11:49:50.111Z</time></trkpt><trkpt lat="44.2497519" lon="6.76212"><ele>2010.25</ele><time>2026-05-03T11:49:51.112Z</time></trkpt><trkpt lat="44.2497206" lon="6.7619669"><ele>2002.5</ele><time>2026-05-03T11:49:52.111Z</time></trkpt><trkpt lat="44.2496523" lon="6.7617903"><ele>1994.75</ele><time>2026-05-03T11:49:53.112Z</time></trkpt><trkpt lat="44.2495876" lon="6.7616324"><ele>1987.0</ele><time>2026-05-03T11:49:54.112Z</time></trkpt><trkpt lat="44.2495536" lon="6.761471"><ele>1987.0</ele><time>2026-05-03T11:49:55.111Z</time></trkpt><trkpt lat="44.2495263" lon="6.7613009"><ele>1987.0</ele><time>2026-05-03T11:49:56.112Z</time></trkpt><trkpt lat="44.2495077" lon="6.7611139"><ele>1987.0</ele><time>2026-05-03T11:49:57.112Z</time></trkpt><trkpt lat="44.2495074" lon="6.760927"><ele>1987.0</ele><time>2026-05-03T11:49:58.112Z</time></trkpt><trkpt lat="44.2494929" lon="6.7607463"><ele>1991.0</ele><time>2026-05-03T11:49:59.112Z</time></trkpt><trkpt lat="44.2494779" lon="6.7605746"><ele>1995.0</ele><time>2026-05-03T11:50:00.112Z</time></trkpt><trkpt lat="44.2494496" lon="6.7604027"><ele>1999.0</ele><time>2026-05-03T11:50:01.111Z</time></trkpt><trkpt lat="44.2494274" lon="6.760244"><ele>2003.0</ele><time>2026-05-03T11:50:02.112Z</time></trkpt><trkpt lat="44.2493529" lon="6.7600715"><ele>2006.75</ele><time>2026-05-03T11:50:03.112Z</time></trkpt><trkpt lat="44.2493039" lon="6.7598929"><ele>2010.5</ele><time>2026-05-03T11:50:04.112Z</time></trkpt><trkpt lat="44.2492397" lon="6.7597255"><ele>2014.25</ele><time>2026-05-03T11:50:05.112Z</time></trkpt><trkpt lat="44.2491884" lon="6.7595748"><ele>2018.0</ele><time>2026-05-03T11:50:06.112Z</time></trkpt><trkpt lat="44.2491404" lon="6.7594189"><ele>2022.5</ele><time>2026-05-03T11:50:07.111Z</time></trkpt><trkpt lat="44.2491002" lon="6.7592453"><ele>2027.0</ele><time>2026-05-03T11:50:08.111Z</time></trkpt><trkpt lat="44.2490624" lon="6.7590811"><ele>2031.5</ele><time>2026-05-03T11:50:09.111Z</time></trkpt><trkpt lat="44.2490293" lon="6.7589102"><ele>2036.0</ele><time>2026-05-03T11:50:10.112Z</time></trkpt><trkpt lat="44.248978" lon="6.7587654"><ele>2034.0</ele><time>2026-05-03T11:50:11.112Z</time></trkpt><trkpt lat="44.2489382" lon="6.7586159"><ele>2032.0</ele><time>2026-05-03T11:50:12.112Z</time></trkpt><trkpt lat="44.2488894" lon="6.7584779"><ele>2030.0</ele><time>2026-05-03T11:50:13.112Z</time></trkpt><trkpt lat="44.2487859" lon="6.7583758"><ele>2028.0</ele><time>2026-05-03T11:50:14.112Z</time></trkpt><trkpt lat="44.2487059" lon="6.7582692"><ele>2028.0</ele><time>2026-05-03T11:50:15.112Z</time></trkpt><trkpt lat="44.2486247" lon="6.7581833"><ele>2028.0000000000002</ele><time>2026-05-03T11:50:16.112Z</time></trkpt><trkpt lat="44.2485464" lon="6.7580996"><ele>2028.0000000000002</ele><time>2026-05-03T11:50:17.112Z</time></trkpt><trkpt lat="44.2484557" lon="6.7580175"><ele>2028.0</ele><time>2026-05-03T11:50:18.112Z</time></trkpt><trkpt lat="44.2483842" lon="6.7579215"><ele>2028.0</ele><time>2026-05-03T11:50:19.112Z</time></trkpt><trkpt lat="44.2483266" lon="6.7578154"><ele>2028.0</ele><time>2026-05-03T11:50:20.112Z</time></trkpt><trkpt lat="44.2482692" lon="6.7577353"><ele>2028.0000000000002</ele><time>2026-05-03T11:50:21.112Z</time></trkpt><trkpt lat="44.2482404" lon="6.757625"><ele>2028.0000000000002</ele><time>2026-05-03T11:50:22.112Z</time></trkpt><trkpt lat="44.2482249" lon="6.7575165"><ele>2028.0</ele><time>2026-05-03T11:50:23.111Z</time></trkpt><trkpt lat="44.2482311" lon="6.7574262"><ele>2028.0</ele><time>2026-05-03T11:50:24.112Z</time></trkpt><trkpt lat="44.2487988" lon="6.7568365"><ele>2029.8000000000002</ele><time>2026-05-03T11:50:33.112Z</time></trkpt><trkpt lat="44.2489037" lon="6.7567563"><ele>2031.6000000000001</ele><time>2026-05-03T11:50:34.111Z</time></trkpt><trkpt lat="44.2490032" lon="6.7567777"><ele>2033.3999999999999</ele><time>2026-05-03T11:50:35.112Z</time></trkpt><trkpt lat="44.2491174" lon="6.7567993"><ele>2035.1999999999998</ele><time>2026-05-03T11:50:36.112Z</time></trkpt><trkpt lat="44.249221" lon="6.7567919"><ele>2037.0</ele><time>2026-05-03T11:50:37.112Z</time></trkpt><trkpt lat="44.2493034" lon="6.7567645"><ele>2037.0</ele><time>2026-05-03T11:50:38.111Z</time></trkpt><trkpt lat="44.2493965" lon="6.7566886"><ele>2036.9999999999998</ele><time>2026-05-03T11:50:39.112Z</time></trkpt><trkpt lat="44.2495011" lon="6.7566443"><ele>2036.9999999999998</ele><time>2026-05-03T11:50:40.112Z</time></trkpt><trkpt lat="44.2496044" lon="6.7566496"><ele>2037.0</ele><time>2026-05-03T11:50:41.112Z</time></trkpt><trkpt lat="44.2497138" lon="6.7566861"><ele>2037.0</ele><time>2026-05-03T11:50:42.111Z</time></trkpt><trkpt lat="44.249813" lon="6.7567007"><ele>2045.1999999999998</ele><time>2026-05-03T11:50:43.111Z</time></trkpt><trkpt lat="44.2499118" lon="6.7566596"><ele>2053.3999999999996</ele><time>2026-05-03T11:50:44.112Z</time></trkpt><trkpt lat="44.2500043" lon="6.7566221"><ele>2061.6000000000004</ele><time>2026-05-03T11:50:45.112Z</time></trkpt><trkpt lat="44.2501064" lon="6.756544"><ele>2069.8</ele><time>2026-05-03T11:50:46.112Z</time></trkpt><trkpt lat="44.2502041" lon="6.7564617"><ele>2078.0</ele><time>2026-05-03T11:50:47.112Z</time></trkpt><trkpt lat="44.2503156" lon="6.756383"><ele>2078.0</ele><time>2026-05-03T11:50:48.112Z</time></trkpt><trkpt lat="44.2504258" lon="6.7563296"><ele>2078.0</ele><time>2026-05-03T11:50:49.112Z</time></trkpt><trkpt lat="44.2505344" lon="6.7562869"><ele>2078.0</ele><time>2026-05-03T11:50:50.112Z</time></trkpt><trkpt lat="44.2506584" lon="6.7562129"><ele>2078.0</ele><time>2026-05-03T11:50:51.112Z</time></trkpt><trkpt lat="44.2507731" lon="6.7561693"><ele>2074.0</ele><time>2026-05-03T11:50:52.112Z</time></trkpt><trkpt lat="44.2508854" lon="6.756117"><ele>2070.0</ele><time>2026-05-03T11:50:53.111Z</time></trkpt><trkpt lat="44.2509882" lon="6.7560273"><ele>2066.0</ele><time>2026-05-03T11:50:54.112Z</time></trkpt><trkpt lat="44.2510935" lon="6.7559334"><ele>2062.0</ele><time>2026-05-03T11:50:55.112Z</time></trkpt><trkpt lat="44.2512274" lon="6.7558344"><ele>2062.0</ele><time>2026-05-03T11:50:56.112Z</time></trkpt><trkpt lat="44.2513366" lon="6.7557386"><ele>2062.0</ele><time>2026-05-03T11:50:57.112Z</time></trkpt><trkpt lat="44.2514359" lon="6.7556385"><ele>2062.0</ele><time>2026-05-03T11:50:58.112Z</time></trkpt><trkpt lat="44.2515247" lon="6.7555087"><ele>2062.0</ele><time>2026-05-03T11:50:59.112Z</time></trkpt><trkpt lat="44.2516119" lon="6.7553884"><ele>2064.25</ele><time>2026-05-03T11:51:00.112Z</time></trkpt><trkpt lat="44.2516925" lon="6.7552472"><ele>2066.5</ele><time>2026-05-03T11:51:01.112Z</time></trkpt><trkpt lat="44.2517755" lon="6.7551229"><ele>2068.75</ele><time>2026-05-03T11:51:02.112Z</time></trkpt><trkpt lat="44.2518271" lon="6.7549681"><ele>2071.0</ele><time>2026-05-03T11:51:03.112Z</time></trkpt><trkpt lat="44.251891" lon="6.7548445"><ele>2071.0</ele><time>2026-05-03T11:51:04.111Z</time></trkpt><trkpt lat="44.2519563" lon="6.7547263"><ele>2071.0</ele><time>2026-05-03T11:51:05.112Z</time></trkpt><trkpt lat="44.2520328" lon="6.7546984"><ele>2071.0</ele><time>2026-05-03T11:51:06.111Z</time></trkpt><trkpt lat="44.2521138" lon="6.7546658"><ele>2071.0</ele><time>2026-05-03T11:51:07.112Z</time></trkpt><trkpt lat="44.2521868" lon="6.7546615"><ele>2071.0</ele><time>2026-05-03T11:51:08.111Z</time></trkpt><trkpt lat="44.2522749" lon="6.7546442"><ele>2071.0</ele><time>2026-05-03T11:51:09.112Z</time></trkpt><trkpt lat="44.2523558" lon="6.7545964"><ele>2074.4</ele><time>2026-05-03T11:51:10.112Z</time></trkpt><trkpt lat="44.2524309" lon="6.7545233"><ele>2077.8</ele><time>2026-05-03T11:51:11.112Z</time></trkpt><trkpt lat="44.2524885" lon="6.7544226"><ele>2081.2000000000003</ele><time>2026-05-03T11:51:12.112Z</time></trkpt><trkpt lat="44.2525464" lon="6.7542839"><ele>2084.6</ele><time>2026-05-03T11:51:13.112Z</time></trkpt><trkpt lat="44.2525845" lon="6.7541416"><ele>2088.0</ele><time>2026-05-03T11:51:14.112Z</time></trkpt><trkpt lat="44.2525882" lon="6.7540018"><ele>2088.0</ele><time>2026-05-03T11:51:15.112Z</time></trkpt><trkpt lat="44.2526011" lon="6.7538527"><ele>2088.0</ele><time>2026-05-03T11:51:16.111Z</time></trkpt><trkpt lat="44.2525384" lon="6.7537039"><ele>2088.0</ele><time>2026-05-03T11:51:17.112Z</time></trkpt><trkpt lat="44.2525002" lon="6.7535972"><ele>2088.0</ele><time>2026-05-03T11:51:18.112Z</time></trkpt><trkpt lat="44.2524579" lon="6.7535138"><ele>2088.0</ele><time>2026-05-03T11:51:19.112Z</time></trkpt><trkpt lat="44.2524252" lon="6.753433"><ele>2089.1428571428573</ele><time>2026-05-03T11:51:20.112Z</time></trkpt><trkpt lat="44.2523839" lon="6.7533369"><ele>2090.285714285714</ele><time>2026-05-03T11:51:21.112Z</time></trkpt><trkpt lat="44.2523501" lon="6.7532359"><ele>2091.4285714285716</ele><time>2026-05-03T11:51:22.112Z</time></trkpt><trkpt lat="44.2523361" lon="6.7531272"><ele>2092.5714285714284</ele><time>2026-05-03T11:51:23.112Z</time></trkpt><trkpt lat="44.252337" lon="6.7530187"><ele>2093.714285714286</ele><time>2026-05-03T11:51:24.112Z</time></trkpt><trkpt lat="44.2523428" lon="6.752927"><ele>2094.857142857143</ele><time>2026-05-03T11:51:25.111Z</time></trkpt><trkpt lat="44.2523644" lon="6.7528432"><ele>2096.0</ele><time>2026-05-03T11:51:26.111Z</time></trkpt><trkpt lat="44.2524038" lon="6.7527737"><ele>2096.2</ele><time>2026-05-03T11:51:27.112Z</time></trkpt><trkpt lat="44.2524769" lon="6.7526551"><ele>2096.3999999999996</ele><time>2026-05-03T11:51:29.112Z</time></trkpt><trkpt lat="44.2525255" lon="6.7525427"><ele>2096.6</ele><time>2026-05-03T11:51:31.112Z</time></trkpt><trkpt lat="44.2525915" lon="6.7524075"><ele>2096.7999999999997</ele><time>2026-05-03T11:51:33.112Z</time></trkpt><trkpt lat="44.2526265" lon="6.7523318"><ele>2097.0</ele><time>2026-05-03T11:51:34.112Z</time></trkpt><trkpt lat="44.2526598" lon="6.7522521"><ele>2097.0</ele><time>2026-05-03T11:51:35.111Z</time></trkpt><trkpt lat="44.2526921" lon="6.7521589"><ele>2097.0</ele><time>2026-05-03T11:51:36.112Z</time></trkpt><trkpt lat="44.2527409" lon="6.7520754"><ele>2097.0</ele><time>2026-05-03T11:51:37.111Z</time></trkpt><trkpt lat="44.252794" lon="6.7520057"><ele>2097.0</ele><time>2026-05-03T11:51:38.112Z</time></trkpt><trkpt lat="44.2528363" lon="6.7519386"><ele>2097.0</ele><time>2026-05-03T11:51:39.111Z</time></trkpt><trkpt lat="44.2529043" lon="6.7518809"><ele>2097.0</ele><time>2026-05-03T11:51:40.112Z</time></trkpt><trkpt lat="44.2529634" lon="6.7518219"><ele>2097.0</ele><time>2026-05-03T11:51:41.112Z</time></trkpt><trkpt lat="44.2530231" lon="6.7517485"><ele>2095.285714285714</ele><time>2026-05-03T11:51:42.112Z</time></trkpt><trkpt lat="44.2530751" lon="6.7516876"><ele>2093.5714285714284</ele><time>2026-05-03T11:51:43.111Z</time></trkpt><trkpt lat="44.253129" lon="6.7516349"><ele>2091.8571428571427</ele><time>2026-05-03T11:51:44.111Z</time></trkpt><trkpt lat="44.2531792" lon="6.7515758"><ele>2090.142857142857</ele><time>2026-05-03T11:51:45.112Z</time></trkpt><trkpt lat="44.2532343" lon="6.7515203"><ele>2088.4285714285716</ele><time>2026-05-03T11:51:46.111Z</time></trkpt><trkpt lat="44.2532852" lon="6.7514536"><ele>2086.7142857142853</ele><time>2026-05-03T11:51:47.112Z</time></trkpt><trkpt lat="44.2533466" lon="6.7513878"><ele>2085.0</ele><time>2026-05-03T11:51:48.112Z</time></trkpt><trkpt lat="44.2534012" lon="6.7513087"><ele>2089.285714285714</ele><time>2026-05-03T11:51:49.111Z</time></trkpt><trkpt lat="44.2534353" lon="6.7512311"><ele>2093.5714285714284</ele><time>2026-05-03T11:51:50.111Z</time></trkpt><trkpt lat="44.2534714" lon="6.7511517"><ele>2097.857142857143</ele><time>2026-05-03T11:51:51.112Z</time></trkpt><trkpt lat="44.253511" lon="6.751031"><ele>2102.142857142857</ele><time>2026-05-03T11:51:52.112Z</time></trkpt><trkpt lat="44.2535177" lon="6.7509237"><ele>2106.4285714285716</ele><time>2026-05-03T11:51:53.112Z</time></trkpt><trkpt lat="44.2535224" lon="6.7508203"><ele>2110.714285714286</ele><time>2026-05-03T11:51:54.112Z</time></trkpt><trkpt lat="44.2535094" lon="6.7507308"><ele>2115.0</ele><time>2026-05-03T11:51:55.112Z</time></trkpt><trkpt lat="44.253477" lon="6.7505924"><ele>2115.0</ele><time>2026-05-03T11:51:57.112Z</time></trkpt><trkpt lat="44.2534429" lon="6.7505094"><ele>2115.0</ele><time>2026-05-03T11:51:59.112Z</time></trkpt><trkpt lat="44.2533852" lon="6.7504619"><ele>2115.0</ele><time>2026-05-03T11:52:05.112Z</time></trkpt><trkpt lat="44.2534036" lon="6.7505677"><ele>2115.0</ele><time>2026-05-03T11:52:12.111Z</time></trkpt><trkpt lat="44.2534606" lon="6.7506792"><ele>2115.0</ele><time>2026-05-03T11:52:14.111Z</time></trkpt><trkpt lat="44.2534915" lon="6.750863"><ele>2115.0</ele><time>2026-05-03T11:52:16.111Z</time></trkpt><trkpt lat="44.2534458" lon="6.750989"><ele>2115.6666666666665</ele><time>2026-05-03T11:52:17.112Z</time></trkpt><trkpt lat="44.2534291" lon="6.7511046"><ele>2116.3333333333335</ele><time>2026-05-03T11:52:18.112Z</time></trkpt><trkpt lat="44.2533881" lon="6.7512293"><ele>2117.0</ele><time>2026-05-03T11:52:19.111Z</time></trkpt><trkpt lat="44.2533243" lon="6.7513085"><ele>2117.666666666667</ele><time>2026-05-03T11:52:20.112Z</time></trkpt><trkpt lat="44.253259" lon="6.7513859"><ele>2118.3333333333335</ele><time>2026-05-03T11:52:21.112Z</time></trkpt><trkpt lat="44.2531828" lon="6.7514548"><ele>2119.0</ele><time>2026-05-03T11:52:22.112Z</time></trkpt><trkpt lat="44.2531108" lon="6.7515314"><ele>2114.6</ele><time>2026-05-03T11:52:23.111Z</time></trkpt><trkpt lat="44.2530138" lon="6.7516167"><ele>2110.2</ele><time>2026-05-03T11:52:24.112Z</time></trkpt><trkpt lat="44.2529375" lon="6.7517059"><ele>2105.7999999999997</ele><time>2026-05-03T11:52:25.111Z</time></trkpt><trkpt lat="44.2528712" lon="6.7517855"><ele>2101.4</ele><time>2026-05-03T11:52:26.112Z</time></trkpt><trkpt lat="44.2527958" lon="6.7518699"><ele>2097.0</ele><time>2026-05-03T11:52:27.112Z</time></trkpt><trkpt lat="44.2527382" lon="6.7519651"><ele>2097.0</ele><time>2026-05-03T11:52:28.112Z</time></trkpt><trkpt lat="44.2526768" lon="6.7520895"><ele>2097.0</ele><time>2026-05-03T11:52:29.111Z</time></trkpt><trkpt lat="44.2526226" lon="6.7522194"><ele>2097.0</ele><time>2026-05-03T11:52:30.112Z</time></trkpt><trkpt lat="44.2525625" lon="6.7523372"><ele>2097.0</ele><time>2026-05-03T11:52:31.111Z</time></trkpt><trkpt lat="44.2524981" lon="6.7524533"><ele>2097.0</ele><time>2026-05-03T11:52:32.112Z</time></trkpt><trkpt lat="44.2524393" lon="6.752564"><ele>2097.0</ele><time>2026-05-03T11:52:33.112Z</time></trkpt><trkpt lat="44.2523938" lon="6.7526705"><ele>2097.0</ele><time>2026-05-03T11:52:34.112Z</time></trkpt><trkpt lat="44.252349" lon="6.7527779"><ele>2097.0</ele><time>2026-05-03T11:52:35.112Z</time></trkpt><trkpt lat="44.2523141" lon="6.7528958"><ele>2097.0</ele><time>2026-05-03T11:52:36.112Z</time></trkpt><trkpt lat="44.2522836" lon="6.7530111"><ele>2097.0</ele><time>2026-05-03T11:52:37.112Z</time></trkpt><trkpt lat="44.2522794" lon="6.7531276"><ele>2097.0</ele><time>2026-05-03T11:52:38.112Z</time></trkpt><trkpt lat="44.2522719" lon="6.7532519"><ele>2096.8333333333335</ele><time>2026-05-03T11:52:39.112Z</time></trkpt><trkpt lat="44.2523264" lon="6.7533487"><ele>2096.6666666666665</ele><time>2026-05-03T11:52:40.111Z</time></trkpt><trkpt lat="44.2523594" lon="6.7534583"><ele>2096.5</ele><time>2026-05-03T11:52:41.112Z</time></trkpt><trkpt lat="44.2524041" lon="6.7535542"><ele>2096.333333333333</ele><time>2026-05-03T11:52:42.112Z</time></trkpt><trkpt lat="44.2524494" lon="6.7536322"><ele>2096.1666666666665</ele><time>2026-05-03T11:52:43.112Z</time></trkpt><trkpt lat="44.2524901" lon="6.7537202"><ele>2096.0</ele><time>2026-05-03T11:52:44.112Z</time></trkpt><trkpt lat="44.2525119" lon="6.7538086"><ele>2094.857142857143</ele><time>2026-05-03T11:52:45.111Z</time></trkpt><trkpt lat="44.2525273" lon="6.7539085"><ele>2093.714285714286</ele><time>2026-05-03T11:52:47.111Z</time></trkpt><trkpt lat="44.2525101" lon="6.7540006"><ele>2092.5714285714284</ele><time>2026-05-03T11:53:26.112Z</time></trkpt><trkpt lat="44.2525065" lon="6.7540974"><ele>2091.4285714285716</ele><time>2026-05-03T11:53:36.112Z</time></trkpt><trkpt lat="44.2525499" lon="6.7540271"><ele>2090.285714285714</ele><time>2026-05-03T11:53:44.112Z</time></trkpt><trkpt lat="44.2525626" lon="6.7539311"><ele>2089.1428571428573</ele><time>2026-05-03T11:53:47.112Z</time></trkpt><trkpt lat="44.2525592" lon="6.7538414"><ele>2088.0</ele><time>2026-05-03T11:53:50.112Z</time></trkpt><trkpt lat="44.2525105" lon="6.7536685"><ele>2088.0</ele><time>2026-05-03T11:55:16.112Z</time></trkpt><trkpt lat="44.2524572" lon="6.7535685"><ele>2088.0</ele><time>2026-05-03T11:55:17.112Z</time></trkpt><trkpt lat="44.2524111" lon="6.7534833"><ele>2088.0</ele><time>2026-05-03T11:55:18.112Z</time></trkpt><trkpt lat="44.2523469" lon="6.7532924"><ele>2088.0</ele><time>2026-05-03T11:55:20.112Z</time></trkpt><trkpt lat="44.2523251" lon="6.7531784"><ele>2088.0</ele><time>2026-05-03T11:55:21.112Z</time></trkpt><trkpt lat="44.2523092" lon="6.7530858"><ele>2089.6</ele><time>2026-05-03T11:55:22.111Z</time></trkpt><trkpt lat="44.252347" lon="6.752949"><ele>2091.2000000000003</ele><time>2026-05-03T11:55:23.112Z</time></trkpt><trkpt lat="44.2523873" lon="6.7528426"><ele>2092.8</ele><time>2026-05-03T11:55:24.112Z</time></trkpt><trkpt lat="44.2524577" lon="6.7527378"><ele>2094.4</ele><time>2026-05-03T11:55:25.111Z</time></trkpt><trkpt lat="44.2525054" lon="6.7526118"><ele>2096.0</ele><time>2026-05-03T11:55:26.112Z</time></trkpt><trkpt lat="44.2525585" lon="6.7525024"><ele>2096.2</ele><time>2026-05-03T11:55:27.112Z</time></trkpt><trkpt lat="44.2526147" lon="6.7523939"><ele>2096.3999999999996</ele><time>2026-05-03T11:55:28.112Z</time></trkpt><trkpt lat="44.2526607" lon="6.7522795"><ele>2096.6</ele><time>2026-05-03T11:55:29.112Z</time></trkpt><trkpt lat="44.2527173" lon="6.7521707"><ele>2096.7999999999997</ele><time>2026-05-03T11:55:30.112Z</time></trkpt><trkpt lat="44.2527717" lon="6.7520663"><ele>2097.0</ele><time>2026-05-03T11:55:31.112Z</time></trkpt><trkpt lat="44.2528341" lon="6.7519738"><ele>2097.0</ele><time>2026-05-03T11:55:32.112Z</time></trkpt><trkpt lat="44.2529068" lon="6.7518841"><ele>2097.0</ele><time>2026-05-03T11:55:33.111Z</time></trkpt><trkpt lat="44.2529898" lon="6.7517992"><ele>2097.0</ele><time>2026-05-03T11:55:34.112Z</time></trkpt><trkpt lat="44.253062" lon="6.7517143"><ele>2097.0</ele><time>2026-05-03T11:55:35.112Z</time></trkpt><trkpt lat="44.2531309" lon="6.7516232"><ele>2097.0</ele><time>2026-05-03T11:55:36.112Z</time></trkpt><trkpt lat="44.2532073" lon="6.7515443"><ele>2100.6</ele><time>2026-05-03T11:55:37.112Z</time></trkpt><trkpt lat="44.2532805" lon="6.7514551"><ele>2104.2</ele><time>2026-05-03T11:55:38.112Z</time></trkpt><trkpt lat="44.2533547" lon="6.7513623"><ele>2107.8</ele><time>2026-05-03T11:55:39.111Z</time></trkpt><trkpt lat="44.2534366" lon="6.7512513"><ele>2111.4</ele><time>2026-05-03T11:55:40.112Z</time></trkpt><trkpt lat="44.2535026" lon="6.751142"><ele>2115.0</ele><time>2026-05-03T11:55:41.112Z</time></trkpt><trkpt lat="44.2535016" lon="6.7510007"><ele>2115.0</ele><time>2026-05-03T11:55:42.112Z</time></trkpt><trkpt lat="44.2535205" lon="6.7508581"><ele>2115.0</ele><time>2026-05-03T11:55:43.112Z</time></trkpt><trkpt lat="44.2535129" lon="6.7507084"><ele>2115.0</ele><time>2026-05-03T11:55:44.112Z</time></trkpt><trkpt lat="44.2534563" lon="6.750574"><ele>2115.0</ele><time>2026-05-03T11:55:45.112Z</time></trkpt><trkpt lat="44.2534087" lon="6.7504627"><ele>2115.0</ele><time>2026-05-03T11:55:46.112Z</time></trkpt><trkpt lat="44.253304" lon="6.7503717"><ele>2115.0</ele><time>2026-05-03T11:55:47.112Z</time></trkpt><trkpt lat="44.2532285" lon="6.7502901"><ele>2115.0</ele><time>2026-05-03T11:55:48.112Z</time></trkpt><trkpt lat="44.2531517" lon="6.7502147"><ele>2115.0</ele><time>2026-05-03T11:55:49.112Z</time></trkpt><trkpt lat="44.2531054" lon="6.7501465"><ele>2115.0</ele><time>2026-05-03T11:55:50.112Z</time></trkpt><trkpt lat="44.2530553" lon="6.7500235"><ele>2115.0</ele><time>2026-05-03T11:55:52.112Z</time></trkpt><trkpt lat="44.2531822" lon="6.7500295"><ele>2115.2</ele><time>2026-05-03T11:55:55.112Z</time></trkpt><trkpt lat="44.2532813" lon="6.7500651"><ele>2115.4</ele><time>2026-05-03T11:55:56.112Z</time></trkpt><trkpt lat="44.253381" lon="6.7500913"><ele>2115.6</ele><time>2026-05-03T11:55:57.112Z</time></trkpt><trkpt lat="44.2534825" lon="6.7500916"><ele>2115.8</ele><time>2026-05-03T11:55:58.112Z</time></trkpt><trkpt lat="44.253567" lon="6.7501116"><ele>2116.0</ele><time>2026-05-03T11:55:59.112Z</time></trkpt><trkpt lat="44.2536468" lon="6.7501361"><ele>2116.0</ele><time>2026-05-03T11:56:00.112Z</time></trkpt><trkpt lat="44.2537228" lon="6.7501933"><ele>2116.0</ele><time>2026-05-03T11:56:01.112Z</time></trkpt><trkpt lat="44.2538045" lon="6.750271"><ele>2116.0</ele><time>2026-05-03T11:56:02.112Z</time></trkpt><trkpt lat="44.2538339" lon="6.7504522"><ele>2116.0</ele><time>2026-05-03T11:56:03.112Z</time></trkpt><trkpt lat="44.2538498" lon="6.7505979"><ele>2116.0</ele><time>2026-05-03T11:56:04.112Z</time></trkpt><trkpt lat="44.253848" lon="6.7507497"><ele>2115.8</ele><time>2026-05-03T11:56:05.112Z</time></trkpt><trkpt lat="44.2538355" lon="6.7509023"><ele>2115.6</ele><time>2026-05-03T11:56:06.111Z</time></trkpt><trkpt lat="44.253806" lon="6.7510528"><ele>2115.4</ele><time>2026-05-03T11:56:07.112Z</time></trkpt><trkpt lat="44.253753" lon="6.7511779"><ele>2115.2</ele><time>2026-05-03T11:56:08.112Z</time></trkpt><trkpt lat="44.2536968" lon="6.7513017"><ele>2115.0</ele><time>2026-05-03T11:56:09.112Z</time></trkpt><trkpt lat="44.2536192" lon="6.7514048"><ele>2115.8</ele><time>2026-05-03T11:56:10.112Z</time></trkpt><trkpt lat="44.2535491" lon="6.7515085"><ele>2116.6</ele><time>2026-05-03T11:56:11.112Z</time></trkpt><trkpt lat="44.2535269" lon="6.7516367"><ele>2117.4</ele><time>2026-05-03T11:56:12.112Z</time></trkpt><trkpt lat="44.2534947" lon="6.7517657"><ele>2118.2</ele><time>2026-05-03T11:56:13.111Z</time></trkpt><trkpt lat="44.2534979" lon="6.7519138"><ele>2119.0</ele><time>2026-05-03T11:56:14.112Z</time></trkpt><trkpt lat="44.2535086" lon="6.752052"><ele>2121.75</ele><time>2026-05-03T11:56:15.111Z</time></trkpt><trkpt lat="44.2535249" lon="6.7522077"><ele>2124.5</ele><time>2026-05-03T11:56:16.111Z</time></trkpt><trkpt lat="44.2535197" lon="6.752332"><ele>2127.25</ele><time>2026-05-03T11:56:17.112Z</time></trkpt><trkpt lat="44.2535327" lon="6.7524982"><ele>2130.0</ele><time>2026-05-03T11:56:18.112Z</time></trkpt><trkpt lat="44.2535675" lon="6.7526734"><ele>2130.8</ele><time>2026-05-03T11:56:19.112Z</time></trkpt><trkpt lat="44.2535763" lon="6.7528355"><ele>2131.6</ele><time>2026-05-03T11:56:20.112Z</time></trkpt><trkpt lat="44.2535794" lon="6.7529779"><ele>2132.4</ele><time>2026-05-03T11:56:21.112Z</time></trkpt><trkpt lat="44.2535896" lon="6.7531281"><ele>2133.2</ele><time>2026-05-03T11:56:22.112Z</time></trkpt><trkpt lat="44.2535944" lon="6.7532718"><ele>2134.0</ele><time>2026-05-03T11:56:23.112Z</time></trkpt><trkpt lat="44.2536028" lon="6.7534235"><ele>2132.6</ele><time>2026-05-03T11:56:24.112Z</time></trkpt><trkpt lat="44.2536734" lon="6.7535623"><ele>2131.2</ele><time>2026-05-03T11:56:25.112Z</time></trkpt><trkpt lat="44.2537089" lon="6.7537003"><ele>2129.7999999999997</ele><time>2026-05-03T11:56:26.112Z</time></trkpt><trkpt lat="44.2537451" lon="6.7538286"><ele>2128.4</ele><time>2026-05-03T11:56:27.111Z</time></trkpt><trkpt lat="44.253759" lon="6.7539631"><ele>2127.0</ele><time>2026-05-03T11:56:28.112Z</time></trkpt><trkpt lat="44.2537661" lon="6.7540702"><ele>2127.0</ele><time>2026-05-03T11:56:29.112Z</time></trkpt><trkpt lat="44.2537608" lon="6.7541852"><ele>2127.0</ele><time>2026-05-03T11:56:30.112Z</time></trkpt><trkpt lat="44.25375" lon="6.754288"><ele>2127.0</ele><time>2026-05-03T11:56:31.112Z</time></trkpt><trkpt lat="44.2537671" lon="6.7544415"><ele>2127.0</ele><time>2026-05-03T11:56:33.111Z</time></trkpt><trkpt lat="44.2538639" lon="6.7545272"><ele>2127.0</ele><time>2026-05-03T11:56:35.112Z</time></trkpt><trkpt lat="44.253929" lon="6.7543676"><ele>2127.0</ele><time>2026-05-03T11:56:37.112Z</time></trkpt><trkpt lat="44.2539423" lon="6.7542814"><ele>2127.0</ele><time>2026-05-03T11:56:38.112Z</time></trkpt><trkpt lat="44.2539756" lon="6.7541994"><ele>2127.0</ele><time>2026-05-03T11:56:39.112Z</time></trkpt><trkpt lat="44.2539272" lon="6.7539789"><ele>2127.0</ele><time>2026-05-03T11:56:40.112Z</time></trkpt><trkpt lat="44.2539051" lon="6.7538163"><ele>2127.0</ele><time>2026-05-03T11:56:41.111Z</time></trkpt><trkpt lat="44.2538812" lon="6.7536523"><ele>2128.75</ele><time>2026-05-03T11:56:42.112Z</time></trkpt><trkpt lat="44.2538642" lon="6.7534964"><ele>2130.5</ele><time>2026-05-03T11:56:43.111Z</time></trkpt><trkpt lat="44.2538443" lon="6.7533204"><ele>2132.25</ele><time>2026-05-03T11:56:44.112Z</time></trkpt><trkpt lat="44.2539114" lon="6.7531727"><ele>2134.0</ele><time>2026-05-03T11:56:45.112Z</time></trkpt><trkpt lat="44.2539739" lon="6.7530343"><ele>2141.25</ele><time>2026-05-03T11:56:46.112Z</time></trkpt><trkpt lat="44.2540479" lon="6.7528928"><ele>2148.5</ele><time>2026-05-03T11:56:47.111Z</time></trkpt><trkpt lat="44.2541343" lon="6.7527455"><ele>2155.75</ele><time>2026-05-03T11:56:48.112Z</time></trkpt><trkpt lat="44.2542286" lon="6.7526062"><ele>2163.0</ele><time>2026-05-03T11:56:49.111Z</time></trkpt><trkpt lat="44.2543299" lon="6.7524941"><ele>2163.0</ele><time>2026-05-03T11:56:50.112Z</time></trkpt><trkpt lat="44.2544405" lon="6.7523842"><ele>2163.0</ele><time>2026-05-03T11:56:51.112Z</time></trkpt><trkpt lat="44.2545455" lon="6.7522737"><ele>2163.0</ele><time>2026-05-03T11:56:52.111Z</time></trkpt><trkpt lat="44.2546303" lon="6.7521178"><ele>2163.0</ele><time>2026-05-03T11:56:53.111Z</time></trkpt><trkpt lat="44.2547079" lon="6.7519851"><ele>2160.8</ele><time>2026-05-03T11:56:54.112Z</time></trkpt><trkpt lat="44.2547806" lon="6.7518573"><ele>2158.6000000000004</ele><time>2026-05-03T11:56:55.112Z</time></trkpt><trkpt lat="44.254842" lon="6.7517235"><ele>2156.3999999999996</ele><time>2026-05-03T11:56:56.112Z</time></trkpt><trkpt lat="44.2548854" lon="6.7515836"><ele>2154.2</ele><time>2026-05-03T11:56:57.112Z</time></trkpt><trkpt lat="44.254888" lon="6.7514317"><ele>2152.0</ele><time>2026-05-03T11:56:58.112Z</time></trkpt><trkpt lat="44.2548675" lon="6.7512234"><ele>2150.5</ele><time>2026-05-03T11:56:59.112Z</time></trkpt><trkpt lat="44.2548205" lon="6.7510158"><ele>2149.0</ele><time>2026-05-03T11:57:00.112Z</time></trkpt><trkpt lat="44.2547868" lon="6.7508303"><ele>2147.5</ele><time>2026-05-03T11:57:01.112Z</time></trkpt><trkpt lat="44.2547389" lon="6.7506464"><ele>2146.0</ele><time>2026-05-03T11:57:02.112Z</time></trkpt><trkpt lat="44.2546856" lon="6.7504619"><ele>2146.0</ele><time>2026-05-03T11:57:03.112Z</time></trkpt><trkpt lat="44.254639" lon="6.7503126"><ele>2146.0</ele><time>2026-05-03T11:57:04.112Z</time></trkpt><trkpt lat="44.2545986" lon="6.7501526"><ele>2146.0</ele><time>2026-05-03T11:57:05.112Z</time></trkpt><trkpt lat="44.2545672" lon="6.7499878"><ele>2146.0</ele><time>2026-05-03T11:57:06.112Z</time></trkpt><trkpt lat="44.2545536" lon="6.749817"><ele>2150.75</ele><time>2026-05-03T11:57:07.112Z</time></trkpt><trkpt lat="44.2545556" lon="6.7496402"><ele>2155.5</ele><time>2026-05-03T11:57:08.112Z</time></trkpt><trkpt lat="44.2545648" lon="6.7494625"><ele>2160.25</ele><time>2026-05-03T11:57:09.111Z</time></trkpt><trkpt lat="44.2545788" lon="6.7492962"><ele>2165.0</ele><time>2026-05-03T11:57:10.112Z</time></trkpt><trkpt lat="44.2545813" lon="6.7491192"><ele>2169.25</ele><time>2026-05-03T11:57:11.112Z</time></trkpt><trkpt lat="44.2545321" lon="6.7489628"><ele>2173.5</ele><time>2026-05-03T11:57:12.112Z</time></trkpt><trkpt lat="44.2544818" lon="6.7487806"><ele>2177.75</ele><time>2026-05-03T11:57:13.112Z</time></trkpt><trkpt lat="44.254422" lon="6.7486095"><ele>2182.0</ele><time>2026-05-03T11:57:14.112Z</time></trkpt><trkpt lat="44.2543557" lon="6.7484434"><ele>2185.2</ele><time>2026-05-03T11:57:15.112Z</time></trkpt><trkpt lat="44.2543014" lon="6.7482998"><ele>2188.3999999999996</ele><time>2026-05-03T11:57:16.112Z</time></trkpt><trkpt lat="44.2542521" lon="6.748165"><ele>2191.6000000000004</ele><time>2026-05-03T11:57:17.111Z</time></trkpt><trkpt lat="44.254202" lon="6.7480317"><ele>2194.8</ele><time>2026-05-03T11:57:18.112Z</time></trkpt><trkpt lat="44.2541092" lon="6.7479478"><ele>2198.0</ele><time>2026-05-03T11:57:19.112Z</time></trkpt><trkpt lat="44.2540121" lon="6.7478736"><ele>2193.8</ele><time>2026-05-03T11:57:20.112Z</time></trkpt><trkpt lat="44.2539007" lon="6.7478532"><ele>2189.6000000000004</ele><time>2026-05-03T11:57:21.111Z</time></trkpt><trkpt lat="44.2537862" lon="6.7478401"><ele>2185.3999999999996</ele><time>2026-05-03T11:57:22.111Z</time></trkpt><trkpt lat="44.2536779" lon="6.7479136"><ele>2181.2</ele><time>2026-05-03T11:57:23.112Z</time></trkpt><trkpt lat="44.2536018" lon="6.7479667"><ele>2177.0</ele><time>2026-05-03T11:57:24.111Z</time></trkpt><trkpt lat="44.2535198" lon="6.7479914"><ele>2177.0</ele><time>2026-05-03T11:57:25.112Z</time></trkpt><trkpt lat="44.2534195" lon="6.7478946"><ele>2177.0</ele><time>2026-05-03T11:57:27.111Z</time></trkpt><trkpt lat="44.2533789" lon="6.7477603"><ele>2177.0</ele><time>2026-05-03T11:57:29.112Z</time></trkpt><trkpt lat="44.2534279" lon="6.7476592"><ele>2177.0</ele><time>2026-05-03T11:57:30.112Z</time></trkpt><trkpt lat="44.2535517" lon="6.7475959"><ele>2177.0</ele><time>2026-05-03T11:57:31.112Z</time></trkpt><trkpt lat="44.2536671" lon="6.7475213"><ele>2183.0</ele><time>2026-05-03T11:57:32.112Z</time></trkpt><trkpt lat="44.2537693" lon="6.7474533"><ele>2189.0</ele><time>2026-05-03T11:57:33.111Z</time></trkpt><trkpt lat="44.2538803" lon="6.7473874"><ele>2195.0</ele><time>2026-05-03T11:57:34.112Z</time></trkpt><trkpt lat="44.254001" lon="6.7473872"><ele>2201.0</ele><time>2026-05-03T11:57:35.112Z</time></trkpt><trkpt lat="44.25412" lon="6.7474017"><ele>2200.25</ele><time>2026-05-03T11:57:36.112Z</time></trkpt><trkpt lat="44.2542124" lon="6.747495"><ele>2199.5</ele><time>2026-05-03T11:57:37.112Z</time></trkpt><trkpt lat="44.2543098" lon="6.7475948"><ele>2198.75</ele><time>2026-05-03T11:57:38.112Z</time></trkpt><trkpt lat="44.2543913" lon="6.7477242"><ele>2198.0</ele><time>2026-05-03T11:57:39.112Z</time></trkpt><trkpt lat="44.2544713" lon="6.7478563"><ele>2198.0</ele><time>2026-05-03T11:57:40.112Z</time></trkpt><trkpt lat="44.2545625" lon="6.7479922"><ele>2198.0</ele><time>2026-05-03T11:57:41.112Z</time></trkpt><trkpt lat="44.2546529" lon="6.7481328"><ele>2198.0</ele><time>2026-05-03T11:57:42.112Z</time></trkpt><trkpt lat="44.2547426" lon="6.7482745"><ele>2198.0</ele><time>2026-05-03T11:57:43.112Z</time></trkpt><trkpt lat="44.2548341" lon="6.7484159"><ele>2204.5</ele><time>2026-05-03T11:57:44.112Z</time></trkpt><trkpt lat="44.2549111" lon="6.7485556"><ele>2211.0</ele><time>2026-05-03T11:57:45.112Z</time></trkpt><trkpt lat="44.254982" lon="6.7486993"><ele>2217.5</ele><time>2026-05-03T11:57:46.112Z</time></trkpt><trkpt lat="44.2550244" lon="6.7488604"><ele>2224.0</ele><time>2026-05-03T11:57:47.111Z</time></trkpt><trkpt lat="44.2550643" lon="6.7490293"><ele>2224.0</ele><time>2026-05-03T11:57:48.112Z</time></trkpt><trkpt lat="44.2551121" lon="6.7491816"><ele>2224.0</ele><time>2026-05-03T11:57:49.112Z</time></trkpt><trkpt lat="44.2551437" lon="6.7493813"><ele>2224.0</ele><time>2026-05-03T11:57:50.112Z</time></trkpt><trkpt lat="44.2551488" lon="6.7495556"><ele>2224.0</ele><time>2026-05-03T11:57:51.112Z</time></trkpt><trkpt lat="44.2551754" lon="6.7497031"><ele>2222.0</ele><time>2026-05-03T11:57:52.111Z</time></trkpt><trkpt lat="44.2551906" lon="6.7498419"><ele>2220.0</ele><time>2026-05-03T11:57:53.112Z</time></trkpt><trkpt lat="44.2551982" lon="6.7499765"><ele>2218.0</ele><time>2026-05-03T11:57:54.112Z</time></trkpt><trkpt lat="44.2552234" lon="6.7501202"><ele>2216.0</ele><time>2026-05-03T11:57:55.112Z</time></trkpt><trkpt lat="44.2552553" lon="6.7502594"><ele>2214.0</ele><time>2026-05-03T11:57:56.112Z</time></trkpt><trkpt lat="44.255302" lon="6.7503989"><ele>2211.8</ele><time>2026-05-03T11:57:57.112Z</time></trkpt><trkpt lat="44.2553375" lon="6.7505245"><ele>2209.6000000000004</ele><time>2026-05-03T11:57:58.112Z</time></trkpt><trkpt lat="44.2553926" lon="6.7506692"><ele>2207.4</ele><time>2026-05-03T11:57:59.112Z</time></trkpt><trkpt lat="44.2554481" lon="6.7508188"><ele>2205.2000000000003</ele><time>2026-05-03T11:58:00.111Z</time></trkpt><trkpt lat="44.2554587" lon="6.7509727"><ele>2203.0</ele><time>2026-05-03T11:58:01.112Z</time></trkpt><trkpt lat="44.2554702" lon="6.7511166"><ele>2201.8</ele><time>2026-05-03T11:58:02.111Z</time></trkpt><trkpt lat="44.2554883" lon="6.751243"><ele>2200.6000000000004</ele><time>2026-05-03T11:58:03.112Z</time></trkpt><trkpt lat="44.2555317" lon="6.7513667"><ele>2199.3999999999996</ele><time>2026-05-03T11:58:04.112Z</time></trkpt><trkpt lat="44.2555648" lon="6.7514876"><ele>2198.2</ele><time>2026-05-03T11:58:05.112Z</time></trkpt><trkpt lat="44.255627" lon="6.7515911"><ele>2197.0</ele><time>2026-05-03T11:58:06.111Z</time></trkpt><trkpt lat="44.2557176" lon="6.7516808"><ele>2207.5</ele><time>2026-05-03T11:58:07.112Z</time></trkpt><trkpt lat="44.2557864" lon="6.7517683"><ele>2218.0</ele><time>2026-05-03T11:58:08.112Z</time></trkpt><trkpt lat="44.2559022" lon="6.7518393"><ele>2228.5</ele><time>2026-05-03T11:58:10.112Z</time></trkpt><trkpt lat="44.2559997" lon="6.7517797"><ele>2239.0</ele><time>2026-05-03T11:58:12.112Z</time></trkpt><trkpt lat="44.255945" lon="6.7516207"><ele>2239.0</ele><time>2026-05-03T11:58:14.112Z</time></trkpt><trkpt lat="44.255869" lon="6.7515514"><ele>2239.0</ele><time>2026-05-03T11:58:15.112Z</time></trkpt><trkpt lat="44.255788" lon="6.7514888"><ele>2239.0</ele><time>2026-05-03T11:58:16.112Z</time></trkpt><trkpt lat="44.2557122" lon="6.7514262"><ele>2239.0</ele><time>2026-05-03T11:58:17.112Z</time></trkpt><trkpt lat="44.2556558" lon="6.7513675"><ele>2239.0</ele><time>2026-05-03T11:58:18.111Z</time></trkpt><trkpt lat="44.2556299" lon="6.7512439"><ele>2239.0</ele><time>2026-05-03T11:58:19.112Z</time></trkpt><trkpt lat="44.2555939" lon="6.7511443"><ele>2240.8</ele><time>2026-05-03T11:58:20.111Z</time></trkpt><trkpt lat="44.2555984" lon="6.7510072"><ele>2242.6000000000004</ele><time>2026-05-03T11:58:21.112Z</time></trkpt><trkpt lat="44.2556299" lon="6.7508854"><ele>2244.4</ele><time>2026-05-03T11:58:22.112Z</time></trkpt><trkpt lat="44.2556826" lon="6.7507463"><ele>2246.2000000000003</ele><time>2026-05-03T11:58:23.112Z</time></trkpt><trkpt lat="44.2557425" lon="6.7506095"><ele>2248.0</ele><time>2026-05-03T11:58:24.111Z</time></trkpt><trkpt lat="44.2557584" lon="6.7504505"><ele>2248.0</ele><time>2026-05-03T11:58:25.111Z</time></trkpt><trkpt lat="44.2557766" lon="6.7503119"><ele>2248.0</ele><time>2026-05-03T11:58:26.112Z</time></trkpt><trkpt lat="44.2557231" lon="6.7501174"><ele>2248.0</ele><time>2026-05-03T11:58:27.112Z</time></trkpt><trkpt lat="44.2556928" lon="6.7499464"><ele>2248.0</ele><time>2026-05-03T11:58:28.112Z</time></trkpt><trkpt lat="44.2556272" lon="6.7498361"><ele>2243.2000000000003</ele><time>2026-05-03T11:58:29.112Z</time></trkpt><trkpt lat="44.2555885" lon="6.7497066"><ele>2238.4</ele><time>2026-05-03T11:58:30.111Z</time></trkpt><trkpt lat="44.2555693" lon="6.7495766"><ele>2233.6000000000004</ele><time>2026-05-03T11:58:31.112Z</time></trkpt><trkpt lat="44.2555734" lon="6.7494125"><ele>2228.8</ele><time>2026-05-03T11:58:32.112Z</time></trkpt><trkpt lat="44.255587" lon="6.7492235"><ele>2224.0</ele><time>2026-05-03T11:58:33.112Z</time></trkpt><trkpt lat="44.2556145" lon="6.7490293"><ele>2235.0</ele><time>2026-05-03T11:58:34.112Z</time></trkpt><trkpt lat="44.2556442" lon="6.7488484"><ele>2246.0</ele><time>2026-05-03T11:58:35.111Z</time></trkpt><trkpt lat="44.2556609" lon="6.7486825"><ele>2257.0</ele><time>2026-05-03T11:58:36.111Z</time></trkpt><trkpt lat="44.2556659" lon="6.7485192"><ele>2268.0</ele><time>2026-05-03T11:58:37.112Z</time></trkpt><trkpt lat="44.2556512" lon="6.7483456"><ele>2270.5</ele><time>2026-05-03T11:58:38.111Z</time></trkpt><trkpt lat="44.255628" lon="6.748172"><ele>2273.0</ele><time>2026-05-03T11:58:39.112Z</time></trkpt><trkpt lat="44.2556068" lon="6.7479959"><ele>2275.5</ele><time>2026-05-03T11:58:40.112Z</time></trkpt><trkpt lat="44.255578" lon="6.7478092"><ele>2278.0</ele><time>2026-05-03T11:58:41.112Z</time></trkpt><trkpt lat="44.2555634" lon="6.7476196"><ele>2271.5</ele><time>2026-05-03T11:58:42.112Z</time></trkpt><trkpt lat="44.2555433" lon="6.7474517"><ele>2265.0</ele><time>2026-05-03T11:58:43.111Z</time></trkpt><trkpt lat="44.2555417" lon="6.7472863"><ele>2258.5</ele><time>2026-05-03T11:58:44.112Z</time></trkpt><trkpt lat="44.2555521" lon="6.7471286"><ele>2252.0</ele><time>2026-05-03T11:58:45.112Z</time></trkpt><trkpt lat="44.2555692" lon="6.7469781"><ele>2254.6</ele><time>2026-05-03T11:58:46.111Z</time></trkpt><trkpt lat="44.2555926" lon="6.7468283"><ele>2257.2</ele><time>2026-05-03T11:58:47.111Z</time></trkpt><trkpt lat="44.2556158" lon="6.7466786"><ele>2259.8</ele><time>2026-05-03T11:58:48.112Z</time></trkpt><trkpt lat="44.2556242" lon="6.7465318"><ele>2262.4</ele><time>2026-05-03T11:58:49.112Z</time></trkpt><trkpt lat="44.2556209" lon="6.7463881"><ele>2265.0</ele><time>2026-05-03T11:58:50.111Z</time></trkpt><trkpt lat="44.2555784" lon="6.7462592"><ele>2265.0</ele><time>2026-05-03T11:58:51.112Z</time></trkpt><trkpt lat="44.2555391" lon="6.7461279"><ele>2265.0</ele><time>2026-05-03T11:58:52.112Z</time></trkpt><trkpt lat="44.2554909" lon="6.7460013"><ele>2265.0</ele><time>2026-05-03T11:58:53.111Z</time></trkpt><trkpt lat="44.2554307" lon="6.7458859"><ele>2265.0</ele><time>2026-05-03T11:58:54.112Z</time></trkpt><trkpt lat="44.2553355" lon="6.7457874"><ele>2265.0</ele><time>2026-05-03T11:58:55.112Z</time></trkpt><trkpt lat="44.2552538" lon="6.7456877"><ele>2268.75</ele><time>2026-05-03T11:58:56.112Z</time></trkpt><trkpt lat="44.255162" lon="6.7455886"><ele>2272.5</ele><time>2026-05-03T11:58:57.111Z</time></trkpt><trkpt lat="44.2550671" lon="6.7454885"><ele>2276.25</ele><time>2026-05-03T11:58:58.112Z</time></trkpt><trkpt lat="44.2549743" lon="6.7453868"><ele>2280.0</ele><time>2026-05-03T11:58:59.112Z</time></trkpt><trkpt lat="44.2548926" lon="6.7453027"><ele>2280.0</ele><time>2026-05-03T11:59:00.112Z</time></trkpt><trkpt lat="44.2548196" lon="6.7452297"><ele>2280.0</ele><time>2026-05-03T11:59:01.112Z</time></trkpt><trkpt lat="44.2547756" lon="6.7451613"><ele>2280.0</ele><time>2026-05-03T11:59:02.112Z</time></trkpt><trkpt lat="44.2547549" lon="6.7449941"><ele>2280.0</ele><time>2026-05-03T11:59:04.112Z</time></trkpt><trkpt lat="44.2547835" lon="6.744833"><ele>2280.0</ele><time>2026-05-03T11:59:06.112Z</time></trkpt><trkpt lat="44.2548695" lon="6.744902"><ele>2280.0</ele><time>2026-05-03T11:59:07.112Z</time></trkpt><trkpt lat="44.2549235" lon="6.7449616"><ele>2280.0</ele><time>2026-05-03T11:59:08.111Z</time></trkpt><trkpt lat="44.2549654" lon="6.7450521"><ele>2280.0</ele><time>2026-05-03T11:59:09.112Z</time></trkpt><trkpt lat="44.2550179" lon="6.7451513"><ele>2280.0</ele><time>2026-05-03T11:59:10.111Z</time></trkpt><trkpt lat="44.2550946" lon="6.7452532"><ele>2280.0</ele><time>2026-05-03T11:59:11.112Z</time></trkpt><trkpt lat="44.2551667" lon="6.7453376"><ele>2280.0</ele><time>2026-05-03T11:59:12.112Z</time></trkpt><trkpt lat="44.2552699" lon="6.7454187"><ele>2280.0</ele><time>2026-05-03T11:59:13.112Z</time></trkpt><trkpt lat="44.2553666" lon="6.7454882"><ele>2280.0</ele><time>2026-05-03T11:59:14.111Z</time></trkpt><trkpt lat="44.2554763" lon="6.7455579"><ele>2280.0</ele><time>2026-05-03T11:59:15.112Z</time></trkpt><trkpt lat="44.2555884" lon="6.7456277"><ele>2280.0</ele><time>2026-05-03T11:59:16.112Z</time></trkpt><trkpt lat="44.2556962" lon="6.7456742"><ele>2282.6</ele><time>2026-05-03T11:59:17.111Z</time></trkpt><trkpt lat="44.2557942" lon="6.7456932"><ele>2285.2</ele><time>2026-05-03T11:59:18.112Z</time></trkpt><trkpt lat="44.255893" lon="6.7457139"><ele>2287.8</ele><time>2026-05-03T11:59:19.112Z</time></trkpt><trkpt lat="44.2559944" lon="6.7457171"><ele>2290.4</ele><time>2026-05-03T11:59:20.112Z</time></trkpt><trkpt lat="44.2560966" lon="6.7456179"><ele>2293.0</ele><time>2026-05-03T11:59:21.112Z</time></trkpt><trkpt lat="44.256188" lon="6.745532"><ele>2293.0</ele><time>2026-05-03T11:59:22.112Z</time></trkpt><trkpt lat="44.2562916" lon="6.7454515"><ele>2293.0</ele><time>2026-05-03T11:59:23.112Z</time></trkpt><trkpt lat="44.2563852" lon="6.7453647"><ele>2293.0</ele><time>2026-05-03T11:59:24.112Z</time></trkpt><trkpt lat="44.2564905" lon="6.7452768"><ele>2293.0</ele><time>2026-05-03T11:59:25.111Z</time></trkpt><trkpt lat="44.256575" lon="6.7452063"><ele>2295.8</ele><time>2026-05-03T11:59:26.112Z</time></trkpt><trkpt lat="44.2566577" lon="6.7451386"><ele>2298.6000000000004</ele><time>2026-05-03T11:59:27.112Z</time></trkpt><trkpt lat="44.2567402" lon="6.7450814"><ele>2301.3999999999996</ele><time>2026-05-03T11:59:28.112Z</time></trkpt><trkpt lat="44.2568256" lon="6.7450475"><ele>2304.2</ele><time>2026-05-03T11:59:29.112Z</time></trkpt><trkpt lat="44.2569133" lon="6.7451026"><ele>2307.0</ele><time>2026-05-03T11:59:30.112Z</time></trkpt><trkpt lat="44.2570061" lon="6.7451575"><ele>2307.0</ele><time>2026-05-03T11:59:31.112Z</time></trkpt><trkpt lat="44.2571114" lon="6.74521"><ele>2307.0</ele><time>2026-05-03T11:59:32.112Z</time></trkpt><trkpt lat="44.2572218" lon="6.7452397"><ele>2307.0</ele><time>2026-05-03T11:59:33.112Z</time></trkpt><trkpt lat="44.2573348" lon="6.7452618"><ele>2307.0</ele><time>2026-05-03T11:59:34.112Z</time></trkpt><trkpt lat="44.2574321" lon="6.7452385"><ele>2307.0</ele><time>2026-05-03T11:59:35.111Z</time></trkpt><trkpt lat="44.2575321" lon="6.7452049"><ele>2308.75</ele><time>2026-05-03T11:59:36.111Z</time></trkpt><trkpt lat="44.2576407" lon="6.7451663"><ele>2310.5</ele><time>2026-05-03T11:59:37.112Z</time></trkpt><trkpt lat="44.2577485" lon="6.7451196"><ele>2312.25</ele><time>2026-05-03T11:59:38.112Z</time></trkpt><trkpt lat="44.2578556" lon="6.7450637"><ele>2314.0</ele><time>2026-05-03T11:59:39.112Z</time></trkpt><trkpt lat="44.2579632" lon="6.7449847"><ele>2314.0</ele><time>2026-05-03T11:59:40.112Z</time></trkpt><trkpt lat="44.2580726" lon="6.7449199"><ele>2314.0</ele><time>2026-05-03T11:59:41.112Z</time></trkpt><trkpt lat="44.258187" lon="6.7448213"><ele>2314.0</ele><time>2026-05-03T11:59:42.112Z</time></trkpt><trkpt lat="44.2583057" lon="6.7447089"><ele>2314.0</ele><time>2026-05-03T11:59:43.111Z</time></trkpt><trkpt lat="44.2584251" lon="6.7446193"><ele>2315.4</ele><time>2026-05-03T11:59:44.112Z</time></trkpt><trkpt lat="44.2585399" lon="6.7445252"><ele>2316.8</ele><time>2026-05-03T11:59:45.112Z</time></trkpt><trkpt lat="44.258604" lon="6.7444455"><ele>2318.2</ele><time>2026-05-03T11:59:46.111Z</time></trkpt><trkpt lat="44.2586771" lon="6.744377"><ele>2319.6</ele><time>2026-05-03T11:59:47.112Z</time></trkpt><trkpt lat="44.2587539" lon="6.744301"><ele>2321.0</ele><time>2026-05-03T11:59:48.112Z</time></trkpt><trkpt lat="44.2588304" lon="6.7442289"><ele>2321.0</ele><time>2026-05-03T11:59:49.112Z</time></trkpt><trkpt lat="44.2589006" lon="6.7441805"><ele>2321.0</ele><time>2026-05-03T11:59:50.112Z</time></trkpt><trkpt lat="44.2589703" lon="6.7441126"><ele>2321.0</ele><time>2026-05-03T11:59:51.111Z</time></trkpt><trkpt lat="44.2590612" lon="6.744066"><ele>2321.0</ele><time>2026-05-03T11:59:53.112Z</time></trkpt><trkpt lat="44.259122" lon="6.7440203"><ele>2321.0</ele><time>2026-05-03T11:59:54.111Z</time></trkpt><trkpt lat="44.259207" lon="6.7439692"><ele>2321.0</ele><time>2026-05-03T11:59:56.112Z</time></trkpt><trkpt lat="44.2592683" lon="6.7439431"><ele>2322.4</ele><time>2026-05-03T11:59:59.112Z</time></trkpt><trkpt lat="44.2593274" lon="6.7439018"><ele>2323.8</ele><time>2026-05-03T12:00:04.112Z</time></trkpt><trkpt lat="44.2593947" lon="6.7439188"><ele>2325.2000000000003</ele><time>2026-05-03T12:00:18.112Z</time></trkpt><trkpt lat="44.2594938" lon="6.7438462"><ele>2326.6</ele><time>2026-05-03T12:00:21.112Z</time></trkpt><trkpt lat="44.2595941" lon="6.7437997"><ele>2328.0</ele><time>2026-05-03T12:00:23.112Z</time></trkpt><trkpt lat="44.2596919" lon="6.7437675"><ele>2328.0</ele><time>2026-05-03T12:00:25.112Z</time></trkpt><trkpt lat="44.2597694" lon="6.7437331"><ele>2328.0</ele><time>2026-05-03T12:00:27.112Z</time></trkpt><trkpt lat="44.2598391" lon="6.7436834"><ele>2328.0</ele><time>2026-05-03T12:00:29.112Z</time></trkpt><trkpt lat="44.2598827" lon="6.7437558"><ele>2328.0</ele><time>2026-05-03T12:00:33.112Z</time></trkpt><trkpt lat="44.259845" lon="6.7438584"><ele>2328.0</ele><time>2026-05-03T12:00:37.112Z</time></trkpt><trkpt lat="44.2598009" lon="6.7439301"><ele>2328.0</ele><time>2026-05-03T12:00:40.112Z</time></trkpt><trkpt lat="44.259742" lon="6.7439931"><ele>2328.0</ele><time>2026-05-03T12:00:43.112Z</time></trkpt><trkpt lat="44.2596762" lon="6.7440265"><ele>2328.0</ele><time>2026-05-03T12:00:46.112Z</time></trkpt><trkpt lat="44.2597219" lon="6.743953"><ele>2328.0</ele><time>2026-05-03T12:04:34.112Z</time></trkpt><trkpt lat="44.2598046" lon="6.7439113"><ele>2328.0</ele><time>2026-05-03T12:04:37.112Z</time></trkpt><trkpt lat="44.2598574" lon="6.7438564"><ele>2328.0</ele><time>2026-05-03T12:04:39.112Z</time></trkpt><trkpt lat="44.2599027" lon="6.7437643"><ele>2328.0</ele><time>2026-05-03T12:04:42.112Z</time></trkpt><trkpt lat="44.2599465" lon="6.7436709"><ele>2327.6666666666665</ele><time>2026-05-03T12:04:53.112Z</time></trkpt><trkpt lat="44.2600322" lon="6.7436164"><ele>2327.3333333333335</ele><time>2026-05-03T12:04:55.112Z</time></trkpt><trkpt lat="44.260093" lon="6.7435732"><ele>2327.0</ele><time>2026-05-03T12:04:56.112Z</time></trkpt><trkpt lat="44.2601585" lon="6.7435115"><ele>2326.666666666667</ele><time>2026-05-03T12:04:57.111Z</time></trkpt><trkpt lat="44.2602263" lon="6.7434332"><ele>2326.3333333333335</ele><time>2026-05-03T12:04:58.111Z</time></trkpt><trkpt lat="44.2602946" lon="6.7433467"><ele>2326.0</ele><time>2026-05-03T12:04:59.112Z</time></trkpt><trkpt lat="44.2603743" lon="6.7432703"><ele>2326.0</ele><time>2026-05-03T12:05:00.112Z</time></trkpt><trkpt lat="44.2604435" lon="6.7431751"><ele>2326.0</ele><time>2026-05-03T12:05:01.112Z</time></trkpt><trkpt lat="44.2605403" lon="6.7430743"><ele>2326.0</ele><time>2026-05-03T12:05:02.112Z</time></trkpt><trkpt lat="44.2606314" lon="6.7429728"><ele>2326.0</ele><time>2026-05-03T12:05:03.112Z</time></trkpt><trkpt lat="44.2607317" lon="6.7428883"><ele>2324.25</ele><time>2026-05-03T12:05:04.112Z</time></trkpt><trkpt lat="44.2608481" lon="6.7427963"><ele>2322.5</ele><time>2026-05-03T12:05:05.112Z</time></trkpt><trkpt lat="44.2609573" lon="6.7427253"><ele>2320.75</ele><time>2026-05-03T12:05:06.112Z</time></trkpt><trkpt lat="44.2610806" lon="6.7426517"><ele>2319.0</ele><time>2026-05-03T12:05:07.112Z</time></trkpt><trkpt lat="44.2611968" lon="6.7425849"><ele>2319.0</ele><time>2026-05-03T12:05:08.112Z</time></trkpt><trkpt lat="44.2613137" lon="6.7425159"><ele>2319.0</ele><time>2026-05-03T12:05:09.112Z</time></trkpt><trkpt lat="44.2614305" lon="6.742459"><ele>2319.0</ele><time>2026-05-03T12:05:10.112Z</time></trkpt><trkpt lat="44.2615452" lon="6.7424227"><ele>2319.0</ele><time>2026-05-03T12:05:11.111Z</time></trkpt><trkpt lat="44.261666" lon="6.7424038"><ele>2316.0</ele><time>2026-05-03T12:05:12.112Z</time></trkpt><trkpt lat="44.2617822" lon="6.7423971"><ele>2313.0</ele><time>2026-05-03T12:05:13.112Z</time></trkpt><trkpt lat="44.2619079" lon="6.742417"><ele>2310.0</ele><time>2026-05-03T12:05:14.112Z</time></trkpt><trkpt lat="44.2620344" lon="6.7424544"><ele>2307.0</ele><time>2026-05-03T12:05:15.112Z</time></trkpt><trkpt lat="44.2621622" lon="6.7424945"><ele>2305.0</ele><time>2026-05-03T12:05:16.111Z</time></trkpt><trkpt lat="44.2622877" lon="6.7425155"><ele>2303.0</ele><time>2026-05-03T12:05:17.112Z</time></trkpt><trkpt lat="44.2624187" lon="6.7425353"><ele>2301.0</ele><time>2026-05-03T12:05:18.112Z</time></trkpt><trkpt lat="44.2625552" lon="6.7425336"><ele>2299.0</ele><time>2026-05-03T12:05:19.112Z</time></trkpt><trkpt lat="44.2626816" lon="6.7425342"><ele>2299.0</ele><time>2026-05-03T12:05:20.112Z</time></trkpt><trkpt lat="44.2628049" lon="6.7425185"><ele>2299.0</ele><time>2026-05-03T12:05:21.112Z</time></trkpt><trkpt lat="44.2629109" lon="6.7425151"><ele>2299.0</ele><time>2026-05-03T12:05:22.112Z</time></trkpt><trkpt lat="44.2630009" lon="6.7425073"><ele>2299.0</ele><time>2026-05-03T12:05:23.112Z</time></trkpt><trkpt lat="44.2630905" lon="6.7424994"><ele>2299.0</ele><time>2026-05-03T12:05:24.112Z</time></trkpt><trkpt lat="44.2631614" lon="6.7424745"><ele>2297.5</ele><time>2026-05-03T12:05:25.112Z</time></trkpt><trkpt lat="44.2632209" lon="6.7424168"><ele>2296.0</ele><time>2026-05-03T12:05:26.112Z</time></trkpt><trkpt lat="44.2633035" lon="6.7422818"><ele>2294.5</ele><time>2026-05-03T12:05:28.112Z</time></trkpt><trkpt lat="44.2633373" lon="6.7421926"><ele>2293.0</ele><time>2026-05-03T12:05:29.112Z</time></trkpt><trkpt lat="44.2633871" lon="6.7421221"><ele>2291.5</ele><time>2026-05-03T12:05:30.112Z</time></trkpt><trkpt lat="44.2634518" lon="6.7420824"><ele>2290.0</ele><time>2026-05-03T12:05:31.112Z</time></trkpt><trkpt lat="44.2635164" lon="6.7420838"><ele>2290.0</ele><time>2026-05-03T12:05:32.112Z</time></trkpt><trkpt lat="44.263575" lon="6.7421162"><ele>2290.0</ele><time>2026-05-03T12:05:33.112Z</time></trkpt><trkpt lat="44.2636521" lon="6.7422527"><ele>2290.0</ele><time>2026-05-03T12:05:35.112Z</time></trkpt><trkpt lat="44.2636656" lon="6.7423542"><ele>2290.0</ele><time>2026-05-03T12:05:36.112Z</time></trkpt><trkpt lat="44.263661" lon="6.7424722"><ele>2290.0</ele><time>2026-05-03T12:05:37.112Z</time></trkpt><trkpt lat="44.2636733" lon="6.7425891"><ele>2290.0</ele><time>2026-05-03T12:05:38.112Z</time></trkpt><trkpt lat="44.2636939" lon="6.7426973"><ele>2287.8</ele><time>2026-05-03T12:05:39.112Z</time></trkpt><trkpt lat="44.2637222" lon="6.7428199"><ele>2285.6</ele><time>2026-05-03T12:05:40.112Z</time></trkpt><trkpt lat="44.2637645" lon="6.7429384"><ele>2283.4</ele><time>2026-05-03T12:05:41.112Z</time></trkpt><trkpt lat="44.2638215" lon="6.7430621"><ele>2281.2</ele><time>2026-05-03T12:05:42.112Z</time></trkpt><trkpt lat="44.2638769" lon="6.7431853"><ele>2279.0</ele><time>2026-05-03T12:05:43.111Z</time></trkpt><trkpt lat="44.2639343" lon="6.7433301"><ele>2279.5</ele><time>2026-05-03T12:05:44.112Z</time></trkpt><trkpt lat="44.2639785" lon="6.7434908"><ele>2280.0</ele><time>2026-05-03T12:05:45.112Z</time></trkpt><trkpt lat="44.2640107" lon="6.7436493"><ele>2280.5</ele><time>2026-05-03T12:05:46.111Z</time></trkpt><trkpt lat="44.264031" lon="6.7438073"><ele>2281.0</ele><time>2026-05-03T12:05:47.111Z</time></trkpt><trkpt lat="44.2640411" lon="6.7439523"><ele>2280.166666666667</ele><time>2026-05-03T12:05:48.111Z</time></trkpt><trkpt lat="44.2640535" lon="6.7440704"><ele>2279.3333333333335</ele><time>2026-05-03T12:05:49.112Z</time></trkpt><trkpt lat="44.264077" lon="6.7441818"><ele>2278.5</ele><time>2026-05-03T12:05:50.111Z</time></trkpt><trkpt lat="44.2641231" lon="6.7442862"><ele>2277.6666666666665</ele><time>2026-05-03T12:05:51.112Z</time></trkpt><trkpt lat="44.264168" lon="6.7443778"><ele>2276.833333333333</ele><time>2026-05-03T12:05:52.112Z</time></trkpt><trkpt lat="44.2642563" lon="6.7444498"><ele>2276.0</ele><time>2026-05-03T12:05:53.112Z</time></trkpt><trkpt lat="44.2643165" lon="6.7445351"><ele>2275.2</ele><time>2026-05-03T12:05:54.112Z</time></trkpt><trkpt lat="44.2643884" lon="6.7446248"><ele>2274.3999999999996</ele><time>2026-05-03T12:05:55.111Z</time></trkpt><trkpt lat="44.2644105" lon="6.7447289"><ele>2273.6</ele><time>2026-05-03T12:05:56.112Z</time></trkpt><trkpt lat="44.2643646" lon="6.7448893"><ele>2272.7999999999997</ele><time>2026-05-03T12:05:58.111Z</time></trkpt><trkpt lat="44.2642993" lon="6.7449452"><ele>2272.0</ele><time>2026-05-03T12:05:59.112Z</time></trkpt><trkpt lat="44.26422" lon="6.7449772"><ele>2272.0</ele><time>2026-05-03T12:06:00.112Z</time></trkpt><trkpt lat="44.2641417" lon="6.7449827"><ele>2272.0</ele><time>2026-05-03T12:06:01.112Z</time></trkpt><trkpt lat="44.2640576" lon="6.7449837"><ele>2272.0</ele><time>2026-05-03T12:06:02.112Z</time></trkpt><trkpt lat="44.2639639" lon="6.7449847"><ele>2272.0</ele><time>2026-05-03T12:06:03.112Z</time></trkpt><trkpt lat="44.2638781" lon="6.745003"><ele>2272.0</ele><time>2026-05-03T12:06:04.112Z</time></trkpt><trkpt lat="44.263788" lon="6.7450455"><ele>2272.0</ele><time>2026-05-03T12:06:05.112Z</time></trkpt><trkpt lat="44.2637191" lon="6.7451078"><ele>2271.3333333333335</ele><time>2026-05-03T12:06:06.112Z</time></trkpt><trkpt lat="44.2636517" lon="6.7451823"><ele>2270.666666666667</ele><time>2026-05-03T12:06:07.111Z</time></trkpt><trkpt lat="44.2635999" lon="6.7452864"><ele>2270.0</ele><time>2026-05-03T12:06:08.112Z</time></trkpt><trkpt lat="44.2635691" lon="6.7454071"><ele>2269.3333333333335</ele><time>2026-05-03T12:06:09.112Z</time></trkpt><trkpt lat="44.2635593" lon="6.7455201"><ele>2268.6666666666665</ele><time>2026-05-03T12:06:10.111Z</time></trkpt><trkpt lat="44.2635746" lon="6.745625"><ele>2268.0</ele><time>2026-05-03T12:06:11.112Z</time></trkpt><trkpt lat="44.2636057" lon="6.7457241"><ele>2267.2000000000003</ele><time>2026-05-03T12:06:12.112Z</time></trkpt><trkpt lat="44.2636703" lon="6.7458183"><ele>2266.4</ele><time>2026-05-03T12:06:13.112Z</time></trkpt><trkpt lat="44.2637401" lon="6.7458987"><ele>2265.6000000000004</ele><time>2026-05-03T12:06:14.112Z</time></trkpt><trkpt lat="44.2638262" lon="6.7459619"><ele>2264.8</ele><time>2026-05-03T12:06:15.112Z</time></trkpt><trkpt lat="44.2639183" lon="6.7460165"><ele>2264.0</ele><time>2026-05-03T12:06:16.112Z</time></trkpt><trkpt lat="44.2640089" lon="6.7460571"><ele>2262.8</ele><time>2026-05-03T12:06:17.112Z</time></trkpt><trkpt lat="44.264102" lon="6.746076"><ele>2261.6000000000004</ele><time>2026-05-03T12:06:18.112Z</time></trkpt><trkpt lat="44.2641977" lon="6.746086"><ele>2260.4</ele><time>2026-05-03T12:06:19.112Z</time></trkpt><trkpt lat="44.2643057" lon="6.7460844"><ele>2259.2000000000003</ele><time>2026-05-03T12:06:20.112Z</time></trkpt><trkpt lat="44.2644177" lon="6.7460987"><ele>2258.0</ele><time>2026-05-03T12:06:21.112Z</time></trkpt><trkpt lat="44.2645349" lon="6.7461074"><ele>2258.0</ele><time>2026-05-03T12:06:22.111Z</time></trkpt><trkpt lat="44.2646526" lon="6.7461006"><ele>2258.0</ele><time>2026-05-03T12:06:23.112Z</time></trkpt><trkpt lat="44.2647643" lon="6.7460778"><ele>2258.0</ele><time>2026-05-03T12:06:24.112Z</time></trkpt><trkpt lat="44.264873" lon="6.7460484"><ele>2258.0</ele><time>2026-05-03T12:06:25.112Z</time></trkpt><trkpt lat="44.2649858" lon="6.7460164"><ele>2258.25</ele><time>2026-05-03T12:06:26.112Z</time></trkpt><trkpt lat="44.2651093" lon="6.7459952"><ele>2258.5</ele><time>2026-05-03T12:06:27.112Z</time></trkpt><trkpt lat="44.2652203" lon="6.745981"><ele>2258.75</ele><time>2026-05-03T12:06:28.112Z</time></trkpt><trkpt lat="44.2653462" lon="6.7459611"><ele>2259.0</ele><time>2026-05-03T12:06:29.112Z</time></trkpt><trkpt lat="44.2654749" lon="6.7459359"><ele>2259.0</ele><time>2026-05-03T12:06:30.112Z</time></trkpt><trkpt lat="44.2656099" lon="6.745923"><ele>2259.0</ele><time>2026-05-03T12:06:31.112Z</time></trkpt><trkpt lat="44.2657223" lon="6.7459441"><ele>2259.0</ele><time>2026-05-03T12:06:32.111Z</time></trkpt><trkpt lat="44.2658425" lon="6.7459831"><ele>2259.0</ele><time>2026-05-03T12:06:33.112Z</time></trkpt><trkpt lat="44.2659659" lon="6.7460183"><ele>2254.5</ele><time>2026-05-03T12:06:34.112Z</time></trkpt><trkpt lat="44.2660924" lon="6.7460503"><ele>2250.0</ele><time>2026-05-03T12:06:35.111Z</time></trkpt><trkpt lat="44.2662148" lon="6.7460762"><ele>2245.5</ele><time>2026-05-03T12:06:36.112Z</time></trkpt><trkpt lat="44.2663368" lon="6.7460873"><ele>2241.0</ele><time>2026-05-03T12:06:37.112Z</time></trkpt><trkpt lat="44.2664527" lon="6.7460863"><ele>2241.75</ele><time>2026-05-03T12:06:38.111Z</time></trkpt><trkpt lat="44.2665715" lon="6.7460785"><ele>2242.5</ele><time>2026-05-03T12:06:39.112Z</time></trkpt><trkpt lat="44.2666839" lon="6.7460474"><ele>2243.25</ele><time>2026-05-03T12:06:40.112Z</time></trkpt><trkpt lat="44.2667915" lon="6.7460079"><ele>2244.0</ele><time>2026-05-03T12:06:41.112Z</time></trkpt><trkpt lat="44.2669112" lon="6.7460005"><ele>2244.0</ele><time>2026-05-03T12:06:42.112Z</time></trkpt><trkpt lat="44.2670309" lon="6.74601"><ele>2244.0</ele><time>2026-05-03T12:06:43.112Z</time></trkpt><trkpt lat="44.26715" lon="6.7460442"><ele>2244.0</ele><time>2026-05-03T12:06:44.111Z</time></trkpt><trkpt lat="44.2672662" lon="6.7460879"><ele>2244.0</ele><time>2026-05-03T12:06:45.112Z</time></trkpt><trkpt lat="44.2673757" lon="6.7461564"><ele>2240.25</ele><time>2026-05-03T12:06:46.112Z</time></trkpt><trkpt lat="44.2674855" lon="6.7462181"><ele>2236.5</ele><time>2026-05-03T12:06:47.111Z</time></trkpt><trkpt lat="44.2676006" lon="6.7462648"><ele>2232.75</ele><time>2026-05-03T12:06:48.112Z</time></trkpt><trkpt lat="44.267722" lon="6.7463073"><ele>2229.0</ele><time>2026-05-03T12:06:49.112Z</time></trkpt><trkpt lat="44.2678497" lon="6.7463352"><ele>2229.0</ele><time>2026-05-03T12:06:50.112Z</time></trkpt><trkpt lat="44.2679692" lon="6.746351"><ele>2229.0</ele><time>2026-05-03T12:06:51.112Z</time></trkpt><trkpt lat="44.2680885" lon="6.74636"><ele>2229.0</ele><time>2026-05-03T12:06:52.112Z</time></trkpt><trkpt lat="44.268203" lon="6.7463578"><ele>2229.0</ele><time>2026-05-03T12:06:53.112Z</time></trkpt><trkpt lat="44.268321" lon="6.7463456"><ele>2227.75</ele><time>2026-05-03T12:06:54.112Z</time></trkpt><trkpt lat="44.268448" lon="6.7463158"><ele>2226.5</ele><time>2026-05-03T12:06:55.112Z</time></trkpt><trkpt lat="44.268573" lon="6.7462849"><ele>2225.25</ele><time>2026-05-03T12:06:56.111Z</time></trkpt><trkpt lat="44.2686902" lon="6.7462513"><ele>2224.0</ele><time>2026-05-03T12:06:57.112Z</time></trkpt><trkpt lat="44.2688088" lon="6.7462181"><ele>2224.0</ele><time>2026-05-03T12:06:58.112Z</time></trkpt><trkpt lat="44.2689084" lon="6.7461826"><ele>2224.0</ele><time>2026-05-03T12:06:59.112Z</time></trkpt><trkpt lat="44.2690108" lon="6.7461507"><ele>2224.0</ele><time>2026-05-03T12:07:00.112Z</time></trkpt><trkpt lat="44.2690883" lon="6.7461379"><ele>2224.0</ele><time>2026-05-03T12:07:01.112Z</time></trkpt><trkpt lat="44.2691804" lon="6.7461577"><ele>2224.0</ele><time>2026-05-03T12:07:02.112Z</time></trkpt><trkpt lat="44.2692621" lon="6.7462174"><ele>2222.0</ele><time>2026-05-03T12:07:03.112Z</time></trkpt><trkpt lat="44.2693337" lon="6.7462979"><ele>2220.0</ele><time>2026-05-03T12:07:04.112Z</time></trkpt><trkpt lat="44.2694001" lon="6.7463989"><ele>2218.0</ele><time>2026-05-03T12:07:05.112Z</time></trkpt><trkpt lat="44.2694684" lon="6.7464718"><ele>2216.0</ele><time>2026-05-03T12:07:06.112Z</time></trkpt><trkpt lat="44.269548" lon="6.746542"><ele>2214.0</ele><time>2026-05-03T12:07:07.112Z</time></trkpt><trkpt lat="44.2696413" lon="6.7466005"><ele>2214.0</ele><time>2026-05-03T12:07:08.112Z</time></trkpt><trkpt lat="44.2697456" lon="6.7466426"><ele>2214.0</ele><time>2026-05-03T12:07:09.112Z</time></trkpt><trkpt lat="44.2698572" lon="6.7466706"><ele>2214.0</ele><time>2026-05-03T12:07:10.112Z</time></trkpt><trkpt lat="44.2699641" lon="6.7467117"><ele>2214.0</ele><time>2026-05-03T12:07:11.111Z</time></trkpt><trkpt lat="44.2700661" lon="6.7467307"><ele>2214.0</ele><time>2026-05-03T12:07:12.112Z</time></trkpt><trkpt lat="44.2701556" lon="6.7467488"><ele>2213.4</ele><time>2026-05-03T12:07:13.111Z</time></trkpt><trkpt lat="44.2702698" lon="6.7467502"><ele>2212.8</ele><time>2026-05-03T12:07:14.111Z</time></trkpt><trkpt lat="44.2703849" lon="6.7467364"><ele>2212.2</ele><time>2026-05-03T12:07:15.112Z</time></trkpt><trkpt lat="44.2704943" lon="6.7467182"><ele>2211.6</ele><time>2026-05-03T12:07:16.111Z</time></trkpt><trkpt lat="44.2705843" lon="6.7466773"><ele>2211.0</ele><time>2026-05-03T12:07:17.112Z</time></trkpt><trkpt lat="44.270693" lon="6.7466089"><ele>2209.5</ele><time>2026-05-03T12:07:18.112Z</time></trkpt><trkpt lat="44.2708105" lon="6.7465366"><ele>2208.0</ele><time>2026-05-03T12:07:19.112Z</time></trkpt><trkpt lat="44.2709234" lon="6.7464545"><ele>2206.5</ele><time>2026-05-03T12:07:20.112Z</time></trkpt><trkpt lat="44.2710181" lon="6.7463768"><ele>2205.0</ele><time>2026-05-03T12:07:21.112Z</time></trkpt><trkpt lat="44.2711078" lon="6.7463045"><ele>2205.0</ele><time>2026-05-03T12:07:22.112Z</time></trkpt><trkpt lat="44.2711855" lon="6.7462222"><ele>2205.0</ele><time>2026-05-03T12:07:23.112Z</time></trkpt><trkpt lat="44.2712546" lon="6.7461276"><ele>2205.0</ele><time>2026-05-03T12:07:24.112Z</time></trkpt><trkpt lat="44.2713144" lon="6.7460313"><ele>2205.0</ele><time>2026-05-03T12:07:25.112Z</time></trkpt><trkpt lat="44.2713525" lon="6.7459118"><ele>2205.0</ele><time>2026-05-03T12:07:26.112Z</time></trkpt><trkpt lat="44.2713762" lon="6.7457712"><ele>2204.4</ele><time>2026-05-03T12:07:27.112Z</time></trkpt><trkpt lat="44.2714012" lon="6.7456265"><ele>2203.8</ele><time>2026-05-03T12:07:28.112Z</time></trkpt><trkpt lat="44.2714332" lon="6.745492"><ele>2203.2</ele><time>2026-05-03T12:07:29.112Z</time></trkpt><trkpt lat="44.2714941" lon="6.7453681"><ele>2202.6</ele><time>2026-05-03T12:07:30.112Z</time></trkpt><trkpt lat="44.2715574" lon="6.7452405"><ele>2202.0</ele><time>2026-05-03T12:07:31.112Z</time></trkpt><trkpt lat="44.2716551" lon="6.7451295"><ele>2202.0</ele><time>2026-05-03T12:07:32.112Z</time></trkpt><trkpt lat="44.2717365" lon="6.7450361"><ele>2202.0</ele><time>2026-05-03T12:07:33.112Z</time></trkpt><trkpt lat="44.2718505" lon="6.7449459"><ele>2202.0</ele><time>2026-05-03T12:07:34.111Z</time></trkpt><trkpt lat="44.2719561" lon="6.744894"><ele>2202.0</ele><time>2026-05-03T12:07:35.112Z</time></trkpt><trkpt lat="44.2720734" lon="6.7448621"><ele>2202.0</ele><time>2026-05-03T12:07:36.112Z</time></trkpt><trkpt lat="44.2722006" lon="6.7448289"><ele>2202.0</ele><time>2026-05-03T12:07:37.112Z</time></trkpt><trkpt lat="44.272313" lon="6.7447969"><ele>2202.0</ele><time>2026-05-03T12:07:38.111Z</time></trkpt><trkpt lat="44.2724359" lon="6.7447575"><ele>2202.0</ele><time>2026-05-03T12:07:39.111Z</time></trkpt><trkpt lat="44.2725447" lon="6.7447568"><ele>2197.0</ele><time>2026-05-03T12:07:40.112Z</time></trkpt><trkpt lat="44.2726756" lon="6.7447406"><ele>2192.0</ele><time>2026-05-03T12:07:41.111Z</time></trkpt><trkpt lat="44.2727964" lon="6.7447669"><ele>2187.0</ele><time>2026-05-03T12:07:42.112Z</time></trkpt><trkpt lat="44.2729105" lon="6.7448047"><ele>2182.0</ele><time>2026-05-03T12:07:43.112Z</time></trkpt><trkpt lat="44.2730349" lon="6.7448736"><ele>2181.7999999999997</ele><time>2026-05-03T12:07:44.112Z</time></trkpt><trkpt lat="44.2731516" lon="6.744932"><ele>2181.6</ele><time>2026-05-03T12:07:45.112Z</time></trkpt><trkpt lat="44.2732628" lon="6.7449899"><ele>2181.3999999999996</ele><time>2026-05-03T12:07:46.111Z</time></trkpt><trkpt lat="44.2733601" lon="6.7450329"><ele>2181.2</ele><time>2026-05-03T12:07:47.11Z</time></trkpt><trkpt lat="44.2734568" lon="6.7450648"><ele>2181.0</ele><time>2026-05-03T12:07:48.109Z</time></trkpt><trkpt lat="44.2735545" lon="6.7450647"><ele>2181.0</ele><time>2026-05-03T12:07:49.107Z</time></trkpt><trkpt lat="44.2736593" lon="6.745025"><ele>2181.0</ele><time>2026-05-03T12:07:50.108Z</time></trkpt><trkpt lat="44.2737562" lon="6.7449728"><ele>2181.0</ele><time>2026-05-03T12:07:51.106Z</time></trkpt><trkpt lat="44.2738662" lon="6.7449106"><ele>2181.0</ele><time>2026-05-03T12:07:52.11Z</time></trkpt><trkpt lat="44.2739656" lon="6.7448454"><ele>2181.0</ele><time>2026-05-03T12:07:53.109Z</time></trkpt><trkpt lat="44.2740703" lon="6.7448077"><ele>2179.6</ele><time>2026-05-03T12:07:54.11Z</time></trkpt><trkpt lat="44.2741743" lon="6.7447888"><ele>2178.2</ele><time>2026-05-03T12:07:55.11Z</time></trkpt><trkpt lat="44.2742713" lon="6.7448118"><ele>2176.8</ele><time>2026-05-03T12:07:56.11Z</time></trkpt><trkpt lat="44.2743725" lon="6.7448554"><ele>2175.4</ele><time>2026-05-03T12:07:57.11Z</time></trkpt><trkpt lat="44.2744802" lon="6.7448978"><ele>2174.0</ele><time>2026-05-03T12:07:58.109Z</time></trkpt><trkpt lat="44.2745891" lon="6.7449141"><ele>2174.0</ele><time>2026-05-03T12:07:59.11Z</time></trkpt><trkpt lat="44.274705" lon="6.7449078"><ele>2174.0</ele><time>2026-05-03T12:08:00.11Z</time></trkpt><trkpt lat="44.274826" lon="6.7448796"><ele>2174.0</ele><time>2026-05-03T12:08:01.11Z</time></trkpt><trkpt lat="44.2749486" lon="6.7448562"><ele>2174.0</ele><time>2026-05-03T12:08:02.11Z</time></trkpt><trkpt lat="44.2750684" lon="6.7448686"><ele>2171.5</ele><time>2026-05-03T12:08:03.11Z</time></trkpt><trkpt lat="44.2751884" lon="6.7448845"><ele>2169.0</ele><time>2026-05-03T12:08:04.11Z</time></trkpt><trkpt lat="44.2753152" lon="6.744893"><ele>2166.5</ele><time>2026-05-03T12:08:05.11Z</time></trkpt><trkpt lat="44.2754328" lon="6.7449185"><ele>2164.0</ele><time>2026-05-03T12:08:06.109Z</time></trkpt><trkpt lat="44.275567" lon="6.7449352"><ele>2163.25</ele><time>2026-05-03T12:08:07.109Z</time></trkpt><trkpt lat="44.2757042" lon="6.7449598"><ele>2162.5</ele><time>2026-05-03T12:08:08.109Z</time></trkpt><trkpt lat="44.2758314" lon="6.744975"><ele>2161.75</ele><time>2026-05-03T12:08:09.11Z</time></trkpt><trkpt lat="44.275967" lon="6.7449744"><ele>2161.0</ele><time>2026-05-03T12:08:10.11Z</time></trkpt><trkpt lat="44.2760897" lon="6.7449768"><ele>2161.0</ele><time>2026-05-03T12:08:11.11Z</time></trkpt><trkpt lat="44.2762183" lon="6.7449708"><ele>2161.0</ele><time>2026-05-03T12:08:12.11Z</time></trkpt><trkpt lat="44.2763575" lon="6.7449416"><ele>2161.0</ele><time>2026-05-03T12:08:13.11Z</time></trkpt><trkpt lat="44.2764777" lon="6.7449043"><ele>2161.0</ele><time>2026-05-03T12:08:14.109Z</time></trkpt><trkpt lat="44.2766028" lon="6.7448591"><ele>2158.0</ele><time>2026-05-03T12:08:15.11Z</time></trkpt><trkpt lat="44.2767196" lon="6.7447931"><ele>2155.0</ele><time>2026-05-03T12:08:16.11Z</time></trkpt><trkpt lat="44.2768233" lon="6.744689"><ele>2152.0</ele><time>2026-05-03T12:08:17.11Z</time></trkpt><trkpt lat="44.276914" lon="6.7445874"><ele>2149.0</ele><time>2026-05-03T12:08:18.109Z</time></trkpt><trkpt lat="44.276994" lon="6.7444677"><ele>2148.2</ele><time>2026-05-03T12:08:19.11Z</time></trkpt><trkpt lat="44.2770713" lon="6.744344"><ele>2147.4</ele><time>2026-05-03T12:08:20.11Z</time></trkpt><trkpt lat="44.2771414" lon="6.744241"><ele>2146.6</ele><time>2026-05-03T12:08:21.11Z</time></trkpt><trkpt lat="44.2772136" lon="6.7441451"><ele>2145.8</ele><time>2026-05-03T12:08:22.11Z</time></trkpt><trkpt lat="44.2772947" lon="6.7440845"><ele>2145.0</ele><time>2026-05-03T12:08:23.11Z</time></trkpt><trkpt lat="44.2773842" lon="6.7440582"><ele>2145.0</ele><time>2026-05-03T12:08:24.11Z</time></trkpt><trkpt lat="44.2774849" lon="6.7440762"><ele>2145.0</ele><time>2026-05-03T12:08:25.109Z</time></trkpt><trkpt lat="44.2775743" lon="6.7441124"><ele>2145.0</ele><time>2026-05-03T12:08:26.11Z</time></trkpt><trkpt lat="44.2776732" lon="6.7441702"><ele>2145.0</ele><time>2026-05-03T12:08:27.11Z</time></trkpt><trkpt lat="44.2777481" lon="6.7442414"><ele>2145.0</ele><time>2026-05-03T12:08:28.11Z</time></trkpt><trkpt lat="44.2778082" lon="6.7443295"><ele>2143.4</ele><time>2026-05-03T12:08:29.11Z</time></trkpt><trkpt lat="44.2778525" lon="6.7444411"><ele>2141.8</ele><time>2026-05-03T12:08:30.11Z</time></trkpt><trkpt lat="44.2778741" lon="6.7445593"><ele>2140.2</ele><time>2026-05-03T12:08:31.11Z</time></trkpt><trkpt lat="44.2778727" lon="6.7446874"><ele>2138.6</ele><time>2026-05-03T12:08:32.11Z</time></trkpt><trkpt lat="44.2778416" lon="6.7448092"><ele>2137.0</ele><time>2026-05-03T12:08:33.109Z</time></trkpt><trkpt lat="44.2777996" lon="6.7449399"><ele>2137.0</ele><time>2026-05-03T12:08:34.11Z</time></trkpt><trkpt lat="44.2777387" lon="6.745063"><ele>2137.0</ele><time>2026-05-03T12:08:35.11Z</time></trkpt><trkpt lat="44.2776545" lon="6.7451659"><ele>2137.0</ele><time>2026-05-03T12:08:36.11Z</time></trkpt><trkpt lat="44.2775563" lon="6.7452531"><ele>2137.0</ele><time>2026-05-03T12:08:37.11Z</time></trkpt><trkpt lat="44.2774448" lon="6.7453215"><ele>2135.5</ele><time>2026-05-03T12:08:38.109Z</time></trkpt><trkpt lat="44.277322" lon="6.7453884"><ele>2134.0</ele><time>2026-05-03T12:08:39.11Z</time></trkpt><trkpt lat="44.2771991" lon="6.7454428"><ele>2132.5</ele><time>2026-05-03T12:08:40.11Z</time></trkpt><trkpt lat="44.2770771" lon="6.7454997"><ele>2131.0</ele><time>2026-05-03T12:08:41.11Z</time></trkpt><trkpt lat="44.2769622" lon="6.7455572"><ele>2131.0</ele><time>2026-05-03T12:08:42.11Z</time></trkpt><trkpt lat="44.2768408" lon="6.7456093"><ele>2131.0</ele><time>2026-05-03T12:08:43.11Z</time></trkpt><trkpt lat="44.2767216" lon="6.7456556"><ele>2131.0</ele><time>2026-05-03T12:08:44.11Z</time></trkpt><trkpt lat="44.27662" lon="6.7456933"><ele>2131.0</ele><time>2026-05-03T12:08:45.11Z</time></trkpt><trkpt lat="44.2765454" lon="6.7457263"><ele>2131.0</ele><time>2026-05-03T12:08:46.11Z</time></trkpt><trkpt lat="44.2764807" lon="6.7457791"><ele>2131.2</ele><time>2026-05-03T12:08:47.11Z</time></trkpt><trkpt lat="44.2764221" lon="6.7459279"><ele>2131.3999999999996</ele><time>2026-05-03T12:08:49.11Z</time></trkpt><trkpt lat="44.2764341" lon="6.7460871"><ele>2131.6</ele><time>2026-05-03T12:08:51.11Z</time></trkpt><trkpt lat="44.2764938" lon="6.7461421"><ele>2131.7999999999997</ele><time>2026-05-03T12:08:52.11Z</time></trkpt><trkpt lat="44.2765744" lon="6.7461629"><ele>2132.0</ele><time>2026-05-03T12:08:53.11Z</time></trkpt><trkpt lat="44.27667" lon="6.7461385"><ele>2128.5</ele><time>2026-05-03T12:08:54.11Z</time></trkpt><trkpt lat="44.2767649" lon="6.7461296"><ele>2125.0</ele><time>2026-05-03T12:08:55.11Z</time></trkpt><trkpt lat="44.2768711" lon="6.7461095"><ele>2121.5</ele><time>2026-05-03T12:08:56.11Z</time></trkpt><trkpt lat="44.2770034" lon="6.7460525"><ele>2118.0</ele><time>2026-05-03T12:08:57.11Z</time></trkpt><trkpt lat="44.2771329" lon="6.7460574"><ele>2116.5</ele><time>2026-05-03T12:08:58.11Z</time></trkpt><trkpt lat="44.2772697" lon="6.7460936"><ele>2115.0</ele><time>2026-05-03T12:08:59.11Z</time></trkpt><trkpt lat="44.2773832" lon="6.7461389"><ele>2113.5</ele><time>2026-05-03T12:09:00.11Z</time></trkpt><trkpt lat="44.2774964" lon="6.7462272"><ele>2112.0</ele><time>2026-05-03T12:09:01.11Z</time></trkpt><trkpt lat="44.2775825" lon="6.7463055"><ele>2112.0</ele><time>2026-05-03T12:09:02.11Z</time></trkpt><trkpt lat="44.2776844" lon="6.7463454"><ele>2112.0</ele><time>2026-05-03T12:09:03.11Z</time></trkpt><trkpt lat="44.2777867" lon="6.7463705"><ele>2112.0</ele><time>2026-05-03T12:09:04.109Z</time></trkpt><trkpt lat="44.2778824" lon="6.7463879"><ele>2112.0</ele><time>2026-05-03T12:09:05.11Z</time></trkpt><trkpt lat="44.2780015" lon="6.7463872"><ele>2112.0</ele><time>2026-05-03T12:09:06.11Z</time></trkpt><trkpt lat="44.2781076" lon="6.7463704"><ele>2112.0</ele><time>2026-05-03T12:09:07.11Z</time></trkpt><trkpt lat="44.2782378" lon="6.7463489"><ele>2112.0</ele><time>2026-05-03T12:09:08.11Z</time></trkpt><trkpt lat="44.2783631" lon="6.7463224"><ele>2112.0</ele><time>2026-05-03T12:09:09.11Z</time></trkpt><trkpt lat="44.2784848" lon="6.746301"><ele>2112.0</ele><time>2026-05-03T12:09:10.11Z</time></trkpt><trkpt lat="44.2786111" lon="6.7463"><ele>2112.0</ele><time>2026-05-03T12:09:11.11Z</time></trkpt><trkpt lat="44.2787158" lon="6.7463112"><ele>2112.0</ele><time>2026-05-03T12:09:12.109Z</time></trkpt><trkpt lat="44.2788203" lon="6.7463175"><ele>2112.0</ele><time>2026-05-03T12:09:13.109Z</time></trkpt><trkpt lat="44.2789189" lon="6.7463166"><ele>2112.0</ele><time>2026-05-03T12:09:14.11Z</time></trkpt><trkpt lat="44.2790482" lon="6.7462302"><ele>2111.25</ele><time>2026-05-03T12:09:16.11Z</time></trkpt><trkpt lat="44.2791503" lon="6.7460501"><ele>2110.5</ele><time>2026-05-03T12:09:18.11Z</time></trkpt><trkpt lat="44.2791653" lon="6.7459088"><ele>2109.75</ele><time>2026-05-03T12:09:19.109Z</time></trkpt><trkpt lat="44.2791898" lon="6.7457691"><ele>2109.0</ele><time>2026-05-03T12:09:20.11Z</time></trkpt><trkpt lat="44.2792153" lon="6.7456252"><ele>2109.0</ele><time>2026-05-03T12:09:21.11Z</time></trkpt><trkpt lat="44.2792282" lon="6.7454834"><ele>2109.0</ele><time>2026-05-03T12:09:22.109Z</time></trkpt><trkpt lat="44.2792016" lon="6.7453385"><ele>2109.0</ele><time>2026-05-03T12:09:23.11Z</time></trkpt><trkpt lat="44.2791848" lon="6.7451791"><ele>2109.0</ele><time>2026-05-03T12:09:24.11Z</time></trkpt><trkpt lat="44.2791654" lon="6.7450166"><ele>2109.0</ele><time>2026-05-03T12:09:25.109Z</time></trkpt><trkpt lat="44.2791712" lon="6.744856"><ele>2108.6</ele><time>2026-05-03T12:09:26.11Z</time></trkpt><trkpt lat="44.2791708" lon="6.7447055"><ele>2108.2</ele><time>2026-05-03T12:09:27.11Z</time></trkpt><trkpt lat="44.2791714" lon="6.744556"><ele>2107.7999999999997</ele><time>2026-05-03T12:09:28.11Z</time></trkpt><trkpt lat="44.279159" lon="6.7444131"><ele>2107.4</ele><time>2026-05-03T12:09:29.11Z</time></trkpt><trkpt lat="44.2791263" lon="6.744278"><ele>2107.0</ele><time>2026-05-03T12:09:30.11Z</time></trkpt><trkpt lat="44.2790597" lon="6.7441305"><ele>2103.5</ele><time>2026-05-03T12:09:31.116Z</time></trkpt><trkpt lat="44.2789814" lon="6.7440062"><ele>2100.0</ele><time>2026-05-03T12:09:32.109Z</time></trkpt><trkpt lat="44.2789068" lon="6.7438776"><ele>2096.5</ele><time>2026-05-03T12:09:33.106Z</time></trkpt><trkpt lat="44.2788144" lon="6.7437159"><ele>2093.0</ele><time>2026-05-03T12:09:34.108Z</time></trkpt><trkpt lat="44.278767" lon="6.7435584"><ele>2097.25</ele><time>2026-05-03T12:09:35.109Z</time></trkpt><trkpt lat="44.2786824" lon="6.7434207"><ele>2101.5</ele><time>2026-05-03T12:09:36.107Z</time></trkpt><trkpt lat="44.2786054" lon="6.7432733"><ele>2105.75</ele><time>2026-05-03T12:09:37.107Z</time></trkpt><trkpt lat="44.278532" lon="6.7431367"><ele>2110.0</ele><time>2026-05-03T12:09:38.107Z</time></trkpt><trkpt lat="44.2784591" lon="6.7429941"><ele>2110.0</ele><time>2026-05-03T12:09:39.107Z</time></trkpt><trkpt lat="44.2784255" lon="6.7428481"><ele>2110.0</ele><time>2026-05-03T12:09:40.106Z</time></trkpt><trkpt lat="44.2784147" lon="6.742693"><ele>2110.0</ele><time>2026-05-03T12:09:41.107Z</time></trkpt><trkpt lat="44.2784459" lon="6.742548"><ele>2110.0</ele><time>2026-05-03T12:09:42.107Z</time></trkpt><trkpt lat="44.2785575" lon="6.7424289"><ele>2106.5</ele><time>2026-05-03T12:09:43.107Z</time></trkpt><trkpt lat="44.2786397" lon="6.7423073"><ele>2103.0</ele><time>2026-05-03T12:09:44.107Z</time></trkpt><trkpt lat="44.278711" lon="6.7422143"><ele>2099.5</ele><time>2026-05-03T12:09:45.107Z</time></trkpt><trkpt lat="44.2788727" lon="6.7421182"><ele>2096.0</ele><time>2026-05-03T12:09:46.107Z</time></trkpt><trkpt lat="44.2790074" lon="6.742054"><ele>2093.0</ele><time>2026-05-03T12:09:47.107Z</time></trkpt><trkpt lat="44.2791383" lon="6.7419829"><ele>2090.0</ele><time>2026-05-03T12:09:48.107Z</time></trkpt><trkpt lat="44.2792431" lon="6.7419019"><ele>2087.0</ele><time>2026-05-03T12:09:49.107Z</time></trkpt><trkpt lat="44.2793546" lon="6.7418034"><ele>2084.0</ele><time>2026-05-03T12:09:50.106Z</time></trkpt><trkpt lat="44.2794504" lon="6.7416843"><ele>2084.0</ele><time>2026-05-03T12:09:51.107Z</time></trkpt><trkpt lat="44.2795476" lon="6.7415592"><ele>2084.0</ele><time>2026-05-03T12:09:52.107Z</time></trkpt><trkpt lat="44.2796416" lon="6.7414601"><ele>2084.0</ele><time>2026-05-03T12:09:53.107Z</time></trkpt><trkpt lat="44.2797252" lon="6.741396"><ele>2084.0</ele><time>2026-05-03T12:09:54.107Z</time></trkpt><trkpt lat="44.2798175" lon="6.7413594"><ele>2084.0</ele><time>2026-05-03T12:09:55.107Z</time></trkpt><trkpt lat="44.2799073" lon="6.7413505"><ele>2079.8</ele><time>2026-05-03T12:09:56.106Z</time></trkpt><trkpt lat="44.2799949" lon="6.7414077"><ele>2075.6000000000004</ele><time>2026-05-03T12:09:57.107Z</time></trkpt><trkpt lat="44.2800651" lon="6.7414361"><ele>2071.4</ele><time>2026-05-03T12:09:58.107Z</time></trkpt><trkpt lat="44.280147" lon="6.741514"><ele>2067.2000000000003</ele><time>2026-05-03T12:09:59.107Z</time></trkpt><trkpt lat="44.2802276" lon="6.7416218"><ele>2063.0</ele><time>2026-05-03T12:10:00.107Z</time></trkpt><trkpt lat="44.2802716" lon="6.7417223"><ele>2063.0</ele><time>2026-05-03T12:10:01.106Z</time></trkpt><trkpt lat="44.280295" lon="6.7418644"><ele>2063.0</ele><time>2026-05-03T12:10:02.107Z</time></trkpt><trkpt lat="44.2803276" lon="6.742005"><ele>2063.0</ele><time>2026-05-03T12:10:03.107Z</time></trkpt><trkpt lat="44.2803541" lon="6.7421446"><ele>2063.0</ele><time>2026-05-03T12:10:04.107Z</time></trkpt><trkpt lat="44.2803943" lon="6.7422657"><ele>2063.0</ele><time>2026-05-03T12:10:05.107Z</time></trkpt><trkpt lat="44.2804596" lon="6.7423822"><ele>2063.0</ele><time>2026-05-03T12:10:06.106Z</time></trkpt><trkpt lat="44.2805364" lon="6.7424795"><ele>2063.0</ele><time>2026-05-03T12:10:07.107Z</time></trkpt><trkpt lat="44.2806304" lon="6.7425674"><ele>2063.0</ele><time>2026-05-03T12:10:08.107Z</time></trkpt><trkpt lat="44.2807348" lon="6.7426599"><ele>2063.0</ele><time>2026-05-03T12:10:09.107Z</time></trkpt><trkpt lat="44.2808329" lon="6.7427236"><ele>2063.0</ele><time>2026-05-03T12:10:10.107Z</time></trkpt><trkpt lat="44.2809086" lon="6.7427884"><ele>2060.2000000000003</ele><time>2026-05-03T12:10:11.107Z</time></trkpt><trkpt lat="44.2809796" lon="6.7428709"><ele>2057.4</ele><time>2026-05-03T12:10:12.107Z</time></trkpt><trkpt lat="44.2810397" lon="6.742981"><ele>2054.6000000000004</ele><time>2026-05-03T12:10:13.107Z</time></trkpt><trkpt lat="44.2810642" lon="6.7431081"><ele>2051.8</ele><time>2026-05-03T12:10:14.107Z</time></trkpt><trkpt lat="44.2810777" lon="6.7432512"><ele>2049.0</ele><time>2026-05-03T12:10:15.107Z</time></trkpt><trkpt lat="44.2810495" lon="6.7433944"><ele>2046.25</ele><time>2026-05-03T12:10:16.107Z</time></trkpt><trkpt lat="44.2810072" lon="6.7435527"><ele>2043.5</ele><time>2026-05-03T12:10:17.107Z</time></trkpt><trkpt lat="44.2809505" lon="6.7437252"><ele>2040.75</ele><time>2026-05-03T12:10:18.107Z</time></trkpt><trkpt lat="44.2808911" lon="6.7438958"><ele>2038.0</ele><time>2026-05-03T12:10:19.107Z</time></trkpt><trkpt lat="44.2808243" lon="6.7440615"><ele>2038.0</ele><time>2026-05-03T12:10:20.107Z</time></trkpt><trkpt lat="44.280725" lon="6.7442174"><ele>2038.0</ele><time>2026-05-03T12:10:21.107Z</time></trkpt><trkpt lat="44.2806547" lon="6.7443665"><ele>2038.0</ele><time>2026-05-03T12:10:22.106Z</time></trkpt><trkpt lat="44.2805869" lon="6.7445023"><ele>2038.0</ele><time>2026-05-03T12:10:23.107Z</time></trkpt><trkpt lat="44.2805115" lon="6.7446222"><ele>2043.6666666666667</ele><time>2026-05-03T12:10:24.106Z</time></trkpt><trkpt lat="44.2804504" lon="6.7447437"><ele>2049.3333333333335</ele><time>2026-05-03T12:10:25.107Z</time></trkpt><trkpt lat="44.280391" lon="6.7448531"><ele>2055.0</ele><time>2026-05-03T12:10:26.107Z</time></trkpt><trkpt lat="44.2803516" lon="6.7449536"><ele>2060.6666666666665</ele><time>2026-05-03T12:10:27.106Z</time></trkpt><trkpt lat="44.2803062" lon="6.7450538"><ele>2066.333333333333</ele><time>2026-05-03T12:10:28.106Z</time></trkpt><trkpt lat="44.280288" lon="6.7451447"><ele>2072.0</ele><time>2026-05-03T12:10:29.107Z</time></trkpt><trkpt lat="44.2802869" lon="6.7452422"><ele>2074.2</ele><time>2026-05-03T12:10:30.107Z</time></trkpt><trkpt lat="44.2803656" lon="6.7453296"><ele>2076.3999999999996</ele><time>2026-05-03T12:10:31.107Z</time></trkpt><trkpt lat="44.2804245" lon="6.745419"><ele>2078.6000000000004</ele><time>2026-05-03T12:10:32.107Z</time></trkpt><trkpt lat="44.2805147" lon="6.7454642"><ele>2080.8</ele><time>2026-05-03T12:10:33.106Z</time></trkpt><trkpt lat="44.2806142" lon="6.745507"><ele>2083.0</ele><time>2026-05-03T12:10:34.107Z</time></trkpt><trkpt lat="44.2807478" lon="6.7455553"><ele>2073.25</ele><time>2026-05-03T12:10:35.107Z</time></trkpt><trkpt lat="44.2808798" lon="6.7456194"><ele>2063.5</ele><time>2026-05-03T12:10:36.107Z</time></trkpt><trkpt lat="44.2810094" lon="6.7456922"><ele>2053.75</ele><time>2026-05-03T12:10:37.106Z</time></trkpt><trkpt lat="44.2811457" lon="6.7457803"><ele>2044.0</ele><time>2026-05-03T12:10:38.107Z</time></trkpt><trkpt lat="44.2812755" lon="6.7458605"><ele>2044.0</ele><time>2026-05-03T12:10:39.107Z</time></trkpt><trkpt lat="44.2814017" lon="6.7459378"><ele>2044.0</ele><time>2026-05-03T12:10:40.106Z</time></trkpt><trkpt lat="44.2815279" lon="6.746015"><ele>2044.0</ele><time>2026-05-03T12:10:41.106Z</time></trkpt><trkpt lat="44.2816623" lon="6.7460819"><ele>2044.0</ele><time>2026-05-03T12:10:42.107Z</time></trkpt><trkpt lat="44.281783" lon="6.7461401"><ele>2045.5</ele><time>2026-05-03T12:10:43.107Z</time></trkpt><trkpt lat="44.2819093" lon="6.7461883"><ele>2047.0</ele><time>2026-05-03T12:10:44.107Z</time></trkpt><trkpt lat="44.2820258" lon="6.7462127"><ele>2048.5</ele><time>2026-05-03T12:10:45.106Z</time></trkpt><trkpt lat="44.2821523" lon="6.7462212"><ele>2050.0</ele><time>2026-05-03T12:10:46.107Z</time></trkpt><trkpt lat="44.2822891" lon="6.7462095"><ele>2046.25</ele><time>2026-05-03T12:10:47.107Z</time></trkpt><trkpt lat="44.2824306" lon="6.7461946"><ele>2042.5</ele><time>2026-05-03T12:10:48.107Z</time></trkpt><trkpt lat="44.2825929" lon="6.7462042"><ele>2038.75</ele><time>2026-05-03T12:10:49.106Z</time></trkpt><trkpt lat="44.2827042" lon="6.7462044"><ele>2035.0</ele><time>2026-05-03T12:10:50.107Z</time></trkpt><trkpt lat="44.2828156" lon="6.7461945"><ele>2035.0</ele><time>2026-05-03T12:10:51.107Z</time></trkpt><trkpt lat="44.2829318" lon="6.7461714"><ele>2035.0</ele><time>2026-05-03T12:10:52.107Z</time></trkpt><trkpt lat="44.2830324" lon="6.7461123"><ele>2035.0</ele><time>2026-05-03T12:10:53.106Z</time></trkpt><trkpt lat="44.2831408" lon="6.7460351"><ele>2035.0</ele><time>2026-05-03T12:10:54.107Z</time></trkpt><trkpt lat="44.2832467" lon="6.7459395"><ele>2030.6</ele><time>2026-05-03T12:10:55.107Z</time></trkpt><trkpt lat="44.2833133" lon="6.7458455"><ele>2026.2</ele><time>2026-05-03T12:10:56.106Z</time></trkpt><trkpt lat="44.2834016" lon="6.7457464"><ele>2021.8000000000002</ele><time>2026-05-03T12:10:57.107Z</time></trkpt><trkpt lat="44.2834754" lon="6.7456431"><ele>2017.4</ele><time>2026-05-03T12:10:58.107Z</time></trkpt><trkpt lat="44.2835519" lon="6.7455546"><ele>2013.0</ele><time>2026-05-03T12:10:59.107Z</time></trkpt><trkpt lat="44.2836439" lon="6.7454933"><ele>2013.0</ele><time>2026-05-03T12:11:00.107Z</time></trkpt><trkpt lat="44.283743" lon="6.7454616"><ele>2013.0</ele><time>2026-05-03T12:11:01.107Z</time></trkpt><trkpt lat="44.2838381" lon="6.7454333"><ele>2013.0</ele><time>2026-05-03T12:11:02.107Z</time></trkpt><trkpt lat="44.2839329" lon="6.7454184"><ele>2013.0</ele><time>2026-05-03T12:11:03.107Z</time></trkpt><trkpt lat="44.2840852" lon="6.7455083"><ele>2012.25</ele><time>2026-05-03T12:11:04.107Z</time></trkpt><trkpt lat="44.284182" lon="6.7455682"><ele>2011.5</ele><time>2026-05-03T12:11:05.106Z</time></trkpt><trkpt lat="44.284287" lon="6.7456482"><ele>2010.75</ele><time>2026-05-03T12:11:06.106Z</time></trkpt><trkpt lat="44.2843905" lon="6.7457277"><ele>2010.0</ele><time>2026-05-03T12:11:07.107Z</time></trkpt><trkpt lat="44.2844996" lon="6.7458206"><ele>2010.0</ele><time>2026-05-03T12:11:08.107Z</time></trkpt><trkpt lat="44.2845966" lon="6.7459024"><ele>2010.0</ele><time>2026-05-03T12:11:09.107Z</time></trkpt><trkpt lat="44.2846914" lon="6.7459697"><ele>2010.0</ele><time>2026-05-03T12:11:10.107Z</time></trkpt><trkpt lat="44.2847814" lon="6.746035"><ele>2010.0</ele><time>2026-05-03T12:11:11.107Z</time></trkpt><trkpt lat="44.2848694" lon="6.7460725"><ele>2010.0</ele><time>2026-05-03T12:11:12.106Z</time></trkpt><trkpt lat="44.2849432" lon="6.7460928"><ele>2010.714285714286</ele><time>2026-05-03T12:11:13.107Z</time></trkpt><trkpt lat="44.285022" lon="6.7460818"><ele>2011.4285714285716</ele><time>2026-05-03T12:11:14.106Z</time></trkpt><trkpt lat="44.2850997" lon="6.7460733"><ele>2012.142857142857</ele><time>2026-05-03T12:11:15.107Z</time></trkpt><trkpt lat="44.2851551" lon="6.7460065"><ele>2012.857142857143</ele><time>2026-05-03T12:11:16.106Z</time></trkpt><trkpt lat="44.2851713" lon="6.745921"><ele>2013.5714285714284</ele><time>2026-05-03T12:11:17.107Z</time></trkpt><trkpt lat="44.2851824" lon="6.7458281"><ele>2014.285714285714</ele><time>2026-05-03T12:11:18.106Z</time></trkpt><trkpt lat="44.2851583" lon="6.7457303"><ele>2014.9999999999998</ele><time>2026-05-03T12:11:19.106Z</time></trkpt><trkpt lat="44.2851185" lon="6.745617"><ele>2011.9999999999998</ele><time>2026-05-03T12:11:20.107Z</time></trkpt><trkpt lat="44.2850781" lon="6.7454953"><ele>2009.0</ele><time>2026-05-03T12:11:21.107Z</time></trkpt><trkpt lat="44.2850286" lon="6.745389"><ele>2006.0</ele><time>2026-05-03T12:11:22.107Z</time></trkpt><trkpt lat="44.284996" lon="6.7452715"><ele>2003.0</ele><time>2026-05-03T12:11:23.107Z</time></trkpt><trkpt lat="44.2849794" lon="6.7451534"><ele>1999.9999999999998</ele><time>2026-05-03T12:11:24.106Z</time></trkpt><trkpt lat="44.2849818" lon="6.7450381"><ele>1997.0</ele><time>2026-05-03T12:11:25.107Z</time></trkpt><trkpt lat="44.2850013" lon="6.7449302"><ele>1995.8</ele><time>2026-05-03T12:11:26.107Z</time></trkpt><trkpt lat="44.2850875" lon="6.7448491"><ele>1994.6</ele><time>2026-05-03T12:11:27.107Z</time></trkpt><trkpt lat="44.2851647" lon="6.7447633"><ele>1993.3999999999999</ele><time>2026-05-03T12:11:28.107Z</time></trkpt><trkpt lat="44.2852413" lon="6.7446936"><ele>1992.1999999999998</ele><time>2026-05-03T12:11:29.107Z</time></trkpt><trkpt lat="44.2853334" lon="6.7446426"><ele>1991.0</ele><time>2026-05-03T12:11:30.107Z</time></trkpt><trkpt lat="44.285408" lon="6.7445658"><ele>1990.9999999999998</ele><time>2026-05-03T12:11:31.107Z</time></trkpt><trkpt lat="44.2854702" lon="6.7444643"><ele>1991.0</ele><time>2026-05-03T12:11:32.106Z</time></trkpt><trkpt lat="44.285528" lon="6.744379"><ele>1991.0</ele><time>2026-05-03T12:11:33.107Z</time></trkpt><trkpt lat="44.2855763" lon="6.7442761"><ele>1991.0</ele><time>2026-05-03T12:11:34.107Z</time></trkpt><trkpt lat="44.2855407" lon="6.7441263"><ele>1990.9999999999998</ele><time>2026-05-03T12:11:36.107Z</time></trkpt><trkpt lat="44.2855011" lon="6.7440525"><ele>1991.0</ele><time>2026-05-03T12:11:37.107Z</time></trkpt><trkpt lat="44.2853957" lon="6.744004"><ele>1989.6</ele><time>2026-05-03T12:11:38.107Z</time></trkpt><trkpt lat="44.2852953" lon="6.7439378"><ele>1988.1999999999998</ele><time>2026-05-03T12:11:39.107Z</time></trkpt><trkpt lat="44.2851889" lon="6.7438763"><ele>1986.8000000000002</ele><time>2026-05-03T12:11:40.107Z</time></trkpt><trkpt lat="44.2850731" lon="6.7438556"><ele>1985.4</ele><time>2026-05-03T12:11:41.107Z</time></trkpt><trkpt lat="44.2849878" lon="6.7438508"><ele>1984.0</ele><time>2026-05-03T12:11:42.107Z</time></trkpt><trkpt lat="44.2848908" lon="6.7438666"><ele>1984.0</ele><time>2026-05-03T12:11:43.107Z</time></trkpt><trkpt lat="44.2847695" lon="6.7438789"><ele>1984.0</ele><time>2026-05-03T12:11:44.107Z</time></trkpt><trkpt lat="44.2846646" lon="6.7438851"><ele>1984.0</ele><time>2026-05-03T12:11:45.107Z</time></trkpt><trkpt lat="44.2845558" lon="6.7438863"><ele>1984.0</ele><time>2026-05-03T12:11:46.107Z</time></trkpt><trkpt lat="44.2844482" lon="6.7438775"><ele>1984.0</ele><time>2026-05-03T12:11:47.107Z</time></trkpt><trkpt lat="44.2843324" lon="6.7438848"><ele>1983.0</ele><time>2026-05-03T12:11:48.107Z</time></trkpt><trkpt lat="44.2842203" lon="6.7438923"><ele>1982.0</ele><time>2026-05-03T12:11:49.107Z</time></trkpt><trkpt lat="44.2841006" lon="6.7439231"><ele>1981.0</ele><time>2026-05-03T12:11:50.106Z</time></trkpt><trkpt lat="44.2838841" lon="6.7439826"><ele>1980.8</ele><time>2026-05-03T12:11:51.106Z</time></trkpt><trkpt lat="44.2837689" lon="6.7439855"><ele>1980.6</ele><time>2026-05-03T12:11:52.107Z</time></trkpt><trkpt lat="44.2837189" lon="6.7438958"><ele>1980.4</ele><time>2026-05-03T12:11:53.107Z</time></trkpt><trkpt lat="44.2836585" lon="6.7438041"><ele>1980.2</ele><time>2026-05-03T12:11:54.107Z</time></trkpt><trkpt lat="44.2835993" lon="6.7437063"><ele>1980.0</ele><time>2026-05-03T12:11:55.107Z</time></trkpt><trkpt lat="44.2835671" lon="6.743611"><ele>1978.4</ele><time>2026-05-03T12:11:56.107Z</time></trkpt><trkpt lat="44.2835701" lon="6.7434316"><ele>1976.8</ele><time>2026-05-03T12:11:57.107Z</time></trkpt><trkpt lat="44.2835461" lon="6.7432844"><ele>1975.1999999999998</ele><time>2026-05-03T12:11:58.107Z</time></trkpt><trkpt lat="44.2835299" lon="6.7431488"><ele>1973.6</ele><time>2026-05-03T12:11:59.107Z</time></trkpt><trkpt lat="44.2835133" lon="6.7430242"><ele>1972.0</ele><time>2026-05-03T12:12:00.106Z</time></trkpt><trkpt lat="44.2835084" lon="6.7429056"><ele>1972.0</ele><time>2026-05-03T12:12:01.107Z</time></trkpt><trkpt lat="44.283539" lon="6.7428111"><ele>1971.9999999999998</ele><time>2026-05-03T12:12:02.107Z</time></trkpt><trkpt lat="44.2835932" lon="6.7426705"><ele>1971.9999999999998</ele><time>2026-05-03T12:12:03.107Z</time></trkpt><trkpt lat="44.2836543" lon="6.7426351"><ele>1972.0</ele><time>2026-05-03T12:12:04.106Z</time></trkpt><trkpt lat="44.283754" lon="6.7425739"><ele>1972.0</ele><time>2026-05-03T12:12:05.107Z</time></trkpt><trkpt lat="44.2838594" lon="6.7425229"><ele>1969.5</ele><time>2026-05-03T12:12:06.106Z</time></trkpt><trkpt lat="44.2839702" lon="6.7424396"><ele>1967.0</ele><time>2026-05-03T12:12:07.107Z</time></trkpt><trkpt lat="44.2840877" lon="6.7423696"><ele>1964.5</ele><time>2026-05-03T12:12:08.106Z</time></trkpt><trkpt lat="44.2841968" lon="6.742308"><ele>1962.0</ele><time>2026-05-03T12:12:09.107Z</time></trkpt><trkpt lat="44.2843237" lon="6.7422516"><ele>1962.0</ele><time>2026-05-03T12:12:10.107Z</time></trkpt><trkpt lat="44.2844574" lon="6.7421989"><ele>1962.0</ele><time>2026-05-03T12:12:11.107Z</time></trkpt><trkpt lat="44.2845959" lon="6.7421561"><ele>1962.0</ele><time>2026-05-03T12:12:12.107Z</time></trkpt><trkpt lat="44.2847294" lon="6.7420896"><ele>1962.0</ele><time>2026-05-03T12:12:13.107Z</time></trkpt><trkpt lat="44.2848638" lon="6.7420268"><ele>1959.25</ele><time>2026-05-03T12:12:14.107Z</time></trkpt><trkpt lat="44.2849863" lon="6.741954"><ele>1956.5</ele><time>2026-05-03T12:12:15.107Z</time></trkpt><trkpt lat="44.2851226" lon="6.7419299"><ele>1953.75</ele><time>2026-05-03T12:12:16.107Z</time></trkpt><trkpt lat="44.2852507" lon="6.7420533"><ele>1951.0</ele><time>2026-05-03T12:12:17.107Z</time></trkpt><trkpt lat="44.2853799" lon="6.7421365"><ele>1951.0</ele><time>2026-05-03T12:12:18.107Z</time></trkpt><trkpt lat="44.2855091" lon="6.742182"><ele>1951.0</ele><time>2026-05-03T12:12:19.107Z</time></trkpt><trkpt lat="44.2856404" lon="6.7422208"><ele>1951.0</ele><time>2026-05-03T12:12:20.106Z</time></trkpt><trkpt lat="44.2857678" lon="6.7422746"><ele>1951.0</ele><time>2026-05-03T12:12:21.107Z</time></trkpt><trkpt lat="44.2859145" lon="6.7422959"><ele>1950.75</ele><time>2026-05-03T12:12:22.107Z</time></trkpt><trkpt lat="44.2860601" lon="6.7423298"><ele>1950.5</ele><time>2026-05-03T12:12:23.107Z</time></trkpt><trkpt lat="44.2861915" lon="6.7423426"><ele>1950.25</ele><time>2026-05-03T12:12:24.107Z</time></trkpt><trkpt lat="44.286348" lon="6.7423336"><ele>1950.0</ele><time>2026-05-03T12:12:25.107Z</time></trkpt><trkpt lat="44.2864682" lon="6.7423432"><ele>1950.0</ele><time>2026-05-03T12:12:26.107Z</time></trkpt><trkpt lat="44.2865922" lon="6.7423355"><ele>1950.0</ele><time>2026-05-03T12:12:27.107Z</time></trkpt><trkpt lat="44.2867316" lon="6.7422933"><ele>1950.0</ele><time>2026-05-03T12:12:28.107Z</time></trkpt><trkpt lat="44.2868373" lon="6.7422625"><ele>1950.0</ele><time>2026-05-03T12:12:29.106Z</time></trkpt><trkpt lat="44.2869567" lon="6.7422265"><ele>1950.0</ele><time>2026-05-03T12:12:30.107Z</time></trkpt><trkpt lat="44.2870828" lon="6.7421971"><ele>1950.0</ele><time>2026-05-03T12:12:31.107Z</time></trkpt><trkpt lat="44.2872139" lon="6.7421957"><ele>1950.0</ele><time>2026-05-03T12:12:32.107Z</time></trkpt><trkpt lat="44.2873461" lon="6.7422545"><ele>1950.0</ele><time>2026-05-03T12:12:33.106Z</time></trkpt><trkpt lat="44.2874771" lon="6.7423193"><ele>1950.0</ele><time>2026-05-03T12:12:34.107Z</time></trkpt><trkpt lat="44.2876042" lon="6.7423873"><ele>1950.0</ele><time>2026-05-03T12:12:35.107Z</time></trkpt><trkpt lat="44.2877416" lon="6.7424364"><ele>1950.0</ele><time>2026-05-03T12:12:36.107Z</time></trkpt><trkpt lat="44.2878677" lon="6.7425224"><ele>1950.0</ele><time>2026-05-03T12:12:37.107Z</time></trkpt><trkpt lat="44.2879984" lon="6.7426038"><ele>1950.75</ele><time>2026-05-03T12:12:38.107Z</time></trkpt><trkpt lat="44.2881295" lon="6.742679"><ele>1951.5</ele><time>2026-05-03T12:12:39.107Z</time></trkpt><trkpt lat="44.2882697" lon="6.7427427"><ele>1952.25</ele><time>2026-05-03T12:12:40.107Z</time></trkpt><trkpt lat="44.2883751" lon="6.7428296"><ele>1953.0</ele><time>2026-05-03T12:12:41.107Z</time></trkpt><trkpt lat="44.2884694" lon="6.7429127"><ele>1951.0</ele><time>2026-05-03T12:12:42.107Z</time></trkpt><trkpt lat="44.2885409" lon="6.7429593"><ele>1949.0000000000002</ele><time>2026-05-03T12:12:43.106Z</time></trkpt><trkpt lat="44.2886432" lon="6.743022"><ele>1947.0000000000002</ele><time>2026-05-03T12:12:45.107Z</time></trkpt><trkpt lat="44.2887659" lon="6.7430903"><ele>1945.0</ele><time>2026-05-03T12:12:47.107Z</time></trkpt><trkpt lat="44.2888369" lon="6.7431368"><ele>1943.0</ele><time>2026-05-03T12:12:48.107Z</time></trkpt><trkpt lat="44.2889267" lon="6.7431918"><ele>1943.0</ele><time>2026-05-03T12:12:49.107Z</time></trkpt><trkpt lat="44.2890221" lon="6.743242"><ele>1943.0</ele><time>2026-05-03T12:12:50.107Z</time></trkpt><trkpt lat="44.2891426" lon="6.7432853"><ele>1943.0</ele><time>2026-05-03T12:12:51.107Z</time></trkpt><trkpt lat="44.289263" lon="6.7433326"><ele>1943.0</ele><time>2026-05-03T12:12:52.106Z</time></trkpt><trkpt lat="44.2893876" lon="6.7433812"><ele>1943.0</ele><time>2026-05-03T12:12:53.106Z</time></trkpt><trkpt lat="44.2895116" lon="6.743439"><ele>1943.0</ele><time>2026-05-03T12:12:54.107Z</time></trkpt><trkpt lat="44.2896373" lon="6.7434987"><ele>1943.0</ele><time>2026-05-03T12:12:55.106Z</time></trkpt><trkpt lat="44.289766" lon="6.7435628"><ele>1943.0</ele><time>2026-05-03T12:12:56.107Z</time></trkpt><trkpt lat="44.2898866" lon="6.7436208"><ele>1938.0</ele><time>2026-05-03T12:12:57.107Z</time></trkpt><trkpt lat="44.2900073" lon="6.7436847"><ele>1933.0</ele><time>2026-05-03T12:12:58.107Z</time></trkpt><trkpt lat="44.2901259" lon="6.7437375"><ele>1928.0</ele><time>2026-05-03T12:12:59.107Z</time></trkpt><trkpt lat="44.2902538" lon="6.7437802"><ele>1923.0</ele><time>2026-05-03T12:13:00.107Z</time></trkpt><trkpt lat="44.2903886" lon="6.7438074"><ele>1923.0</ele><time>2026-05-03T12:13:01.107Z</time></trkpt><trkpt lat="44.2905164" lon="6.7438357"><ele>1923.0</ele><time>2026-05-03T12:13:02.107Z</time></trkpt><trkpt lat="44.2906561" lon="6.7438675"><ele>1923.0</ele><time>2026-05-03T12:13:03.106Z</time></trkpt><trkpt lat="44.2907752" lon="6.7438973"><ele>1923.0</ele><time>2026-05-03T12:13:04.107Z</time></trkpt><trkpt lat="44.2909019" lon="6.7439112"><ele>1923.0</ele><time>2026-05-03T12:13:05.107Z</time></trkpt><trkpt lat="44.2910327" lon="6.7439211"><ele>1923.0</ele><time>2026-05-03T12:13:06.107Z</time></trkpt><trkpt lat="44.2911654" lon="6.7438922"><ele>1923.0</ele><time>2026-05-03T12:13:07.106Z</time></trkpt><trkpt lat="44.2912884" lon="6.7438728"><ele>1923.0</ele><time>2026-05-03T12:13:08.106Z</time></trkpt><trkpt lat="44.2914138" lon="6.7438662"><ele>1923.25</ele><time>2026-05-03T12:13:09.107Z</time></trkpt><trkpt lat="44.2915371" lon="6.7438569"><ele>1923.5</ele><time>2026-05-03T12:13:10.107Z</time></trkpt><trkpt lat="44.2916649" lon="6.7438784"><ele>1923.75</ele><time>2026-05-03T12:13:11.106Z</time></trkpt><trkpt lat="44.2917793" lon="6.743916"><ele>1924.0</ele><time>2026-05-03T12:13:12.106Z</time></trkpt><trkpt lat="44.2918866" lon="6.7439496"><ele>1924.0</ele><time>2026-05-03T12:13:13.107Z</time></trkpt><trkpt lat="44.2919791" lon="6.7440048"><ele>1924.0</ele><time>2026-05-03T12:13:14.107Z</time></trkpt><trkpt lat="44.2920652" lon="6.7440367"><ele>1924.0</ele><time>2026-05-03T12:13:15.107Z</time></trkpt><trkpt lat="44.2921475" lon="6.744064"><ele>1924.0</ele><time>2026-05-03T12:13:16.107Z</time></trkpt><trkpt lat="44.2922459" lon="6.7440442"><ele>1924.0</ele><time>2026-05-03T12:13:17.107Z</time></trkpt><trkpt lat="44.2923445" lon="6.7439974"><ele>1924.2</ele><time>2026-05-03T12:13:18.107Z</time></trkpt><trkpt lat="44.2924476" lon="6.7439359"><ele>1924.4</ele><time>2026-05-03T12:13:19.107Z</time></trkpt><trkpt lat="44.2925446" lon="6.7438924"><ele>1924.6</ele><time>2026-05-03T12:13:20.107Z</time></trkpt><trkpt lat="44.2926448" lon="6.7438575"><ele>1924.8</ele><time>2026-05-03T12:13:21.107Z</time></trkpt><trkpt lat="44.2927611" lon="6.7438697"><ele>1925.0</ele><time>2026-05-03T12:13:22.106Z</time></trkpt><trkpt lat="44.2928757" lon="6.7439012"><ele>1925.0</ele><time>2026-05-03T12:13:23.107Z</time></trkpt><trkpt lat="44.2929862" lon="6.7439521"><ele>1925.0</ele><time>2026-05-03T12:13:24.107Z</time></trkpt><trkpt lat="44.2931061" lon="6.743968"><ele>1925.0</ele><time>2026-05-03T12:13:25.107Z</time></trkpt><trkpt lat="44.2932325" lon="6.7439475"><ele>1925.0</ele><time>2026-05-03T12:13:26.107Z</time></trkpt><trkpt lat="44.2933376" lon="6.7439517"><ele>1921.0</ele><time>2026-05-03T12:13:27.107Z</time></trkpt><trkpt lat="44.2934856" lon="6.7439295"><ele>1917.0</ele><time>2026-05-03T12:13:28.107Z</time></trkpt><trkpt lat="44.2936259" lon="6.7439048"><ele>1913.0</ele><time>2026-05-03T12:13:29.107Z</time></trkpt><trkpt lat="44.2937692" lon="6.7438942"><ele>1909.0</ele><time>2026-05-03T12:13:30.107Z</time></trkpt><trkpt lat="44.2939253" lon="6.7438345"><ele>1907.6666666666667</ele><time>2026-05-03T12:13:31.107Z</time></trkpt><trkpt lat="44.2940665" lon="6.7438066"><ele>1906.3333333333335</ele><time>2026-05-03T12:13:32.107Z</time></trkpt><trkpt lat="44.2942167" lon="6.7437574"><ele>1905.0</ele><time>2026-05-03T12:13:33.107Z</time></trkpt><trkpt lat="44.2943682" lon="6.7437214"><ele>1905.0</ele><time>2026-05-03T12:13:34.106Z</time></trkpt><trkpt lat="44.2945231" lon="6.7437049"><ele>1905.0</ele><time>2026-05-03T12:13:35.107Z</time></trkpt><trkpt lat="44.2946875" lon="6.7437155"><ele>1905.0</ele><time>2026-05-03T12:13:36.107Z</time></trkpt><trkpt lat="44.2948496" lon="6.7437359"><ele>1902.6666666666665</ele><time>2026-05-03T12:13:37.107Z</time></trkpt><trkpt lat="44.2950048" lon="6.7437726"><ele>1900.3333333333333</ele><time>2026-05-03T12:13:38.107Z</time></trkpt><trkpt lat="44.2951486" lon="6.7438074"><ele>1898.0</ele><time>2026-05-03T12:13:39.107Z</time></trkpt><trkpt lat="44.2952952" lon="6.743847"><ele>1898.0</ele><time>2026-05-03T12:13:40.107Z</time></trkpt><trkpt lat="44.2954152" lon="6.7438908"><ele>1898.0</ele><time>2026-05-03T12:13:41.107Z</time></trkpt><trkpt lat="44.2955434" lon="6.7439193"><ele>1898.0</ele><time>2026-05-03T12:13:42.107Z</time></trkpt><trkpt lat="44.2957088" lon="6.7439111"><ele>1898.0</ele><time>2026-05-03T12:13:43.107Z</time></trkpt><trkpt lat="44.2958683" lon="6.7439028"><ele>1897.6666666666665</ele><time>2026-05-03T12:13:44.106Z</time></trkpt><trkpt lat="44.2960362" lon="6.7438818"><ele>1897.3333333333335</ele><time>2026-05-03T12:13:45.106Z</time></trkpt><trkpt lat="44.2961993" lon="6.7438505"><ele>1897.0</ele><time>2026-05-03T12:13:46.107Z</time></trkpt><trkpt lat="44.2963539" lon="6.7438099"><ele>1897.0</ele><time>2026-05-03T12:13:47.107Z</time></trkpt><trkpt lat="44.2965059" lon="6.7437848"><ele>1897.0</ele><time>2026-05-03T12:13:48.107Z</time></trkpt><trkpt lat="44.2966518" lon="6.7437694"><ele>1897.0</ele><time>2026-05-03T12:13:49.107Z</time></trkpt><trkpt lat="44.2967945" lon="6.743788"><ele>1897.0</ele><time>2026-05-03T12:13:50.107Z</time></trkpt><trkpt lat="44.2969401" lon="6.7438302"><ele>1897.0</ele><time>2026-05-03T12:13:51.106Z</time></trkpt><trkpt lat="44.297069" lon="6.7438875"><ele>1897.0</ele><time>2026-05-03T12:13:52.107Z</time></trkpt><trkpt lat="44.2972076" lon="6.7439563"><ele>1897.0</ele><time>2026-05-03T12:13:53.107Z</time></trkpt><trkpt lat="44.2973339" lon="6.7440445"><ele>1897.0</ele><time>2026-05-03T12:13:54.107Z</time></trkpt><trkpt lat="44.2974467" lon="6.7441263"><ele>1898.5</ele><time>2026-05-03T12:13:55.107Z</time></trkpt><trkpt lat="44.2975401" lon="6.7441953"><ele>1900.0</ele><time>2026-05-03T12:13:56.107Z</time></trkpt><trkpt lat="44.2976483" lon="6.7442533"><ele>1901.5</ele><time>2026-05-03T12:13:57.106Z</time></trkpt><trkpt lat="44.2977614" lon="6.7442872"><ele>1903.0</ele><time>2026-05-03T12:13:58.106Z</time></trkpt><trkpt lat="44.2978789" lon="6.7442933"><ele>1903.0</ele><time>2026-05-03T12:13:59.106Z</time></trkpt><trkpt lat="44.2979962" lon="6.7442773"><ele>1903.0000000000002</ele><time>2026-05-03T12:14:00.107Z</time></trkpt><trkpt lat="44.2980985" lon="6.7442632"><ele>1903.0000000000002</ele><time>2026-05-03T12:14:01.107Z</time></trkpt><trkpt lat="44.2981938" lon="6.7442489"><ele>1903.0</ele><time>2026-05-03T12:14:02.107Z</time></trkpt><trkpt lat="44.2982784" lon="6.7442224"><ele>1903.0</ele><time>2026-05-03T12:14:03.106Z</time></trkpt><trkpt lat="44.2983639" lon="6.7441852"><ele>1902.2</ele><time>2026-05-03T12:14:04.107Z</time></trkpt><trkpt lat="44.2984478" lon="6.7441551"><ele>1901.4</ele><time>2026-05-03T12:14:05.106Z</time></trkpt><trkpt lat="44.2985398" lon="6.7441227"><ele>1900.6000000000001</ele><time>2026-05-03T12:14:06.107Z</time></trkpt><trkpt lat="44.2986536" lon="6.7440789"><ele>1899.8000000000002</ele><time>2026-05-03T12:14:07.107Z</time></trkpt><trkpt lat="44.2987702" lon="6.7440706"><ele>1899.0</ele><time>2026-05-03T12:14:08.107Z</time></trkpt><trkpt lat="44.2988995" lon="6.7440594"><ele>1897.75</ele><time>2026-05-03T12:14:09.107Z</time></trkpt><trkpt lat="44.2990329" lon="6.7440722"><ele>1896.5</ele><time>2026-05-03T12:14:10.107Z</time></trkpt><trkpt lat="44.299172" lon="6.7440855"><ele>1895.25</ele><time>2026-05-03T12:14:11.107Z</time></trkpt><trkpt lat="44.2993015" lon="6.7440848"><ele>1894.0</ele><time>2026-05-03T12:14:12.107Z</time></trkpt><trkpt lat="44.2994386" lon="6.74408"><ele>1894.0</ele><time>2026-05-03T12:14:13.107Z</time></trkpt><trkpt lat="44.2995705" lon="6.744082"><ele>1894.0</ele><time>2026-05-03T12:14:14.107Z</time></trkpt><trkpt lat="44.299697" lon="6.7440914"><ele>1894.0</ele><time>2026-05-03T12:14:15.107Z</time></trkpt><trkpt lat="44.2998158" lon="6.7441021"><ele>1894.0</ele><time>2026-05-03T12:14:16.106Z</time></trkpt><trkpt lat="44.299939" lon="6.7441109"><ele>1894.75</ele><time>2026-05-03T12:14:17.106Z</time></trkpt><trkpt lat="44.3000685" lon="6.7441245"><ele>1895.5</ele><time>2026-05-03T12:14:18.107Z</time></trkpt><trkpt lat="44.3001861" lon="6.7441334"><ele>1896.25</ele><time>2026-05-03T12:14:19.107Z</time></trkpt><trkpt lat="44.3003084" lon="6.744139"><ele>1897.0</ele><time>2026-05-03T12:14:20.107Z</time></trkpt><trkpt lat="44.3004259" lon="6.7441552"><ele>1897.0</ele><time>2026-05-03T12:14:21.107Z</time></trkpt><trkpt lat="44.3005562" lon="6.7441716"><ele>1897.0</ele><time>2026-05-03T12:14:22.106Z</time></trkpt><trkpt lat="44.3006788" lon="6.7442044"><ele>1897.0</ele><time>2026-05-03T12:14:23.107Z</time></trkpt><trkpt lat="44.3007943" lon="6.7442502"><ele>1897.0</ele><time>2026-05-03T12:14:24.107Z</time></trkpt><trkpt lat="44.3009234" lon="6.7442856"><ele>1896.0</ele><time>2026-05-03T12:14:25.107Z</time></trkpt><trkpt lat="44.301046" lon="6.7443373"><ele>1895.0</ele><time>2026-05-03T12:14:26.106Z</time></trkpt><trkpt lat="44.3011663" lon="6.7443754"><ele>1894.0</ele><time>2026-05-03T12:14:27.107Z</time></trkpt><trkpt lat="44.3012896" lon="6.7444153"><ele>1893.0</ele><time>2026-05-03T12:14:28.107Z</time></trkpt><trkpt lat="44.3014104" lon="6.7444557"><ele>1888.0</ele><time>2026-05-03T12:14:29.106Z</time></trkpt><trkpt lat="44.3015464" lon="6.7444788"><ele>1883.0</ele><time>2026-05-03T12:14:30.107Z</time></trkpt><trkpt lat="44.3016842" lon="6.7444936"><ele>1878.0</ele><time>2026-05-03T12:14:31.107Z</time></trkpt><trkpt lat="44.3018233" lon="6.7444811"><ele>1873.0</ele><time>2026-05-03T12:14:32.107Z</time></trkpt><trkpt lat="44.3019328" lon="6.7444818"><ele>1873.0</ele><time>2026-05-03T12:14:33.107Z</time></trkpt><trkpt lat="44.302063" lon="6.7444703"><ele>1873.0</ele><time>2026-05-03T12:14:34.107Z</time></trkpt><trkpt lat="44.3021883" lon="6.744451"><ele>1873.0</ele><time>2026-05-03T12:14:35.106Z</time></trkpt><trkpt lat="44.302303" lon="6.7444417"><ele>1873.0</ele><time>2026-05-03T12:14:36.107Z</time></trkpt><trkpt lat="44.302412" lon="6.744414"><ele>1875.4</ele><time>2026-05-03T12:14:37.107Z</time></trkpt><trkpt lat="44.3025172" lon="6.744375"><ele>1877.8000000000002</ele><time>2026-05-03T12:14:38.107Z</time></trkpt><trkpt lat="44.30261" lon="6.744327"><ele>1880.2</ele><time>2026-05-03T12:14:39.107Z</time></trkpt><trkpt lat="44.3027125" lon="6.7442733"><ele>1882.6</ele><time>2026-05-03T12:14:40.107Z</time></trkpt><trkpt lat="44.3028097" lon="6.7441998"><ele>1885.0</ele><time>2026-05-03T12:14:41.106Z</time></trkpt><trkpt lat="44.3029022" lon="6.7441287"><ele>1885.0</ele><time>2026-05-03T12:14:42.107Z</time></trkpt><trkpt lat="44.3029899" lon="6.7440669"><ele>1885.0</ele><time>2026-05-03T12:14:43.107Z</time></trkpt><trkpt lat="44.3030725" lon="6.7440127"><ele>1885.0</ele><time>2026-05-03T12:14:44.107Z</time></trkpt><trkpt lat="44.3031791" lon="6.7439817"><ele>1885.0</ele><time>2026-05-03T12:14:45.107Z</time></trkpt><trkpt lat="44.3032685" lon="6.7439833"><ele>1885.0</ele><time>2026-05-03T12:14:46.107Z</time></trkpt><trkpt lat="44.3033477" lon="6.7440361"><ele>1883.2</ele><time>2026-05-03T12:14:47.107Z</time></trkpt><trkpt lat="44.303438" lon="6.7441346"><ele>1881.4</ele><time>2026-05-03T12:14:48.107Z</time></trkpt><trkpt lat="44.303526" lon="6.7442007"><ele>1879.6</ele><time>2026-05-03T12:14:49.107Z</time></trkpt><trkpt lat="44.3036122" lon="6.7442271"><ele>1877.8</ele><time>2026-05-03T12:14:50.107Z</time></trkpt><trkpt lat="44.303706" lon="6.7442239"><ele>1876.0</ele><time>2026-05-03T12:14:51.107Z</time></trkpt><trkpt lat="44.3038161" lon="6.7442007"><ele>1875.5</ele><time>2026-05-03T12:14:52.107Z</time></trkpt><trkpt lat="44.3039396" lon="6.7441701"><ele>1875.0</ele><time>2026-05-03T12:14:53.107Z</time></trkpt><trkpt lat="44.3040587" lon="6.7441363"><ele>1874.5</ele><time>2026-05-03T12:14:54.106Z</time></trkpt><trkpt lat="44.3041716" lon="6.7441012"><ele>1874.0</ele><time>2026-05-03T12:14:55.106Z</time></trkpt><trkpt lat="44.3042892" lon="6.7440616"><ele>1874.0</ele><time>2026-05-03T12:14:56.107Z</time></trkpt><trkpt lat="44.3044006" lon="6.7440047"><ele>1874.0</ele><time>2026-05-03T12:14:57.107Z</time></trkpt><trkpt lat="44.3045015" lon="6.7439576"><ele>1874.0</ele><time>2026-05-03T12:14:58.107Z</time></trkpt><trkpt lat="44.3045959" lon="6.7439027"><ele>1874.0</ele><time>2026-05-03T12:14:59.107Z</time></trkpt><trkpt lat="44.3046885" lon="6.7438178"><ele>1874.0</ele><time>2026-05-03T12:15:00.107Z</time></trkpt><trkpt lat="44.3047867" lon="6.7437248"><ele>1873.5</ele><time>2026-05-03T12:15:01.107Z</time></trkpt><trkpt lat="44.3048868" lon="6.7436065"><ele>1873.0</ele><time>2026-05-03T12:15:02.107Z</time></trkpt><trkpt lat="44.3016842" lon="6.7444936"><ele>1873.0</ele><time>2026-05-03T12:14:31.107Z</time></trkpt><trkpt lat="44.3018233" lon="6.7444811"><ele>1873.0</ele><time>2026-05-03T12:14:32.107Z</time></trkpt><trkpt lat="44.3019328" lon="6.7444818"><ele>1873.0</ele><time>2026-05-03T12:14:33.107Z</time></trkpt><trkpt lat="44.302063" lon="6.7444703"><ele>1873.0</ele><time>2026-05-03T12:14:34.107Z</time></trkpt><trkpt lat="44.3021883" lon="6.744451"><ele>1871.8000000000002</ele><time>2026-05-03T12:14:35.106Z</time></trkpt><trkpt lat="44.302303" lon="6.7444417"><ele>1870.6000000000001</ele><time>2026-05-03T12:14:36.107Z</time></trkpt><trkpt lat="44.302412" lon="6.744414"><ele>1869.3999999999999</ele><time>2026-05-03T12:14:37.107Z</time></trkpt><trkpt lat="44.3025172" lon="6.744375"><ele>1868.1999999999998</ele><time>2026-05-03T12:14:38.107Z</time></trkpt><trkpt lat="44.30261" lon="6.744327"><ele>1867.0</ele><time>2026-05-03T12:14:39.107Z</time></trkpt><trkpt lat="44.3027125" lon="6.7442733"><ele>1868.8</ele><time>2026-05-03T12:14:40.107Z</time></trkpt><trkpt lat="44.3028097" lon="6.7441998"><ele>1870.6</ele><time>2026-05-03T12:14:41.106Z</time></trkpt><trkpt lat="44.3029022" lon="6.7441287"><ele>1872.3999999999999</ele><time>2026-05-03T12:14:42.107Z</time></trkpt><trkpt lat="44.3029899" lon="6.7440669"><ele>1874.1999999999998</ele><time>2026-05-03T12:14:43.107Z</time></trkpt><trkpt lat="44.3030725" lon="6.7440127"><ele>1876.0</ele><time>2026-05-03T12:14:44.107Z</time></trkpt><trkpt lat="44.3031791" lon="6.7439817"><ele>1876.0</ele><time>2026-05-03T12:14:45.107Z</time></trkpt><trkpt lat="44.3032685" lon="6.7439833"><ele>1876.0</ele><time>2026-05-03T12:14:46.107Z</time></trkpt><trkpt lat="44.3033477" lon="6.7440361"><ele>1876.0</ele><time>2026-05-03T12:14:47.107Z</time></trkpt><trkpt lat="44.303438" lon="6.7441346"><ele>1876.0</ele><time>2026-05-03T12:14:48.107Z</time></trkpt><trkpt lat="44.303526" lon="6.7442007"><ele>1876.0</ele><time>2026-05-03T12:14:49.107Z</time></trkpt><trkpt lat="44.3036122" lon="6.7442271"><ele>1876.0</ele><time>2026-05-03T12:14:50.107Z</time></trkpt><trkpt lat="44.303706" lon="6.7442239"><ele>1876.0</ele><time>2026-05-03T12:14:51.107Z</time></trkpt><trkpt lat="44.3038161" lon="6.7442007"><ele>1876.0</ele><time>2026-05-03T12:14:52.107Z</time></trkpt><trkpt lat="44.3039396" lon="6.7441701"><ele>1876.0</ele><time>2026-05-03T12:14:53.107Z</time></trkpt><trkpt lat="44.3040587" lon="6.7441363"><ele>1875.5</ele><time>2026-05-03T12:14:54.106Z</time></trkpt><trkpt lat="44.3041716" lon="6.7441012"><ele>1875.0</ele><time>2026-05-03T12:14:55.106Z</time></trkpt><trkpt lat="44.3042892" lon="6.7440616"><ele>1874.5</ele><time>2026-05-03T12:14:56.107Z</time></trkpt><trkpt lat="44.3044006" lon="6.7440047"><ele>1874.0</ele><time>2026-05-03T12:14:57.107Z</time></trkpt><trkpt lat="44.3045015" lon="6.7439576"><ele>1874.0</ele><time>2026-05-03T12:14:58.107Z</time></trkpt><trkpt lat="44.3045959" lon="6.7439027"><ele>1874.0</ele><time>2026-05-03T12:14:59.107Z</time></trkpt><trkpt lat="44.3046885" lon="6.7438178"><ele>1874.0</ele><time>2026-05-03T12:15:00.107Z</time></trkpt><trkpt lat="44.3047867" lon="6.7437248"><ele>1874.0</ele><time>2026-05-03T12:15:01.107Z</time></trkpt><trkpt lat="44.3048868" lon="6.7436065"><ele>1872.75</ele><time>2026-05-03T12:15:02.107Z</time></trkpt><trkpt lat="44.3049854" lon="6.7434837"><ele>1871.5</ele><time>2026-05-03T12:15:03.107Z</time></trkpt><trkpt lat="44.3050774" lon="6.7433429"><ele>1870.25</ele><time>2026-05-03T12:15:04.107Z</time></trkpt><trkpt lat="44.305181" lon="6.743223"><ele>1869.0</ele><time>2026-05-03T12:15:05.107Z</time></trkpt><trkpt lat="44.305285" lon="6.7431009"><ele>1869.0</ele><time>2026-05-03T12:15:06.107Z</time></trkpt><trkpt lat="44.3054062" lon="6.742988"><ele>1869.0</ele><time>2026-05-03T12:15:07.107Z</time></trkpt><trkpt lat="44.3055377" lon="6.7428782"><ele>1869.0</ele><time>2026-05-03T12:15:08.107Z</time></trkpt><trkpt lat="44.3056615" lon="6.7427725"><ele>1869.0</ele><time>2026-05-03T12:15:09.106Z</time></trkpt><trkpt lat="44.3057899" lon="6.7426871"><ele>1868.25</ele><time>2026-05-03T12:15:10.107Z</time></trkpt><trkpt lat="44.305936" lon="6.7426338"><ele>1867.5</ele><time>2026-05-03T12:15:11.106Z</time></trkpt><trkpt lat="44.3060731" lon="6.7425659"><ele>1866.75</ele><time>2026-05-03T12:15:12.107Z</time></trkpt><trkpt lat="44.3062161" lon="6.7424902"><ele>1866.0</ele><time>2026-05-03T12:15:13.106Z</time></trkpt><trkpt lat="44.3063395" lon="6.7424175"><ele>1864.0</ele><time>2026-05-03T12:15:14.107Z</time></trkpt><trkpt lat="44.3064804" lon="6.7423545"><ele>1862.0</ele><time>2026-05-03T12:15:15.107Z</time></trkpt><trkpt lat="44.3066137" lon="6.7422879"><ele>1860.0</ele><time>2026-05-03T12:15:16.106Z</time></trkpt><trkpt lat="44.3067504" lon="6.7422332"><ele>1858.0</ele><time>2026-05-03T12:15:17.107Z</time></trkpt><trkpt lat="44.3068712" lon="6.7421739"><ele>1858.0</ele><time>2026-05-03T12:15:18.106Z</time></trkpt><trkpt lat="44.3069711" lon="6.7421319"><ele>1858.0000000000002</ele><time>2026-05-03T12:15:19.107Z</time></trkpt><trkpt lat="44.3070578" lon="6.7420942"><ele>1858.0000000000002</ele><time>2026-05-03T12:15:20.106Z</time></trkpt><trkpt lat="44.3071351" lon="6.7420238"><ele>1858.0</ele><time>2026-05-03T12:15:21.107Z</time></trkpt><trkpt lat="44.3071983" lon="6.7419566"><ele>1858.0</ele><time>2026-05-03T12:15:22.107Z</time></trkpt><trkpt lat="44.3072815" lon="6.7419066"><ele>1858.2</ele><time>2026-05-03T12:15:23.107Z</time></trkpt><trkpt lat="44.3073701" lon="6.7418404"><ele>1858.4</ele><time>2026-05-03T12:15:24.107Z</time></trkpt><trkpt lat="44.3074717" lon="6.7418043"><ele>1858.6000000000001</ele><time>2026-05-03T12:15:25.107Z</time></trkpt><trkpt lat="44.3075763" lon="6.7418015"><ele>1858.8000000000002</ele><time>2026-05-03T12:15:26.107Z</time></trkpt><trkpt lat="44.3076839" lon="6.7418183"><ele>1859.0</ele><time>2026-05-03T12:15:27.107Z</time></trkpt><trkpt lat="44.307783" lon="6.7418256"><ele>1858.9999999999998</ele><time>2026-05-03T12:15:28.107Z</time></trkpt><trkpt lat="44.3078712" lon="6.7418279"><ele>1859.0</ele><time>2026-05-03T12:15:29.107Z</time></trkpt><trkpt lat="44.3079616" lon="6.7417999"><ele>1859.0</ele><time>2026-05-03T12:15:30.107Z</time></trkpt><trkpt lat="44.3080351" lon="6.7417564"><ele>1859.0</ele><time>2026-05-03T12:15:31.107Z</time></trkpt><trkpt lat="44.3081068" lon="6.7416823"><ele>1858.9999999999998</ele><time>2026-05-03T12:15:32.106Z</time></trkpt><trkpt lat="44.3081661" lon="6.7415906"><ele>1859.0</ele><time>2026-05-03T12:15:33.107Z</time></trkpt><trkpt lat="44.3082057" lon="6.741491"><ele>1857.4</ele><time>2026-05-03T12:15:34.107Z</time></trkpt><trkpt lat="44.308236" lon="6.7413841"><ele>1855.8000000000002</ele><time>2026-05-03T12:15:35.107Z</time></trkpt><trkpt lat="44.3082691" lon="6.7412621"><ele>1854.1999999999998</ele><time>2026-05-03T12:15:36.106Z</time></trkpt><trkpt lat="44.3082918" lon="6.741137"><ele>1852.6</ele><time>2026-05-03T12:15:37.107Z</time></trkpt><trkpt lat="44.3083173" lon="6.7410108"><ele>1851.0</ele><time>2026-05-03T12:15:38.107Z</time></trkpt><trkpt lat="44.3083676" lon="6.7409015"><ele>1851.0</ele><time>2026-05-03T12:15:39.107Z</time></trkpt><trkpt lat="44.3084188" lon="6.7407953"><ele>1851.0</ele><time>2026-05-03T12:15:40.107Z</time></trkpt><trkpt lat="44.3084802" lon="6.7406889"><ele>1851.0</ele><time>2026-05-03T12:15:41.107Z</time></trkpt><trkpt lat="44.308559" lon="6.7406078"><ele>1851.0</ele><time>2026-05-03T12:15:42.107Z</time></trkpt><trkpt lat="44.3086261" lon="6.7405655"><ele>1851.0</ele><time>2026-05-03T12:15:43.107Z</time></trkpt><trkpt lat="44.3087159" lon="6.7405257"><ele>1851.0</ele><time>2026-05-03T12:15:44.107Z</time></trkpt><trkpt lat="44.3088038" lon="6.7404809"><ele>1851.0</ele><time>2026-05-03T12:15:45.107Z</time></trkpt><trkpt lat="44.3089116" lon="6.7404279"><ele>1851.0</ele><time>2026-05-03T12:15:46.107Z</time></trkpt><trkpt lat="44.3090114" lon="6.740369"><ele>1851.0</ele><time>2026-05-03T12:15:47.107Z</time></trkpt><trkpt lat="44.3090066" lon="6.7402734"><ele>1851.0</ele><time>2026-05-03T12:15:48.107Z</time></trkpt><trkpt lat="44.3090423" lon="6.7401945"><ele>1849.1666666666667</ele><time>2026-05-03T12:15:49.107Z</time></trkpt><trkpt lat="44.3090906" lon="6.7401075"><ele>1847.3333333333335</ele><time>2026-05-03T12:15:50.106Z</time></trkpt><trkpt lat="44.3091335" lon="6.7400303"><ele>1845.5</ele><time>2026-05-03T12:15:51.107Z</time></trkpt><trkpt lat="44.3092033" lon="6.7399856"><ele>1843.6666666666667</ele><time>2026-05-03T12:15:52.107Z</time></trkpt><trkpt lat="44.3092818" lon="6.7399414"><ele>1841.8333333333335</ele><time>2026-05-03T12:15:53.107Z</time></trkpt><trkpt lat="44.3093808" lon="6.7398875"><ele>1840.0</ele><time>2026-05-03T12:15:54.107Z</time></trkpt><trkpt lat="44.3094824" lon="6.7398053"><ele>1840.0</ele><time>2026-05-03T12:15:55.107Z</time></trkpt><trkpt lat="44.3095763" lon="6.7397085"><ele>1840.0</ele><time>2026-05-03T12:15:56.107Z</time></trkpt><trkpt lat="44.3096765" lon="6.7396061"><ele>1840.0</ele><time>2026-05-03T12:15:57.107Z</time></trkpt><trkpt lat="44.3097492" lon="6.7394769"><ele>1840.0</ele><time>2026-05-03T12:15:58.107Z</time></trkpt><trkpt lat="44.309799" lon="6.7393662"><ele>1837.5</ele><time>2026-05-03T12:15:59.106Z</time></trkpt><trkpt lat="44.3098716" lon="6.7392421"><ele>1835.0</ele><time>2026-05-03T12:16:00.107Z</time></trkpt><trkpt lat="44.3099133" lon="6.7391008"><ele>1832.5</ele><time>2026-05-03T12:16:01.107Z</time></trkpt><trkpt lat="44.3099626" lon="6.7389557"><ele>1830.0</ele><time>2026-05-03T12:16:02.107Z</time></trkpt><trkpt lat="44.3100304" lon="6.7388302"><ele>1830.0</ele><time>2026-05-03T12:16:03.107Z</time></trkpt><trkpt lat="44.3100536" lon="6.7386936"><ele>1830.0</ele><time>2026-05-03T12:16:04.107Z</time></trkpt><trkpt lat="44.3100849" lon="6.7385463"><ele>1830.0</ele><time>2026-05-03T12:16:05.107Z</time></trkpt><trkpt lat="44.3100922" lon="6.7383797"><ele>1830.0</ele><time>2026-05-03T12:16:06.106Z</time></trkpt><trkpt lat="44.3100924" lon="6.738216"><ele>1830.0</ele><time>2026-05-03T12:16:07.106Z</time></trkpt><trkpt lat="44.3100943" lon="6.7380573"><ele>1832.0</ele><time>2026-05-03T12:16:08.107Z</time></trkpt><trkpt lat="44.3101089" lon="6.7378986"><ele>1834.0</ele><time>2026-05-03T12:16:09.107Z</time></trkpt><trkpt lat="44.3101333" lon="6.7377456"><ele>1836.0</ele><time>2026-05-03T12:16:10.106Z</time></trkpt><trkpt lat="44.3101571" lon="6.7375967"><ele>1838.0</ele><time>2026-05-03T12:16:11.107Z</time></trkpt><trkpt lat="44.3102168" lon="6.7374346"><ele>1838.5</ele><time>2026-05-03T12:16:12.107Z</time></trkpt><trkpt lat="44.3102824" lon="6.7372843"><ele>1839.0</ele><time>2026-05-03T12:16:13.107Z</time></trkpt><trkpt lat="44.3103366" lon="6.7371364"><ele>1839.5</ele><time>2026-05-03T12:16:14.107Z</time></trkpt><trkpt lat="44.3103845" lon="6.7369814"><ele>1840.0</ele><time>2026-05-03T12:16:15.107Z</time></trkpt><trkpt lat="44.3104392" lon="6.7368485"><ele>1841.8</ele><time>2026-05-03T12:16:16.106Z</time></trkpt><trkpt lat="44.3105244" lon="6.7367281"><ele>1843.6</ele><time>2026-05-03T12:16:17.107Z</time></trkpt><trkpt lat="44.3106068" lon="6.7366383"><ele>1845.4</ele><time>2026-05-03T12:16:18.107Z</time></trkpt><trkpt lat="44.3106835" lon="6.7365504"><ele>1847.2</ele><time>2026-05-03T12:16:19.106Z</time></trkpt><trkpt lat="44.3107914" lon="6.7364704"><ele>1849.0</ele><time>2026-05-03T12:16:20.107Z</time></trkpt><trkpt lat="44.3108452" lon="6.7364069"><ele>1843.6666666666667</ele><time>2026-05-03T12:16:21.107Z</time></trkpt><trkpt lat="44.3109198" lon="6.7363773"><ele>1838.3333333333335</ele><time>2026-05-03T12:16:22.107Z</time></trkpt><trkpt lat="44.3109981" lon="6.7363636"><ele>1833.0</ele><time>2026-05-03T12:16:23.107Z</time></trkpt><trkpt lat="44.3110649" lon="6.7363931"><ele>1827.6666666666665</ele><time>2026-05-03T12:16:24.107Z</time></trkpt><trkpt lat="44.3110793" lon="6.7365291"><ele>1822.3333333333333</ele><time>2026-05-03T12:16:26.107Z</time></trkpt><trkpt lat="44.311034" lon="6.736616"><ele>1817.0</ele><time>2026-05-03T12:16:27.107Z</time></trkpt><trkpt lat="44.3109927" lon="6.7367167"><ele>1816.9999999999998</ele><time>2026-05-03T12:16:28.107Z</time></trkpt><trkpt lat="44.3109088" lon="6.7367945"><ele>1817.0</ele><time>2026-05-03T12:16:29.107Z</time></trkpt><trkpt lat="44.3108105" lon="6.7368651"><ele>1817.0</ele><time>2026-05-03T12:16:30.107Z</time></trkpt><trkpt lat="44.3107458" lon="6.7369306"><ele>1817.0</ele><time>2026-05-03T12:16:31.107Z</time></trkpt><trkpt lat="44.310698" lon="6.7370021"><ele>1816.9999999999998</ele><time>2026-05-03T12:16:32.107Z</time></trkpt><trkpt lat="44.3106569" lon="6.7370889"><ele>1817.0</ele><time>2026-05-03T12:16:33.107Z</time></trkpt><trkpt lat="44.3106639" lon="6.7372458"><ele>1814.8333333333333</ele><time>2026-05-03T12:16:35.107Z</time></trkpt><trkpt lat="44.3106989" lon="6.7373719"><ele>1812.6666666666665</ele><time>2026-05-03T12:16:37.107Z</time></trkpt><trkpt lat="44.3108102" lon="6.7373219"><ele>1810.5</ele><time>2026-05-03T12:16:39.107Z</time></trkpt><trkpt lat="44.3108622" lon="6.7372688"><ele>1808.3333333333335</ele><time>2026-05-03T12:16:40.107Z</time></trkpt><trkpt lat="44.3109217" lon="6.737192"><ele>1806.1666666666667</ele><time>2026-05-03T12:16:41.106Z</time></trkpt><trkpt lat="44.3109787" lon="6.7371193"><ele>1804.0</ele><time>2026-05-03T12:16:42.107Z</time></trkpt><trkpt lat="44.3110454" lon="6.7370215"><ele>1804.0000000000002</ele><time>2026-05-03T12:16:43.107Z</time></trkpt><trkpt lat="44.3111011" lon="6.7369462"><ele>1804.0</ele><time>2026-05-03T12:16:44.107Z</time></trkpt><trkpt lat="44.3111597" lon="6.7368815"><ele>1804.0</ele><time>2026-05-03T12:16:45.107Z</time></trkpt><trkpt lat="44.3112099" lon="6.7368235"><ele>1804.0</ele><time>2026-05-03T12:16:46.107Z</time></trkpt><trkpt lat="44.3112757" lon="6.7368764"><ele>1804.0000000000002</ele><time>2026-05-03T12:16:47.107Z</time></trkpt><trkpt lat="44.3113374" lon="6.7370005"><ele>1804.0</ele><time>2026-05-03T12:16:49.106Z</time></trkpt><trkpt lat="44.3113213" lon="6.737207"><ele>1804.0</ele><time>2026-05-03T12:16:51.107Z</time></trkpt><trkpt lat="44.3113084" lon="6.7373469"><ele>1804.0</ele><time>2026-05-03T12:16:52.107Z</time></trkpt><trkpt lat="44.3112768" lon="6.7375295"><ele>1804.0</ele><time>2026-05-03T12:16:53.107Z</time></trkpt><trkpt lat="44.3112497" lon="6.7376934"><ele>1804.0</ele><time>2026-05-03T12:16:54.107Z</time></trkpt><trkpt lat="44.3111985" lon="6.737862"><ele>1802.0</ele><time>2026-05-03T12:16:55.107Z</time></trkpt><trkpt lat="44.3111285" lon="6.738037"><ele>1800.0</ele><time>2026-05-03T12:16:56.106Z</time></trkpt><trkpt lat="44.3110509" lon="6.7381997"><ele>1798.0</ele><time>2026-05-03T12:16:57.106Z</time></trkpt><trkpt lat="44.3109556" lon="6.7383543"><ele>1796.0</ele><time>2026-05-03T12:16:58.107Z</time></trkpt><trkpt lat="44.3108758" lon="6.7385208"><ele>1794.6</ele><time>2026-05-03T12:16:59.107Z</time></trkpt><trkpt lat="44.3108085" lon="6.7386259"><ele>1793.1999999999998</ele><time>2026-05-03T12:17:00.106Z</time></trkpt><trkpt lat="44.3107455" lon="6.7387436"><ele>1791.8000000000002</ele><time>2026-05-03T12:17:01.107Z</time></trkpt><trkpt lat="44.3107064" lon="6.7388725"><ele>1790.4</ele><time>2026-05-03T12:17:02.107Z</time></trkpt><trkpt lat="44.3106996" lon="6.7389971"><ele>1789.0</ele><time>2026-05-03T12:17:03.107Z</time></trkpt><trkpt lat="44.3107173" lon="6.739108"><ele>1789.0</ele><time>2026-05-03T12:17:04.107Z</time></trkpt><trkpt lat="44.3107639" lon="6.7392128"><ele>1789.0</ele><time>2026-05-03T12:17:05.106Z</time></trkpt><trkpt lat="44.3108161" lon="6.7393096"><ele>1789.0</ele><time>2026-05-03T12:17:06.107Z</time></trkpt><trkpt lat="44.310919" lon="6.7393895"><ele>1789.0</ele><time>2026-05-03T12:17:07.107Z</time></trkpt><trkpt lat="44.3109995" lon="6.7394801"><ele>1789.0</ele><time>2026-05-03T12:17:08.107Z</time></trkpt><trkpt lat="44.3110858" lon="6.7395796"><ele>1788.25</ele><time>2026-05-03T12:17:09.107Z</time></trkpt><trkpt lat="44.3111859" lon="6.7396766"><ele>1787.5</ele><time>2026-05-03T12:17:10.107Z</time></trkpt><trkpt lat="44.3112939" lon="6.7397217"><ele>1786.75</ele><time>2026-05-03T12:17:11.107Z</time></trkpt><trkpt lat="44.3113973" lon="6.7397534"><ele>1786.0</ele><time>2026-05-03T12:17:12.107Z</time></trkpt><trkpt lat="44.3115081" lon="6.7397659"><ele>1786.0</ele><time>2026-05-03T12:17:13.106Z</time></trkpt><trkpt lat="44.311619" lon="6.7397651"><ele>1786.0</ele><time>2026-05-03T12:17:14.107Z</time></trkpt><trkpt lat="44.3117046" lon="6.7396446"><ele>1786.0</ele><time>2026-05-03T12:17:15.107Z</time></trkpt><trkpt lat="44.3118025" lon="6.7395595"><ele>1786.0</ele><time>2026-05-03T12:17:16.107Z</time></trkpt><trkpt lat="44.3118787" lon="6.7394143"><ele>1784.25</ele><time>2026-05-03T12:17:17.107Z</time></trkpt><trkpt lat="44.3119521" lon="6.7392797"><ele>1782.5</ele><time>2026-05-03T12:17:18.107Z</time></trkpt><trkpt lat="44.3120011" lon="6.7391116"><ele>1780.75</ele><time>2026-05-03T12:17:19.107Z</time></trkpt><trkpt lat="44.312047" lon="6.7389593"><ele>1779.0</ele><time>2026-05-03T12:17:20.106Z</time></trkpt><trkpt lat="44.3120741" lon="6.7387923"><ele>1779.0</ele><time>2026-05-03T12:17:21.107Z</time></trkpt><trkpt lat="44.3121059" lon="6.7386225"><ele>1779.0</ele><time>2026-05-03T12:17:22.107Z</time></trkpt><trkpt lat="44.3121445" lon="6.7384382"><ele>1779.0</ele><time>2026-05-03T12:17:23.107Z</time></trkpt><trkpt lat="44.3122001" lon="6.7382533"><ele>1779.0</ele><time>2026-05-03T12:17:24.107Z</time></trkpt><trkpt lat="44.3122732" lon="6.7380518"><ele>1780.0</ele><time>2026-05-03T12:17:25.107Z</time></trkpt><trkpt lat="44.3123577" lon="6.7378651"><ele>1781.0</ele><time>2026-05-03T12:17:26.107Z</time></trkpt><trkpt lat="44.3124493" lon="6.737664"><ele>1782.0</ele><time>2026-05-03T12:17:27.107Z</time></trkpt><trkpt lat="44.3125429" lon="6.7374731"><ele>1782.0</ele><time>2026-05-03T12:17:28.106Z</time></trkpt><trkpt lat="44.3126349" lon="6.7372847"><ele>1782.0</ele><time>2026-05-03T12:17:29.107Z</time></trkpt><trkpt lat="44.3127238" lon="6.7370992"><ele>1782.0</ele><time>2026-05-03T12:17:30.107Z</time></trkpt><trkpt lat="44.3128092" lon="6.7369072"><ele>1779.0</ele><time>2026-05-03T12:17:31.107Z</time></trkpt><trkpt lat="44.3129015" lon="6.7367183"><ele>1776.0</ele><time>2026-05-03T12:17:32.106Z</time></trkpt><trkpt lat="44.3129916" lon="6.7365429"><ele>1773.0</ele><time>2026-05-03T12:17:33.107Z</time></trkpt><trkpt lat="44.3130636" lon="6.7363344"><ele>1776.3333333333335</ele><time>2026-05-03T12:17:34.107Z</time></trkpt><trkpt lat="44.3131471" lon="6.7361313"><ele>1779.6666666666667</ele><time>2026-05-03T12:17:35.107Z</time></trkpt><trkpt lat="44.3132368" lon="6.7359193"><ele>1783.0</ele><time>2026-05-03T12:17:36.107Z</time></trkpt><trkpt lat="44.3133267" lon="6.7357201"><ele>1783.0</ele><time>2026-05-03T12:17:37.107Z</time></trkpt><trkpt lat="44.3134226" lon="6.7355279"><ele>1783.0</ele><time>2026-05-03T12:17:38.107Z</time></trkpt><trkpt lat="44.3135159" lon="6.7353271"><ele>1783.0</ele><time>2026-05-03T12:17:39.106Z</time></trkpt><trkpt lat="44.313619" lon="6.735141"><ele>1786.6666666666667</ele><time>2026-05-03T12:17:40.107Z</time></trkpt><trkpt lat="44.3137309" lon="6.7349636"><ele>1790.3333333333335</ele><time>2026-05-03T12:17:41.107Z</time></trkpt><trkpt lat="44.3138336" lon="6.7347956"><ele>1794.0</ele><time>2026-05-03T12:17:42.107Z</time></trkpt><trkpt lat="44.3139287" lon="6.7346271"><ele>1794.0</ele><time>2026-05-03T12:17:43.107Z</time></trkpt><trkpt lat="44.3140183" lon="6.7344563"><ele>1794.0</ele><time>2026-05-03T12:17:44.107Z</time></trkpt><trkpt lat="44.3140986" lon="6.7342964"><ele>1794.0</ele><time>2026-05-03T12:17:45.107Z</time></trkpt><trkpt lat="44.31418" lon="6.7341413"><ele>1794.0</ele><time>2026-05-03T12:17:46.107Z</time></trkpt><trkpt lat="44.3142713" lon="6.7339726"><ele>1790.0</ele><time>2026-05-03T12:17:47.106Z</time></trkpt><trkpt lat="44.3143589" lon="6.7338262"><ele>1786.0</ele><time>2026-05-03T12:17:48.107Z</time></trkpt><trkpt lat="44.3144722" lon="6.7336728"><ele>1782.0</ele><time>2026-05-03T12:17:49.106Z</time></trkpt><trkpt lat="44.3145818" lon="6.7335133"><ele>1782.6666666666665</ele><time>2026-05-03T12:17:50.107Z</time></trkpt><trkpt lat="44.3146945" lon="6.7333592"><ele>1783.3333333333333</ele><time>2026-05-03T12:17:51.107Z</time></trkpt><trkpt lat="44.3148077" lon="6.7331981"><ele>1784.0</ele><time>2026-05-03T12:17:52.106Z</time></trkpt><trkpt lat="44.3149204" lon="6.7330334"><ele>1784.0</ele><time>2026-05-03T12:17:53.107Z</time></trkpt><trkpt lat="44.3150404" lon="6.7328587"><ele>1784.0</ele><time>2026-05-03T12:17:54.106Z</time></trkpt><trkpt lat="44.3151286" lon="6.7326524"><ele>1784.0</ele><time>2026-05-03T12:17:55.107Z</time></trkpt><trkpt lat="44.3152221" lon="6.7324569"><ele>1779.6666666666665</ele><time>2026-05-03T12:17:56.107Z</time></trkpt><trkpt lat="44.3153117" lon="6.7322501"><ele>1775.3333333333335</ele><time>2026-05-03T12:17:57.107Z</time></trkpt><trkpt lat="44.3153971" lon="6.7320486"><ele>1771.0</ele><time>2026-05-03T12:17:58.106Z</time></trkpt><trkpt lat="44.3154765" lon="6.7318532"><ele>1767.3333333333335</ele><time>2026-05-03T12:17:59.107Z</time></trkpt><trkpt lat="44.3155588" lon="6.7316479"><ele>1763.6666666666665</ele><time>2026-05-03T12:18:00.107Z</time></trkpt><trkpt lat="44.3156454" lon="6.7314532"><ele>1760.0</ele><time>2026-05-03T12:18:01.107Z</time></trkpt><trkpt lat="44.3157431" lon="6.7312656"><ele>1763.3333333333333</ele><time>2026-05-03T12:18:02.107Z</time></trkpt><trkpt lat="44.3158366" lon="6.7310789"><ele>1766.6666666666665</ele><time>2026-05-03T12:18:03.107Z</time></trkpt><trkpt lat="44.3159367" lon="6.730901"><ele>1770.0</ele><time>2026-05-03T12:18:04.107Z</time></trkpt><trkpt lat="44.3160375" lon="6.7307344"><ele>1770.0</ele><time>2026-05-03T12:18:05.107Z</time></trkpt><trkpt lat="44.3161466" lon="6.7305688"><ele>1770.0</ele><time>2026-05-03T12:18:06.107Z</time></trkpt><trkpt lat="44.3162638" lon="6.7304082"><ele>1770.0</ele><time>2026-05-03T12:18:07.107Z</time></trkpt><trkpt lat="44.3163885" lon="6.730245"><ele>1771.6666666666665</ele><time>2026-05-03T12:18:08.107Z</time></trkpt><trkpt lat="44.3165097" lon="6.7300629"><ele>1773.3333333333333</ele><time>2026-05-03T12:18:09.106Z</time></trkpt><trkpt lat="44.3166308" lon="6.7299064"><ele>1775.0</ele><time>2026-05-03T12:18:10.107Z</time></trkpt><trkpt lat="44.316755" lon="6.729744"><ele>1775.0</ele><time>2026-05-03T12:18:11.107Z</time></trkpt><trkpt lat="44.3168809" lon="6.7295726"><ele>1775.0</ele><time>2026-05-03T12:18:12.107Z</time></trkpt><trkpt lat="44.3169939" lon="6.7294157"><ele>1775.0</ele><time>2026-05-03T12:18:13.107Z</time></trkpt><trkpt lat="44.3171047" lon="6.7292491"><ele>1775.75</ele><time>2026-05-03T12:18:14.107Z</time></trkpt><trkpt lat="44.317203" lon="6.7290938"><ele>1776.5</ele><time>2026-05-03T12:18:15.107Z</time></trkpt><trkpt lat="44.3172726" lon="6.7289157"><ele>1777.25</ele><time>2026-05-03T12:18:16.106Z</time></trkpt><trkpt lat="44.3173511" lon="6.7287389"><ele>1778.0</ele><time>2026-05-03T12:18:17.107Z</time></trkpt><trkpt lat="44.3174415" lon="6.7285716"><ele>1773.0</ele><time>2026-05-03T12:18:18.107Z</time></trkpt><trkpt lat="44.3175392" lon="6.7284099"><ele>1768.0</ele><time>2026-05-03T12:18:19.107Z</time></trkpt><trkpt lat="44.3176345" lon="6.7282428"><ele>1763.0</ele><time>2026-05-03T12:18:20.107Z</time></trkpt><trkpt lat="44.3177267" lon="6.7280624"><ele>1763.0</ele><time>2026-05-03T12:18:21.107Z</time></trkpt><trkpt lat="44.3178" lon="6.7278762"><ele>1763.0</ele><time>2026-05-03T12:18:22.106Z</time></trkpt><trkpt lat="44.3178393" lon="6.7276583"><ele>1763.0</ele><time>2026-05-03T12:18:23.107Z</time></trkpt><trkpt lat="44.3178894" lon="6.7274493"><ele>1760.0</ele><time>2026-05-03T12:18:24.107Z</time></trkpt><trkpt lat="44.317899" lon="6.7272234"><ele>1757.0</ele><time>2026-05-03T12:18:25.107Z</time></trkpt><trkpt lat="44.3179361" lon="6.7270008"><ele>1754.0</ele><time>2026-05-03T12:18:26.107Z</time></trkpt><trkpt lat="44.3179767" lon="6.7267891"><ele>1750.6666666666665</ele><time>2026-05-03T12:18:27.107Z</time></trkpt><trkpt lat="44.3180184" lon="6.7265756"><ele>1747.3333333333335</ele><time>2026-05-03T12:18:28.107Z</time></trkpt><trkpt lat="44.3180687" lon="6.7263658"><ele>1744.0</ele><time>2026-05-03T12:18:29.107Z</time></trkpt><trkpt lat="44.3181187" lon="6.7261617"><ele>1749.6666666666667</ele><time>2026-05-03T12:18:30.107Z</time></trkpt><trkpt lat="44.3181826" lon="6.7259508"><ele>1755.3333333333335</ele><time>2026-05-03T12:18:31.107Z</time></trkpt><trkpt lat="44.3182458" lon="6.7257491"><ele>1761.0</ele><time>2026-05-03T12:18:32.107Z</time></trkpt><trkpt lat="44.318314" lon="6.7255508"><ele>1761.0</ele><time>2026-05-03T12:18:33.107Z</time></trkpt><trkpt lat="44.318388" lon="6.7253629"><ele>1761.0</ele><time>2026-05-03T12:18:34.107Z</time></trkpt><trkpt lat="44.318461" lon="6.7251812"><ele>1761.0</ele><time>2026-05-03T12:18:35.107Z</time></trkpt><trkpt lat="44.3185285" lon="6.725001"><ele>1761.0</ele><time>2026-05-03T12:18:36.107Z</time></trkpt><trkpt lat="44.3186022" lon="6.7247959"><ele>1757.25</ele><time>2026-05-03T12:18:37.107Z</time></trkpt><trkpt lat="44.3186355" lon="6.7245936"><ele>1753.5</ele><time>2026-05-03T12:18:38.107Z</time></trkpt><trkpt lat="44.3186739" lon="6.7244053"><ele>1749.75</ele><time>2026-05-03T12:18:39.107Z</time></trkpt><trkpt lat="44.3187003" lon="6.7242334"><ele>1746.0</ele><time>2026-05-03T12:18:40.106Z</time></trkpt><trkpt lat="44.3187277" lon="6.7240561"><ele>1748.5</ele><time>2026-05-03T12:18:41.107Z</time></trkpt><trkpt lat="44.3187452" lon="6.7238908"><ele>1751.0</ele><time>2026-05-03T12:18:42.107Z</time></trkpt><trkpt lat="44.3187752" lon="6.7237309"><ele>1753.5</ele><time>2026-05-03T12:18:43.106Z</time></trkpt><trkpt lat="44.3188325" lon="6.7235613"><ele>1756.0</ele><time>2026-05-03T12:18:44.107Z</time></trkpt><trkpt lat="44.318902" lon="6.7234248"><ele>1756.0</ele><time>2026-05-03T12:18:45.106Z</time></trkpt><trkpt lat="44.3189904" lon="6.7233053"><ele>1756.0</ele><time>2026-05-03T12:18:46.107Z</time></trkpt><trkpt lat="44.3190923" lon="6.7232121"><ele>1756.0</ele><time>2026-05-03T12:18:47.107Z</time></trkpt><trkpt lat="44.3191952" lon="6.7231331"><ele>1756.0</ele><time>2026-05-03T12:18:48.107Z</time></trkpt><trkpt lat="44.3192903" lon="6.723065"><ele>1756.0</ele><time>2026-05-03T12:18:49.107Z</time></trkpt><trkpt lat="44.3193735" lon="6.7229943"><ele>1756.0</ele><time>2026-05-03T12:18:50.107Z</time></trkpt><trkpt lat="44.3194232" lon="6.722887"><ele>1756.0</ele><time>2026-05-03T12:18:51.107Z</time></trkpt><trkpt lat="44.3194672" lon="6.7227755"><ele>1756.0</ele><time>2026-05-03T12:18:52.107Z</time></trkpt><trkpt lat="44.3194845" lon="6.7226159"><ele>1756.0</ele><time>2026-05-03T12:18:53.107Z</time></trkpt><trkpt lat="44.3194987" lon="6.7224508"><ele>1753.25</ele><time>2026-05-03T12:18:54.107Z</time></trkpt><trkpt lat="44.3194934" lon="6.7222811"><ele>1750.5</ele><time>2026-05-03T12:18:55.106Z</time></trkpt><trkpt lat="44.3195121" lon="6.7220841"><ele>1747.75</ele><time>2026-05-03T12:18:56.107Z</time></trkpt><trkpt lat="44.3195344" lon="6.7218983"><ele>1745.0</ele><time>2026-05-03T12:18:57.107Z</time></trkpt><trkpt lat="44.3195566" lon="6.7217165"><ele>1744.75</ele><time>2026-05-03T12:18:58.107Z</time></trkpt><trkpt lat="44.3195807" lon="6.7215246"><ele>1744.5</ele><time>2026-05-03T12:18:59.107Z</time></trkpt><trkpt lat="44.3195946" lon="6.7213305"><ele>1744.25</ele><time>2026-05-03T12:19:00.107Z</time></trkpt><trkpt lat="44.3196042" lon="6.7211416"><ele>1744.0</ele><time>2026-05-03T12:19:01.107Z</time></trkpt><trkpt lat="44.3196147" lon="6.7209486"><ele>1743.5</ele><time>2026-05-03T12:19:02.107Z</time></trkpt><trkpt lat="44.3195821" lon="6.7207584"><ele>1743.0</ele><time>2026-05-03T12:19:03.107Z</time></trkpt><trkpt lat="44.319547" lon="6.7205754"><ele>1742.5</ele><time>2026-05-03T12:19:04.107Z</time></trkpt><trkpt lat="44.3195202" lon="6.7203789"><ele>1742.0</ele><time>2026-05-03T12:19:05.106Z</time></trkpt><trkpt lat="44.3194462" lon="6.7201973"><ele>1743.75</ele><time>2026-05-03T12:19:06.107Z</time></trkpt><trkpt lat="44.3194079" lon="6.7200028"><ele>1745.5</ele><time>2026-05-03T12:19:07.107Z</time></trkpt><trkpt lat="44.3193742" lon="6.719806"><ele>1747.25</ele><time>2026-05-03T12:19:08.106Z</time></trkpt><trkpt lat="44.3193514" lon="6.7196111"><ele>1749.0</ele><time>2026-05-03T12:19:09.107Z</time></trkpt><trkpt lat="44.3193275" lon="6.7194268"><ele>1747.75</ele><time>2026-05-03T12:19:10.107Z</time></trkpt><trkpt lat="44.3193426" lon="6.7192689"><ele>1746.5</ele><time>2026-05-03T12:19:11.106Z</time></trkpt><trkpt lat="44.3193627" lon="6.7191159"><ele>1745.25</ele><time>2026-05-03T12:19:12.107Z</time></trkpt><trkpt lat="44.3193984" lon="6.7189631"><ele>1744.0</ele><time>2026-05-03T12:19:13.107Z</time></trkpt><trkpt lat="44.319425" lon="6.7188012"><ele>1744.0</ele><time>2026-05-03T12:19:14.106Z</time></trkpt><trkpt lat="44.3194266" lon="6.7186234"><ele>1744.0</ele><time>2026-05-03T12:19:15.106Z</time></trkpt><trkpt lat="44.3194026" lon="6.7184424"><ele>1744.0</ele><time>2026-05-03T12:19:16.107Z</time></trkpt><trkpt lat="44.3193639" lon="6.7182618"><ele>1744.0</ele><time>2026-05-03T12:19:17.107Z</time></trkpt><trkpt lat="44.3193228" lon="6.7180884"><ele>1743.5</ele><time>2026-05-03T12:19:18.107Z</time></trkpt><trkpt lat="44.3192835" lon="6.7179169"><ele>1743.0</ele><time>2026-05-03T12:19:19.107Z</time></trkpt><trkpt lat="44.3192518" lon="6.7177258"><ele>1742.5</ele><time>2026-05-03T12:19:20.107Z</time></trkpt><trkpt lat="44.3192527" lon="6.7175527"><ele>1742.0</ele><time>2026-05-03T12:19:21.107Z</time></trkpt><trkpt lat="44.319248" lon="6.7173865"><ele>1742.0</ele><time>2026-05-03T12:19:22.106Z</time></trkpt><trkpt lat="44.3192529" lon="6.7172315"><ele>1742.0</ele><time>2026-05-03T12:19:23.107Z</time></trkpt><trkpt lat="44.3192658" lon="6.7170767"><ele>1742.0</ele><time>2026-05-03T12:19:24.107Z</time></trkpt><trkpt lat="44.319312" lon="6.71694"><ele>1742.0</ele><time>2026-05-03T12:19:25.107Z</time></trkpt><trkpt lat="44.3193825" lon="6.7167766"><ele>1739.75</ele><time>2026-05-03T12:19:26.107Z</time></trkpt><trkpt lat="44.3194632" lon="6.7166381"><ele>1737.5</ele><time>2026-05-03T12:19:27.107Z</time></trkpt><trkpt lat="44.3195492" lon="6.7164838"><ele>1735.25</ele><time>2026-05-03T12:19:28.107Z</time></trkpt><trkpt lat="44.319622" lon="6.7163325"><ele>1733.0</ele><time>2026-05-03T12:19:29.107Z</time></trkpt><trkpt lat="44.3196927" lon="6.7161659"><ele>1737.0</ele><time>2026-05-03T12:19:30.107Z</time></trkpt><trkpt lat="44.3197341" lon="6.7160184"><ele>1741.0000000000002</ele><time>2026-05-03T12:19:31.107Z</time></trkpt><trkpt lat="44.3197657" lon="6.7158741"><ele>1745.0000000000002</ele><time>2026-05-03T12:19:32.107Z</time></trkpt><trkpt lat="44.3197956" lon="6.7157584"><ele>1749.0</ele><time>2026-05-03T12:19:33.107Z</time></trkpt><trkpt lat="44.3198324" lon="6.7156263"><ele>1753.0</ele><time>2026-05-03T12:19:34.107Z</time></trkpt><trkpt lat="44.3198759" lon="6.7155375"><ele>1753.0000000000002</ele><time>2026-05-03T12:19:35.107Z</time></trkpt><trkpt lat="44.3199677" lon="6.7155292"><ele>1753.0</ele><time>2026-05-03T12:19:36.106Z</time></trkpt><trkpt lat="44.3200618" lon="6.7155512"><ele>1753.0</ele><time>2026-05-03T12:19:37.107Z</time></trkpt><trkpt lat="44.3201575" lon="6.7155342"><ele>1753.0</ele><time>2026-05-03T12:19:38.106Z</time></trkpt><trkpt lat="44.3202158" lon="6.7154693"><ele>1753.0000000000002</ele><time>2026-05-03T12:19:39.106Z</time></trkpt><trkpt lat="44.3202664" lon="6.715397"><ele>1753.0</ele><time>2026-05-03T12:19:40.107Z</time></trkpt><trkpt lat="44.3202877" lon="6.7152622"><ele>1750.3333333333335</ele><time>2026-05-03T12:19:41.107Z</time></trkpt><trkpt lat="44.3202946" lon="6.715166"><ele>1747.6666666666667</ele><time>2026-05-03T12:19:42.106Z</time></trkpt><trkpt lat="44.3202553" lon="6.7150726"><ele>1745.0</ele><time>2026-05-03T12:19:43.107Z</time></trkpt><trkpt lat="44.3201945" lon="6.7149819"><ele>1742.3333333333335</ele><time>2026-05-03T12:19:44.107Z</time></trkpt><trkpt lat="44.3201371" lon="6.7148767"><ele>1739.6666666666667</ele><time>2026-05-03T12:19:45.107Z</time></trkpt><trkpt lat="44.3200837" lon="6.7147747"><ele>1737.0</ele><time>2026-05-03T12:19:46.107Z</time></trkpt><trkpt lat="44.3200867" lon="6.7146384"><ele>1737.0</ele><time>2026-05-03T12:19:47.107Z</time></trkpt><trkpt lat="44.3201198" lon="6.7144986"><ele>1737.0</ele><time>2026-05-03T12:19:48.107Z</time></trkpt><trkpt lat="44.3201852" lon="6.7143604"><ele>1737.0</ele><time>2026-05-03T12:19:49.107Z</time></trkpt><trkpt lat="44.3202595" lon="6.7142179"><ele>1737.0</ele><time>2026-05-03T12:19:50.107Z</time></trkpt><trkpt lat="44.3203159" lon="6.7140608"><ele>1736.0</ele><time>2026-05-03T12:19:51.107Z</time></trkpt><trkpt lat="44.3203761" lon="6.7138739"><ele>1735.0</ele><time>2026-05-03T12:19:52.107Z</time></trkpt><trkpt lat="44.3204183" lon="6.7136904"><ele>1734.0</ele><time>2026-05-03T12:19:53.106Z</time></trkpt><trkpt lat="44.3204509" lon="6.7135"><ele>1733.0</ele><time>2026-05-03T12:19:54.107Z</time></trkpt><trkpt lat="44.3204791" lon="6.7133091"><ele>1733.5</ele><time>2026-05-03T12:19:55.106Z</time></trkpt><trkpt lat="44.3205035" lon="6.7131137"><ele>1734.0</ele><time>2026-05-03T12:19:56.107Z</time></trkpt><trkpt lat="44.3205447" lon="6.712913"><ele>1734.5</ele><time>2026-05-03T12:19:57.107Z</time></trkpt><trkpt lat="44.3205912" lon="6.7127248"><ele>1735.0</ele><time>2026-05-03T12:19:58.107Z</time></trkpt><trkpt lat="44.3206502" lon="6.7125364"><ele>1735.0</ele><time>2026-05-03T12:19:59.107Z</time></trkpt><trkpt lat="44.3207514" lon="6.7124002"><ele>1735.0</ele><time>2026-05-03T12:20:00.106Z</time></trkpt><trkpt lat="44.3208442" lon="6.7122543"><ele>1735.0</ele><time>2026-05-03T12:20:01.107Z</time></trkpt><trkpt lat="44.3209366" lon="6.7120963"><ele>1735.0</ele><time>2026-05-03T12:20:02.106Z</time></trkpt><trkpt lat="44.3210085" lon="6.7119673"><ele>1733.2</ele><time>2026-05-03T12:20:03.106Z</time></trkpt><trkpt lat="44.3210604" lon="6.7118473"><ele>1731.4</ele><time>2026-05-03T12:20:04.107Z</time></trkpt><trkpt lat="44.3210599" lon="6.7116806"><ele>1729.6</ele><time>2026-05-03T12:20:05.107Z</time></trkpt><trkpt lat="44.3210591" lon="6.7115235"><ele>1727.8</ele><time>2026-05-03T12:20:06.107Z</time></trkpt><trkpt lat="44.3210571" lon="6.7113763"><ele>1726.0</ele><time>2026-05-03T12:20:07.106Z</time></trkpt><trkpt lat="44.3210603" lon="6.7112242"><ele>1726.0</ele><time>2026-05-03T12:20:08.107Z</time></trkpt><trkpt lat="44.3211322" lon="6.7110759"><ele>1726.0</ele><time>2026-05-03T12:20:09.107Z</time></trkpt><trkpt lat="44.3212058" lon="6.7109315"><ele>1726.0</ele><time>2026-05-03T12:20:10.107Z</time></trkpt><trkpt lat="44.3212711" lon="6.710771"><ele>1726.0</ele><time>2026-05-03T12:20:11.107Z</time></trkpt><trkpt lat="44.3213214" lon="6.7106324"><ele>1723.75</ele><time>2026-05-03T12:20:12.106Z</time></trkpt><trkpt lat="44.3213644" lon="6.7104965"><ele>1721.5</ele><time>2026-05-03T12:20:13.107Z</time></trkpt><trkpt lat="44.3213864" lon="6.7103307"><ele>1719.25</ele><time>2026-05-03T12:20:14.107Z</time></trkpt><trkpt lat="44.3214022" lon="6.7101609"><ele>1717.0</ele><time>2026-05-03T12:20:15.107Z</time></trkpt><trkpt lat="44.3214091" lon="6.709991"><ele>1721.6</ele><time>2026-05-03T12:20:16.107Z</time></trkpt><trkpt lat="44.3214234" lon="6.7098377"><ele>1726.1999999999998</ele><time>2026-05-03T12:20:17.106Z</time></trkpt><trkpt lat="44.3214903" lon="6.7097013"><ele>1730.8</ele><time>2026-05-03T12:20:18.107Z</time></trkpt><trkpt lat="44.3215735" lon="6.7096093"><ele>1735.4</ele><time>2026-05-03T12:20:19.107Z</time></trkpt><trkpt lat="44.3216681" lon="6.7095419"><ele>1740.0</ele><time>2026-05-03T12:20:20.107Z</time></trkpt><trkpt lat="44.3217591" lon="6.7094798"><ele>1740.0</ele><time>2026-05-03T12:20:21.107Z</time></trkpt><trkpt lat="44.3218437" lon="6.7094225"><ele>1740.0</ele><time>2026-05-03T12:20:22.107Z</time></trkpt><trkpt lat="44.3218954" lon="6.7093432"><ele>1740.0</ele><time>2026-05-03T12:20:23.106Z</time></trkpt><trkpt lat="44.3219241" lon="6.709255"><ele>1740.0</ele><time>2026-05-03T12:20:24.107Z</time></trkpt><trkpt lat="44.3219287" lon="6.709161"><ele>1740.0</ele><time>2026-05-03T12:20:25.107Z</time></trkpt><trkpt lat="44.3219155" lon="6.7090687"><ele>1740.0</ele><time>2026-05-03T12:20:26.107Z</time></trkpt><trkpt lat="44.3218444" lon="6.7089192"><ele>1738.8</ele><time>2026-05-03T12:20:28.107Z</time></trkpt><trkpt lat="44.3217426" lon="6.7088301"><ele>1737.6</ele><time>2026-05-03T12:20:29.107Z</time></trkpt><trkpt lat="44.3216677" lon="6.7087318"><ele>1736.4</ele><time>2026-05-03T12:20:30.107Z</time></trkpt><trkpt lat="44.3216056" lon="6.708623"><ele>1735.2</ele><time>2026-05-03T12:20:31.107Z</time></trkpt><trkpt lat="44.321595" lon="6.7084704"><ele>1734.0</ele><time>2026-05-03T12:20:32.107Z</time></trkpt><trkpt lat="44.3215905" lon="6.7083199"><ele>1734.0</ele><time>2026-05-03T12:20:33.107Z</time></trkpt><trkpt lat="44.321581" lon="6.7081646"><ele>1734.0</ele><time>2026-05-03T12:20:34.106Z</time></trkpt><trkpt lat="44.3215612" lon="6.7080102"><ele>1734.0</ele><time>2026-05-03T12:20:35.107Z</time></trkpt><trkpt lat="44.3215004" lon="6.7078619"><ele>1734.0</ele><time>2026-05-03T12:20:36.107Z</time></trkpt><trkpt lat="44.3214373" lon="6.707724"><ele>1722.75</ele><time>2026-05-03T12:20:37.107Z</time></trkpt><trkpt lat="44.3213798" lon="6.707588"><ele>1711.5</ele><time>2026-05-03T12:20:38.107Z</time></trkpt><trkpt lat="44.3213535" lon="6.7074424"><ele>1700.25</ele><time>2026-05-03T12:20:39.107Z</time></trkpt><trkpt lat="44.3213325" lon="6.7072795"><ele>1689.0</ele><time>2026-05-03T12:20:40.107Z</time></trkpt><trkpt lat="44.3213224" lon="6.7070943"><ele>1688.3333333333335</ele><time>2026-05-03T12:20:41.106Z</time></trkpt><trkpt lat="44.3213164" lon="6.7069007"><ele>1687.6666666666667</ele><time>2026-05-03T12:20:42.107Z</time></trkpt><trkpt lat="44.3213185" lon="6.7066843"><ele>1687.0</ele><time>2026-05-03T12:20:43.107Z</time></trkpt><trkpt lat="44.3213264" lon="6.7064654"><ele>1687.0</ele><time>2026-05-03T12:20:44.107Z</time></trkpt><trkpt lat="44.3213379" lon="6.7062411"><ele>1687.0</ele><time>2026-05-03T12:20:45.108Z</time></trkpt><trkpt lat="44.3213536" lon="6.7060242"><ele>1687.0</ele><time>2026-05-03T12:20:46.111Z</time></trkpt><trkpt lat="44.3213624" lon="6.7058093"><ele>1687.0</ele><time>2026-05-03T12:20:47.108Z</time></trkpt><trkpt lat="44.321367" lon="6.7055954"><ele>1687.0</ele><time>2026-05-03T12:20:48.107Z</time></trkpt><trkpt lat="44.3213668" lon="6.7054064"><ele>1687.0</ele><time>2026-05-03T12:20:49.108Z</time></trkpt><trkpt lat="44.321359" lon="6.7052311"><ele>1687.0</ele><time>2026-05-03T12:20:50.108Z</time></trkpt><trkpt lat="44.321342" lon="6.7050732"><ele>1686.5</ele><time>2026-05-03T12:20:51.107Z</time></trkpt><trkpt lat="44.3213301" lon="6.7048981"><ele>1686.0</ele><time>2026-05-03T12:20:52.108Z</time></trkpt><trkpt lat="44.3213443" lon="6.7047195"><ele>1685.5</ele><time>2026-05-03T12:20:53.108Z</time></trkpt><trkpt lat="44.3213714" lon="6.704537"><ele>1685.0</ele><time>2026-05-03T12:20:54.108Z</time></trkpt><trkpt lat="44.321396" lon="6.7043537"><ele>1689.8</ele><time>2026-05-03T12:20:55.108Z</time></trkpt><trkpt lat="44.3214189" lon="6.7041513"><ele>1694.6</ele><time>2026-05-03T12:20:56.108Z</time></trkpt><trkpt lat="44.3214754" lon="6.7040566"><ele>1699.4</ele><time>2026-05-03T12:20:57.108Z</time></trkpt><trkpt lat="44.321544" lon="6.7039576"><ele>1704.2</ele><time>2026-05-03T12:20:58.108Z</time></trkpt><trkpt lat="44.3216047" lon="6.7038587"><ele>1709.0</ele><time>2026-05-03T12:20:59.108Z</time></trkpt><trkpt lat="44.3216909" lon="6.7037988"><ele>1709.0</ele><time>2026-05-03T12:21:00.108Z</time></trkpt><trkpt lat="44.3217771" lon="6.7037418"><ele>1709.0</ele><time>2026-05-03T12:21:01.108Z</time></trkpt><trkpt lat="44.3218385" lon="6.7036734"><ele>1709.0</ele><time>2026-05-03T12:21:02.108Z</time></trkpt><trkpt lat="44.3218737" lon="6.7035684"><ele>1709.0</ele><time>2026-05-03T12:21:03.108Z</time></trkpt><trkpt lat="44.3218985" lon="6.7034468"><ele>1709.0</ele><time>2026-05-03T12:21:04.108Z</time></trkpt><trkpt lat="44.3219225" lon="6.7032985"><ele>1705.25</ele><time>2026-05-03T12:21:05.108Z</time></trkpt><trkpt lat="44.3219575" lon="6.7031483"><ele>1701.5</ele><time>2026-05-03T12:21:06.108Z</time></trkpt><trkpt lat="44.3219915" lon="6.7029805"><ele>1697.75</ele><time>2026-05-03T12:21:07.108Z</time></trkpt><trkpt lat="44.32203" lon="6.7028059"><ele>1694.0</ele><time>2026-05-03T12:21:08.108Z</time></trkpt><trkpt lat="44.3220284" lon="6.7026136"><ele>1692.0</ele><time>2026-05-03T12:21:09.108Z</time></trkpt><trkpt lat="44.3220257" lon="6.7024162"><ele>1690.0</ele><time>2026-05-03T12:21:10.107Z</time></trkpt><trkpt lat="44.3220184" lon="6.7022241"><ele>1688.0</ele><time>2026-05-03T12:21:11.108Z</time></trkpt><trkpt lat="44.3220077" lon="6.7020406"><ele>1686.0</ele><time>2026-05-03T12:21:12.108Z</time></trkpt><trkpt lat="44.3220004" lon="6.7018625"><ele>1684.5</ele><time>2026-05-03T12:21:13.108Z</time></trkpt><trkpt lat="44.3219809" lon="6.7016737"><ele>1683.0</ele><time>2026-05-03T12:21:14.108Z</time></trkpt><trkpt lat="44.3219502" lon="6.7014823"><ele>1681.5</ele><time>2026-05-03T12:21:15.108Z</time></trkpt><trkpt lat="44.3219086" lon="6.7013023"><ele>1680.0</ele><time>2026-05-03T12:21:16.108Z</time></trkpt><trkpt lat="44.3218589" lon="6.7011193"><ele>1682.0</ele><time>2026-05-03T12:21:17.108Z</time></trkpt><trkpt lat="44.3218088" lon="6.7009479"><ele>1684.0</ele><time>2026-05-03T12:21:18.108Z</time></trkpt><trkpt lat="44.3217629" lon="6.7007834"><ele>1686.0</ele><time>2026-05-03T12:21:19.108Z</time></trkpt><trkpt lat="44.3217379" lon="6.7006083"><ele>1688.0</ele><time>2026-05-03T12:21:20.108Z</time></trkpt><trkpt lat="44.3217068" lon="6.7004248"><ele>1688.0</ele><time>2026-05-03T12:21:21.107Z</time></trkpt><trkpt lat="44.3216713" lon="6.7002508"><ele>1688.0</ele><time>2026-05-03T12:21:22.108Z</time></trkpt><trkpt lat="44.3216141" lon="6.7000936"><ele>1688.0</ele><time>2026-05-03T12:21:23.108Z</time></trkpt><trkpt lat="44.3215688" lon="6.699937"><ele>1688.0</ele><time>2026-05-03T12:21:24.108Z</time></trkpt><trkpt lat="44.3215479" lon="6.6997537"><ele>1690.25</ele><time>2026-05-03T12:21:25.108Z</time></trkpt><trkpt lat="44.3215249" lon="6.6995713"><ele>1692.5</ele><time>2026-05-03T12:21:26.108Z</time></trkpt><trkpt lat="44.3214948" lon="6.6993854"><ele>1694.75</ele><time>2026-05-03T12:21:27.108Z</time></trkpt><trkpt lat="44.3214517" lon="6.6991996"><ele>1697.0</ele><time>2026-05-03T12:21:28.108Z</time></trkpt><trkpt lat="44.3214052" lon="6.6990099"><ele>1689.25</ele><time>2026-05-03T12:21:29.108Z</time></trkpt><trkpt lat="44.3213577" lon="6.6988167"><ele>1681.5</ele><time>2026-05-03T12:21:30.107Z</time></trkpt><trkpt lat="44.3213092" lon="6.6986189"><ele>1673.75</ele><time>2026-05-03T12:21:31.108Z</time></trkpt><trkpt lat="44.321272" lon="6.6984205"><ele>1666.0</ele><time>2026-05-03T12:21:32.108Z</time></trkpt><trkpt lat="44.3212378" lon="6.6982136"><ele>1666.0</ele><time>2026-05-03T12:21:33.108Z</time></trkpt><trkpt lat="44.3212046" lon="6.6980155"><ele>1666.0</ele><time>2026-05-03T12:21:34.107Z</time></trkpt><trkpt lat="44.3211777" lon="6.697827"><ele>1666.0</ele><time>2026-05-03T12:21:35.108Z</time></trkpt><trkpt lat="44.3211437" lon="6.6976512"><ele>1666.0</ele><time>2026-05-03T12:21:36.108Z</time></trkpt><trkpt lat="44.3211095" lon="6.6974742"><ele>1667.5</ele><time>2026-05-03T12:21:37.107Z</time></trkpt><trkpt lat="44.3210804" lon="6.6972954"><ele>1669.0</ele><time>2026-05-03T12:21:38.108Z</time></trkpt><trkpt lat="44.3210377" lon="6.6971417"><ele>1670.5</ele><time>2026-05-03T12:21:39.108Z</time></trkpt><trkpt lat="44.3209946" lon="6.6970014"><ele>1672.0</ele><time>2026-05-03T12:21:40.108Z</time></trkpt><trkpt lat="44.3209369" lon="6.6968507"><ele>1674.25</ele><time>2026-05-03T12:21:41.107Z</time></trkpt><trkpt lat="44.3208117" lon="6.6967551"><ele>1676.5</ele><time>2026-05-03T12:21:42.108Z</time></trkpt><trkpt lat="44.3207198" lon="6.6966519"><ele>1678.75</ele><time>2026-05-03T12:21:43.108Z</time></trkpt><trkpt lat="44.3206472" lon="6.6965339"><ele>1681.0</ele><time>2026-05-03T12:21:44.108Z</time></trkpt><trkpt lat="44.3205983" lon="6.696406"><ele>1675.25</ele><time>2026-05-03T12:21:45.108Z</time></trkpt><trkpt lat="44.3205635" lon="6.6962079"><ele>1669.5</ele><time>2026-05-03T12:21:46.108Z</time></trkpt><trkpt lat="44.3205344" lon="6.6960333"><ele>1663.75</ele><time>2026-05-03T12:21:47.108Z</time></trkpt><trkpt lat="44.3204964" lon="6.6958715"><ele>1658.0</ele><time>2026-05-03T12:21:48.108Z</time></trkpt><trkpt lat="44.3204266" lon="6.6957312"><ele>1658.0</ele><time>2026-05-03T12:21:49.108Z</time></trkpt><trkpt lat="44.3203375" lon="6.6955958"><ele>1658.0</ele><time>2026-05-03T12:21:50.108Z</time></trkpt><trkpt lat="44.3202302" lon="6.6954786"><ele>1658.0</ele><time>2026-05-03T12:21:51.108Z</time></trkpt><trkpt lat="44.3201429" lon="6.6953483"><ele>1658.0</ele><time>2026-05-03T12:21:52.108Z</time></trkpt><trkpt lat="44.3200252" lon="6.6952552"><ele>1662.25</ele><time>2026-05-03T12:21:53.108Z</time></trkpt><trkpt lat="44.3199181" lon="6.695165"><ele>1666.5</ele><time>2026-05-03T12:21:54.107Z</time></trkpt><trkpt lat="44.3198169" lon="6.69507"><ele>1670.75</ele><time>2026-05-03T12:21:55.107Z</time></trkpt><trkpt lat="44.3197044" lon="6.6949695"><ele>1675.0</ele><time>2026-05-03T12:21:56.108Z</time></trkpt><trkpt lat="44.3196206" lon="6.694825"><ele>1670.0</ele><time>2026-05-03T12:21:57.107Z</time></trkpt><trkpt lat="44.3195475" lon="6.6946732"><ele>1665.0</ele><time>2026-05-03T12:21:58.107Z</time></trkpt><trkpt lat="44.3194836" lon="6.6945013"><ele>1660.0</ele><time>2026-05-03T12:21:59.107Z</time></trkpt><trkpt lat="44.3194292" lon="6.6943337"><ele>1655.0</ele><time>2026-05-03T12:22:00.108Z</time></trkpt><trkpt lat="44.3193817" lon="6.694155"><ele>1655.0</ele><time>2026-05-03T12:22:01.108Z</time></trkpt><trkpt lat="44.3193412" lon="6.6939875"><ele>1655.0</ele><time>2026-05-03T12:22:02.108Z</time></trkpt><trkpt lat="44.3193265" lon="6.6938121"><ele>1655.0</ele><time>2026-05-03T12:22:03.108Z</time></trkpt><trkpt lat="44.3192927" lon="6.6936544"><ele>1655.0</ele><time>2026-05-03T12:22:04.108Z</time></trkpt><trkpt lat="44.3192481" lon="6.6935096"><ele>1657.4</ele><time>2026-05-03T12:22:05.108Z</time></trkpt><trkpt lat="44.3191873" lon="6.6933913"><ele>1659.8</ele><time>2026-05-03T12:22:06.108Z</time></trkpt><trkpt lat="44.3191162" lon="6.6932799"><ele>1662.1999999999998</ele><time>2026-05-03T12:22:07.108Z</time></trkpt><trkpt lat="44.319042" lon="6.6931653"><ele>1664.6</ele><time>2026-05-03T12:22:08.107Z</time></trkpt><trkpt lat="44.3189715" lon="6.6930559"><ele>1667.0</ele><time>2026-05-03T12:22:09.108Z</time></trkpt><trkpt lat="44.318919" lon="6.6929372"><ele>1662.0</ele><time>2026-05-03T12:22:10.108Z</time></trkpt><trkpt lat="44.3188713" lon="6.6928009"><ele>1657.0</ele><time>2026-05-03T12:22:11.108Z</time></trkpt><trkpt lat="44.3188284" lon="6.692656"><ele>1652.0</ele><time>2026-05-03T12:22:12.108Z</time></trkpt><trkpt lat="44.3188039" lon="6.6925047"><ele>1647.0</ele><time>2026-05-03T12:22:13.108Z</time></trkpt><trkpt lat="44.318779" lon="6.6923621"><ele>1642.0</ele><time>2026-05-03T12:22:14.108Z</time></trkpt><trkpt lat="44.3187546" lon="6.6922157"><ele>1642.0</ele><time>2026-05-03T12:22:15.108Z</time></trkpt><trkpt lat="44.3187719" lon="6.6920655"><ele>1642.0</ele><time>2026-05-03T12:22:16.108Z</time></trkpt><trkpt lat="44.3187819" lon="6.6919168"><ele>1642.0</ele><time>2026-05-03T12:22:17.108Z</time></trkpt><trkpt lat="44.318787" lon="6.6917641"><ele>1642.0</ele><time>2026-05-03T12:22:18.108Z</time></trkpt><trkpt lat="44.3188008" lon="6.6916112"><ele>1642.0</ele><time>2026-05-03T12:22:19.108Z</time></trkpt><trkpt lat="44.3188215" lon="6.6914534"><ele>1640.1999999999998</ele><time>2026-05-03T12:22:20.108Z</time></trkpt><trkpt lat="44.3188334" lon="6.691299"><ele>1638.4</ele><time>2026-05-03T12:22:21.107Z</time></trkpt><trkpt lat="44.3188686" lon="6.6911964"><ele>1636.6</ele><time>2026-05-03T12:22:22.107Z</time></trkpt><trkpt lat="44.3189187" lon="6.6910834"><ele>1634.8000000000002</ele><time>2026-05-03T12:22:23.108Z</time></trkpt><trkpt lat="44.318997" lon="6.6909829"><ele>1633.0</ele><time>2026-05-03T12:22:24.108Z</time></trkpt><trkpt lat="44.3190808" lon="6.6908737"><ele>1639.5</ele><time>2026-05-03T12:22:25.108Z</time></trkpt><trkpt lat="44.3191518" lon="6.6907487"><ele>1646.0</ele><time>2026-05-03T12:22:26.108Z</time></trkpt><trkpt lat="44.3191936" lon="6.6905977"><ele>1652.5</ele><time>2026-05-03T12:22:27.108Z</time></trkpt><trkpt lat="44.3192223" lon="6.6904592"><ele>1659.0</ele><time>2026-05-03T12:22:28.108Z</time></trkpt><trkpt lat="44.3192409" lon="6.6902608"><ele>1655.5</ele><time>2026-05-03T12:22:29.108Z</time></trkpt><trkpt lat="44.31928" lon="6.6900737"><ele>1652.0</ele><time>2026-05-03T12:22:30.107Z</time></trkpt><trkpt lat="44.3193269" lon="6.689877"><ele>1648.5</ele><time>2026-05-03T12:22:31.108Z</time></trkpt><trkpt lat="44.3193707" lon="6.6896777"><ele>1645.0</ele><time>2026-05-03T12:22:32.108Z</time></trkpt><trkpt lat="44.3194082" lon="6.6894863"><ele>1643.75</ele><time>2026-05-03T12:22:33.107Z</time></trkpt><trkpt lat="44.3194367" lon="6.689307"><ele>1642.5</ele><time>2026-05-03T12:22:34.108Z</time></trkpt><trkpt lat="44.3194632" lon="6.6891395"><ele>1641.25</ele><time>2026-05-03T12:22:35.108Z</time></trkpt><trkpt lat="44.3194744" lon="6.6889679"><ele>1640.0</ele><time>2026-05-03T12:22:36.108Z</time></trkpt><trkpt lat="44.3194295" lon="6.6888063"><ele>1640.0</ele><time>2026-05-03T12:22:37.108Z</time></trkpt><trkpt lat="44.3193744" lon="6.6886344"><ele>1640.0</ele><time>2026-05-03T12:22:38.107Z</time></trkpt><trkpt lat="44.3193098" lon="6.6884547"><ele>1640.0</ele><time>2026-05-03T12:22:39.108Z</time></trkpt><trkpt lat="44.3192465" lon="6.6882608"><ele>1640.0</ele><time>2026-05-03T12:22:40.108Z</time></trkpt><trkpt lat="44.3191844" lon="6.6880684"><ele>1641.5</ele><time>2026-05-03T12:22:41.108Z</time></trkpt><trkpt lat="44.3191153" lon="6.6878776"><ele>1643.0</ele><time>2026-05-03T12:22:42.108Z</time></trkpt><trkpt lat="44.319083" lon="6.6877312"><ele>1644.5</ele><time>2026-05-03T12:22:43.107Z</time></trkpt><trkpt lat="44.3190265" lon="6.6875712"><ele>1646.0</ele><time>2026-05-03T12:22:44.108Z</time></trkpt><trkpt lat="44.3189552" lon="6.687414"><ele>1642.25</ele><time>2026-05-03T12:22:45.108Z</time></trkpt><trkpt lat="44.3188713" lon="6.6872654"><ele>1638.5</ele><time>2026-05-03T12:22:46.107Z</time></trkpt><trkpt lat="44.3187854" lon="6.687107"><ele>1634.75</ele><time>2026-05-03T12:22:47.108Z</time></trkpt><trkpt lat="44.3187221" lon="6.6869784"><ele>1631.0</ele><time>2026-05-03T12:22:48.108Z</time></trkpt><trkpt lat="44.3186616" lon="6.6868179"><ele>1631.0</ele><time>2026-05-03T12:22:49.108Z</time></trkpt><trkpt lat="44.3186054" lon="6.6866656"><ele>1631.0</ele><time>2026-05-03T12:22:50.108Z</time></trkpt><trkpt lat="44.3185702" lon="6.6864647"><ele>1631.0</ele><time>2026-05-03T12:22:51.108Z</time></trkpt><trkpt lat="44.318534" lon="6.6862681"><ele>1631.0</ele><time>2026-05-03T12:22:52.108Z</time></trkpt><trkpt lat="44.3185067" lon="6.6860752"><ele>1630.3333333333333</ele><time>2026-05-03T12:22:53.107Z</time></trkpt><trkpt lat="44.318534" lon="6.6858583"><ele>1629.6666666666665</ele><time>2026-05-03T12:22:54.108Z</time></trkpt><trkpt lat="44.3185671" lon="6.6856559"><ele>1629.0</ele><time>2026-05-03T12:22:55.108Z</time></trkpt><trkpt lat="44.3186022" lon="6.6854425"><ele>1628.5</ele><time>2026-05-03T12:22:56.108Z</time></trkpt><trkpt lat="44.3186279" lon="6.6852373"><ele>1628.0</ele><time>2026-05-03T12:22:57.108Z</time></trkpt><trkpt lat="44.3186554" lon="6.685041"><ele>1627.5</ele><time>2026-05-03T12:22:58.108Z</time></trkpt><trkpt lat="44.3186621" lon="6.6848403"><ele>1627.0</ele><time>2026-05-03T12:22:59.108Z</time></trkpt><trkpt lat="44.3186487" lon="6.6846338"><ele>1627.0</ele><time>2026-05-03T12:23:00.108Z</time></trkpt><trkpt lat="44.3186408" lon="6.684448"><ele>1627.0</ele><time>2026-05-03T12:23:01.108Z</time></trkpt><trkpt lat="44.318643" lon="6.6842689"><ele>1627.0</ele><time>2026-05-03T12:23:02.108Z</time></trkpt><trkpt lat="44.3186648" lon="6.6840715"><ele>1627.0</ele><time>2026-05-03T12:23:03.107Z</time></trkpt><trkpt lat="44.318695" lon="6.6838616"><ele>1624.3333333333335</ele><time>2026-05-03T12:23:04.108Z</time></trkpt><trkpt lat="44.3187149" lon="6.6836631"><ele>1621.6666666666665</ele><time>2026-05-03T12:23:05.108Z</time></trkpt><trkpt lat="44.3187386" lon="6.6834466"><ele>1619.0</ele><time>2026-05-03T12:23:06.108Z</time></trkpt><trkpt lat="44.3187681" lon="6.6832301"><ele>1616.6666666666665</ele><time>2026-05-03T12:23:07.108Z</time></trkpt><trkpt lat="44.3188116" lon="6.6829961"><ele>1614.3333333333335</ele><time>2026-05-03T12:23:08.108Z</time></trkpt><trkpt lat="44.318861" lon="6.6827642"><ele>1612.0</ele><time>2026-05-03T12:23:09.107Z</time></trkpt><trkpt lat="44.3188976" lon="6.682534"><ele>1623.3333333333335</ele><time>2026-05-03T12:23:10.108Z</time></trkpt><trkpt lat="44.3189365" lon="6.6823055"><ele>1634.6666666666665</ele><time>2026-05-03T12:23:11.107Z</time></trkpt><trkpt lat="44.3189736" lon="6.6820819"><ele>1646.0</ele><time>2026-05-03T12:23:12.108Z</time></trkpt><trkpt lat="44.319004" lon="6.6818628"><ele>1646.0</ele><time>2026-05-03T12:23:13.108Z</time></trkpt><trkpt lat="44.3190256" lon="6.6816581"><ele>1646.0</ele><time>2026-05-03T12:23:14.108Z</time></trkpt><trkpt lat="44.3190301" lon="6.681458"><ele>1646.0</ele><time>2026-05-03T12:23:15.107Z</time></trkpt><trkpt lat="44.3190251" lon="6.6812558"><ele>1646.0</ele><time>2026-05-03T12:23:16.108Z</time></trkpt><trkpt lat="44.3190078" lon="6.6810867"><ele>1644.8</ele><time>2026-05-03T12:23:17.108Z</time></trkpt><trkpt lat="44.3189991" lon="6.6809317"><ele>1643.6</ele><time>2026-05-03T12:23:18.108Z</time></trkpt><trkpt lat="44.3190084" lon="6.6807963"><ele>1642.4</ele><time>2026-05-03T12:23:19.108Z</time></trkpt><trkpt lat="44.319044" lon="6.6806721"><ele>1641.2</ele><time>2026-05-03T12:23:20.108Z</time></trkpt><trkpt lat="44.3191096" lon="6.6805639"><ele>1640.0</ele><time>2026-05-03T12:23:21.108Z</time></trkpt><trkpt lat="44.3192022" lon="6.680456"><ele>1639.9999999999998</ele><time>2026-05-03T12:23:22.108Z</time></trkpt><trkpt lat="44.3193053" lon="6.6803843"><ele>1640.0</ele><time>2026-05-03T12:23:23.108Z</time></trkpt><trkpt lat="44.3193899" lon="6.6803365"><ele>1640.0</ele><time>2026-05-03T12:23:24.108Z</time></trkpt><trkpt lat="44.319476" lon="6.6802831"><ele>1640.0</ele><time>2026-05-03T12:23:25.108Z</time></trkpt><trkpt lat="44.3195055" lon="6.6801939"><ele>1639.9999999999998</ele><time>2026-05-03T12:23:26.108Z</time></trkpt><trkpt lat="44.3195484" lon="6.6801109"><ele>1640.0</ele><time>2026-05-03T12:23:27.108Z</time></trkpt><trkpt lat="44.3195385" lon="6.6799821"><ele>1634.75</ele><time>2026-05-03T12:23:28.108Z</time></trkpt><trkpt lat="44.3195078" lon="6.6798368"><ele>1629.5</ele><time>2026-05-03T12:23:29.108Z</time></trkpt><trkpt lat="44.319477" lon="6.6796914"><ele>1624.25</ele><time>2026-05-03T12:23:30.108Z</time></trkpt><trkpt lat="44.3194687" lon="6.6795284"><ele>1619.0</ele><time>2026-05-03T12:23:31.108Z</time></trkpt><trkpt lat="44.3194897" lon="6.6793662"><ele>1615.5</ele><time>2026-05-03T12:23:32.108Z</time></trkpt><trkpt lat="44.3195416" lon="6.6792176"><ele>1612.0</ele><time>2026-05-03T12:23:33.107Z</time></trkpt><trkpt lat="44.3196056" lon="6.6790725"><ele>1608.5</ele><time>2026-05-03T12:23:34.108Z</time></trkpt><trkpt lat="44.3196712" lon="6.6789361"><ele>1605.0</ele><time>2026-05-03T12:23:35.108Z</time></trkpt><trkpt lat="44.3197394" lon="6.6788018"><ele>1610.25</ele><time>2026-05-03T12:23:36.108Z</time></trkpt><trkpt lat="44.3198096" lon="6.6787002"><ele>1615.5</ele><time>2026-05-03T12:23:37.108Z</time></trkpt><trkpt lat="44.3199018" lon="6.6785797"><ele>1620.75</ele><time>2026-05-03T12:23:38.107Z</time></trkpt><trkpt lat="44.3199951" lon="6.6784507"><ele>1626.0</ele><time>2026-05-03T12:23:39.108Z</time></trkpt><trkpt lat="44.3200714" lon="6.678306"><ele>1626.0</ele><time>2026-05-03T12:23:40.108Z</time></trkpt><trkpt lat="44.3201505" lon="6.6781685"><ele>1626.0</ele><time>2026-05-03T12:23:41.108Z</time></trkpt><trkpt lat="44.3202207" lon="6.6780453"><ele>1626.0</ele><time>2026-05-03T12:23:42.108Z</time></trkpt><trkpt lat="44.3202935" lon="6.6779012"><ele>1626.0</ele><time>2026-05-03T12:23:43.108Z</time></trkpt><trkpt lat="44.3203421" lon="6.677739"><ele>1621.25</ele><time>2026-05-03T12:23:44.107Z</time></trkpt><trkpt lat="44.32037" lon="6.677562"><ele>1616.5</ele><time>2026-05-03T12:23:45.108Z</time></trkpt><trkpt lat="44.3203921" lon="6.6773883"><ele>1611.75</ele><time>2026-05-03T12:23:46.108Z</time></trkpt><trkpt lat="44.3203802" lon="6.6771937"><ele>1607.0</ele><time>2026-05-03T12:23:47.108Z</time></trkpt><trkpt lat="44.3203523" lon="6.6769971"><ele>1605.5</ele><time>2026-05-03T12:23:48.108Z</time></trkpt><trkpt lat="44.3203448" lon="6.6768015"><ele>1604.0</ele><time>2026-05-03T12:23:49.108Z</time></trkpt><trkpt lat="44.3203404" lon="6.6766365"><ele>1602.5</ele><time>2026-05-03T12:23:50.108Z</time></trkpt><trkpt lat="44.3203402" lon="6.676462"><ele>1601.0</ele><time>2026-05-03T12:23:51.108Z</time></trkpt><trkpt lat="44.320353" lon="6.6762644"><ele>1600.0</ele><time>2026-05-03T12:23:52.108Z</time></trkpt><trkpt lat="44.3203636" lon="6.6760906"><ele>1599.0</ele><time>2026-05-03T12:23:53.108Z</time></trkpt><trkpt lat="44.3203972" lon="6.6759114"><ele>1598.0</ele><time>2026-05-03T12:23:54.108Z</time></trkpt><trkpt lat="44.3204339" lon="6.6757342"><ele>1597.0</ele><time>2026-05-03T12:23:55.107Z</time></trkpt><trkpt lat="44.3204715" lon="6.6755702"><ele>1597.0</ele><time>2026-05-03T12:23:56.108Z</time></trkpt><trkpt lat="44.3205125" lon="6.6754129"><ele>1597.0</ele><time>2026-05-03T12:23:57.108Z</time></trkpt><trkpt lat="44.3205601" lon="6.6752577"><ele>1597.0</ele><time>2026-05-03T12:23:58.108Z</time></trkpt><trkpt lat="44.3206357" lon="6.6751107"><ele>1597.0</ele><time>2026-05-03T12:23:59.107Z</time></trkpt><trkpt lat="44.3207257" lon="6.6749808"><ele>1602.75</ele><time>2026-05-03T12:24:00.108Z</time></trkpt><trkpt lat="44.3208192" lon="6.6748535"><ele>1608.5</ele><time>2026-05-03T12:24:01.108Z</time></trkpt><trkpt lat="44.3209104" lon="6.6747491"><ele>1614.25</ele><time>2026-05-03T12:24:02.108Z</time></trkpt><trkpt lat="44.3209984" lon="6.6746494"><ele>1620.0</ele><time>2026-05-03T12:24:03.108Z</time></trkpt><trkpt lat="44.3210737" lon="6.6745288"><ele>1614.25</ele><time>2026-05-03T12:24:04.108Z</time></trkpt><trkpt lat="44.3211408" lon="6.6743792"><ele>1608.5</ele><time>2026-05-03T12:24:05.107Z</time></trkpt><trkpt lat="44.321186" lon="6.6742132"><ele>1602.75</ele><time>2026-05-03T12:24:06.108Z</time></trkpt><trkpt lat="44.3212153" lon="6.6740267"><ele>1597.0</ele><time>2026-05-03T12:24:07.108Z</time></trkpt><trkpt lat="44.3212477" lon="6.6738323"><ele>1597.0</ele><time>2026-05-03T12:24:08.108Z</time></trkpt><trkpt lat="44.3212822" lon="6.6736271"><ele>1597.0</ele><time>2026-05-03T12:24:09.108Z</time></trkpt><trkpt lat="44.3213193" lon="6.6734099"><ele>1597.0</ele><time>2026-05-03T12:24:10.108Z</time></trkpt><trkpt lat="44.3213655" lon="6.6731867"><ele>1607.6666666666667</ele><time>2026-05-03T12:24:11.108Z</time></trkpt><trkpt lat="44.3214036" lon="6.6729792"><ele>1618.3333333333335</ele><time>2026-05-03T12:24:12.108Z</time></trkpt><trkpt lat="44.3214277" lon="6.6727625"><ele>1629.0</ele><time>2026-05-03T12:24:13.108Z</time></trkpt><trkpt lat="44.3214355" lon="6.6725506"><ele>1629.0</ele><time>2026-05-03T12:24:14.107Z</time></trkpt><trkpt lat="44.3214589" lon="6.6723421"><ele>1629.0</ele><time>2026-05-03T12:24:15.108Z</time></trkpt><trkpt lat="44.3214864" lon="6.6721331"><ele>1629.0</ele><time>2026-05-03T12:24:16.108Z</time></trkpt><trkpt lat="44.3215229" lon="6.6719303"><ele>1625.25</ele><time>2026-05-03T12:24:17.108Z</time></trkpt><trkpt lat="44.3215538" lon="6.6717445"><ele>1621.5</ele><time>2026-05-03T12:24:18.108Z</time></trkpt><trkpt lat="44.3215707" lon="6.6715549"><ele>1617.75</ele><time>2026-05-03T12:24:19.108Z</time></trkpt><trkpt lat="44.3215776" lon="6.6713822"><ele>1614.0</ele><time>2026-05-03T12:24:20.108Z</time></trkpt><trkpt lat="44.3215559" lon="6.6712074"><ele>1612.0</ele><time>2026-05-03T12:24:21.108Z</time></trkpt><trkpt lat="44.3215166" lon="6.6710357"><ele>1610.0</ele><time>2026-05-03T12:24:22.108Z</time></trkpt><trkpt lat="44.3214705" lon="6.6708639"><ele>1608.0</ele><time>2026-05-03T12:24:23.108Z</time></trkpt><trkpt lat="44.3214433" lon="6.6706932"><ele>1606.0</ele><time>2026-05-03T12:24:24.108Z</time></trkpt><trkpt lat="44.3214321" lon="6.670516"><ele>1606.0</ele><time>2026-05-03T12:24:25.107Z</time></trkpt><trkpt lat="44.3214433" lon="6.6703258"><ele>1606.0</ele><time>2026-05-03T12:24:26.108Z</time></trkpt><trkpt lat="44.3214618" lon="6.6701312"><ele>1606.0</ele><time>2026-05-03T12:24:27.108Z</time></trkpt><trkpt lat="44.3214952" lon="6.669932"><ele>1606.0</ele><time>2026-05-03T12:24:28.108Z</time></trkpt><trkpt lat="44.3215362" lon="6.6697483"><ele>1603.75</ele><time>2026-05-03T12:24:29.108Z</time></trkpt><trkpt lat="44.3215786" lon="6.6695759"><ele>1601.5</ele><time>2026-05-03T12:24:30.108Z</time></trkpt><trkpt lat="44.3216296" lon="6.6694035"><ele>1599.25</ele><time>2026-05-03T12:24:31.108Z</time></trkpt><trkpt lat="44.3217044" lon="6.6692353"><ele>1597.0</ele><time>2026-05-03T12:24:32.108Z</time></trkpt><trkpt lat="44.3217752" lon="6.66908"><ele>1593.25</ele><time>2026-05-03T12:24:33.108Z</time></trkpt><trkpt lat="44.3218518" lon="6.6689339"><ele>1589.5</ele><time>2026-05-03T12:24:34.108Z</time></trkpt><trkpt lat="44.3219457" lon="6.6688386"><ele>1585.75</ele><time>2026-05-03T12:24:35.108Z</time></trkpt><trkpt lat="44.322037" lon="6.6687403"><ele>1582.0</ele><time>2026-05-03T12:24:36.108Z</time></trkpt><trkpt lat="44.322138" lon="6.6686292"><ele>1584.25</ele><time>2026-05-03T12:24:37.108Z</time></trkpt><trkpt lat="44.3222234" lon="6.6684948"><ele>1586.5</ele><time>2026-05-03T12:24:38.108Z</time></trkpt><trkpt lat="44.3222988" lon="6.6683632"><ele>1588.75</ele><time>2026-05-03T12:24:39.108Z</time></trkpt><trkpt lat="44.3223771" lon="6.6682456"><ele>1591.0</ele><time>2026-05-03T12:24:40.108Z</time></trkpt><trkpt lat="44.32245" lon="6.6681536"><ele>1591.0</ele><time>2026-05-03T12:24:41.108Z</time></trkpt><trkpt lat="44.3225389" lon="6.6680589"><ele>1591.0</ele><time>2026-05-03T12:24:42.108Z</time></trkpt><trkpt lat="44.3226486" lon="6.6679884"><ele>1591.0</ele><time>2026-05-03T12:24:43.108Z</time></trkpt><trkpt lat="44.3227558" lon="6.6679309"><ele>1591.0</ele><time>2026-05-03T12:24:44.107Z</time></trkpt><trkpt lat="44.3228572" lon="6.6678693"><ele>1591.0000000000002</ele><time>2026-05-03T12:24:45.108Z</time></trkpt><trkpt lat="44.3229655" lon="6.6678415"><ele>1591.0</ele><time>2026-05-03T12:24:46.107Z</time></trkpt><trkpt lat="44.3230565" lon="6.667831"><ele>1591.0</ele><time>2026-05-03T12:24:47.108Z</time></trkpt><trkpt lat="44.3231345" lon="6.6678091"><ele>1591.0</ele><time>2026-05-03T12:24:48.108Z</time></trkpt><trkpt lat="44.3232077" lon="6.6677531"><ele>1591.0000000000002</ele><time>2026-05-03T12:24:49.108Z</time></trkpt><trkpt lat="44.323256" lon="6.6676807"><ele>1591.0</ele><time>2026-05-03T12:24:50.108Z</time></trkpt><trkpt lat="44.3233153" lon="6.667592"><ele>1589.4</ele><time>2026-05-03T12:24:51.108Z</time></trkpt><trkpt lat="44.3233742" lon="6.6674993"><ele>1587.8</ele><time>2026-05-03T12:24:52.108Z</time></trkpt><trkpt lat="44.3234335" lon="6.6673942"><ele>1586.2</ele><time>2026-05-03T12:24:53.108Z</time></trkpt><trkpt lat="44.3234736" lon="6.6672738"><ele>1584.6000000000001</ele><time>2026-05-03T12:24:54.108Z</time></trkpt><trkpt lat="44.3234939" lon="6.6671213"><ele>1583.0</ele><time>2026-05-03T12:24:55.108Z</time></trkpt><trkpt lat="44.3235095" lon="6.666964"><ele>1579.25</ele><time>2026-05-03T12:24:56.108Z</time></trkpt><trkpt lat="44.3235075" lon="6.6667917"><ele>1575.5</ele><time>2026-05-03T12:24:57.108Z</time></trkpt><trkpt lat="44.3234985" lon="6.6666304"><ele>1571.75</ele><time>2026-05-03T12:24:58.107Z</time></trkpt><trkpt lat="44.323479" lon="6.6664727"><ele>1568.0</ele><time>2026-05-03T12:24:59.108Z</time></trkpt><trkpt lat="44.3234379" lon="6.6663314"><ele>1568.0</ele><time>2026-05-03T12:25:00.108Z</time></trkpt><trkpt lat="44.3233908" lon="6.6662036"><ele>1568.0</ele><time>2026-05-03T12:25:01.108Z</time></trkpt><trkpt lat="44.323353" lon="6.66607"><ele>1568.0</ele><time>2026-05-03T12:25:02.107Z</time></trkpt><trkpt lat="44.3233236" lon="6.6659089"><ele>1568.0</ele><time>2026-05-03T12:25:03.108Z</time></trkpt><trkpt lat="44.3233315" lon="6.6657416"><ele>1568.0</ele><time>2026-05-03T12:25:04.108Z</time></trkpt><trkpt lat="44.323342" lon="6.6655529"><ele>1569.25</ele><time>2026-05-03T12:25:05.108Z</time></trkpt><trkpt lat="44.3233424" lon="6.6653708"><ele>1570.5</ele><time>2026-05-03T12:25:06.107Z</time></trkpt><trkpt lat="44.3233571" lon="6.6651826"><ele>1571.75</ele><time>2026-05-03T12:25:07.108Z</time></trkpt><trkpt lat="44.3233656" lon="6.6650008"><ele>1573.0</ele><time>2026-05-03T12:25:08.108Z</time></trkpt><trkpt lat="44.3233863" lon="6.6648203"><ele>1573.0</ele><time>2026-05-03T12:25:09.108Z</time></trkpt><trkpt lat="44.3234106" lon="6.6646623"><ele>1573.0</ele><time>2026-05-03T12:25:10.108Z</time></trkpt><trkpt lat="44.3234533" lon="6.6644983"><ele>1573.0</ele><time>2026-05-03T12:25:11.108Z</time></trkpt><trkpt lat="44.3234934" lon="6.664389"><ele>1573.0</ele><time>2026-05-03T12:25:12.108Z</time></trkpt><trkpt lat="44.3235259" lon="6.6643111"><ele>1573.0</ele><time>2026-05-03T12:25:13.108Z</time></trkpt><trkpt lat="44.3235467" lon="6.6641664"><ele>1573.0</ele><time>2026-05-03T12:25:15.108Z</time></trkpt><trkpt lat="44.3234815" lon="6.6640894"><ele>1573.0</ele><time>2026-05-03T12:25:17.108Z</time></trkpt><trkpt lat="44.3234139" lon="6.6642666"><ele>1573.0</ele><time>2026-05-03T12:25:19.107Z</time></trkpt><trkpt lat="44.3233627" lon="6.6644244"><ele>1573.0</ele><time>2026-05-03T12:25:20.108Z</time></trkpt><trkpt lat="44.323328" lon="6.6645802"><ele>1573.0</ele><time>2026-05-03T12:25:21.108Z</time></trkpt><trkpt lat="44.3232971" lon="6.664719"><ele>1573.0</ele><time>2026-05-03T12:25:22.108Z</time></trkpt><trkpt lat="44.3232636" lon="6.6648546"><ele>1573.0</ele><time>2026-05-03T12:25:23.107Z</time></trkpt><trkpt lat="44.32324" lon="6.6650094"><ele>1573.0</ele><time>2026-05-03T12:25:24.108Z</time></trkpt><trkpt lat="44.3232194" lon="6.6651629"><ele>1573.0</ele><time>2026-05-03T12:25:25.108Z</time></trkpt><trkpt lat="44.3231861" lon="6.6653152"><ele>1573.6000000000001</ele><time>2026-05-03T12:25:26.107Z</time></trkpt><trkpt lat="44.3231522" lon="6.6654821"><ele>1574.2</ele><time>2026-05-03T12:25:27.108Z</time></trkpt><trkpt lat="44.3231396" lon="6.6656258"><ele>1574.8</ele><time>2026-05-03T12:25:28.108Z</time></trkpt><trkpt lat="44.3231355" lon="6.6657546"><ele>1575.4</ele><time>2026-05-03T12:25:29.108Z</time></trkpt><trkpt lat="44.3231288" lon="6.6658567"><ele>1576.0</ele><time>2026-05-03T12:25:30.108Z</time></trkpt><trkpt lat="44.3231275" lon="6.665952"><ele>1576.0</ele><time>2026-05-03T12:25:31.108Z</time></trkpt><trkpt lat="44.3230367" lon="6.6659765"><ele>1576.0</ele><time>2026-05-03T12:25:33.108Z</time></trkpt><trkpt lat="44.3230319" lon="6.6658026"><ele>1576.0</ele><time>2026-05-03T12:25:35.108Z</time></trkpt><trkpt lat="44.3230582" lon="6.6656681"><ele>1576.0</ele><time>2026-05-03T12:25:36.108Z</time></trkpt><trkpt lat="44.3230736" lon="6.6655228"><ele>1576.0</ele><time>2026-05-03T12:25:37.108Z</time></trkpt><trkpt lat="44.3230809" lon="6.6653498"><ele>1575.25</ele><time>2026-05-03T12:25:38.108Z</time></trkpt><trkpt lat="44.323087" lon="6.6651681"><ele>1574.5</ele><time>2026-05-03T12:25:39.107Z</time></trkpt><trkpt lat="44.32309" lon="6.6649889"><ele>1573.75</ele><time>2026-05-03T12:25:40.107Z</time></trkpt><trkpt lat="44.3230917" lon="6.6647932"><ele>1573.0</ele><time>2026-05-03T12:25:41.107Z</time></trkpt><trkpt lat="44.323083" lon="6.6645908"><ele>1569.75</ele><time>2026-05-03T12:25:42.108Z</time></trkpt><trkpt lat="44.3230761" lon="6.6643952"><ele>1566.5</ele><time>2026-05-03T12:25:43.108Z</time></trkpt><trkpt lat="44.3230576" lon="6.6642098"><ele>1563.25</ele><time>2026-05-03T12:25:44.108Z</time></trkpt><trkpt lat="44.3230543" lon="6.6640214"><ele>1560.0</ele><time>2026-05-03T12:25:45.108Z</time></trkpt><trkpt lat="44.3230394" lon="6.663847"><ele>1554.2</ele><time>2026-05-03T12:25:46.108Z</time></trkpt><trkpt lat="44.3230238" lon="6.6636913"><ele>1548.4</ele><time>2026-05-03T12:25:47.108Z</time></trkpt><trkpt lat="44.3230183" lon="6.6635329"><ele>1542.6</ele><time>2026-05-03T12:25:48.108Z</time></trkpt><trkpt lat="44.3230144" lon="6.6633896"><ele>1536.8</ele><time>2026-05-03T12:25:49.108Z</time></trkpt><trkpt lat="44.323011" lon="6.6632379"><ele>1531.0</ele><time>2026-05-03T12:25:50.108Z</time></trkpt><trkpt lat="44.3229891" lon="6.6630645"><ele>1531.0</ele><time>2026-05-03T12:25:51.108Z</time></trkpt><trkpt lat="44.3229451" lon="6.6629236"><ele>1531.0</ele><time>2026-05-03T12:25:52.108Z</time></trkpt><trkpt lat="44.3229018" lon="6.6627604"><ele>1531.0</ele><time>2026-05-03T12:25:53.108Z</time></trkpt><trkpt lat="44.322874" lon="6.6625934"><ele>1531.0</ele><time>2026-05-03T12:25:54.108Z</time></trkpt><trkpt lat="44.3228702" lon="6.662426"><ele>1530.75</ele><time>2026-05-03T12:25:55.108Z</time></trkpt><trkpt lat="44.3228716" lon="6.6622711"><ele>1530.5</ele><time>2026-05-03T12:25:56.108Z</time></trkpt><trkpt lat="44.3228586" lon="6.6621155"><ele>1530.25</ele><time>2026-05-03T12:25:57.108Z</time></trkpt><trkpt lat="44.3228339" lon="6.661967"><ele>1530.0</ele><time>2026-05-03T12:25:58.108Z</time></trkpt><trkpt lat="44.3227796" lon="6.6618203"><ele>1529.75</ele><time>2026-05-03T12:25:59.108Z</time></trkpt><trkpt lat="44.3227241" lon="6.6616828"><ele>1529.5</ele><time>2026-05-03T12:26:00.108Z</time></trkpt><trkpt lat="44.3226757" lon="6.6615367"><ele>1529.25</ele><time>2026-05-03T12:26:01.108Z</time></trkpt><trkpt lat="44.3226539" lon="6.6613771"><ele>1529.0</ele><time>2026-05-03T12:26:02.108Z</time></trkpt><trkpt lat="44.3226402" lon="6.6612164"><ele>1529.8000000000002</ele><time>2026-05-03T12:26:03.108Z</time></trkpt><trkpt lat="44.3226428" lon="6.6610608"><ele>1530.6000000000001</ele><time>2026-05-03T12:26:04.108Z</time></trkpt><trkpt lat="44.3226663" lon="6.6609012"><ele>1531.4</ele><time>2026-05-03T12:26:05.107Z</time></trkpt><trkpt lat="44.322702" lon="6.6607563"><ele>1532.2</ele><time>2026-05-03T12:26:06.108Z</time></trkpt><trkpt lat="44.3227305" lon="6.6606423"><ele>1533.0</ele><time>2026-05-03T12:26:07.107Z</time></trkpt><trkpt lat="44.3227375" lon="6.6605383"><ele>1533.0</ele><time>2026-05-03T12:26:08.108Z</time></trkpt><trkpt lat="44.3227257" lon="6.6604458"><ele>1533.0</ele><time>2026-05-03T12:26:09.108Z</time></trkpt><trkpt lat="44.3226956" lon="6.6603628"><ele>1533.0</ele><time>2026-05-03T12:26:10.108Z</time></trkpt><trkpt lat="44.3226449" lon="6.6603074"><ele>1533.0</ele><time>2026-05-03T12:26:11.108Z</time></trkpt><trkpt lat="44.3225887" lon="6.6602644"><ele>1533.0</ele><time>2026-05-03T12:26:12.108Z</time></trkpt><trkpt lat="44.3225123" lon="6.6603258"><ele>1533.0</ele><time>2026-05-03T12:26:13.108Z</time></trkpt><trkpt lat="44.3224367" lon="6.6603642"><ele>1533.0</ele><time>2026-05-03T12:26:14.107Z</time></trkpt><trkpt lat="44.3223452" lon="6.6603691"><ele>1533.0</ele><time>2026-05-03T12:26:15.108Z</time></trkpt><trkpt lat="44.322258" lon="6.660343"><ele>1533.0</ele><time>2026-05-03T12:26:16.108Z</time></trkpt><trkpt lat="44.3221581" lon="6.6602711"><ele>1533.0</ele><time>2026-05-03T12:26:17.108Z</time></trkpt><trkpt lat="44.3220718" lon="6.6601618"><ele>1533.0</ele><time>2026-05-03T12:26:18.108Z</time></trkpt><trkpt lat="44.3219961" lon="6.6600379"><ele>1533.0</ele><time>2026-05-03T12:26:19.108Z</time></trkpt><trkpt lat="44.3219293" lon="6.6599204"><ele>1532.2</ele><time>2026-05-03T12:26:20.108Z</time></trkpt><trkpt lat="44.3218622" lon="6.6597975"><ele>1531.4</ele><time>2026-05-03T12:26:21.108Z</time></trkpt><trkpt lat="44.321794" lon="6.6596791"><ele>1530.6000000000001</ele><time>2026-05-03T12:26:22.108Z</time></trkpt><trkpt lat="44.321716" lon="6.6595639"><ele>1529.8000000000002</ele><time>2026-05-03T12:26:23.108Z</time></trkpt><trkpt lat="44.3216416" lon="6.6594407"><ele>1529.0</ele><time>2026-05-03T12:26:24.108Z</time></trkpt><trkpt lat="44.3215594" lon="6.6593134"><ele>1529.0</ele><time>2026-05-03T12:26:25.108Z</time></trkpt><trkpt lat="44.3214691" lon="6.6591876"><ele>1529.0</ele><time>2026-05-03T12:26:26.108Z</time></trkpt><trkpt lat="44.3213766" lon="6.6590584"><ele>1529.0</ele><time>2026-05-03T12:26:27.108Z</time></trkpt><trkpt lat="44.3212706" lon="6.658929"><ele>1529.0</ele><time>2026-05-03T12:26:28.108Z</time></trkpt><trkpt lat="44.3211691" lon="6.6587947"><ele>1525.25</ele><time>2026-05-03T12:26:29.108Z</time></trkpt><trkpt lat="44.3210621" lon="6.6586621"><ele>1521.5</ele><time>2026-05-03T12:26:30.108Z</time></trkpt><trkpt lat="44.320966" lon="6.6585232"><ele>1517.75</ele><time>2026-05-03T12:26:31.108Z</time></trkpt><trkpt lat="44.3208699" lon="6.6583727"><ele>1514.0</ele><time>2026-05-03T12:26:32.108Z</time></trkpt><trkpt lat="44.320791" lon="6.6582107"><ele>1514.0</ele><time>2026-05-03T12:26:33.108Z</time></trkpt><trkpt lat="44.3207034" lon="6.6580538"><ele>1514.0</ele><time>2026-05-03T12:26:34.108Z</time></trkpt><trkpt lat="44.3206412" lon="6.6579046"><ele>1514.0</ele><time>2026-05-03T12:26:35.108Z</time></trkpt><trkpt lat="44.3205747" lon="6.6577555"><ele>1514.0</ele><time>2026-05-03T12:26:36.108Z</time></trkpt><trkpt lat="44.3205334" lon="6.6575969"><ele>1509.0</ele><time>2026-05-03T12:26:37.107Z</time></trkpt><trkpt lat="44.320492" lon="6.657439"><ele>1504.0</ele><time>2026-05-03T12:26:38.108Z</time></trkpt><trkpt lat="44.3204497" lon="6.6572817"><ele>1499.0</ele><time>2026-05-03T12:26:39.107Z</time></trkpt><trkpt lat="44.3203949" lon="6.6571474"><ele>1494.0</ele><time>2026-05-03T12:26:40.108Z</time></trkpt><trkpt lat="44.3203213" lon="6.6570184"><ele>1496.5</ele><time>2026-05-03T12:26:41.108Z</time></trkpt><trkpt lat="44.320202" lon="6.6569267"><ele>1499.0</ele><time>2026-05-03T12:26:42.108Z</time></trkpt><trkpt lat="44.3200987" lon="6.6568251"><ele>1501.5</ele><time>2026-05-03T12:26:43.108Z</time></trkpt><trkpt lat="44.3199925" lon="6.65672"><ele>1504.0</ele><time>2026-05-03T12:26:44.107Z</time></trkpt><trkpt lat="44.3198947" lon="6.6566339"><ele>1504.0</ele><time>2026-05-03T12:26:45.108Z</time></trkpt><trkpt lat="44.3198106" lon="6.6565574"><ele>1504.0</ele><time>2026-05-03T12:26:46.108Z</time></trkpt><trkpt lat="44.3197311" lon="6.6564762"><ele>1504.0</ele><time>2026-05-03T12:26:47.108Z</time></trkpt><trkpt lat="44.3196917" lon="6.6563507"><ele>1504.0</ele><time>2026-05-03T12:26:48.108Z</time></trkpt><trkpt lat="44.319654" lon="6.6562217"><ele>1504.0</ele><time>2026-05-03T12:26:49.107Z</time></trkpt><trkpt lat="44.3196309" lon="6.6560702"><ele>1498.8000000000002</ele><time>2026-05-03T12:26:50.108Z</time></trkpt><trkpt lat="44.3196205" lon="6.6559312"><ele>1493.6000000000001</ele><time>2026-05-03T12:26:51.108Z</time></trkpt><trkpt lat="44.3196226" lon="6.6558047"><ele>1488.4</ele><time>2026-05-03T12:26:52.108Z</time></trkpt><trkpt lat="44.319631" lon="6.6557052"><ele>1483.2</ele><time>2026-05-03T12:26:53.108Z</time></trkpt><trkpt lat="44.3196238" lon="6.6555374"><ele>1478.0</ele><time>2026-05-03T12:26:55.108Z</time></trkpt><trkpt lat="44.3195981" lon="6.655426"><ele>1478.0</ele><time>2026-05-03T12:26:56.107Z</time></trkpt><trkpt lat="44.319586" lon="6.6553145"><ele>1478.0</ele><time>2026-05-03T12:26:57.108Z</time></trkpt><trkpt lat="44.3195762" lon="6.6551799"><ele>1478.0</ele><time>2026-05-03T12:26:58.108Z</time></trkpt><trkpt lat="44.3195711" lon="6.6550217"><ele>1478.0</ele><time>2026-05-03T12:26:59.108Z</time></trkpt><trkpt lat="44.3195775" lon="6.6548485"><ele>1478.0</ele><time>2026-05-03T12:27:00.108Z</time></trkpt><trkpt lat="44.3195935" lon="6.6546679"><ele>1477.0</ele><time>2026-05-03T12:27:01.108Z</time></trkpt><trkpt lat="44.3196005" lon="6.6544745"><ele>1476.0</ele><time>2026-05-03T12:27:02.108Z</time></trkpt><trkpt lat="44.3196108" lon="6.6542717"><ele>1475.0</ele><time>2026-05-03T12:27:03.108Z</time></trkpt><trkpt lat="44.3196189" lon="6.6540666"><ele>1474.0</ele><time>2026-05-03T12:27:04.108Z</time></trkpt><trkpt lat="44.3196164" lon="6.6538623"><ele>1474.0</ele><time>2026-05-03T12:27:05.108Z</time></trkpt><trkpt lat="44.3196268" lon="6.653657"><ele>1474.0</ele><time>2026-05-03T12:27:06.108Z</time></trkpt><trkpt lat="44.3196406" lon="6.6534551"><ele>1474.0</ele><time>2026-05-03T12:27:07.108Z</time></trkpt><trkpt lat="44.3196491" lon="6.6532418"><ele>1474.0</ele><time>2026-05-03T12:27:08.108Z</time></trkpt><trkpt lat="44.3196605" lon="6.6530402"><ele>1473.0</ele><time>2026-05-03T12:27:09.108Z</time></trkpt><trkpt lat="44.3196625" lon="6.6528396"><ele>1472.0</ele><time>2026-05-03T12:27:10.108Z</time></trkpt><trkpt lat="44.31968" lon="6.6526576"><ele>1471.0</ele><time>2026-05-03T12:27:11.108Z</time></trkpt><trkpt lat="44.3196719" lon="6.6524972"><ele>1470.0</ele><time>2026-05-03T12:27:12.108Z</time></trkpt><trkpt lat="44.3196613" lon="6.6523241"><ele>1469.0</ele><time>2026-05-03T12:27:13.108Z</time></trkpt><trkpt lat="44.3196203" lon="6.6521422"><ele>1468.0</ele><time>2026-05-03T12:27:14.108Z</time></trkpt><trkpt lat="44.3195671" lon="6.6519666"><ele>1467.0</ele><time>2026-05-03T12:27:15.108Z</time></trkpt><trkpt lat="44.3195221" lon="6.6517818"><ele>1466.0</ele><time>2026-05-03T12:27:16.108Z</time></trkpt><trkpt lat="44.3194859" lon="6.6515938"><ele>1466.0</ele><time>2026-05-03T12:27:17.108Z</time></trkpt><trkpt lat="44.3194454" lon="6.6514034"><ele>1466.0</ele><time>2026-05-03T12:27:18.108Z</time></trkpt><trkpt lat="44.3194086" lon="6.6512211"><ele>1466.0</ele><time>2026-05-03T12:27:19.108Z</time></trkpt><trkpt lat="44.3193676" lon="6.6510502"><ele>1466.0</ele><time>2026-05-03T12:27:20.108Z</time></trkpt><trkpt lat="44.3193347" lon="6.6508764"><ele>1467.25</ele><time>2026-05-03T12:27:21.108Z</time></trkpt><trkpt lat="44.3193251" lon="6.6506899"><ele>1468.5</ele><time>2026-05-03T12:27:22.108Z</time></trkpt><trkpt lat="44.3193057" lon="6.6504996"><ele>1469.75</ele><time>2026-05-03T12:27:23.108Z</time></trkpt><trkpt lat="44.3192904" lon="6.6503154"><ele>1471.0</ele><time>2026-05-03T12:27:24.108Z</time></trkpt><trkpt lat="44.3192855" lon="6.6501266"><ele>1472.5</ele><time>2026-05-03T12:27:25.108Z</time></trkpt><trkpt lat="44.3192819" lon="6.6499163"><ele>1474.0</ele><time>2026-05-03T12:27:26.108Z</time></trkpt><trkpt lat="44.3192858" lon="6.6497286"><ele>1475.5</ele><time>2026-05-03T12:27:27.108Z</time></trkpt><trkpt lat="44.3192818" lon="6.6495391"><ele>1477.0</ele><time>2026-05-03T12:27:28.108Z</time></trkpt><trkpt lat="44.3192624" lon="6.6493506"><ele>1477.3333333333333</ele><time>2026-05-03T12:27:29.108Z</time></trkpt><trkpt lat="44.319242" lon="6.649127"><ele>1477.6666666666667</ele><time>2026-05-03T12:27:30.108Z</time></trkpt><trkpt lat="44.3192345" lon="6.6489245"><ele>1478.0</ele><time>2026-05-03T12:27:31.107Z</time></trkpt><trkpt lat="44.3192292" lon="6.6487236"><ele>1475.25</ele><time>2026-05-03T12:27:32.108Z</time></trkpt><trkpt lat="44.3192176" lon="6.6485318"><ele>1472.5</ele><time>2026-05-03T12:27:33.108Z</time></trkpt><trkpt lat="44.3192139" lon="6.6483298"><ele>1469.75</ele><time>2026-05-03T12:27:34.108Z</time></trkpt><trkpt lat="44.3191976" lon="6.648127"><ele>1467.0</ele><time>2026-05-03T12:27:35.107Z</time></trkpt><trkpt lat="44.3191817" lon="6.6479253"><ele>1467.25</ele><time>2026-05-03T12:27:36.108Z</time></trkpt><trkpt lat="44.319157" lon="6.6477263"><ele>1467.5</ele><time>2026-05-03T12:27:37.108Z</time></trkpt><trkpt lat="44.3191265" lon="6.6475254"><ele>1467.75</ele><time>2026-05-03T12:27:38.108Z</time></trkpt><trkpt lat="44.3190892" lon="6.6473329"><ele>1468.0</ele><time>2026-05-03T12:27:39.108Z</time></trkpt><trkpt lat="44.319051" lon="6.6471361"><ele>1468.75</ele><time>2026-05-03T12:27:40.108Z</time></trkpt><trkpt lat="44.3190285" lon="6.6469399"><ele>1469.5</ele><time>2026-05-03T12:27:41.107Z</time></trkpt><trkpt lat="44.3190048" lon="6.6467496"><ele>1470.25</ele><time>2026-05-03T12:27:42.108Z</time></trkpt><trkpt lat="44.3189973" lon="6.6465718"><ele>1471.0</ele><time>2026-05-03T12:27:43.108Z</time></trkpt><trkpt lat="44.3189961" lon="6.6464069"><ele>1471.0</ele><time>2026-05-03T12:27:44.108Z</time></trkpt><trkpt lat="44.319" lon="6.6462453"><ele>1471.0</ele><time>2026-05-03T12:27:45.108Z</time></trkpt><trkpt lat="44.3189993" lon="6.6460867"><ele>1471.0</ele><time>2026-05-03T12:27:46.108Z</time></trkpt><trkpt lat="44.3189926" lon="6.6459384"><ele>1471.0</ele><time>2026-05-03T12:27:47.108Z</time></trkpt><trkpt lat="44.3189917" lon="6.6457803"><ele>1471.0</ele><time>2026-05-03T12:27:48.108Z</time></trkpt><trkpt lat="44.3189962" lon="6.6456077"><ele>1470.75</ele><time>2026-05-03T12:27:49.108Z</time></trkpt><trkpt lat="44.3189888" lon="6.6454224"><ele>1470.5</ele><time>2026-05-03T12:27:50.107Z</time></trkpt><trkpt lat="44.3189821" lon="6.6452437"><ele>1470.25</ele><time>2026-05-03T12:27:51.108Z</time></trkpt><trkpt lat="44.3189758" lon="6.6450818"><ele>1470.0</ele><time>2026-05-03T12:27:52.108Z</time></trkpt><trkpt lat="44.3189611" lon="6.6449095"><ele>1470.0</ele><time>2026-05-03T12:27:53.108Z</time></trkpt><trkpt lat="44.3189231" lon="6.6447388"><ele>1470.0</ele><time>2026-05-03T12:27:54.108Z</time></trkpt><trkpt lat="44.3188905" lon="6.6445745"><ele>1470.0</ele><time>2026-05-03T12:27:55.108Z</time></trkpt><trkpt lat="44.318853" lon="6.6444307"><ele>1470.0</ele><time>2026-05-03T12:27:56.108Z</time></trkpt><trkpt lat="44.3188043" lon="6.6443028"><ele>1465.2</ele><time>2026-05-03T12:27:57.108Z</time></trkpt><trkpt lat="44.3187375" lon="6.6441929"><ele>1460.4</ele><time>2026-05-03T12:27:58.108Z</time></trkpt><trkpt lat="44.3186901" lon="6.6440864"><ele>1455.6</ele><time>2026-05-03T12:27:59.108Z</time></trkpt><trkpt lat="44.318657" lon="6.6439621"><ele>1450.8</ele><time>2026-05-03T12:28:00.108Z</time></trkpt><trkpt lat="44.3186441" lon="6.643821"><ele>1446.0</ele><time>2026-05-03T12:28:01.108Z</time></trkpt><trkpt lat="44.3186373" lon="6.643685"><ele>1447.8</ele><time>2026-05-03T12:28:02.108Z</time></trkpt><trkpt lat="44.3186002" lon="6.643554"><ele>1449.6</ele><time>2026-05-03T12:28:03.107Z</time></trkpt><trkpt lat="44.3185512" lon="6.6434371"><ele>1451.4</ele><time>2026-05-03T12:28:04.108Z</time></trkpt><trkpt lat="44.3185108" lon="6.6433125"><ele>1453.2</ele><time>2026-05-03T12:28:05.108Z</time></trkpt><trkpt lat="44.3184846" lon="6.6431531"><ele>1455.0</ele><time>2026-05-03T12:28:06.108Z</time></trkpt><trkpt lat="44.3184496" lon="6.6429864"><ele>1455.0</ele><time>2026-05-03T12:28:07.108Z</time></trkpt><trkpt lat="44.3184164" lon="6.642807"><ele>1455.0</ele><time>2026-05-03T12:28:08.107Z</time></trkpt><trkpt lat="44.3183948" lon="6.6426151"><ele>1455.0</ele><time>2026-05-03T12:28:09.108Z</time></trkpt><trkpt lat="44.3183827" lon="6.6424122"><ele>1455.0</ele><time>2026-05-03T12:28:10.107Z</time></trkpt><trkpt lat="44.3183759" lon="6.642201"><ele>1455.0</ele><time>2026-05-03T12:28:11.108Z</time></trkpt><trkpt lat="44.31838" lon="6.6419795"><ele>1455.0</ele><time>2026-05-03T12:28:12.108Z</time></trkpt><trkpt lat="44.3183863" lon="6.6417611"><ele>1455.0</ele><time>2026-05-03T12:28:13.108Z</time></trkpt><trkpt lat="44.3183901" lon="6.6415394"><ele>1455.25</ele><time>2026-05-03T12:28:14.108Z</time></trkpt><trkpt lat="44.3183872" lon="6.6413338"><ele>1455.5</ele><time>2026-05-03T12:28:15.108Z</time></trkpt><trkpt lat="44.3184036" lon="6.6411225"><ele>1455.75</ele><time>2026-05-03T12:28:16.108Z</time></trkpt><trkpt lat="44.3184226" lon="6.6409323"><ele>1456.0</ele><time>2026-05-03T12:28:17.108Z</time></trkpt><trkpt lat="44.3184371" lon="6.6407621"><ele>1455.0</ele><time>2026-05-03T12:28:18.108Z</time></trkpt><trkpt lat="44.3184325" lon="6.6405902"><ele>1454.0</ele><time>2026-05-03T12:28:19.108Z</time></trkpt><trkpt lat="44.3184137" lon="6.640413"><ele>1453.0</ele><time>2026-05-03T12:28:20.107Z</time></trkpt><trkpt lat="44.3183917" lon="6.6402225"><ele>1452.0</ele><time>2026-05-03T12:28:21.108Z</time></trkpt><trkpt lat="44.3183641" lon="6.6400286"><ele>1451.75</ele><time>2026-05-03T12:28:22.108Z</time></trkpt><trkpt lat="44.3183394" lon="6.639854"><ele>1451.5</ele><time>2026-05-03T12:28:23.108Z</time></trkpt><trkpt lat="44.3183116" lon="6.6396768"><ele>1451.25</ele><time>2026-05-03T12:28:24.108Z</time></trkpt><trkpt lat="44.318285" lon="6.6395237"><ele>1451.0</ele><time>2026-05-03T12:28:25.107Z</time></trkpt><trkpt lat="44.3182714" lon="6.6393585"><ele>1455.25</ele><time>2026-05-03T12:28:26.108Z</time></trkpt><trkpt lat="44.3182603" lon="6.6391976"><ele>1459.5</ele><time>2026-05-03T12:28:27.107Z</time></trkpt><trkpt lat="44.3182412" lon="6.6390191"><ele>1463.75</ele><time>2026-05-03T12:28:28.108Z</time></trkpt><trkpt lat="44.3182296" lon="6.6388317"><ele>1468.0</ele><time>2026-05-03T12:28:29.108Z</time></trkpt><trkpt lat="44.3182228" lon="6.638633"><ele>1468.0</ele><time>2026-05-03T12:28:30.108Z</time></trkpt><trkpt lat="44.3182232" lon="6.6384206"><ele>1468.0</ele><time>2026-05-03T12:28:31.107Z</time></trkpt><trkpt lat="44.3182126" lon="6.6381905"><ele>1468.0</ele><time>2026-05-03T12:28:32.107Z</time></trkpt><trkpt lat="44.3181995" lon="6.6379649"><ele>1470.0</ele><time>2026-05-03T12:28:33.108Z</time></trkpt><trkpt lat="44.3181837" lon="6.6377418"><ele>1472.0</ele><time>2026-05-03T12:28:34.108Z</time></trkpt><trkpt lat="44.3181708" lon="6.637536"><ele>1474.0</ele><time>2026-05-03T12:28:35.108Z</time></trkpt><trkpt lat="44.3181548" lon="6.6373344"><ele>1474.0</ele><time>2026-05-03T12:28:36.108Z</time></trkpt><trkpt lat="44.3181544" lon="6.637149"><ele>1474.0</ele><time>2026-05-03T12:28:37.108Z</time></trkpt><trkpt lat="44.3181632" lon="6.6369671"><ele>1474.0</ele><time>2026-05-03T12:28:38.108Z</time></trkpt><trkpt lat="44.3181872" lon="6.6367659"><ele>1474.0</ele><time>2026-05-03T12:28:39.108Z</time></trkpt><trkpt lat="44.3182067" lon="6.6365634"><ele>1466.6666666666665</ele><time>2026-05-03T12:28:40.108Z</time></trkpt><trkpt lat="44.3182347" lon="6.6363597"><ele>1459.3333333333333</ele><time>2026-05-03T12:28:41.108Z</time></trkpt><trkpt lat="44.3182475" lon="6.6361448"><ele>1452.0</ele><time>2026-05-03T12:28:42.108Z</time></trkpt><trkpt lat="44.3182593" lon="6.6359314"><ele>1446.5</ele><time>2026-05-03T12:28:43.107Z</time></trkpt><trkpt lat="44.3182654" lon="6.6357249"><ele>1441.0</ele><time>2026-05-03T12:28:44.108Z</time></trkpt><trkpt lat="44.3182679" lon="6.6355187"><ele>1435.5</ele><time>2026-05-03T12:28:45.108Z</time></trkpt><trkpt lat="44.3182736" lon="6.6353138"><ele>1430.0</ele><time>2026-05-03T12:28:46.108Z</time></trkpt><trkpt lat="44.3182742" lon="6.6351166"><ele>1430.0</ele><time>2026-05-03T12:28:47.108Z</time></trkpt><trkpt lat="44.3182793" lon="6.6349408"><ele>1430.0</ele><time>2026-05-03T12:28:48.107Z</time></trkpt><trkpt lat="44.3182827" lon="6.6347782"><ele>1430.0</ele><time>2026-05-03T12:28:49.108Z</time></trkpt><trkpt lat="44.318304" lon="6.6346158"><ele>1430.0</ele><time>2026-05-03T12:28:50.108Z</time></trkpt><trkpt lat="44.3183671" lon="6.6344601"><ele>1427.5</ele><time>2026-05-03T12:28:51.108Z</time></trkpt><trkpt lat="44.3184347" lon="6.6343021"><ele>1425.0</ele><time>2026-05-03T12:28:52.108Z</time></trkpt><trkpt lat="44.3185089" lon="6.6341349"><ele>1422.5</ele><time>2026-05-03T12:28:53.108Z</time></trkpt><trkpt lat="44.318556" lon="6.6339735"><ele>1420.0</ele><time>2026-05-03T12:28:54.108Z</time></trkpt><trkpt lat="44.3185828" lon="6.6337934"><ele>1420.0</ele><time>2026-05-03T12:28:55.108Z</time></trkpt><trkpt lat="44.3185871" lon="6.6336063"><ele>1420.0</ele><time>2026-05-03T12:28:56.108Z</time></trkpt><trkpt lat="44.318565" lon="6.6334151"><ele>1420.0</ele><time>2026-05-03T12:28:57.108Z</time></trkpt><trkpt lat="44.318549" lon="6.6332183"><ele>1420.0</ele><time>2026-05-03T12:28:58.108Z</time></trkpt><trkpt lat="44.318537" lon="6.6330212"><ele>1420.0</ele><time>2026-05-03T12:28:59.108Z</time></trkpt><trkpt lat="44.3185379" lon="6.6328419"><ele>1420.0</ele><time>2026-05-03T12:29:00.107Z</time></trkpt><trkpt lat="44.3185409" lon="6.6326595"><ele>1420.0</ele><time>2026-05-03T12:29:01.108Z</time></trkpt><trkpt lat="44.3185721" lon="6.6324793"><ele>1420.0</ele><time>2026-05-03T12:29:02.108Z</time></trkpt><trkpt lat="44.3186066" lon="6.6322935"><ele>1419.5</ele><time>2026-05-03T12:29:03.107Z</time></trkpt><trkpt lat="44.3186227" lon="6.6320878"><ele>1419.0</ele><time>2026-05-03T12:29:04.108Z</time></trkpt><trkpt lat="44.3186442" lon="6.6318986"><ele>1418.5</ele><time>2026-05-03T12:29:05.108Z</time></trkpt><trkpt lat="44.3186623" lon="6.6317153"><ele>1418.0</ele><time>2026-05-03T12:29:06.108Z</time></trkpt><trkpt lat="44.3186883" lon="6.6315464"><ele>1418.0</ele><time>2026-05-03T12:29:07.107Z</time></trkpt><trkpt lat="44.3187122" lon="6.6313748"><ele>1418.0</ele><time>2026-05-03T12:29:08.108Z</time></trkpt><trkpt lat="44.3187295" lon="6.6312312"><ele>1418.0</ele><time>2026-05-03T12:29:09.108Z</time></trkpt><trkpt lat="44.3187257" lon="6.6310889"><ele>1418.0</ele><time>2026-05-03T12:29:10.108Z</time></trkpt><trkpt lat="44.3187122" lon="6.6309401"><ele>1418.0</ele><time>2026-05-03T12:29:11.108Z</time></trkpt><trkpt lat="44.3186713" lon="6.6307804"><ele>1417.5</ele><time>2026-05-03T12:29:12.108Z</time></trkpt><trkpt lat="44.3186427" lon="6.6306147"><ele>1417.0</ele><time>2026-05-03T12:29:13.108Z</time></trkpt><trkpt lat="44.3186068" lon="6.630427"><ele>1416.5</ele><time>2026-05-03T12:29:14.108Z</time></trkpt><trkpt lat="44.3185794" lon="6.6302741"><ele>1416.0</ele><time>2026-05-03T12:29:15.108Z</time></trkpt><trkpt lat="44.3185557" lon="6.6301448"><ele>1414.6</ele><time>2026-05-03T12:29:16.108Z</time></trkpt><trkpt lat="44.318543" lon="6.6300317"><ele>1413.1999999999998</ele><time>2026-05-03T12:29:17.108Z</time></trkpt><trkpt lat="44.3185566" lon="6.6299156"><ele>1411.8000000000002</ele><time>2026-05-03T12:29:18.108Z</time></trkpt><trkpt lat="44.3185997" lon="6.6297896"><ele>1410.4</ele><time>2026-05-03T12:29:19.108Z</time></trkpt><trkpt lat="44.3186652" lon="6.629652"><ele>1409.0</ele><time>2026-05-03T12:29:20.108Z</time></trkpt><trkpt lat="44.3187257" lon="6.629512"><ele>1405.6666666666667</ele><time>2026-05-03T12:29:21.108Z</time></trkpt><trkpt lat="44.3187842" lon="6.6293075"><ele>1402.3333333333333</ele><time>2026-05-03T12:29:22.107Z</time></trkpt><trkpt lat="44.3188343" lon="6.6291137"><ele>1399.0</ele><time>2026-05-03T12:29:23.108Z</time></trkpt><trkpt lat="44.3188841" lon="6.6289204"><ele>1402.5</ele><time>2026-05-03T12:29:24.108Z</time></trkpt><trkpt lat="44.3189295" lon="6.6287331"><ele>1406.0</ele><time>2026-05-03T12:29:25.108Z</time></trkpt><trkpt lat="44.3189745" lon="6.6285477"><ele>1409.5</ele><time>2026-05-03T12:29:26.107Z</time></trkpt><trkpt lat="44.3190075" lon="6.6283613"><ele>1413.0</ele><time>2026-05-03T12:29:27.108Z</time></trkpt><trkpt lat="44.319046" lon="6.6281738"><ele>1413.0</ele><time>2026-05-03T12:29:28.108Z</time></trkpt><trkpt lat="44.3191044" lon="6.6279855"><ele>1413.0</ele><time>2026-05-03T12:29:29.108Z</time></trkpt><trkpt lat="44.3191772" lon="6.6278145"><ele>1413.0</ele><time>2026-05-03T12:29:30.108Z</time></trkpt><trkpt lat="44.319261" lon="6.6276497"><ele>1413.0</ele><time>2026-05-03T12:29:31.107Z</time></trkpt><trkpt lat="44.3193576" lon="6.6274831"><ele>1407.25</ele><time>2026-05-03T12:29:32.108Z</time></trkpt><trkpt lat="44.3194604" lon="6.6273454"><ele>1401.5</ele><time>2026-05-03T12:29:33.108Z</time></trkpt><trkpt lat="44.3195554" lon="6.627212"><ele>1395.75</ele><time>2026-05-03T12:29:34.107Z</time></trkpt><trkpt lat="44.3196415" lon="6.6270995"><ele>1390.0</ele><time>2026-05-03T12:29:35.108Z</time></trkpt><trkpt lat="44.3197156" lon="6.626997"><ele>1392.2</ele><time>2026-05-03T12:29:36.108Z</time></trkpt><trkpt lat="44.3197657" lon="6.6268866"><ele>1394.4</ele><time>2026-05-03T12:29:37.107Z</time></trkpt><trkpt lat="44.3197899" lon="6.6267437"><ele>1396.6</ele><time>2026-05-03T12:29:38.108Z</time></trkpt><trkpt lat="44.3198191" lon="6.6266158"><ele>1398.8</ele><time>2026-05-03T12:29:39.108Z</time></trkpt><trkpt lat="44.3198717" lon="6.6264842"><ele>1401.0</ele><time>2026-05-03T12:29:40.108Z</time></trkpt><trkpt lat="44.3199544" lon="6.6263778"><ele>1401.0</ele><time>2026-05-03T12:29:41.108Z</time></trkpt><trkpt lat="44.3200296" lon="6.6262722"><ele>1401.0</ele><time>2026-05-03T12:29:42.108Z</time></trkpt><trkpt lat="44.320098" lon="6.6261526"><ele>1401.0</ele><time>2026-05-03T12:29:43.108Z</time></trkpt><trkpt lat="44.3201166" lon="6.6260319"><ele>1401.0</ele><time>2026-05-03T12:29:44.108Z</time></trkpt><trkpt lat="44.3201178" lon="6.6258379"><ele>1401.0</ele><time>2026-05-03T12:29:45.108Z</time></trkpt><trkpt lat="44.3201302" lon="6.6256578"><ele>1396.25</ele><time>2026-05-03T12:29:46.108Z</time></trkpt><trkpt lat="44.3201493" lon="6.6254872"><ele>1391.5</ele><time>2026-05-03T12:29:47.108Z</time></trkpt><trkpt lat="44.3201753" lon="6.6253009"><ele>1386.75</ele><time>2026-05-03T12:29:48.108Z</time></trkpt><trkpt lat="44.3202009" lon="6.6251429"><ele>1382.0</ele><time>2026-05-03T12:29:49.108Z</time></trkpt><trkpt lat="44.3202355" lon="6.6249974"><ele>1381.3999999999999</ele><time>2026-05-03T12:29:50.107Z</time></trkpt><trkpt lat="44.3202785" lon="6.6248549"><ele>1380.8</ele><time>2026-05-03T12:29:51.107Z</time></trkpt><trkpt lat="44.3202975" lon="6.6247221"><ele>1380.2</ele><time>2026-05-03T12:29:52.107Z</time></trkpt><trkpt lat="44.3202861" lon="6.6245801"><ele>1379.6</ele><time>2026-05-03T12:29:53.108Z</time></trkpt><trkpt lat="44.3202572" lon="6.6244166"><ele>1379.0</ele><time>2026-05-03T12:29:54.107Z</time></trkpt><trkpt lat="44.3202214" lon="6.6242598"><ele>1379.0</ele><time>2026-05-03T12:29:55.108Z</time></trkpt><trkpt lat="44.3201867" lon="6.6241071"><ele>1379.0</ele><time>2026-05-03T12:29:56.108Z</time></trkpt><trkpt lat="44.3201462" lon="6.6239663"><ele>1379.0</ele><time>2026-05-03T12:29:57.108Z</time></trkpt><trkpt lat="44.3201003" lon="6.6238357"><ele>1379.0</ele><time>2026-05-03T12:29:58.107Z</time></trkpt><trkpt lat="44.32005" lon="6.6237222"><ele>1379.0</ele><time>2026-05-03T12:29:59.107Z</time></trkpt><trkpt lat="44.3200002" lon="6.6236068"><ele>1377.4</ele><time>2026-05-03T12:30:00.108Z</time></trkpt><trkpt lat="44.3199661" lon="6.6234929"><ele>1375.8000000000002</ele><time>2026-05-03T12:30:01.108Z</time></trkpt><trkpt lat="44.319962" lon="6.6233909"><ele>1374.1999999999998</ele><time>2026-05-03T12:30:02.108Z</time></trkpt><trkpt lat="44.3199639" lon="6.6232632"><ele>1372.6</ele><time>2026-05-03T12:30:03.107Z</time></trkpt><trkpt lat="44.3200056" lon="6.6231182"><ele>1371.0</ele><time>2026-05-03T12:30:04.108Z</time></trkpt><trkpt lat="44.3200704" lon="6.6229408"><ele>1368.0</ele><time>2026-05-03T12:30:05.108Z</time></trkpt><trkpt lat="44.3201073" lon="6.6227764"><ele>1365.0</ele><time>2026-05-03T12:30:06.108Z</time></trkpt><trkpt lat="44.32013" lon="6.6226063"><ele>1362.0</ele><time>2026-05-03T12:30:07.108Z</time></trkpt><trkpt lat="44.3201502" lon="6.6224057"><ele>1359.0</ele><time>2026-05-03T12:30:08.108Z</time></trkpt><trkpt lat="44.3201785" lon="6.6222176"><ele>1359.0</ele><time>2026-05-03T12:30:09.108Z</time></trkpt><trkpt lat="44.3201887" lon="6.6220044"><ele>1359.0</ele><time>2026-05-03T12:30:10.108Z</time></trkpt><trkpt lat="44.3202227" lon="6.6218151"><ele>1359.0</ele><time>2026-05-03T12:30:11.108Z</time></trkpt><trkpt lat="44.320268" lon="6.6216421"><ele>1359.0</ele><time>2026-05-03T12:30:12.108Z</time></trkpt><trkpt lat="44.3203088" lon="6.6214645"><ele>1358.25</ele><time>2026-05-03T12:30:13.108Z</time></trkpt><trkpt lat="44.3203365" lon="6.621286"><ele>1357.5</ele><time>2026-05-03T12:30:14.107Z</time></trkpt><trkpt lat="44.3203525" lon="6.6211015"><ele>1356.75</ele><time>2026-05-03T12:30:15.108Z</time></trkpt><trkpt lat="44.3203584" lon="6.6209217"><ele>1356.0</ele><time>2026-05-03T12:30:16.108Z</time></trkpt><trkpt lat="44.3203599" lon="6.6207428"><ele>1356.0</ele><time>2026-05-03T12:30:17.108Z</time></trkpt><trkpt lat="44.3203605" lon="6.620561"><ele>1356.0</ele><time>2026-05-03T12:30:18.108Z</time></trkpt><trkpt lat="44.3203508" lon="6.6203788"><ele>1356.0</ele><time>2026-05-03T12:30:19.108Z</time></trkpt><trkpt lat="44.320356" lon="6.6202058"><ele>1356.0</ele><time>2026-05-03T12:30:20.108Z</time></trkpt><trkpt lat="44.3203632" lon="6.6200405"><ele>1359.0</ele><time>2026-05-03T12:30:21.108Z</time></trkpt><trkpt lat="44.320382" lon="6.6198698"><ele>1362.0</ele><time>2026-05-03T12:30:22.108Z</time></trkpt><trkpt lat="44.3204194" lon="6.6196902"><ele>1365.0</ele><time>2026-05-03T12:30:23.107Z</time></trkpt><trkpt lat="44.3204563" lon="6.6195093"><ele>1368.0</ele><time>2026-05-03T12:30:24.108Z</time></trkpt><trkpt lat="44.3204926" lon="6.6193301"><ele>1369.25</ele><time>2026-05-03T12:30:25.108Z</time></trkpt><trkpt lat="44.3205298" lon="6.6191474"><ele>1370.5</ele><time>2026-05-03T12:30:26.107Z</time></trkpt><trkpt lat="44.3205715" lon="6.6189712"><ele>1371.75</ele><time>2026-05-03T12:30:27.108Z</time></trkpt><trkpt lat="44.3206131" lon="6.6188065"><ele>1373.0</ele><time>2026-05-03T12:30:28.108Z</time></trkpt><trkpt lat="44.320655" lon="6.6186384"><ele>1367.5</ele><time>2026-05-03T12:30:29.108Z</time></trkpt><trkpt lat="44.3207163" lon="6.6184758"><ele>1362.0</ele><time>2026-05-03T12:30:30.108Z</time></trkpt><trkpt lat="44.3208001" lon="6.6183767"><ele>1356.5</ele><time>2026-05-03T12:30:31.108Z</time></trkpt><trkpt lat="44.3208772" lon="6.6182707"><ele>1351.0</ele><time>2026-05-03T12:30:32.108Z</time></trkpt><trkpt lat="44.3209716" lon="6.6181736"><ele>1351.0</ele><time>2026-05-03T12:30:33.108Z</time></trkpt><trkpt lat="44.3210493" lon="6.6180442"><ele>1351.0</ele><time>2026-05-03T12:30:34.108Z</time></trkpt><trkpt lat="44.3211161" lon="6.6178977"><ele>1351.0</ele><time>2026-05-03T12:30:35.108Z</time></trkpt><trkpt lat="44.3211809" lon="6.6177605"><ele>1351.0</ele><time>2026-05-03T12:30:36.108Z</time></trkpt><trkpt lat="44.3212488" lon="6.6176638"><ele>1350.0</ele><time>2026-05-03T12:30:37.107Z</time></trkpt><trkpt lat="44.3213476" lon="6.6175734"><ele>1349.0</ele><time>2026-05-03T12:30:38.108Z</time></trkpt><trkpt lat="44.3214647" lon="6.6174908"><ele>1348.0</ele><time>2026-05-03T12:30:39.108Z</time></trkpt><trkpt lat="44.3215818" lon="6.6174041"><ele>1347.0</ele><time>2026-05-03T12:30:40.108Z</time></trkpt><trkpt lat="44.3217034" lon="6.6172961"><ele>1347.0</ele><time>2026-05-03T12:30:41.108Z</time></trkpt><trkpt lat="44.3218165" lon="6.6171955"><ele>1347.0</ele><time>2026-05-03T12:30:42.108Z</time></trkpt><trkpt lat="44.3219285" lon="6.6170908"><ele>1347.0</ele><time>2026-05-03T12:30:43.108Z</time></trkpt><trkpt lat="44.3220383" lon="6.6169902"><ele>1347.0</ele><time>2026-05-03T12:30:44.108Z</time></trkpt><trkpt lat="44.3221413" lon="6.616904"><ele>1347.6</ele><time>2026-05-03T12:30:45.108Z</time></trkpt><trkpt lat="44.3222372" lon="6.6168299"><ele>1348.1999999999998</ele><time>2026-05-03T12:30:46.108Z</time></trkpt><trkpt lat="44.3223257" lon="6.6167441"><ele>1348.8</ele><time>2026-05-03T12:30:47.108Z</time></trkpt><trkpt lat="44.3223859" lon="6.6166744"><ele>1349.4</ele><time>2026-05-03T12:30:48.107Z</time></trkpt><trkpt lat="44.3224065" lon="6.6165455"><ele>1350.0</ele><time>2026-05-03T12:30:49.108Z</time></trkpt><trkpt lat="44.322402" lon="6.6164294"><ele>1350.0</ele><time>2026-05-03T12:30:50.108Z</time></trkpt><trkpt lat="44.3223793" lon="6.6162995"><ele>1350.0</ele><time>2026-05-03T12:30:51.108Z</time></trkpt><trkpt lat="44.3223657" lon="6.6161718"><ele>1350.0</ele><time>2026-05-03T12:30:52.108Z</time></trkpt><trkpt lat="44.3223445" lon="6.6160246"><ele>1350.0</ele><time>2026-05-03T12:30:53.107Z</time></trkpt><trkpt lat="44.3223222" lon="6.6158866"><ele>1350.0</ele><time>2026-05-03T12:30:54.108Z</time></trkpt><trkpt lat="44.3223051" lon="6.6157531"><ele>1350.6</ele><time>2026-05-03T12:30:55.108Z</time></trkpt><trkpt lat="44.3223088" lon="6.6156362"><ele>1351.2</ele><time>2026-05-03T12:30:56.108Z</time></trkpt><trkpt lat="44.3223422" lon="6.6155259"><ele>1351.8000000000002</ele><time>2026-05-03T12:30:57.107Z</time></trkpt><trkpt lat="44.3223921" lon="6.6154313"><ele>1352.4</ele><time>2026-05-03T12:30:58.107Z</time></trkpt><trkpt lat="44.3224817" lon="6.6153021"><ele>1353.0</ele><time>2026-05-03T12:30:59.108Z</time></trkpt><trkpt lat="44.3225667" lon="6.6151937"><ele>1353.0</ele><time>2026-05-03T12:31:00.107Z</time></trkpt><trkpt lat="44.3226741" lon="6.6151089"><ele>1353.0</ele><time>2026-05-03T12:31:01.108Z</time></trkpt><trkpt lat="44.3228237" lon="6.6150558"><ele>1353.0</ele><time>2026-05-03T12:31:02.108Z</time></trkpt><trkpt lat="44.3229604" lon="6.6150086"><ele>1353.0</ele><time>2026-05-03T12:31:03.108Z</time></trkpt><trkpt lat="44.3230897" lon="6.614969"><ele>1347.25</ele><time>2026-05-03T12:31:04.108Z</time></trkpt><trkpt lat="44.3232119" lon="6.6149283"><ele>1341.5</ele><time>2026-05-03T12:31:05.108Z</time></trkpt><trkpt lat="44.3233303" lon="6.6148739"><ele>1335.75</ele><time>2026-05-03T12:31:06.108Z</time></trkpt><trkpt lat="44.3234535" lon="6.6148037"><ele>1330.0</ele><time>2026-05-03T12:31:07.108Z</time></trkpt><trkpt lat="44.3235761" lon="6.6147137"><ele>1330.0</ele><time>2026-05-03T12:31:08.108Z</time></trkpt><trkpt lat="44.3237007" lon="6.6146116"><ele>1330.0</ele><time>2026-05-03T12:31:09.108Z</time></trkpt><trkpt lat="44.3238277" lon="6.6144877"><ele>1330.0</ele><time>2026-05-03T12:31:10.108Z</time></trkpt><trkpt lat="44.3239497" lon="6.6143664"><ele>1330.0</ele><time>2026-05-03T12:31:11.108Z</time></trkpt><trkpt lat="44.3240719" lon="6.6142427"><ele>1334.5</ele><time>2026-05-03T12:31:12.108Z</time></trkpt><trkpt lat="44.324183" lon="6.6141273"><ele>1339.0</ele><time>2026-05-03T12:31:13.108Z</time></trkpt><trkpt lat="44.3242993" lon="6.6140134"><ele>1343.5</ele><time>2026-05-03T12:31:14.108Z</time></trkpt><trkpt lat="44.3243999" lon="6.6139356"><ele>1348.0</ele><time>2026-05-03T12:31:15.108Z</time></trkpt><trkpt lat="44.3245142" lon="6.6138998"><ele>1348.0</ele><time>2026-05-03T12:31:16.108Z</time></trkpt><trkpt lat="44.3246111" lon="6.6138623"><ele>1348.0</ele><time>2026-05-03T12:31:17.108Z</time></trkpt><trkpt lat="44.3247602" lon="6.6138514"><ele>1348.0</ele><time>2026-05-03T12:31:18.107Z</time></trkpt><trkpt lat="44.3249161" lon="6.6138401"><ele>1348.0</ele><time>2026-05-03T12:31:19.108Z</time></trkpt><trkpt lat="44.3250607" lon="6.6138315"><ele>1342.5</ele><time>2026-05-03T12:31:20.108Z</time></trkpt><trkpt lat="44.3252017" lon="6.6138359"><ele>1337.0</ele><time>2026-05-03T12:31:21.108Z</time></trkpt><trkpt lat="44.3253348" lon="6.6138381"><ele>1331.5</ele><time>2026-05-03T12:31:22.108Z</time></trkpt><trkpt lat="44.3254686" lon="6.613832"><ele>1326.0</ele><time>2026-05-03T12:31:23.108Z</time></trkpt><trkpt lat="44.3255912" lon="6.6138325"><ele>1326.0</ele><time>2026-05-03T12:31:24.108Z</time></trkpt><trkpt lat="44.3257139" lon="6.6138289"><ele>1326.0</ele><time>2026-05-03T12:31:25.107Z</time></trkpt><trkpt lat="44.3258226" lon="6.6137838"><ele>1326.0</ele><time>2026-05-03T12:31:26.108Z</time></trkpt><trkpt lat="44.3259247" lon="6.6137229"><ele>1326.0</ele><time>2026-05-03T12:31:27.108Z</time></trkpt><trkpt lat="44.3260151" lon="6.613669"><ele>1326.0</ele><time>2026-05-03T12:31:28.107Z</time></trkpt><trkpt lat="44.3260835" lon="6.6136029"><ele>1326.8</ele><time>2026-05-03T12:31:29.108Z</time></trkpt><trkpt lat="44.3261447" lon="6.6135576"><ele>1327.6</ele><time>2026-05-03T12:31:30.108Z</time></trkpt><trkpt lat="44.3262047" lon="6.6135175"><ele>1328.4</ele><time>2026-05-03T12:31:31.108Z</time></trkpt><trkpt lat="44.3262962" lon="6.6135024"><ele>1329.2</ele><time>2026-05-03T12:31:33.108Z</time></trkpt><trkpt lat="44.3264312" lon="6.6136024"><ele>1330.0</ele><time>2026-05-03T12:31:34.108Z</time></trkpt><trkpt lat="44.326539" lon="6.6136647"><ele>1331.75</ele><time>2026-05-03T12:31:35.108Z</time></trkpt><trkpt lat="44.3266529" lon="6.613722"><ele>1333.5</ele><time>2026-05-03T12:31:36.108Z</time></trkpt><trkpt lat="44.3267791" lon="6.613771"><ele>1335.25</ele><time>2026-05-03T12:31:37.107Z</time></trkpt><trkpt lat="44.3269004" lon="6.6138022"><ele>1337.0</ele><time>2026-05-03T12:31:38.108Z</time></trkpt><trkpt lat="44.3270297" lon="6.6137929"><ele>1337.0</ele><time>2026-05-03T12:31:39.108Z</time></trkpt><trkpt lat="44.3271585" lon="6.6137798"><ele>1337.0</ele><time>2026-05-03T12:31:40.108Z</time></trkpt><trkpt lat="44.3272778" lon="6.613727"><ele>1337.0</ele><time>2026-05-03T12:31:41.107Z</time></trkpt><trkpt lat="44.3273905" lon="6.6136741"><ele>1337.0</ele><time>2026-05-03T12:31:42.108Z</time></trkpt><trkpt lat="44.3274934" lon="6.6135961"><ele>1332.6</ele><time>2026-05-03T12:31:43.108Z</time></trkpt><trkpt lat="44.3275922" lon="6.6134893"><ele>1328.1999999999998</ele><time>2026-05-03T12:31:44.108Z</time></trkpt><trkpt lat="44.3276956" lon="6.6134132"><ele>1323.8</ele><time>2026-05-03T12:31:45.108Z</time></trkpt><trkpt lat="44.327789" lon="6.6133519"><ele>1319.4</ele><time>2026-05-03T12:31:46.108Z</time></trkpt><trkpt lat="44.3278824" lon="6.6133101"><ele>1315.0</ele><time>2026-05-03T12:31:47.108Z</time></trkpt><trkpt lat="44.32798" lon="6.6132673"><ele>1316.25</ele><time>2026-05-03T12:31:48.108Z</time></trkpt><trkpt lat="44.3280748" lon="6.6132656"><ele>1317.5</ele><time>2026-05-03T12:31:49.108Z</time></trkpt><trkpt lat="44.328204" lon="6.6133677"><ele>1318.75</ele><time>2026-05-03T12:31:50.107Z</time></trkpt><trkpt lat="44.3283351" lon="6.6134115"><ele>1320.0</ele><time>2026-05-03T12:31:51.108Z</time></trkpt><trkpt lat="44.3284473" lon="6.6134413"><ele>1320.0</ele><time>2026-05-03T12:31:52.108Z</time></trkpt><trkpt lat="44.3285811" lon="6.6134709"><ele>1320.0</ele><time>2026-05-03T12:31:53.108Z</time></trkpt><trkpt lat="44.3287131" lon="6.6134602"><ele>1320.0</ele><time>2026-05-03T12:31:54.108Z</time></trkpt><trkpt lat="44.3288331" lon="6.613455"><ele>1320.0</ele><time>2026-05-03T12:31:55.108Z</time></trkpt><trkpt lat="44.3289631" lon="6.613462"><ele>1320.75</ele><time>2026-05-03T12:31:56.107Z</time></trkpt><trkpt lat="44.3290872" lon="6.6134655"><ele>1321.5</ele><time>2026-05-03T12:31:57.108Z</time></trkpt><trkpt lat="44.329217" lon="6.6134911"><ele>1322.25</ele><time>2026-05-03T12:31:58.107Z</time></trkpt><trkpt lat="44.3293546" lon="6.6135299"><ele>1323.0</ele><time>2026-05-03T12:31:59.107Z</time></trkpt><trkpt lat="44.3294736" lon="6.6135908"><ele>1338.5</ele><time>2026-05-03T12:32:00.107Z</time></trkpt><trkpt lat="44.3296288" lon="6.6136897"><ele>1354.0</ele><time>2026-05-03T12:32:01.108Z</time></trkpt><trkpt lat="44.329745" lon="6.6137863"><ele>1369.5</ele><time>2026-05-03T12:32:02.108Z</time></trkpt><trkpt lat="44.329847" lon="6.6138542"><ele>1385.0</ele><time>2026-05-03T12:32:03.108Z</time></trkpt><trkpt lat="44.3299342" lon="6.6138771"><ele>1385.0</ele><time>2026-05-03T12:32:04.108Z</time></trkpt><trkpt lat="44.3300618" lon="6.6139027"><ele>1385.0</ele><time>2026-05-03T12:32:05.107Z</time></trkpt><trkpt lat="44.3301575" lon="6.6139267"><ele>1385.0</ele><time>2026-05-03T12:32:06.107Z</time></trkpt><trkpt lat="44.3302546" lon="6.6139522"><ele>1385.0</ele><time>2026-05-03T12:32:07.108Z</time></trkpt><trkpt lat="44.3303183" lon="6.6140336"><ele>1385.0</ele><time>2026-05-03T12:32:08.108Z</time></trkpt><trkpt lat="44.3304239" lon="6.6141552"><ele>1385.0</ele><time>2026-05-03T12:32:09.108Z</time></trkpt><trkpt lat="44.3305006" lon="6.6142584"><ele>1385.0</ele><time>2026-05-03T12:32:10.107Z</time></trkpt><trkpt lat="44.3305909" lon="6.6143362"><ele>1385.0</ele><time>2026-05-03T12:32:11.107Z</time></trkpt><trkpt lat="44.3307189" lon="6.6143261"><ele>1385.0</ele><time>2026-05-03T12:32:12.108Z</time></trkpt><trkpt lat="44.3308447" lon="6.614332"><ele>1385.0</ele><time>2026-05-03T12:32:13.108Z</time></trkpt><trkpt lat="44.330953" lon="6.6143589"><ele>1385.0</ele><time>2026-05-03T12:32:14.107Z</time></trkpt><trkpt lat="44.3310493" lon="6.6143422"><ele>1385.0</ele><time>2026-05-03T12:32:15.108Z</time></trkpt><trkpt lat="44.3311485" lon="6.6143313"><ele>1385.0</ele><time>2026-05-03T12:32:16.107Z</time></trkpt><trkpt lat="44.3312416" lon="6.614338"><ele>1385.0</ele><time>2026-05-03T12:32:17.107Z</time></trkpt><trkpt lat="44.3313164" lon="6.6143306"><ele>1385.0</ele><time>2026-05-03T12:32:18.105Z</time></trkpt><trkpt lat="44.3314074" lon="6.6143022"><ele>1385.0</ele><time>2026-05-03T12:32:19.108Z</time></trkpt><trkpt lat="44.3314984" lon="6.6141963"><ele>1385.0</ele><time>2026-05-03T12:32:20.111Z</time></trkpt><trkpt lat="44.3315883" lon="6.6140959"><ele>1385.0</ele><time>2026-05-03T12:32:21.107Z</time></trkpt><trkpt lat="44.3316871" lon="6.6140155"><ele>1385.0</ele><time>2026-05-03T12:32:22.108Z</time></trkpt><trkpt lat="44.3317942" lon="6.6139018"><ele>1385.0</ele><time>2026-05-03T12:32:23.108Z</time></trkpt><trkpt lat="44.3318676" lon="6.6138453"><ele>1385.0</ele><time>2026-05-03T12:32:24.107Z</time></trkpt><trkpt lat="44.3319749" lon="6.6138286"><ele>1385.0</ele><time>2026-05-03T12:32:25.108Z</time></trkpt><trkpt lat="44.3320723" lon="6.6138258"><ele>1385.0</ele><time>2026-05-03T12:32:26.108Z</time></trkpt><trkpt lat="44.3321856" lon="6.6138368"><ele>1385.0</ele><time>2026-05-03T12:32:27.108Z</time></trkpt><trkpt lat="44.332303" lon="6.6138773"><ele>1385.0</ele><time>2026-05-03T12:32:28.107Z</time></trkpt><trkpt lat="44.3324343" lon="6.6139231"><ele>1385.0</ele><time>2026-05-03T12:32:29.107Z</time></trkpt><trkpt lat="44.3325883" lon="6.6139698"><ele>1385.0</ele><time>2026-05-03T12:32:30.108Z</time></trkpt><trkpt lat="44.3327426" lon="6.6140003"><ele>1385.0</ele><time>2026-05-03T12:32:31.108Z</time></trkpt><trkpt lat="44.3328712" lon="6.6140513"><ele>1359.25</ele><time>2026-05-03T12:32:32.108Z</time></trkpt><trkpt lat="44.3329881" lon="6.6140999"><ele>1333.5</ele><time>2026-05-03T12:32:33.108Z</time></trkpt><trkpt lat="44.3331125" lon="6.614164"><ele>1307.75</ele><time>2026-05-03T12:32:34.108Z</time></trkpt><trkpt lat="44.3332489" lon="6.6142815"><ele>1282.0</ele><time>2026-05-03T12:32:35.107Z</time></trkpt><trkpt lat="44.3334476" lon="6.614328"><ele>1282.0</ele><time>2026-05-03T12:32:36.108Z</time></trkpt><trkpt lat="44.3335885" lon="6.6143886"><ele>1282.0</ele><time>2026-05-03T12:32:37.108Z</time></trkpt><trkpt lat="44.3336843" lon="6.6143857"><ele>1282.0</ele><time>2026-05-03T12:32:38.108Z</time></trkpt><trkpt lat="44.3337809" lon="6.6143654"><ele>1282.0</ele><time>2026-05-03T12:32:40.108Z</time></trkpt><trkpt lat="44.3338432" lon="6.6144018"><ele>1282.0</ele><time>2026-05-03T12:32:41.108Z</time></trkpt><trkpt lat="44.3339572" lon="6.6144844"><ele>1279.1999999999998</ele><time>2026-05-03T12:32:43.108Z</time></trkpt><trkpt lat="44.3340156" lon="6.6145485"><ele>1276.3999999999999</ele><time>2026-05-03T12:32:44.108Z</time></trkpt><trkpt lat="44.3341128" lon="6.6146164"><ele>1273.6</ele><time>2026-05-03T12:32:45.108Z</time></trkpt><trkpt lat="44.3341911" lon="6.6146609"><ele>1270.8</ele><time>2026-05-03T12:32:46.108Z</time></trkpt><trkpt lat="44.3342811" lon="6.6147002"><ele>1268.0</ele><time>2026-05-03T12:32:47.107Z</time></trkpt><trkpt lat="44.3344297" lon="6.6147388"><ele>1268.0</ele><time>2026-05-03T12:32:48.107Z</time></trkpt><trkpt lat="44.3344976" lon="6.6148271"><ele>1268.0</ele><time>2026-05-03T12:32:49.108Z</time></trkpt><trkpt lat="44.3345812" lon="6.6148988"><ele>1268.0</ele><time>2026-05-03T12:32:50.108Z</time></trkpt><trkpt lat="44.3346735" lon="6.6149674"><ele>1268.0</ele><time>2026-05-03T12:32:51.107Z</time></trkpt><trkpt lat="44.3347815" lon="6.6150453"><ele>1268.0</ele><time>2026-05-03T12:32:52.108Z</time></trkpt><trkpt lat="44.3348836" lon="6.6151366"><ele>1268.5</ele><time>2026-05-03T12:32:53.108Z</time></trkpt><trkpt lat="44.3349724" lon="6.6152422"><ele>1269.0</ele><time>2026-05-03T12:32:54.107Z</time></trkpt><trkpt lat="44.3350747" lon="6.6153636"><ele>1269.5</ele><time>2026-05-03T12:32:55.108Z</time></trkpt><trkpt lat="44.3351628" lon="6.6154646"><ele>1270.0</ele><time>2026-05-03T12:32:56.108Z</time></trkpt><trkpt lat="44.3352623" lon="6.6155465"><ele>1270.0</ele><time>2026-05-03T12:32:57.108Z</time></trkpt><trkpt lat="44.3353708" lon="6.6156305"><ele>1270.0</ele><time>2026-05-03T12:32:58.108Z</time></trkpt><trkpt lat="44.335474" lon="6.6157045"><ele>1270.0</ele><time>2026-05-03T12:32:59.108Z</time></trkpt><trkpt lat="44.3355765" lon="6.6158046"><ele>1270.0</ele><time>2026-05-03T12:33:00.108Z</time></trkpt><trkpt lat="44.3356843" lon="6.6158978"><ele>1270.75</ele><time>2026-05-03T12:33:01.107Z</time></trkpt><trkpt lat="44.3357713" lon="6.616"><ele>1271.5</ele><time>2026-05-03T12:33:02.108Z</time></trkpt><trkpt lat="44.3358551" lon="6.6161309"><ele>1272.25</ele><time>2026-05-03T12:33:03.107Z</time></trkpt><trkpt lat="44.335942" lon="6.6162296"><ele>1273.0</ele><time>2026-05-03T12:33:04.108Z</time></trkpt><trkpt lat="44.3360362" lon="6.6162793"><ele>1273.5</ele><time>2026-05-03T12:33:05.108Z</time></trkpt><trkpt lat="44.3361234" lon="6.6163406"><ele>1274.0</ele><time>2026-05-03T12:33:06.108Z</time></trkpt><trkpt lat="44.3362939" lon="6.6162908"><ele>1274.5</ele><time>2026-05-03T12:33:07.107Z</time></trkpt><trkpt lat="44.3364357" lon="6.6162453"><ele>1275.0</ele><time>2026-05-03T12:33:08.108Z</time></trkpt><trkpt lat="44.3365875" lon="6.6162246"><ele>1278.5</ele><time>2026-05-03T12:33:09.108Z</time></trkpt><trkpt lat="44.3367262" lon="6.616209"><ele>1282.0</ele><time>2026-05-03T12:33:10.107Z</time></trkpt><trkpt lat="44.3368516" lon="6.616256"><ele>1285.5</ele><time>2026-05-03T12:33:11.108Z</time></trkpt><trkpt lat="44.3369717" lon="6.6163325"><ele>1289.0</ele><time>2026-05-03T12:33:12.108Z</time></trkpt><trkpt lat="44.3370974" lon="6.6164037"><ele>1285.25</ele><time>2026-05-03T12:33:13.108Z</time></trkpt><trkpt lat="44.3372396" lon="6.6164439"><ele>1281.5</ele><time>2026-05-03T12:33:14.108Z</time></trkpt><trkpt lat="44.3373761" lon="6.6164636"><ele>1277.75</ele><time>2026-05-03T12:33:15.107Z</time></trkpt><trkpt lat="44.3375087" lon="6.6164724"><ele>1274.0</ele><time>2026-05-03T12:33:16.108Z</time></trkpt><trkpt lat="44.3376498" lon="6.6164741"><ele>1274.0</ele><time>2026-05-03T12:33:17.107Z</time></trkpt><trkpt lat="44.3378064" lon="6.6164677"><ele>1274.0</ele><time>2026-05-03T12:33:18.107Z</time></trkpt><trkpt lat="44.3379825" lon="6.6164531"><ele>1274.0</ele><time>2026-05-03T12:33:19.108Z</time></trkpt><trkpt lat="44.3381305" lon="6.6164453"><ele>1271.0</ele><time>2026-05-03T12:33:20.108Z</time></trkpt><trkpt lat="44.338285" lon="6.6164289"><ele>1268.0</ele><time>2026-05-03T12:33:21.108Z</time></trkpt><trkpt lat="44.3384218" lon="6.6164539"><ele>1265.0</ele><time>2026-05-03T12:33:22.108Z</time></trkpt><trkpt lat="44.3385577" lon="6.6165032"><ele>1262.0</ele><time>2026-05-03T12:33:23.108Z</time></trkpt><trkpt lat="44.3386814" lon="6.6165535"><ele>1262.0</ele><time>2026-05-03T12:33:24.108Z</time></trkpt><trkpt lat="44.3387678" lon="6.6166262"><ele>1262.0</ele><time>2026-05-03T12:33:25.108Z</time></trkpt><trkpt lat="44.33878" lon="6.6167205"><ele>1262.0</ele><time>2026-05-03T12:33:26.108Z</time></trkpt><trkpt lat="44.3388159" lon="6.6168152"><ele>1262.0</ele><time>2026-05-03T12:33:27.108Z</time></trkpt><trkpt lat="44.3387987" lon="6.616945"><ele>1262.0</ele><time>2026-05-03T12:33:28.108Z</time></trkpt><trkpt lat="44.3388101" lon="6.6170775"><ele>1262.0</ele><time>2026-05-03T12:33:29.108Z</time></trkpt><trkpt lat="44.338855" lon="6.617198"><ele>1259.75</ele><time>2026-05-03T12:33:30.108Z</time></trkpt><trkpt lat="44.3389274" lon="6.6173153"><ele>1257.5</ele><time>2026-05-03T12:33:31.108Z</time></trkpt><trkpt lat="44.3390108" lon="6.6174264"><ele>1255.25</ele><time>2026-05-03T12:33:32.108Z</time></trkpt><trkpt lat="44.3391258" lon="6.6175207"><ele>1253.0</ele><time>2026-05-03T12:33:33.108Z</time></trkpt><trkpt lat="44.3392618" lon="6.6175835"><ele>1253.0</ele><time>2026-05-03T12:33:34.108Z</time></trkpt><trkpt lat="44.3393891" lon="6.6176277"><ele>1253.0</ele><time>2026-05-03T12:33:35.107Z</time></trkpt><trkpt lat="44.3395192" lon="6.6176664"><ele>1253.0</ele><time>2026-05-03T12:33:36.108Z</time></trkpt><trkpt lat="44.3396628" lon="6.6177134"><ele>1253.0</ele><time>2026-05-03T12:33:37.107Z</time></trkpt><trkpt lat="44.3397993" lon="6.6177598"><ele>1250.6666666666667</ele><time>2026-05-03T12:33:38.108Z</time></trkpt><trkpt lat="44.3399447" lon="6.6178536"><ele>1248.3333333333333</ele><time>2026-05-03T12:33:39.108Z</time></trkpt><trkpt lat="44.3400841" lon="6.6179511"><ele>1246.0</ele><time>2026-05-03T12:33:40.108Z</time></trkpt><trkpt lat="44.3402238" lon="6.6180405"><ele>1246.0</ele><time>2026-05-03T12:33:41.107Z</time></trkpt><trkpt lat="44.3403421" lon="6.6181482"><ele>1246.0</ele><time>2026-05-03T12:33:42.108Z</time></trkpt><trkpt lat="44.3404366" lon="6.618242"><ele>1246.0</ele><time>2026-05-03T12:33:43.108Z</time></trkpt><trkpt lat="44.3405314" lon="6.6184425"><ele>1246.0</ele><time>2026-05-03T12:33:44.108Z</time></trkpt><trkpt lat="44.3406243" lon="6.6186199"><ele>1246.0</ele><time>2026-05-03T12:33:45.108Z</time></trkpt><trkpt lat="44.3406875" lon="6.6188016"><ele>1246.0</ele><time>2026-05-03T12:33:46.107Z</time></trkpt><trkpt lat="44.3407486" lon="6.6189606"><ele>1246.0</ele><time>2026-05-03T12:33:47.108Z</time></trkpt><trkpt lat="44.3408148" lon="6.6191188"><ele>1246.0</ele><time>2026-05-03T12:33:48.107Z</time></trkpt><trkpt lat="44.3408968" lon="6.6191865"><ele>1246.0</ele><time>2026-05-03T12:33:49.108Z</time></trkpt><trkpt lat="44.3410172" lon="6.6192582"><ele>1246.0</ele><time>2026-05-03T12:33:50.108Z</time></trkpt><trkpt lat="44.3411702" lon="6.6192982"><ele>1246.0</ele><time>2026-05-03T12:33:51.108Z</time></trkpt><trkpt lat="44.3413223" lon="6.6193099"><ele>1246.0</ele><time>2026-05-03T12:33:52.108Z</time></trkpt><trkpt lat="44.3414872" lon="6.6192882"><ele>1247.3333333333333</ele><time>2026-05-03T12:33:53.108Z</time></trkpt><trkpt lat="44.3416514" lon="6.6192708"><ele>1248.6666666666667</ele><time>2026-05-03T12:33:54.108Z</time></trkpt><trkpt lat="44.3418205" lon="6.6192565"><ele>1250.0</ele><time>2026-05-03T12:33:55.108Z</time></trkpt><trkpt lat="44.3419772" lon="6.619213"><ele>1250.0</ele><time>2026-05-03T12:33:56.108Z</time></trkpt><trkpt lat="44.3421295" lon="6.6191541"><ele>1250.0</ele><time>2026-05-03T12:33:57.108Z</time></trkpt><trkpt lat="44.3422736" lon="6.6190995"><ele>1250.0</ele><time>2026-05-03T12:33:58.108Z</time></trkpt><trkpt lat="44.3424209" lon="6.619046"><ele>1249.3333333333335</ele><time>2026-05-03T12:33:59.108Z</time></trkpt><trkpt lat="44.3425842" lon="6.6190633"><ele>1248.6666666666667</ele><time>2026-05-03T12:34:00.108Z</time></trkpt><trkpt lat="44.3427338" lon="6.6191087"><ele>1248.0</ele><time>2026-05-03T12:34:01.108Z</time></trkpt><trkpt lat="44.3428801" lon="6.619153"><ele>1248.0</ele><time>2026-05-03T12:34:02.108Z</time></trkpt><trkpt lat="44.343012" lon="6.619204"><ele>1248.0</ele><time>2026-05-03T12:34:03.108Z</time></trkpt><trkpt lat="44.3431279" lon="6.6192686"><ele>1248.0</ele><time>2026-05-03T12:34:04.108Z</time></trkpt><trkpt lat="44.3432398" lon="6.61934"><ele>1248.0</ele><time>2026-05-03T12:34:05.108Z</time></trkpt><trkpt lat="44.3433173" lon="6.6194546"><ele>1243.75</ele><time>2026-05-03T12:34:06.108Z</time></trkpt><trkpt lat="44.3434224" lon="6.6195373"><ele>1239.5</ele><time>2026-05-03T12:34:07.108Z</time></trkpt><trkpt lat="44.3435481" lon="6.6195854"><ele>1235.25</ele><time>2026-05-03T12:34:08.108Z</time></trkpt><trkpt lat="44.3436963" lon="6.6196035"><ele>1231.0</ele><time>2026-05-03T12:34:09.108Z</time></trkpt><trkpt lat="44.3438509" lon="6.6196334"><ele>1233.0</ele><time>2026-05-03T12:34:10.108Z</time></trkpt><trkpt lat="44.3440047" lon="6.6196651"><ele>1235.0</ele><time>2026-05-03T12:34:11.108Z</time></trkpt><trkpt lat="44.3441633" lon="6.619706"><ele>1237.0</ele><time>2026-05-03T12:34:12.107Z</time></trkpt><trkpt lat="44.3443193" lon="6.6197218"><ele>1237.0</ele><time>2026-05-03T12:34:13.108Z</time></trkpt><trkpt lat="44.3444726" lon="6.6197235"><ele>1237.0</ele><time>2026-05-03T12:34:14.108Z</time></trkpt><trkpt lat="44.344622" lon="6.6197022"><ele>1237.0</ele><time>2026-05-03T12:34:15.107Z</time></trkpt><trkpt lat="44.3447616" lon="6.6196839"><ele>1237.0</ele><time>2026-05-03T12:34:16.108Z</time></trkpt><trkpt lat="44.3448885" lon="6.6196983"><ele>1236.75</ele><time>2026-05-03T12:34:17.108Z</time></trkpt><trkpt lat="44.3450188" lon="6.6197225"><ele>1236.5</ele><time>2026-05-03T12:34:18.108Z</time></trkpt><trkpt lat="44.3451283" lon="6.6198003"><ele>1236.25</ele><time>2026-05-03T12:34:19.108Z</time></trkpt><trkpt lat="44.3452337" lon="6.6198485"><ele>1236.0</ele><time>2026-05-03T12:34:20.108Z</time></trkpt><trkpt lat="44.345347" lon="6.6198376"><ele>1236.0</ele><time>2026-05-03T12:34:21.108Z</time></trkpt><trkpt lat="44.3454655" lon="6.6198395"><ele>1236.0</ele><time>2026-05-03T12:34:22.107Z</time></trkpt><trkpt lat="44.3455855" lon="6.6198887"><ele>1236.0</ele><time>2026-05-03T12:34:23.107Z</time></trkpt><trkpt lat="44.3457027" lon="6.6199304"><ele>1236.0</ele><time>2026-05-03T12:34:24.108Z</time></trkpt><trkpt lat="44.3458216" lon="6.6199251"><ele>1236.25</ele><time>2026-05-03T12:34:25.108Z</time></trkpt><trkpt lat="44.3459436" lon="6.6199457"><ele>1236.5</ele><time>2026-05-03T12:34:26.108Z</time></trkpt><trkpt lat="44.3460549" lon="6.6200052"><ele>1236.75</ele><time>2026-05-03T12:34:27.108Z</time></trkpt><trkpt lat="44.346167" lon="6.6200522"><ele>1237.0</ele><time>2026-05-03T12:34:28.108Z</time></trkpt><trkpt lat="44.3462858" lon="6.6200904"><ele>1239.5</ele><time>2026-05-03T12:34:29.108Z</time></trkpt><trkpt lat="44.3464074" lon="6.6201316"><ele>1242.0</ele><time>2026-05-03T12:34:30.107Z</time></trkpt><trkpt lat="44.3465535" lon="6.6201318"><ele>1244.5</ele><time>2026-05-03T12:34:31.108Z</time></trkpt><trkpt lat="44.3466745" lon="6.6201278"><ele>1247.0</ele><time>2026-05-03T12:34:32.108Z</time></trkpt><trkpt lat="44.3468001" lon="6.6201057"><ele>1247.0</ele><time>2026-05-03T12:34:33.107Z</time></trkpt><trkpt lat="44.3469755" lon="6.6200235"><ele>1247.0</ele><time>2026-05-03T12:34:34.108Z</time></trkpt><trkpt lat="44.3471309" lon="6.6199613"><ele>1247.0</ele><time>2026-05-03T12:34:35.108Z</time></trkpt><trkpt lat="44.3473053" lon="6.619901"><ele>1243.6666666666667</ele><time>2026-05-03T12:34:36.108Z</time></trkpt><trkpt lat="44.3474664" lon="6.6198221"><ele>1240.3333333333333</ele><time>2026-05-03T12:34:37.105Z</time></trkpt><trkpt lat="44.3476397" lon="6.6197721"><ele>1237.0</ele><time>2026-05-03T12:34:38.106Z</time></trkpt><trkpt lat="44.3478214" lon="6.6197636"><ele>1237.0</ele><time>2026-05-03T12:34:39.106Z</time></trkpt><trkpt lat="44.3480003" lon="6.6197334"><ele>1237.0</ele><time>2026-05-03T12:34:40.106Z</time></trkpt><trkpt lat="44.3481698" lon="6.6197029"><ele>1237.0</ele><time>2026-05-03T12:34:41.105Z</time></trkpt><trkpt lat="44.3483373" lon="6.6196703"><ele>1233.6666666666665</ele><time>2026-05-03T12:34:42.105Z</time></trkpt><trkpt lat="44.3485113" lon="6.6196205"><ele>1230.3333333333333</ele><time>2026-05-03T12:34:43.106Z</time></trkpt><trkpt lat="44.3486831" lon="6.6195584"><ele>1227.0</ele><time>2026-05-03T12:34:44.105Z</time></trkpt><trkpt lat="44.3488509" lon="6.6194777"><ele>1232.3333333333333</ele><time>2026-05-03T12:34:45.106Z</time></trkpt><trkpt lat="44.3490272" lon="6.6194192"><ele>1237.6666666666665</ele><time>2026-05-03T12:34:46.106Z</time></trkpt><trkpt lat="44.349195" lon="6.6193541"><ele>1243.0</ele><time>2026-05-03T12:34:47.106Z</time></trkpt><trkpt lat="44.3493714" lon="6.6193057"><ele>1243.0</ele><time>2026-05-03T12:34:48.106Z</time></trkpt><trkpt lat="44.3495465" lon="6.6192557"><ele>1243.0</ele><time>2026-05-03T12:34:49.106Z</time></trkpt><trkpt lat="44.349727" lon="6.6192473"><ele>1243.0</ele><time>2026-05-03T12:34:50.106Z</time></trkpt><trkpt lat="44.3499078" lon="6.6192603"><ele>1241.6666666666665</ele><time>2026-05-03T12:34:51.106Z</time></trkpt><trkpt lat="44.350071" lon="6.6192832"><ele>1240.3333333333333</ele><time>2026-05-03T12:34:52.106Z</time></trkpt><trkpt lat="44.3502335" lon="6.6193361"><ele>1239.0</ele><time>2026-05-03T12:34:53.106Z</time></trkpt><trkpt lat="44.3503875" lon="6.6194075"><ele>1233.3333333333333</ele><time>2026-05-03T12:34:54.106Z</time></trkpt><trkpt lat="44.3505368" lon="6.6195197"><ele>1227.6666666666665</ele><time>2026-05-03T12:34:55.106Z</time></trkpt><trkpt lat="44.3506812" lon="6.6196509"><ele>1222.0</ele><time>2026-05-03T12:34:56.106Z</time></trkpt><trkpt lat="44.3508221" lon="6.6197844"><ele>1222.0</ele><time>2026-05-03T12:34:57.106Z</time></trkpt><trkpt lat="44.3509557" lon="6.6198938"><ele>1222.0</ele><time>2026-05-03T12:34:58.106Z</time></trkpt><trkpt lat="44.3510862" lon="6.6200027"><ele>1222.0</ele><time>2026-05-03T12:34:59.106Z</time></trkpt><trkpt lat="44.3512176" lon="6.6200905"><ele>1225.6666666666665</ele><time>2026-05-03T12:35:00.106Z</time></trkpt><trkpt lat="44.3513802" lon="6.6201225"><ele>1229.3333333333333</ele><time>2026-05-03T12:35:01.106Z</time></trkpt><trkpt lat="44.3515508" lon="6.6201398"><ele>1233.0</ele><time>2026-05-03T12:35:02.105Z</time></trkpt><trkpt lat="44.3517322" lon="6.6201624"><ele>1233.0</ele><time>2026-05-03T12:35:03.105Z</time></trkpt><trkpt lat="44.3519068" lon="6.6201985"><ele>1233.0</ele><time>2026-05-03T12:35:04.106Z</time></trkpt><trkpt lat="44.3520727" lon="6.6202457"><ele>1233.0</ele><time>2026-05-03T12:35:05.105Z</time></trkpt><trkpt lat="44.3522427" lon="6.6202978"><ele>1229.0</ele><time>2026-05-03T12:35:06.106Z</time></trkpt><trkpt lat="44.3523859" lon="6.6203942"><ele>1225.0</ele><time>2026-05-03T12:35:07.106Z</time></trkpt><trkpt lat="44.352513" lon="6.620548"><ele>1221.0</ele><time>2026-05-03T12:35:08.106Z</time></trkpt><trkpt lat="44.3526256" lon="6.620696"><ele>1221.0</ele><time>2026-05-03T12:35:09.105Z</time></trkpt><trkpt lat="44.3527339" lon="6.6208691"><ele>1221.0</ele><time>2026-05-03T12:35:10.106Z</time></trkpt><trkpt lat="44.3528509" lon="6.6210016"><ele>1221.0</ele><time>2026-05-03T12:35:11.106Z</time></trkpt><trkpt lat="44.3529801" lon="6.6211272"><ele>1218.6666666666667</ele><time>2026-05-03T12:35:12.106Z</time></trkpt><trkpt lat="44.3531438" lon="6.6212128"><ele>1216.3333333333335</ele><time>2026-05-03T12:35:13.106Z</time></trkpt><trkpt lat="44.3533186" lon="6.6212776"><ele>1214.0</ele><time>2026-05-03T12:35:14.106Z</time></trkpt><trkpt lat="44.353497" lon="6.6213277"><ele>1214.0</ele><time>2026-05-03T12:35:15.106Z</time></trkpt><trkpt lat="44.3536711" lon="6.6213782"><ele>1214.0</ele><time>2026-05-03T12:35:16.106Z</time></trkpt><trkpt lat="44.3538357" lon="6.6214279"><ele>1214.0</ele><time>2026-05-03T12:35:17.106Z</time></trkpt><trkpt lat="44.3540005" lon="6.6214743"><ele>1217.0</ele><time>2026-05-03T12:35:18.106Z</time></trkpt><trkpt lat="44.3541559" lon="6.6215278"><ele>1220.0</ele><time>2026-05-03T12:35:19.105Z</time></trkpt><trkpt lat="44.3543138" lon="6.6215931"><ele>1223.0</ele><time>2026-05-03T12:35:20.106Z</time></trkpt><trkpt lat="44.3544387" lon="6.6217042"><ele>1223.0</ele><time>2026-05-03T12:35:21.106Z</time></trkpt><trkpt lat="44.3545627" lon="6.6218384"><ele>1223.0</ele><time>2026-05-03T12:35:22.106Z</time></trkpt><trkpt lat="44.354669" lon="6.6219785"><ele>1223.0</ele><time>2026-05-03T12:35:23.106Z</time></trkpt><trkpt lat="44.3547751" lon="6.6221198"><ele>1223.0</ele><time>2026-05-03T12:35:24.106Z</time></trkpt><trkpt lat="44.354857" lon="6.6222258"><ele>1219.25</ele><time>2026-05-03T12:35:25.106Z</time></trkpt><trkpt lat="44.3549386" lon="6.6223301"><ele>1215.5</ele><time>2026-05-03T12:35:26.106Z</time></trkpt><trkpt lat="44.3550439" lon="6.6224005"><ele>1211.75</ele><time>2026-05-03T12:35:27.105Z</time></trkpt><trkpt lat="44.3551575" lon="6.6224412"><ele>1208.0</ele><time>2026-05-03T12:35:28.106Z</time></trkpt><trkpt lat="44.3553533" lon="6.6224591"><ele>1208.0</ele><time>2026-05-03T12:35:29.106Z</time></trkpt><trkpt lat="44.3555268" lon="6.6224625"><ele>1208.0</ele><time>2026-05-03T12:35:30.106Z</time></trkpt><trkpt lat="44.3556973" lon="6.6224805"><ele>1208.0</ele><time>2026-05-03T12:35:31.106Z</time></trkpt><trkpt lat="44.3558522" lon="6.6225262"><ele>1210.6666666666667</ele><time>2026-05-03T12:35:32.106Z</time></trkpt><trkpt lat="44.3559999" lon="6.6226105"><ele>1213.3333333333333</ele><time>2026-05-03T12:35:33.106Z</time></trkpt><trkpt lat="44.3561499" lon="6.6227082"><ele>1216.0</ele><time>2026-05-03T12:35:34.106Z</time></trkpt><trkpt lat="44.3562935" lon="6.6228062"><ele>1209.6666666666665</ele><time>2026-05-03T12:35:35.106Z</time></trkpt><trkpt lat="44.3564592" lon="6.6228941"><ele>1203.3333333333333</ele><time>2026-05-03T12:35:36.106Z</time></trkpt><trkpt lat="44.3566345" lon="6.6229787"><ele>1197.0</ele><time>2026-05-03T12:35:37.106Z</time></trkpt><trkpt lat="44.3568129" lon="6.6230556"><ele>1197.0</ele><time>2026-05-03T12:35:38.106Z</time></trkpt><trkpt lat="44.3569897" lon="6.6231234"><ele>1197.0</ele><time>2026-05-03T12:35:39.105Z</time></trkpt><trkpt lat="44.3571675" lon="6.6232113"><ele>1197.0</ele><time>2026-05-03T12:35:40.106Z</time></trkpt><trkpt lat="44.3573415" lon="6.6232978"><ele>1200.3333333333333</ele><time>2026-05-03T12:35:41.106Z</time></trkpt><trkpt lat="44.3574936" lon="6.6234091"><ele>1203.6666666666665</ele><time>2026-05-03T12:35:42.106Z</time></trkpt><trkpt lat="44.3576464" lon="6.6235067"><ele>1207.0</ele><time>2026-05-03T12:35:43.106Z</time></trkpt><trkpt lat="44.3578022" lon="6.6236045"><ele>1203.0</ele><time>2026-05-03T12:35:44.106Z</time></trkpt><trkpt lat="44.3579487" lon="6.623699"><ele>1199.0</ele><time>2026-05-03T12:35:45.106Z</time></trkpt><trkpt lat="44.3580851" lon="6.6238015"><ele>1195.0</ele><time>2026-05-03T12:35:46.106Z</time></trkpt><trkpt lat="44.3582291" lon="6.6239061"><ele>1195.0</ele><time>2026-05-03T12:35:47.106Z</time></trkpt><trkpt lat="44.3583754" lon="6.6239997"><ele>1195.0</ele><time>2026-05-03T12:35:48.106Z</time></trkpt><trkpt lat="44.3585257" lon="6.6240796"><ele>1195.0</ele><time>2026-05-03T12:35:49.106Z</time></trkpt><trkpt lat="44.3586838" lon="6.6241447"><ele>1195.0</ele><time>2026-05-03T12:35:50.106Z</time></trkpt><trkpt lat="44.3588439" lon="6.6242027"><ele>1195.0</ele><time>2026-05-03T12:35:51.106Z</time></trkpt><trkpt lat="44.3589983" lon="6.624263"><ele>1195.0</ele><time>2026-05-03T12:35:52.105Z</time></trkpt><trkpt lat="44.3591506" lon="6.6243264"><ele>1197.3333333333333</ele><time>2026-05-03T12:35:53.106Z</time></trkpt><trkpt lat="44.3593004" lon="6.6244136"><ele>1199.6666666666667</ele><time>2026-05-03T12:35:54.106Z</time></trkpt><trkpt lat="44.359426" lon="6.6245145"><ele>1202.0</ele><time>2026-05-03T12:35:55.106Z</time></trkpt><trkpt lat="44.3595553" lon="6.6246154"><ele>1199.0</ele><time>2026-05-03T12:35:56.106Z</time></trkpt><trkpt lat="44.3596794" lon="6.6246882"><ele>1196.0</ele><time>2026-05-03T12:35:57.106Z</time></trkpt><trkpt lat="44.3598054" lon="6.6247473"><ele>1193.0</ele><time>2026-05-03T12:35:58.105Z</time></trkpt><trkpt lat="44.3599244" lon="6.6247881"><ele>1190.0</ele><time>2026-05-03T12:35:59.106Z</time></trkpt><trkpt lat="44.3600413" lon="6.6248217"><ele>1190.0</ele><time>2026-05-03T12:36:00.106Z</time></trkpt><trkpt lat="44.3601597" lon="6.6248448"><ele>1190.0</ele><time>2026-05-03T12:36:01.106Z</time></trkpt><trkpt lat="44.3602624" lon="6.624883"><ele>1190.0</ele><time>2026-05-03T12:36:02.106Z</time></trkpt><trkpt lat="44.3603889" lon="6.6249744"><ele>1190.0</ele><time>2026-05-03T12:36:04.106Z</time></trkpt><trkpt lat="44.3604374" lon="6.6250476"><ele>1190.0</ele><time>2026-05-03T12:36:06.106Z</time></trkpt><trkpt lat="44.3605195" lon="6.6251454"><ele>1190.0</ele><time>2026-05-03T12:36:08.106Z</time></trkpt><trkpt lat="44.3605692" lon="6.6252088"><ele>1190.0</ele><time>2026-05-03T12:36:09.106Z</time></trkpt><trkpt lat="44.3606247" lon="6.6252657"><ele>1190.0</ele><time>2026-05-03T12:36:10.106Z</time></trkpt><trkpt lat="44.3606823" lon="6.625342"><ele>1190.0</ele><time>2026-05-03T12:36:11.106Z</time></trkpt><trkpt lat="44.360749" lon="6.6254346"><ele>1190.0</ele><time>2026-05-03T12:36:12.106Z</time></trkpt><trkpt lat="44.3608087" lon="6.6255442"><ele>1190.0</ele><time>2026-05-03T12:36:13.106Z</time></trkpt><trkpt lat="44.3608767" lon="6.6256629"><ele>1189.25</ele><time>2026-05-03T12:36:14.106Z</time></trkpt><trkpt lat="44.3609436" lon="6.6258017"><ele>1188.5</ele><time>2026-05-03T12:36:15.106Z</time></trkpt><trkpt lat="44.3610229" lon="6.6259495"><ele>1187.75</ele><time>2026-05-03T12:36:16.106Z</time></trkpt><trkpt lat="44.3611076" lon="6.6260886"><ele>1187.0</ele><time>2026-05-03T12:36:17.106Z</time></trkpt><trkpt lat="44.3611859" lon="6.6262394"><ele>1187.0</ele><time>2026-05-03T12:36:18.106Z</time></trkpt><trkpt lat="44.3612639" lon="6.626393"><ele>1187.0</ele><time>2026-05-03T12:36:19.106Z</time></trkpt><trkpt lat="44.3613418" lon="6.626528"><ele>1187.0</ele><time>2026-05-03T12:36:20.106Z</time></trkpt><trkpt lat="44.3614398" lon="6.6266539"><ele>1187.0</ele><time>2026-05-03T12:36:21.106Z</time></trkpt><trkpt lat="44.3615551" lon="6.6267642"><ele>1186.0</ele><time>2026-05-03T12:36:22.106Z</time></trkpt><trkpt lat="44.3616736" lon="6.6268584"><ele>1185.0</ele><time>2026-05-03T12:36:23.106Z</time></trkpt><trkpt lat="44.3618234" lon="6.6269416"><ele>1184.0</ele><time>2026-05-03T12:36:24.106Z</time></trkpt><trkpt lat="44.3619837" lon="6.627023"><ele>1184.0</ele><time>2026-05-03T12:36:25.106Z</time></trkpt><trkpt lat="44.3621524" lon="6.6270951"><ele>1184.0</ele><time>2026-05-03T12:36:26.106Z</time></trkpt><trkpt lat="44.3623161" lon="6.6271892"><ele>1184.0</ele><time>2026-05-03T12:36:27.105Z</time></trkpt><trkpt lat="44.3624819" lon="6.6272626"><ele>1181.0</ele><time>2026-05-03T12:36:28.106Z</time></trkpt><trkpt lat="44.3626537" lon="6.627346"><ele>1178.0</ele><time>2026-05-03T12:36:29.106Z</time></trkpt><trkpt lat="44.3628421" lon="6.6274218"><ele>1175.0</ele><time>2026-05-03T12:36:30.106Z</time></trkpt><trkpt lat="44.3630096" lon="6.627495"><ele>1175.6666666666667</ele><time>2026-05-03T12:36:31.106Z</time></trkpt><trkpt lat="44.3631768" lon="6.6275618"><ele>1176.3333333333333</ele><time>2026-05-03T12:36:32.105Z</time></trkpt><trkpt lat="44.363343" lon="6.6276126"><ele>1177.0</ele><time>2026-05-03T12:36:33.106Z</time></trkpt><trkpt lat="44.3634981" lon="6.627664"><ele>1177.0</ele><time>2026-05-03T12:36:34.105Z</time></trkpt><trkpt lat="44.3636539" lon="6.6276919"><ele>1177.0</ele><time>2026-05-03T12:36:35.106Z</time></trkpt><trkpt lat="44.3637928" lon="6.6277158"><ele>1177.0</ele><time>2026-05-03T12:36:36.106Z</time></trkpt><trkpt lat="44.3639384" lon="6.6277441"><ele>1177.0</ele><time>2026-05-03T12:36:37.106Z</time></trkpt><trkpt lat="44.3641184" lon="6.6277646"><ele>1176.6666666666665</ele><time>2026-05-03T12:36:38.106Z</time></trkpt><trkpt lat="44.3642878" lon="6.6277849"><ele>1176.3333333333333</ele><time>2026-05-03T12:36:39.106Z</time></trkpt><trkpt lat="44.3644718" lon="6.627797"><ele>1176.0</ele><time>2026-05-03T12:36:40.106Z</time></trkpt><trkpt lat="44.3646606" lon="6.627817"><ele>1174.3333333333333</ele><time>2026-05-03T12:36:41.106Z</time></trkpt><trkpt lat="44.3648663" lon="6.6278232"><ele>1172.6666666666665</ele><time>2026-05-03T12:36:42.106Z</time></trkpt><trkpt lat="44.365063" lon="6.6278433"><ele>1171.0</ele><time>2026-05-03T12:36:43.106Z</time></trkpt><trkpt lat="44.3652611" lon="6.6278601"><ele>1171.0</ele><time>2026-05-03T12:36:44.106Z</time></trkpt><trkpt lat="44.365454" lon="6.6278503"><ele>1171.0</ele><time>2026-05-03T12:36:45.106Z</time></trkpt><trkpt lat="44.3656317" lon="6.6278777"><ele>1171.0</ele><time>2026-05-03T12:36:46.106Z</time></trkpt><trkpt lat="44.3658421" lon="6.6278628"><ele>1170.0</ele><time>2026-05-03T12:36:47.106Z</time></trkpt><trkpt lat="44.3660446" lon="6.6278609"><ele>1169.0</ele><time>2026-05-03T12:36:48.106Z</time></trkpt><trkpt lat="44.3662395" lon="6.6278652"><ele>1168.0</ele><time>2026-05-03T12:36:49.106Z</time></trkpt><trkpt lat="44.3664426" lon="6.6278939"><ele>1166.0</ele><time>2026-05-03T12:36:50.106Z</time></trkpt><trkpt lat="44.3666421" lon="6.6279197"><ele>1164.0</ele><time>2026-05-03T12:36:51.106Z</time></trkpt><trkpt lat="44.3668356" lon="6.6279097"><ele>1162.0</ele><time>2026-05-03T12:36:52.106Z</time></trkpt><trkpt lat="44.3670286" lon="6.6279149"><ele>1163.3333333333333</ele><time>2026-05-03T12:36:53.106Z</time></trkpt><trkpt lat="44.3672258" lon="6.6279184"><ele>1164.6666666666667</ele><time>2026-05-03T12:36:54.106Z</time></trkpt><trkpt lat="44.3674318" lon="6.6279203"><ele>1166.0</ele><time>2026-05-03T12:36:55.105Z</time></trkpt><trkpt lat="44.367643" lon="6.6279464"><ele>1166.0</ele><time>2026-05-03T12:36:56.106Z</time></trkpt><trkpt lat="44.3678515" lon="6.6279312"><ele>1166.0</ele><time>2026-05-03T12:36:57.106Z</time></trkpt><trkpt lat="44.3680616" lon="6.6279279"><ele>1166.0</ele><time>2026-05-03T12:36:58.106Z</time></trkpt><trkpt lat="44.3682752" lon="6.6279261"><ele>1164.0</ele><time>2026-05-03T12:36:59.106Z</time></trkpt><trkpt lat="44.3684781" lon="6.6279217"><ele>1162.0</ele><time>2026-05-03T12:37:00.105Z</time></trkpt><trkpt lat="44.3686949" lon="6.6279174"><ele>1160.0</ele><time>2026-05-03T12:37:01.106Z</time></trkpt><trkpt lat="44.3689144" lon="6.6279043"><ele>1159.3333333333335</ele><time>2026-05-03T12:37:02.106Z</time></trkpt><trkpt lat="44.3691268" lon="6.6278918"><ele>1158.6666666666667</ele><time>2026-05-03T12:37:03.106Z</time></trkpt><trkpt lat="44.3693415" lon="6.6278848"><ele>1158.0</ele><time>2026-05-03T12:37:04.105Z</time></trkpt><trkpt lat="44.3695522" lon="6.6278763"><ele>1157.0</ele><time>2026-05-03T12:37:05.106Z</time></trkpt><trkpt lat="44.3697561" lon="6.6278696"><ele>1156.0</ele><time>2026-05-03T12:37:06.105Z</time></trkpt><trkpt lat="44.3699552" lon="6.6278632"><ele>1155.0</ele><time>2026-05-03T12:37:07.106Z</time></trkpt><trkpt lat="44.3701584" lon="6.6278545"><ele>1155.0</ele><time>2026-05-03T12:37:08.106Z</time></trkpt><trkpt lat="44.3703554" lon="6.6278461"><ele>1155.0</ele><time>2026-05-03T12:37:09.106Z</time></trkpt><trkpt lat="44.3705552" lon="6.6278429"><ele>1155.0</ele><time>2026-05-03T12:37:10.106Z</time></trkpt><trkpt lat="44.3707581" lon="6.6278339"><ele>1154.3333333333333</ele><time>2026-05-03T12:37:11.106Z</time></trkpt><trkpt lat="44.3709651" lon="6.6278269"><ele>1153.6666666666665</ele><time>2026-05-03T12:37:12.106Z</time></trkpt><trkpt lat="44.3711707" lon="6.6278052"><ele>1153.0</ele><time>2026-05-03T12:37:13.106Z</time></trkpt><trkpt lat="44.3713703" lon="6.6278132"><ele>1152.3333333333333</ele><time>2026-05-03T12:37:14.105Z</time></trkpt><trkpt lat="44.3715742" lon="6.6278118"><ele>1151.6666666666667</ele><time>2026-05-03T12:37:15.106Z</time></trkpt><trkpt lat="44.371781" lon="6.6278234"><ele>1151.0</ele><time>2026-05-03T12:37:16.106Z</time></trkpt><trkpt lat="44.3719826" lon="6.6278228"><ele>1151.0</ele><time>2026-05-03T12:37:17.106Z</time></trkpt><trkpt lat="44.3721822" lon="6.6278192"><ele>1151.0</ele><time>2026-05-03T12:37:18.106Z</time></trkpt><trkpt lat="44.3723852" lon="6.6278187"><ele>1151.0</ele><time>2026-05-03T12:37:19.106Z</time></trkpt><trkpt lat="44.3725847" lon="6.6278182"><ele>1150.0</ele><time>2026-05-03T12:37:20.106Z</time></trkpt><trkpt lat="44.3727909" lon="6.6278077"><ele>1149.0</ele><time>2026-05-03T12:37:21.106Z</time></trkpt><trkpt lat="44.3729846" lon="6.6277901"><ele>1148.0</ele><time>2026-05-03T12:37:22.106Z</time></trkpt><trkpt lat="44.3731725" lon="6.627789"><ele>1147.0</ele><time>2026-05-03T12:37:23.106Z</time></trkpt><trkpt lat="44.3733556" lon="6.6277874"><ele>1146.0</ele><time>2026-05-03T12:37:24.106Z</time></trkpt><trkpt lat="44.3735399" lon="6.6277682"><ele>1145.0</ele><time>2026-05-03T12:37:25.106Z</time></trkpt><trkpt lat="44.3737221" lon="6.6277685"><ele>1144.3333333333335</ele><time>2026-05-03T12:37:26.106Z</time></trkpt><trkpt lat="44.3738934" lon="6.6277696"><ele>1143.6666666666667</ele><time>2026-05-03T12:37:27.106Z</time></trkpt><trkpt lat="44.3740692" lon="6.6277662"><ele>1143.0</ele><time>2026-05-03T12:37:28.106Z</time></trkpt><trkpt lat="44.3742425" lon="6.6277557"><ele>1143.0</ele><time>2026-05-03T12:37:29.105Z</time></trkpt><trkpt lat="44.3744186" lon="6.6277457"><ele>1143.0</ele><time>2026-05-03T12:37:30.106Z</time></trkpt><trkpt lat="44.3746008" lon="6.627741"><ele>1143.0</ele><time>2026-05-03T12:37:31.106Z</time></trkpt><trkpt lat="44.3747632" lon="6.6277406"><ele>1143.3333333333333</ele><time>2026-05-03T12:37:32.106Z</time></trkpt><trkpt lat="44.3749229" lon="6.6277418"><ele>1143.6666666666665</ele><time>2026-05-03T12:37:33.105Z</time></trkpt><trkpt lat="44.3750676" lon="6.6277367"><ele>1144.0</ele><time>2026-05-03T12:37:34.106Z</time></trkpt><trkpt lat="44.3752127" lon="6.6277228"><ele>1144.0</ele><time>2026-05-03T12:37:35.106Z</time></trkpt><trkpt lat="44.3753312" lon="6.6277122"><ele>1144.0</ele><time>2026-05-03T12:37:36.106Z</time></trkpt><trkpt lat="44.3754403" lon="6.627712"><ele>1144.0</ele><time>2026-05-03T12:37:37.105Z</time></trkpt><trkpt lat="44.3755399" lon="6.6277028"><ele>1144.0</ele><time>2026-05-03T12:37:38.106Z</time></trkpt><trkpt lat="44.3756311" lon="6.6277038"><ele>1144.0</ele><time>2026-05-03T12:37:39.106Z</time></trkpt><trkpt lat="44.3757242" lon="6.6277079"><ele>1143.75</ele><time>2026-05-03T12:37:40.106Z</time></trkpt><trkpt lat="44.375815" lon="6.6277134"><ele>1143.5</ele><time>2026-05-03T12:37:41.106Z</time></trkpt><trkpt lat="44.3759535" lon="6.6277554"><ele>1143.25</ele><time>2026-05-03T12:37:42.106Z</time></trkpt><trkpt lat="44.3760811" lon="6.6277876"><ele>1143.0</ele><time>2026-05-03T12:37:43.106Z</time></trkpt><trkpt lat="44.3762137" lon="6.6278276"><ele>1143.0</ele><time>2026-05-03T12:37:44.106Z</time></trkpt><trkpt lat="44.3763524" lon="6.6278726"><ele>1143.0</ele><time>2026-05-03T12:37:45.105Z</time></trkpt><trkpt lat="44.3764963" lon="6.627916"><ele>1143.0</ele><time>2026-05-03T12:37:46.106Z</time></trkpt><trkpt lat="44.3766284" lon="6.6279519"><ele>1143.0</ele><time>2026-05-03T12:37:47.106Z</time></trkpt><trkpt lat="44.3767721" lon="6.6279904"><ele>1143.0</ele><time>2026-05-03T12:37:48.106Z</time></trkpt><trkpt lat="44.3769133" lon="6.6280344"><ele>1143.0</ele><time>2026-05-03T12:37:49.106Z</time></trkpt><trkpt lat="44.3770548" lon="6.6280776"><ele>1143.0</ele><time>2026-05-03T12:37:50.106Z</time></trkpt><trkpt lat="44.377186" lon="6.6281199"><ele>1143.0</ele><time>2026-05-03T12:37:51.106Z</time></trkpt><trkpt lat="44.3773167" lon="6.6281551"><ele>1141.25</ele><time>2026-05-03T12:37:52.106Z</time></trkpt><trkpt lat="44.3774407" lon="6.6281836"><ele>1139.5</ele><time>2026-05-03T12:37:53.106Z</time></trkpt><trkpt lat="44.3775787" lon="6.6282144"><ele>1137.75</ele><time>2026-05-03T12:37:54.106Z</time></trkpt><trkpt lat="44.3777119" lon="6.6282472"><ele>1136.0</ele><time>2026-05-03T12:37:55.106Z</time></trkpt><trkpt lat="44.3778206" lon="6.6282829"><ele>1136.0</ele><time>2026-05-03T12:37:56.106Z</time></trkpt><trkpt lat="44.3779563" lon="6.6283107"><ele>1136.0</ele><time>2026-05-03T12:37:57.106Z</time></trkpt><trkpt lat="44.3780837" lon="6.6283462"><ele>1136.0</ele><time>2026-05-03T12:37:58.106Z</time></trkpt><trkpt lat="44.378212" lon="6.6283811"><ele>1136.0</ele><time>2026-05-03T12:37:59.106Z</time></trkpt><trkpt lat="44.3783388" lon="6.6284146"><ele>1135.75</ele><time>2026-05-03T12:38:00.106Z</time></trkpt><trkpt lat="44.3784649" lon="6.628449"><ele>1135.5</ele><time>2026-05-03T12:38:01.106Z</time></trkpt><trkpt lat="44.3786078" lon="6.6284938"><ele>1135.25</ele><time>2026-05-03T12:38:02.106Z</time></trkpt><trkpt lat="44.3787389" lon="6.6285332"><ele>1135.0</ele><time>2026-05-03T12:38:03.106Z</time></trkpt><trkpt lat="44.3788689" lon="6.6285855"><ele>1135.0</ele><time>2026-05-03T12:38:04.106Z</time></trkpt><trkpt lat="44.3790023" lon="6.6286409"><ele>1135.0</ele><time>2026-05-03T12:38:05.106Z</time></trkpt><trkpt lat="44.3791366" lon="6.6286999"><ele>1135.0</ele><time>2026-05-03T12:38:06.106Z</time></trkpt><trkpt lat="44.3792696" lon="6.6287648"><ele>1135.0</ele><time>2026-05-03T12:38:07.106Z</time></trkpt><trkpt lat="44.3793975" lon="6.6288326"><ele>1135.25</ele><time>2026-05-03T12:38:08.105Z</time></trkpt><trkpt lat="44.3795327" lon="6.6288965"><ele>1135.5</ele><time>2026-05-03T12:38:09.105Z</time></trkpt><trkpt lat="44.3796595" lon="6.6289743"><ele>1135.75</ele><time>2026-05-03T12:38:10.106Z</time></trkpt><trkpt lat="44.3797864" lon="6.6290393"><ele>1136.0</ele><time>2026-05-03T12:38:11.106Z</time></trkpt><trkpt lat="44.3799169" lon="6.629113"><ele>1135.5</ele><time>2026-05-03T12:38:12.106Z</time></trkpt><trkpt lat="44.3800494" lon="6.6291882"><ele>1135.0</ele><time>2026-05-03T12:38:13.106Z</time></trkpt><trkpt lat="44.3801958" lon="6.6292592"><ele>1134.5</ele><time>2026-05-03T12:38:14.106Z</time></trkpt><trkpt lat="44.3803256" lon="6.6293248"><ele>1134.0</ele><time>2026-05-03T12:38:15.106Z</time></trkpt><trkpt lat="44.3804488" lon="6.6294028"><ele>1132.5</ele><time>2026-05-03T12:38:16.106Z</time></trkpt><trkpt lat="44.3805734" lon="6.6294852"><ele>1131.0</ele><time>2026-05-03T12:38:17.105Z</time></trkpt><trkpt lat="44.3806883" lon="6.6295774"><ele>1129.5</ele><time>2026-05-03T12:38:18.106Z</time></trkpt><trkpt lat="44.3808109" lon="6.6296812"><ele>1128.0</ele><time>2026-05-03T12:38:19.106Z</time></trkpt><trkpt lat="44.3809243" lon="6.6297929"><ele>1128.0</ele><time>2026-05-03T12:38:20.106Z</time></trkpt><trkpt lat="44.3810459" lon="6.6299195"><ele>1128.0</ele><time>2026-05-03T12:38:21.106Z</time></trkpt><trkpt lat="44.3811721" lon="6.6300581"><ele>1128.0</ele><time>2026-05-03T12:38:22.106Z</time></trkpt><trkpt lat="44.3812988" lon="6.6301939"><ele>1128.3333333333333</ele><time>2026-05-03T12:38:23.106Z</time></trkpt><trkpt lat="44.3814185" lon="6.6303243"><ele>1128.6666666666665</ele><time>2026-05-03T12:38:24.105Z</time></trkpt><trkpt lat="44.3815401" lon="6.6304595"><ele>1129.0</ele><time>2026-05-03T12:38:25.106Z</time></trkpt><trkpt lat="44.3816595" lon="6.630601"><ele>1129.0</ele><time>2026-05-03T12:38:26.106Z</time></trkpt><trkpt lat="44.3817823" lon="6.6307462"><ele>1129.0</ele><time>2026-05-03T12:38:27.106Z</time></trkpt><trkpt lat="44.3818926" lon="6.630895"><ele>1129.0</ele><time>2026-05-03T12:38:28.106Z</time></trkpt><trkpt lat="44.381999" lon="6.6310446"><ele>1129.25</ele><time>2026-05-03T12:38:29.105Z</time></trkpt><trkpt lat="44.3820929" lon="6.6311983"><ele>1129.5</ele><time>2026-05-03T12:38:30.106Z</time></trkpt><trkpt lat="44.3821582" lon="6.6313777"><ele>1129.75</ele><time>2026-05-03T12:38:31.106Z</time></trkpt><trkpt lat="44.3822226" lon="6.6315656"><ele>1130.0</ele><time>2026-05-03T12:38:32.106Z</time></trkpt><trkpt lat="44.3822764" lon="6.6317586"><ele>1130.0</ele><time>2026-05-03T12:38:33.106Z</time></trkpt><trkpt lat="44.3823226" lon="6.6319467"><ele>1130.0</ele><time>2026-05-03T12:38:34.106Z</time></trkpt><trkpt lat="44.3823817" lon="6.6321243"><ele>1130.0</ele><time>2026-05-03T12:38:35.106Z</time></trkpt><trkpt lat="44.3824306" lon="6.6323076"><ele>1130.0</ele><time>2026-05-03T12:38:36.106Z</time></trkpt><trkpt lat="44.382483" lon="6.6324884"><ele>1129.5</ele><time>2026-05-03T12:38:37.106Z</time></trkpt><trkpt lat="44.382543" lon="6.6326688"><ele>1129.0</ele><time>2026-05-03T12:38:38.106Z</time></trkpt><trkpt lat="44.3825891" lon="6.6328357"><ele>1128.5</ele><time>2026-05-03T12:38:39.105Z</time></trkpt><trkpt lat="44.3826423" lon="6.6330002"><ele>1128.0</ele><time>2026-05-03T12:38:40.106Z</time></trkpt><trkpt lat="44.3826808" lon="6.633162"><ele>1127.25</ele><time>2026-05-03T12:38:41.106Z</time></trkpt><trkpt lat="44.3827326" lon="6.6333306"><ele>1126.5</ele><time>2026-05-03T12:38:42.106Z</time></trkpt><trkpt lat="44.3827799" lon="6.6335012"><ele>1125.75</ele><time>2026-05-03T12:38:43.106Z</time></trkpt><trkpt lat="44.3828197" lon="6.6336824"><ele>1125.0</ele><time>2026-05-03T12:38:44.106Z</time></trkpt><trkpt lat="44.3828523" lon="6.6338698"><ele>1125.0</ele><time>2026-05-03T12:38:45.106Z</time></trkpt><trkpt lat="44.3828765" lon="6.6340621"><ele>1125.0</ele><time>2026-05-03T12:38:46.106Z</time></trkpt><trkpt lat="44.3828942" lon="6.6342597"><ele>1125.0</ele><time>2026-05-03T12:38:47.106Z</time></trkpt><trkpt lat="44.3829033" lon="6.6344509"><ele>1125.0</ele><time>2026-05-03T12:38:48.106Z</time></trkpt><trkpt lat="44.3829249" lon="6.6346583"><ele>1125.75</ele><time>2026-05-03T12:38:49.105Z</time></trkpt><trkpt lat="44.3829394" lon="6.6348586"><ele>1126.5</ele><time>2026-05-03T12:38:50.106Z</time></trkpt><trkpt lat="44.3829481" lon="6.6350542"><ele>1127.25</ele><time>2026-05-03T12:38:51.106Z</time></trkpt><trkpt lat="44.3829488" lon="6.6352414"><ele>1128.0</ele><time>2026-05-03T12:38:52.106Z</time></trkpt><trkpt lat="44.3829577" lon="6.6354304"><ele>1128.5</ele><time>2026-05-03T12:38:53.106Z</time></trkpt><trkpt lat="44.3829698" lon="6.6356247"><ele>1129.0</ele><time>2026-05-03T12:38:54.106Z</time></trkpt><trkpt lat="44.3829819" lon="6.6358062"><ele>1129.5</ele><time>2026-05-03T12:38:55.105Z</time></trkpt><trkpt lat="44.3829945" lon="6.6360009"><ele>1130.0</ele><time>2026-05-03T12:38:56.106Z</time></trkpt><trkpt lat="44.3830068" lon="6.6361886"><ele>1129.0</ele><time>2026-05-03T12:38:57.106Z</time></trkpt><trkpt lat="44.3830174" lon="6.6363787"><ele>1128.0</ele><time>2026-05-03T12:38:58.106Z</time></trkpt><trkpt lat="44.3830266" lon="6.6365689"><ele>1127.0</ele><time>2026-05-03T12:38:59.105Z</time></trkpt><trkpt lat="44.3830371" lon="6.6367598"><ele>1126.0</ele><time>2026-05-03T12:39:00.105Z</time></trkpt><trkpt lat="44.3830529" lon="6.6369571"><ele>1126.25</ele><time>2026-05-03T12:39:01.106Z</time></trkpt><trkpt lat="44.3830751" lon="6.6371536"><ele>1126.5</ele><time>2026-05-03T12:39:02.106Z</time></trkpt><trkpt lat="44.3831026" lon="6.637352"><ele>1126.75</ele><time>2026-05-03T12:39:03.106Z</time></trkpt><trkpt lat="44.3831305" lon="6.6375476"><ele>1127.0</ele><time>2026-05-03T12:39:04.106Z</time></trkpt><trkpt lat="44.3831577" lon="6.637733"><ele>1127.25</ele><time>2026-05-03T12:39:05.106Z</time></trkpt><trkpt lat="44.3831863" lon="6.637924"><ele>1127.5</ele><time>2026-05-03T12:39:06.106Z</time></trkpt><trkpt lat="44.3832184" lon="6.6381131"><ele>1127.75</ele><time>2026-05-03T12:39:07.106Z</time></trkpt><trkpt lat="44.3832511" lon="6.6383052"><ele>1128.0</ele><time>2026-05-03T12:39:08.106Z</time></trkpt><trkpt lat="44.3832834" lon="6.6384992"><ele>1127.5</ele><time>2026-05-03T12:39:09.105Z</time></trkpt><trkpt lat="44.3833155" lon="6.6386867"><ele>1127.0</ele><time>2026-05-03T12:39:10.106Z</time></trkpt><trkpt lat="44.3833495" lon="6.6388827"><ele>1126.5</ele><time>2026-05-03T12:39:11.106Z</time></trkpt><trkpt lat="44.3833715" lon="6.6390724"><ele>1126.0</ele><time>2026-05-03T12:39:12.106Z</time></trkpt><trkpt lat="44.3834003" lon="6.6392634"><ele>1126.0</ele><time>2026-05-03T12:39:13.106Z</time></trkpt><trkpt lat="44.3834274" lon="6.6394533"><ele>1126.0</ele><time>2026-05-03T12:39:14.106Z</time></trkpt><trkpt lat="44.3834573" lon="6.6396467"><ele>1126.0</ele><time>2026-05-03T12:39:15.106Z</time></trkpt><trkpt lat="44.3834866" lon="6.6398377"><ele>1126.0</ele><time>2026-05-03T12:39:16.106Z</time></trkpt><trkpt lat="44.3835108" lon="6.6400187"><ele>1126.25</ele><time>2026-05-03T12:39:17.106Z</time></trkpt><trkpt lat="44.3835422" lon="6.6402044"><ele>1126.5</ele><time>2026-05-03T12:39:18.106Z</time></trkpt><trkpt lat="44.38357" lon="6.6403826"><ele>1126.75</ele><time>2026-05-03T12:39:19.106Z</time></trkpt><trkpt lat="44.3835988" lon="6.6405757"><ele>1127.0</ele><time>2026-05-03T12:39:20.106Z</time></trkpt><trkpt lat="44.3836387" lon="6.6407614"><ele>1127.0</ele><time>2026-05-03T12:39:21.105Z</time></trkpt><trkpt lat="44.3836623" lon="6.64095"><ele>1127.0</ele><time>2026-05-03T12:39:22.106Z</time></trkpt><trkpt lat="44.3836879" lon="6.64114"><ele>1127.0</ele><time>2026-05-03T12:39:23.106Z</time></trkpt><trkpt lat="44.3837127" lon="6.6413252"><ele>1127.0</ele><time>2026-05-03T12:39:24.106Z</time></trkpt><trkpt lat="44.383736" lon="6.6415199"><ele>1127.25</ele><time>2026-05-03T12:39:25.106Z</time></trkpt><trkpt lat="44.3837544" lon="6.6417162"><ele>1127.5</ele><time>2026-05-03T12:39:26.106Z</time></trkpt><trkpt lat="44.3837729" lon="6.6419115"><ele>1127.75</ele><time>2026-05-03T12:39:27.106Z</time></trkpt><trkpt lat="44.3837995" lon="6.6420977"><ele>1128.0</ele><time>2026-05-03T12:39:28.106Z</time></trkpt><trkpt lat="44.3838278" lon="6.6422877"><ele>1128.5</ele><time>2026-05-03T12:39:29.106Z</time></trkpt><trkpt lat="44.3838563" lon="6.6424733"><ele>1129.0</ele><time>2026-05-03T12:39:30.106Z</time></trkpt><trkpt lat="44.3838847" lon="6.6426585"><ele>1129.5</ele><time>2026-05-03T12:39:31.106Z</time></trkpt><trkpt lat="44.3838998" lon="6.6428449"><ele>1130.0</ele><time>2026-05-03T12:39:32.105Z</time></trkpt><trkpt lat="44.3839265" lon="6.6430298"><ele>1130.25</ele><time>2026-05-03T12:39:33.106Z</time></trkpt><trkpt lat="44.3839546" lon="6.6432201"><ele>1130.5</ele><time>2026-05-03T12:39:34.105Z</time></trkpt><trkpt lat="44.3839828" lon="6.6434079"><ele>1130.75</ele><time>2026-05-03T12:39:35.106Z</time></trkpt><trkpt lat="44.3840198" lon="6.6435818"><ele>1131.0</ele><time>2026-05-03T12:39:36.106Z</time></trkpt><trkpt lat="44.3840532" lon="6.6437697"><ele>1131.0</ele><time>2026-05-03T12:39:37.106Z</time></trkpt><trkpt lat="44.3840821" lon="6.6439611"><ele>1131.0</ele><time>2026-05-03T12:39:38.106Z</time></trkpt><trkpt lat="44.384108" lon="6.644145"><ele>1131.0</ele><time>2026-05-03T12:39:39.106Z</time></trkpt><trkpt lat="44.3841437" lon="6.644322"><ele>1131.0</ele><time>2026-05-03T12:39:40.106Z</time></trkpt><trkpt lat="44.3841818" lon="6.644508"><ele>1131.0</ele><time>2026-05-03T12:39:41.106Z</time></trkpt><trkpt lat="44.3842174" lon="6.6446986"><ele>1131.0</ele><time>2026-05-03T12:39:42.106Z</time></trkpt><trkpt lat="44.3842443" lon="6.644889"><ele>1131.0</ele><time>2026-05-03T12:39:43.106Z</time></trkpt><trkpt lat="44.3842735" lon="6.6450691"><ele>1131.0</ele><time>2026-05-03T12:39:44.105Z</time></trkpt><trkpt lat="44.3842968" lon="6.6452628"><ele>1130.75</ele><time>2026-05-03T12:39:45.106Z</time></trkpt><trkpt lat="44.384319" lon="6.6454533"><ele>1130.5</ele><time>2026-05-03T12:39:46.106Z</time></trkpt><trkpt lat="44.3843439" lon="6.6456445"><ele>1130.25</ele><time>2026-05-03T12:39:47.106Z</time></trkpt><trkpt lat="44.3843724" lon="6.6458357"><ele>1130.0</ele><time>2026-05-03T12:39:48.106Z</time></trkpt><trkpt lat="44.3844018" lon="6.6460318"><ele>1130.5</ele><time>2026-05-03T12:39:49.105Z</time></trkpt><trkpt lat="44.3844306" lon="6.6462305"><ele>1131.0</ele><time>2026-05-03T12:39:50.106Z</time></trkpt><trkpt lat="44.3844616" lon="6.6464006"><ele>1131.5</ele><time>2026-05-03T12:39:51.106Z</time></trkpt><trkpt lat="44.3844769" lon="6.6465765"><ele>1132.0</ele><time>2026-05-03T12:39:52.106Z</time></trkpt><trkpt lat="44.3844957" lon="6.6467531"><ele>1132.0</ele><time>2026-05-03T12:39:53.105Z</time></trkpt><trkpt lat="44.3845123" lon="6.6469335"><ele>1132.0</ele><time>2026-05-03T12:39:54.106Z</time></trkpt><trkpt lat="44.3845284" lon="6.6471007"><ele>1132.0</ele><time>2026-05-03T12:39:55.106Z</time></trkpt><trkpt lat="44.3845325" lon="6.6472604"><ele>1132.0</ele><time>2026-05-03T12:39:56.106Z</time></trkpt><trkpt lat="44.3845281" lon="6.6474325"><ele>1132.2</ele><time>2026-05-03T12:39:57.106Z</time></trkpt><trkpt lat="44.3845166" lon="6.6475965"><ele>1132.4</ele><time>2026-05-03T12:39:58.105Z</time></trkpt><trkpt lat="44.3844954" lon="6.6477511"><ele>1132.6</ele><time>2026-05-03T12:39:59.106Z</time></trkpt><trkpt lat="44.3844684" lon="6.6479041"><ele>1132.8</ele><time>2026-05-03T12:40:00.106Z</time></trkpt><trkpt lat="44.3844487" lon="6.6480396"><ele>1133.0</ele><time>2026-05-03T12:40:01.106Z</time></trkpt><trkpt lat="44.3844423" lon="6.6481647"><ele>1133.1666666666667</ele><time>2026-05-03T12:40:02.106Z</time></trkpt><trkpt lat="44.3844539" lon="6.6482755"><ele>1133.3333333333335</ele><time>2026-05-03T12:40:03.105Z</time></trkpt><trkpt lat="44.3844882" lon="6.6483824"><ele>1133.5</ele><time>2026-05-03T12:40:04.106Z</time></trkpt><trkpt lat="44.384536" lon="6.6484764"><ele>1133.6666666666667</ele><time>2026-05-03T12:40:05.106Z</time></trkpt><trkpt lat="44.3846098" lon="6.6485458"><ele>1133.8333333333333</ele><time>2026-05-03T12:40:06.106Z</time></trkpt><trkpt lat="44.3846813" lon="6.6486073"><ele>1134.0</ele><time>2026-05-03T12:40:07.106Z</time></trkpt><trkpt lat="44.3847527" lon="6.6486408"><ele>1134.6000000000001</ele><time>2026-05-03T12:40:08.105Z</time></trkpt><trkpt lat="44.3848542" lon="6.6486909"><ele>1135.2</ele><time>2026-05-03T12:40:10.106Z</time></trkpt><trkpt lat="44.3849781" lon="6.6487775"><ele>1135.8000000000002</ele><time>2026-05-03T12:40:12.106Z</time></trkpt><trkpt lat="44.3850393" lon="6.6488455"><ele>1136.4</ele><time>2026-05-03T12:40:13.106Z</time></trkpt><trkpt lat="44.3850958" lon="6.6489309"><ele>1137.0</ele><time>2026-05-03T12:40:14.106Z</time></trkpt><trkpt lat="44.3851494" lon="6.6490295"><ele>1137.0</ele><time>2026-05-03T12:40:15.106Z</time></trkpt><trkpt lat="44.3852025" lon="6.6491326"><ele>1137.0</ele><time>2026-05-03T12:40:16.106Z</time></trkpt><trkpt lat="44.3852562" lon="6.6492433"><ele>1137.0</ele><time>2026-05-03T12:40:17.106Z</time></trkpt><trkpt lat="44.3853152" lon="6.649355"><ele>1137.0</ele><time>2026-05-03T12:40:18.106Z</time></trkpt><trkpt lat="44.385359" lon="6.6494723"><ele>1137.0</ele><time>2026-05-03T12:40:19.106Z</time></trkpt><trkpt lat="44.3853997" lon="6.6495785"><ele>1137.0</ele><time>2026-05-03T12:40:20.106Z</time></trkpt><trkpt lat="44.3854421" lon="6.6497272"><ele>1137.0</ele><time>2026-05-03T12:40:21.105Z</time></trkpt><trkpt lat="44.3854889" lon="6.6498081"><ele>1137.0</ele><time>2026-05-03T12:40:22.106Z</time></trkpt><trkpt lat="44.385537" lon="6.6499141"><ele>1137.0</ele><time>2026-05-03T12:40:23.106Z</time></trkpt><trkpt lat="44.3855955" lon="6.6500272"><ele>1137.0</ele><time>2026-05-03T12:40:24.106Z</time></trkpt><trkpt lat="44.3856556" lon="6.6501543"><ele>1137.0</ele><time>2026-05-03T12:40:25.106Z</time></trkpt><trkpt lat="44.3857041" lon="6.6502799"><ele>1137.0</ele><time>2026-05-03T12:40:26.106Z</time></trkpt><trkpt lat="44.3857423" lon="6.6504215"><ele>1137.0</ele><time>2026-05-03T12:40:27.106Z</time></trkpt><trkpt lat="44.3857788" lon="6.6505595"><ele>1137.0</ele><time>2026-05-03T12:40:28.105Z</time></trkpt><trkpt lat="44.3858158" lon="6.650696"><ele>1137.0</ele><time>2026-05-03T12:40:29.106Z</time></trkpt><trkpt lat="44.3858489" lon="6.6508299"><ele>1137.4</ele><time>2026-05-03T12:40:30.106Z</time></trkpt><trkpt lat="44.3858741" lon="6.6509647"><ele>1137.8000000000002</ele><time>2026-05-03T12:40:31.106Z</time></trkpt><trkpt lat="44.3859077" lon="6.6510936"><ele>1138.2</ele><time>2026-05-03T12:40:32.106Z</time></trkpt><trkpt lat="44.3859336" lon="6.6512222"><ele>1138.6000000000001</ele><time>2026-05-03T12:40:33.106Z</time></trkpt><trkpt lat="44.3859597" lon="6.6513534"><ele>1139.0</ele><time>2026-05-03T12:40:34.106Z</time></trkpt><trkpt lat="44.3859846" lon="6.6514942"><ele>1139.0</ele><time>2026-05-03T12:40:35.106Z</time></trkpt><trkpt lat="44.3860129" lon="6.6516234"><ele>1139.0</ele><time>2026-05-03T12:40:36.106Z</time></trkpt><trkpt lat="44.3860346" lon="6.6517545"><ele>1139.0</ele><time>2026-05-03T12:40:37.106Z</time></trkpt><trkpt lat="44.3860618" lon="6.6518859"><ele>1139.0</ele><time>2026-05-03T12:40:38.105Z</time></trkpt><trkpt lat="44.3860872" lon="6.6520079"><ele>1139.0</ele><time>2026-05-03T12:40:39.106Z</time></trkpt><trkpt lat="44.3861004" lon="6.6521057"><ele>1139.0</ele><time>2026-05-03T12:40:40.106Z</time></trkpt><trkpt lat="44.3861194" lon="6.6521909"><ele>1139.0</ele><time>2026-05-03T12:40:41.106Z</time></trkpt><trkpt lat="44.3861459" lon="6.6523422"><ele>1139.0</ele><time>2026-05-03T12:40:43.105Z</time></trkpt><trkpt lat="44.386104" lon="6.6524768"><ele>1139.0</ele><time>2026-05-03T12:40:45.106Z</time></trkpt><trkpt lat="44.3860287" lon="6.6525341"><ele>1139.0</ele><time>2026-05-03T12:40:47.106Z</time></trkpt><trkpt lat="44.3858868" lon="6.6525631"><ele>1139.0</ele><time>2026-05-03T12:40:49.106Z</time></trkpt><trkpt lat="44.3858124" lon="6.6525851"><ele>1139.0</ele><time>2026-05-03T12:40:50.106Z</time></trkpt><trkpt lat="44.3857242" lon="6.6525891"><ele>1139.0</ele><time>2026-05-03T12:40:51.106Z</time></trkpt><trkpt lat="44.3856421" lon="6.6525938"><ele>1139.0</ele><time>2026-05-03T12:40:52.106Z</time></trkpt><trkpt lat="44.3855523" lon="6.6525993"><ele>1139.0</ele><time>2026-05-03T12:40:53.106Z</time></trkpt><trkpt lat="44.3854783" lon="6.6526052"><ele>1139.0</ele><time>2026-05-03T12:40:54.105Z</time></trkpt><trkpt lat="44.3853919" lon="6.6526082"><ele>1139.0</ele><time>2026-05-03T12:40:55.105Z</time></trkpt><trkpt lat="44.3853036" lon="6.6526185"><ele>1139.0</ele><time>2026-05-03T12:40:56.106Z</time></trkpt><trkpt lat="44.3852308" lon="6.6526548"><ele>1139.0</ele><time>2026-05-03T12:40:57.106Z</time></trkpt><trkpt lat="44.3851521" lon="6.6526981"><ele>1139.0</ele><time>2026-05-03T12:40:58.106Z</time></trkpt><trkpt lat="44.3850817" lon="6.6527574"><ele>1139.0</ele><time>2026-05-03T12:40:59.106Z</time></trkpt><trkpt lat="44.3850622" lon="6.6528943"><ele>1139.0</ele><time>2026-05-03T12:41:00.106Z</time></trkpt><trkpt lat="44.385045" lon="6.6530161"><ele>1139.2</ele><time>2026-05-03T12:41:01.106Z</time></trkpt><trkpt lat="44.3850653" lon="6.6531649"><ele>1139.4</ele><time>2026-05-03T12:41:02.105Z</time></trkpt><trkpt lat="44.3850824" lon="6.6533162"><ele>1139.6</ele><time>2026-05-03T12:41:03.106Z</time></trkpt><trkpt lat="44.3851015" lon="6.653471"><ele>1139.8</ele><time>2026-05-03T12:41:04.106Z</time></trkpt><trkpt lat="44.3851127" lon="6.6536253"><ele>1140.0</ele><time>2026-05-03T12:41:05.106Z</time></trkpt><trkpt lat="44.3851298" lon="6.65378"><ele>1140.0</ele><time>2026-05-03T12:41:06.105Z</time></trkpt><trkpt lat="44.3851458" lon="6.6539278"><ele>1140.0</ele><time>2026-05-03T12:41:07.106Z</time></trkpt><trkpt lat="44.3851622" lon="6.6540556"><ele>1140.0</ele><time>2026-05-03T12:41:08.106Z</time></trkpt><trkpt lat="44.3851764" lon="6.6541763"><ele>1140.0</ele><time>2026-05-03T12:41:09.106Z</time></trkpt><trkpt lat="44.3851907" lon="6.6542873"><ele>1140.0</ele><time>2026-05-03T12:41:10.106Z</time></trkpt><trkpt lat="44.3852084" lon="6.6544185"><ele>1140.2</ele><time>2026-05-03T12:41:11.106Z</time></trkpt><trkpt lat="44.3852139" lon="6.6545479"><ele>1140.4</ele><time>2026-05-03T12:41:12.105Z</time></trkpt><trkpt lat="44.3852229" lon="6.6546825"><ele>1140.6</ele><time>2026-05-03T12:41:13.106Z</time></trkpt><trkpt lat="44.3852225" lon="6.6548375"><ele>1140.8</ele><time>2026-05-03T12:41:14.105Z</time></trkpt><trkpt lat="44.385229" lon="6.6549771"><ele>1141.0</ele><time>2026-05-03T12:41:15.106Z</time></trkpt><trkpt lat="44.3852321" lon="6.6551431"><ele>1140.25</ele><time>2026-05-03T12:41:16.106Z</time></trkpt><trkpt lat="44.3852293" lon="6.6553033"><ele>1139.5</ele><time>2026-05-03T12:41:17.106Z</time></trkpt><trkpt lat="44.3852282" lon="6.6554572"><ele>1138.75</ele><time>2026-05-03T12:41:18.106Z</time></trkpt><trkpt lat="44.3852252" lon="6.6556146"><ele>1138.0</ele><time>2026-05-03T12:41:19.106Z</time></trkpt><trkpt lat="44.3852209" lon="6.6557748"><ele>1138.0</ele><time>2026-05-03T12:41:20.105Z</time></trkpt><trkpt lat="44.3852162" lon="6.6559269"><ele>1138.0</ele><time>2026-05-03T12:41:21.105Z</time></trkpt><trkpt lat="44.3852224" lon="6.6560687"><ele>1138.0</ele><time>2026-05-03T12:41:22.106Z</time></trkpt><trkpt lat="44.385212" lon="6.6562398"><ele>1138.0</ele><time>2026-05-03T12:41:23.106Z</time></trkpt><trkpt lat="44.3852014" lon="6.6564051"><ele>1138.5</ele><time>2026-05-03T12:41:24.106Z</time></trkpt><trkpt lat="44.3851977" lon="6.6565688"><ele>1139.0</ele><time>2026-05-03T12:41:25.106Z</time></trkpt><trkpt lat="44.3851846" lon="6.6567516"><ele>1139.5</ele><time>2026-05-03T12:41:26.106Z</time></trkpt><trkpt lat="44.3851856" lon="6.656887"><ele>1140.0</ele><time>2026-05-03T12:41:27.106Z</time></trkpt><trkpt lat="44.3851785" lon="6.6570386"><ele>1140.3333333333333</ele><time>2026-05-03T12:41:28.106Z</time></trkpt><trkpt lat="44.3851748" lon="6.6571778"><ele>1140.6666666666667</ele><time>2026-05-03T12:41:29.106Z</time></trkpt><trkpt lat="44.3851697" lon="6.6572914"><ele>1141.0</ele><time>2026-05-03T12:41:30.105Z</time></trkpt><trkpt lat="44.3851609" lon="6.6574007"><ele>1141.3333333333335</ele><time>2026-05-03T12:41:31.106Z</time></trkpt><trkpt lat="44.3851539" lon="6.6574894"><ele>1141.6666666666667</ele><time>2026-05-03T12:41:32.106Z</time></trkpt><trkpt lat="44.3851515" lon="6.6576072"><ele>1142.0</ele><time>2026-05-03T12:41:34.106Z</time></trkpt><trkpt lat="44.3851429" lon="6.6577406"><ele>1142.2</ele><time>2026-05-03T12:41:36.106Z</time></trkpt><trkpt lat="44.3851325" lon="6.6579126"><ele>1142.4</ele><time>2026-05-03T12:41:38.106Z</time></trkpt><trkpt lat="44.3851262" lon="6.6580149"><ele>1142.6</ele><time>2026-05-03T12:41:39.106Z</time></trkpt><trkpt lat="44.3851156" lon="6.6581353"><ele>1142.8</ele><time>2026-05-03T12:41:40.105Z</time></trkpt><trkpt lat="44.3851197" lon="6.658262"><ele>1143.0</ele><time>2026-05-03T12:41:41.106Z</time></trkpt><trkpt lat="44.3851233" lon="6.6583986"><ele>1143.0</ele><time>2026-05-03T12:41:42.106Z</time></trkpt><trkpt lat="44.3851217" lon="6.6585303"><ele>1143.0</ele><time>2026-05-03T12:41:43.105Z</time></trkpt><trkpt lat="44.3851186" lon="6.6586628"><ele>1143.0</ele><time>2026-05-03T12:41:44.106Z</time></trkpt><trkpt lat="44.3851119" lon="6.65879"><ele>1143.0</ele><time>2026-05-03T12:41:45.106Z</time></trkpt><trkpt lat="44.3851053" lon="6.6589167"><ele>1143.0</ele><time>2026-05-03T12:41:46.106Z</time></trkpt><trkpt lat="44.3850995" lon="6.6590302"><ele>1142.6</ele><time>2026-05-03T12:41:47.106Z</time></trkpt><trkpt lat="44.3850957" lon="6.6591544"><ele>1142.1999999999998</ele><time>2026-05-03T12:41:48.106Z</time></trkpt><trkpt lat="44.3850905" lon="6.6592846"><ele>1141.8</ele><time>2026-05-03T12:41:49.106Z</time></trkpt><trkpt lat="44.3850871" lon="6.6594139"><ele>1141.3999999999999</ele><time>2026-05-03T12:41:50.106Z</time></trkpt><trkpt lat="44.385084" lon="6.6595532"><ele>1141.0</ele><time>2026-05-03T12:41:51.106Z</time></trkpt><trkpt lat="44.3850828" lon="6.6596921"><ele>1141.0</ele><time>2026-05-03T12:41:52.105Z</time></trkpt><trkpt lat="44.3850794" lon="6.6598236"><ele>1141.0</ele><time>2026-05-03T12:41:53.105Z</time></trkpt><trkpt lat="44.3850705" lon="6.6599635"><ele>1141.0</ele><time>2026-05-03T12:41:54.105Z</time></trkpt><trkpt lat="44.385061" lon="6.6600823"><ele>1141.0</ele><time>2026-05-03T12:41:55.106Z</time></trkpt><trkpt lat="44.3850646" lon="6.6602253"><ele>1141.0</ele><time>2026-05-03T12:41:56.106Z</time></trkpt><trkpt lat="44.3850672" lon="6.6603638"><ele>1141.0</ele><time>2026-05-03T12:41:57.106Z</time></trkpt><trkpt lat="44.3850606" lon="6.6604813"><ele>1141.0</ele><time>2026-05-03T12:41:58.106Z</time></trkpt><trkpt lat="44.3850425" lon="6.6605893"><ele>1141.0</ele><time>2026-05-03T12:41:59.105Z</time></trkpt><trkpt lat="44.3849984" lon="6.6606887"><ele>1141.0</ele><time>2026-05-03T12:42:01.106Z</time></trkpt><trkpt lat="44.3849566" lon="6.6607886"><ele>1141.0</ele><time>2026-05-03T12:42:06.106Z</time></trkpt><trkpt lat="44.3849785" lon="6.6608901"><ele>1141.0</ele><time>2026-05-03T12:42:08.106Z</time></trkpt><trkpt lat="44.3850053" lon="6.6609843"><ele>1140.6666666666665</ele><time>2026-05-03T12:42:09.106Z</time></trkpt><trkpt lat="44.3851267" lon="6.661192"><ele>1140.3333333333333</ele><time>2026-05-03T12:42:10.106Z</time></trkpt><trkpt lat="44.385195" lon="6.661312"><ele>1140.0</ele><time>2026-05-03T12:42:11.105Z</time></trkpt><trkpt lat="44.3852871" lon="6.661485"><ele>1140.0</ele><time>2026-05-03T12:42:12.106Z</time></trkpt><trkpt lat="44.3853746" lon="6.6616444"><ele>1140.0</ele><time>2026-05-03T12:42:13.106Z</time></trkpt><trkpt lat="44.3854695" lon="6.6618006"><ele>1140.0</ele><time>2026-05-03T12:42:14.106Z</time></trkpt><trkpt lat="44.3855613" lon="6.6619624"><ele>1140.0</ele><time>2026-05-03T12:42:15.106Z</time></trkpt><trkpt lat="44.3856693" lon="6.6621209"><ele>1140.0</ele><time>2026-05-03T12:42:16.106Z</time></trkpt><trkpt lat="44.3857667" lon="6.6622878"><ele>1140.0</ele><time>2026-05-03T12:42:17.106Z</time></trkpt><trkpt lat="44.3858662" lon="6.6624487"><ele>1140.0</ele><time>2026-05-03T12:42:18.106Z</time></trkpt><trkpt lat="44.3859708" lon="6.6626012"><ele>1140.0</ele><time>2026-05-03T12:42:19.105Z</time></trkpt><trkpt lat="44.3860711" lon="6.6627488"><ele>1140.0</ele><time>2026-05-03T12:42:20.106Z</time></trkpt><trkpt lat="44.3861649" lon="6.6628779"><ele>1140.0</ele><time>2026-05-03T12:42:21.106Z</time></trkpt><trkpt lat="44.3862709" lon="6.6630201"><ele>1140.0</ele><time>2026-05-03T12:42:22.106Z</time></trkpt><trkpt lat="44.38637" lon="6.6631559"><ele>1140.75</ele><time>2026-05-03T12:42:23.106Z</time></trkpt><trkpt lat="44.3864609" lon="6.6633065"><ele>1141.5</ele><time>2026-05-03T12:42:24.106Z</time></trkpt><trkpt lat="44.3865587" lon="6.6634441"><ele>1142.25</ele><time>2026-05-03T12:42:25.106Z</time></trkpt><trkpt lat="44.3866475" lon="6.6635885"><ele>1143.0</ele><time>2026-05-03T12:42:26.106Z</time></trkpt><trkpt lat="44.3867396" lon="6.6637351"><ele>1143.0</ele><time>2026-05-03T12:42:27.105Z</time></trkpt><trkpt lat="44.3868292" lon="6.6638864"><ele>1143.0</ele><time>2026-05-03T12:42:28.106Z</time></trkpt><trkpt lat="44.3869159" lon="6.664033"><ele>1143.0</ele><time>2026-05-03T12:42:29.106Z</time></trkpt><trkpt lat="44.3870094" lon="6.6641813"><ele>1143.0</ele><time>2026-05-03T12:42:30.105Z</time></trkpt><trkpt lat="44.3871131" lon="6.6643248"><ele>1143.5</ele><time>2026-05-03T12:42:31.106Z</time></trkpt><trkpt lat="44.3872101" lon="6.6644759"><ele>1144.0</ele><time>2026-05-03T12:42:32.106Z</time></trkpt><trkpt lat="44.3873227" lon="6.6646311"><ele>1144.5</ele><time>2026-05-03T12:42:33.105Z</time></trkpt><trkpt lat="44.3874139" lon="6.6647794"><ele>1145.0</ele><time>2026-05-03T12:42:34.106Z</time></trkpt><trkpt lat="44.3875098" lon="6.6649238"><ele>1145.0</ele><time>2026-05-03T12:42:35.106Z</time></trkpt><trkpt lat="44.3876022" lon="6.6650791"><ele>1145.0</ele><time>2026-05-03T12:42:36.106Z</time></trkpt><trkpt lat="44.3877079" lon="6.6652235"><ele>1145.0</ele><time>2026-05-03T12:42:37.106Z</time></trkpt><trkpt lat="44.3878026" lon="6.6653715"><ele>1145.0</ele><time>2026-05-03T12:42:38.106Z</time></trkpt><trkpt lat="44.3878998" lon="6.6655195"><ele>1145.25</ele><time>2026-05-03T12:42:39.106Z</time></trkpt><trkpt lat="44.3879885" lon="6.6656636"><ele>1145.5</ele><time>2026-05-03T12:42:40.105Z</time></trkpt><trkpt lat="44.3880778" lon="6.6658099"><ele>1145.75</ele><time>2026-05-03T12:42:41.106Z</time></trkpt><trkpt lat="44.3881744" lon="6.6659399"><ele>1146.0</ele><time>2026-05-03T12:42:42.106Z</time></trkpt><trkpt lat="44.388272" lon="6.6660779"><ele>1145.5</ele><time>2026-05-03T12:42:43.106Z</time></trkpt><trkpt lat="44.3883603" lon="6.6662221"><ele>1145.0</ele><time>2026-05-03T12:42:44.105Z</time></trkpt><trkpt lat="44.3884525" lon="6.6663627"><ele>1144.5</ele><time>2026-05-03T12:42:45.106Z</time></trkpt><trkpt lat="44.388539" lon="6.6664996"><ele>1144.0</ele><time>2026-05-03T12:42:46.106Z</time></trkpt><trkpt lat="44.3886304" lon="6.6666401"><ele>1144.0</ele><time>2026-05-03T12:42:47.105Z</time></trkpt><trkpt lat="44.3887157" lon="6.6667768"><ele>1144.0</ele><time>2026-05-03T12:42:48.106Z</time></trkpt><trkpt lat="44.3888176" lon="6.6669108"><ele>1144.0</ele><time>2026-05-03T12:42:49.106Z</time></trkpt><trkpt lat="44.3889079" lon="6.6670543"><ele>1144.0</ele><time>2026-05-03T12:42:50.106Z</time></trkpt><trkpt lat="44.3889966" lon="6.6671878"><ele>1144.0</ele><time>2026-05-03T12:42:51.106Z</time></trkpt><trkpt lat="44.3890887" lon="6.6673185"><ele>1144.0</ele><time>2026-05-03T12:42:52.106Z</time></trkpt><trkpt lat="44.3891767" lon="6.667452"><ele>1144.0</ele><time>2026-05-03T12:42:53.106Z</time></trkpt><trkpt lat="44.3892537" lon="6.667529"><ele>1144.0</ele><time>2026-05-03T12:42:54.106Z</time></trkpt><trkpt lat="44.3893302" lon="6.6676017"><ele>1144.0</ele><time>2026-05-03T12:42:55.106Z</time></trkpt><trkpt lat="44.3893995" lon="6.6676669"><ele>1144.0</ele><time>2026-05-03T12:42:56.106Z</time></trkpt><trkpt lat="44.3894566" lon="6.6677243"><ele>1144.0</ele><time>2026-05-03T12:42:57.106Z</time></trkpt><trkpt lat="44.3895029" lon="6.6677888"><ele>1144.0</ele><time>2026-05-03T12:42:58.105Z</time></trkpt><trkpt lat="44.389563" lon="6.6678672"><ele>1144.0</ele><time>2026-05-03T12:43:00.106Z</time></trkpt><trkpt lat="44.3896552" lon="6.667921"><ele>1144.0</ele><time>2026-05-03T12:43:02.106Z</time></trkpt><trkpt lat="44.3897227" lon="6.6679334"><ele>1144.0</ele><time>2026-05-03T12:43:03.106Z</time></trkpt><trkpt lat="44.3898353" lon="6.6679732"><ele>1144.8</ele><time>2026-05-03T12:43:05.106Z</time></trkpt><trkpt lat="44.3899389" lon="6.6680475"><ele>1145.6000000000001</ele><time>2026-05-03T12:43:07.106Z</time></trkpt><trkpt lat="44.3900204" lon="6.6682272"><ele>1146.4</ele><time>2026-05-03T12:43:09.106Z</time></trkpt><trkpt lat="44.3900537" lon="6.6683421"><ele>1147.2</ele><time>2026-05-03T12:43:10.106Z</time></trkpt><trkpt lat="44.3900809" lon="6.6684577"><ele>1148.0</ele><time>2026-05-03T12:43:11.106Z</time></trkpt><trkpt lat="44.3901158" lon="6.6685607"><ele>1148.25</ele><time>2026-05-03T12:43:12.106Z</time></trkpt><trkpt lat="44.3901546" lon="6.6687066"><ele>1148.5</ele><time>2026-05-03T12:43:13.106Z</time></trkpt><trkpt lat="44.3901935" lon="6.6688568"><ele>1148.75</ele><time>2026-05-03T12:43:14.106Z</time></trkpt><trkpt lat="44.3902268" lon="6.6690172"><ele>1149.0</ele><time>2026-05-03T12:43:15.106Z</time></trkpt><trkpt lat="44.3902592" lon="6.6691782"><ele>1149.0</ele><time>2026-05-03T12:43:16.106Z</time></trkpt><trkpt lat="44.3902979" lon="6.6693477"><ele>1149.0</ele><time>2026-05-03T12:43:17.106Z</time></trkpt><trkpt lat="44.3903393" lon="6.6695128"><ele>1149.0</ele><time>2026-05-03T12:43:18.106Z</time></trkpt><trkpt lat="44.3904046" lon="6.6696645"><ele>1149.0</ele><time>2026-05-03T12:43:19.106Z</time></trkpt><trkpt lat="44.3904904" lon="6.669804"><ele>1149.5</ele><time>2026-05-03T12:43:20.106Z</time></trkpt><trkpt lat="44.3905954" lon="6.6699243"><ele>1150.0</ele><time>2026-05-03T12:43:21.106Z</time></trkpt><trkpt lat="44.3907123" lon="6.6700353"><ele>1150.5</ele><time>2026-05-03T12:43:22.106Z</time></trkpt><trkpt lat="44.3908382" lon="6.6701457"><ele>1151.0</ele><time>2026-05-03T12:43:23.106Z</time></trkpt><trkpt lat="44.390954" lon="6.6702766"><ele>1151.0</ele><time>2026-05-03T12:43:24.106Z</time></trkpt><trkpt lat="44.3910603" lon="6.6704221"><ele>1151.0</ele><time>2026-05-03T12:43:25.106Z</time></trkpt><trkpt lat="44.3911573" lon="6.6705829"><ele>1151.0</ele><time>2026-05-03T12:43:26.106Z</time></trkpt><trkpt lat="44.3912336" lon="6.6707497"><ele>1151.0</ele><time>2026-05-03T12:43:27.105Z</time></trkpt><trkpt lat="44.3912938" lon="6.6709245"><ele>1151.0</ele><time>2026-05-03T12:43:28.106Z</time></trkpt><trkpt lat="44.3913293" lon="6.6711304"><ele>1151.0</ele><time>2026-05-03T12:43:29.106Z</time></trkpt><trkpt lat="44.3913493" lon="6.6713457"><ele>1151.0</ele><time>2026-05-03T12:43:30.106Z</time></trkpt><trkpt lat="44.3913537" lon="6.6715724"><ele>1153.3333333333335</ele><time>2026-05-03T12:43:31.106Z</time></trkpt><trkpt lat="44.391359" lon="6.6717968"><ele>1155.6666666666667</ele><time>2026-05-03T12:43:32.106Z</time></trkpt><trkpt lat="44.3913701" lon="6.6720521"><ele>1158.0</ele><time>2026-05-03T12:43:33.106Z</time></trkpt><trkpt lat="44.3913687" lon="6.6723009"><ele>1158.0</ele><time>2026-05-03T12:43:34.106Z</time></trkpt><trkpt lat="44.3913772" lon="6.6725378"><ele>1158.0</ele><time>2026-05-03T12:43:35.106Z</time></trkpt><trkpt lat="44.3913791" lon="6.672787"><ele>1158.0</ele><time>2026-05-03T12:43:36.106Z</time></trkpt><trkpt lat="44.3913789" lon="6.6730418"><ele>1159.3333333333333</ele><time>2026-05-03T12:43:37.106Z</time></trkpt><trkpt lat="44.3913883" lon="6.6732925"><ele>1160.6666666666665</ele><time>2026-05-03T12:43:38.106Z</time></trkpt><trkpt lat="44.3913919" lon="6.6735696"><ele>1162.0</ele><time>2026-05-03T12:43:39.105Z</time></trkpt><trkpt lat="44.3913992" lon="6.6738491"><ele>1162.0</ele><time>2026-05-03T12:43:40.105Z</time></trkpt><trkpt lat="44.3914039" lon="6.6741456"><ele>1162.0</ele><time>2026-05-03T12:43:41.106Z</time></trkpt><trkpt lat="44.3914159" lon="6.6744341"><ele>1162.0</ele><time>2026-05-03T12:43:42.106Z</time></trkpt><trkpt lat="44.3914162" lon="6.6747364"><ele>1162.0</ele><time>2026-05-03T12:43:43.106Z</time></trkpt><trkpt lat="44.3914239" lon="6.6750204"><ele>1162.0</ele><time>2026-05-03T12:43:44.106Z</time></trkpt><trkpt lat="44.3914257" lon="6.6752935"><ele>1162.0</ele><time>2026-05-03T12:43:45.106Z</time></trkpt><trkpt lat="44.3914348" lon="6.6755746"><ele>1162.0</ele><time>2026-05-03T12:43:46.106Z</time></trkpt><trkpt lat="44.3914409" lon="6.67584"><ele>1162.0</ele><time>2026-05-03T12:43:47.106Z</time></trkpt><trkpt lat="44.3914391" lon="6.6761134"><ele>1162.0</ele><time>2026-05-03T12:43:48.106Z</time></trkpt><trkpt lat="44.3914571" lon="6.6763696"><ele>1162.0</ele><time>2026-05-03T12:43:49.106Z</time></trkpt><trkpt lat="44.391462" lon="6.676639"><ele>1162.0</ele><time>2026-05-03T12:43:50.106Z</time></trkpt><trkpt lat="44.3914625" lon="6.6769101"><ele>1162.0</ele><time>2026-05-03T12:43:51.106Z</time></trkpt><trkpt lat="44.391471" lon="6.6771695"><ele>1162.3333333333333</ele><time>2026-05-03T12:43:52.106Z</time></trkpt><trkpt lat="44.3914762" lon="6.6774427"><ele>1162.6666666666667</ele><time>2026-05-03T12:43:53.106Z</time></trkpt><trkpt lat="44.3914848" lon="6.6777139"><ele>1163.0</ele><time>2026-05-03T12:43:54.106Z</time></trkpt><trkpt lat="44.3914833" lon="6.6779921"><ele>1163.3333333333335</ele><time>2026-05-03T12:43:55.106Z</time></trkpt><trkpt lat="44.3914892" lon="6.6782663"><ele>1163.6666666666667</ele><time>2026-05-03T12:43:56.106Z</time></trkpt><trkpt lat="44.391499" lon="6.6785414"><ele>1164.0</ele><time>2026-05-03T12:43:57.106Z</time></trkpt><trkpt lat="44.3915056" lon="6.6788181"><ele>1164.3333333333333</ele><time>2026-05-03T12:43:58.106Z</time></trkpt><trkpt lat="44.3915168" lon="6.6790863"><ele>1164.6666666666665</ele><time>2026-05-03T12:43:59.106Z</time></trkpt><trkpt lat="44.3915176" lon="6.6793671"><ele>1165.0</ele><time>2026-05-03T12:44:00.106Z</time></trkpt><trkpt lat="44.3915202" lon="6.679644"><ele>1165.6666666666665</ele><time>2026-05-03T12:44:01.106Z</time></trkpt><trkpt lat="44.3915238" lon="6.6799306"><ele>1166.3333333333333</ele><time>2026-05-03T12:44:02.106Z</time></trkpt><trkpt lat="44.3915346" lon="6.6802032"><ele>1167.0</ele><time>2026-05-03T12:44:03.106Z</time></trkpt><trkpt lat="44.3915458" lon="6.6804715"><ele>1167.0</ele><time>2026-05-03T12:44:04.106Z</time></trkpt><trkpt lat="44.3915464" lon="6.6807619"><ele>1167.0</ele><time>2026-05-03T12:44:05.106Z</time></trkpt><trkpt lat="44.3915506" lon="6.6810515"><ele>1167.0</ele><time>2026-05-03T12:44:06.106Z</time></trkpt><trkpt lat="44.3915623" lon="6.681332"><ele>1166.6666666666667</ele><time>2026-05-03T12:44:07.106Z</time></trkpt><trkpt lat="44.3915644" lon="6.6816082"><ele>1166.3333333333335</ele><time>2026-05-03T12:44:08.105Z</time></trkpt><trkpt lat="44.3915663" lon="6.68188"><ele>1166.0</ele><time>2026-05-03T12:44:09.106Z</time></trkpt><trkpt lat="44.3915766" lon="6.6821497"><ele>1166.0</ele><time>2026-05-03T12:44:10.106Z</time></trkpt><trkpt lat="44.3915795" lon="6.6824188"><ele>1166.0</ele><time>2026-05-03T12:44:11.106Z</time></trkpt><trkpt lat="44.3915886" lon="6.6826934"><ele>1166.0</ele><time>2026-05-03T12:44:12.106Z</time></trkpt><trkpt lat="44.391614" lon="6.6829542"><ele>1166.0</ele><time>2026-05-03T12:44:13.106Z</time></trkpt><trkpt lat="44.3916535" lon="6.6832181"><ele>1166.0</ele><time>2026-05-03T12:44:14.106Z</time></trkpt><trkpt lat="44.3917114" lon="6.6834842"><ele>1166.0</ele><time>2026-05-03T12:44:15.106Z</time></trkpt><trkpt lat="44.3917837" lon="6.6837596"><ele>1166.0</ele><time>2026-05-03T12:44:16.106Z</time></trkpt><trkpt lat="44.3918543" lon="6.6840244"><ele>1166.0</ele><time>2026-05-03T12:44:17.106Z</time></trkpt><trkpt lat="44.3919223" lon="6.6842962"><ele>1166.0</ele><time>2026-05-03T12:44:18.106Z</time></trkpt><trkpt lat="44.3919973" lon="6.6845644"><ele>1164.6666666666667</ele><time>2026-05-03T12:44:19.106Z</time></trkpt><trkpt lat="44.392069" lon="6.6848351"><ele>1163.3333333333333</ele><time>2026-05-03T12:44:20.106Z</time></trkpt><trkpt lat="44.392147" lon="6.6850987"><ele>1162.0</ele><time>2026-05-03T12:44:21.106Z</time></trkpt><trkpt lat="44.3922288" lon="6.6853705"><ele>1163.6666666666665</ele><time>2026-05-03T12:44:22.106Z</time></trkpt><trkpt lat="44.3922946" lon="6.6856191"><ele>1165.3333333333333</ele><time>2026-05-03T12:44:23.106Z</time></trkpt><trkpt lat="44.3923587" lon="6.6858699"><ele>1167.0</ele><time>2026-05-03T12:44:24.106Z</time></trkpt><trkpt lat="44.3924333" lon="6.6861179"><ele>1167.0</ele><time>2026-05-03T12:44:25.106Z</time></trkpt><trkpt lat="44.3925173" lon="6.6863536"><ele>1167.0</ele><time>2026-05-03T12:44:26.105Z</time></trkpt><trkpt lat="44.392617" lon="6.6865798"><ele>1167.0</ele><time>2026-05-03T12:44:27.105Z</time></trkpt><trkpt lat="44.3927532" lon="6.6868019"><ele>1167.6666666666667</ele><time>2026-05-03T12:44:28.105Z</time></trkpt><trkpt lat="44.3928809" lon="6.6870135"><ele>1168.3333333333335</ele><time>2026-05-03T12:44:29.106Z</time></trkpt><trkpt lat="44.3930107" lon="6.6872284"><ele>1169.0</ele><time>2026-05-03T12:44:30.106Z</time></trkpt><trkpt lat="44.3931467" lon="6.6874433"><ele>1169.0</ele><time>2026-05-03T12:44:31.106Z</time></trkpt><trkpt lat="44.3932768" lon="6.6876562"><ele>1169.0</ele><time>2026-05-03T12:44:32.105Z</time></trkpt><trkpt lat="44.3934075" lon="6.687871"><ele>1169.0</ele><time>2026-05-03T12:44:33.105Z</time></trkpt><trkpt lat="44.3935377" lon="6.6880854"><ele>1169.0</ele><time>2026-05-03T12:44:34.106Z</time></trkpt><trkpt lat="44.3936721" lon="6.6882973"><ele>1169.0</ele><time>2026-05-03T12:44:35.106Z</time></trkpt><trkpt lat="44.3938028" lon="6.6885106"><ele>1169.0</ele><time>2026-05-03T12:44:36.106Z</time></trkpt><trkpt lat="44.3939336" lon="6.6887263"><ele>1169.0</ele><time>2026-05-03T12:44:37.105Z</time></trkpt><trkpt lat="44.3940613" lon="6.6889389"><ele>1169.0</ele><time>2026-05-03T12:44:38.105Z</time></trkpt><trkpt lat="44.3941892" lon="6.6891527"><ele>1169.0</ele><time>2026-05-03T12:44:39.106Z</time></trkpt><trkpt lat="44.3943186" lon="6.6893577"><ele>1168.3333333333335</ele><time>2026-05-03T12:44:40.106Z</time></trkpt><trkpt lat="44.3944507" lon="6.6895609"><ele>1167.6666666666667</ele><time>2026-05-03T12:44:41.106Z</time></trkpt><trkpt lat="44.394591" lon="6.689762"><ele>1167.0</ele><time>2026-05-03T12:44:42.106Z</time></trkpt><trkpt lat="44.3947399" lon="6.6899481"><ele>1169.3333333333333</ele><time>2026-05-03T12:44:43.105Z</time></trkpt><trkpt lat="44.394893" lon="6.690126"><ele>1171.6666666666665</ele><time>2026-05-03T12:44:44.106Z</time></trkpt><trkpt lat="44.3950507" lon="6.6903048"><ele>1174.0</ele><time>2026-05-03T12:44:45.106Z</time></trkpt><trkpt lat="44.3951955" lon="6.6904912"><ele>1174.0</ele><time>2026-05-03T12:44:46.105Z</time></trkpt><trkpt lat="44.3953495" lon="6.6906689"><ele>1174.0</ele><time>2026-05-03T12:44:47.105Z</time></trkpt><trkpt lat="44.3955056" lon="6.6908408"><ele>1174.0</ele><time>2026-05-03T12:44:48.106Z</time></trkpt><trkpt lat="44.3956624" lon="6.6910065"><ele>1174.6666666666665</ele><time>2026-05-03T12:44:49.106Z</time></trkpt><trkpt lat="44.3958224" lon="6.6911716"><ele>1175.3333333333333</ele><time>2026-05-03T12:44:50.106Z</time></trkpt><trkpt lat="44.3959741" lon="6.6913096"><ele>1176.0</ele><time>2026-05-03T12:44:51.106Z</time></trkpt><trkpt lat="44.396132" lon="6.6914534"><ele>1176.0</ele><time>2026-05-03T12:44:52.105Z</time></trkpt><trkpt lat="44.3962978" lon="6.6915895"><ele>1176.0</ele><time>2026-05-03T12:44:53.106Z</time></trkpt><trkpt lat="44.39647" lon="6.6917288"><ele>1176.0</ele><time>2026-05-03T12:44:54.105Z</time></trkpt><trkpt lat="44.3966326" lon="6.6918608"><ele>1176.0</ele><time>2026-05-03T12:44:55.105Z</time></trkpt><trkpt lat="44.396796" lon="6.6919934"><ele>1176.0</ele><time>2026-05-03T12:44:56.106Z</time></trkpt><trkpt lat="44.3969575" lon="6.6921344"><ele>1176.0</ele><time>2026-05-03T12:44:57.106Z</time></trkpt><trkpt lat="44.3971215" lon="6.6922653"><ele>1176.6666666666667</ele><time>2026-05-03T12:44:58.106Z</time></trkpt><trkpt lat="44.3972849" lon="6.6923926"><ele>1177.3333333333335</ele><time>2026-05-03T12:44:59.106Z</time></trkpt><trkpt lat="44.3974442" lon="6.6925294"><ele>1178.0</ele><time>2026-05-03T12:45:00.106Z</time></trkpt><trkpt lat="44.3976056" lon="6.6926566"><ele>1177.3333333333335</ele><time>2026-05-03T12:45:01.106Z</time></trkpt><trkpt lat="44.3977825" lon="6.6928029"><ele>1176.6666666666667</ele><time>2026-05-03T12:45:02.105Z</time></trkpt><trkpt lat="44.3979484" lon="6.6929353"><ele>1176.0</ele><time>2026-05-03T12:45:03.106Z</time></trkpt><trkpt lat="44.3981139" lon="6.6930759"><ele>1177.6666666666667</ele><time>2026-05-03T12:45:04.106Z</time></trkpt><trkpt lat="44.3982821" lon="6.6932178"><ele>1179.3333333333335</ele><time>2026-05-03T12:45:05.106Z</time></trkpt><trkpt lat="44.3984514" lon="6.6933582"><ele>1181.0</ele><time>2026-05-03T12:45:06.106Z</time></trkpt><trkpt lat="44.3986184" lon="6.693499"><ele>1179.6666666666667</ele><time>2026-05-03T12:45:07.106Z</time></trkpt><trkpt lat="44.3988001" lon="6.6936436"><ele>1178.3333333333333</ele><time>2026-05-03T12:45:08.105Z</time></trkpt><trkpt lat="44.398965" lon="6.6937812"><ele>1177.0</ele><time>2026-05-03T12:45:09.106Z</time></trkpt><trkpt lat="44.3991286" lon="6.6939252"><ele>1177.0</ele><time>2026-05-03T12:45:10.105Z</time></trkpt><trkpt lat="44.3992824" lon="6.6941014"><ele>1177.0</ele><time>2026-05-03T12:45:11.105Z</time></trkpt><trkpt lat="44.3994225" lon="6.694289"><ele>1177.0</ele><time>2026-05-03T12:45:12.105Z</time></trkpt><trkpt lat="44.3995506" lon="6.6945015"><ele>1177.0</ele><time>2026-05-03T12:45:13.106Z</time></trkpt><trkpt lat="44.3996725" lon="6.6947331"><ele>1177.0</ele><time>2026-05-03T12:45:14.106Z</time></trkpt><trkpt lat="44.3997548" lon="6.6949874"><ele>1177.0</ele><time>2026-05-03T12:45:15.106Z</time></trkpt><trkpt lat="44.3998445" lon="6.695247"><ele>1177.3333333333333</ele><time>2026-05-03T12:45:16.106Z</time></trkpt><trkpt lat="44.3999296" lon="6.6954997"><ele>1177.6666666666667</ele><time>2026-05-03T12:45:17.106Z</time></trkpt><trkpt lat="44.4000191" lon="6.6957502"><ele>1178.0</ele><time>2026-05-03T12:45:18.105Z</time></trkpt><trkpt lat="44.4001083" lon="6.696002"><ele>1176.3333333333335</ele><time>2026-05-03T12:45:19.106Z</time></trkpt><trkpt lat="44.4001929" lon="6.6962533"><ele>1174.6666666666667</ele><time>2026-05-03T12:45:20.106Z</time></trkpt><trkpt lat="44.4002833" lon="6.6965041"><ele>1173.0</ele><time>2026-05-03T12:45:21.105Z</time></trkpt><trkpt lat="44.400373" lon="6.6967613"><ele>1174.0</ele><time>2026-05-03T12:45:22.105Z</time></trkpt><trkpt lat="44.4004591" lon="6.6970127"><ele>1175.0</ele><time>2026-05-03T12:45:23.106Z</time></trkpt><trkpt lat="44.400547" lon="6.6972619"><ele>1176.0</ele><time>2026-05-03T12:45:24.106Z</time></trkpt><trkpt lat="44.4006378" lon="6.6975133"><ele>1178.6666666666667</ele><time>2026-05-03T12:45:25.106Z</time></trkpt><trkpt lat="44.4007296" lon="6.697761"><ele>1181.3333333333335</ele><time>2026-05-03T12:45:26.106Z</time></trkpt><trkpt lat="44.4008187" lon="6.6980109"><ele>1184.0</ele><time>2026-05-03T12:45:27.106Z</time></trkpt><trkpt lat="44.4009036" lon="6.6982604"><ele>1184.0</ele><time>2026-05-03T12:45:28.106Z</time></trkpt><trkpt lat="44.4009916" lon="6.6985109"><ele>1184.0</ele><time>2026-05-03T12:45:29.105Z</time></trkpt><trkpt lat="44.4010817" lon="6.6987489"><ele>1184.0</ele><time>2026-05-03T12:45:30.106Z</time></trkpt><trkpt lat="44.4011693" lon="6.6990025"><ele>1184.3333333333335</ele><time>2026-05-03T12:45:31.106Z</time></trkpt><trkpt lat="44.4012581" lon="6.6992547"><ele>1184.6666666666667</ele><time>2026-05-03T12:45:32.105Z</time></trkpt><trkpt lat="44.4013408" lon="6.6995047"><ele>1185.0</ele><time>2026-05-03T12:45:33.105Z</time></trkpt><trkpt lat="44.4014239" lon="6.6997552"><ele>1185.6666666666667</ele><time>2026-05-03T12:45:34.106Z</time></trkpt><trkpt lat="44.4015143" lon="6.7000019"><ele>1186.3333333333335</ele><time>2026-05-03T12:45:35.106Z</time></trkpt><trkpt lat="44.401596" lon="6.7002473"><ele>1187.0</ele><time>2026-05-03T12:45:36.106Z</time></trkpt><trkpt lat="44.4016785" lon="6.7004882"><ele>1187.0</ele><time>2026-05-03T12:45:37.106Z</time></trkpt><trkpt lat="44.4017633" lon="6.7007416"><ele>1187.0</ele><time>2026-05-03T12:45:38.106Z</time></trkpt><trkpt lat="44.4018714" lon="6.7009653"><ele>1187.0</ele><time>2026-05-03T12:45:39.106Z</time></trkpt><trkpt lat="44.4020004" lon="6.7011752"><ele>1187.6666666666667</ele><time>2026-05-03T12:45:40.106Z</time></trkpt><trkpt lat="44.402141" lon="6.7013467"><ele>1188.3333333333333</ele><time>2026-05-03T12:45:41.106Z</time></trkpt><trkpt lat="44.4022893" lon="6.7014848"><ele>1189.0</ele><time>2026-05-03T12:45:42.106Z</time></trkpt><trkpt lat="44.4024799" lon="6.7015649"><ele>1189.0</ele><time>2026-05-03T12:45:43.106Z</time></trkpt><trkpt lat="44.4026733" lon="6.7016437"><ele>1189.0</ele><time>2026-05-03T12:45:44.106Z</time></trkpt><trkpt lat="44.4028718" lon="6.7017144"><ele>1189.0</ele><time>2026-05-03T12:45:45.106Z</time></trkpt><trkpt lat="44.4030591" lon="6.701787"><ele>1188.3333333333333</ele><time>2026-05-03T12:45:46.106Z</time></trkpt><trkpt lat="44.4032384" lon="6.7018617"><ele>1187.6666666666667</ele><time>2026-05-03T12:45:47.105Z</time></trkpt><trkpt lat="44.4034133" lon="6.7019439"><ele>1187.0</ele><time>2026-05-03T12:45:48.106Z</time></trkpt><trkpt lat="44.403587" lon="6.702052"><ele>1185.6666666666667</ele><time>2026-05-03T12:45:49.106Z</time></trkpt><trkpt lat="44.403744" lon="6.7021996"><ele>1184.3333333333333</ele><time>2026-05-03T12:45:50.105Z</time></trkpt><trkpt lat="44.4038903" lon="6.7023697"><ele>1183.0</ele><time>2026-05-03T12:45:51.105Z</time></trkpt><trkpt lat="44.4039843" lon="6.7025849"><ele>1182.3333333333333</ele><time>2026-05-03T12:45:52.106Z</time></trkpt><trkpt lat="44.4040552" lon="6.7028345"><ele>1181.6666666666667</ele><time>2026-05-03T12:45:53.106Z</time></trkpt><trkpt lat="44.4041236" lon="6.7030969"><ele>1181.0</ele><time>2026-05-03T12:45:54.106Z</time></trkpt><trkpt lat="44.4041931" lon="6.7033659"><ele>1181.6666666666667</ele><time>2026-05-03T12:45:55.106Z</time></trkpt><trkpt lat="44.4042627" lon="6.7036348"><ele>1182.3333333333333</ele><time>2026-05-03T12:45:56.105Z</time></trkpt><trkpt lat="44.4043347" lon="6.7039043"><ele>1183.0</ele><time>2026-05-03T12:45:57.106Z</time></trkpt><trkpt lat="44.4044072" lon="6.7041709"><ele>1182.3333333333333</ele><time>2026-05-03T12:45:58.105Z</time></trkpt><trkpt lat="44.4044781" lon="6.7044329"><ele>1181.6666666666667</ele><time>2026-05-03T12:45:59.106Z</time></trkpt><trkpt lat="44.4045433" lon="6.7046938"><ele>1181.0</ele><time>2026-05-03T12:46:00.106Z</time></trkpt><trkpt lat="44.4046096" lon="6.7049503"><ele>1180.6666666666667</ele><time>2026-05-03T12:46:01.106Z</time></trkpt><trkpt lat="44.4046745" lon="6.7051869"><ele>1180.3333333333333</ele><time>2026-05-03T12:46:02.106Z</time></trkpt><trkpt lat="44.4047331" lon="6.70546"><ele>1180.0</ele><time>2026-05-03T12:46:03.106Z</time></trkpt><trkpt lat="44.4047762" lon="6.7057317"><ele>1180.0</ele><time>2026-05-03T12:46:04.106Z</time></trkpt><trkpt lat="44.4048069" lon="6.7060063"><ele>1180.0</ele><time>2026-05-03T12:46:05.106Z</time></trkpt><trkpt lat="44.4048166" lon="6.7062862"><ele>1180.0</ele><time>2026-05-03T12:46:06.106Z</time></trkpt><trkpt lat="44.4048191" lon="6.7065736"><ele>1180.0</ele><time>2026-05-03T12:46:07.105Z</time></trkpt><trkpt lat="44.4048183" lon="6.7068611"><ele>1180.0</ele><time>2026-05-03T12:46:08.106Z</time></trkpt><trkpt lat="44.4048201" lon="6.7071604"><ele>1180.0</ele><time>2026-05-03T12:46:09.106Z</time></trkpt><trkpt lat="44.4048195" lon="6.7074523"><ele>1181.0</ele><time>2026-05-03T12:46:10.106Z</time></trkpt><trkpt lat="44.4048163" lon="6.7077382"><ele>1182.0</ele><time>2026-05-03T12:46:11.106Z</time></trkpt><trkpt lat="44.4048188" lon="6.7080195"><ele>1183.0</ele><time>2026-05-03T12:46:12.105Z</time></trkpt><trkpt lat="44.4048232" lon="6.708288"><ele>1183.6666666666665</ele><time>2026-05-03T12:46:13.105Z</time></trkpt><trkpt lat="44.4048267" lon="6.7085602"><ele>1184.3333333333333</ele><time>2026-05-03T12:46:14.106Z</time></trkpt><trkpt lat="44.4048297" lon="6.7088351"><ele>1185.0</ele><time>2026-05-03T12:46:15.105Z</time></trkpt><trkpt lat="44.4048357" lon="6.7090951"><ele>1186.3333333333333</ele><time>2026-05-03T12:46:16.105Z</time></trkpt><trkpt lat="44.4048381" lon="6.7093621"><ele>1187.6666666666665</ele><time>2026-05-03T12:46:17.106Z</time></trkpt><trkpt lat="44.4048343" lon="6.7096349"><ele>1189.0</ele><time>2026-05-03T12:46:18.105Z</time></trkpt><trkpt lat="44.4048239" lon="6.709895"><ele>1189.3333333333333</ele><time>2026-05-03T12:46:19.106Z</time></trkpt><trkpt lat="44.4048174" lon="6.7101634"><ele>1189.6666666666667</ele><time>2026-05-03T12:46:20.106Z</time></trkpt><trkpt lat="44.4048204" lon="6.7104283"><ele>1190.0</ele><time>2026-05-03T12:46:21.106Z</time></trkpt><trkpt lat="44.4048138" lon="6.7106907"><ele>1190.0</ele><time>2026-05-03T12:46:22.106Z</time></trkpt><trkpt lat="44.4048119" lon="6.7109517"><ele>1190.0</ele><time>2026-05-03T12:46:23.106Z</time></trkpt><trkpt lat="44.4048157" lon="6.7112176"><ele>1190.0</ele><time>2026-05-03T12:46:24.106Z</time></trkpt><trkpt lat="44.4048253" lon="6.7114793"><ele>1191.0</ele><time>2026-05-03T12:46:25.106Z</time></trkpt><trkpt lat="44.4048613" lon="6.7117484"><ele>1192.0</ele><time>2026-05-03T12:46:26.106Z</time></trkpt><trkpt lat="44.4049052" lon="6.7120168"><ele>1193.0</ele><time>2026-05-03T12:46:27.106Z</time></trkpt><trkpt lat="44.4049434" lon="6.7122846"><ele>1193.3333333333335</ele><time>2026-05-03T12:46:28.106Z</time></trkpt><trkpt lat="44.4049843" lon="6.7125532"><ele>1193.6666666666667</ele><time>2026-05-03T12:46:29.105Z</time></trkpt><trkpt lat="44.4050265" lon="6.7128221"><ele>1194.0</ele><time>2026-05-03T12:46:30.106Z</time></trkpt><trkpt lat="44.4050693" lon="6.713092"><ele>1193.3333333333333</ele><time>2026-05-03T12:46:31.106Z</time></trkpt><trkpt lat="44.4051017" lon="6.7133552"><ele>1192.6666666666665</ele><time>2026-05-03T12:46:32.106Z</time></trkpt><trkpt lat="44.405154" lon="6.7136239"><ele>1192.0</ele><time>2026-05-03T12:46:33.106Z</time></trkpt><trkpt lat="44.405199" lon="6.7138884"><ele>1192.0</ele><time>2026-05-03T12:46:34.106Z</time></trkpt><trkpt lat="44.4052396" lon="6.7141609"><ele>1192.0</ele><time>2026-05-03T12:46:35.106Z</time></trkpt><trkpt lat="44.4052863" lon="6.7144352"><ele>1192.0</ele><time>2026-05-03T12:46:36.106Z</time></trkpt><trkpt lat="44.4053287" lon="6.7147103"><ele>1192.0</ele><time>2026-05-03T12:46:37.105Z</time></trkpt><trkpt lat="44.4053748" lon="6.7149885"><ele>1192.0</ele><time>2026-05-03T12:46:38.106Z</time></trkpt><trkpt lat="44.4054221" lon="6.7152706"><ele>1192.0</ele><time>2026-05-03T12:46:39.106Z</time></trkpt><trkpt lat="44.4054703" lon="6.7155598"><ele>1196.0</ele><time>2026-05-03T12:46:40.106Z</time></trkpt><trkpt lat="44.4055134" lon="6.71583"><ele>1200.0</ele><time>2026-05-03T12:46:41.106Z</time></trkpt><trkpt lat="44.4055558" lon="6.7161059"><ele>1204.0</ele><time>2026-05-03T12:46:42.106Z</time></trkpt><trkpt lat="44.4055934" lon="6.7163759"><ele>1204.3333333333333</ele><time>2026-05-03T12:46:43.106Z</time></trkpt><trkpt lat="44.4056364" lon="6.7166403"><ele>1204.6666666666667</ele><time>2026-05-03T12:46:44.106Z</time></trkpt><trkpt lat="44.4056743" lon="6.7169071"><ele>1205.0</ele><time>2026-05-03T12:46:45.106Z</time></trkpt><trkpt lat="44.405719" lon="6.7171683"><ele>1205.3333333333335</ele><time>2026-05-03T12:46:46.106Z</time></trkpt><trkpt lat="44.4057627" lon="6.7174299"><ele>1205.6666666666667</ele><time>2026-05-03T12:46:47.106Z</time></trkpt><trkpt lat="44.405809" lon="6.7176964"><ele>1206.0</ele><time>2026-05-03T12:46:48.105Z</time></trkpt><trkpt lat="44.4058582" lon="6.7179594"><ele>1205.0</ele><time>2026-05-03T12:46:49.106Z</time></trkpt><trkpt lat="44.4059218" lon="6.7182178"><ele>1204.0</ele><time>2026-05-03T12:46:50.106Z</time></trkpt><trkpt lat="44.4059937" lon="6.7184631"><ele>1203.0</ele><time>2026-05-03T12:46:51.106Z</time></trkpt><trkpt lat="44.406069" lon="6.7187202"><ele>1203.0</ele><time>2026-05-03T12:46:52.105Z</time></trkpt><trkpt lat="44.4061489" lon="6.7189686"><ele>1203.0</ele><time>2026-05-03T12:46:53.106Z</time></trkpt><trkpt lat="44.4062264" lon="6.719218"><ele>1203.0</ele><time>2026-05-03T12:46:54.105Z</time></trkpt><trkpt lat="44.4063013" lon="6.7194666"><ele>1206.0</ele><time>2026-05-03T12:46:55.106Z</time></trkpt><trkpt lat="44.4063761" lon="6.7197099"><ele>1209.0</ele><time>2026-05-03T12:46:56.105Z</time></trkpt><trkpt lat="44.4064512" lon="6.719962"><ele>1212.0</ele><time>2026-05-03T12:46:57.106Z</time></trkpt><trkpt lat="44.4065266" lon="6.7202123"><ele>1211.6666666666667</ele><time>2026-05-03T12:46:58.106Z</time></trkpt><trkpt lat="44.4066091" lon="6.7204629"><ele>1211.3333333333335</ele><time>2026-05-03T12:46:59.106Z</time></trkpt><trkpt lat="44.406683" lon="6.720722"><ele>1211.0</ele><time>2026-05-03T12:47:00.106Z</time></trkpt><trkpt lat="44.4067599" lon="6.7209693"><ele>1210.6666666666667</ele><time>2026-05-03T12:47:01.106Z</time></trkpt><trkpt lat="44.4068354" lon="6.7212159"><ele>1210.3333333333333</ele><time>2026-05-03T12:47:02.106Z</time></trkpt><trkpt lat="44.4069109" lon="6.721474"><ele>1210.0</ele><time>2026-05-03T12:47:03.106Z</time></trkpt><trkpt lat="44.4069862" lon="6.7217181"><ele>1210.6666666666665</ele><time>2026-05-03T12:47:04.106Z</time></trkpt><trkpt lat="44.407073" lon="6.7219731"><ele>1211.3333333333333</ele><time>2026-05-03T12:47:05.106Z</time></trkpt><trkpt lat="44.4071649" lon="6.7222313"><ele>1212.0</ele><time>2026-05-03T12:47:06.106Z</time></trkpt><trkpt lat="44.4072724" lon="6.7224782"><ele>1212.0</ele><time>2026-05-03T12:47:07.106Z</time></trkpt><trkpt lat="44.4073862" lon="6.7227262"><ele>1212.0</ele><time>2026-05-03T12:47:08.106Z</time></trkpt><trkpt lat="44.4074995" lon="6.722965"><ele>1212.0</ele><time>2026-05-03T12:47:09.106Z</time></trkpt><trkpt lat="44.4076179" lon="6.7232106"><ele>1211.3333333333333</ele><time>2026-05-03T12:47:10.106Z</time></trkpt><trkpt lat="44.4077325" lon="6.7234516"><ele>1210.6666666666665</ele><time>2026-05-03T12:47:11.106Z</time></trkpt><trkpt lat="44.4078481" lon="6.723692"><ele>1210.0</ele><time>2026-05-03T12:47:12.106Z</time></trkpt><trkpt lat="44.4079551" lon="6.7239304"><ele>1210.6666666666665</ele><time>2026-05-03T12:47:13.105Z</time></trkpt><trkpt lat="44.4080605" lon="6.724169"><ele>1211.3333333333333</ele><time>2026-05-03T12:47:14.106Z</time></trkpt><trkpt lat="44.4081719" lon="6.7244028"><ele>1212.0</ele><time>2026-05-03T12:47:15.106Z</time></trkpt><trkpt lat="44.4082813" lon="6.724637"><ele>1212.0</ele><time>2026-05-03T12:47:16.105Z</time></trkpt><trkpt lat="44.408394" lon="6.7248752"><ele>1212.0</ele><time>2026-05-03T12:47:17.106Z</time></trkpt><trkpt lat="44.4085052" lon="6.7251153"><ele>1212.0</ele><time>2026-05-03T12:47:18.106Z</time></trkpt><trkpt lat="44.4086142" lon="6.7253484"><ele>1212.6666666666667</ele><time>2026-05-03T12:47:19.106Z</time></trkpt><trkpt lat="44.4087199" lon="6.7255844"><ele>1213.3333333333335</ele><time>2026-05-03T12:47:20.106Z</time></trkpt><trkpt lat="44.4088251" lon="6.7258086"><ele>1214.0</ele><time>2026-05-03T12:47:21.106Z</time></trkpt><trkpt lat="44.408933" lon="6.7260278"><ele>1213.3333333333335</ele><time>2026-05-03T12:47:22.106Z</time></trkpt><trkpt lat="44.4090456" lon="6.7262344"><ele>1212.6666666666667</ele><time>2026-05-03T12:47:23.106Z</time></trkpt><trkpt lat="44.4091604" lon="6.726439"><ele>1212.0</ele><time>2026-05-03T12:47:24.105Z</time></trkpt><trkpt lat="44.4092727" lon="6.726641"><ele>1212.0</ele><time>2026-05-03T12:47:25.105Z</time></trkpt><trkpt lat="44.4093853" lon="6.7268335"><ele>1212.0</ele><time>2026-05-03T12:47:26.106Z</time></trkpt><trkpt lat="44.4095014" lon="6.7270136"><ele>1212.0</ele><time>2026-05-03T12:47:27.106Z</time></trkpt><trkpt lat="44.4096162" lon="6.727184"><ele>1213.3333333333333</ele><time>2026-05-03T12:47:28.105Z</time></trkpt><trkpt lat="44.4097363" lon="6.7273418"><ele>1214.6666666666665</ele><time>2026-05-03T12:47:29.105Z</time></trkpt><trkpt lat="44.4098609" lon="6.7274997"><ele>1216.0</ele><time>2026-05-03T12:47:30.106Z</time></trkpt><trkpt lat="44.4099708" lon="6.7276435"><ele>1214.6666666666665</ele><time>2026-05-03T12:47:31.106Z</time></trkpt><trkpt lat="44.410084" lon="6.7277844"><ele>1213.3333333333333</ele><time>2026-05-03T12:47:32.106Z</time></trkpt><trkpt lat="44.4102022" lon="6.7279165"><ele>1212.0</ele><time>2026-05-03T12:47:33.106Z</time></trkpt><trkpt lat="44.4103189" lon="6.7280499"><ele>1212.0</ele><time>2026-05-03T12:47:34.106Z</time></trkpt><trkpt lat="44.4104346" lon="6.7281404"><ele>1212.0</ele><time>2026-05-03T12:47:35.106Z</time></trkpt><trkpt lat="44.4105439" lon="6.7282387"><ele>1212.0</ele><time>2026-05-03T12:47:36.106Z</time></trkpt><trkpt lat="44.4106649" lon="6.7283171"><ele>1212.0</ele><time>2026-05-03T12:47:37.106Z</time></trkpt><trkpt lat="44.4107777" lon="6.7284007"><ele>1211.5</ele><time>2026-05-03T12:47:38.106Z</time></trkpt><trkpt lat="44.4108807" lon="6.7284954"><ele>1211.0</ele><time>2026-05-03T12:47:39.106Z</time></trkpt><trkpt lat="44.4109843" lon="6.7285515"><ele>1210.5</ele><time>2026-05-03T12:47:40.106Z</time></trkpt><trkpt lat="44.4111048" lon="6.7286043"><ele>1210.0</ele><time>2026-05-03T12:47:41.105Z</time></trkpt><trkpt lat="44.4112206" lon="6.7286541"><ele>1210.5</ele><time>2026-05-03T12:47:42.106Z</time></trkpt><trkpt lat="44.4113513" lon="6.7286981"><ele>1211.0</ele><time>2026-05-03T12:47:43.106Z</time></trkpt><trkpt lat="44.4114709" lon="6.7287449"><ele>1211.5</ele><time>2026-05-03T12:47:44.105Z</time></trkpt><trkpt lat="44.4115852" lon="6.7287795"><ele>1212.0</ele><time>2026-05-03T12:47:45.106Z</time></trkpt><trkpt lat="44.4116906" lon="6.7288162"><ele>1212.0</ele><time>2026-05-03T12:47:46.106Z</time></trkpt><trkpt lat="44.4118002" lon="6.7288498"><ele>1212.0</ele><time>2026-05-03T12:47:47.106Z</time></trkpt><trkpt lat="44.4118965" lon="6.728867"><ele>1212.0</ele><time>2026-05-03T12:47:48.105Z</time></trkpt><trkpt lat="44.4119886" lon="6.728896"><ele>1212.0</ele><time>2026-05-03T12:47:49.106Z</time></trkpt><trkpt lat="44.4120749" lon="6.7289225"><ele>1212.0</ele><time>2026-05-03T12:47:50.106Z</time></trkpt><trkpt lat="44.4121719" lon="6.7289486"><ele>1212.4</ele><time>2026-05-03T12:47:51.106Z</time></trkpt><trkpt lat="44.4122649" lon="6.7289815"><ele>1212.8000000000002</ele><time>2026-05-03T12:47:52.106Z</time></trkpt><trkpt lat="44.4123671" lon="6.7290023"><ele>1213.2</ele><time>2026-05-03T12:47:53.106Z</time></trkpt><trkpt lat="44.4124651" lon="6.7290211"><ele>1213.6000000000001</ele><time>2026-05-03T12:47:54.106Z</time></trkpt><trkpt lat="44.4125659" lon="6.7290322"><ele>1214.0</ele><time>2026-05-03T12:47:55.106Z</time></trkpt><trkpt lat="44.41266" lon="6.7290452"><ele>1214.0</ele><time>2026-05-03T12:47:56.106Z</time></trkpt><trkpt lat="44.4127508" lon="6.7290528"><ele>1214.0</ele><time>2026-05-03T12:47:57.106Z</time></trkpt><trkpt lat="44.4128414" lon="6.7290573"><ele>1214.0</ele><time>2026-05-03T12:47:58.106Z</time></trkpt><trkpt lat="44.4129453" lon="6.7290569"><ele>1214.0</ele><time>2026-05-03T12:47:59.106Z</time></trkpt><trkpt lat="44.4130462" lon="6.7290387"><ele>1214.0</ele><time>2026-05-03T12:48:00.105Z</time></trkpt><trkpt lat="44.4131552" lon="6.7290295"><ele>1214.2</ele><time>2026-05-03T12:48:01.106Z</time></trkpt><trkpt lat="44.4132515" lon="6.7290042"><ele>1214.4</ele><time>2026-05-03T12:48:02.106Z</time></trkpt><trkpt lat="44.4133417" lon="6.7289716"><ele>1214.6</ele><time>2026-05-03T12:48:03.106Z</time></trkpt><trkpt lat="44.413439" lon="6.7289323"><ele>1214.8</ele><time>2026-05-03T12:48:04.105Z</time></trkpt><trkpt lat="44.4135424" lon="6.7288977"><ele>1215.0</ele><time>2026-05-03T12:48:05.106Z</time></trkpt><trkpt lat="44.4136432" lon="6.7288544"><ele>1215.0</ele><time>2026-05-03T12:48:06.106Z</time></trkpt><trkpt lat="44.4137437" lon="6.7288125"><ele>1215.0</ele><time>2026-05-03T12:48:07.106Z</time></trkpt><trkpt lat="44.4138443" lon="6.7287713"><ele>1215.0</ele><time>2026-05-03T12:48:08.106Z</time></trkpt><trkpt lat="44.4139455" lon="6.7287317"><ele>1215.0</ele><time>2026-05-03T12:48:09.105Z</time></trkpt><trkpt lat="44.4140493" lon="6.7286919"><ele>1215.0</ele><time>2026-05-03T12:48:10.106Z</time></trkpt><trkpt lat="44.4141463" lon="6.728654"><ele>1215.0</ele><time>2026-05-03T12:48:11.105Z</time></trkpt><trkpt lat="44.4142641" lon="6.7286017"><ele>1215.0</ele><time>2026-05-03T12:48:12.106Z</time></trkpt><trkpt lat="44.4143807" lon="6.7285501"><ele>1215.0</ele><time>2026-05-03T12:48:13.106Z</time></trkpt><trkpt lat="44.4144895" lon="6.7285085"><ele>1215.0</ele><time>2026-05-03T12:48:14.106Z</time></trkpt><trkpt lat="44.4145983" lon="6.728468"><ele>1215.2</ele><time>2026-05-03T12:48:15.106Z</time></trkpt><trkpt lat="44.4147065" lon="6.7284244"><ele>1215.4</ele><time>2026-05-03T12:48:16.106Z</time></trkpt><trkpt lat="44.4148132" lon="6.7283789"><ele>1215.6</ele><time>2026-05-03T12:48:17.105Z</time></trkpt><trkpt lat="44.4149173" lon="6.728337"><ele>1215.8</ele><time>2026-05-03T12:48:18.106Z</time></trkpt><trkpt lat="44.4150256" lon="6.7283033"><ele>1216.0</ele><time>2026-05-03T12:48:19.106Z</time></trkpt><trkpt lat="44.4151344" lon="6.7282826"><ele>1216.0</ele><time>2026-05-03T12:48:20.106Z</time></trkpt><trkpt lat="44.4152468" lon="6.728271"><ele>1216.0</ele><time>2026-05-03T12:48:21.106Z</time></trkpt><trkpt lat="44.4153641" lon="6.7282795"><ele>1216.0</ele><time>2026-05-03T12:48:22.106Z</time></trkpt><trkpt lat="44.4154797" lon="6.7282979"><ele>1216.0</ele><time>2026-05-03T12:48:23.105Z</time></trkpt><trkpt lat="44.4155956" lon="6.72832"><ele>1216.0</ele><time>2026-05-03T12:48:24.105Z</time></trkpt><trkpt lat="44.4157054" lon="6.7283467"><ele>1216.0</ele><time>2026-05-03T12:48:25.106Z</time></trkpt><trkpt lat="44.4158091" lon="6.7283726"><ele>1216.0</ele><time>2026-05-03T12:48:26.105Z</time></trkpt><trkpt lat="44.4159142" lon="6.7283977"><ele>1216.0</ele><time>2026-05-03T12:48:27.106Z</time></trkpt><trkpt lat="44.4160148" lon="6.7284227"><ele>1216.0</ele><time>2026-05-03T12:48:28.106Z</time></trkpt><trkpt lat="44.4161139" lon="6.7284541"><ele>1216.0</ele><time>2026-05-03T12:48:29.106Z</time></trkpt><trkpt lat="44.4162071" lon="6.7284986"><ele>1216.0</ele><time>2026-05-03T12:48:30.106Z</time></trkpt><trkpt lat="44.4163135" lon="6.7285468"><ele>1216.0</ele><time>2026-05-03T12:48:31.106Z</time></trkpt><trkpt lat="44.4164112" lon="6.728599"><ele>1216.0</ele><time>2026-05-03T12:48:32.106Z</time></trkpt><trkpt lat="44.4165047" lon="6.7286609"><ele>1216.0</ele><time>2026-05-03T12:48:33.106Z</time></trkpt><trkpt lat="44.4165956" lon="6.728736"><ele>1215.5</ele><time>2026-05-03T12:48:34.106Z</time></trkpt><trkpt lat="44.4166864" lon="6.7288194"><ele>1215.0</ele><time>2026-05-03T12:48:35.106Z</time></trkpt><trkpt lat="44.4167764" lon="6.7289194"><ele>1214.5</ele><time>2026-05-03T12:48:36.106Z</time></trkpt><trkpt lat="44.4168654" lon="6.7290174"><ele>1214.0</ele><time>2026-05-03T12:48:37.105Z</time></trkpt><trkpt lat="44.4169465" lon="6.7291451"><ele>1214.0</ele><time>2026-05-03T12:48:38.106Z</time></trkpt><trkpt lat="44.4170226" lon="6.7292566"><ele>1214.0</ele><time>2026-05-03T12:48:39.106Z</time></trkpt><trkpt lat="44.4170969" lon="6.7293727"><ele>1214.0</ele><time>2026-05-03T12:48:40.106Z</time></trkpt><trkpt lat="44.4171717" lon="6.7294793"><ele>1214.0</ele><time>2026-05-03T12:48:41.106Z</time></trkpt><trkpt lat="44.4172424" lon="6.729587"><ele>1214.0</ele><time>2026-05-03T12:48:42.106Z</time></trkpt><trkpt lat="44.4172967" lon="6.7296509"><ele>1213.6666666666667</ele><time>2026-05-03T12:48:43.106Z</time></trkpt><trkpt lat="44.4173521" lon="6.7297383"><ele>1213.3333333333335</ele><time>2026-05-03T12:48:44.105Z</time></trkpt><trkpt lat="44.4174012" lon="6.7298239"><ele>1213.0</ele><time>2026-05-03T12:48:46.106Z</time></trkpt><trkpt lat="44.4174564" lon="6.7298879"><ele>1212.6666666666667</ele><time>2026-05-03T12:48:47.106Z</time></trkpt><trkpt lat="44.4175174" lon="6.729972"><ele>1212.3333333333333</ele><time>2026-05-03T12:48:48.106Z</time></trkpt><trkpt lat="44.4175814" lon="6.730065"><ele>1212.0</ele><time>2026-05-03T12:48:49.106Z</time></trkpt><trkpt lat="44.4176522" lon="6.7301672"><ele>1212.25</ele><time>2026-05-03T12:48:50.105Z</time></trkpt><trkpt lat="44.4177411" lon="6.730282"><ele>1212.5</ele><time>2026-05-03T12:48:51.105Z</time></trkpt><trkpt lat="44.4178282" lon="6.7304157"><ele>1212.75</ele><time>2026-05-03T12:48:52.106Z</time></trkpt><trkpt lat="44.4179209" lon="6.7305519"><ele>1213.0</ele><time>2026-05-03T12:48:53.106Z</time></trkpt><trkpt lat="44.4180258" lon="6.7306901"><ele>1212.75</ele><time>2026-05-03T12:48:54.106Z</time></trkpt><trkpt lat="44.4181146" lon="6.7308303"><ele>1212.5</ele><time>2026-05-03T12:48:55.105Z</time></trkpt><trkpt lat="44.4181873" lon="6.7309712"><ele>1212.25</ele><time>2026-05-03T12:48:56.106Z</time></trkpt><trkpt lat="44.4182623" lon="6.7311317"><ele>1212.0</ele><time>2026-05-03T12:48:57.106Z</time></trkpt><trkpt lat="44.4183234" lon="6.7312977"><ele>1212.0</ele><time>2026-05-03T12:48:58.106Z</time></trkpt><trkpt lat="44.4183771" lon="6.7314709"><ele>1212.0</ele><time>2026-05-03T12:48:59.106Z</time></trkpt><trkpt lat="44.4184309" lon="6.7316371"><ele>1212.0</ele><time>2026-05-03T12:49:00.105Z</time></trkpt><trkpt lat="44.418472" lon="6.7318194"><ele>1212.0</ele><time>2026-05-03T12:49:01.106Z</time></trkpt><trkpt lat="44.4185136" lon="6.7319982"><ele>1212.75</ele><time>2026-05-03T12:49:02.106Z</time></trkpt><trkpt lat="44.4185531" lon="6.7321666"><ele>1213.5</ele><time>2026-05-03T12:49:03.106Z</time></trkpt><trkpt lat="44.4185876" lon="6.7323397"><ele>1214.25</ele><time>2026-05-03T12:49:04.105Z</time></trkpt><trkpt lat="44.4186165" lon="6.732492"><ele>1215.0</ele><time>2026-05-03T12:49:05.106Z</time></trkpt><trkpt lat="44.4186484" lon="6.7326436"><ele>1215.6</ele><time>2026-05-03T12:49:06.105Z</time></trkpt><trkpt lat="44.4186778" lon="6.7327776"><ele>1216.2</ele><time>2026-05-03T12:49:07.106Z</time></trkpt><trkpt lat="44.4187095" lon="6.7329215"><ele>1216.8</ele><time>2026-05-03T12:49:08.106Z</time></trkpt><trkpt lat="44.4187458" lon="6.733047"><ele>1217.4</ele><time>2026-05-03T12:49:09.106Z</time></trkpt><trkpt lat="44.4187984" lon="6.7331639"><ele>1218.0</ele><time>2026-05-03T12:49:10.106Z</time></trkpt><trkpt lat="44.4188774" lon="6.7332594"><ele>1218.2</ele><time>2026-05-03T12:49:11.105Z</time></trkpt><trkpt lat="44.4189599" lon="6.733346"><ele>1218.4</ele><time>2026-05-03T12:49:12.105Z</time></trkpt><trkpt lat="44.4190563" lon="6.733417"><ele>1218.6000000000001</ele><time>2026-05-03T12:49:13.106Z</time></trkpt><trkpt lat="44.4191569" lon="6.7334777"><ele>1218.8</ele><time>2026-05-03T12:49:14.105Z</time></trkpt><trkpt lat="44.4192462" lon="6.7335571"><ele>1219.0</ele><time>2026-05-03T12:49:15.106Z</time></trkpt><trkpt lat="44.4193235" lon="6.7336462"><ele>1219.6000000000001</ele><time>2026-05-03T12:49:16.106Z</time></trkpt><trkpt lat="44.4193942" lon="6.7337526"><ele>1220.2</ele><time>2026-05-03T12:49:17.106Z</time></trkpt><trkpt lat="44.4194617" lon="6.7338774"><ele>1220.8000000000002</ele><time>2026-05-03T12:49:18.106Z</time></trkpt><trkpt lat="44.4195248" lon="6.7340041"><ele>1221.4</ele><time>2026-05-03T12:49:19.105Z</time></trkpt><trkpt lat="44.4195884" lon="6.7341282"><ele>1222.0</ele><time>2026-05-03T12:49:20.106Z</time></trkpt><trkpt lat="44.4196511" lon="6.7342583"><ele>1221.6</ele><time>2026-05-03T12:49:21.106Z</time></trkpt><trkpt lat="44.4197099" lon="6.7343861"><ele>1221.2</ele><time>2026-05-03T12:49:22.106Z</time></trkpt><trkpt lat="44.4197668" lon="6.7345089"><ele>1220.8</ele><time>2026-05-03T12:49:23.105Z</time></trkpt><trkpt lat="44.4198215" lon="6.7346388"><ele>1220.4</ele><time>2026-05-03T12:49:24.106Z</time></trkpt><trkpt lat="44.4198682" lon="6.7347559"><ele>1220.0</ele><time>2026-05-03T12:49:25.106Z</time></trkpt><trkpt lat="44.419906" lon="6.7348718"><ele>1220.0</ele><time>2026-05-03T12:49:26.106Z</time></trkpt><trkpt lat="44.4199346" lon="6.7349827"><ele>1220.0</ele><time>2026-05-03T12:49:27.106Z</time></trkpt><trkpt lat="44.4199736" lon="6.7351042"><ele>1220.0</ele><time>2026-05-03T12:49:28.105Z</time></trkpt><trkpt lat="44.4200097" lon="6.7352164"><ele>1220.0</ele><time>2026-05-03T12:49:29.106Z</time></trkpt><trkpt lat="44.4200398" lon="6.7353217"><ele>1220.0</ele><time>2026-05-03T12:49:30.106Z</time></trkpt><trkpt lat="44.4200701" lon="6.7354251"><ele>1220.0</ele><time>2026-05-03T12:49:31.106Z</time></trkpt><trkpt lat="44.4200948" lon="6.7355329"><ele>1220.0</ele><time>2026-05-03T12:49:32.106Z</time></trkpt><trkpt lat="44.4201103" lon="6.7356391"><ele>1220.0</ele><time>2026-05-03T12:49:33.106Z</time></trkpt><trkpt lat="44.4201122" lon="6.735749"><ele>1220.0</ele><time>2026-05-03T12:49:34.106Z</time></trkpt><trkpt lat="44.4201098" lon="6.7358512"><ele>1220.0</ele><time>2026-05-03T12:49:35.106Z</time></trkpt><trkpt lat="44.4201103" lon="6.7359482"><ele>1220.0</ele><time>2026-05-03T12:49:36.105Z</time></trkpt><trkpt lat="44.4201149" lon="6.736043"><ele>1220.0</ele><time>2026-05-03T12:49:37.106Z</time></trkpt><trkpt lat="44.4201365" lon="6.7361408"><ele>1220.0</ele><time>2026-05-03T12:49:38.106Z</time></trkpt><trkpt lat="44.4201711" lon="6.7362343"><ele>1220.0</ele><time>2026-05-03T12:49:39.106Z</time></trkpt><trkpt lat="44.4202192" lon="6.7363255"><ele>1220.0</ele><time>2026-05-03T12:49:40.106Z</time></trkpt><trkpt lat="44.4202712" lon="6.736391"><ele>1220.0</ele><time>2026-05-03T12:49:41.105Z</time></trkpt><trkpt lat="44.4203252" lon="6.7364487"><ele>1220.0</ele><time>2026-05-03T12:49:42.106Z</time></trkpt><trkpt lat="44.4203889" lon="6.7365009"><ele>1220.0</ele><time>2026-05-03T12:49:43.106Z</time></trkpt><trkpt lat="44.4204568" lon="6.7365614"><ele>1220.0</ele><time>2026-05-03T12:49:44.105Z</time></trkpt><trkpt lat="44.4205355" lon="6.7366306"><ele>1219.75</ele><time>2026-05-03T12:49:45.106Z</time></trkpt><trkpt lat="44.4206253" lon="6.7366927"><ele>1219.5</ele><time>2026-05-03T12:49:46.106Z</time></trkpt><trkpt lat="44.4207307" lon="6.7367442"><ele>1219.25</ele><time>2026-05-03T12:49:47.106Z</time></trkpt><trkpt lat="44.4208392" lon="6.7367994"><ele>1219.0</ele><time>2026-05-03T12:49:48.105Z</time></trkpt><trkpt lat="44.4209571" lon="6.7368548"><ele>1219.25</ele><time>2026-05-03T12:49:49.105Z</time></trkpt><trkpt lat="44.4210881" lon="6.7369138"><ele>1219.5</ele><time>2026-05-03T12:49:50.106Z</time></trkpt><trkpt lat="44.4212199" lon="6.7369677"><ele>1219.75</ele><time>2026-05-03T12:49:51.106Z</time></trkpt><trkpt lat="44.4213666" lon="6.7370243"><ele>1220.0</ele><time>2026-05-03T12:49:52.106Z</time></trkpt><trkpt lat="44.4215132" lon="6.7370778"><ele>1220.25</ele><time>2026-05-03T12:49:53.106Z</time></trkpt><trkpt lat="44.4216555" lon="6.7371243"><ele>1220.5</ele><time>2026-05-03T12:49:54.105Z</time></trkpt><trkpt lat="44.4218" lon="6.7371664"><ele>1220.75</ele><time>2026-05-03T12:49:55.106Z</time></trkpt><trkpt lat="44.4219518" lon="6.7372022"><ele>1221.0</ele><time>2026-05-03T12:49:56.106Z</time></trkpt><trkpt lat="44.4221019" lon="6.7372211"><ele>1222.5</ele><time>2026-05-03T12:49:57.106Z</time></trkpt><trkpt lat="44.4222515" lon="6.7372477"><ele>1224.0</ele><time>2026-05-03T12:49:58.106Z</time></trkpt><trkpt lat="44.4224" lon="6.7372474"><ele>1225.5</ele><time>2026-05-03T12:49:59.106Z</time></trkpt><trkpt lat="44.4225449" lon="6.7372593"><ele>1227.0</ele><time>2026-05-03T12:50:00.106Z</time></trkpt><trkpt lat="44.4226897" lon="6.737246"><ele>1227.0</ele><time>2026-05-03T12:50:01.106Z</time></trkpt><trkpt lat="44.4228382" lon="6.7372382"><ele>1227.0</ele><time>2026-05-03T12:50:02.106Z</time></trkpt><trkpt lat="44.4229843" lon="6.7372312"><ele>1227.0</ele><time>2026-05-03T12:50:03.106Z</time></trkpt><trkpt lat="44.4231285" lon="6.737218"><ele>1227.0</ele><time>2026-05-03T12:50:04.105Z</time></trkpt><trkpt lat="44.4232762" lon="6.7372011"><ele>1227.5</ele><time>2026-05-03T12:50:05.105Z</time></trkpt><trkpt lat="44.4234167" lon="6.7371885"><ele>1228.0</ele><time>2026-05-03T12:50:06.106Z</time></trkpt><trkpt lat="44.4235633" lon="6.7371785"><ele>1228.5</ele><time>2026-05-03T12:50:07.106Z</time></trkpt><trkpt lat="44.4237056" lon="6.7371689"><ele>1229.0</ele><time>2026-05-03T12:50:08.106Z</time></trkpt><trkpt lat="44.4238515" lon="6.7371535"><ele>1229.0</ele><time>2026-05-03T12:50:09.106Z</time></trkpt><trkpt lat="44.4239911" lon="6.7371465"><ele>1229.0</ele><time>2026-05-03T12:50:10.106Z</time></trkpt><trkpt lat="44.4241313" lon="6.737136"><ele>1229.0</ele><time>2026-05-03T12:50:11.106Z</time></trkpt><trkpt lat="44.424274" lon="6.7371262"><ele>1229.0</ele><time>2026-05-03T12:50:12.106Z</time></trkpt><trkpt lat="44.4244142" lon="6.7371224"><ele>1229.0</ele><time>2026-05-03T12:50:13.106Z</time></trkpt><trkpt lat="44.4245518" lon="6.7371183"><ele>1229.0</ele><time>2026-05-03T12:50:14.106Z</time></trkpt><trkpt lat="44.4246917" lon="6.7371111"><ele>1229.0</ele><time>2026-05-03T12:50:15.106Z</time></trkpt><trkpt lat="44.4248327" lon="6.7370986"><ele>1229.0</ele><time>2026-05-03T12:50:16.106Z</time></trkpt><trkpt lat="44.4249769" lon="6.7370862"><ele>1229.0</ele><time>2026-05-03T12:50:17.106Z</time></trkpt><trkpt lat="44.4251111" lon="6.7370514"><ele>1229.0</ele><time>2026-05-03T12:50:18.106Z</time></trkpt><trkpt lat="44.4252487" lon="6.7370291"><ele>1229.0</ele><time>2026-05-03T12:50:19.106Z</time></trkpt><trkpt lat="44.4253934" lon="6.7370229"><ele>1229.0</ele><time>2026-05-03T12:50:20.106Z</time></trkpt><trkpt lat="44.4255444" lon="6.7370263"><ele>1230.0</ele><time>2026-05-03T12:50:21.106Z</time></trkpt><trkpt lat="44.4256909" lon="6.7370171"><ele>1231.0</ele><time>2026-05-03T12:50:22.105Z</time></trkpt><trkpt lat="44.4258481" lon="6.7370169"><ele>1232.0</ele><time>2026-05-03T12:50:23.106Z</time></trkpt><trkpt lat="44.426002" lon="6.7370116"><ele>1232.0</ele><time>2026-05-03T12:50:24.105Z</time></trkpt><trkpt lat="44.4261636" lon="6.7370087"><ele>1232.0</ele><time>2026-05-03T12:50:25.106Z</time></trkpt><trkpt lat="44.426331" lon="6.7369936"><ele>1232.0</ele><time>2026-05-03T12:50:26.105Z</time></trkpt><trkpt lat="44.4264923" lon="6.737011"><ele>1231.3333333333335</ele><time>2026-05-03T12:50:27.106Z</time></trkpt><trkpt lat="44.4266496" lon="6.7370125"><ele>1230.6666666666667</ele><time>2026-05-03T12:50:28.106Z</time></trkpt><trkpt lat="44.4268186" lon="6.7370153"><ele>1230.0</ele><time>2026-05-03T12:50:29.106Z</time></trkpt><trkpt lat="44.4269923" lon="6.7370069"><ele>1230.3333333333333</ele><time>2026-05-03T12:50:30.106Z</time></trkpt><trkpt lat="44.4271724" lon="6.736977"><ele>1230.6666666666665</ele><time>2026-05-03T12:50:31.106Z</time></trkpt><trkpt lat="44.4273587" lon="6.7369317"><ele>1231.0</ele><time>2026-05-03T12:50:32.105Z</time></trkpt><trkpt lat="44.4275415" lon="6.7368705"><ele>1231.6666666666665</ele><time>2026-05-03T12:50:33.106Z</time></trkpt><trkpt lat="44.4277267" lon="6.7367802"><ele>1232.3333333333333</ele><time>2026-05-03T12:50:34.106Z</time></trkpt><trkpt lat="44.4279154" lon="6.7366824"><ele>1233.0</ele><time>2026-05-03T12:50:35.106Z</time></trkpt><trkpt lat="44.4280996" lon="6.7365862"><ele>1233.0</ele><time>2026-05-03T12:50:36.105Z</time></trkpt><trkpt lat="44.4283001" lon="6.7365036"><ele>1233.0</ele><time>2026-05-03T12:50:37.106Z</time></trkpt><trkpt lat="44.4285074" lon="6.736419"><ele>1233.0</ele><time>2026-05-03T12:50:38.106Z</time></trkpt><trkpt lat="44.4286981" lon="6.7363676"><ele>1232.6666666666667</ele><time>2026-05-03T12:50:39.106Z</time></trkpt><trkpt lat="44.4289005" lon="6.7363432"><ele>1232.3333333333335</ele><time>2026-05-03T12:50:40.106Z</time></trkpt><trkpt lat="44.4291082" lon="6.7363478"><ele>1232.0</ele><time>2026-05-03T12:50:41.106Z</time></trkpt><trkpt lat="44.4293037" lon="6.7363695"><ele>1232.0</ele><time>2026-05-03T12:50:42.106Z</time></trkpt><trkpt lat="44.4295049" lon="6.7364759"><ele>1232.0</ele><time>2026-05-03T12:50:43.105Z</time></trkpt><trkpt lat="44.4296903" lon="6.7365772"><ele>1232.0</ele><time>2026-05-03T12:50:44.105Z</time></trkpt><trkpt lat="44.4298533" lon="6.7367141"><ele>1233.3333333333335</ele><time>2026-05-03T12:50:45.105Z</time></trkpt><trkpt lat="44.4300026" lon="6.7368811"><ele>1234.6666666666667</ele><time>2026-05-03T12:50:46.106Z</time></trkpt><trkpt lat="44.4301345" lon="6.7370775"><ele>1236.0</ele><time>2026-05-03T12:50:47.106Z</time></trkpt><trkpt lat="44.4302762" lon="6.7372722"><ele>1236.0</ele><time>2026-05-03T12:50:48.106Z</time></trkpt><trkpt lat="44.4303905" lon="6.7374879"><ele>1236.0</ele><time>2026-05-03T12:50:49.106Z</time></trkpt><trkpt lat="44.4304975" lon="6.7376897"><ele>1236.0</ele><time>2026-05-03T12:50:50.106Z</time></trkpt><trkpt lat="44.430606" lon="6.7378992"><ele>1238.0</ele><time>2026-05-03T12:50:51.106Z</time></trkpt><trkpt lat="44.4307165" lon="6.7381114"><ele>1240.0</ele><time>2026-05-03T12:50:52.106Z</time></trkpt><trkpt lat="44.4308416" lon="6.7382696"><ele>1242.0</ele><time>2026-05-03T12:50:53.106Z</time></trkpt><trkpt lat="44.4309927" lon="6.7384151"><ele>1242.0</ele><time>2026-05-03T12:50:54.106Z</time></trkpt><trkpt lat="44.431138" lon="6.7385235"><ele>1242.0</ele><time>2026-05-03T12:50:55.106Z</time></trkpt><trkpt lat="44.4313068" lon="6.7386135"><ele>1242.0</ele><time>2026-05-03T12:50:56.106Z</time></trkpt><trkpt lat="44.4314747" lon="6.738665"><ele>1241.6666666666667</ele><time>2026-05-03T12:50:57.106Z</time></trkpt><trkpt lat="44.4316283" lon="6.7387417"><ele>1241.3333333333335</ele><time>2026-05-03T12:50:58.106Z</time></trkpt><trkpt lat="44.4317745" lon="6.7388488"><ele>1241.0</ele><time>2026-05-03T12:50:59.106Z</time></trkpt><trkpt lat="44.4319048" lon="6.7389794"><ele>1241.0</ele><time>2026-05-03T12:51:00.106Z</time></trkpt><trkpt lat="44.4320015" lon="6.739189"><ele>1241.0</ele><time>2026-05-03T12:51:01.106Z</time></trkpt><trkpt lat="44.4320968" lon="6.7393922"><ele>1241.0</ele><time>2026-05-03T12:51:02.106Z</time></trkpt><trkpt lat="44.4321976" lon="6.7395892"><ele>1244.0</ele><time>2026-05-03T12:51:03.106Z</time></trkpt><trkpt lat="44.4322937" lon="6.7397908"><ele>1247.0</ele><time>2026-05-03T12:51:04.105Z</time></trkpt><trkpt lat="44.4323926" lon="6.7399871"><ele>1250.0</ele><time>2026-05-03T12:51:05.106Z</time></trkpt><trkpt lat="44.4324878" lon="6.7401756"><ele>1246.6666666666667</ele><time>2026-05-03T12:51:06.106Z</time></trkpt><trkpt lat="44.4326018" lon="6.7403423"><ele>1243.3333333333333</ele><time>2026-05-03T12:51:07.106Z</time></trkpt><trkpt lat="44.4327433" lon="6.7404891"><ele>1240.0</ele><time>2026-05-03T12:51:08.106Z</time></trkpt><trkpt lat="44.4328936" lon="6.7406151"><ele>1241.3333333333333</ele><time>2026-05-03T12:51:09.106Z</time></trkpt><trkpt lat="44.4330491" lon="6.7407402"><ele>1242.6666666666667</ele><time>2026-05-03T12:51:10.105Z</time></trkpt><trkpt lat="44.4332118" lon="6.7408667"><ele>1244.0</ele><time>2026-05-03T12:51:11.106Z</time></trkpt><trkpt lat="44.4333633" lon="6.7410103"><ele>1241.3333333333335</ele><time>2026-05-03T12:51:12.105Z</time></trkpt><trkpt lat="44.4334982" lon="6.7411842"><ele>1238.6666666666667</ele><time>2026-05-03T12:51:13.105Z</time></trkpt><trkpt lat="44.433628" lon="6.7413608"><ele>1236.0</ele><time>2026-05-03T12:51:14.106Z</time></trkpt><trkpt lat="44.4337137" lon="6.7415988"><ele>1236.0</ele><time>2026-05-03T12:51:15.106Z</time></trkpt><trkpt lat="44.4337831" lon="6.7418479"><ele>1236.0</ele><time>2026-05-03T12:51:16.106Z</time></trkpt><trkpt lat="44.43385" lon="6.7421088"><ele>1236.0</ele><time>2026-05-03T12:51:17.106Z</time></trkpt><trkpt lat="44.4339229" lon="6.7423701"><ele>1241.0</ele><time>2026-05-03T12:51:18.105Z</time></trkpt><trkpt lat="44.4339858" lon="6.7426394"><ele>1246.0</ele><time>2026-05-03T12:51:19.105Z</time></trkpt><trkpt lat="44.4340492" lon="6.7428979"><ele>1251.0</ele><time>2026-05-03T12:51:20.106Z</time></trkpt><trkpt lat="44.4341156" lon="6.7431458"><ele>1251.0</ele><time>2026-05-03T12:51:21.106Z</time></trkpt><trkpt lat="44.4341802" lon="6.7433718"><ele>1251.0</ele><time>2026-05-03T12:51:22.106Z</time></trkpt><trkpt lat="44.4342407" lon="6.7435753"><ele>1251.0</ele><time>2026-05-03T12:51:23.106Z</time></trkpt><trkpt lat="44.434314" lon="6.7437491"><ele>1250.0</ele><time>2026-05-03T12:51:24.106Z</time></trkpt><trkpt lat="44.43441" lon="6.7438764"><ele>1249.0</ele><time>2026-05-03T12:51:25.106Z</time></trkpt><trkpt lat="44.4345131" lon="6.7439898"><ele>1248.0</ele><time>2026-05-03T12:51:26.106Z</time></trkpt><trkpt lat="44.4346305" lon="6.744079"><ele>1247.0</ele><time>2026-05-03T12:51:27.105Z</time></trkpt><trkpt lat="44.4348175" lon="6.7440842"><ele>1249.6666666666667</ele><time>2026-05-03T12:51:28.106Z</time></trkpt><trkpt lat="44.434997" lon="6.7441057"><ele>1252.3333333333333</ele><time>2026-05-03T12:51:29.105Z</time></trkpt><trkpt lat="44.4351783" lon="6.7441303"><ele>1255.0</ele><time>2026-05-03T12:51:30.106Z</time></trkpt><trkpt lat="44.4353532" lon="6.7441464"><ele>1253.6666666666665</ele><time>2026-05-03T12:51:31.106Z</time></trkpt><trkpt lat="44.4355248" lon="6.7441502"><ele>1252.3333333333333</ele><time>2026-05-03T12:51:32.106Z</time></trkpt><trkpt lat="44.4356712" lon="6.7440657"><ele>1251.0</ele><time>2026-05-03T12:51:33.106Z</time></trkpt><trkpt lat="44.4358238" lon="6.7439881"><ele>1251.0</ele><time>2026-05-03T12:51:34.106Z</time></trkpt><trkpt lat="44.4359536" lon="6.7438574"><ele>1251.0</ele><time>2026-05-03T12:51:35.106Z</time></trkpt><trkpt lat="44.4360903" lon="6.7437772"><ele>1251.0</ele><time>2026-05-03T12:51:36.106Z</time></trkpt><trkpt lat="44.4362328" lon="6.7437115"><ele>1251.6666666666667</ele><time>2026-05-03T12:51:37.106Z</time></trkpt><trkpt lat="44.4363655" lon="6.7436674"><ele>1252.3333333333335</ele><time>2026-05-03T12:51:38.106Z</time></trkpt><trkpt lat="44.4365288" lon="6.7437976"><ele>1253.0</ele><time>2026-05-03T12:51:39.106Z</time></trkpt><trkpt lat="44.4366798" lon="6.7438674"><ele>1253.0</ele><time>2026-05-03T12:51:40.106Z</time></trkpt><trkpt lat="44.4368518" lon="6.7439204"><ele>1253.0</ele><time>2026-05-03T12:51:41.106Z</time></trkpt><trkpt lat="44.4370205" lon="6.7439837"><ele>1253.0</ele><time>2026-05-03T12:51:42.106Z</time></trkpt><trkpt lat="44.4371876" lon="6.7440372"><ele>1253.25</ele><time>2026-05-03T12:51:43.106Z</time></trkpt><trkpt lat="44.4373281" lon="6.7440867"><ele>1253.5</ele><time>2026-05-03T12:51:44.105Z</time></trkpt><trkpt lat="44.4374744" lon="6.7441095"><ele>1253.75</ele><time>2026-05-03T12:51:45.106Z</time></trkpt><trkpt lat="44.4376251" lon="6.7440844"><ele>1254.0</ele><time>2026-05-03T12:51:46.106Z</time></trkpt><trkpt lat="44.4377723" lon="6.7440494"><ele>1254.0</ele><time>2026-05-03T12:51:47.106Z</time></trkpt><trkpt lat="44.4379217" lon="6.7439649"><ele>1254.0</ele><time>2026-05-03T12:51:48.106Z</time></trkpt><trkpt lat="44.4380773" lon="6.7439193"><ele>1254.0</ele><time>2026-05-03T12:51:49.105Z</time></trkpt><trkpt lat="44.4382389" lon="6.7438948"><ele>1254.0</ele><time>2026-05-03T12:51:50.105Z</time></trkpt><trkpt lat="44.4383877" lon="6.7439217"><ele>1254.0</ele><time>2026-05-03T12:51:51.106Z</time></trkpt><trkpt lat="44.4385397" lon="6.7439527"><ele>1254.0</ele><time>2026-05-03T12:51:52.106Z</time></trkpt><trkpt lat="44.4386847" lon="6.743969"><ele>1254.0</ele><time>2026-05-03T12:51:53.106Z</time></trkpt><trkpt lat="44.4388238" lon="6.7439532"><ele>1254.3333333333333</ele><time>2026-05-03T12:51:54.105Z</time></trkpt><trkpt lat="44.4389445" lon="6.7439039"><ele>1254.6666666666665</ele><time>2026-05-03T12:51:55.106Z</time></trkpt><trkpt lat="44.4391107" lon="6.7437677"><ele>1255.0</ele><time>2026-05-03T12:51:56.105Z</time></trkpt><trkpt lat="44.4392417" lon="6.7436096"><ele>1261.0</ele><time>2026-05-03T12:51:57.105Z</time></trkpt><trkpt lat="44.4393588" lon="6.7434368"><ele>1267.0</ele><time>2026-05-03T12:51:58.106Z</time></trkpt><trkpt lat="44.4394689" lon="6.7432552"><ele>1273.0</ele><time>2026-05-03T12:51:59.105Z</time></trkpt><trkpt lat="44.4395752" lon="6.7430883"><ele>1269.25</ele><time>2026-05-03T12:52:00.106Z</time></trkpt><trkpt lat="44.4396888" lon="6.7429495"><ele>1265.5</ele><time>2026-05-03T12:52:01.106Z</time></trkpt><trkpt lat="44.4398044" lon="6.7428164"><ele>1261.75</ele><time>2026-05-03T12:52:02.106Z</time></trkpt><trkpt lat="44.4399291" lon="6.7427552"><ele>1258.0</ele><time>2026-05-03T12:52:03.106Z</time></trkpt><trkpt lat="44.4400777" lon="6.7427291"><ele>1258.0</ele><time>2026-05-03T12:52:04.105Z</time></trkpt><trkpt lat="44.4402664" lon="6.7427726"><ele>1258.0</ele><time>2026-05-03T12:52:05.106Z</time></trkpt><trkpt lat="44.4404286" lon="6.7427768"><ele>1258.0</ele><time>2026-05-03T12:52:06.106Z</time></trkpt><trkpt lat="44.4405841" lon="6.7427386"><ele>1261.0</ele><time>2026-05-03T12:52:07.106Z</time></trkpt><trkpt lat="44.440731" lon="6.7426572"><ele>1264.0</ele><time>2026-05-03T12:52:08.106Z</time></trkpt><trkpt lat="44.4408746" lon="6.7425684"><ele>1267.0</ele><time>2026-05-03T12:52:09.106Z</time></trkpt><trkpt lat="44.4410026" lon="6.742409"><ele>1267.0</ele><time>2026-05-03T12:52:10.106Z</time></trkpt><trkpt lat="44.4411319" lon="6.7422714"><ele>1267.0</ele><time>2026-05-03T12:52:11.106Z</time></trkpt><trkpt lat="44.4412684" lon="6.7421475"><ele>1267.0</ele><time>2026-05-03T12:52:12.106Z</time></trkpt><trkpt lat="44.4414207" lon="6.742041"><ele>1264.0</ele><time>2026-05-03T12:52:13.106Z</time></trkpt><trkpt lat="44.4415824" lon="6.7419793"><ele>1261.0</ele><time>2026-05-03T12:52:14.105Z</time></trkpt><trkpt lat="44.4417587" lon="6.7419707"><ele>1258.0</ele><time>2026-05-03T12:52:15.106Z</time></trkpt><trkpt lat="44.4419304" lon="6.741982"><ele>1258.0</ele><time>2026-05-03T12:52:16.106Z</time></trkpt><trkpt lat="44.442104" lon="6.7420234"><ele>1258.0</ele><time>2026-05-03T12:52:17.106Z</time></trkpt><trkpt lat="44.4422749" lon="6.7420422"><ele>1258.0</ele><time>2026-05-03T12:52:18.106Z</time></trkpt><trkpt lat="44.4424553" lon="6.7420676"><ele>1259.6666666666665</ele><time>2026-05-03T12:52:19.106Z</time></trkpt><trkpt lat="44.4426342" lon="6.7420874"><ele>1261.3333333333333</ele><time>2026-05-03T12:52:20.106Z</time></trkpt><trkpt lat="44.4428171" lon="6.7421093"><ele>1263.0</ele><time>2026-05-03T12:52:21.106Z</time></trkpt><trkpt lat="44.4429958" lon="6.7421348"><ele>1264.0</ele><time>2026-05-03T12:52:22.106Z</time></trkpt><trkpt lat="44.4431786" lon="6.7421665"><ele>1265.0</ele><time>2026-05-03T12:52:23.106Z</time></trkpt><trkpt lat="44.4433536" lon="6.7422085"><ele>1266.0</ele><time>2026-05-03T12:52:24.106Z</time></trkpt><trkpt lat="44.4435306" lon="6.742279"><ele>1266.0</ele><time>2026-05-03T12:52:25.106Z</time></trkpt><trkpt lat="44.4436742" lon="6.742408"><ele>1266.0</ele><time>2026-05-03T12:52:26.106Z</time></trkpt><trkpt lat="44.4438211" lon="6.7425136"><ele>1266.0</ele><time>2026-05-03T12:52:27.105Z</time></trkpt><trkpt lat="44.4439811" lon="6.7425895"><ele>1269.0</ele><time>2026-05-03T12:52:28.106Z</time></trkpt><trkpt lat="44.4441506" lon="6.7426309"><ele>1272.0</ele><time>2026-05-03T12:52:29.106Z</time></trkpt><trkpt lat="44.4443139" lon="6.7426626"><ele>1275.0</ele><time>2026-05-03T12:52:30.106Z</time></trkpt><trkpt lat="44.4445012" lon="6.7426303"><ele>1272.0</ele><time>2026-05-03T12:52:31.106Z</time></trkpt><trkpt lat="44.4446825" lon="6.7425847"><ele>1269.0</ele><time>2026-05-03T12:52:32.106Z</time></trkpt><trkpt lat="44.4448589" lon="6.7424777"><ele>1266.0</ele><time>2026-05-03T12:52:33.106Z</time></trkpt><trkpt lat="44.4450345" lon="6.7423698"><ele>1266.0</ele><time>2026-05-03T12:52:34.106Z</time></trkpt><trkpt lat="44.4452164" lon="6.7422569"><ele>1266.0</ele><time>2026-05-03T12:52:35.106Z</time></trkpt><trkpt lat="44.4453922" lon="6.7421379"><ele>1266.0</ele><time>2026-05-03T12:52:36.106Z</time></trkpt><trkpt lat="44.4455676" lon="6.7420133"><ele>1266.6666666666667</ele><time>2026-05-03T12:52:37.106Z</time></trkpt><trkpt lat="44.4457398" lon="6.7418788"><ele>1267.3333333333335</ele><time>2026-05-03T12:52:38.106Z</time></trkpt><trkpt lat="44.4459066" lon="6.7417267"><ele>1268.0</ele><time>2026-05-03T12:52:39.106Z</time></trkpt><trkpt lat="44.4460748" lon="6.7415525"><ele>1268.0</ele><time>2026-05-03T12:52:40.106Z</time></trkpt><trkpt lat="44.446237" lon="6.7413892"><ele>1268.0</ele><time>2026-05-03T12:52:41.105Z</time></trkpt><trkpt lat="44.4464025" lon="6.7412213"><ele>1268.0</ele><time>2026-05-03T12:52:42.106Z</time></trkpt><trkpt lat="44.4465634" lon="6.7410578"><ele>1268.0</ele><time>2026-05-03T12:52:43.106Z</time></trkpt><trkpt lat="44.446723" lon="6.7409021"><ele>1268.0</ele><time>2026-05-03T12:52:44.106Z</time></trkpt><trkpt lat="44.446879" lon="6.7407502"><ele>1268.0</ele><time>2026-05-03T12:52:45.106Z</time></trkpt><trkpt lat="44.4470339" lon="6.7405912"><ele>1267.3333333333335</ele><time>2026-05-03T12:52:46.105Z</time></trkpt><trkpt lat="44.4471976" lon="6.7404476"><ele>1266.6666666666667</ele><time>2026-05-03T12:52:47.106Z</time></trkpt><trkpt lat="44.4473737" lon="6.7403345"><ele>1266.0</ele><time>2026-05-03T12:52:48.106Z</time></trkpt><trkpt lat="44.4475672" lon="6.7402695"><ele>1266.0</ele><time>2026-05-03T12:52:49.106Z</time></trkpt><trkpt lat="44.4477631" lon="6.7402437"><ele>1266.0</ele><time>2026-05-03T12:52:50.106Z</time></trkpt><trkpt lat="44.4479642" lon="6.7402668"><ele>1266.0</ele><time>2026-05-03T12:52:51.106Z</time></trkpt><trkpt lat="44.4481625" lon="6.7403174"><ele>1265.0</ele><time>2026-05-03T12:52:52.106Z</time></trkpt><trkpt lat="44.4483623" lon="6.7403747"><ele>1264.0</ele><time>2026-05-03T12:52:53.106Z</time></trkpt><trkpt lat="44.4485614" lon="6.7404309"><ele>1263.0</ele><time>2026-05-03T12:52:54.106Z</time></trkpt><trkpt lat="44.4487615" lon="6.7404956"><ele>1263.3333333333333</ele><time>2026-05-03T12:52:55.106Z</time></trkpt><trkpt lat="44.4489631" lon="6.7405432"><ele>1263.6666666666665</ele><time>2026-05-03T12:52:56.106Z</time></trkpt><trkpt lat="44.4491629" lon="6.7405809"><ele>1264.0</ele><time>2026-05-03T12:52:57.105Z</time></trkpt><trkpt lat="44.449361" lon="6.740617"><ele>1264.0</ele><time>2026-05-03T12:52:58.106Z</time></trkpt><trkpt lat="44.449542" lon="6.7406635"><ele>1264.0</ele><time>2026-05-03T12:52:59.106Z</time></trkpt><trkpt lat="44.4497289" lon="6.7407346"><ele>1264.0</ele><time>2026-05-03T12:53:00.105Z</time></trkpt><trkpt lat="44.4499199" lon="6.7407964"><ele>1266.0</ele><time>2026-05-03T12:53:01.106Z</time></trkpt><trkpt lat="44.4500982" lon="6.7409176"><ele>1268.0</ele><time>2026-05-03T12:53:02.106Z</time></trkpt><trkpt lat="44.4502539" lon="6.7411094"><ele>1270.0</ele><time>2026-05-03T12:53:03.106Z</time></trkpt><trkpt lat="44.4504065" lon="6.7412785"><ele>1270.3333333333333</ele><time>2026-05-03T12:53:04.106Z</time></trkpt><trkpt lat="44.450562" lon="6.7414518"><ele>1270.6666666666667</ele><time>2026-05-03T12:53:05.106Z</time></trkpt><trkpt lat="44.4507226" lon="6.7416347"><ele>1271.0</ele><time>2026-05-03T12:53:06.106Z</time></trkpt><trkpt lat="44.4508802" lon="6.7418054"><ele>1271.3333333333335</ele><time>2026-05-03T12:53:07.106Z</time></trkpt><trkpt lat="44.4510354" lon="6.7419701"><ele>1271.6666666666667</ele><time>2026-05-03T12:53:08.106Z</time></trkpt><trkpt lat="44.4511975" lon="6.7421356"><ele>1272.0</ele><time>2026-05-03T12:53:09.105Z</time></trkpt><trkpt lat="44.4513645" lon="6.7422884"><ele>1274.6666666666667</ele><time>2026-05-03T12:53:10.105Z</time></trkpt><trkpt lat="44.4515324" lon="6.7424276"><ele>1277.3333333333335</ele><time>2026-05-03T12:53:11.106Z</time></trkpt><trkpt lat="44.4516983" lon="6.7425692"><ele>1280.0</ele><time>2026-05-03T12:53:12.106Z</time></trkpt><trkpt lat="44.4518728" lon="6.7426938"><ele>1277.0</ele><time>2026-05-03T12:53:13.106Z</time></trkpt><trkpt lat="44.4520351" lon="6.7428097"><ele>1274.0</ele><time>2026-05-03T12:53:14.106Z</time></trkpt><trkpt lat="44.4522108" lon="6.7428963"><ele>1271.0</ele><time>2026-05-03T12:53:15.106Z</time></trkpt><trkpt lat="44.4523852" lon="6.7429932"><ele>1271.0</ele><time>2026-05-03T12:53:16.106Z</time></trkpt><trkpt lat="44.4525419" lon="6.7431394"><ele>1271.0</ele><time>2026-05-03T12:53:17.106Z</time></trkpt><trkpt lat="44.4526803" lon="6.7433052"><ele>1271.0</ele><time>2026-05-03T12:53:18.106Z</time></trkpt><trkpt lat="44.4528028" lon="6.7434792"><ele>1271.3333333333335</ele><time>2026-05-03T12:53:19.105Z</time></trkpt><trkpt lat="44.4529064" lon="6.7436437"><ele>1271.6666666666667</ele><time>2026-05-03T12:53:20.106Z</time></trkpt><trkpt lat="44.4530328" lon="6.743766"><ele>1272.0</ele><time>2026-05-03T12:53:21.106Z</time></trkpt><trkpt lat="44.4531534" lon="6.7438936"><ele>1272.0</ele><time>2026-05-03T12:53:22.106Z</time></trkpt><trkpt lat="44.4533184" lon="6.7439101"><ele>1272.0</ele><time>2026-05-03T12:53:23.106Z</time></trkpt><trkpt lat="44.4534691" lon="6.7438945"><ele>1272.0</ele><time>2026-05-03T12:53:24.105Z</time></trkpt><trkpt lat="44.4536235" lon="6.7438539"><ele>1272.0</ele><time>2026-05-03T12:53:25.106Z</time></trkpt><trkpt lat="44.45377" lon="6.7437752"><ele>1272.0</ele><time>2026-05-03T12:53:26.106Z</time></trkpt><trkpt lat="44.4539236" lon="6.7437215"><ele>1272.0</ele><time>2026-05-03T12:53:27.106Z</time></trkpt><trkpt lat="44.4540781" lon="6.7436795"><ele>1272.3333333333333</ele><time>2026-05-03T12:53:28.106Z</time></trkpt><trkpt lat="44.4542816" lon="6.7436866"><ele>1272.6666666666665</ele><time>2026-05-03T12:53:29.106Z</time></trkpt><trkpt lat="44.4544718" lon="6.7436894"><ele>1273.0</ele><time>2026-05-03T12:53:30.106Z</time></trkpt><trkpt lat="44.4546569" lon="6.7436937"><ele>1275.6666666666665</ele><time>2026-05-03T12:53:31.106Z</time></trkpt><trkpt lat="44.4548271" lon="6.7437071"><ele>1278.3333333333333</ele><time>2026-05-03T12:53:32.106Z</time></trkpt><trkpt lat="44.4549885" lon="6.7437226"><ele>1281.0</ele><time>2026-05-03T12:53:33.105Z</time></trkpt><trkpt lat="44.4551307" lon="6.7437504"><ele>1281.0</ele><time>2026-05-03T12:53:34.106Z</time></trkpt><trkpt lat="44.4552627" lon="6.7437863"><ele>1281.0</ele><time>2026-05-03T12:53:35.106Z</time></trkpt><trkpt lat="44.4553848" lon="6.7438522"><ele>1281.0</ele><time>2026-05-03T12:53:36.106Z</time></trkpt><trkpt lat="44.4554993" lon="6.743909"><ele>1281.0</ele><time>2026-05-03T12:53:37.106Z</time></trkpt><trkpt lat="44.4556164" lon="6.7439794"><ele>1281.75</ele><time>2026-05-03T12:53:38.106Z</time></trkpt><trkpt lat="44.455733" lon="6.744046"><ele>1282.5</ele><time>2026-05-03T12:53:39.106Z</time></trkpt><trkpt lat="44.4558486" lon="6.7440998"><ele>1283.25</ele><time>2026-05-03T12:53:40.106Z</time></trkpt><trkpt lat="44.4559753" lon="6.7441525"><ele>1284.0</ele><time>2026-05-03T12:53:41.106Z</time></trkpt><trkpt lat="44.4560798" lon="6.744152"><ele>1284.0</ele><time>2026-05-03T12:53:42.106Z</time></trkpt><trkpt lat="44.4562026" lon="6.7441534"><ele>1284.0</ele><time>2026-05-03T12:53:43.106Z</time></trkpt><trkpt lat="44.4563272" lon="6.7441567"><ele>1284.0</ele><time>2026-05-03T12:53:44.106Z</time></trkpt><trkpt lat="44.456448" lon="6.7441513"><ele>1284.0</ele><time>2026-05-03T12:53:45.106Z</time></trkpt><trkpt lat="44.4565678" lon="6.7441506"><ele>1285.0</ele><time>2026-05-03T12:53:46.106Z</time></trkpt><trkpt lat="44.4566843" lon="6.744155"><ele>1286.0</ele><time>2026-05-03T12:53:47.105Z</time></trkpt><trkpt lat="44.4568015" lon="6.7441786"><ele>1287.0</ele><time>2026-05-03T12:53:48.106Z</time></trkpt><trkpt lat="44.4569194" lon="6.744221"><ele>1288.0</ele><time>2026-05-03T12:53:49.106Z</time></trkpt><trkpt lat="44.4570313" lon="6.7442841"><ele>1287.75</ele><time>2026-05-03T12:53:50.106Z</time></trkpt><trkpt lat="44.4571425" lon="6.7443398"><ele>1287.5</ele><time>2026-05-03T12:53:51.105Z</time></trkpt><trkpt lat="44.457243" lon="6.744418"><ele>1287.25</ele><time>2026-05-03T12:53:52.106Z</time></trkpt><trkpt lat="44.4573472" lon="6.7444945"><ele>1287.0</ele><time>2026-05-03T12:53:53.106Z</time></trkpt><trkpt lat="44.4574398" lon="6.7445604"><ele>1287.0</ele><time>2026-05-03T12:53:54.106Z</time></trkpt><trkpt lat="44.4575429" lon="6.7446451"><ele>1287.0</ele><time>2026-05-03T12:53:55.106Z</time></trkpt><trkpt lat="44.4576411" lon="6.7447297"><ele>1287.0</ele><time>2026-05-03T12:53:56.106Z</time></trkpt><trkpt lat="44.4577348" lon="6.7448174"><ele>1287.0</ele><time>2026-05-03T12:53:57.106Z</time></trkpt><trkpt lat="44.457827" lon="6.7449088"><ele>1287.0</ele><time>2026-05-03T12:53:58.106Z</time></trkpt><trkpt lat="44.4579113" lon="6.7450177"><ele>1287.0</ele><time>2026-05-03T12:53:59.106Z</time></trkpt><trkpt lat="44.4579854" lon="6.7451433"><ele>1287.0</ele><time>2026-05-03T12:54:00.106Z</time></trkpt><trkpt lat="44.458043" lon="6.7452792"><ele>1287.0</ele><time>2026-05-03T12:54:01.105Z</time></trkpt><trkpt lat="44.4580832" lon="6.7454311"><ele>1287.5</ele><time>2026-05-03T12:54:02.106Z</time></trkpt><trkpt lat="44.4581185" lon="6.7455865"><ele>1288.0</ele><time>2026-05-03T12:54:03.105Z</time></trkpt><trkpt lat="44.4581407" lon="6.745742"><ele>1288.5</ele><time>2026-05-03T12:54:04.106Z</time></trkpt><trkpt lat="44.4581592" lon="6.7459033"><ele>1289.0</ele><time>2026-05-03T12:54:05.106Z</time></trkpt><trkpt lat="44.4581739" lon="6.7460675"><ele>1288.0</ele><time>2026-05-03T12:54:06.105Z</time></trkpt><trkpt lat="44.4582068" lon="6.7462288"><ele>1287.0</ele><time>2026-05-03T12:54:07.106Z</time></trkpt><trkpt lat="44.458255" lon="6.7463737"><ele>1286.0</ele><time>2026-05-03T12:54:08.106Z</time></trkpt><trkpt lat="44.458327" lon="6.7465009"><ele>1285.0</ele><time>2026-05-03T12:54:09.105Z</time></trkpt><trkpt lat="44.4584165" lon="6.7466035"><ele>1285.0</ele><time>2026-05-03T12:54:10.106Z</time></trkpt><trkpt lat="44.458524" lon="6.7466788"><ele>1285.0</ele><time>2026-05-03T12:54:11.106Z</time></trkpt><trkpt lat="44.4586464" lon="6.7467257"><ele>1285.0</ele><time>2026-05-03T12:54:12.106Z</time></trkpt><trkpt lat="44.4587663" lon="6.7467381"><ele>1285.0</ele><time>2026-05-03T12:54:13.105Z</time></trkpt><trkpt lat="44.4588942" lon="6.7467371"><ele>1287.75</ele><time>2026-05-03T12:54:14.106Z</time></trkpt><trkpt lat="44.4590249" lon="6.7467406"><ele>1290.5</ele><time>2026-05-03T12:54:15.106Z</time></trkpt><trkpt lat="44.4591571" lon="6.746755"><ele>1293.25</ele><time>2026-05-03T12:54:16.105Z</time></trkpt><trkpt lat="44.4592838" lon="6.7467707"><ele>1296.0</ele><time>2026-05-03T12:54:17.106Z</time></trkpt><trkpt lat="44.4594232" lon="6.7468066"><ele>1296.0</ele><time>2026-05-03T12:54:18.106Z</time></trkpt><trkpt lat="44.4595606" lon="6.7468356"><ele>1296.0</ele><time>2026-05-03T12:54:19.106Z</time></trkpt><trkpt lat="44.4596894" lon="6.7468853"><ele>1296.0</ele><time>2026-05-03T12:54:20.106Z</time></trkpt><trkpt lat="44.459829" lon="6.7469464"><ele>1296.0</ele><time>2026-05-03T12:54:21.105Z</time></trkpt><trkpt lat="44.4599614" lon="6.747012"><ele>1296.75</ele><time>2026-05-03T12:54:22.106Z</time></trkpt><trkpt lat="44.4600926" lon="6.7470772"><ele>1297.5</ele><time>2026-05-03T12:54:23.106Z</time></trkpt><trkpt lat="44.4602192" lon="6.7471814"><ele>1298.25</ele><time>2026-05-03T12:54:24.106Z</time></trkpt><trkpt lat="44.4603493" lon="6.747279"><ele>1299.0</ele><time>2026-05-03T12:54:25.106Z</time></trkpt><trkpt lat="44.46047" lon="6.7474082"><ele>1299.0</ele><time>2026-05-03T12:54:26.106Z</time></trkpt><trkpt lat="44.4605866" lon="6.7475318"><ele>1299.0</ele><time>2026-05-03T12:54:27.106Z</time></trkpt><trkpt lat="44.4607033" lon="6.7476632"><ele>1299.0</ele><time>2026-05-03T12:54:28.106Z</time></trkpt><trkpt lat="44.4608181" lon="6.7478087"><ele>1295.3333333333333</ele><time>2026-05-03T12:54:29.106Z</time></trkpt><trkpt lat="44.4609324" lon="6.7479692"><ele>1291.6666666666665</ele><time>2026-05-03T12:54:30.106Z</time></trkpt><trkpt lat="44.4610284" lon="6.7481297"><ele>1288.0</ele><time>2026-05-03T12:54:31.106Z</time></trkpt><trkpt lat="44.4611286" lon="6.7482895"><ele>1288.0</ele><time>2026-05-03T12:54:32.106Z</time></trkpt><trkpt lat="44.4612258" lon="6.7484487"><ele>1288.0</ele><time>2026-05-03T12:54:33.105Z</time></trkpt><trkpt lat="44.4613257" lon="6.7485989"><ele>1288.0</ele><time>2026-05-03T12:54:34.106Z</time></trkpt><trkpt lat="44.4614207" lon="6.7487514"><ele>1288.0</ele><time>2026-05-03T12:54:35.106Z</time></trkpt><trkpt lat="44.4615235" lon="6.7488953"><ele>1287.25</ele><time>2026-05-03T12:54:36.106Z</time></trkpt><trkpt lat="44.4616316" lon="6.749038"><ele>1286.5</ele><time>2026-05-03T12:54:37.106Z</time></trkpt><trkpt lat="44.4617343" lon="6.7491828"><ele>1285.75</ele><time>2026-05-03T12:54:38.106Z</time></trkpt><trkpt lat="44.4618409" lon="6.7493252"><ele>1285.0</ele><time>2026-05-03T12:54:39.106Z</time></trkpt><trkpt lat="44.461946" lon="6.7494716"><ele>1285.0</ele><time>2026-05-03T12:54:40.105Z</time></trkpt><trkpt lat="44.4620479" lon="6.7496182"><ele>1285.0</ele><time>2026-05-03T12:54:41.106Z</time></trkpt><trkpt lat="44.4621506" lon="6.7497537"><ele>1285.0</ele><time>2026-05-03T12:54:42.106Z</time></trkpt><trkpt lat="44.4622631" lon="6.7498858"><ele>1285.0</ele><time>2026-05-03T12:54:43.106Z</time></trkpt><trkpt lat="44.4623836" lon="6.7500021"><ele>1284.6666666666665</ele><time>2026-05-03T12:54:44.106Z</time></trkpt><trkpt lat="44.4625165" lon="6.7501021"><ele>1284.3333333333333</ele><time>2026-05-03T12:54:45.106Z</time></trkpt><trkpt lat="44.4626603" lon="6.7501841"><ele>1284.0</ele><time>2026-05-03T12:54:46.105Z</time></trkpt><trkpt lat="44.4628069" lon="6.7502305"><ele>1287.6666666666667</ele><time>2026-05-03T12:54:47.106Z</time></trkpt><trkpt lat="44.4629605" lon="6.7502754"><ele>1291.3333333333335</ele><time>2026-05-03T12:54:48.105Z</time></trkpt><trkpt lat="44.4631129" lon="6.7503208"><ele>1295.0</ele><time>2026-05-03T12:54:49.106Z</time></trkpt><trkpt lat="44.4632647" lon="6.7503679"><ele>1295.0</ele><time>2026-05-03T12:54:50.106Z</time></trkpt><trkpt lat="44.4634" lon="6.7504924"><ele>1295.0</ele><time>2026-05-03T12:54:51.106Z</time></trkpt><trkpt lat="44.4635269" lon="6.7506271"><ele>1295.0</ele><time>2026-05-03T12:54:52.106Z</time></trkpt><trkpt lat="44.4636541" lon="6.7507612"><ele>1295.0</ele><time>2026-05-03T12:54:53.105Z</time></trkpt><trkpt lat="44.463777" lon="6.7509199"><ele>1295.0</ele><time>2026-05-03T12:54:54.106Z</time></trkpt><trkpt lat="44.4639045" lon="6.7510805"><ele>1295.0</ele><time>2026-05-03T12:54:55.106Z</time></trkpt><trkpt lat="44.4640293" lon="6.7512334"><ele>1294.0</ele><time>2026-05-03T12:54:56.106Z</time></trkpt><trkpt lat="44.4641578" lon="6.7513915"><ele>1293.0</ele><time>2026-05-03T12:54:57.106Z</time></trkpt><trkpt lat="44.4642878" lon="6.7515507"><ele>1292.0</ele><time>2026-05-03T12:54:58.106Z</time></trkpt><trkpt lat="44.4644217" lon="6.7517145"><ele>1289.6666666666667</ele><time>2026-05-03T12:54:59.106Z</time></trkpt><trkpt lat="44.4645516" lon="6.7518848"><ele>1287.3333333333333</ele><time>2026-05-03T12:55:00.105Z</time></trkpt><trkpt lat="44.4646705" lon="6.7520718"><ele>1285.0</ele><time>2026-05-03T12:55:01.106Z</time></trkpt><trkpt lat="44.4647758" lon="6.7522771"><ele>1286.6666666666665</ele><time>2026-05-03T12:55:02.106Z</time></trkpt><trkpt lat="44.4648838" lon="6.7524808"><ele>1288.3333333333333</ele><time>2026-05-03T12:55:03.106Z</time></trkpt><trkpt lat="44.464983" lon="6.7526687"><ele>1290.0</ele><time>2026-05-03T12:55:04.106Z</time></trkpt><trkpt lat="44.4650763" lon="6.7528544"><ele>1290.0</ele><time>2026-05-03T12:55:05.106Z</time></trkpt><trkpt lat="44.4651525" lon="6.7530499"><ele>1290.0</ele><time>2026-05-03T12:55:06.105Z</time></trkpt><trkpt lat="44.4652061" lon="6.7532483"><ele>1290.0</ele><time>2026-05-03T12:55:07.106Z</time></trkpt><trkpt lat="44.4652367" lon="6.7534607"><ele>1289.0</ele><time>2026-05-03T12:55:08.106Z</time></trkpt><trkpt lat="44.4652512" lon="6.7536758"><ele>1288.0</ele><time>2026-05-03T12:55:09.105Z</time></trkpt><trkpt lat="44.4652529" lon="6.7538885"><ele>1287.0</ele><time>2026-05-03T12:55:10.106Z</time></trkpt><trkpt lat="44.4652295" lon="6.7541124"><ele>1287.0</ele><time>2026-05-03T12:55:11.105Z</time></trkpt><trkpt lat="44.4652061" lon="6.7543347"><ele>1287.0</ele><time>2026-05-03T12:55:12.106Z</time></trkpt><trkpt lat="44.4651786" lon="6.7545592"><ele>1287.0</ele><time>2026-05-03T12:55:13.106Z</time></trkpt><trkpt lat="44.4651499" lon="6.7547689"><ele>1287.0</ele><time>2026-05-03T12:55:14.106Z</time></trkpt><trkpt lat="44.4651172" lon="6.7549796"><ele>1287.0</ele><time>2026-05-03T12:55:15.105Z</time></trkpt><trkpt lat="44.4650852" lon="6.7551914"><ele>1287.0</ele><time>2026-05-03T12:55:16.106Z</time></trkpt><trkpt lat="44.4650509" lon="6.7553941"><ele>1287.3333333333333</ele><time>2026-05-03T12:55:17.106Z</time></trkpt><trkpt lat="44.4650177" lon="6.7556009"><ele>1287.6666666666665</ele><time>2026-05-03T12:55:18.106Z</time></trkpt><trkpt lat="44.4649799" lon="6.7558281"><ele>1288.0</ele><time>2026-05-03T12:55:19.106Z</time></trkpt><trkpt lat="44.4649493" lon="6.7560491"><ele>1289.3333333333333</ele><time>2026-05-03T12:55:20.106Z</time></trkpt><trkpt lat="44.4649341" lon="6.7562767"><ele>1290.6666666666667</ele><time>2026-05-03T12:55:21.106Z</time></trkpt><trkpt lat="44.4649282" lon="6.7565069"><ele>1292.0</ele><time>2026-05-03T12:55:22.105Z</time></trkpt><trkpt lat="44.4649429" lon="6.7567567"><ele>1296.0</ele><time>2026-05-03T12:55:23.105Z</time></trkpt><trkpt lat="44.4649745" lon="6.7570042"><ele>1300.0</ele><time>2026-05-03T12:55:24.106Z</time></trkpt><trkpt lat="44.4650396" lon="6.7572404"><ele>1304.0</ele><time>2026-05-03T12:55:25.106Z</time></trkpt><trkpt lat="44.4651343" lon="6.7574767"><ele>1302.0</ele><time>2026-05-03T12:55:26.106Z</time></trkpt><trkpt lat="44.4652491" lon="6.7577195"><ele>1300.0</ele><time>2026-05-03T12:55:27.106Z</time></trkpt><trkpt lat="44.4653689" lon="6.7579671"><ele>1298.0</ele><time>2026-05-03T12:55:28.106Z</time></trkpt><trkpt lat="44.465497" lon="6.7582179"><ele>1298.0</ele><time>2026-05-03T12:55:29.106Z</time></trkpt><trkpt lat="44.4656205" lon="6.7584745"><ele>1298.0</ele><time>2026-05-03T12:55:30.106Z</time></trkpt><trkpt lat="44.4657494" lon="6.7587296"><ele>1298.0</ele><time>2026-05-03T12:55:31.106Z</time></trkpt><trkpt lat="44.4658681" lon="6.7589733"><ele>1301.6666666666667</ele><time>2026-05-03T12:55:32.106Z</time></trkpt><trkpt lat="44.4659878" lon="6.7592069"><ele>1305.3333333333333</ele><time>2026-05-03T12:55:33.106Z</time></trkpt><trkpt lat="44.466123" lon="6.7594578"><ele>1309.0</ele><time>2026-05-03T12:55:34.105Z</time></trkpt><trkpt lat="44.4662544" lon="6.7596691"><ele>1307.6666666666665</ele><time>2026-05-03T12:55:35.106Z</time></trkpt><trkpt lat="44.4663872" lon="6.7598818"><ele>1306.3333333333333</ele><time>2026-05-03T12:55:36.106Z</time></trkpt><trkpt lat="44.466506" lon="6.7600905"><ele>1305.0</ele><time>2026-05-03T12:55:37.105Z</time></trkpt><trkpt lat="44.4666398" lon="6.7603076"><ele>1305.0</ele><time>2026-05-03T12:55:38.106Z</time></trkpt><trkpt lat="44.4667568" lon="6.7605163"><ele>1305.0</ele><time>2026-05-03T12:55:39.106Z</time></trkpt><trkpt lat="44.4668577" lon="6.7607437"><ele>1305.0</ele><time>2026-05-03T12:55:40.106Z</time></trkpt><trkpt lat="44.4669629" lon="6.7609713"><ele>1303.0</ele><time>2026-05-03T12:55:41.106Z</time></trkpt><trkpt lat="44.4670617" lon="6.7611877"><ele>1301.0</ele><time>2026-05-03T12:55:42.106Z</time></trkpt><trkpt lat="44.4671577" lon="6.7613965"><ele>1299.0</ele><time>2026-05-03T12:55:43.106Z</time></trkpt><trkpt lat="44.4672686" lon="6.7615818"><ele>1299.0</ele><time>2026-05-03T12:55:44.106Z</time></trkpt><trkpt lat="44.4673925" lon="6.7617458"><ele>1299.0</ele><time>2026-05-03T12:55:45.106Z</time></trkpt><trkpt lat="44.4675287" lon="6.7618756"><ele>1299.0</ele><time>2026-05-03T12:55:46.106Z</time></trkpt><trkpt lat="44.4676767" lon="6.7620009"><ele>1303.3333333333333</ele><time>2026-05-03T12:55:47.106Z</time></trkpt><trkpt lat="44.467873" lon="6.7620929"><ele>1307.6666666666665</ele><time>2026-05-03T12:55:48.106Z</time></trkpt><trkpt lat="44.4680559" lon="6.7621764"><ele>1312.0</ele><time>2026-05-03T12:55:49.106Z</time></trkpt><trkpt lat="44.4682354" lon="6.7622644"><ele>1312.0</ele><time>2026-05-03T12:55:50.106Z</time></trkpt><trkpt lat="44.4684321" lon="6.7623491"><ele>1312.0</ele><time>2026-05-03T12:55:51.106Z</time></trkpt><trkpt lat="44.468614" lon="6.7624464"><ele>1312.0</ele><time>2026-05-03T12:55:52.105Z</time></trkpt><trkpt lat="44.4688056" lon="6.7625393"><ele>1308.6666666666665</ele><time>2026-05-03T12:55:53.106Z</time></trkpt><trkpt lat="44.468988" lon="6.7626329"><ele>1305.3333333333333</ele><time>2026-05-03T12:55:54.106Z</time></trkpt><trkpt lat="44.4691713" lon="6.7627253"><ele>1302.0</ele><time>2026-05-03T12:55:55.105Z</time></trkpt><trkpt lat="44.469355" lon="6.7628132"><ele>1304.6666666666667</ele><time>2026-05-03T12:55:56.106Z</time></trkpt><trkpt lat="44.4695358" lon="6.7629057"><ele>1307.3333333333335</ele><time>2026-05-03T12:55:57.105Z</time></trkpt><trkpt lat="44.4697184" lon="6.7629939"><ele>1310.0</ele><time>2026-05-03T12:55:58.106Z</time></trkpt><trkpt lat="44.4698921" lon="6.7630799"><ele>1310.0</ele><time>2026-05-03T12:55:59.105Z</time></trkpt><trkpt lat="44.470065" lon="6.7631653"><ele>1310.0</ele><time>2026-05-03T12:56:00.106Z</time></trkpt><trkpt lat="44.4702299" lon="6.7632534"><ele>1310.0</ele><time>2026-05-03T12:56:01.106Z</time></trkpt><trkpt lat="44.47038" lon="6.7633553"><ele>1308.75</ele><time>2026-05-03T12:56:02.106Z</time></trkpt><trkpt lat="44.4705171" lon="6.7634711"><ele>1307.5</ele><time>2026-05-03T12:56:03.106Z</time></trkpt><trkpt lat="44.4706485" lon="6.7635744"><ele>1306.25</ele><time>2026-05-03T12:56:04.106Z</time></trkpt><trkpt lat="44.4707641" lon="6.7636701"><ele>1305.0</ele><time>2026-05-03T12:56:05.106Z</time></trkpt><trkpt lat="44.470882" lon="6.7637527"><ele>1305.75</ele><time>2026-05-03T12:56:06.105Z</time></trkpt><trkpt lat="44.471001" lon="6.7637886"><ele>1306.5</ele><time>2026-05-03T12:56:07.106Z</time></trkpt><trkpt lat="44.4711191" lon="6.7638256"><ele>1307.25</ele><time>2026-05-03T12:56:08.105Z</time></trkpt><trkpt lat="44.4712543" lon="6.7638196"><ele>1308.0</ele><time>2026-05-03T12:56:09.106Z</time></trkpt><trkpt lat="44.4713906" lon="6.7637754"><ele>1308.0</ele><time>2026-05-03T12:56:10.106Z</time></trkpt><trkpt lat="44.4715274" lon="6.763735"><ele>1308.0</ele><time>2026-05-03T12:56:11.106Z</time></trkpt><trkpt lat="44.471661" lon="6.7636308"><ele>1308.0</ele><time>2026-05-03T12:56:12.106Z</time></trkpt><trkpt lat="44.47179" lon="6.7635306"><ele>1308.0</ele><time>2026-05-03T12:56:13.106Z</time></trkpt><trkpt lat="44.471909" lon="6.7634432"><ele>1308.25</ele><time>2026-05-03T12:56:14.106Z</time></trkpt><trkpt lat="44.4720302" lon="6.7633576"><ele>1308.5</ele><time>2026-05-03T12:56:15.106Z</time></trkpt><trkpt lat="44.4721438" lon="6.7632766"><ele>1308.75</ele><time>2026-05-03T12:56:16.106Z</time></trkpt><trkpt lat="44.4722815" lon="6.7632275"><ele>1309.0</ele><time>2026-05-03T12:56:17.106Z</time></trkpt><trkpt lat="44.4724232" lon="6.7632077"><ele>1309.0</ele><time>2026-05-03T12:56:18.106Z</time></trkpt><trkpt lat="44.4725659" lon="6.7632178"><ele>1309.0</ele><time>2026-05-03T12:56:19.106Z</time></trkpt><trkpt lat="44.4727041" lon="6.7632354"><ele>1309.0</ele><time>2026-05-03T12:56:20.106Z</time></trkpt><trkpt lat="44.4728469" lon="6.7633236"><ele>1309.0</ele><time>2026-05-03T12:56:21.106Z</time></trkpt><trkpt lat="44.4729754" lon="6.7634273"><ele>1310.3333333333333</ele><time>2026-05-03T12:56:22.106Z</time></trkpt><trkpt lat="44.4730894" lon="6.763565"><ele>1311.6666666666667</ele><time>2026-05-03T12:56:23.106Z</time></trkpt><trkpt lat="44.4731982" lon="6.763723"><ele>1313.0</ele><time>2026-05-03T12:56:24.105Z</time></trkpt><trkpt lat="44.4733001" lon="6.763891"><ele>1313.0</ele><time>2026-05-03T12:56:25.106Z</time></trkpt><trkpt lat="44.4734007" lon="6.7640656"><ele>1313.0</ele><time>2026-05-03T12:56:26.106Z</time></trkpt><trkpt lat="44.473504" lon="6.7642404"><ele>1313.0</ele><time>2026-05-03T12:56:27.106Z</time></trkpt><trkpt lat="44.4736011" lon="6.7644189"><ele>1313.3333333333335</ele><time>2026-05-03T12:56:28.106Z</time></trkpt><trkpt lat="44.4736978" lon="6.7645898"><ele>1313.6666666666667</ele><time>2026-05-03T12:56:29.106Z</time></trkpt><trkpt lat="44.4737922" lon="6.7647635"><ele>1314.0</ele><time>2026-05-03T12:56:30.106Z</time></trkpt><trkpt lat="44.4738811" lon="6.7649412"><ele>1315.0</ele><time>2026-05-03T12:56:31.106Z</time></trkpt><trkpt lat="44.4739714" lon="6.7651197"><ele>1316.0</ele><time>2026-05-03T12:56:32.106Z</time></trkpt><trkpt lat="44.4740664" lon="6.765287"><ele>1317.0</ele><time>2026-05-03T12:56:33.105Z</time></trkpt><trkpt lat="44.4741572" lon="6.7654374"><ele>1318.0</ele><time>2026-05-03T12:56:34.106Z</time></trkpt><trkpt lat="44.4742536" lon="6.765578"><ele>1318.5</ele><time>2026-05-03T12:56:35.106Z</time></trkpt><trkpt lat="44.4743664" lon="6.7656859"><ele>1319.0</ele><time>2026-05-03T12:56:36.106Z</time></trkpt><trkpt lat="44.4744882" lon="6.7657704"><ele>1319.5</ele><time>2026-05-03T12:56:37.106Z</time></trkpt><trkpt lat="44.4746198" lon="6.7658266"><ele>1320.0</ele><time>2026-05-03T12:56:38.106Z</time></trkpt><trkpt lat="44.4747629" lon="6.7658577"><ele>1321.0</ele><time>2026-05-03T12:56:39.106Z</time></trkpt><trkpt lat="44.4749105" lon="6.7658601"><ele>1322.0</ele><time>2026-05-03T12:56:40.106Z</time></trkpt><trkpt lat="44.4750684" lon="6.7658401"><ele>1323.0</ele><time>2026-05-03T12:56:41.106Z</time></trkpt><trkpt lat="44.475231" lon="6.7657966"><ele>1323.0</ele><time>2026-05-03T12:56:42.106Z</time></trkpt><trkpt lat="44.4753931" lon="6.7657333"><ele>1323.0</ele><time>2026-05-03T12:56:43.106Z</time></trkpt><trkpt lat="44.4755494" lon="6.7656443"><ele>1323.0</ele><time>2026-05-03T12:56:44.105Z</time></trkpt><trkpt lat="44.475702" lon="6.7655292"><ele>1322.6666666666667</ele><time>2026-05-03T12:56:45.106Z</time></trkpt><trkpt lat="44.4758482" lon="6.7653867"><ele>1322.3333333333335</ele><time>2026-05-03T12:56:46.106Z</time></trkpt><trkpt lat="44.4759922" lon="6.7652486"><ele>1322.0</ele><time>2026-05-03T12:56:47.105Z</time></trkpt><trkpt lat="44.476136" lon="6.7651053"><ele>1321.0</ele><time>2026-05-03T12:56:48.106Z</time></trkpt><trkpt lat="44.4762671" lon="6.7649775"><ele>1320.0</ele><time>2026-05-03T12:56:49.106Z</time></trkpt><trkpt lat="44.4763874" lon="6.7648387"><ele>1319.0</ele><time>2026-05-03T12:56:50.106Z</time></trkpt><trkpt lat="44.476482" lon="6.7646901"><ele>1309.0</ele><time>2026-05-03T12:56:51.106Z</time></trkpt><trkpt lat="44.4728469" lon="6.7633236"><ele>1310.0</ele><time>2026-05-03T12:56:21.106Z</time></trkpt><trkpt lat="44.4729754" lon="6.7634273"><ele>1311.0</ele><time>2026-05-03T12:56:22.106Z</time></trkpt><trkpt lat="44.4730894" lon="6.763565"><ele>1312.0</ele><time>2026-05-03T12:56:23.106Z</time></trkpt><trkpt lat="44.4731982" lon="6.763723"><ele>1312.3333333333333</ele><time>2026-05-03T12:56:24.105Z</time></trkpt><trkpt lat="44.4733001" lon="6.763891"><ele>1312.6666666666667</ele><time>2026-05-03T12:56:25.106Z</time></trkpt><trkpt lat="44.4734007" lon="6.7640656"><ele>1313.0</ele><time>2026-05-03T12:56:26.106Z</time></trkpt><trkpt lat="44.473504" lon="6.7642404"><ele>1313.3333333333335</ele><time>2026-05-03T12:56:27.106Z</time></trkpt><trkpt lat="44.4736011" lon="6.7644189"><ele>1313.6666666666667</ele><time>2026-05-03T12:56:28.106Z</time></trkpt><trkpt lat="44.4736978" lon="6.7645898"><ele>1314.0</ele><time>2026-05-03T12:56:29.106Z</time></trkpt><trkpt lat="44.4737922" lon="6.7647635"><ele>1315.3333333333333</ele><time>2026-05-03T12:56:30.106Z</time></trkpt><trkpt lat="44.4738811" lon="6.7649412"><ele>1316.6666666666665</ele><time>2026-05-03T12:56:31.106Z</time></trkpt><trkpt lat="44.4739714" lon="6.7651197"><ele>1318.0</ele><time>2026-05-03T12:56:32.106Z</time></trkpt><trkpt lat="44.4740664" lon="6.765287"><ele>1318.5</ele><time>2026-05-03T12:56:33.105Z</time></trkpt><trkpt lat="44.4741572" lon="6.7654374"><ele>1319.0</ele><time>2026-05-03T12:56:34.106Z</time></trkpt><trkpt lat="44.4742536" lon="6.765578"><ele>1319.5</ele><time>2026-05-03T12:56:35.106Z</time></trkpt><trkpt lat="44.4743664" lon="6.7656859"><ele>1320.0</ele><time>2026-05-03T12:56:36.106Z</time></trkpt><trkpt lat="44.4744882" lon="6.7657704"><ele>1320.75</ele><time>2026-05-03T12:56:37.106Z</time></trkpt><trkpt lat="44.4746198" lon="6.7658266"><ele>1321.5</ele><time>2026-05-03T12:56:38.106Z</time></trkpt><trkpt lat="44.4747629" lon="6.7658577"><ele>1322.25</ele><time>2026-05-03T12:56:39.106Z</time></trkpt><trkpt lat="44.4749105" lon="6.7658601"><ele>1323.0</ele><time>2026-05-03T12:56:40.106Z</time></trkpt><trkpt lat="44.4750684" lon="6.7658401"><ele>1323.0</ele><time>2026-05-03T12:56:41.106Z</time></trkpt><trkpt lat="44.475231" lon="6.7657966"><ele>1323.0</ele><time>2026-05-03T12:56:42.106Z</time></trkpt><trkpt lat="44.4753931" lon="6.7657333"><ele>1323.0</ele><time>2026-05-03T12:56:43.106Z</time></trkpt><trkpt lat="44.4755494" lon="6.7656443"><ele>1322.6666666666667</ele><time>2026-05-03T12:56:44.105Z</time></trkpt><trkpt lat="44.475702" lon="6.7655292"><ele>1322.3333333333335</ele><time>2026-05-03T12:56:45.106Z</time></trkpt><trkpt lat="44.4758482" lon="6.7653867"><ele>1322.0</ele><time>2026-05-03T12:56:46.106Z</time></trkpt><trkpt lat="44.4759922" lon="6.7652486"><ele>1321.0</ele><time>2026-05-03T12:56:47.105Z</time></trkpt><trkpt lat="44.476136" lon="6.7651053"><ele>1320.0</ele><time>2026-05-03T12:56:48.106Z</time></trkpt><trkpt lat="44.4762671" lon="6.7649775"><ele>1319.0</ele><time>2026-05-03T12:56:49.106Z</time></trkpt><trkpt lat="44.4763874" lon="6.7648387"><ele>1322.5</ele><time>2026-05-03T12:56:50.106Z</time></trkpt><trkpt lat="44.476482" lon="6.7646901"><ele>1326.0</ele><time>2026-05-03T12:56:51.106Z</time></trkpt><trkpt lat="44.4765637" lon="6.7645302"><ele>1329.5</ele><time>2026-05-03T12:56:52.106Z</time></trkpt><trkpt lat="44.4766045" lon="6.7643258"><ele>1333.0</ele><time>2026-05-03T12:56:53.106Z</time></trkpt><trkpt lat="44.4766459" lon="6.7641322"><ele>1333.0</ele><time>2026-05-03T12:56:54.106Z</time></trkpt><trkpt lat="44.4766831" lon="6.7639497"><ele>1333.0</ele><time>2026-05-03T12:56:55.106Z</time></trkpt><trkpt lat="44.4767418" lon="6.7637822"><ele>1333.0</ele><time>2026-05-03T12:56:56.105Z</time></trkpt><trkpt lat="44.476823" lon="6.7636166"><ele>1333.0</ele><time>2026-05-03T12:56:57.105Z</time></trkpt><trkpt lat="44.4769125" lon="6.7634415"><ele>1330.3333333333333</ele><time>2026-05-03T12:56:58.106Z</time></trkpt><trkpt lat="44.4769968" lon="6.7632543"><ele>1327.6666666666667</ele><time>2026-05-03T12:56:59.106Z</time></trkpt><trkpt lat="44.477078" lon="6.7630689"><ele>1325.0</ele><time>2026-05-03T12:57:00.106Z</time></trkpt><trkpt lat="44.4771738" lon="6.7628826"><ele>1330.3333333333335</ele><time>2026-05-03T12:57:01.106Z</time></trkpt><trkpt lat="44.4772795" lon="6.762688"><ele>1335.6666666666667</ele><time>2026-05-03T12:57:02.106Z</time></trkpt><trkpt lat="44.4773987" lon="6.7624973"><ele>1341.0</ele><time>2026-05-03T12:57:03.106Z</time></trkpt><trkpt lat="44.4775183" lon="6.762306"><ele>1341.0</ele><time>2026-05-03T12:57:04.106Z</time></trkpt><trkpt lat="44.4776301" lon="6.7621191"><ele>1341.0</ele><time>2026-05-03T12:57:05.106Z</time></trkpt><trkpt lat="44.4777405" lon="6.7619453"><ele>1341.0</ele><time>2026-05-03T12:57:06.106Z</time></trkpt><trkpt lat="44.4778459" lon="6.7617723"><ele>1344.3333333333333</ele><time>2026-05-03T12:57:07.106Z</time></trkpt><trkpt lat="44.4779762" lon="6.7616272"><ele>1347.6666666666665</ele><time>2026-05-03T12:57:08.106Z</time></trkpt><trkpt lat="44.4781086" lon="6.7614854"><ele>1351.0</ele><time>2026-05-03T12:57:09.106Z</time></trkpt><trkpt lat="44.4782379" lon="6.7613791"><ele>1351.0</ele><time>2026-05-03T12:57:10.106Z</time></trkpt><trkpt lat="44.4783557" lon="6.7612664"><ele>1351.0</ele><time>2026-05-03T12:57:11.106Z</time></trkpt><trkpt lat="44.478465" lon="6.7611264"><ele>1351.0</ele><time>2026-05-03T12:57:12.106Z</time></trkpt><trkpt lat="44.4785524" lon="6.7609404"><ele>1347.6666666666665</ele><time>2026-05-03T12:57:13.106Z</time></trkpt><trkpt lat="44.4786307" lon="6.7607395"><ele>1344.3333333333333</ele><time>2026-05-03T12:57:14.106Z</time></trkpt><trkpt lat="44.4787002" lon="6.7605345"><ele>1341.0</ele><time>2026-05-03T12:57:15.106Z</time></trkpt><trkpt lat="44.4787774" lon="6.7603527"><ele>1344.75</ele><time>2026-05-03T12:57:16.106Z</time></trkpt><trkpt lat="44.4788598" lon="6.7601849"><ele>1348.5</ele><time>2026-05-03T12:57:17.106Z</time></trkpt><trkpt lat="44.4789777" lon="6.7600546"><ele>1352.25</ele><time>2026-05-03T12:57:18.105Z</time></trkpt><trkpt lat="44.4790939" lon="6.7599271"><ele>1356.0</ele><time>2026-05-03T12:57:19.106Z</time></trkpt><trkpt lat="44.4792162" lon="6.759776"><ele>1356.0</ele><time>2026-05-03T12:57:20.106Z</time></trkpt><trkpt lat="44.4793355" lon="6.7596239"><ele>1356.0</ele><time>2026-05-03T12:57:21.105Z</time></trkpt><trkpt lat="44.4794496" lon="6.759452"><ele>1356.0</ele><time>2026-05-03T12:57:22.106Z</time></trkpt><trkpt lat="44.4795535" lon="6.7592958"><ele>1358.25</ele><time>2026-05-03T12:57:23.106Z</time></trkpt><trkpt lat="44.4796381" lon="6.7591249"><ele>1360.5</ele><time>2026-05-03T12:57:24.106Z</time></trkpt><trkpt lat="44.4797132" lon="6.7589536"><ele>1362.75</ele><time>2026-05-03T12:57:25.106Z</time></trkpt><trkpt lat="44.47978" lon="6.7588068"><ele>1365.0</ele><time>2026-05-03T12:57:26.106Z</time></trkpt><trkpt lat="44.4798387" lon="6.758675"><ele>1365.0</ele><time>2026-05-03T12:57:27.106Z</time></trkpt><trkpt lat="44.4799036" lon="6.7585411"><ele>1365.0</ele><time>2026-05-03T12:57:28.106Z</time></trkpt><trkpt lat="44.4799627" lon="6.7584866"><ele>1365.0</ele><time>2026-05-03T12:57:29.106Z</time></trkpt><trkpt lat="44.4800314" lon="6.7584193"><ele>1365.0</ele><time>2026-05-03T12:57:30.106Z</time></trkpt><trkpt lat="44.4801401" lon="6.7585387"><ele>1365.0</ele><time>2026-05-03T12:57:32.106Z</time></trkpt><trkpt lat="44.4801602" lon="6.75865"><ele>1365.0</ele><time>2026-05-03T12:57:33.106Z</time></trkpt><trkpt lat="44.4801345" lon="6.7587717"><ele>1365.0</ele><time>2026-05-03T12:57:34.106Z</time></trkpt><trkpt lat="44.4800726" lon="6.7589028"><ele>1365.0</ele><time>2026-05-03T12:57:35.106Z</time></trkpt><trkpt lat="44.4799887" lon="6.759042"><ele>1365.0</ele><time>2026-05-03T12:57:36.106Z</time></trkpt><trkpt lat="44.4798922" lon="6.7591922"><ele>1365.0</ele><time>2026-05-03T12:57:37.106Z</time></trkpt><trkpt lat="44.4797996" lon="6.7593485"><ele>1365.0</ele><time>2026-05-03T12:57:38.106Z</time></trkpt><trkpt lat="44.4797064" lon="6.7595221"><ele>1365.0</ele><time>2026-05-03T12:57:39.106Z</time></trkpt><trkpt lat="44.4796178" lon="6.759701"><ele>1365.6666666666667</ele><time>2026-05-03T12:57:40.106Z</time></trkpt><trkpt lat="44.4795345" lon="6.7598977"><ele>1366.3333333333335</ele><time>2026-05-03T12:57:41.106Z</time></trkpt><trkpt lat="44.4794515" lon="6.7601003"><ele>1367.0</ele><time>2026-05-03T12:57:42.106Z</time></trkpt><trkpt lat="44.4793729" lon="6.7603033"><ele>1367.0</ele><time>2026-05-03T12:57:43.106Z</time></trkpt><trkpt lat="44.4793035" lon="6.760508"><ele>1367.0</ele><time>2026-05-03T12:57:44.106Z</time></trkpt><trkpt lat="44.4792262" lon="6.7607064"><ele>1367.0</ele><time>2026-05-03T12:57:45.106Z</time></trkpt><trkpt lat="44.4791588" lon="6.7609207"><ele>1370.0</ele><time>2026-05-03T12:57:46.106Z</time></trkpt><trkpt lat="44.4791018" lon="6.7611424"><ele>1373.0</ele><time>2026-05-03T12:57:47.106Z</time></trkpt><trkpt lat="44.4790599" lon="6.7613631"><ele>1376.0</ele><time>2026-05-03T12:57:48.106Z</time></trkpt><trkpt lat="44.4790151" lon="6.7615847"><ele>1376.0</ele><time>2026-05-03T12:57:49.105Z</time></trkpt><trkpt lat="44.4789622" lon="6.7618061"><ele>1376.0</ele><time>2026-05-03T12:57:50.106Z</time></trkpt><trkpt lat="44.4788819" lon="6.7620191"><ele>1376.0</ele><time>2026-05-03T12:57:51.106Z</time></trkpt><trkpt lat="44.4787901" lon="6.7622195"><ele>1377.0</ele><time>2026-05-03T12:57:52.106Z</time></trkpt><trkpt lat="44.478699" lon="6.7624137"><ele>1378.0</ele><time>2026-05-03T12:57:53.106Z</time></trkpt><trkpt lat="44.4786244" lon="6.7626139"><ele>1379.0</ele><time>2026-05-03T12:57:54.106Z</time></trkpt><trkpt lat="44.4785548" lon="6.7628301"><ele>1379.0</ele><time>2026-05-03T12:57:55.105Z</time></trkpt><trkpt lat="44.4784982" lon="6.7630534"><ele>1379.0</ele><time>2026-05-03T12:57:56.106Z</time></trkpt><trkpt lat="44.4784309" lon="6.7632692"><ele>1379.0</ele><time>2026-05-03T12:57:57.105Z</time></trkpt><trkpt lat="44.4783478" lon="6.7634785"><ele>1384.0</ele><time>2026-05-03T12:57:58.106Z</time></trkpt><trkpt lat="44.4782724" lon="6.7637024"><ele>1389.0</ele><time>2026-05-03T12:57:59.106Z</time></trkpt><trkpt lat="44.4781915" lon="6.7639121"><ele>1394.0</ele><time>2026-05-03T12:58:00.106Z</time></trkpt><trkpt lat="44.478093" lon="6.7641101"><ele>1394.0</ele><time>2026-05-03T12:58:01.105Z</time></trkpt><trkpt lat="44.4779966" lon="6.7643116"><ele>1394.0</ele><time>2026-05-03T12:58:02.106Z</time></trkpt><trkpt lat="44.4778916" lon="6.7645124"><ele>1394.0</ele><time>2026-05-03T12:58:03.106Z</time></trkpt><trkpt lat="44.4777891" lon="6.7647188"><ele>1393.6666666666667</ele><time>2026-05-03T12:58:04.105Z</time></trkpt><trkpt lat="44.4777161" lon="6.7649594"><ele>1393.3333333333333</ele><time>2026-05-03T12:58:05.105Z</time></trkpt><trkpt lat="44.4776349" lon="6.7651833"><ele>1393.0</ele><time>2026-05-03T12:58:06.106Z</time></trkpt><trkpt lat="44.4775645" lon="6.765418"><ele>1393.0</ele><time>2026-05-03T12:58:07.106Z</time></trkpt><trkpt lat="44.4774972" lon="6.7656498"><ele>1393.0</ele><time>2026-05-03T12:58:08.105Z</time></trkpt><trkpt lat="44.4774226" lon="6.7658625"><ele>1393.0</ele><time>2026-05-03T12:58:09.105Z</time></trkpt><trkpt lat="44.4773485" lon="6.7660615"><ele>1399.6666666666665</ele><time>2026-05-03T12:58:10.106Z</time></trkpt><trkpt lat="44.4772747" lon="6.7662567"><ele>1406.3333333333333</ele><time>2026-05-03T12:58:11.106Z</time></trkpt><trkpt lat="44.4771896" lon="6.7664351"><ele>1413.0</ele><time>2026-05-03T12:58:12.106Z</time></trkpt><trkpt lat="44.4771004" lon="6.7666127"><ele>1404.25</ele><time>2026-05-03T12:58:13.106Z</time></trkpt><trkpt lat="44.477029" lon="6.7668035"><ele>1395.5</ele><time>2026-05-03T12:58:14.105Z</time></trkpt><trkpt lat="44.4769795" lon="6.7669978"><ele>1386.75</ele><time>2026-05-03T12:58:15.106Z</time></trkpt><trkpt lat="44.4769292" lon="6.7671834"><ele>1378.0</ele><time>2026-05-03T12:58:16.106Z</time></trkpt><trkpt lat="44.4768623" lon="6.767363"><ele>1378.0</ele><time>2026-05-03T12:58:17.105Z</time></trkpt><trkpt lat="44.4767853" lon="6.76753"><ele>1378.0</ele><time>2026-05-03T12:58:18.106Z</time></trkpt><trkpt lat="44.4766987" lon="6.7676754"><ele>1378.0</ele><time>2026-05-03T12:58:19.106Z</time></trkpt><trkpt lat="44.4766001" lon="6.7678283"><ele>1378.0</ele><time>2026-05-03T12:58:20.106Z</time></trkpt><trkpt lat="44.4765119" lon="6.76799"><ele>1387.25</ele><time>2026-05-03T12:58:21.106Z</time></trkpt><trkpt lat="44.4764353" lon="6.7681456"><ele>1396.5</ele><time>2026-05-03T12:58:22.106Z</time></trkpt><trkpt lat="44.4763718" lon="6.7682871"><ele>1405.75</ele><time>2026-05-03T12:58:23.106Z</time></trkpt><trkpt lat="44.476318" lon="6.7684313"><ele>1415.0</ele><time>2026-05-03T12:58:24.106Z</time></trkpt><trkpt lat="44.4762711" lon="6.7685651"><ele>1406.0</ele><time>2026-05-03T12:58:25.106Z</time></trkpt><trkpt lat="44.4762379" lon="6.7686952"><ele>1397.0</ele><time>2026-05-03T12:58:26.106Z</time></trkpt><trkpt lat="44.4762094" lon="6.7688032"><ele>1388.0</ele><time>2026-05-03T12:58:27.106Z</time></trkpt><trkpt lat="44.4761844" lon="6.7689081"><ele>1379.0</ele><time>2026-05-03T12:58:28.106Z</time></trkpt><trkpt lat="44.4761643" lon="6.7689988"><ele>1370.0</ele><time>2026-05-03T12:58:29.106Z</time></trkpt><trkpt lat="44.4761222" lon="6.7691354"><ele>1361.0</ele><time>2026-05-03T12:58:31.106Z</time></trkpt><trkpt lat="44.4760981" lon="6.7692433"><ele>1363.5</ele><time>2026-05-03T12:58:34.106Z</time></trkpt><trkpt lat="44.4760534" lon="6.7693627"><ele>1366.0</ele><time>2026-05-03T13:03:41.106Z</time></trkpt><trkpt lat="44.4760471" lon="6.7694766"><ele>1368.5</ele><time>2026-05-03T13:03:42.106Z</time></trkpt><trkpt lat="44.4760458" lon="6.7695818"><ele>1371.0</ele><time>2026-05-03T13:03:43.106Z</time></trkpt><trkpt lat="44.4760625" lon="6.7696972"><ele>1373.5</ele><time>2026-05-03T13:03:44.106Z</time></trkpt><trkpt lat="44.4760943" lon="6.7698339"><ele>1376.0</ele><time>2026-05-03T13:03:45.106Z</time></trkpt><trkpt lat="44.4761198" lon="6.7699557"><ele>1376.0</ele><time>2026-05-03T13:03:46.106Z</time></trkpt><trkpt lat="44.4761378" lon="6.77006"><ele>1376.0</ele><time>2026-05-03T13:03:47.106Z</time></trkpt><trkpt lat="44.4761634" lon="6.7701724"><ele>1376.0</ele><time>2026-05-03T13:03:48.106Z</time></trkpt><trkpt lat="44.476194" lon="6.7702892"><ele>1376.0</ele><time>2026-05-03T13:03:49.106Z</time></trkpt><trkpt lat="44.4762394" lon="6.7704063"><ele>1376.0</ele><time>2026-05-03T13:03:50.105Z</time></trkpt><trkpt lat="44.4762853" lon="6.7705188"><ele>1376.0</ele><time>2026-05-03T13:03:51.106Z</time></trkpt><trkpt lat="44.4763416" lon="6.7706516"><ele>1376.0</ele><time>2026-05-03T13:03:52.106Z</time></trkpt><trkpt lat="44.4763955" lon="6.7707946"><ele>1376.0</ele><time>2026-05-03T13:03:53.106Z</time></trkpt><trkpt lat="44.4764412" lon="6.7709536"><ele>1376.0</ele><time>2026-05-03T13:03:54.106Z</time></trkpt><trkpt lat="44.4765" lon="6.7711034"><ele>1376.0</ele><time>2026-05-03T13:03:55.106Z</time></trkpt><trkpt lat="44.476547" lon="6.7712719"><ele>1384.75</ele><time>2026-05-03T13:03:56.106Z</time></trkpt><trkpt lat="44.4765724" lon="6.771436"><ele>1393.5</ele><time>2026-05-03T13:03:57.106Z</time></trkpt><trkpt lat="44.4766105" lon="6.7716021"><ele>1402.25</ele><time>2026-05-03T13:03:58.106Z</time></trkpt><trkpt lat="44.4766414" lon="6.7717668"><ele>1411.0</ele><time>2026-05-03T13:03:59.106Z</time></trkpt><trkpt lat="44.4766553" lon="6.7719228"><ele>1411.0</ele><time>2026-05-03T13:04:00.106Z</time></trkpt><trkpt lat="44.4766492" lon="6.7720823"><ele>1411.0</ele><time>2026-05-03T13:04:01.106Z</time></trkpt><trkpt lat="44.4766423" lon="6.7722204"><ele>1411.0</ele><time>2026-05-03T13:04:02.105Z</time></trkpt><trkpt lat="44.4766124" lon="6.772359"><ele>1411.0</ele><time>2026-05-03T13:04:03.106Z</time></trkpt><trkpt lat="44.476576" lon="6.7724884"><ele>1411.0</ele><time>2026-05-03T13:04:04.106Z</time></trkpt><trkpt lat="44.4765321" lon="6.7726185"><ele>1414.5</ele><time>2026-05-03T13:04:05.106Z</time></trkpt><trkpt lat="44.4764867" lon="6.7727426"><ele>1418.0</ele><time>2026-05-03T13:04:06.106Z</time></trkpt><trkpt lat="44.4764509" lon="6.7728876"><ele>1421.5</ele><time>2026-05-03T13:04:07.105Z</time></trkpt><trkpt lat="44.4764195" lon="6.7730571"><ele>1425.0</ele><time>2026-05-03T13:04:08.106Z</time></trkpt><trkpt lat="44.476399" lon="6.7732214"><ele>1425.0</ele><time>2026-05-03T13:04:09.106Z</time></trkpt><trkpt lat="44.4763758" lon="6.7733984"><ele>1425.0</ele><time>2026-05-03T13:04:10.106Z</time></trkpt><trkpt lat="44.476367" lon="6.7735742"><ele>1425.0</ele><time>2026-05-03T13:04:11.106Z</time></trkpt><trkpt lat="44.4763641" lon="6.7737534"><ele>1425.0</ele><time>2026-05-03T13:04:12.106Z</time></trkpt><trkpt lat="44.4763618" lon="6.7739449"><ele>1429.0</ele><time>2026-05-03T13:04:13.106Z</time></trkpt><trkpt lat="44.4763582" lon="6.7741274"><ele>1433.0</ele><time>2026-05-03T13:04:14.106Z</time></trkpt><trkpt lat="44.4763516" lon="6.7742986"><ele>1437.0</ele><time>2026-05-03T13:04:15.106Z</time></trkpt><trkpt lat="44.4763488" lon="6.7744584"><ele>1441.0</ele><time>2026-05-03T13:04:16.106Z</time></trkpt><trkpt lat="44.4763557" lon="6.7746162"><ele>1441.0</ele><time>2026-05-03T13:04:17.105Z</time></trkpt><trkpt lat="44.4763866" lon="6.7747729"><ele>1441.0</ele><time>2026-05-03T13:04:18.106Z</time></trkpt><trkpt lat="44.4763997" lon="6.7749165"><ele>1441.0</ele><time>2026-05-03T13:04:19.106Z</time></trkpt><trkpt lat="44.4764212" lon="6.7750625"><ele>1441.0</ele><time>2026-05-03T13:04:20.106Z</time></trkpt><trkpt lat="44.4764508" lon="6.7752063"><ele>1441.0</ele><time>2026-05-03T13:04:21.106Z</time></trkpt><trkpt lat="44.4765014" lon="6.775328"><ele>1439.4</ele><time>2026-05-03T13:04:22.106Z</time></trkpt><trkpt lat="44.4765589" lon="6.7754498"><ele>1437.8</ele><time>2026-05-03T13:04:23.106Z</time></trkpt><trkpt lat="44.4766119" lon="6.7755635"><ele>1436.2</ele><time>2026-05-03T13:04:24.106Z</time></trkpt><trkpt lat="44.4766545" lon="6.775674"><ele>1434.6000000000001</ele><time>2026-05-03T13:04:25.106Z</time></trkpt><trkpt lat="44.4766684" lon="6.7757889"><ele>1433.0</ele><time>2026-05-03T13:04:26.106Z</time></trkpt><trkpt lat="44.4766592" lon="6.7759105"><ele>1432.8000000000002</ele><time>2026-05-03T13:04:27.106Z</time></trkpt><trkpt lat="44.4766251" lon="6.776021"><ele>1432.6</ele><time>2026-05-03T13:04:28.106Z</time></trkpt><trkpt lat="44.4765594" lon="6.7761259"><ele>1432.4</ele><time>2026-05-03T13:04:29.106Z</time></trkpt><trkpt lat="44.4765" lon="6.7762338"><ele>1432.1999999999998</ele><time>2026-05-03T13:04:30.106Z</time></trkpt><trkpt lat="44.4764565" lon="6.7763378"><ele>1432.0</ele><time>2026-05-03T13:04:31.106Z</time></trkpt><trkpt lat="44.4764571" lon="6.7764785"><ele>1432.0</ele><time>2026-05-03T13:04:32.106Z</time></trkpt><trkpt lat="44.4764507" lon="6.7766137"><ele>1432.0</ele><time>2026-05-03T13:04:33.106Z</time></trkpt><trkpt lat="44.4764745" lon="6.7767546"><ele>1432.0</ele><time>2026-05-03T13:04:34.106Z</time></trkpt><trkpt lat="44.4765177" lon="6.7768968"><ele>1432.0</ele><time>2026-05-03T13:04:35.106Z</time></trkpt><trkpt lat="44.4765529" lon="6.7770508"><ele>1432.0</ele><time>2026-05-03T13:04:36.106Z</time></trkpt><trkpt lat="44.4765894" lon="6.7772032"><ele>1433.0</ele><time>2026-05-03T13:04:37.106Z</time></trkpt><trkpt lat="44.4766115" lon="6.7773906"><ele>1434.0</ele><time>2026-05-03T13:04:38.106Z</time></trkpt><trkpt lat="44.4766194" lon="6.7775833"><ele>1435.0</ele><time>2026-05-03T13:04:39.105Z</time></trkpt><trkpt lat="44.4766207" lon="6.7777757"><ele>1436.0</ele><time>2026-05-03T13:04:40.106Z</time></trkpt><trkpt lat="44.4766155" lon="6.7779668"><ele>1437.0</ele><time>2026-05-03T13:04:41.105Z</time></trkpt><trkpt lat="44.4766056" lon="6.7781533"><ele>1438.0</ele><time>2026-05-03T13:04:42.106Z</time></trkpt><trkpt lat="44.4765971" lon="6.7783548"><ele>1439.0</ele><time>2026-05-03T13:04:43.105Z</time></trkpt><trkpt lat="44.4765984" lon="6.7785544"><ele>1440.0</ele><time>2026-05-03T13:04:44.106Z</time></trkpt><trkpt lat="44.4766183" lon="6.7787509"><ele>1441.75</ele><time>2026-05-03T13:04:45.106Z</time></trkpt><trkpt lat="44.4766414" lon="6.7789348"><ele>1443.5</ele><time>2026-05-03T13:04:46.106Z</time></trkpt><trkpt lat="44.4766427" lon="6.7791228"><ele>1445.25</ele><time>2026-05-03T13:04:47.105Z</time></trkpt><trkpt lat="44.4766377" lon="6.7793153"><ele>1447.0</ele><time>2026-05-03T13:04:48.106Z</time></trkpt><trkpt lat="44.4766175" lon="6.7794944"><ele>1447.25</ele><time>2026-05-03T13:04:49.106Z</time></trkpt><trkpt lat="44.4765846" lon="6.7796654"><ele>1447.5</ele><time>2026-05-03T13:04:50.105Z</time></trkpt><trkpt lat="44.4765451" lon="6.7798394"><ele>1447.75</ele><time>2026-05-03T13:04:51.106Z</time></trkpt><trkpt lat="44.4765295" lon="6.7800289"><ele>1448.0</ele><time>2026-05-03T13:04:52.106Z</time></trkpt><trkpt lat="44.4765318" lon="6.7802012"><ele>1449.75</ele><time>2026-05-03T13:04:53.105Z</time></trkpt><trkpt lat="44.4765306" lon="6.7803725"><ele>1451.5</ele><time>2026-05-03T13:04:54.106Z</time></trkpt><trkpt lat="44.4765178" lon="6.7805408"><ele>1453.25</ele><time>2026-05-03T13:04:55.106Z</time></trkpt><trkpt lat="44.4764869" lon="6.7807034"><ele>1455.0</ele><time>2026-05-03T13:04:56.106Z</time></trkpt><trkpt lat="44.4764623" lon="6.7808744"><ele>1455.0</ele><time>2026-05-03T13:04:57.106Z</time></trkpt><trkpt lat="44.4764502" lon="6.7810582"><ele>1455.0</ele><time>2026-05-03T13:04:58.106Z</time></trkpt><trkpt lat="44.4764567" lon="6.7812289"><ele>1455.0</ele><time>2026-05-03T13:04:59.106Z</time></trkpt><trkpt lat="44.4764858" lon="6.7814161"><ele>1455.0</ele><time>2026-05-03T13:05:00.105Z</time></trkpt><trkpt lat="44.4765019" lon="6.7815953"><ele>1455.0</ele><time>2026-05-03T13:05:01.106Z</time></trkpt><trkpt lat="44.4765102" lon="6.7817838"><ele>1455.0</ele><time>2026-05-03T13:05:02.106Z</time></trkpt><trkpt lat="44.4764915" lon="6.7819739"><ele>1455.0</ele><time>2026-05-03T13:05:03.105Z</time></trkpt><trkpt lat="44.4764651" lon="6.7821615"><ele>1455.0</ele><time>2026-05-03T13:05:04.106Z</time></trkpt><trkpt lat="44.4764513" lon="6.7823487"><ele>1453.5</ele><time>2026-05-03T13:05:05.106Z</time></trkpt><trkpt lat="44.4764403" lon="6.782552"><ele>1452.0</ele><time>2026-05-03T13:05:06.106Z</time></trkpt><trkpt lat="44.4764901" lon="6.7827477"><ele>1450.5</ele><time>2026-05-03T13:05:07.106Z</time></trkpt><trkpt lat="44.4765232" lon="6.7829556"><ele>1449.0</ele><time>2026-05-03T13:05:08.106Z</time></trkpt><trkpt lat="44.4765437" lon="6.7831901"><ele>1445.0</ele><time>2026-05-03T13:05:09.106Z</time></trkpt><trkpt lat="44.4765672" lon="6.7833976"><ele>1441.0</ele><time>2026-05-03T13:05:10.106Z</time></trkpt><trkpt lat="44.4765797" lon="6.7836218"><ele>1437.0</ele><time>2026-05-03T13:05:11.106Z</time></trkpt><trkpt lat="44.4765922" lon="6.7838391"><ele>1436.3333333333333</ele><time>2026-05-03T13:05:12.106Z</time></trkpt><trkpt lat="44.4766093" lon="6.7840627"><ele>1435.6666666666665</ele><time>2026-05-03T13:05:13.106Z</time></trkpt><trkpt lat="44.4766211" lon="6.7842758"><ele>1435.0</ele><time>2026-05-03T13:05:14.106Z</time></trkpt><trkpt lat="44.4766561" lon="6.7844893"><ele>1435.0</ele><time>2026-05-03T13:05:15.105Z</time></trkpt><trkpt lat="44.4766757" lon="6.784687"><ele>1435.0</ele><time>2026-05-03T13:05:16.106Z</time></trkpt><trkpt lat="44.4766763" lon="6.7848827"><ele>1435.0</ele><time>2026-05-03T13:05:17.106Z</time></trkpt><trkpt lat="44.4766693" lon="6.7850678"><ele>1435.0</ele><time>2026-05-03T13:05:18.106Z</time></trkpt><trkpt lat="44.4766791" lon="6.7852479"><ele>1437.75</ele><time>2026-05-03T13:05:19.105Z</time></trkpt><trkpt lat="44.4767234" lon="6.7854198"><ele>1440.5</ele><time>2026-05-03T13:05:20.106Z</time></trkpt><trkpt lat="44.4767936" lon="6.7855919"><ele>1443.25</ele><time>2026-05-03T13:05:21.106Z</time></trkpt><trkpt lat="44.4768764" lon="6.7857689"><ele>1446.0</ele><time>2026-05-03T13:05:22.105Z</time></trkpt><trkpt lat="44.4769653" lon="6.785964"><ele>1444.6666666666667</ele><time>2026-05-03T13:05:23.105Z</time></trkpt><trkpt lat="44.4770282" lon="6.7861518"><ele>1443.3333333333335</ele><time>2026-05-03T13:05:24.106Z</time></trkpt><trkpt lat="44.4770883" lon="6.7863485"><ele>1442.0</ele><time>2026-05-03T13:05:25.106Z</time></trkpt><trkpt lat="44.4771427" lon="6.7865448"><ele>1455.3333333333335</ele><time>2026-05-03T13:05:26.106Z</time></trkpt><trkpt lat="44.4772015" lon="6.7867479"><ele>1468.6666666666667</ele><time>2026-05-03T13:05:27.106Z</time></trkpt><trkpt lat="44.4772405" lon="6.7869511"><ele>1482.0</ele><time>2026-05-03T13:05:28.106Z</time></trkpt><trkpt lat="44.4772696" lon="6.7871713"><ele>1482.0</ele><time>2026-05-03T13:05:29.106Z</time></trkpt><trkpt lat="44.4772829" lon="6.7874017"><ele>1482.0</ele><time>2026-05-03T13:05:30.106Z</time></trkpt><trkpt lat="44.4772925" lon="6.7876189"><ele>1482.0</ele><time>2026-05-03T13:05:31.106Z</time></trkpt><trkpt lat="44.4773332" lon="6.7878318"><ele>1479.3333333333333</ele><time>2026-05-03T13:05:32.105Z</time></trkpt><trkpt lat="44.4774013" lon="6.7880514"><ele>1476.6666666666665</ele><time>2026-05-03T13:05:33.106Z</time></trkpt><trkpt lat="44.4774848" lon="6.7882778"><ele>1474.0</ele><time>2026-05-03T13:05:34.106Z</time></trkpt><trkpt lat="44.47757" lon="6.7885095"><ele>1471.0</ele><time>2026-05-03T13:05:35.106Z</time></trkpt><trkpt lat="44.4776525" lon="6.7887339"><ele>1468.0</ele><time>2026-05-03T13:05:36.106Z</time></trkpt><trkpt lat="44.477722" lon="6.7889688"><ele>1465.0</ele><time>2026-05-03T13:05:37.106Z</time></trkpt><trkpt lat="44.4777809" lon="6.7891874"><ele>1464.6666666666665</ele><time>2026-05-03T13:05:38.105Z</time></trkpt><trkpt lat="44.4778308" lon="6.7894224"><ele>1464.3333333333333</ele><time>2026-05-03T13:05:39.106Z</time></trkpt><trkpt lat="44.4778596" lon="6.7896555"><ele>1464.0</ele><time>2026-05-03T13:05:40.106Z</time></trkpt><trkpt lat="44.4778685" lon="6.7898943"><ele>1464.0</ele><time>2026-05-03T13:05:41.106Z</time></trkpt><trkpt lat="44.4778484" lon="6.7901095"><ele>1464.0</ele><time>2026-05-03T13:05:42.106Z</time></trkpt><trkpt lat="44.4778311" lon="6.790323"><ele>1464.0</ele><time>2026-05-03T13:05:43.106Z</time></trkpt><trkpt lat="44.4778262" lon="6.7905245"><ele>1466.0</ele><time>2026-05-03T13:05:44.106Z</time></trkpt><trkpt lat="44.4778488" lon="6.7907272"><ele>1468.0</ele><time>2026-05-03T13:05:45.106Z</time></trkpt><trkpt lat="44.4779085" lon="6.7909254"><ele>1470.0</ele><time>2026-05-03T13:05:46.106Z</time></trkpt><trkpt lat="44.4779944" lon="6.791116"><ele>1476.6666666666667</ele><time>2026-05-03T13:05:47.105Z</time></trkpt><trkpt lat="44.4780913" lon="6.7913094"><ele>1483.3333333333335</ele><time>2026-05-03T13:05:48.106Z</time></trkpt><trkpt lat="44.4781812" lon="6.7914953"><ele>1490.0</ele><time>2026-05-03T13:05:49.106Z</time></trkpt><trkpt lat="44.4782706" lon="6.7916623"><ele>1490.0</ele><time>2026-05-03T13:05:50.106Z</time></trkpt><trkpt lat="44.4783454" lon="6.7918214"><ele>1490.0</ele><time>2026-05-03T13:05:51.106Z</time></trkpt><trkpt lat="44.4783932" lon="6.7919721"><ele>1490.0</ele><time>2026-05-03T13:05:52.105Z</time></trkpt><trkpt lat="44.4784075" lon="6.7921178"><ele>1490.0</ele><time>2026-05-03T13:05:53.105Z</time></trkpt><trkpt lat="44.478383" lon="6.7922495"><ele>1489.0</ele><time>2026-05-03T13:05:54.106Z</time></trkpt><trkpt lat="44.4783231" lon="6.7923853"><ele>1488.0</ele><time>2026-05-03T13:05:55.106Z</time></trkpt><trkpt lat="44.4782246" lon="6.7925127"><ele>1487.0</ele><time>2026-05-03T13:05:56.106Z</time></trkpt><trkpt lat="44.4781111" lon="6.7926316"><ele>1486.0</ele><time>2026-05-03T13:05:57.106Z</time></trkpt><trkpt lat="44.4779907" lon="6.7927296"><ele>1488.3333333333333</ele><time>2026-05-03T13:05:58.105Z</time></trkpt><trkpt lat="44.4778384" lon="6.7928214"><ele>1490.6666666666667</ele><time>2026-05-03T13:05:59.106Z</time></trkpt><trkpt lat="44.4776913" lon="6.7929059"><ele>1493.0</ele><time>2026-05-03T13:06:00.106Z</time></trkpt><trkpt lat="44.4775565" lon="6.7929893"><ele>1493.0</ele><time>2026-05-03T13:06:01.106Z</time></trkpt><trkpt lat="44.4774112" lon="6.7930771"><ele>1493.0</ele><time>2026-05-03T13:06:02.106Z</time></trkpt><trkpt lat="44.4772739" lon="6.7931817"><ele>1493.0</ele><time>2026-05-03T13:06:03.106Z</time></trkpt><trkpt lat="44.4771262" lon="6.7933177"><ele>1494.0</ele><time>2026-05-03T13:06:04.106Z</time></trkpt><trkpt lat="44.4769707" lon="6.7934627"><ele>1495.0</ele><time>2026-05-03T13:06:05.105Z</time></trkpt><trkpt lat="44.476831" lon="6.7936098"><ele>1496.0</ele><time>2026-05-03T13:06:06.106Z</time></trkpt><trkpt lat="44.4766883" lon="6.7937537"><ele>1496.0</ele><time>2026-05-03T13:06:07.105Z</time></trkpt><trkpt lat="44.4765568" lon="6.7939229"><ele>1496.0</ele><time>2026-05-03T13:06:08.106Z</time></trkpt><trkpt lat="44.4764356" lon="6.7941003"><ele>1496.0</ele><time>2026-05-03T13:06:09.106Z</time></trkpt><trkpt lat="44.4763366" lon="6.7943114"><ele>1491.0</ele><time>2026-05-03T13:06:10.106Z</time></trkpt><trkpt lat="44.4762557" lon="6.7945474"><ele>1486.0</ele><time>2026-05-03T13:06:11.105Z</time></trkpt><trkpt lat="44.4761855" lon="6.7947823"><ele>1481.0</ele><time>2026-05-03T13:06:12.106Z</time></trkpt><trkpt lat="44.476129" lon="6.7950246"><ele>1485.6666666666667</ele><time>2026-05-03T13:06:13.105Z</time></trkpt><trkpt lat="44.4760796" lon="6.7952695"><ele>1490.3333333333333</ele><time>2026-05-03T13:06:14.106Z</time></trkpt><trkpt lat="44.4760322" lon="6.7954847"><ele>1495.0</ele><time>2026-05-03T13:06:15.106Z</time></trkpt><trkpt lat="44.4759778" lon="6.7956784"><ele>1495.0</ele><time>2026-05-03T13:06:16.105Z</time></trkpt><trkpt lat="44.4759306" lon="6.7958403"><ele>1495.0</ele><time>2026-05-03T13:06:17.105Z</time></trkpt><trkpt lat="44.4758954" lon="6.7959733"><ele>1495.0</ele><time>2026-05-03T13:06:18.106Z</time></trkpt><trkpt lat="44.4758778" lon="6.7960851"><ele>1495.0</ele><time>2026-05-03T13:06:19.106Z</time></trkpt><trkpt lat="44.475881" lon="6.796176"><ele>1495.0</ele><time>2026-05-03T13:06:20.105Z</time></trkpt><trkpt lat="44.4759795" lon="6.7962353"><ele>1495.0</ele><time>2026-05-03T13:06:22.105Z</time></trkpt><trkpt lat="44.4760551" lon="6.7961966"><ele>1495.0</ele><time>2026-05-03T13:06:23.106Z</time></trkpt><trkpt lat="44.476106" lon="6.7961091"><ele>1495.0</ele><time>2026-05-03T13:06:24.106Z</time></trkpt><trkpt lat="44.4761521" lon="6.7959828"><ele>1495.0</ele><time>2026-05-03T13:06:25.106Z</time></trkpt><trkpt lat="44.4762065" lon="6.7958556"><ele>1495.0</ele><time>2026-05-03T13:06:26.106Z</time></trkpt><trkpt lat="44.4762954" lon="6.7957181"><ele>1500.25</ele><time>2026-05-03T13:06:27.106Z</time></trkpt><trkpt lat="44.4763741" lon="6.7955959"><ele>1505.5</ele><time>2026-05-03T13:06:28.106Z</time></trkpt><trkpt lat="44.4764432" lon="6.7954731"><ele>1510.75</ele><time>2026-05-03T13:06:29.106Z</time></trkpt><trkpt lat="44.47651" lon="6.7953352"><ele>1516.0</ele><time>2026-05-03T13:06:30.105Z</time></trkpt><trkpt lat="44.4765545" lon="6.7951981"><ele>1514.6</ele><time>2026-05-03T13:06:31.106Z</time></trkpt><trkpt lat="44.4765882" lon="6.7950794"><ele>1513.1999999999998</ele><time>2026-05-03T13:06:32.106Z</time></trkpt><trkpt lat="44.4766243" lon="6.794983"><ele>1511.8000000000002</ele><time>2026-05-03T13:06:33.106Z</time></trkpt><trkpt lat="44.4766688" lon="6.7949203"><ele>1510.4</ele><time>2026-05-03T13:06:34.106Z</time></trkpt><trkpt lat="44.4767885" lon="6.794952"><ele>1509.0</ele><time>2026-05-03T13:06:36.106Z</time></trkpt><trkpt lat="44.476779" lon="6.7951144"><ele>1510.4</ele><time>2026-05-03T13:06:38.106Z</time></trkpt><trkpt lat="44.4767346" lon="6.7952249"><ele>1511.8000000000002</ele><time>2026-05-03T13:06:39.106Z</time></trkpt><trkpt lat="44.476695" lon="6.795369"><ele>1513.1999999999998</ele><time>2026-05-03T13:06:40.106Z</time></trkpt><trkpt lat="44.4766525" lon="6.7955225"><ele>1514.6</ele><time>2026-05-03T13:06:41.105Z</time></trkpt><trkpt lat="44.4766554" lon="6.7956651"><ele>1516.0</ele><time>2026-05-03T13:06:42.105Z</time></trkpt><trkpt lat="44.4766263" lon="6.7958098"><ele>1517.5</ele><time>2026-05-03T13:06:43.106Z</time></trkpt><trkpt lat="44.4766344" lon="6.7960386"><ele>1519.0</ele><time>2026-05-03T13:06:44.105Z</time></trkpt><trkpt lat="44.4766287" lon="6.796231"><ele>1520.5</ele><time>2026-05-03T13:06:45.106Z</time></trkpt><trkpt lat="44.4766202" lon="6.7964115"><ele>1522.0</ele><time>2026-05-03T13:06:46.106Z</time></trkpt><trkpt lat="44.4766072" lon="6.796581"><ele>1522.0</ele><time>2026-05-03T13:06:47.106Z</time></trkpt><trkpt lat="44.4765906" lon="6.7967456"><ele>1522.0</ele><time>2026-05-03T13:06:48.106Z</time></trkpt><trkpt lat="44.4764895" lon="6.7968964"><ele>1522.0</ele><time>2026-05-03T13:06:49.106Z</time></trkpt><trkpt lat="44.4764081" lon="6.797041"><ele>1522.0</ele><time>2026-05-03T13:06:50.106Z</time></trkpt><trkpt lat="44.4763314" lon="6.7971667"><ele>1519.25</ele><time>2026-05-03T13:06:51.106Z</time></trkpt><trkpt lat="44.476262" lon="6.7973119"><ele>1516.5</ele><time>2026-05-03T13:06:52.106Z</time></trkpt><trkpt lat="44.4761655" lon="6.7973921"><ele>1513.75</ele><time>2026-05-03T13:06:53.106Z</time></trkpt><trkpt lat="44.4760936" lon="6.7975153"><ele>1511.0</ele><time>2026-05-03T13:06:54.106Z</time></trkpt><trkpt lat="44.4760377" lon="6.7976472"><ele>1513.1999999999998</ele><time>2026-05-03T13:06:55.106Z</time></trkpt><trkpt lat="44.4759927" lon="6.7977919"><ele>1515.3999999999999</ele><time>2026-05-03T13:06:56.106Z</time></trkpt><trkpt lat="44.4759679" lon="6.7979204"><ele>1517.6</ele><time>2026-05-03T13:06:57.105Z</time></trkpt><trkpt lat="44.4759226" lon="6.7980743"><ele>1519.8</ele><time>2026-05-03T13:06:58.106Z</time></trkpt><trkpt lat="44.4758913" lon="6.7982372"><ele>1522.0</ele><time>2026-05-03T13:06:59.106Z</time></trkpt><trkpt lat="44.4758671" lon="6.798401"><ele>1524.25</ele><time>2026-05-03T13:07:00.105Z</time></trkpt><trkpt lat="44.4758448" lon="6.7985646"><ele>1526.5</ele><time>2026-05-03T13:07:01.106Z</time></trkpt><trkpt lat="44.4758271" lon="6.7987212"><ele>1528.75</ele><time>2026-05-03T13:07:02.106Z</time></trkpt><trkpt lat="44.4757686" lon="6.7988773"><ele>1531.0</ele><time>2026-05-03T13:07:03.105Z</time></trkpt><trkpt lat="44.4757029" lon="6.7990326"><ele>1531.0</ele><time>2026-05-03T13:07:04.106Z</time></trkpt><trkpt lat="44.4756275" lon="6.799166"><ele>1531.0</ele><time>2026-05-03T13:07:05.106Z</time></trkpt><trkpt lat="44.4755498" lon="6.7992977"><ele>1531.0</ele><time>2026-05-03T13:07:06.106Z</time></trkpt><trkpt lat="44.475474" lon="6.7994314"><ele>1531.0</ele><time>2026-05-03T13:07:07.106Z</time></trkpt><trkpt lat="44.4753999" lon="6.79957"><ele>1532.25</ele><time>2026-05-03T13:07:08.105Z</time></trkpt><trkpt lat="44.4753353" lon="6.7997126"><ele>1533.5</ele><time>2026-05-03T13:07:09.106Z</time></trkpt><trkpt lat="44.4752813" lon="6.7998796"><ele>1534.75</ele><time>2026-05-03T13:07:10.106Z</time></trkpt><trkpt lat="44.4752175" lon="6.8000517"><ele>1536.0</ele><time>2026-05-03T13:07:11.106Z</time></trkpt><trkpt lat="44.4751526" lon="6.8002409"><ele>1536.0</ele><time>2026-05-03T13:07:12.106Z</time></trkpt><trkpt lat="44.4750812" lon="6.8004267"><ele>1536.0</ele><time>2026-05-03T13:07:13.106Z</time></trkpt><trkpt lat="44.4750172" lon="6.8005996"><ele>1536.0</ele><time>2026-05-03T13:07:14.106Z</time></trkpt><trkpt lat="44.474898" lon="6.8007714"><ele>1536.0</ele><time>2026-05-03T13:07:15.106Z</time></trkpt><trkpt lat="44.4747683" lon="6.8009416"><ele>1536.0</ele><time>2026-05-03T13:07:16.106Z</time></trkpt><trkpt lat="44.474642" lon="6.8011222"><ele>1536.0</ele><time>2026-05-03T13:07:17.106Z</time></trkpt><trkpt lat="44.4745174" lon="6.8012848"><ele>1536.3333333333335</ele><time>2026-05-03T13:07:18.105Z</time></trkpt><trkpt lat="44.4743855" lon="6.8014493"><ele>1536.6666666666667</ele><time>2026-05-03T13:07:19.106Z</time></trkpt><trkpt lat="44.4742473" lon="6.8016046"><ele>1537.0</ele><time>2026-05-03T13:07:20.112Z</time></trkpt><trkpt lat="44.4741221" lon="6.801777"><ele>1540.6666666666667</ele><time>2026-05-03T13:07:21.104Z</time></trkpt><trkpt lat="44.4740068" lon="6.801948"><ele>1544.3333333333335</ele><time>2026-05-03T13:07:22.104Z</time></trkpt><trkpt lat="44.4738939" lon="6.8021034"><ele>1548.0</ele><time>2026-05-03T13:07:23.106Z</time></trkpt><trkpt lat="44.4737617" lon="6.8022601"><ele>1548.0</ele><time>2026-05-03T13:07:24.104Z</time></trkpt><trkpt lat="44.4736495" lon="6.8024147"><ele>1548.0</ele><time>2026-05-03T13:07:25.105Z</time></trkpt><trkpt lat="44.4735449" lon="6.8025715"><ele>1548.0</ele><time>2026-05-03T13:07:26.106Z</time></trkpt><trkpt lat="44.4734491" lon="6.8027442"><ele>1551.6666666666665</ele><time>2026-05-03T13:07:27.106Z</time></trkpt><trkpt lat="44.4733616" lon="6.8029196"><ele>1555.3333333333333</ele><time>2026-05-03T13:07:28.106Z</time></trkpt><trkpt lat="44.4732737" lon="6.8031105"><ele>1559.0</ele><time>2026-05-03T13:07:29.106Z</time></trkpt><trkpt lat="44.4731922" lon="6.8033111"><ele>1560.3333333333333</ele><time>2026-05-03T13:07:30.105Z</time></trkpt><trkpt lat="44.4730942" lon="6.8035204"><ele>1561.6666666666665</ele><time>2026-05-03T13:07:31.106Z</time></trkpt><trkpt lat="44.4729874" lon="6.8037302"><ele>1563.0</ele><time>2026-05-03T13:07:32.106Z</time></trkpt><trkpt lat="44.4728736" lon="6.8039412"><ele>1561.3333333333335</ele><time>2026-05-03T13:07:33.106Z</time></trkpt><trkpt lat="44.4727582" lon="6.8041523"><ele>1559.6666666666667</ele><time>2026-05-03T13:07:34.106Z</time></trkpt><trkpt lat="44.4726261" lon="6.8043651"><ele>1558.0</ele><time>2026-05-03T13:07:35.106Z</time></trkpt><trkpt lat="44.4724934" lon="6.8045769"><ele>1558.0</ele><time>2026-05-03T13:07:36.106Z</time></trkpt><trkpt lat="44.4723597" lon="6.8047898"><ele>1558.0</ele><time>2026-05-03T13:07:37.105Z</time></trkpt><trkpt lat="44.4722221" lon="6.8050031"><ele>1558.0</ele><time>2026-05-03T13:07:38.106Z</time></trkpt><trkpt lat="44.4720904" lon="6.8052204"><ele>1555.3333333333335</ele><time>2026-05-03T13:07:39.106Z</time></trkpt><trkpt lat="44.4719519" lon="6.8054422"><ele>1552.6666666666665</ele><time>2026-05-03T13:07:40.106Z</time></trkpt><trkpt lat="44.4718137" lon="6.8056607"><ele>1550.0</ele><time>2026-05-03T13:07:41.106Z</time></trkpt><trkpt lat="44.4716738" lon="6.8058806"><ele>1553.0</ele><time>2026-05-03T13:07:42.106Z</time></trkpt><trkpt lat="44.4715373" lon="6.8061016"><ele>1556.0</ele><time>2026-05-03T13:07:43.106Z</time></trkpt><trkpt lat="44.4714047" lon="6.8063148"><ele>1559.0</ele><time>2026-05-03T13:07:44.106Z</time></trkpt><trkpt lat="44.4712745" lon="6.8065248"><ele>1556.3333333333333</ele><time>2026-05-03T13:07:45.106Z</time></trkpt><trkpt lat="44.471161" lon="6.8067173"><ele>1553.6666666666665</ele><time>2026-05-03T13:07:46.106Z</time></trkpt><trkpt lat="44.4710454" lon="6.8069159"><ele>1551.0</ele><time>2026-05-03T13:07:47.106Z</time></trkpt><trkpt lat="44.4709562" lon="6.8071351"><ele>1551.0</ele><time>2026-05-03T13:07:48.106Z</time></trkpt><trkpt lat="44.4708774" lon="6.8073793"><ele>1551.0</ele><time>2026-05-03T13:07:49.106Z</time></trkpt><trkpt lat="44.4708066" lon="6.8076231"><ele>1551.0</ele><time>2026-05-03T13:07:50.106Z</time></trkpt><trkpt lat="44.4707641" lon="6.8079053"><ele>1552.3333333333335</ele><time>2026-05-03T13:07:51.106Z</time></trkpt><trkpt lat="44.4707232" lon="6.808185"><ele>1553.6666666666667</ele><time>2026-05-03T13:07:52.106Z</time></trkpt><trkpt lat="44.4706857" lon="6.8084636"><ele>1555.0</ele><time>2026-05-03T13:07:53.105Z</time></trkpt><trkpt lat="44.4706503" lon="6.8087475"><ele>1554.3333333333335</ele><time>2026-05-03T13:07:54.106Z</time></trkpt><trkpt lat="44.4706163" lon="6.809036"><ele>1553.6666666666665</ele><time>2026-05-03T13:07:55.105Z</time></trkpt><trkpt lat="44.470586" lon="6.8093253"><ele>1553.0</ele><time>2026-05-03T13:07:56.106Z</time></trkpt><trkpt lat="44.4705399" lon="6.8096042"><ele>1553.0</ele><time>2026-05-03T13:07:57.106Z</time></trkpt><trkpt lat="44.4705024" lon="6.809871"><ele>1553.0</ele><time>2026-05-03T13:07:58.106Z</time></trkpt><trkpt lat="44.4704648" lon="6.8101311"><ele>1553.0</ele><time>2026-05-03T13:07:59.106Z</time></trkpt><trkpt lat="44.4704179" lon="6.8103875"><ele>1552.0</ele><time>2026-05-03T13:08:00.105Z</time></trkpt><trkpt lat="44.4703581" lon="6.8106412"><ele>1551.0</ele><time>2026-05-03T13:08:01.106Z</time></trkpt><trkpt lat="44.4703004" lon="6.8108889"><ele>1550.0</ele><time>2026-05-03T13:08:02.106Z</time></trkpt><trkpt lat="44.4701979" lon="6.8111219"><ele>1552.0</ele><time>2026-05-03T13:08:03.106Z</time></trkpt><trkpt lat="44.470082" lon="6.8113353"><ele>1554.0</ele><time>2026-05-03T13:08:04.106Z</time></trkpt><trkpt lat="44.4699638" lon="6.811544"><ele>1556.0</ele><time>2026-05-03T13:08:05.105Z</time></trkpt><trkpt lat="44.4698436" lon="6.811751"><ele>1555.3333333333333</ele><time>2026-05-03T13:08:06.106Z</time></trkpt><trkpt lat="44.4697189" lon="6.8119395"><ele>1554.6666666666665</ele><time>2026-05-03T13:08:07.106Z</time></trkpt><trkpt lat="44.4696041" lon="6.8121106"><ele>1554.0</ele><time>2026-05-03T13:08:08.105Z</time></trkpt><trkpt lat="44.469497" lon="6.81228"><ele>1554.0</ele><time>2026-05-03T13:08:09.106Z</time></trkpt><trkpt lat="44.4694062" lon="6.8124349"><ele>1554.0</ele><time>2026-05-03T13:08:10.106Z</time></trkpt><trkpt lat="44.4693174" lon="6.8125911"><ele>1554.0</ele><time>2026-05-03T13:08:11.106Z</time></trkpt><trkpt lat="44.4692494" lon="6.8127676"><ele>1554.0</ele><time>2026-05-03T13:08:12.106Z</time></trkpt><trkpt lat="44.4692127" lon="6.8129701"><ele>1555.6666666666665</ele><time>2026-05-03T13:08:13.106Z</time></trkpt><trkpt lat="44.4691977" lon="6.8131924"><ele>1557.3333333333333</ele><time>2026-05-03T13:08:14.106Z</time></trkpt><trkpt lat="44.4692016" lon="6.8134278"><ele>1559.0</ele><time>2026-05-03T13:08:15.106Z</time></trkpt><trkpt lat="44.4692182" lon="6.8136771"><ele>1559.3333333333333</ele><time>2026-05-03T13:08:16.106Z</time></trkpt><trkpt lat="44.4692378" lon="6.8139278"><ele>1559.6666666666665</ele><time>2026-05-03T13:08:17.106Z</time></trkpt><trkpt lat="44.4692782" lon="6.8141698"><ele>1560.0</ele><time>2026-05-03T13:08:18.106Z</time></trkpt><trkpt lat="44.4693327" lon="6.8143963"><ele>1560.3333333333335</ele><time>2026-05-03T13:08:19.106Z</time></trkpt><trkpt lat="44.4693959" lon="6.8146194"><ele>1560.6666666666667</ele><time>2026-05-03T13:08:20.106Z</time></trkpt><trkpt lat="44.4694399" lon="6.8148232"><ele>1561.0</ele><time>2026-05-03T13:08:21.105Z</time></trkpt><trkpt lat="44.4694504" lon="6.8150322"><ele>1562.75</ele><time>2026-05-03T13:08:22.106Z</time></trkpt><trkpt lat="44.4694237" lon="6.8152246"><ele>1564.5</ele><time>2026-05-03T13:08:23.106Z</time></trkpt><trkpt lat="44.4693786" lon="6.8154158"><ele>1566.25</ele><time>2026-05-03T13:08:24.106Z</time></trkpt><trkpt lat="44.4692689" lon="6.8155808"><ele>1568.0</ele><time>2026-05-03T13:08:25.106Z</time></trkpt><trkpt lat="44.4691527" lon="6.8157579"><ele>1568.0</ele><time>2026-05-03T13:08:26.106Z</time></trkpt><trkpt lat="44.4690304" lon="6.8159459"><ele>1568.0</ele><time>2026-05-03T13:08:27.106Z</time></trkpt><trkpt lat="44.4689026" lon="6.8161265"><ele>1568.0</ele><time>2026-05-03T13:08:28.106Z</time></trkpt><trkpt lat="44.4687681" lon="6.8162911"><ele>1571.3333333333333</ele><time>2026-05-03T13:08:29.106Z</time></trkpt><trkpt lat="44.4686256" lon="6.8164353"><ele>1574.6666666666665</ele><time>2026-05-03T13:08:30.106Z</time></trkpt><trkpt lat="44.4684554" lon="6.8165503"><ele>1578.0</ele><time>2026-05-03T13:08:31.106Z</time></trkpt><trkpt lat="44.4682819" lon="6.8166419"><ele>1578.0</ele><time>2026-05-03T13:08:32.106Z</time></trkpt><trkpt lat="44.4681003" lon="6.8167135"><ele>1578.0</ele><time>2026-05-03T13:08:33.106Z</time></trkpt><trkpt lat="44.4679199" lon="6.8168122"><ele>1578.0</ele><time>2026-05-03T13:08:34.106Z</time></trkpt><trkpt lat="44.4677451" lon="6.8169002"><ele>1581.0</ele><time>2026-05-03T13:08:35.106Z</time></trkpt><trkpt lat="44.4675621" lon="6.8169876"><ele>1584.0</ele><time>2026-05-03T13:08:36.105Z</time></trkpt><trkpt lat="44.4673885" lon="6.8170535"><ele>1587.0</ele><time>2026-05-03T13:08:37.106Z</time></trkpt><trkpt lat="44.4672349" lon="6.8171726"><ele>1581.6666666666665</ele><time>2026-05-03T13:08:38.106Z</time></trkpt><trkpt lat="44.4670901" lon="6.8172898"><ele>1576.3333333333333</ele><time>2026-05-03T13:08:39.106Z</time></trkpt><trkpt lat="44.4669502" lon="6.8174065"><ele>1571.0</ele><time>2026-05-03T13:08:40.106Z</time></trkpt><trkpt lat="44.4668083" lon="6.8175334"><ele>1583.6666666666665</ele><time>2026-05-03T13:08:41.106Z</time></trkpt><trkpt lat="44.4666604" lon="6.8176678"><ele>1596.3333333333335</ele><time>2026-05-03T13:08:42.105Z</time></trkpt><trkpt lat="44.466513" lon="6.8178065"><ele>1609.0</ele><time>2026-05-03T13:08:43.106Z</time></trkpt><trkpt lat="44.4663605" lon="6.817938"><ele>1596.6666666666667</ele><time>2026-05-03T13:08:44.106Z</time></trkpt><trkpt lat="44.4662153" lon="6.8180794"><ele>1584.3333333333335</ele><time>2026-05-03T13:08:45.106Z</time></trkpt><trkpt lat="44.4660779" lon="6.8182079"><ele>1572.0</ele><time>2026-05-03T13:08:46.106Z</time></trkpt><trkpt lat="44.4659527" lon="6.8183232"><ele>1572.0</ele><time>2026-05-03T13:08:47.106Z</time></trkpt><trkpt lat="44.4658419" lon="6.818432"><ele>1572.0</ele><time>2026-05-03T13:08:48.106Z</time></trkpt><trkpt lat="44.4657536" lon="6.8185518"><ele>1572.0</ele><time>2026-05-03T13:08:49.105Z</time></trkpt><trkpt lat="44.4656648" lon="6.8186851"><ele>1572.0</ele><time>2026-05-03T13:08:50.106Z</time></trkpt><trkpt lat="44.4656373" lon="6.8188854"><ele>1574.5</ele><time>2026-05-03T13:08:51.106Z</time></trkpt><trkpt lat="44.4656077" lon="6.8190996"><ele>1577.0</ele><time>2026-05-03T13:08:52.105Z</time></trkpt><trkpt lat="44.4655688" lon="6.8192993"><ele>1579.5</ele><time>2026-05-03T13:08:53.105Z</time></trkpt><trkpt lat="44.4655127" lon="6.8194805"><ele>1582.0</ele><time>2026-05-03T13:08:54.106Z</time></trkpt><trkpt lat="44.4654196" lon="6.8196509"><ele>1582.0</ele><time>2026-05-03T13:08:55.106Z</time></trkpt><trkpt lat="44.4653051" lon="6.8198242"><ele>1582.0</ele><time>2026-05-03T13:08:56.106Z</time></trkpt><trkpt lat="44.4651993" lon="6.8199945"><ele>1582.0</ele><time>2026-05-03T13:08:57.106Z</time></trkpt><trkpt lat="44.4651013" lon="6.820169"><ele>1589.0</ele><time>2026-05-03T13:08:58.106Z</time></trkpt><trkpt lat="44.4650048" lon="6.8203422"><ele>1596.0</ele><time>2026-05-03T13:08:59.105Z</time></trkpt><trkpt lat="44.4649352" lon="6.8205707"><ele>1603.0</ele><time>2026-05-03T13:09:00.106Z</time></trkpt><trkpt lat="44.4648939" lon="6.8208076"><ele>1610.0</ele><time>2026-05-03T13:09:01.106Z</time></trkpt><trkpt lat="44.4648443" lon="6.8210413"><ele>1617.0</ele><time>2026-05-03T13:09:02.105Z</time></trkpt><trkpt lat="44.4647599" lon="6.8212663"><ele>1624.0</ele><time>2026-05-03T13:09:03.106Z</time></trkpt><trkpt lat="44.464671" lon="6.8214901"><ele>1620.0</ele><time>2026-05-03T13:09:04.105Z</time></trkpt><trkpt lat="44.4645747" lon="6.8217119"><ele>1616.0</ele><time>2026-05-03T13:09:05.106Z</time></trkpt><trkpt lat="44.4644815" lon="6.8219344"><ele>1612.0</ele><time>2026-05-03T13:09:06.106Z</time></trkpt><trkpt lat="44.4643806" lon="6.8221459"><ele>1612.0</ele><time>2026-05-03T13:09:07.106Z</time></trkpt><trkpt lat="44.4642839" lon="6.8223495"><ele>1612.0</ele><time>2026-05-03T13:09:08.105Z</time></trkpt><trkpt lat="44.4641333" lon="6.8224918"><ele>1612.0</ele><time>2026-05-03T13:09:09.106Z</time></trkpt><trkpt lat="44.4639735" lon="6.8226067"><ele>1615.6666666666667</ele><time>2026-05-03T13:09:10.105Z</time></trkpt><trkpt lat="44.4638003" lon="6.8226809"><ele>1619.3333333333335</ele><time>2026-05-03T13:09:11.106Z</time></trkpt><trkpt lat="44.4636273" lon="6.8227543"><ele>1623.0</ele><time>2026-05-03T13:09:12.106Z</time></trkpt><trkpt lat="44.4634577" lon="6.8228458"><ele>1623.0</ele><time>2026-05-03T13:09:13.106Z</time></trkpt><trkpt lat="44.4632878" lon="6.8229571"><ele>1623.0</ele><time>2026-05-03T13:09:14.106Z</time></trkpt><trkpt lat="44.4631364" lon="6.8230905"><ele>1623.0</ele><time>2026-05-03T13:09:15.106Z</time></trkpt><trkpt lat="44.4629682" lon="6.8232165"><ele>1623.6666666666665</ele><time>2026-05-03T13:09:16.106Z</time></trkpt><trkpt lat="44.4628063" lon="6.8233418"><ele>1624.3333333333333</ele><time>2026-05-03T13:09:17.106Z</time></trkpt><trkpt lat="44.4626441" lon="6.8234628"><ele>1625.0</ele><time>2026-05-03T13:09:18.106Z</time></trkpt><trkpt lat="44.462496" lon="6.8236001"><ele>1625.0</ele><time>2026-05-03T13:09:19.106Z</time></trkpt><trkpt lat="44.4623348" lon="6.8237092"><ele>1625.0</ele><time>2026-05-03T13:09:20.105Z</time></trkpt><trkpt lat="44.4621837" lon="6.8238288"><ele>1625.0</ele><time>2026-05-03T13:09:21.106Z</time></trkpt><trkpt lat="44.4620319" lon="6.8239545"><ele>1620.6666666666665</ele><time>2026-05-03T13:09:22.106Z</time></trkpt><trkpt lat="44.461881" lon="6.8240719"><ele>1616.3333333333335</ele><time>2026-05-03T13:09:23.106Z</time></trkpt><trkpt lat="44.4617258" lon="6.8241734"><ele>1612.0</ele><time>2026-05-03T13:09:24.106Z</time></trkpt><trkpt lat="44.461564" lon="6.8242663"><ele>1613.0</ele><time>2026-05-03T13:09:25.106Z</time></trkpt><trkpt lat="44.4614002" lon="6.8243429"><ele>1614.0</ele><time>2026-05-03T13:09:26.106Z</time></trkpt><trkpt lat="44.4612361" lon="6.824418"><ele>1615.0</ele><time>2026-05-03T13:09:27.106Z</time></trkpt><trkpt lat="44.4610781" lon="6.8245005"><ele>1615.0</ele><time>2026-05-03T13:09:28.106Z</time></trkpt><trkpt lat="44.4609297" lon="6.8246044"><ele>1615.0</ele><time>2026-05-03T13:09:29.105Z</time></trkpt><trkpt lat="44.4607862" lon="6.8247263"><ele>1615.0</ele><time>2026-05-03T13:09:30.106Z</time></trkpt><trkpt lat="44.4606575" lon="6.8248761"><ele>1615.0</ele><time>2026-05-03T13:09:31.106Z</time></trkpt><trkpt lat="44.4605413" lon="6.8250201"><ele>1615.0</ele><time>2026-05-03T13:09:32.105Z</time></trkpt><trkpt lat="44.4604517" lon="6.8252385"><ele>1615.0</ele><time>2026-05-03T13:09:33.106Z</time></trkpt><trkpt lat="44.460379" lon="6.8254715"><ele>1613.3333333333335</ele><time>2026-05-03T13:09:34.106Z</time></trkpt><trkpt lat="44.4603108" lon="6.8257129"><ele>1611.6666666666665</ele><time>2026-05-03T13:09:35.106Z</time></trkpt><trkpt lat="44.4602487" lon="6.8259588"><ele>1610.0</ele><time>2026-05-03T13:09:36.106Z</time></trkpt><trkpt lat="44.4601964" lon="6.8262102"><ele>1610.0</ele><time>2026-05-03T13:09:37.106Z</time></trkpt><trkpt lat="44.4601491" lon="6.8264738"><ele>1610.0</ele><time>2026-05-03T13:09:38.106Z</time></trkpt><trkpt lat="44.4601432" lon="6.8267343"><ele>1610.0</ele><time>2026-05-03T13:09:39.106Z</time></trkpt><trkpt lat="44.4601409" lon="6.8269792"><ele>1613.0</ele><time>2026-05-03T13:09:40.106Z</time></trkpt><trkpt lat="44.4600976" lon="6.8272242"><ele>1616.0</ele><time>2026-05-03T13:09:41.106Z</time></trkpt><trkpt lat="44.460056" lon="6.8274471"><ele>1619.0</ele><time>2026-05-03T13:09:42.105Z</time></trkpt><trkpt lat="44.4599552" lon="6.8276804"><ele>1623.3333333333333</ele><time>2026-05-03T13:09:43.106Z</time></trkpt><trkpt lat="44.4598547" lon="6.8279061"><ele>1627.6666666666665</ele><time>2026-05-03T13:09:44.106Z</time></trkpt><trkpt lat="44.4597544" lon="6.8281299"><ele>1632.0</ele><time>2026-05-03T13:09:45.106Z</time></trkpt><trkpt lat="44.4596388" lon="6.8283494"><ele>1626.6666666666665</ele><time>2026-05-03T13:09:46.106Z</time></trkpt><trkpt lat="44.4595217" lon="6.8285498"><ele>1621.3333333333333</ele><time>2026-05-03T13:09:47.106Z</time></trkpt><trkpt lat="44.4594089" lon="6.8287633"><ele>1616.0</ele><time>2026-05-03T13:09:48.106Z</time></trkpt><trkpt lat="44.4592967" lon="6.828976"><ele>1616.0</ele><time>2026-05-03T13:09:49.105Z</time></trkpt><trkpt lat="44.4591829" lon="6.8291922"><ele>1616.0</ele><time>2026-05-03T13:09:50.106Z</time></trkpt><trkpt lat="44.4590755" lon="6.8294084"><ele>1616.0</ele><time>2026-05-03T13:09:51.106Z</time></trkpt><trkpt lat="44.458981" lon="6.8296416"><ele>1619.3333333333333</ele><time>2026-05-03T13:09:52.106Z</time></trkpt><trkpt lat="44.4588887" lon="6.8298776"><ele>1622.6666666666665</ele><time>2026-05-03T13:09:53.106Z</time></trkpt><trkpt lat="44.4587862" lon="6.8300918"><ele>1626.0</ele><time>2026-05-03T13:09:54.105Z</time></trkpt><trkpt lat="44.4586894" lon="6.8303066"><ele>1626.0</ele><time>2026-05-03T13:09:55.106Z</time></trkpt><trkpt lat="44.4586016" lon="6.8305241"><ele>1626.0</ele><time>2026-05-03T13:09:56.106Z</time></trkpt><trkpt lat="44.4585366" lon="6.8307455"><ele>1626.0</ele><time>2026-05-03T13:09:57.105Z</time></trkpt><trkpt lat="44.4584857" lon="6.8309712"><ele>1630.3333333333335</ele><time>2026-05-03T13:09:58.105Z</time></trkpt><trkpt lat="44.4584357" lon="6.8311847"><ele>1634.6666666666667</ele><time>2026-05-03T13:09:59.106Z</time></trkpt><trkpt lat="44.4583629" lon="6.8313991"><ele>1639.0</ele><time>2026-05-03T13:10:00.106Z</time></trkpt><trkpt lat="44.4582705" lon="6.8316058"><ele>1642.0</ele><time>2026-05-03T13:10:01.105Z</time></trkpt><trkpt lat="44.458173" lon="6.8318091"><ele>1645.0</ele><time>2026-05-03T13:10:02.106Z</time></trkpt><trkpt lat="44.4580676" lon="6.8319476"><ele>1648.0</ele><time>2026-05-03T13:10:03.106Z</time></trkpt><trkpt lat="44.4579507" lon="6.832079"><ele>1648.0</ele><time>2026-05-03T13:10:04.105Z</time></trkpt><trkpt lat="44.4578076" lon="6.832168"><ele>1648.0</ele><time>2026-05-03T13:10:05.105Z</time></trkpt><trkpt lat="44.4576537" lon="6.8322121"><ele>1648.0</ele><time>2026-05-03T13:10:06.106Z</time></trkpt><trkpt lat="44.4574845" lon="6.8322522"><ele>1648.0</ele><time>2026-05-03T13:10:07.106Z</time></trkpt><trkpt lat="44.4573095" lon="6.8322982"><ele>1648.0</ele><time>2026-05-03T13:10:08.106Z</time></trkpt><trkpt lat="44.4571411" lon="6.8323557"><ele>1648.0</ele><time>2026-05-03T13:10:09.106Z</time></trkpt><trkpt lat="44.4569807" lon="6.8324057"><ele>1650.3333333333335</ele><time>2026-05-03T13:10:10.105Z</time></trkpt><trkpt lat="44.4568345" lon="6.832478"><ele>1652.6666666666665</ele><time>2026-05-03T13:10:11.106Z</time></trkpt><trkpt lat="44.4566765" lon="6.8325409"><ele>1655.0</ele><time>2026-05-03T13:10:12.106Z</time></trkpt><trkpt lat="44.4565671" lon="6.8326595"><ele>1655.0</ele><time>2026-05-03T13:10:13.106Z</time></trkpt><trkpt lat="44.4564615" lon="6.8327995"><ele>1655.0</ele><time>2026-05-03T13:10:14.105Z</time></trkpt><trkpt lat="44.4563826" lon="6.8329927"><ele>1655.0</ele><time>2026-05-03T13:10:15.105Z</time></trkpt><trkpt lat="44.4563153" lon="6.8331992"><ele>1657.3333333333333</ele><time>2026-05-03T13:10:16.106Z</time></trkpt><trkpt lat="44.4562387" lon="6.8333959"><ele>1659.6666666666665</ele><time>2026-05-03T13:10:17.106Z</time></trkpt><trkpt lat="44.4561358" lon="6.833561"><ele>1662.0</ele><time>2026-05-03T13:10:18.106Z</time></trkpt><trkpt lat="44.456021" lon="6.8336971"><ele>1662.0</ele><time>2026-05-03T13:10:19.106Z</time></trkpt><trkpt lat="44.4558735" lon="6.8337785"><ele>1662.0</ele><time>2026-05-03T13:10:20.106Z</time></trkpt><trkpt lat="44.4557089" lon="6.8338314"><ele>1662.0</ele><time>2026-05-03T13:10:21.106Z</time></trkpt><trkpt lat="44.4555463" lon="6.8339096"><ele>1657.0</ele><time>2026-05-03T13:10:22.106Z</time></trkpt><trkpt lat="44.4553883" lon="6.8340012"><ele>1652.0</ele><time>2026-05-03T13:10:23.106Z</time></trkpt><trkpt lat="44.4552368" lon="6.8341116"><ele>1647.0</ele><time>2026-05-03T13:10:24.106Z</time></trkpt><trkpt lat="44.4550913" lon="6.8342378"><ele>1654.0</ele><time>2026-05-03T13:10:25.106Z</time></trkpt><trkpt lat="44.4549483" lon="6.8343974"><ele>1661.0</ele><time>2026-05-03T13:10:26.106Z</time></trkpt><trkpt lat="44.4548192" lon="6.8345663"><ele>1668.0</ele><time>2026-05-03T13:10:27.106Z</time></trkpt><trkpt lat="44.4546953" lon="6.8347408"><ele>1663.3333333333335</ele><time>2026-05-03T13:10:28.106Z</time></trkpt><trkpt lat="44.4545799" lon="6.8349192"><ele>1658.6666666666667</ele><time>2026-05-03T13:10:29.106Z</time></trkpt><trkpt lat="44.4544772" lon="6.8351239"><ele>1654.0</ele><time>2026-05-03T13:10:30.106Z</time></trkpt><trkpt lat="44.454414" lon="6.8353484"><ele>1654.0</ele><time>2026-05-03T13:10:31.106Z</time></trkpt><trkpt lat="44.4543655" lon="6.8355977"><ele>1654.0</ele><time>2026-05-03T13:10:32.106Z</time></trkpt><trkpt lat="44.4543226" lon="6.8358421"><ele>1654.0</ele><time>2026-05-03T13:10:33.106Z</time></trkpt><trkpt lat="44.454271" lon="6.8360876"><ele>1656.3333333333335</ele><time>2026-05-03T13:10:34.106Z</time></trkpt><trkpt lat="44.4541952" lon="6.8363188"><ele>1658.6666666666665</ele><time>2026-05-03T13:10:35.106Z</time></trkpt><trkpt lat="44.4541035" lon="6.8365285"><ele>1661.0</ele><time>2026-05-03T13:10:36.106Z</time></trkpt><trkpt lat="44.453986" lon="6.8367303"><ele>1663.6666666666665</ele><time>2026-05-03T13:10:37.106Z</time></trkpt><trkpt lat="44.4538482" lon="6.8369044"><ele>1666.3333333333335</ele><time>2026-05-03T13:10:38.106Z</time></trkpt><trkpt lat="44.4537184" lon="6.837071"><ele>1669.0</ele><time>2026-05-03T13:10:39.106Z</time></trkpt><trkpt lat="44.4535595" lon="6.8371561"><ele>1669.0</ele><time>2026-05-03T13:10:40.106Z</time></trkpt><trkpt lat="44.4533991" lon="6.8372103"><ele>1669.0</ele><time>2026-05-03T13:10:41.106Z</time></trkpt><trkpt lat="44.4532465" lon="6.8372615"><ele>1669.0</ele><time>2026-05-03T13:10:42.106Z</time></trkpt><trkpt lat="44.4530984" lon="6.8373334"><ele>1669.0</ele><time>2026-05-03T13:10:43.106Z</time></trkpt><trkpt lat="44.4529782" lon="6.8374695"><ele>1669.0</ele><time>2026-05-03T13:10:44.106Z</time></trkpt><trkpt lat="44.4528779" lon="6.8376503"><ele>1669.0</ele><time>2026-05-03T13:10:45.106Z</time></trkpt><trkpt lat="44.4527905" lon="6.8378407"><ele>1669.6666666666667</ele><time>2026-05-03T13:10:46.106Z</time></trkpt><trkpt lat="44.452713" lon="6.8380715"><ele>1670.3333333333335</ele><time>2026-05-03T13:10:47.106Z</time></trkpt><trkpt lat="44.4526342" lon="6.8383129"><ele>1671.0</ele><time>2026-05-03T13:10:48.106Z</time></trkpt><trkpt lat="44.4525562" lon="6.8385448"><ele>1671.6666666666665</ele><time>2026-05-03T13:10:49.106Z</time></trkpt><trkpt lat="44.4524856" lon="6.8387727"><ele>1672.3333333333333</ele><time>2026-05-03T13:10:50.106Z</time></trkpt><trkpt lat="44.4524341" lon="6.8390074"><ele>1673.0</ele><time>2026-05-03T13:10:51.106Z</time></trkpt><trkpt lat="44.4523894" lon="6.8392289"><ele>1673.0</ele><time>2026-05-03T13:10:52.106Z</time></trkpt><trkpt lat="44.4523939" lon="6.8394993"><ele>1673.0</ele><time>2026-05-03T13:10:53.105Z</time></trkpt><trkpt lat="44.4524093" lon="6.8397747"><ele>1673.0</ele><time>2026-05-03T13:10:54.106Z</time></trkpt><trkpt lat="44.4524235" lon="6.8400471"><ele>1674.3333333333333</ele><time>2026-05-03T13:10:55.106Z</time></trkpt><trkpt lat="44.4524415" lon="6.8403167"><ele>1675.6666666666665</ele><time>2026-05-03T13:10:56.106Z</time></trkpt><trkpt lat="44.4524611" lon="6.840571"><ele>1677.0</ele><time>2026-05-03T13:10:57.106Z</time></trkpt><trkpt lat="44.4524807" lon="6.8408095"><ele>1676.25</ele><time>2026-05-03T13:10:58.106Z</time></trkpt><trkpt lat="44.4525027" lon="6.8410225"><ele>1675.5</ele><time>2026-05-03T13:10:59.106Z</time></trkpt><trkpt lat="44.4525243" lon="6.8412286"><ele>1674.75</ele><time>2026-05-03T13:11:00.106Z</time></trkpt><trkpt lat="44.4525349" lon="6.8414234"><ele>1674.0</ele><time>2026-05-03T13:11:01.106Z</time></trkpt><trkpt lat="44.4525537" lon="6.8416071"><ele>1674.0</ele><time>2026-05-03T13:11:02.106Z</time></trkpt><trkpt lat="44.4525672" lon="6.8417845"><ele>1674.0</ele><time>2026-05-03T13:11:03.106Z</time></trkpt><trkpt lat="44.4525793" lon="6.8419667"><ele>1674.0</ele><time>2026-05-03T13:11:04.106Z</time></trkpt><trkpt lat="44.452596" lon="6.8421492"><ele>1674.0</ele><time>2026-05-03T13:11:05.105Z</time></trkpt><trkpt lat="44.4526077" lon="6.8423266"><ele>1673.5</ele><time>2026-05-03T13:11:06.106Z</time></trkpt><trkpt lat="44.452624" lon="6.8425059"><ele>1673.0</ele><time>2026-05-03T13:11:07.106Z</time></trkpt><trkpt lat="44.4526403" lon="6.8426782"><ele>1672.5</ele><time>2026-05-03T13:11:08.106Z</time></trkpt><trkpt lat="44.4526527" lon="6.8428481"><ele>1672.0</ele><time>2026-05-03T13:11:09.105Z</time></trkpt><trkpt lat="44.4526689" lon="6.8430099"><ele>1673.0</ele><time>2026-05-03T13:11:10.106Z</time></trkpt><trkpt lat="44.4526748" lon="6.8431717"><ele>1674.0</ele><time>2026-05-03T13:11:11.106Z</time></trkpt><trkpt lat="44.4526675" lon="6.8433369"><ele>1675.0</ele><time>2026-05-03T13:11:12.106Z</time></trkpt><trkpt lat="44.4526492" lon="6.8434991"><ele>1676.0</ele><time>2026-05-03T13:11:13.105Z</time></trkpt><trkpt lat="44.4526223" lon="6.8436562"><ele>1676.1999999999998</ele><time>2026-05-03T13:11:14.106Z</time></trkpt><trkpt lat="44.4525971" lon="6.8438085"><ele>1676.3999999999999</ele><time>2026-05-03T13:11:15.106Z</time></trkpt><trkpt lat="44.4525723" lon="6.843964"><ele>1676.6</ele><time>2026-05-03T13:11:16.106Z</time></trkpt><trkpt lat="44.4525475" lon="6.8441149"><ele>1676.8</ele><time>2026-05-03T13:11:17.105Z</time></trkpt><trkpt lat="44.4525124" lon="6.844266"><ele>1677.0</ele><time>2026-05-03T13:11:18.106Z</time></trkpt><trkpt lat="44.4524583" lon="6.8444041"><ele>1677.0</ele><time>2026-05-03T13:11:19.106Z</time></trkpt><trkpt lat="44.4523981" lon="6.8445309"><ele>1677.0</ele><time>2026-05-03T13:11:20.106Z</time></trkpt><trkpt lat="44.4523123" lon="6.8446393"><ele>1677.0</ele><time>2026-05-03T13:11:21.106Z</time></trkpt><trkpt lat="44.4522154" lon="6.8447437"><ele>1677.0</ele><time>2026-05-03T13:11:22.106Z</time></trkpt><trkpt lat="44.4521274" lon="6.8448326"><ele>1677.0</ele><time>2026-05-03T13:11:23.106Z</time></trkpt><trkpt lat="44.4520409" lon="6.8449167"><ele>1677.0</ele><time>2026-05-03T13:11:24.105Z</time></trkpt><trkpt lat="44.4519538" lon="6.8449953"><ele>1677.0</ele><time>2026-05-03T13:11:25.106Z</time></trkpt><trkpt lat="44.4518697" lon="6.8450582"><ele>1677.0</ele><time>2026-05-03T13:11:26.106Z</time></trkpt><trkpt lat="44.4517807" lon="6.8451339"><ele>1677.0</ele><time>2026-05-03T13:11:27.106Z</time></trkpt><trkpt lat="44.4516924" lon="6.8452117"><ele>1677.8</ele><time>2026-05-03T13:11:28.106Z</time></trkpt><trkpt lat="44.4516074" lon="6.8453046"><ele>1678.6</ele><time>2026-05-03T13:11:29.106Z</time></trkpt><trkpt lat="44.4515294" lon="6.8454028"><ele>1679.3999999999999</ele><time>2026-05-03T13:11:30.106Z</time></trkpt><trkpt lat="44.4514573" lon="6.8455141"><ele>1680.1999999999998</ele><time>2026-05-03T13:11:31.106Z</time></trkpt><trkpt lat="44.4513835" lon="6.8456261"><ele>1681.0</ele><time>2026-05-03T13:11:32.106Z</time></trkpt><trkpt lat="44.4513161" lon="6.8457454"><ele>1680.8</ele><time>2026-05-03T13:11:33.105Z</time></trkpt><trkpt lat="44.45125" lon="6.8458652"><ele>1680.6</ele><time>2026-05-03T13:11:34.106Z</time></trkpt><trkpt lat="44.451187" lon="6.8459737"><ele>1680.4</ele><time>2026-05-03T13:11:35.106Z</time></trkpt><trkpt lat="44.4511228" lon="6.8460727"><ele>1680.2</ele><time>2026-05-03T13:11:36.106Z</time></trkpt><trkpt lat="44.4510564" lon="6.8461774"><ele>1680.0</ele><time>2026-05-03T13:11:37.106Z</time></trkpt><trkpt lat="44.4509896" lon="6.8462836"><ele>1680.0</ele><time>2026-05-03T13:11:38.105Z</time></trkpt><trkpt lat="44.4509229" lon="6.846391"><ele>1680.0</ele><time>2026-05-03T13:11:39.105Z</time></trkpt><trkpt lat="44.4508531" lon="6.846505"><ele>1680.0</ele><time>2026-05-03T13:11:40.106Z</time></trkpt><trkpt lat="44.450788" lon="6.8466234"><ele>1680.0</ele><time>2026-05-03T13:11:41.106Z</time></trkpt><trkpt lat="44.4507241" lon="6.8467466"><ele>1680.0</ele><time>2026-05-03T13:11:42.105Z</time></trkpt><trkpt lat="44.4506629" lon="6.846874"><ele>1679.6</ele><time>2026-05-03T13:11:43.106Z</time></trkpt><trkpt lat="44.4506033" lon="6.8470086"><ele>1679.2</ele><time>2026-05-03T13:11:44.106Z</time></trkpt><trkpt lat="44.4505539" lon="6.8471452"><ele>1678.8000000000002</ele><time>2026-05-03T13:11:45.106Z</time></trkpt><trkpt lat="44.4505102" lon="6.8472973"><ele>1678.4</ele><time>2026-05-03T13:11:46.106Z</time></trkpt><trkpt lat="44.4504794" lon="6.8474449"><ele>1678.0</ele><time>2026-05-03T13:11:47.106Z</time></trkpt><trkpt lat="44.4504424" lon="6.8475959"><ele>1679.0</ele><time>2026-05-03T13:11:48.106Z</time></trkpt><trkpt lat="44.4504446" lon="6.8477633"><ele>1680.0</ele><time>2026-05-03T13:11:49.106Z</time></trkpt><trkpt lat="44.4504442" lon="6.8479259"><ele>1681.0</ele><time>2026-05-03T13:11:50.106Z</time></trkpt><trkpt lat="44.4504421" lon="6.8480752"><ele>1682.0</ele><time>2026-05-03T13:11:51.106Z</time></trkpt><trkpt lat="44.4504294" lon="6.8482358"><ele>1682.0</ele><time>2026-05-03T13:11:52.106Z</time></trkpt><trkpt lat="44.4504057" lon="6.8483802"><ele>1682.0</ele><time>2026-05-03T13:11:53.106Z</time></trkpt><trkpt lat="44.4503777" lon="6.8485385"><ele>1682.0</ele><time>2026-05-03T13:11:54.106Z</time></trkpt><trkpt lat="44.4503426" lon="6.8487012"><ele>1682.0</ele><time>2026-05-03T13:11:55.106Z</time></trkpt><trkpt lat="44.4503048" lon="6.8488817"><ele>1683.3333333333333</ele><time>2026-05-03T13:11:56.106Z</time></trkpt><trkpt lat="44.4502579" lon="6.8490721"><ele>1684.6666666666665</ele><time>2026-05-03T13:11:57.106Z</time></trkpt><trkpt lat="44.45021" lon="6.8492729"><ele>1686.0</ele><time>2026-05-03T13:11:58.106Z</time></trkpt><trkpt lat="44.4501534" lon="6.8494871"><ele>1688.0</ele><time>2026-05-03T13:11:59.106Z</time></trkpt><trkpt lat="44.4500961" lon="6.8497093"><ele>1690.0</ele><time>2026-05-03T13:12:00.106Z</time></trkpt><trkpt lat="44.4500354" lon="6.849931"><ele>1692.0</ele><time>2026-05-03T13:12:01.106Z</time></trkpt><trkpt lat="44.4499728" lon="6.8501609"><ele>1694.0</ele><time>2026-05-03T13:12:02.106Z</time></trkpt><trkpt lat="44.4499135" lon="6.8504048"><ele>1696.0</ele><time>2026-05-03T13:12:03.106Z</time></trkpt><trkpt lat="44.4498644" lon="6.8506688"><ele>1698.0</ele><time>2026-05-03T13:12:04.106Z</time></trkpt><trkpt lat="44.449828" lon="6.8509264"><ele>1700.6666666666665</ele><time>2026-05-03T13:12:05.106Z</time></trkpt><trkpt lat="44.4498042" lon="6.8511957"><ele>1703.3333333333333</ele><time>2026-05-03T13:12:06.106Z</time></trkpt><trkpt lat="44.4497889" lon="6.8514589"><ele>1706.0</ele><time>2026-05-03T13:12:07.106Z</time></trkpt><trkpt lat="44.4497934" lon="6.8516966"><ele>1708.25</ele><time>2026-05-03T13:12:08.106Z</time></trkpt><trkpt lat="44.4498114" lon="6.8519016"><ele>1710.5</ele><time>2026-05-03T13:12:09.106Z</time></trkpt><trkpt lat="44.4498225" lon="6.8520935"><ele>1712.75</ele><time>2026-05-03T13:12:10.106Z</time></trkpt><trkpt lat="44.4498013" lon="6.85227"><ele>1715.0</ele><time>2026-05-03T13:12:11.105Z</time></trkpt><trkpt lat="44.4497537" lon="6.8524312"><ele>1715.0</ele><time>2026-05-03T13:12:12.105Z</time></trkpt><trkpt lat="44.4496701" lon="6.8525419"><ele>1715.0</ele><time>2026-05-03T13:12:13.106Z</time></trkpt><trkpt lat="44.4495753" lon="6.8526254"><ele>1715.0</ele><time>2026-05-03T13:12:14.106Z</time></trkpt><trkpt lat="44.4494269" lon="6.8526736"><ele>1715.0</ele><time>2026-05-03T13:12:15.106Z</time></trkpt><trkpt lat="44.4493149" lon="6.852768"><ele>1716.5</ele><time>2026-05-03T13:12:16.106Z</time></trkpt><trkpt lat="44.4492187" lon="6.8528992"><ele>1718.0</ele><time>2026-05-03T13:12:17.106Z</time></trkpt><trkpt lat="44.4491395" lon="6.8530476"><ele>1719.5</ele><time>2026-05-03T13:12:18.106Z</time></trkpt><trkpt lat="44.4490523" lon="6.8531882"><ele>1721.0</ele><time>2026-05-03T13:12:19.105Z</time></trkpt><trkpt lat="44.4489448" lon="6.8533109"><ele>1721.0</ele><time>2026-05-03T13:12:20.106Z</time></trkpt><trkpt lat="44.4488012" lon="6.8533779"><ele>1721.0</ele><time>2026-05-03T13:12:21.105Z</time></trkpt><trkpt lat="44.4486522" lon="6.853422"><ele>1721.0</ele><time>2026-05-03T13:12:22.106Z</time></trkpt><trkpt lat="44.4484855" lon="6.8534721"><ele>1722.6666666666665</ele><time>2026-05-03T13:12:23.105Z</time></trkpt><trkpt lat="44.4483315" lon="6.8535292"><ele>1724.3333333333335</ele><time>2026-05-03T13:12:24.106Z</time></trkpt><trkpt lat="44.4481817" lon="6.8536901"><ele>1726.0</ele><time>2026-05-03T13:12:25.106Z</time></trkpt><trkpt lat="44.4480291" lon="6.8538346"><ele>1727.0</ele><time>2026-05-03T13:12:26.106Z</time></trkpt><trkpt lat="44.4478821" lon="6.8539994"><ele>1728.0</ele><time>2026-05-03T13:12:27.106Z</time></trkpt><trkpt lat="44.4477434" lon="6.8541834"><ele>1729.0</ele><time>2026-05-03T13:12:28.106Z</time></trkpt><trkpt lat="44.4476119" lon="6.8543589"><ele>1729.0</ele><time>2026-05-03T13:12:29.105Z</time></trkpt><trkpt lat="44.4474956" lon="6.8545955"><ele>1729.0</ele><time>2026-05-03T13:12:30.106Z</time></trkpt><trkpt lat="44.4473837" lon="6.8548326"><ele>1729.0</ele><time>2026-05-03T13:12:31.106Z</time></trkpt><trkpt lat="44.4472855" lon="6.8550649"><ele>1725.3333333333335</ele><time>2026-05-03T13:12:32.106Z</time></trkpt><trkpt lat="44.4471905" lon="6.8553089"><ele>1721.6666666666665</ele><time>2026-05-03T13:12:33.106Z</time></trkpt><trkpt lat="44.4470973" lon="6.8555488"><ele>1718.0</ele><time>2026-05-03T13:12:34.106Z</time></trkpt><trkpt lat="44.4470054" lon="6.8557776"><ele>1724.3333333333333</ele><time>2026-05-03T13:12:35.106Z</time></trkpt><trkpt lat="44.4469137" lon="6.856004"><ele>1730.6666666666665</ele><time>2026-05-03T13:12:36.106Z</time></trkpt><trkpt lat="44.4468233" lon="6.8562185"><ele>1737.0</ele><time>2026-05-03T13:12:37.106Z</time></trkpt><trkpt lat="44.4467265" lon="6.8564326"><ele>1737.0</ele><time>2026-05-03T13:12:38.105Z</time></trkpt><trkpt lat="44.4466249" lon="6.8565938"><ele>1737.0</ele><time>2026-05-03T13:12:39.106Z</time></trkpt><trkpt lat="44.4464854" lon="6.8567456"><ele>1737.0</ele><time>2026-05-03T13:12:40.106Z</time></trkpt><trkpt lat="44.4463204" lon="6.8568549"><ele>1736.6666666666665</ele><time>2026-05-03T13:12:41.105Z</time></trkpt><trkpt lat="44.4461671" lon="6.8569812"><ele>1736.3333333333333</ele><time>2026-05-03T13:12:42.106Z</time></trkpt><trkpt lat="44.4460617" lon="6.8571459"><ele>1736.0</ele><time>2026-05-03T13:12:43.106Z</time></trkpt><trkpt lat="44.4459366" lon="6.8573294"><ele>1736.0</ele><time>2026-05-03T13:12:44.106Z</time></trkpt><trkpt lat="44.4458361" lon="6.8575295"><ele>1736.0</ele><time>2026-05-03T13:12:45.105Z</time></trkpt><trkpt lat="44.4457441" lon="6.8577176"><ele>1736.0</ele><time>2026-05-03T13:12:46.105Z</time></trkpt><trkpt lat="44.4456895" lon="6.8579407"><ele>1740.5</ele><time>2026-05-03T13:12:47.106Z</time></trkpt><trkpt lat="44.445643" lon="6.8581453"><ele>1745.0</ele><time>2026-05-03T13:12:48.106Z</time></trkpt><trkpt lat="44.4456098" lon="6.858328"><ele>1749.5</ele><time>2026-05-03T13:12:49.106Z</time></trkpt><trkpt lat="44.445553" lon="6.8585049"><ele>1754.0</ele><time>2026-05-03T13:12:50.106Z</time></trkpt><trkpt lat="44.4454645" lon="6.8586675"><ele>1752.3333333333333</ele><time>2026-05-03T13:12:51.106Z</time></trkpt><trkpt lat="44.4453548" lon="6.8587989"><ele>1750.6666666666665</ele><time>2026-05-03T13:12:52.106Z</time></trkpt><trkpt lat="44.4451976" lon="6.8588885"><ele>1749.0</ele><time>2026-05-03T13:12:53.106Z</time></trkpt><trkpt lat="44.4450346" lon="6.8589379"><ele>1749.0</ele><time>2026-05-03T13:12:54.106Z</time></trkpt><trkpt lat="44.4448732" lon="6.8589928"><ele>1749.0</ele><time>2026-05-03T13:12:55.106Z</time></trkpt><trkpt lat="44.4447191" lon="6.8590591"><ele>1749.0</ele><time>2026-05-03T13:12:56.106Z</time></trkpt><trkpt lat="44.4445722" lon="6.8591337"><ele>1751.6666666666665</ele><time>2026-05-03T13:12:57.106Z</time></trkpt><trkpt lat="44.4444348" lon="6.8592436"><ele>1754.3333333333333</ele><time>2026-05-03T13:12:58.106Z</time></trkpt><trkpt lat="44.4443412" lon="6.8594642"><ele>1757.0</ele><time>2026-05-03T13:12:59.105Z</time></trkpt><trkpt lat="44.4442338" lon="6.8596671"><ele>1757.0</ele><time>2026-05-03T13:13:00.106Z</time></trkpt><trkpt lat="44.4441205" lon="6.8598778"><ele>1757.0</ele><time>2026-05-03T13:13:01.106Z</time></trkpt><trkpt lat="44.443986" lon="6.8600978"><ele>1757.0</ele><time>2026-05-03T13:13:02.105Z</time></trkpt><trkpt lat="44.4438455" lon="6.8603133"><ele>1757.6666666666665</ele><time>2026-05-03T13:13:03.105Z</time></trkpt><trkpt lat="44.4437023" lon="6.860526"><ele>1758.3333333333335</ele><time>2026-05-03T13:13:04.106Z</time></trkpt><trkpt lat="44.4435492" lon="6.8607075"><ele>1759.0</ele><time>2026-05-03T13:13:05.106Z</time></trkpt><trkpt lat="44.4433915" lon="6.8608942"><ele>1760.6666666666667</ele><time>2026-05-03T13:13:06.106Z</time></trkpt><trkpt lat="44.443221" lon="6.8610654"><ele>1762.3333333333335</ele><time>2026-05-03T13:13:07.105Z</time></trkpt><trkpt lat="44.4430438" lon="6.8612094"><ele>1764.0</ele><time>2026-05-03T13:13:08.105Z</time></trkpt><trkpt lat="44.4428772" lon="6.8613348"><ele>1764.0</ele><time>2026-05-03T13:13:09.106Z</time></trkpt><trkpt lat="44.442715" lon="6.8614647"><ele>1764.0</ele><time>2026-05-03T13:13:10.106Z</time></trkpt><trkpt lat="44.4425576" lon="6.8615852"><ele>1764.0</ele><time>2026-05-03T13:13:11.106Z</time></trkpt><trkpt lat="44.4424067" lon="6.8617143"><ele>1764.6666666666665</ele><time>2026-05-03T13:13:12.105Z</time></trkpt><trkpt lat="44.4422697" lon="6.8618518"><ele>1765.3333333333333</ele><time>2026-05-03T13:13:13.106Z</time></trkpt><trkpt lat="44.4421425" lon="6.861991"><ele>1766.0</ele><time>2026-05-03T13:13:14.106Z</time></trkpt><trkpt lat="44.4420394" lon="6.8621521"><ele>1766.0</ele><time>2026-05-03T13:13:15.106Z</time></trkpt><trkpt lat="44.4419382" lon="6.8623262"><ele>1766.0</ele><time>2026-05-03T13:13:16.106Z</time></trkpt><trkpt lat="44.4418346" lon="6.8624838"><ele>1766.0</ele><time>2026-05-03T13:13:17.106Z</time></trkpt><trkpt lat="44.4417369" lon="6.8626534"><ele>1771.3333333333333</ele><time>2026-05-03T13:13:18.106Z</time></trkpt><trkpt lat="44.4416365" lon="6.8628183"><ele>1776.6666666666665</ele><time>2026-05-03T13:13:19.106Z</time></trkpt><trkpt lat="44.441544" lon="6.8629705"><ele>1782.0</ele><time>2026-05-03T13:13:20.106Z</time></trkpt><trkpt lat="44.4414444" lon="6.8631657"><ele>1782.0</ele><time>2026-05-03T13:13:21.105Z</time></trkpt><trkpt lat="44.4413596" lon="6.8633743"><ele>1782.0</ele><time>2026-05-03T13:13:22.106Z</time></trkpt><trkpt lat="44.4412839" lon="6.8636099"><ele>1782.0</ele><time>2026-05-03T13:13:23.106Z</time></trkpt><trkpt lat="44.4412075" lon="6.863859"><ele>1780.6666666666665</ele><time>2026-05-03T13:13:24.106Z</time></trkpt><trkpt lat="44.4411282" lon="6.864098"><ele>1779.3333333333333</ele><time>2026-05-03T13:13:25.105Z</time></trkpt><trkpt lat="44.4410401" lon="6.8643292"><ele>1778.0</ele><time>2026-05-03T13:13:26.106Z</time></trkpt><trkpt lat="44.4409505" lon="6.8645427"><ele>1781.6666666666665</ele><time>2026-05-03T13:13:27.106Z</time></trkpt><trkpt lat="44.4408703" lon="6.8647362"><ele>1785.3333333333335</ele><time>2026-05-03T13:13:28.106Z</time></trkpt><trkpt lat="44.4407836" lon="6.8649048"><ele>1789.0</ele><time>2026-05-03T13:13:29.106Z</time></trkpt><trkpt lat="44.4406832" lon="6.8650464"><ele>1792.5</ele><time>2026-05-03T13:13:30.106Z</time></trkpt><trkpt lat="44.4405542" lon="6.8651173"><ele>1796.0</ele><time>2026-05-03T13:13:31.106Z</time></trkpt><trkpt lat="44.4404312" lon="6.8651715"><ele>1799.5</ele><time>2026-05-03T13:13:32.106Z</time></trkpt><trkpt lat="44.440299" lon="6.8651913"><ele>1803.0</ele><time>2026-05-03T13:13:33.105Z</time></trkpt><trkpt lat="44.4401275" lon="6.8651138"><ele>1803.0</ele><time>2026-05-03T13:13:34.106Z</time></trkpt><trkpt lat="44.4399794" lon="6.8650862"><ele>1803.0</ele><time>2026-05-03T13:13:35.105Z</time></trkpt><trkpt lat="44.4398497" lon="6.8651167"><ele>1803.0</ele><time>2026-05-03T13:13:36.106Z</time></trkpt><trkpt lat="44.4397147" lon="6.8651764"><ele>1803.0</ele><time>2026-05-03T13:13:37.106Z</time></trkpt><trkpt lat="44.4395752" lon="6.8652773"><ele>1798.3333333333335</ele><time>2026-05-03T13:13:38.106Z</time></trkpt><trkpt lat="44.4394793" lon="6.8654299"><ele>1793.6666666666667</ele><time>2026-05-03T13:13:39.105Z</time></trkpt><trkpt lat="44.4393578" lon="6.8655735"><ele>1789.0</ele><time>2026-05-03T13:13:40.106Z</time></trkpt><trkpt lat="44.4392621" lon="6.8657569"><ele>1789.0</ele><time>2026-05-03T13:13:41.106Z</time></trkpt><trkpt lat="44.4391683" lon="6.8659445"><ele>1789.0</ele><time>2026-05-03T13:13:42.106Z</time></trkpt><trkpt lat="44.4390875" lon="6.8661524"><ele>1789.0</ele><time>2026-05-03T13:13:43.105Z</time></trkpt><trkpt lat="44.4390303" lon="6.8663713"><ele>1793.0</ele><time>2026-05-03T13:13:44.106Z</time></trkpt><trkpt lat="44.439019" lon="6.8666319"><ele>1797.0</ele><time>2026-05-03T13:13:45.106Z</time></trkpt><trkpt lat="44.43898" lon="6.8668802"><ele>1801.0</ele><time>2026-05-03T13:13:46.106Z</time></trkpt><trkpt lat="44.4389033" lon="6.8671296"><ele>1803.0</ele><time>2026-05-03T13:13:47.106Z</time></trkpt><trkpt lat="44.4388049" lon="6.8673699"><ele>1805.0</ele><time>2026-05-03T13:13:48.105Z</time></trkpt><trkpt lat="44.4386746" lon="6.8675848"><ele>1807.0</ele><time>2026-05-03T13:13:49.106Z</time></trkpt><trkpt lat="44.4385435" lon="6.8677986"><ele>1807.0</ele><time>2026-05-03T13:13:50.106Z</time></trkpt><trkpt lat="44.4384265" lon="6.8680214"><ele>1807.0</ele><time>2026-05-03T13:13:51.105Z</time></trkpt><trkpt lat="44.4383238" lon="6.8682574"><ele>1807.0</ele><time>2026-05-03T13:13:52.105Z</time></trkpt><trkpt lat="44.4382158" lon="6.8684839"><ele>1806.6666666666667</ele><time>2026-05-03T13:13:53.105Z</time></trkpt><trkpt lat="44.4381058" lon="6.8686946"><ele>1806.3333333333335</ele><time>2026-05-03T13:13:54.106Z</time></trkpt><trkpt lat="44.4379715" lon="6.8688722"><ele>1806.0</ele><time>2026-05-03T13:13:55.106Z</time></trkpt><trkpt lat="44.4378312" lon="6.8690334"><ele>1806.0</ele><time>2026-05-03T13:13:56.106Z</time></trkpt><trkpt lat="44.4376814" lon="6.8692044"><ele>1806.0</ele><time>2026-05-03T13:13:57.106Z</time></trkpt><trkpt lat="44.4375361" lon="6.8694004"><ele>1806.0</ele><time>2026-05-03T13:13:58.106Z</time></trkpt><trkpt lat="44.4373958" lon="6.8696043"><ele>1804.3333333333335</ele><time>2026-05-03T13:13:59.106Z</time></trkpt><trkpt lat="44.4372569" lon="6.8698157"><ele>1802.6666666666667</ele><time>2026-05-03T13:14:00.106Z</time></trkpt><trkpt lat="44.4371177" lon="6.8700311"><ele>1801.0</ele><time>2026-05-03T13:14:01.106Z</time></trkpt><trkpt lat="44.4369777" lon="6.870243"><ele>1809.0</ele><time>2026-05-03T13:14:02.106Z</time></trkpt><trkpt lat="44.4368529" lon="6.8704609"><ele>1817.0</ele><time>2026-05-03T13:14:03.106Z</time></trkpt><trkpt lat="44.4367122" lon="6.8706714"><ele>1825.0</ele><time>2026-05-03T13:14:04.106Z</time></trkpt><trkpt lat="44.4365793" lon="6.8708777"><ele>1823.3333333333335</ele><time>2026-05-03T13:14:05.106Z</time></trkpt><trkpt lat="44.4364429" lon="6.871082"><ele>1821.6666666666665</ele><time>2026-05-03T13:14:06.106Z</time></trkpt><trkpt lat="44.4363202" lon="6.8712969"><ele>1820.0</ele><time>2026-05-03T13:14:07.106Z</time></trkpt><trkpt lat="44.436192" lon="6.8715247"><ele>1820.0</ele><time>2026-05-03T13:14:08.106Z</time></trkpt><trkpt lat="44.4360741" lon="6.8717566"><ele>1820.0</ele><time>2026-05-03T13:14:09.106Z</time></trkpt><trkpt lat="44.4359543" lon="6.8719907"><ele>1820.0</ele><time>2026-05-03T13:14:10.106Z</time></trkpt><trkpt lat="44.4358394" lon="6.8722164"><ele>1822.6666666666665</ele><time>2026-05-03T13:14:11.106Z</time></trkpt><trkpt lat="44.4357159" lon="6.8724383"><ele>1825.3333333333335</ele><time>2026-05-03T13:14:12.106Z</time></trkpt><trkpt lat="44.4355859" lon="6.8726465"><ele>1828.0</ele><time>2026-05-03T13:14:13.106Z</time></trkpt><trkpt lat="44.435448" lon="6.8728532"><ele>1828.0</ele><time>2026-05-03T13:14:14.106Z</time></trkpt><trkpt lat="44.435321" lon="6.873007"><ele>1828.0</ele><time>2026-05-03T13:14:15.106Z</time></trkpt><trkpt lat="44.4352115" lon="6.8731615"><ele>1828.0</ele><time>2026-05-03T13:14:16.106Z</time></trkpt><trkpt lat="44.4351205" lon="6.8733335"><ele>1831.5</ele><time>2026-05-03T13:14:17.106Z</time></trkpt><trkpt lat="44.4350546" lon="6.8735226"><ele>1835.0</ele><time>2026-05-03T13:14:18.106Z</time></trkpt><trkpt lat="44.4350184" lon="6.8737198"><ele>1838.5</ele><time>2026-05-03T13:14:19.105Z</time></trkpt><trkpt lat="44.4349901" lon="6.8739213"><ele>1842.0</ele><time>2026-05-03T13:14:20.106Z</time></trkpt><trkpt lat="44.4349419" lon="6.874109"><ele>1842.0</ele><time>2026-05-03T13:14:21.106Z</time></trkpt><trkpt lat="44.4348679" lon="6.8742768"><ele>1842.0</ele><time>2026-05-03T13:14:22.106Z</time></trkpt><trkpt lat="44.4347588" lon="6.8744269"><ele>1842.0</ele><time>2026-05-03T13:14:23.105Z</time></trkpt><trkpt lat="44.4346358" lon="6.8745636"><ele>1842.0</ele><time>2026-05-03T13:14:24.106Z</time></trkpt><trkpt lat="44.4344914" lon="6.874681"><ele>1842.0</ele><time>2026-05-03T13:14:25.106Z</time></trkpt><trkpt lat="44.4343442" lon="6.8747706"><ele>1842.0</ele><time>2026-05-03T13:14:26.106Z</time></trkpt><trkpt lat="44.4342109" lon="6.874873"><ele>1842.0</ele><time>2026-05-03T13:14:27.106Z</time></trkpt><trkpt lat="44.4341139" lon="6.8749601"><ele>1842.0</ele><time>2026-05-03T13:14:28.106Z</time></trkpt><trkpt lat="44.434027" lon="6.8750621"><ele>1842.0</ele><time>2026-05-03T13:14:29.105Z</time></trkpt><trkpt lat="44.4339564" lon="6.8751837"><ele>1842.0</ele><time>2026-05-03T13:14:30.106Z</time></trkpt><trkpt lat="44.4372569" lon="6.8698157"><ele>1836.3333333333335</ele><time>2026-05-03T13:14:00.106Z</time></trkpt><trkpt lat="44.4371177" lon="6.8700311"><ele>1830.6666666666667</ele><time>2026-05-03T13:14:01.106Z</time></trkpt><trkpt lat="44.4369777" lon="6.870243"><ele>1825.0</ele><time>2026-05-03T13:14:02.106Z</time></trkpt><trkpt lat="44.4368529" lon="6.8704609"><ele>1825.0</ele><time>2026-05-03T13:14:03.106Z</time></trkpt><trkpt lat="44.4367122" lon="6.8706714"><ele>1825.0</ele><time>2026-05-03T13:14:04.106Z</time></trkpt><trkpt lat="44.4365793" lon="6.8708777"><ele>1825.0</ele><time>2026-05-03T13:14:05.106Z</time></trkpt><trkpt lat="44.4364429" lon="6.871082"><ele>1823.3333333333335</ele><time>2026-05-03T13:14:06.106Z</time></trkpt><trkpt lat="44.4363202" lon="6.8712969"><ele>1821.6666666666665</ele><time>2026-05-03T13:14:07.106Z</time></trkpt><trkpt lat="44.436192" lon="6.8715247"><ele>1820.0</ele><time>2026-05-03T13:14:08.106Z</time></trkpt><trkpt lat="44.4360741" lon="6.8717566"><ele>1825.3333333333333</ele><time>2026-05-03T13:14:09.106Z</time></trkpt><trkpt lat="44.4359543" lon="6.8719907"><ele>1830.6666666666665</ele><time>2026-05-03T13:14:10.106Z</time></trkpt><trkpt lat="44.4358394" lon="6.8722164"><ele>1836.0</ele><time>2026-05-03T13:14:11.106Z</time></trkpt><trkpt lat="44.4357159" lon="6.8724383"><ele>1833.3333333333335</ele><time>2026-05-03T13:14:12.106Z</time></trkpt><trkpt lat="44.4355859" lon="6.8726465"><ele>1830.6666666666667</ele><time>2026-05-03T13:14:13.106Z</time></trkpt><trkpt lat="44.435448" lon="6.8728532"><ele>1828.0</ele><time>2026-05-03T13:14:14.106Z</time></trkpt><trkpt lat="44.435321" lon="6.873007"><ele>1828.0</ele><time>2026-05-03T13:14:15.106Z</time></trkpt><trkpt lat="44.4352115" lon="6.8731615"><ele>1828.0</ele><time>2026-05-03T13:14:16.106Z</time></trkpt><trkpt lat="44.4351205" lon="6.8733335"><ele>1828.0</ele><time>2026-05-03T13:14:17.106Z</time></trkpt><trkpt lat="44.4350546" lon="6.8735226"><ele>1831.5</ele><time>2026-05-03T13:14:18.106Z</time></trkpt><trkpt lat="44.4350184" lon="6.8737198"><ele>1835.0</ele><time>2026-05-03T13:14:19.105Z</time></trkpt><trkpt lat="44.4349901" lon="6.8739213"><ele>1838.5</ele><time>2026-05-03T13:14:20.106Z</time></trkpt><trkpt lat="44.4349419" lon="6.874109"><ele>1842.0</ele><time>2026-05-03T13:14:21.106Z</time></trkpt><trkpt lat="44.4348679" lon="6.8742768"><ele>1842.0</ele><time>2026-05-03T13:14:22.106Z</time></trkpt><trkpt lat="44.4347588" lon="6.8744269"><ele>1842.0</ele><time>2026-05-03T13:14:23.105Z</time></trkpt><trkpt lat="44.4346358" lon="6.8745636"><ele>1842.0</ele><time>2026-05-03T13:14:24.106Z</time></trkpt><trkpt lat="44.4344914" lon="6.874681"><ele>1842.0</ele><time>2026-05-03T13:14:25.106Z</time></trkpt><trkpt lat="44.4343442" lon="6.8747706"><ele>1842.0</ele><time>2026-05-03T13:14:26.106Z</time></trkpt><trkpt lat="44.4342109" lon="6.874873"><ele>1842.0</ele><time>2026-05-03T13:14:27.106Z</time></trkpt><trkpt lat="44.4341139" lon="6.8749601"><ele>1842.0</ele><time>2026-05-03T13:14:28.106Z</time></trkpt><trkpt lat="44.434027" lon="6.8750621"><ele>1844.6</ele><time>2026-05-03T13:14:29.105Z</time></trkpt><trkpt lat="44.4339564" lon="6.8751837"><ele>1847.1999999999998</ele><time>2026-05-03T13:14:30.106Z</time></trkpt><trkpt lat="44.4339119" lon="6.8753203"><ele>1849.8</ele><time>2026-05-03T13:14:31.106Z</time></trkpt><trkpt lat="44.4339069" lon="6.8754607"><ele>1852.4</ele><time>2026-05-03T13:14:32.106Z</time></trkpt><trkpt lat="44.4339325" lon="6.8755971"><ele>1855.0</ele><time>2026-05-03T13:14:33.106Z</time></trkpt><trkpt lat="44.4339902" lon="6.875705"><ele>1855.0</ele><time>2026-05-03T13:14:34.106Z</time></trkpt><trkpt lat="44.4340922" lon="6.8757578"><ele>1855.0</ele><time>2026-05-03T13:14:35.105Z</time></trkpt><trkpt lat="44.4342046" lon="6.8757843"><ele>1855.0</ele><time>2026-05-03T13:14:36.106Z</time></trkpt><trkpt lat="44.4343359" lon="6.8756974"><ele>1855.0</ele><time>2026-05-03T13:14:37.106Z</time></trkpt><trkpt lat="44.4344612" lon="6.8756075"><ele>1855.0</ele><time>2026-05-03T13:14:38.105Z</time></trkpt><trkpt lat="44.4345871" lon="6.8754632"><ele>1855.0</ele><time>2026-05-03T13:14:39.106Z</time></trkpt><trkpt lat="44.434725" lon="6.8753517"><ele>1855.0</ele><time>2026-05-03T13:14:40.106Z</time></trkpt><trkpt lat="44.4348537" lon="6.87523"><ele>1855.25</ele><time>2026-05-03T13:14:41.106Z</time></trkpt><trkpt lat="44.4349648" lon="6.8750743"><ele>1855.5</ele><time>2026-05-03T13:14:42.106Z</time></trkpt><trkpt lat="44.4350546" lon="6.8749196"><ele>1855.75</ele><time>2026-05-03T13:14:43.106Z</time></trkpt><trkpt lat="44.4351272" lon="6.8747651"><ele>1856.0</ele><time>2026-05-03T13:14:44.106Z</time></trkpt><trkpt lat="44.435183" lon="6.8746428"><ele>1855.9999999999998</ele><time>2026-05-03T13:14:45.106Z</time></trkpt><trkpt lat="44.435243" lon="6.8745537"><ele>1856.0</ele><time>2026-05-03T13:14:46.106Z</time></trkpt><trkpt lat="44.43531" lon="6.8745092"><ele>1856.0</ele><time>2026-05-03T13:14:47.106Z</time></trkpt><trkpt lat="44.4353859" lon="6.8744818"><ele>1856.0</ele><time>2026-05-03T13:14:48.106Z</time></trkpt><trkpt lat="44.435434" lon="6.8745684"><ele>1855.9999999999998</ele><time>2026-05-03T13:14:49.106Z</time></trkpt><trkpt lat="44.4354426" lon="6.8746601"><ele>1856.0</ele><time>2026-05-03T13:14:50.106Z</time></trkpt><trkpt lat="44.4354154" lon="6.8747601"><ele>1856.0</ele><time>2026-05-03T13:14:51.106Z</time></trkpt><trkpt lat="44.4353736" lon="6.874851"><ele>1856.0</ele><time>2026-05-03T13:14:52.106Z</time></trkpt><trkpt lat="44.435274" lon="6.8749594"><ele>1856.0</ele><time>2026-05-03T13:14:53.106Z</time></trkpt><trkpt lat="44.4351834" lon="6.8750855"><ele>1856.0</ele><time>2026-05-03T13:14:54.106Z</time></trkpt><trkpt lat="44.4350899" lon="6.875242"><ele>1860.0</ele><time>2026-05-03T13:14:55.106Z</time></trkpt><trkpt lat="44.4349962" lon="6.8754065"><ele>1864.0</ele><time>2026-05-03T13:14:56.105Z</time></trkpt><trkpt lat="44.4348994" lon="6.875611"><ele>1868.0</ele><time>2026-05-03T13:14:57.106Z</time></trkpt><trkpt lat="44.4347897" lon="6.8758196"><ele>1867.3333333333333</ele><time>2026-05-03T13:14:58.105Z</time></trkpt><trkpt lat="44.4346893" lon="6.8760377"><ele>1866.6666666666665</ele><time>2026-05-03T13:14:59.105Z</time></trkpt><trkpt lat="44.4345741" lon="6.8762395"><ele>1866.0</ele><time>2026-05-03T13:15:00.106Z</time></trkpt><trkpt lat="44.4344621" lon="6.8764544"><ele>1866.0</ele><time>2026-05-03T13:15:01.106Z</time></trkpt><trkpt lat="44.4343131" lon="6.876655"><ele>1866.0</ele><time>2026-05-03T13:15:02.106Z</time></trkpt><trkpt lat="44.4341534" lon="6.8768495"><ele>1866.0</ele><time>2026-05-03T13:15:03.106Z</time></trkpt><trkpt lat="44.434004" lon="6.8770557"><ele>1868.3333333333335</ele><time>2026-05-03T13:15:04.105Z</time></trkpt><trkpt lat="44.433857" lon="6.877256"><ele>1870.6666666666667</ele><time>2026-05-03T13:15:05.106Z</time></trkpt><trkpt lat="44.4337084" lon="6.8774532"><ele>1873.0</ele><time>2026-05-03T13:15:06.106Z</time></trkpt><trkpt lat="44.4335637" lon="6.8776571"><ele>1877.6666666666667</ele><time>2026-05-03T13:15:07.106Z</time></trkpt><trkpt lat="44.4334231" lon="6.8778534"><ele>1882.3333333333335</ele><time>2026-05-03T13:15:08.106Z</time></trkpt><trkpt lat="44.4332813" lon="6.8780432"><ele>1887.0</ele><time>2026-05-03T13:15:09.106Z</time></trkpt><trkpt lat="44.4331417" lon="6.8782247"><ele>1887.0</ele><time>2026-05-03T13:15:10.106Z</time></trkpt><trkpt lat="44.4329854" lon="6.8783817"><ele>1887.0</ele><time>2026-05-03T13:15:11.106Z</time></trkpt><trkpt lat="44.4328328" lon="6.8785294"><ele>1887.0</ele><time>2026-05-03T13:15:12.106Z</time></trkpt><trkpt lat="44.4326798" lon="6.8786923"><ele>1886.6666666666665</ele><time>2026-05-03T13:15:13.106Z</time></trkpt><trkpt lat="44.432528" lon="6.8788419"><ele>1886.3333333333333</ele><time>2026-05-03T13:15:14.106Z</time></trkpt><trkpt lat="44.4323724" lon="6.8789839"><ele>1886.0</ele><time>2026-05-03T13:15:15.106Z</time></trkpt><trkpt lat="44.4322203" lon="6.8791249"><ele>1886.5</ele><time>2026-05-03T13:15:16.106Z</time></trkpt><trkpt lat="44.4321065" lon="6.8792387"><ele>1887.0</ele><time>2026-05-03T13:15:17.106Z</time></trkpt><trkpt lat="44.4320054" lon="6.8793718"><ele>1887.5</ele><time>2026-05-03T13:15:18.106Z</time></trkpt><trkpt lat="44.4319146" lon="6.8795222"><ele>1888.0</ele><time>2026-05-03T13:15:19.106Z</time></trkpt><trkpt lat="44.4318349" lon="6.8796843"><ele>1888.0</ele><time>2026-05-03T13:15:20.106Z</time></trkpt><trkpt lat="44.4317558" lon="6.8798328"><ele>1888.0</ele><time>2026-05-03T13:15:21.106Z</time></trkpt><trkpt lat="44.4316558" lon="6.8800296"><ele>1888.0</ele><time>2026-05-03T13:15:22.105Z</time></trkpt><trkpt lat="44.4315599" lon="6.8802518"><ele>1891.6666666666667</ele><time>2026-05-03T13:15:23.106Z</time></trkpt><trkpt lat="44.4314866" lon="6.8804568"><ele>1895.3333333333335</ele><time>2026-05-03T13:15:24.106Z</time></trkpt><trkpt lat="44.4314277" lon="6.8806515"><ele>1899.0</ele><time>2026-05-03T13:15:25.106Z</time></trkpt><trkpt lat="44.4313788" lon="6.8808346"><ele>1902.75</ele><time>2026-05-03T13:15:26.106Z</time></trkpt><trkpt lat="44.4313716" lon="6.8810142"><ele>1906.5</ele><time>2026-05-03T13:15:27.106Z</time></trkpt><trkpt lat="44.4313655" lon="6.8812053"><ele>1910.25</ele><time>2026-05-03T13:15:28.106Z</time></trkpt><trkpt lat="44.4313491" lon="6.881402"><ele>1914.0</ele><time>2026-05-03T13:15:29.106Z</time></trkpt><trkpt lat="44.4313167" lon="6.8816015"><ele>1911.3333333333335</ele><time>2026-05-03T13:15:30.106Z</time></trkpt><trkpt lat="44.4312523" lon="6.8817937"><ele>1908.6666666666667</ele><time>2026-05-03T13:15:31.106Z</time></trkpt><trkpt lat="44.4311628" lon="6.8819772"><ele>1906.0</ele><time>2026-05-03T13:15:32.106Z</time></trkpt><trkpt lat="44.4310543" lon="6.8821453"><ele>1906.0</ele><time>2026-05-03T13:15:33.106Z</time></trkpt><trkpt lat="44.4309324" lon="6.8823181"><ele>1906.0</ele><time>2026-05-03T13:15:34.106Z</time></trkpt><trkpt lat="44.4308122" lon="6.8825098"><ele>1906.0</ele><time>2026-05-03T13:15:35.106Z</time></trkpt><trkpt lat="44.4306937" lon="6.8827125"><ele>1901.6666666666667</ele><time>2026-05-03T13:15:36.106Z</time></trkpt><trkpt lat="44.4305836" lon="6.8829361"><ele>1897.3333333333335</ele><time>2026-05-03T13:15:37.105Z</time></trkpt><trkpt lat="44.4304709" lon="6.8831466"><ele>1893.0</ele><time>2026-05-03T13:15:38.106Z</time></trkpt><trkpt lat="44.4303588" lon="6.8833791"><ele>1899.6666666666665</ele><time>2026-05-03T13:15:39.105Z</time></trkpt><trkpt lat="44.4302518" lon="6.8835959"><ele>1906.3333333333333</ele><time>2026-05-03T13:15:40.106Z</time></trkpt><trkpt lat="44.4301397" lon="6.8838064"><ele>1913.0</ele><time>2026-05-03T13:15:41.106Z</time></trkpt><trkpt lat="44.4300297" lon="6.8840296"><ele>1913.0</ele><time>2026-05-03T13:15:42.105Z</time></trkpt><trkpt lat="44.429928" lon="6.8842497"><ele>1913.0</ele><time>2026-05-03T13:15:43.106Z</time></trkpt><trkpt lat="44.4298448" lon="6.8844915"><ele>1913.0</ele><time>2026-05-03T13:15:44.106Z</time></trkpt><trkpt lat="44.4297687" lon="6.8847331"><ele>1914.6666666666665</ele><time>2026-05-03T13:15:45.106Z</time></trkpt><trkpt lat="44.4296851" lon="6.8849698"><ele>1916.3333333333335</ele><time>2026-05-03T13:15:46.106Z</time></trkpt><trkpt lat="44.4295805" lon="6.8851845"><ele>1918.0</ele><time>2026-05-03T13:15:47.105Z</time></trkpt><trkpt lat="44.4294618" lon="6.8853847"><ele>1918.0</ele><time>2026-05-03T13:15:48.105Z</time></trkpt><trkpt lat="44.4293187" lon="6.8855529"><ele>1918.0</ele><time>2026-05-03T13:15:49.106Z</time></trkpt><trkpt lat="44.4291818" lon="6.8857336"><ele>1918.0</ele><time>2026-05-03T13:15:50.106Z</time></trkpt><trkpt lat="44.429055" lon="6.8859289"><ele>1914.6666666666667</ele><time>2026-05-03T13:15:51.106Z</time></trkpt><trkpt lat="44.4289281" lon="6.8861406"><ele>1911.3333333333335</ele><time>2026-05-03T13:15:52.106Z</time></trkpt><trkpt lat="44.4288074" lon="6.8863544"><ele>1908.0</ele><time>2026-05-03T13:15:53.105Z</time></trkpt><trkpt lat="44.428693" lon="6.8865728"><ele>1914.3333333333335</ele><time>2026-05-03T13:15:54.105Z</time></trkpt><trkpt lat="44.4285787" lon="6.8867861"><ele>1920.6666666666667</ele><time>2026-05-03T13:15:55.106Z</time></trkpt><trkpt lat="44.4284737" lon="6.8869951"><ele>1927.0</ele><time>2026-05-03T13:15:56.106Z</time></trkpt><trkpt lat="44.4283687" lon="6.887173"><ele>1927.0</ele><time>2026-05-03T13:15:57.106Z</time></trkpt><trkpt lat="44.4282863" lon="6.8873623"><ele>1927.0</ele><time>2026-05-03T13:15:58.106Z</time></trkpt><trkpt lat="44.4281858" lon="6.887538"><ele>1927.0</ele><time>2026-05-03T13:15:59.106Z</time></trkpt><trkpt lat="44.428113" lon="6.887723"><ele>1927.0</ele><time>2026-05-03T13:16:00.106Z</time></trkpt><trkpt lat="44.4280188" lon="6.8879183"><ele>1927.0</ele><time>2026-05-03T13:16:01.106Z</time></trkpt><trkpt lat="44.4279214" lon="6.8880959"><ele>1927.0</ele><time>2026-05-03T13:16:02.106Z</time></trkpt><trkpt lat="44.4278293" lon="6.8882684"><ele>1928.25</ele><time>2026-05-03T13:16:03.106Z</time></trkpt><trkpt lat="44.4277442" lon="6.8884442"><ele>1929.5</ele><time>2026-05-03T13:16:04.106Z</time></trkpt><trkpt lat="44.427648" lon="6.888632"><ele>1930.75</ele><time>2026-05-03T13:16:05.106Z</time></trkpt><trkpt lat="44.4275672" lon="6.8887786"><ele>1932.0</ele><time>2026-05-03T13:16:06.105Z</time></trkpt><trkpt lat="44.4274965" lon="6.8889308"><ele>1932.0</ele><time>2026-05-03T13:16:07.106Z</time></trkpt><trkpt lat="44.427442" lon="6.8890815"><ele>1932.0</ele><time>2026-05-03T13:16:08.106Z</time></trkpt><trkpt lat="44.4274065" lon="6.8892341"><ele>1932.0</ele><time>2026-05-03T13:16:09.105Z</time></trkpt><trkpt lat="44.4274098" lon="6.8894163"><ele>1932.0</ele><time>2026-05-03T13:16:10.106Z</time></trkpt><trkpt lat="44.4274228" lon="6.8895868"><ele>1933.6666666666665</ele><time>2026-05-03T13:16:11.106Z</time></trkpt><trkpt lat="44.4274617" lon="6.8897956"><ele>1935.3333333333333</ele><time>2026-05-03T13:16:12.105Z</time></trkpt><trkpt lat="44.4275108" lon="6.8900206"><ele>1937.0</ele><time>2026-05-03T13:16:13.106Z</time></trkpt><trkpt lat="44.4275556" lon="6.89025"><ele>1939.0</ele><time>2026-05-03T13:16:14.106Z</time></trkpt><trkpt lat="44.427602" lon="6.8904894"><ele>1941.0</ele><time>2026-05-03T13:16:15.106Z</time></trkpt><trkpt lat="44.4276439" lon="6.8907332"><ele>1943.0</ele><time>2026-05-03T13:16:16.106Z</time></trkpt><trkpt lat="44.4276418" lon="6.890997"><ele>1945.0</ele><time>2026-05-03T13:16:17.106Z</time></trkpt><trkpt lat="44.4276135" lon="6.8912438"><ele>1947.0</ele><time>2026-05-03T13:16:18.106Z</time></trkpt><trkpt lat="44.4275782" lon="6.8914889"><ele>1949.0</ele><time>2026-05-03T13:16:19.106Z</time></trkpt><trkpt lat="44.4275026" lon="6.8917307"><ele>1951.3333333333333</ele><time>2026-05-03T13:16:20.106Z</time></trkpt><trkpt lat="44.4274338" lon="6.8919487"><ele>1953.6666666666665</ele><time>2026-05-03T13:16:21.106Z</time></trkpt><trkpt lat="44.4273577" lon="6.8921437"><ele>1956.0</ele><time>2026-05-03T13:16:22.105Z</time></trkpt><trkpt lat="44.4272614" lon="6.8923159"><ele>1955.0</ele><time>2026-05-03T13:16:23.106Z</time></trkpt><trkpt lat="44.4271254" lon="6.8924332"><ele>1954.0</ele><time>2026-05-03T13:16:24.106Z</time></trkpt><trkpt lat="44.4269733" lon="6.892526"><ele>1953.0</ele><time>2026-05-03T13:16:25.105Z</time></trkpt><trkpt lat="44.4268423" lon="6.8926105"><ele>1956.3333333333335</ele><time>2026-05-03T13:16:26.106Z</time></trkpt><trkpt lat="44.4266847" lon="6.8927123"><ele>1959.6666666666667</ele><time>2026-05-03T13:16:27.106Z</time></trkpt><trkpt lat="44.4265376" lon="6.8928101"><ele>1963.0</ele><time>2026-05-03T13:16:28.106Z</time></trkpt><trkpt lat="44.4263968" lon="6.8929524"><ele>1963.6666666666667</ele><time>2026-05-03T13:16:29.106Z</time></trkpt><trkpt lat="44.426265" lon="6.8931199"><ele>1964.3333333333335</ele><time>2026-05-03T13:16:30.106Z</time></trkpt><trkpt lat="44.4261382" lon="6.8933073"><ele>1965.0</ele><time>2026-05-03T13:16:31.106Z</time></trkpt><trkpt lat="44.4260062" lon="6.8935021"><ele>1965.0</ele><time>2026-05-03T13:16:32.106Z</time></trkpt><trkpt lat="44.4258845" lon="6.8937258"><ele>1965.0</ele><time>2026-05-03T13:16:33.106Z</time></trkpt><trkpt lat="44.4257706" lon="6.8939422"><ele>1965.0</ele><time>2026-05-03T13:16:34.106Z</time></trkpt><trkpt lat="44.4256414" lon="6.8941731"><ele>1967.0</ele><time>2026-05-03T13:16:35.106Z</time></trkpt><trkpt lat="44.4255094" lon="6.8944158"><ele>1969.0</ele><time>2026-05-03T13:16:36.106Z</time></trkpt><trkpt lat="44.4253744" lon="6.8946507"><ele>1971.0</ele><time>2026-05-03T13:16:37.106Z</time></trkpt><trkpt lat="44.4252551" lon="6.8948605"><ele>1972.3333333333335</ele><time>2026-05-03T13:16:38.106Z</time></trkpt><trkpt lat="44.4251303" lon="6.8950725"><ele>1973.6666666666667</ele><time>2026-05-03T13:16:39.105Z</time></trkpt><trkpt lat="44.42502" lon="6.8952263"><ele>1975.0</ele><time>2026-05-03T13:16:40.106Z</time></trkpt><trkpt lat="44.4248868" lon="6.8953828"><ele>1975.3333333333335</ele><time>2026-05-03T13:16:41.105Z</time></trkpt><trkpt lat="44.4247358" lon="6.8955248"><ele>1975.6666666666665</ele><time>2026-05-03T13:16:42.105Z</time></trkpt><trkpt lat="44.4245726" lon="6.8956201"><ele>1976.0</ele><time>2026-05-03T13:16:43.106Z</time></trkpt><trkpt lat="44.4243809" lon="6.8956913"><ele>1976.0</ele><time>2026-05-03T13:16:44.106Z</time></trkpt><trkpt lat="44.4241934" lon="6.8957469"><ele>1976.0</ele><time>2026-05-03T13:16:45.106Z</time></trkpt><trkpt lat="44.4240108" lon="6.8958012"><ele>1976.0</ele><time>2026-05-03T13:16:46.105Z</time></trkpt><trkpt lat="44.4238286" lon="6.8958722"><ele>1979.6666666666665</ele><time>2026-05-03T13:16:47.105Z</time></trkpt><trkpt lat="44.4236851" lon="6.8959509"><ele>1983.3333333333335</ele><time>2026-05-03T13:16:48.106Z</time></trkpt><trkpt lat="44.4235451" lon="6.8960513"><ele>1987.0</ele><time>2026-05-03T13:16:49.106Z</time></trkpt><trkpt lat="44.4234021" lon="6.8961646"><ele>1987.0</ele><time>2026-05-03T13:16:50.106Z</time></trkpt><trkpt lat="44.4232784" lon="6.8963118"><ele>1987.0</ele><time>2026-05-03T13:16:51.106Z</time></trkpt><trkpt lat="44.4231617" lon="6.8964504"><ele>1987.0</ele><time>2026-05-03T13:16:52.106Z</time></trkpt><trkpt lat="44.4230445" lon="6.8966011"><ele>1989.0</ele><time>2026-05-03T13:16:53.106Z</time></trkpt><trkpt lat="44.4229415" lon="6.8967632"><ele>1991.0</ele><time>2026-05-03T13:16:54.106Z</time></trkpt><trkpt lat="44.4228266" lon="6.8969194"><ele>1993.0</ele><time>2026-05-03T13:16:55.106Z</time></trkpt><trkpt lat="44.4227252" lon="6.8970646"><ele>1993.0</ele><time>2026-05-03T13:16:56.106Z</time></trkpt><trkpt lat="44.4226145" lon="6.8972124"><ele>1993.0</ele><time>2026-05-03T13:16:57.106Z</time></trkpt><trkpt lat="44.4224953" lon="6.8973725"><ele>1993.0</ele><time>2026-05-03T13:16:58.106Z</time></trkpt><trkpt lat="44.4223909" lon="6.897516"><ele>1992.75</ele><time>2026-05-03T13:16:59.106Z</time></trkpt><trkpt lat="44.4222889" lon="6.8976597"><ele>1992.5</ele><time>2026-05-03T13:17:00.106Z</time></trkpt><trkpt lat="44.4221979" lon="6.8977851"><ele>1992.25</ele><time>2026-05-03T13:17:01.106Z</time></trkpt><trkpt lat="44.4221166" lon="6.8978994"><ele>1992.0</ele><time>2026-05-03T13:17:02.105Z</time></trkpt><trkpt lat="44.422046" lon="6.8980104"><ele>1992.5</ele><time>2026-05-03T13:17:03.105Z</time></trkpt><trkpt lat="44.4219842" lon="6.898105"><ele>1993.0</ele><time>2026-05-03T13:17:04.106Z</time></trkpt><trkpt lat="44.4219283" lon="6.8981914"><ele>1993.5</ele><time>2026-05-03T13:17:05.106Z</time></trkpt><trkpt lat="44.4218839" lon="6.898263"><ele>1994.0</ele><time>2026-05-03T13:17:06.106Z</time></trkpt><trkpt lat="44.4218193" lon="6.8983604"><ele>1994.5</ele><time>2026-05-03T13:17:08.106Z</time></trkpt><trkpt lat="44.4217759" lon="6.8984244"><ele>1995.0</ele><time>2026-05-03T13:17:10.106Z</time></trkpt><trkpt lat="44.4217323" lon="6.8985173"><ele>1995.0</ele><time>2026-05-03T13:20:00.118Z</time></trkpt><trkpt lat="44.4217002" lon="6.8985972"><ele>1995.0</ele><time>2026-05-03T13:20:02.118Z</time></trkpt><trkpt lat="44.4216376" lon="6.8987165"><ele>1995.0</ele><time>2026-05-03T13:20:04.117Z</time></trkpt><trkpt lat="44.4215856" lon="6.8987882"><ele>1995.0</ele><time>2026-05-03T13:20:05.118Z</time></trkpt><trkpt lat="44.4215346" lon="6.8988776"><ele>1995.0</ele><time>2026-05-03T13:20:06.118Z</time></trkpt><trkpt lat="44.4214787" lon="6.8989802"><ele>1995.0</ele><time>2026-05-03T13:20:07.118Z</time></trkpt><trkpt lat="44.4214089" lon="6.8990831"><ele>1995.0</ele><time>2026-05-03T13:20:08.118Z</time></trkpt><trkpt lat="44.4213372" lon="6.8991928"><ele>1995.0</ele><time>2026-05-03T13:20:09.117Z</time></trkpt><trkpt lat="44.4212649" lon="6.8993055"><ele>1995.0</ele><time>2026-05-03T13:20:10.117Z</time></trkpt><trkpt lat="44.4211842" lon="6.899424"><ele>1995.0</ele><time>2026-05-03T13:20:11.118Z</time></trkpt><trkpt lat="44.4211025" lon="6.8995348"><ele>1995.0</ele><time>2026-05-03T13:20:12.118Z</time></trkpt><trkpt lat="44.4210155" lon="6.8996411"><ele>1994.5</ele><time>2026-05-03T13:20:13.118Z</time></trkpt><trkpt lat="44.4209331" lon="6.8997418"><ele>1994.0</ele><time>2026-05-03T13:20:14.118Z</time></trkpt><trkpt lat="44.4208399" lon="6.8998437"><ele>1993.5</ele><time>2026-05-03T13:20:15.117Z</time></trkpt><trkpt lat="44.4207518" lon="6.8999404"><ele>1993.0</ele><time>2026-05-03T13:20:16.118Z</time></trkpt><trkpt lat="44.4206652" lon="6.9000395"><ele>1991.75</ele><time>2026-05-03T13:20:17.118Z</time></trkpt><trkpt lat="44.4205707" lon="6.9001452"><ele>1990.5</ele><time>2026-05-03T13:20:18.118Z</time></trkpt><trkpt lat="44.4204854" lon="6.9002529"><ele>1989.25</ele><time>2026-05-03T13:20:19.118Z</time></trkpt><trkpt lat="44.4203698" lon="6.9003632"><ele>1988.0</ele><time>2026-05-03T13:20:20.118Z</time></trkpt><trkpt lat="44.4202449" lon="6.900469"><ele>1988.0</ele><time>2026-05-03T13:20:21.118Z</time></trkpt><trkpt lat="44.4201045" lon="6.9005425"><ele>1988.0</ele><time>2026-05-03T13:20:22.118Z</time></trkpt><trkpt lat="44.4199734" lon="6.9005974"><ele>1988.0</ele><time>2026-05-03T13:20:23.117Z</time></trkpt><trkpt lat="44.4198499" lon="6.9006568"><ele>1988.0</ele><time>2026-05-03T13:20:24.118Z</time></trkpt><trkpt lat="44.4197234" lon="6.9007105"><ele>1988.5</ele><time>2026-05-03T13:20:25.118Z</time></trkpt><trkpt lat="44.4196165" lon="6.9008266"><ele>1989.0</ele><time>2026-05-03T13:20:26.117Z</time></trkpt><trkpt lat="44.4195241" lon="6.9009684"><ele>1989.5</ele><time>2026-05-03T13:20:27.118Z</time></trkpt><trkpt lat="44.4194374" lon="6.901143"><ele>1990.0</ele><time>2026-05-03T13:20:28.118Z</time></trkpt><trkpt lat="44.4193578" lon="6.9013305"><ele>1987.6666666666667</ele><time>2026-05-03T13:20:29.117Z</time></trkpt><trkpt lat="44.4192756" lon="6.9015358"><ele>1985.3333333333335</ele><time>2026-05-03T13:20:30.118Z</time></trkpt><trkpt lat="44.419192" lon="6.9017363"><ele>1983.0</ele><time>2026-05-03T13:20:31.117Z</time></trkpt><trkpt lat="44.419107" lon="6.9019388"><ele>1983.0</ele><time>2026-05-03T13:20:32.117Z</time></trkpt><trkpt lat="44.4190263" lon="6.9021411"><ele>1983.0</ele><time>2026-05-03T13:20:33.118Z</time></trkpt><trkpt lat="44.4189509" lon="6.9023375"><ele>1983.0</ele><time>2026-05-03T13:20:34.118Z</time></trkpt><trkpt lat="44.4188761" lon="6.9025386"><ele>1979.0</ele><time>2026-05-03T13:20:35.118Z</time></trkpt><trkpt lat="44.4188187" lon="6.9027527"><ele>1975.0</ele><time>2026-05-03T13:20:36.118Z</time></trkpt><trkpt lat="44.4187624" lon="6.9029733"><ele>1971.0</ele><time>2026-05-03T13:20:37.118Z</time></trkpt><trkpt lat="44.4187096" lon="6.9031976"><ele>1971.6666666666665</ele><time>2026-05-03T13:20:38.117Z</time></trkpt><trkpt lat="44.418666" lon="6.9034456"><ele>1972.3333333333333</ele><time>2026-05-03T13:20:39.117Z</time></trkpt><trkpt lat="44.4186251" lon="6.9036717"><ele>1973.0</ele><time>2026-05-03T13:20:40.118Z</time></trkpt><trkpt lat="44.4185777" lon="6.9039276"><ele>1973.0</ele><time>2026-05-03T13:20:41.118Z</time></trkpt><trkpt lat="44.4185309" lon="6.9041667"><ele>1973.0</ele><time>2026-05-03T13:20:42.118Z</time></trkpt><trkpt lat="44.4184772" lon="6.9044119"><ele>1973.0</ele><time>2026-05-03T13:20:43.118Z</time></trkpt><trkpt lat="44.4184167" lon="6.9046519"><ele>1974.25</ele><time>2026-05-03T13:20:44.118Z</time></trkpt><trkpt lat="44.4183578" lon="6.9048675"><ele>1975.5</ele><time>2026-05-03T13:20:45.118Z</time></trkpt><trkpt lat="44.4183045" lon="6.9050553"><ele>1976.75</ele><time>2026-05-03T13:20:46.118Z</time></trkpt><trkpt lat="44.4182552" lon="6.9052278"><ele>1978.0</ele><time>2026-05-03T13:20:47.118Z</time></trkpt><trkpt lat="44.4181963" lon="6.9053921"><ele>1976.5</ele><time>2026-05-03T13:20:48.118Z</time></trkpt><trkpt lat="44.418107" lon="6.9055006"><ele>1975.0</ele><time>2026-05-03T13:20:49.118Z</time></trkpt><trkpt lat="44.4179947" lon="6.9055792"><ele>1973.5</ele><time>2026-05-03T13:20:50.118Z</time></trkpt><trkpt lat="44.4178611" lon="6.905618"><ele>1972.0</ele><time>2026-05-03T13:20:51.118Z</time></trkpt><trkpt lat="44.4177177" lon="6.9056272"><ele>1972.0</ele><time>2026-05-03T13:20:52.118Z</time></trkpt><trkpt lat="44.4175312" lon="6.9056446"><ele>1972.0</ele><time>2026-05-03T13:20:53.118Z</time></trkpt><trkpt lat="44.4173405" lon="6.9056592"><ele>1972.0</ele><time>2026-05-03T13:20:54.118Z</time></trkpt><trkpt lat="44.4171566" lon="6.9056815"><ele>1971.3333333333335</ele><time>2026-05-03T13:20:55.118Z</time></trkpt><trkpt lat="44.4169716" lon="6.9057081"><ele>1970.6666666666665</ele><time>2026-05-03T13:20:56.118Z</time></trkpt><trkpt lat="44.4168136" lon="6.9057488"><ele>1970.0</ele><time>2026-05-03T13:20:57.117Z</time></trkpt><trkpt lat="44.4166514" lon="6.9057961"><ele>1970.0</ele><time>2026-05-03T13:20:58.118Z</time></trkpt><trkpt lat="44.416501" lon="6.9058503"><ele>1970.0</ele><time>2026-05-03T13:20:59.118Z</time></trkpt><trkpt lat="44.4163485" lon="6.9059045"><ele>1970.0</ele><time>2026-05-03T13:21:00.117Z</time></trkpt><trkpt lat="44.4162108" lon="6.9059567"><ele>1971.6666666666665</ele><time>2026-05-03T13:21:01.117Z</time></trkpt><trkpt lat="44.4160779" lon="6.9060234"><ele>1973.3333333333335</ele><time>2026-05-03T13:21:02.118Z</time></trkpt><trkpt lat="44.4159484" lon="6.9061546"><ele>1975.0</ele><time>2026-05-03T13:21:03.117Z</time></trkpt><trkpt lat="44.4158234" lon="6.9063044"><ele>1975.0</ele><time>2026-05-03T13:21:04.117Z</time></trkpt><trkpt lat="44.4157072" lon="6.9064665"><ele>1975.0</ele><time>2026-05-03T13:21:05.118Z</time></trkpt><trkpt lat="44.4155988" lon="6.9066365"><ele>1975.0</ele><time>2026-05-03T13:21:06.118Z</time></trkpt><trkpt lat="44.4154805" lon="6.9068685"><ele>1975.0</ele><time>2026-05-03T13:21:07.118Z</time></trkpt><trkpt lat="44.4153706" lon="6.9070931"><ele>1975.0</ele><time>2026-05-03T13:21:08.118Z</time></trkpt><trkpt lat="44.4152518" lon="6.9073516"><ele>1975.0</ele><time>2026-05-03T13:21:09.117Z</time></trkpt><trkpt lat="44.4151268" lon="6.9076174"><ele>1975.0</ele><time>2026-05-03T13:21:10.118Z</time></trkpt><trkpt lat="44.414999" lon="6.9078766"><ele>1975.0</ele><time>2026-05-03T13:21:11.118Z</time></trkpt><trkpt lat="44.4148715" lon="6.9081255"><ele>1975.0</ele><time>2026-05-03T13:21:12.118Z</time></trkpt><trkpt lat="44.4147464" lon="6.9083573"><ele>1975.0</ele><time>2026-05-03T13:21:13.118Z</time></trkpt><trkpt lat="44.4146176" lon="6.9085708"><ele>1975.0</ele><time>2026-05-03T13:21:14.118Z</time></trkpt><trkpt lat="44.4144783" lon="6.9087714"><ele>1975.0</ele><time>2026-05-03T13:21:15.118Z</time></trkpt><trkpt lat="44.4143395" lon="6.9089727"><ele>1975.0</ele><time>2026-05-03T13:21:16.118Z</time></trkpt><trkpt lat="44.4142002" lon="6.9091618"><ele>1975.0</ele><time>2026-05-03T13:21:17.117Z</time></trkpt><trkpt lat="44.4140697" lon="6.9093609"><ele>1975.0</ele><time>2026-05-03T13:21:18.118Z</time></trkpt><trkpt lat="44.4139406" lon="6.9095701"><ele>1975.3333333333335</ele><time>2026-05-03T13:21:19.118Z</time></trkpt><trkpt lat="44.4138121" lon="6.9097767"><ele>1975.6666666666665</ele><time>2026-05-03T13:21:20.118Z</time></trkpt><trkpt lat="44.4136797" lon="6.9100038"><ele>1976.0</ele><time>2026-05-03T13:21:21.118Z</time></trkpt><trkpt lat="44.4135534" lon="6.9102318"><ele>1973.6666666666665</ele><time>2026-05-03T13:21:22.117Z</time></trkpt><trkpt lat="44.4134265" lon="6.9104496"><ele>1971.3333333333335</ele><time>2026-05-03T13:21:23.118Z</time></trkpt><trkpt lat="44.4132996" lon="6.910703"><ele>1969.0</ele><time>2026-05-03T13:21:24.118Z</time></trkpt><trkpt lat="44.4131784" lon="6.9109433"><ele>1969.0</ele><time>2026-05-03T13:21:25.118Z</time></trkpt><trkpt lat="44.4130552" lon="6.9111827"><ele>1969.0</ele><time>2026-05-03T13:21:26.118Z</time></trkpt><trkpt lat="44.412935" lon="6.9114243"><ele>1969.0</ele><time>2026-05-03T13:21:27.118Z</time></trkpt><trkpt lat="44.4128287" lon="6.9116709"><ele>1967.6666666666667</ele><time>2026-05-03T13:21:28.118Z</time></trkpt><trkpt lat="44.4127298" lon="6.9119206"><ele>1966.3333333333335</ele><time>2026-05-03T13:21:29.118Z</time></trkpt><trkpt lat="44.4126435" lon="6.9121735"><ele>1965.0</ele><time>2026-05-03T13:21:30.118Z</time></trkpt><trkpt lat="44.4125624" lon="6.912424"><ele>1968.0</ele><time>2026-05-03T13:21:31.118Z</time></trkpt><trkpt lat="44.4124802" lon="6.9126584"><ele>1971.0</ele><time>2026-05-03T13:21:32.118Z</time></trkpt><trkpt lat="44.4123871" lon="6.9128833"><ele>1974.0</ele><time>2026-05-03T13:21:33.118Z</time></trkpt><trkpt lat="44.4123012" lon="6.9131339"><ele>1971.0</ele><time>2026-05-03T13:21:34.118Z</time></trkpt><trkpt lat="44.4121561" lon="6.9133452"><ele>1968.0</ele><time>2026-05-03T13:21:35.118Z</time></trkpt><trkpt lat="44.4120154" lon="6.9135567"><ele>1965.0</ele><time>2026-05-03T13:21:36.118Z</time></trkpt><trkpt lat="44.4118789" lon="6.9137637"><ele>1965.0</ele><time>2026-05-03T13:21:37.118Z</time></trkpt><trkpt lat="44.4117234" lon="6.9139603"><ele>1965.0</ele><time>2026-05-03T13:21:38.117Z</time></trkpt><trkpt lat="44.4115569" lon="6.9141518"><ele>1965.0</ele><time>2026-05-03T13:21:39.118Z</time></trkpt><trkpt lat="44.4113944" lon="6.914351"><ele>1964.0</ele><time>2026-05-03T13:21:40.118Z</time></trkpt><trkpt lat="44.4112202" lon="6.9145416"><ele>1963.0</ele><time>2026-05-03T13:21:41.118Z</time></trkpt><trkpt lat="44.4110444" lon="6.9147313"><ele>1962.0</ele><time>2026-05-03T13:21:42.118Z</time></trkpt><trkpt lat="44.4108657" lon="6.9149033"><ele>1962.6666666666665</ele><time>2026-05-03T13:21:43.118Z</time></trkpt><trkpt lat="44.4106832" lon="6.9150761"><ele>1963.3333333333333</ele><time>2026-05-03T13:21:44.117Z</time></trkpt><trkpt lat="44.410505" lon="6.9152188"><ele>1964.0</ele><time>2026-05-03T13:21:45.118Z</time></trkpt><trkpt lat="44.4103273" lon="6.9153611"><ele>1964.0</ele><time>2026-05-03T13:21:46.118Z</time></trkpt><trkpt lat="44.4101694" lon="6.9154836"><ele>1964.0</ele><time>2026-05-03T13:21:47.118Z</time></trkpt><trkpt lat="44.4100078" lon="6.9156052"><ele>1964.0</ele><time>2026-05-03T13:21:48.118Z</time></trkpt><trkpt lat="44.4098457" lon="6.9156964"><ele>1964.0</ele><time>2026-05-03T13:21:49.117Z</time></trkpt><trkpt lat="44.4096947" lon="6.9157558"><ele>1964.0</ele><time>2026-05-03T13:21:50.118Z</time></trkpt><trkpt lat="44.4095455" lon="6.9158251"><ele>1964.0</ele><time>2026-05-03T13:21:51.118Z</time></trkpt><trkpt lat="44.409391" lon="6.9159069"><ele>1963.0</ele><time>2026-05-03T13:21:52.118Z</time></trkpt><trkpt lat="44.4092401" lon="6.9160122"><ele>1962.0</ele><time>2026-05-03T13:21:53.117Z</time></trkpt><trkpt lat="44.4090907" lon="6.9161284"><ele>1961.0</ele><time>2026-05-03T13:21:54.118Z</time></trkpt><trkpt lat="44.408944" lon="6.916255"><ele>1957.3333333333333</ele><time>2026-05-03T13:21:55.117Z</time></trkpt><trkpt lat="44.4087937" lon="6.9163816"><ele>1953.6666666666665</ele><time>2026-05-03T13:21:56.118Z</time></trkpt><trkpt lat="44.4086661" lon="6.9165525"><ele>1950.0</ele><time>2026-05-03T13:21:57.118Z</time></trkpt><trkpt lat="44.4085511" lon="6.9167539"><ele>1950.0</ele><time>2026-05-03T13:21:58.118Z</time></trkpt><trkpt lat="44.4084406" lon="6.9169744"><ele>1950.0</ele><time>2026-05-03T13:21:59.118Z</time></trkpt><trkpt lat="44.4083291" lon="6.9172055"><ele>1950.0</ele><time>2026-05-03T13:22:00.118Z</time></trkpt><trkpt lat="44.4082203" lon="6.917429"><ele>1946.0</ele><time>2026-05-03T13:22:01.117Z</time></trkpt><trkpt lat="44.408114" lon="6.9176364"><ele>1942.0</ele><time>2026-05-03T13:22:02.118Z</time></trkpt><trkpt lat="44.4079996" lon="6.9178317"><ele>1938.0</ele><time>2026-05-03T13:22:03.118Z</time></trkpt><trkpt lat="44.407874" lon="6.9180131"><ele>1938.0</ele><time>2026-05-03T13:22:04.118Z</time></trkpt><trkpt lat="44.407745" lon="6.9181667"><ele>1938.0</ele><time>2026-05-03T13:22:05.118Z</time></trkpt><trkpt lat="44.4076316" lon="6.9183146"><ele>1938.0</ele><time>2026-05-03T13:22:06.118Z</time></trkpt><trkpt lat="44.407555" lon="6.9184948"><ele>1937.0</ele><time>2026-05-03T13:22:07.118Z</time></trkpt><trkpt lat="44.4074786" lon="6.9186689"><ele>1936.0</ele><time>2026-05-03T13:22:08.118Z</time></trkpt><trkpt lat="44.4074648" lon="6.9188858"><ele>1935.0</ele><time>2026-05-03T13:22:09.118Z</time></trkpt><trkpt lat="44.407451" lon="6.919094"><ele>1935.75</ele><time>2026-05-03T13:22:10.118Z</time></trkpt><trkpt lat="44.407445" lon="6.9193057"><ele>1936.5</ele><time>2026-05-03T13:22:11.118Z</time></trkpt><trkpt lat="44.4074147" lon="6.9195038"><ele>1937.25</ele><time>2026-05-03T13:22:12.118Z</time></trkpt><trkpt lat="44.4073519" lon="6.9196741"><ele>1938.0</ele><time>2026-05-03T13:22:13.118Z</time></trkpt><trkpt lat="44.407259" lon="6.9198276"><ele>1934.5</ele><time>2026-05-03T13:22:14.117Z</time></trkpt><trkpt lat="44.4071388" lon="6.9199372"><ele>1931.0</ele><time>2026-05-03T13:22:15.118Z</time></trkpt><trkpt lat="44.4070154" lon="6.9199951"><ele>1927.5</ele><time>2026-05-03T13:22:16.118Z</time></trkpt><trkpt lat="44.4069047" lon="6.9200555"><ele>1924.0</ele><time>2026-05-03T13:22:17.118Z</time></trkpt><trkpt lat="44.4068076" lon="6.92011"><ele>1924.0</ele><time>2026-05-03T13:22:18.118Z</time></trkpt><trkpt lat="44.4067238" lon="6.9201822"><ele>1924.0</ele><time>2026-05-03T13:22:19.117Z</time></trkpt><trkpt lat="44.406679" lon="6.9203026"><ele>1924.0</ele><time>2026-05-03T13:22:20.118Z</time></trkpt><trkpt lat="44.4066412" lon="6.9204149"><ele>1924.0</ele><time>2026-05-03T13:22:21.118Z</time></trkpt><trkpt lat="44.4066077" lon="6.9205031"><ele>1924.0</ele><time>2026-05-03T13:22:22.117Z</time></trkpt><trkpt lat="44.4065309" lon="6.9205922"><ele>1924.0000000000002</ele><time>2026-05-03T13:22:24.118Z</time></trkpt><trkpt lat="44.4064893" lon="6.920478"><ele>1924.0</ele><time>2026-05-03T13:22:26.118Z</time></trkpt><trkpt lat="44.4065146" lon="6.9203931"><ele>1924.0</ele><time>2026-05-03T13:22:27.118Z</time></trkpt><trkpt lat="44.4065564" lon="6.9203139"><ele>1924.0</ele><time>2026-05-03T13:22:28.117Z</time></trkpt><trkpt lat="44.4066042" lon="6.9201646"><ele>1924.0000000000002</ele><time>2026-05-03T13:22:30.118Z</time></trkpt><trkpt lat="44.4065492" lon="6.9201147"><ele>1924.0</ele><time>2026-05-03T13:22:31.118Z</time></trkpt><trkpt lat="44.4064276" lon="6.9201382"><ele>1924.0</ele><time>2026-05-03T13:22:33.118Z</time></trkpt><trkpt lat="44.406351" lon="6.9202508"><ele>1924.0</ele><time>2026-05-03T13:22:34.118Z</time></trkpt><trkpt lat="44.4062886" lon="6.9203927"><ele>1924.0</ele><time>2026-05-03T13:22:35.118Z</time></trkpt><trkpt lat="44.4062255" lon="6.9205603"><ele>1924.0</ele><time>2026-05-03T13:22:36.118Z</time></trkpt><trkpt lat="44.4061696" lon="6.9207564"><ele>1918.25</ele><time>2026-05-03T13:22:37.118Z</time></trkpt><trkpt lat="44.4061016" lon="6.9209383"><ele>1912.5</ele><time>2026-05-03T13:22:38.118Z</time></trkpt><trkpt lat="44.40603" lon="6.9211096"><ele>1906.75</ele><time>2026-05-03T13:22:39.117Z</time></trkpt><trkpt lat="44.4059581" lon="6.921272"><ele>1901.0</ele><time>2026-05-03T13:22:40.118Z</time></trkpt><trkpt lat="44.4058862" lon="6.9214251"><ele>1901.0</ele><time>2026-05-03T13:22:41.118Z</time></trkpt><trkpt lat="44.4058008" lon="6.9215643"><ele>1901.0</ele><time>2026-05-03T13:22:42.117Z</time></trkpt><trkpt lat="44.4057494" lon="6.9217104"><ele>1901.0</ele><time>2026-05-03T13:22:43.118Z</time></trkpt><trkpt lat="44.4056994" lon="6.9218528"><ele>1901.0</ele><time>2026-05-03T13:22:44.118Z</time></trkpt><trkpt lat="44.4056716" lon="6.9219847"><ele>1904.1999999999998</ele><time>2026-05-03T13:22:45.118Z</time></trkpt><trkpt lat="44.40565" lon="6.9221012"><ele>1907.3999999999999</ele><time>2026-05-03T13:22:46.118Z</time></trkpt><trkpt lat="44.4056306" lon="6.9222031"><ele>1910.6</ele><time>2026-05-03T13:22:47.118Z</time></trkpt><trkpt lat="44.4056019" lon="6.9222972"><ele>1913.8</ele><time>2026-05-03T13:22:48.118Z</time></trkpt><trkpt lat="44.4055078" lon="6.9222149"><ele>1917.0</ele><time>2026-05-03T13:22:50.117Z</time></trkpt><trkpt lat="44.4055176" lon="6.9220461"><ele>1917.0</ele><time>2026-05-03T13:22:52.118Z</time></trkpt><trkpt lat="44.4055629" lon="6.9219289"><ele>1917.0</ele><time>2026-05-03T13:22:53.118Z</time></trkpt><trkpt lat="44.4056057" lon="6.9218128"><ele>1917.0</ele><time>2026-05-03T13:22:54.118Z</time></trkpt><trkpt lat="44.4056399" lon="6.9217026"><ele>1917.0</ele><time>2026-05-03T13:22:55.117Z</time></trkpt><trkpt lat="44.4056629" lon="6.9216031"><ele>1917.0</ele><time>2026-05-03T13:22:56.118Z</time></trkpt><trkpt lat="44.4056209" lon="6.9214885"><ele>1917.0</ele><time>2026-05-03T13:22:58.118Z</time></trkpt><trkpt lat="44.4055084" lon="6.9214589"><ele>1910.3999999999999</ele><time>2026-05-03T13:23:00.118Z</time></trkpt><trkpt lat="44.4054649" lon="6.9215915"><ele>1903.7999999999997</ele><time>2026-05-03T13:23:01.117Z</time></trkpt><trkpt lat="44.4054144" lon="6.9216795"><ele>1897.2</ele><time>2026-05-03T13:23:02.118Z</time></trkpt><trkpt lat="44.4054043" lon="6.9218545"><ele>1890.6</ele><time>2026-05-03T13:23:03.118Z</time></trkpt><trkpt lat="44.4053848" lon="6.9219987"><ele>1884.0</ele><time>2026-05-03T13:23:04.118Z</time></trkpt><trkpt lat="44.405353" lon="6.9221494"><ele>1883.5</ele><time>2026-05-03T13:23:05.118Z</time></trkpt><trkpt lat="44.4053044" lon="6.9223094"><ele>1883.0</ele><time>2026-05-03T13:23:06.118Z</time></trkpt><trkpt lat="44.4052417" lon="6.9224747"><ele>1882.5</ele><time>2026-05-03T13:23:07.118Z</time></trkpt><trkpt lat="44.405162" lon="6.9226344"><ele>1882.0</ele><time>2026-05-03T13:23:08.118Z</time></trkpt><trkpt lat="44.4050823" lon="6.922799"><ele>1886.0</ele><time>2026-05-03T13:23:09.118Z</time></trkpt><trkpt lat="44.4049967" lon="6.9229456"><ele>1890.0</ele><time>2026-05-03T13:23:10.118Z</time></trkpt><trkpt lat="44.4048978" lon="6.9230818"><ele>1894.0</ele><time>2026-05-03T13:23:11.118Z</time></trkpt><trkpt lat="44.4047884" lon="6.9231948"><ele>1898.0</ele><time>2026-05-03T13:23:12.118Z</time></trkpt><trkpt lat="44.4046719" lon="6.9233044"><ele>1894.5</ele><time>2026-05-03T13:23:13.117Z</time></trkpt><trkpt lat="44.4045524" lon="6.9233988"><ele>1891.0</ele><time>2026-05-03T13:23:14.118Z</time></trkpt><trkpt lat="44.4044397" lon="6.9234951"><ele>1887.5</ele><time>2026-05-03T13:23:15.118Z</time></trkpt><trkpt lat="44.4043259" lon="6.9235898"><ele>1884.0</ele><time>2026-05-03T13:23:16.118Z</time></trkpt><trkpt lat="44.4042177" lon="6.9236899"><ele>1884.0</ele><time>2026-05-03T13:23:17.118Z</time></trkpt><trkpt lat="44.4041192" lon="6.9238175"><ele>1884.0</ele><time>2026-05-03T13:23:18.118Z</time></trkpt><trkpt lat="44.4040265" lon="6.9239573"><ele>1884.0</ele><time>2026-05-03T13:23:19.118Z</time></trkpt><trkpt lat="44.4039319" lon="6.9241024"><ele>1884.0</ele><time>2026-05-03T13:23:20.117Z</time></trkpt><trkpt lat="44.4038388" lon="6.9242341"><ele>1885.0</ele><time>2026-05-03T13:23:21.118Z</time></trkpt><trkpt lat="44.4037351" lon="6.9243318"><ele>1886.0</ele><time>2026-05-03T13:23:22.118Z</time></trkpt><trkpt lat="44.4036077" lon="6.9243876"><ele>1887.0</ele><time>2026-05-03T13:23:23.118Z</time></trkpt><trkpt lat="44.4034689" lon="6.9244277"><ele>1888.0</ele><time>2026-05-03T13:23:24.118Z</time></trkpt><trkpt lat="44.4033352" lon="6.924476"><ele>1888.0</ele><time>2026-05-03T13:23:25.118Z</time></trkpt><trkpt lat="44.4032008" lon="6.9245351"><ele>1888.0</ele><time>2026-05-03T13:23:26.118Z</time></trkpt><trkpt lat="44.4030811" lon="6.9246039"><ele>1888.0</ele><time>2026-05-03T13:23:27.117Z</time></trkpt><trkpt lat="44.4029655" lon="6.9246853"><ele>1888.0</ele><time>2026-05-03T13:23:28.118Z</time></trkpt><trkpt lat="44.4028648" lon="6.9247853"><ele>1883.5</ele><time>2026-05-03T13:23:29.118Z</time></trkpt><trkpt lat="44.4027711" lon="6.9249047"><ele>1879.0</ele><time>2026-05-03T13:23:30.118Z</time></trkpt><trkpt lat="44.4026869" lon="6.925048"><ele>1874.5</ele><time>2026-05-03T13:23:31.118Z</time></trkpt><trkpt lat="44.4026324" lon="6.9252205"><ele>1870.0</ele><time>2026-05-03T13:23:32.118Z</time></trkpt><trkpt lat="44.4026045" lon="6.9254073"><ele>1869.5</ele><time>2026-05-03T13:23:33.118Z</time></trkpt><trkpt lat="44.4026107" lon="6.9255929"><ele>1869.0</ele><time>2026-05-03T13:23:34.118Z</time></trkpt><trkpt lat="44.4026254" lon="6.92577"><ele>1868.5</ele><time>2026-05-03T13:23:35.118Z</time></trkpt><trkpt lat="44.4026596" lon="6.9259358"><ele>1868.0</ele><time>2026-05-03T13:23:36.118Z</time></trkpt><trkpt lat="44.4026954" lon="6.9260885"><ele>1867.4999999999998</ele><time>2026-05-03T13:23:37.118Z</time></trkpt><trkpt lat="44.4027323" lon="6.9262314"><ele>1867.0</ele><time>2026-05-03T13:23:38.117Z</time></trkpt><trkpt lat="44.4027489" lon="6.9263626"><ele>1866.5</ele><time>2026-05-03T13:23:39.118Z</time></trkpt><trkpt lat="44.4027254" lon="6.9264721"><ele>1866.0</ele><time>2026-05-03T13:23:40.118Z</time></trkpt><trkpt lat="44.4026829" lon="6.9265609"><ele>1865.4999999999998</ele><time>2026-05-03T13:23:41.118Z</time></trkpt><trkpt lat="44.4026202" lon="6.9266411"><ele>1865.0</ele><time>2026-05-03T13:23:42.118Z</time></trkpt><trkpt lat="44.4025349" lon="6.9265761"><ele>1865.0</ele><time>2026-05-03T13:23:43.118Z</time></trkpt><trkpt lat="44.4024707" lon="6.9265033"><ele>1865.0</ele><time>2026-05-03T13:23:44.118Z</time></trkpt><trkpt lat="44.4024515" lon="6.9263759"><ele>1865.0</ele><time>2026-05-03T13:23:45.117Z</time></trkpt><trkpt lat="44.4024486" lon="6.9262132"><ele>1865.0</ele><time>2026-05-03T13:23:46.118Z</time></trkpt><trkpt lat="44.4024484" lon="6.9260305"><ele>1865.0</ele><time>2026-05-03T13:23:47.118Z</time></trkpt><trkpt lat="44.4024536" lon="6.9258426"><ele>1865.75</ele><time>2026-05-03T13:23:48.118Z</time></trkpt><trkpt lat="44.402447" lon="6.9256679"><ele>1866.5</ele><time>2026-05-03T13:23:49.118Z</time></trkpt><trkpt lat="44.4024236" lon="6.9254941"><ele>1867.25</ele><time>2026-05-03T13:23:50.118Z</time></trkpt><trkpt lat="44.4023631" lon="6.925325"><ele>1868.0</ele><time>2026-05-03T13:23:51.118Z</time></trkpt><trkpt lat="44.402289" lon="6.9251813"><ele>1868.5</ele><time>2026-05-03T13:23:52.117Z</time></trkpt><trkpt lat="44.4021698" lon="6.925054"><ele>1869.0</ele><time>2026-05-03T13:23:53.118Z</time></trkpt><trkpt lat="44.4020481" lon="6.92494"><ele>1869.5</ele><time>2026-05-03T13:23:54.118Z</time></trkpt><trkpt lat="44.4019441" lon="6.9248396"><ele>1870.0</ele><time>2026-05-03T13:23:55.118Z</time></trkpt><trkpt lat="44.4018405" lon="6.9247492"><ele>1865.2</ele><time>2026-05-03T13:23:56.118Z</time></trkpt><trkpt lat="44.4017518" lon="6.9246792"><ele>1860.4</ele><time>2026-05-03T13:23:57.117Z</time></trkpt><trkpt lat="44.4016574" lon="6.9246387"><ele>1855.6</ele><time>2026-05-03T13:23:58.118Z</time></trkpt><trkpt lat="44.4015634" lon="6.9246455"><ele>1850.8</ele><time>2026-05-03T13:23:59.117Z</time></trkpt><trkpt lat="44.4014896" lon="6.9246887"><ele>1846.0</ele><time>2026-05-03T13:24:00.118Z</time></trkpt><trkpt lat="44.4014352" lon="6.9247901"><ele>1846.0</ele><time>2026-05-03T13:24:01.118Z</time></trkpt><trkpt lat="44.4014223" lon="6.9248794"><ele>1846.0</ele><time>2026-05-03T13:24:02.117Z</time></trkpt><trkpt lat="44.4014604" lon="6.924994"><ele>1846.0</ele><time>2026-05-03T13:24:03.118Z</time></trkpt><trkpt lat="44.401524" lon="6.9251104"><ele>1846.0</ele><time>2026-05-03T13:24:04.118Z</time></trkpt><trkpt lat="44.401616" lon="6.9252295"><ele>1846.0</ele><time>2026-05-03T13:24:05.118Z</time></trkpt><trkpt lat="44.4016918" lon="6.9253582"><ele>1844.0</ele><time>2026-05-03T13:24:06.118Z</time></trkpt><trkpt lat="44.4018039" lon="6.92552"><ele>1842.0</ele><time>2026-05-03T13:24:07.118Z</time></trkpt><trkpt lat="44.4018914" lon="6.9256982"><ele>1840.0</ele><time>2026-05-03T13:24:08.117Z</time></trkpt><trkpt lat="44.4019531" lon="6.9258892"><ele>1838.0</ele><time>2026-05-03T13:24:09.118Z</time></trkpt><trkpt lat="44.4019997" lon="6.9260826"><ele>1836.0</ele><time>2026-05-03T13:24:10.118Z</time></trkpt><trkpt lat="44.4020238" lon="6.926286"><ele>1834.0</ele><time>2026-05-03T13:24:11.117Z</time></trkpt><trkpt lat="44.4020254" lon="6.9264877"><ele>1832.0</ele><time>2026-05-03T13:24:12.118Z</time></trkpt><trkpt lat="44.4020157" lon="6.9266893"><ele>1832.0</ele><time>2026-05-03T13:24:13.118Z</time></trkpt><trkpt lat="44.4019966" lon="6.9268791"><ele>1832.0</ele><time>2026-05-03T13:24:14.118Z</time></trkpt><trkpt lat="44.401985" lon="6.9270654"><ele>1832.0</ele><time>2026-05-03T13:24:15.118Z</time></trkpt><trkpt lat="44.4019643" lon="6.9272475"><ele>1832.0</ele><time>2026-05-03T13:24:16.118Z</time></trkpt><trkpt lat="44.401945" lon="6.9273658"><ele>1831.9999999999998</ele><time>2026-05-03T13:24:17.117Z</time></trkpt><trkpt lat="44.4019146" lon="6.9274989"><ele>1832.0</ele><time>2026-05-03T13:24:18.118Z</time></trkpt><trkpt lat="44.401855" lon="6.9275665"><ele>1832.0</ele><time>2026-05-03T13:24:19.118Z</time></trkpt><trkpt lat="44.4017875" lon="6.9275954"><ele>1832.0</ele><time>2026-05-03T13:24:20.117Z</time></trkpt><trkpt lat="44.4017238" lon="6.9275898"><ele>1831.9999999999998</ele><time>2026-05-03T13:24:21.118Z</time></trkpt><trkpt lat="44.4016416" lon="6.9275307"><ele>1832.0</ele><time>2026-05-03T13:24:22.118Z</time></trkpt><trkpt lat="44.4015931" lon="6.9273363"><ele>1832.0</ele><time>2026-05-03T13:24:23.118Z</time></trkpt><trkpt lat="44.4015397" lon="6.9271486"><ele>1832.0</ele><time>2026-05-03T13:24:24.118Z</time></trkpt><trkpt lat="44.4014816" lon="6.9269482"><ele>1832.0</ele><time>2026-05-03T13:24:25.118Z</time></trkpt><trkpt lat="44.4014199" lon="6.9267576"><ele>1832.0</ele><time>2026-05-03T13:24:26.117Z</time></trkpt><trkpt lat="44.4013685" lon="6.9265726"><ele>1827.5</ele><time>2026-05-03T13:24:27.118Z</time></trkpt><trkpt lat="44.4013098" lon="6.9263885"><ele>1823.0</ele><time>2026-05-03T13:24:28.117Z</time></trkpt><trkpt lat="44.4012488" lon="6.9261938"><ele>1818.5</ele><time>2026-05-03T13:24:29.118Z</time></trkpt><trkpt lat="44.4011988" lon="6.925992"><ele>1814.0</ele><time>2026-05-03T13:24:30.118Z</time></trkpt><trkpt lat="44.4011639" lon="6.9257953"><ele>1814.0</ele><time>2026-05-03T13:24:31.118Z</time></trkpt><trkpt lat="44.4011431" lon="6.9256104"><ele>1814.0</ele><time>2026-05-03T13:24:32.118Z</time></trkpt><trkpt lat="44.4011279" lon="6.9254513"><ele>1814.0</ele><time>2026-05-03T13:24:33.118Z</time></trkpt><trkpt lat="44.4011101" lon="6.9253047"><ele>1814.0</ele><time>2026-05-03T13:24:34.118Z</time></trkpt><trkpt lat="44.4010887" lon="6.9251485"><ele>1813.9999999999998</ele><time>2026-05-03T13:24:35.118Z</time></trkpt><trkpt lat="44.4010392" lon="6.9250682"><ele>1814.0</ele><time>2026-05-03T13:24:36.118Z</time></trkpt><trkpt lat="44.4009733" lon="6.924994"><ele>1814.0</ele><time>2026-05-03T13:24:37.117Z</time></trkpt><trkpt lat="44.4008884" lon="6.9249772"><ele>1814.0</ele><time>2026-05-03T13:24:38.118Z</time></trkpt><trkpt lat="44.400807" lon="6.9249957"><ele>1813.9999999999998</ele><time>2026-05-03T13:24:39.118Z</time></trkpt><trkpt lat="44.4007321" lon="6.9250232"><ele>1814.0</ele><time>2026-05-03T13:24:40.118Z</time></trkpt><trkpt lat="44.4007001" lon="6.925163"><ele>1814.0</ele><time>2026-05-03T13:24:41.118Z</time></trkpt><trkpt lat="44.4007006" lon="6.9253222"><ele>1814.0</ele><time>2026-05-03T13:24:42.118Z</time></trkpt><trkpt lat="44.4006757" lon="6.9254677"><ele>1814.0</ele><time>2026-05-03T13:24:43.117Z</time></trkpt><trkpt lat="44.4007257" lon="6.9257264"><ele>1814.0</ele><time>2026-05-03T13:24:44.117Z</time></trkpt><trkpt lat="44.4007546" lon="6.9259688"><ele>1813.0</ele><time>2026-05-03T13:24:45.118Z</time></trkpt><trkpt lat="44.4007739" lon="6.9262083"><ele>1812.0</ele><time>2026-05-03T13:24:46.118Z</time></trkpt><trkpt lat="44.4007897" lon="6.9264437"><ele>1811.0</ele><time>2026-05-03T13:24:47.117Z</time></trkpt><trkpt lat="44.4007888" lon="6.9266867"><ele>1811.0</ele><time>2026-05-03T13:24:48.118Z</time></trkpt><trkpt lat="44.4007889" lon="6.9269119"><ele>1811.0</ele><time>2026-05-03T13:24:49.118Z</time></trkpt><trkpt lat="44.4007688" lon="6.9271466"><ele>1811.0</ele><time>2026-05-03T13:24:50.118Z</time></trkpt><trkpt lat="44.4007439" lon="6.9273732"><ele>1811.3333333333333</ele><time>2026-05-03T13:24:51.118Z</time></trkpt><trkpt lat="44.4007267" lon="6.9276039"><ele>1811.6666666666665</ele><time>2026-05-03T13:24:52.118Z</time></trkpt><trkpt lat="44.4007083" lon="6.9278261"><ele>1812.0</ele><time>2026-05-03T13:24:53.117Z</time></trkpt><trkpt lat="44.4006884" lon="6.9280426"><ele>1812.0</ele><time>2026-05-03T13:24:54.118Z</time></trkpt><trkpt lat="44.4006729" lon="6.9282558"><ele>1812.0</ele><time>2026-05-03T13:24:55.117Z</time></trkpt><trkpt lat="44.400656" lon="6.9284136"><ele>1812.0</ele><time>2026-05-03T13:24:56.118Z</time></trkpt><trkpt lat="44.4006344" lon="6.9285527"><ele>1812.0</ele><time>2026-05-03T13:24:57.118Z</time></trkpt><trkpt lat="44.4006158" lon="6.9286659"><ele>1813.5</ele><time>2026-05-03T13:24:58.118Z</time></trkpt><trkpt lat="44.4005242" lon="6.928739"><ele>1815.0</ele><time>2026-05-03T13:25:00.117Z</time></trkpt><trkpt lat="44.4004695" lon="6.9286911"><ele>1816.5</ele><time>2026-05-03T13:25:02.118Z</time></trkpt><trkpt lat="44.4004226" lon="6.9286034"><ele>1818.0</ele><time>2026-05-03T13:25:03.117Z</time></trkpt><trkpt lat="44.4004536" lon="6.9282948"><ele>1816.0</ele><time>2026-05-03T13:25:04.118Z</time></trkpt><trkpt lat="44.400479" lon="6.9280614"><ele>1814.0</ele><time>2026-05-03T13:25:05.118Z</time></trkpt><trkpt lat="44.4004963" lon="6.9278392"><ele>1812.0</ele><time>2026-05-03T13:25:06.118Z</time></trkpt><trkpt lat="44.400515" lon="6.9276025"><ele>1811.8</ele><time>2026-05-03T13:25:07.118Z</time></trkpt><trkpt lat="44.4005316" lon="6.9274388"><ele>1811.6</ele><time>2026-05-03T13:25:08.117Z</time></trkpt><trkpt lat="44.4005399" lon="6.9272853"><ele>1811.3999999999999</ele><time>2026-05-03T13:25:09.118Z</time></trkpt><trkpt lat="44.4005396" lon="6.9271548"><ele>1811.1999999999998</ele><time>2026-05-03T13:25:10.118Z</time></trkpt><trkpt lat="44.4005166" lon="6.927051"><ele>1811.0</ele><time>2026-05-03T13:25:11.117Z</time></trkpt><trkpt lat="44.4004713" lon="6.9269805"><ele>1804.75</ele><time>2026-05-03T13:25:12.118Z</time></trkpt><trkpt lat="44.4004041" lon="6.926947"><ele>1798.5</ele><time>2026-05-03T13:25:13.118Z</time></trkpt><trkpt lat="44.4002894" lon="6.9269539"><ele>1792.25</ele><time>2026-05-03T13:25:15.118Z</time></trkpt><trkpt lat="44.4001865" lon="6.9270253"><ele>1786.0</ele><time>2026-05-03T13:25:16.118Z</time></trkpt><trkpt lat="44.4001394" lon="6.9273127"><ele>1786.0</ele><time>2026-05-03T13:25:17.118Z</time></trkpt><trkpt lat="44.4000729" lon="6.9274891"><ele>1786.0</ele><time>2026-05-03T13:25:18.118Z</time></trkpt><trkpt lat="44.4000186" lon="6.9277204"><ele>1786.0</ele><time>2026-05-03T13:25:19.118Z</time></trkpt><trkpt lat="44.3999666" lon="6.9279156"><ele>1786.0</ele><time>2026-05-03T13:25:20.118Z</time></trkpt><trkpt lat="44.3999476" lon="6.9281249"><ele>1786.0</ele><time>2026-05-03T13:25:21.118Z</time></trkpt><trkpt lat="44.3999286" lon="6.9283282"><ele>1786.0</ele><time>2026-05-03T13:25:22.118Z</time></trkpt><trkpt lat="44.3999282" lon="6.928529"><ele>1786.0</ele><time>2026-05-03T13:25:23.117Z</time></trkpt><trkpt lat="44.3999283" lon="6.9286907"><ele>1786.4</ele><time>2026-05-03T13:25:24.118Z</time></trkpt><trkpt lat="44.3999298" lon="6.928841"><ele>1786.8</ele><time>2026-05-03T13:25:25.117Z</time></trkpt><trkpt lat="44.3999189" lon="6.9289522"><ele>1787.2000000000003</ele><time>2026-05-03T13:25:26.117Z</time></trkpt><trkpt lat="44.3998844" lon="6.929037"><ele>1787.6000000000001</ele><time>2026-05-03T13:25:27.118Z</time></trkpt><trkpt lat="44.3997887" lon="6.9290769"><ele>1788.0</ele><time>2026-05-03T13:25:29.118Z</time></trkpt><trkpt lat="44.399722" lon="6.9289656"><ele>1788.0</ele><time>2026-05-03T13:25:30.118Z</time></trkpt><trkpt lat="44.399685" lon="6.9288141"><ele>1788.0</ele><time>2026-05-03T13:25:31.118Z</time></trkpt><trkpt lat="44.3996876" lon="6.928656"><ele>1788.0</ele><time>2026-05-03T13:25:32.118Z</time></trkpt><trkpt lat="44.399644" lon="6.9284144"><ele>1788.0</ele><time>2026-05-03T13:25:33.117Z</time></trkpt><trkpt lat="44.3996207" lon="6.9281995"><ele>1782.5</ele><time>2026-05-03T13:25:34.118Z</time></trkpt><trkpt lat="44.3995947" lon="6.9280074"><ele>1777.0</ele><time>2026-05-03T13:25:35.118Z</time></trkpt><trkpt lat="44.3995753" lon="6.927826"><ele>1771.5</ele><time>2026-05-03T13:25:36.118Z</time></trkpt><trkpt lat="44.3995648" lon="6.927647"><ele>1766.0</ele><time>2026-05-03T13:25:37.117Z</time></trkpt><trkpt lat="44.399573" lon="6.9274831"><ele>1765.6</ele><time>2026-05-03T13:25:38.117Z</time></trkpt><trkpt lat="44.3995948" lon="6.9273221"><ele>1765.1999999999998</ele><time>2026-05-03T13:25:39.118Z</time></trkpt><trkpt lat="44.3996239" lon="6.9271699"><ele>1764.8000000000002</ele><time>2026-05-03T13:25:40.118Z</time></trkpt><trkpt lat="44.3996498" lon="6.9270261"><ele>1764.4</ele><time>2026-05-03T13:25:41.117Z</time></trkpt><trkpt lat="44.3996743" lon="6.9268972"><ele>1764.0</ele><time>2026-05-03T13:25:42.117Z</time></trkpt><trkpt lat="44.3996863" lon="6.9267963"><ele>1764.0</ele><time>2026-05-03T13:25:43.118Z</time></trkpt><trkpt lat="44.3997254" lon="6.9266436"><ele>1764.0</ele><time>2026-05-03T13:25:45.118Z</time></trkpt><trkpt lat="44.3996296" lon="6.926583"><ele>1764.0</ele><time>2026-05-03T13:25:46.118Z</time></trkpt><trkpt lat="44.3995592" lon="6.9265514"><ele>1764.0</ele><time>2026-05-03T13:25:47.118Z</time></trkpt><trkpt lat="44.3994793" lon="6.9266348"><ele>1764.0</ele><time>2026-05-03T13:25:48.118Z</time></trkpt><trkpt lat="44.3994191" lon="6.92676"><ele>1764.0</ele><time>2026-05-03T13:25:49.117Z</time></trkpt><trkpt lat="44.3993693" lon="6.9269314"><ele>1764.0</ele><time>2026-05-03T13:25:50.118Z</time></trkpt><trkpt lat="44.3993139" lon="6.9271141"><ele>1764.0</ele><time>2026-05-03T13:25:51.117Z</time></trkpt><trkpt lat="44.3992567" lon="6.9272972"><ele>1764.0</ele><time>2026-05-03T13:25:52.118Z</time></trkpt><trkpt lat="44.3992139" lon="6.9274848"><ele>1764.5</ele><time>2026-05-03T13:25:53.118Z</time></trkpt><trkpt lat="44.3991671" lon="6.927646"><ele>1765.0</ele><time>2026-05-03T13:25:54.117Z</time></trkpt><trkpt lat="44.399142" lon="6.9278181"><ele>1765.5</ele><time>2026-05-03T13:25:55.118Z</time></trkpt><trkpt lat="44.3991288" lon="6.9279786"><ele>1766.0</ele><time>2026-05-03T13:25:56.118Z</time></trkpt><trkpt lat="44.3991346" lon="6.928158"><ele>1766.0</ele><time>2026-05-03T13:25:57.118Z</time></trkpt><trkpt lat="44.3991466" lon="6.9283304"><ele>1766.0</ele><time>2026-05-03T13:25:58.118Z</time></trkpt><trkpt lat="44.399171" lon="6.9284967"><ele>1766.0</ele><time>2026-05-03T13:25:59.118Z</time></trkpt><trkpt lat="44.3991695" lon="6.9286182"><ele>1766.0</ele><time>2026-05-03T13:26:00.118Z</time></trkpt><trkpt lat="44.3991721" lon="6.9287375"><ele>1766.0</ele><time>2026-05-03T13:26:01.118Z</time></trkpt><trkpt lat="44.3991525" lon="6.9288388"><ele>1765.4999999999998</ele><time>2026-05-03T13:26:02.118Z</time></trkpt><trkpt lat="44.3991134" lon="6.9289187"><ele>1765.0</ele><time>2026-05-03T13:26:03.118Z</time></trkpt><trkpt lat="44.3990502" lon="6.9289487"><ele>1764.5</ele><time>2026-05-03T13:26:04.118Z</time></trkpt><trkpt lat="44.3989702" lon="6.9289148"><ele>1764.0</ele><time>2026-05-03T13:26:05.118Z</time></trkpt><trkpt lat="44.3989031" lon="6.9288258"><ele>1763.4999999999998</ele><time>2026-05-03T13:26:06.118Z</time></trkpt><trkpt lat="44.3988516" lon="6.9286997"><ele>1763.0</ele><time>2026-05-03T13:26:07.117Z</time></trkpt><trkpt lat="44.3987882" lon="6.9286012"><ele>1758.75</ele><time>2026-05-03T13:26:08.118Z</time></trkpt><trkpt lat="44.3987586" lon="6.9284143"><ele>1754.5</ele><time>2026-05-03T13:26:09.118Z</time></trkpt><trkpt lat="44.3987245" lon="6.9282515"><ele>1750.25</ele><time>2026-05-03T13:26:10.118Z</time></trkpt><trkpt lat="44.3986828" lon="6.9280766"><ele>1746.0</ele><time>2026-05-03T13:26:11.118Z</time></trkpt><trkpt lat="44.3986531" lon="6.9278988"><ele>1746.0</ele><time>2026-05-03T13:26:12.118Z</time></trkpt><trkpt lat="44.3986364" lon="6.9277224"><ele>1746.0</ele><time>2026-05-03T13:26:13.118Z</time></trkpt><trkpt lat="44.3986399" lon="6.9275478"><ele>1746.0</ele><time>2026-05-03T13:26:14.118Z</time></trkpt><trkpt lat="44.3986432" lon="6.9273842"><ele>1746.0</ele><time>2026-05-03T13:26:15.118Z</time></trkpt><trkpt lat="44.3986813" lon="6.9272308"><ele>1745.8333333333333</ele><time>2026-05-03T13:26:16.118Z</time></trkpt><trkpt lat="44.39871" lon="6.9270977"><ele>1745.6666666666665</ele><time>2026-05-03T13:26:17.118Z</time></trkpt><trkpt lat="44.3987374" lon="6.9269796"><ele>1745.5</ele><time>2026-05-03T13:26:18.118Z</time></trkpt><trkpt lat="44.3987676" lon="6.9268846"><ele>1745.3333333333333</ele><time>2026-05-03T13:26:19.118Z</time></trkpt><trkpt lat="44.3987712" lon="6.9267894"><ele>1745.1666666666665</ele><time>2026-05-03T13:26:20.118Z</time></trkpt><trkpt lat="44.398745" lon="6.9266847"><ele>1745.0</ele><time>2026-05-03T13:26:21.118Z</time></trkpt><trkpt lat="44.3987142" lon="6.9266077"><ele>1745.0</ele><time>2026-05-03T13:26:22.118Z</time></trkpt><trkpt lat="44.3986533" lon="6.9265826"><ele>1745.0</ele><time>2026-05-03T13:26:23.117Z</time></trkpt><trkpt lat="44.3985255" lon="6.9266773"><ele>1745.0</ele><time>2026-05-03T13:26:25.118Z</time></trkpt><trkpt lat="44.3984725" lon="6.9268116"><ele>1745.0</ele><time>2026-05-03T13:26:26.118Z</time></trkpt><trkpt lat="44.3984174" lon="6.9268967"><ele>1745.0</ele><time>2026-05-03T13:26:27.118Z</time></trkpt><trkpt lat="44.3983644" lon="6.9271262"><ele>1745.0</ele><time>2026-05-03T13:26:28.118Z</time></trkpt><trkpt lat="44.3982992" lon="6.9273226"><ele>1745.0</ele><time>2026-05-03T13:26:29.118Z</time></trkpt><trkpt lat="44.3982243" lon="6.9275205"><ele>1745.0</ele><time>2026-05-03T13:26:30.118Z</time></trkpt><trkpt lat="44.398154" lon="6.9277152"><ele>1745.25</ele><time>2026-05-03T13:26:31.118Z</time></trkpt><trkpt lat="44.3980787" lon="6.9278986"><ele>1745.5</ele><time>2026-05-03T13:26:32.118Z</time></trkpt><trkpt lat="44.3980064" lon="6.9280768"><ele>1745.75</ele><time>2026-05-03T13:26:33.118Z</time></trkpt><trkpt lat="44.3979347" lon="6.928248"><ele>1746.0</ele><time>2026-05-03T13:26:34.118Z</time></trkpt><trkpt lat="44.397887" lon="6.928434"><ele>1742.0</ele><time>2026-05-03T13:26:35.117Z</time></trkpt><trkpt lat="44.3978646" lon="6.9286122"><ele>1738.0</ele><time>2026-05-03T13:26:36.118Z</time></trkpt><trkpt lat="44.3978634" lon="6.9288096"><ele>1734.0</ele><time>2026-05-03T13:26:37.118Z</time></trkpt><trkpt lat="44.3978444" lon="6.9289885"><ele>1730.0</ele><time>2026-05-03T13:26:38.118Z</time></trkpt><trkpt lat="44.3978719" lon="6.9292112"><ele>1728.75</ele><time>2026-05-03T13:26:39.118Z</time></trkpt><trkpt lat="44.3978654" lon="6.9294082"><ele>1727.5</ele><time>2026-05-03T13:26:40.117Z</time></trkpt><trkpt lat="44.3978504" lon="6.9296051"><ele>1726.25</ele><time>2026-05-03T13:26:41.117Z</time></trkpt><trkpt lat="44.3978297" lon="6.9297847"><ele>1725.0</ele><time>2026-05-03T13:26:42.118Z</time></trkpt><trkpt lat="44.3977952" lon="6.9299638"><ele>1724.25</ele><time>2026-05-03T13:26:43.118Z</time></trkpt><trkpt lat="44.3977505" lon="6.9301195"><ele>1723.5</ele><time>2026-05-03T13:26:44.118Z</time></trkpt><trkpt lat="44.3976977" lon="6.9302674"><ele>1722.75</ele><time>2026-05-03T13:26:45.118Z</time></trkpt><trkpt lat="44.3976625" lon="6.9304284"><ele>1722.0</ele><time>2026-05-03T13:26:46.117Z</time></trkpt><trkpt lat="44.3976352" lon="6.9305882"><ele>1722.0</ele><time>2026-05-03T13:26:47.118Z</time></trkpt><trkpt lat="44.3976087" lon="6.9307448"><ele>1722.0</ele><time>2026-05-03T13:26:48.117Z</time></trkpt><trkpt lat="44.3976504" lon="6.9309399"><ele>1722.0</ele><time>2026-05-03T13:26:49.117Z</time></trkpt><trkpt lat="44.3976746" lon="6.9311271"><ele>1722.0</ele><time>2026-05-03T13:26:50.118Z</time></trkpt><trkpt lat="44.397685" lon="6.931331"><ele>1721.5</ele><time>2026-05-03T13:26:51.117Z</time></trkpt><trkpt lat="44.3976968" lon="6.9315384"><ele>1721.0</ele><time>2026-05-03T13:26:52.117Z</time></trkpt><trkpt lat="44.3977049" lon="6.9317447"><ele>1720.5</ele><time>2026-05-03T13:26:53.117Z</time></trkpt><trkpt lat="44.3976989" lon="6.93194"><ele>1720.0</ele><time>2026-05-03T13:26:54.118Z</time></trkpt><trkpt lat="44.3976772" lon="6.9321324"><ele>1718.0</ele><time>2026-05-03T13:26:55.117Z</time></trkpt><trkpt lat="44.397652" lon="6.932324"><ele>1716.0</ele><time>2026-05-03T13:26:56.118Z</time></trkpt><trkpt lat="44.3976049" lon="6.9325321"><ele>1714.0</ele><time>2026-05-03T13:26:57.118Z</time></trkpt><trkpt lat="44.3975422" lon="6.9327409"><ele>1713.6666666666667</ele><time>2026-05-03T13:26:58.118Z</time></trkpt><trkpt lat="44.3974835" lon="6.9329523"><ele>1713.3333333333335</ele><time>2026-05-03T13:26:59.117Z</time></trkpt><trkpt lat="44.3974254" lon="6.9331642"><ele>1713.0</ele><time>2026-05-03T13:27:00.118Z</time></trkpt><trkpt lat="44.3973783" lon="6.9333825"><ele>1714.3333333333335</ele><time>2026-05-03T13:27:01.118Z</time></trkpt><trkpt lat="44.3973172" lon="6.933587"><ele>1715.6666666666667</ele><time>2026-05-03T13:27:02.118Z</time></trkpt><trkpt lat="44.3972534" lon="6.9337873"><ele>1717.0</ele><time>2026-05-03T13:27:03.118Z</time></trkpt><trkpt lat="44.3971905" lon="6.9339911"><ele>1713.25</ele><time>2026-05-03T13:27:04.118Z</time></trkpt><trkpt lat="44.3971306" lon="6.9341748"><ele>1709.5</ele><time>2026-05-03T13:27:05.117Z</time></trkpt><trkpt lat="44.3970849" lon="6.9343653"><ele>1705.75</ele><time>2026-05-03T13:27:06.118Z</time></trkpt><trkpt lat="44.3970279" lon="6.9345546"><ele>1702.0</ele><time>2026-05-03T13:27:07.118Z</time></trkpt><trkpt lat="44.396975" lon="6.9347303"><ele>1701.25</ele><time>2026-05-03T13:27:08.117Z</time></trkpt><trkpt lat="44.3969349" lon="6.9349142"><ele>1700.5</ele><time>2026-05-03T13:27:09.118Z</time></trkpt><trkpt lat="44.3969085" lon="6.9350984"><ele>1699.75</ele><time>2026-05-03T13:27:10.118Z</time></trkpt><trkpt lat="44.3968918" lon="6.9352721"><ele>1699.0</ele><time>2026-05-03T13:27:11.118Z</time></trkpt><trkpt lat="44.3968827" lon="6.9354469"><ele>1699.0</ele><time>2026-05-03T13:27:12.118Z</time></trkpt><trkpt lat="44.3968752" lon="6.9356293"><ele>1699.0</ele><time>2026-05-03T13:27:13.117Z</time></trkpt><trkpt lat="44.3968538" lon="6.9357989"><ele>1699.0</ele><time>2026-05-03T13:27:14.118Z</time></trkpt><trkpt lat="44.3968056" lon="6.9359607"><ele>1699.0</ele><time>2026-05-03T13:27:15.118Z</time></trkpt><trkpt lat="44.3967417" lon="6.9361038"><ele>1699.5</ele><time>2026-05-03T13:27:16.118Z</time></trkpt><trkpt lat="44.3966767" lon="6.9362441"><ele>1700.0</ele><time>2026-05-03T13:27:17.118Z</time></trkpt><trkpt lat="44.3966074" lon="6.936386"><ele>1700.5</ele><time>2026-05-03T13:27:18.118Z</time></trkpt><trkpt lat="44.3965447" lon="6.9365289"><ele>1701.0</ele><time>2026-05-03T13:27:19.118Z</time></trkpt><trkpt lat="44.3964809" lon="6.9366688"><ele>1701.5</ele><time>2026-05-03T13:27:20.118Z</time></trkpt><trkpt lat="44.396418" lon="6.9368117"><ele>1702.0</ele><time>2026-05-03T13:27:21.118Z</time></trkpt><trkpt lat="44.3963576" lon="6.9369566"><ele>1702.5</ele><time>2026-05-03T13:27:22.118Z</time></trkpt><trkpt lat="44.3963057" lon="6.9371051"><ele>1703.0</ele><time>2026-05-03T13:27:23.118Z</time></trkpt><trkpt lat="44.3962668" lon="6.9372611"><ele>1700.75</ele><time>2026-05-03T13:27:24.118Z</time></trkpt><trkpt lat="44.3962305" lon="6.937412"><ele>1698.5</ele><time>2026-05-03T13:27:25.118Z</time></trkpt><trkpt lat="44.3961811" lon="6.9375487"><ele>1696.25</ele><time>2026-05-03T13:27:26.118Z</time></trkpt><trkpt lat="44.3961224" lon="6.9376875"><ele>1694.0</ele><time>2026-05-03T13:27:27.117Z</time></trkpt><trkpt lat="44.3960659" lon="6.9378244"><ele>1693.75</ele><time>2026-05-03T13:27:28.118Z</time></trkpt><trkpt lat="44.3959978" lon="6.9379446"><ele>1693.5</ele><time>2026-05-03T13:27:29.118Z</time></trkpt><trkpt lat="44.3959207" lon="6.9380832"><ele>1693.25</ele><time>2026-05-03T13:27:30.118Z</time></trkpt><trkpt lat="44.3958953" lon="6.9382216"><ele>1693.0</ele><time>2026-05-03T13:27:31.118Z</time></trkpt><trkpt lat="44.3958291" lon="6.9383637"><ele>1692.5</ele><time>2026-05-03T13:27:32.118Z</time></trkpt><trkpt lat="44.3957761" lon="6.9385243"><ele>1692.0</ele><time>2026-05-03T13:27:33.118Z</time></trkpt><trkpt lat="44.3957318" lon="6.9387106"><ele>1691.5</ele><time>2026-05-03T13:27:34.118Z</time></trkpt><trkpt lat="44.3956672" lon="6.9388816"><ele>1691.0</ele><time>2026-05-03T13:27:35.118Z</time></trkpt><trkpt lat="44.3956243" lon="6.9391139"><ele>1692.6666666666665</ele><time>2026-05-03T13:27:36.117Z</time></trkpt><trkpt lat="44.3956001" lon="6.9393392"><ele>1694.3333333333335</ele><time>2026-05-03T13:27:37.118Z</time></trkpt><trkpt lat="44.3955655" lon="6.9395453"><ele>1696.0</ele><time>2026-05-03T13:27:38.118Z</time></trkpt><trkpt lat="44.3955199" lon="6.9397588"><ele>1692.6666666666667</ele><time>2026-05-03T13:27:39.118Z</time></trkpt><trkpt lat="44.3954573" lon="6.9399516"><ele>1689.3333333333335</ele><time>2026-05-03T13:27:40.118Z</time></trkpt><trkpt lat="44.395393" lon="6.9401656"><ele>1686.0</ele><time>2026-05-03T13:27:41.118Z</time></trkpt><trkpt lat="44.3953255" lon="6.9404101"><ele>1684.0</ele><time>2026-05-03T13:27:42.118Z</time></trkpt><trkpt lat="44.3952434" lon="6.9406617"><ele>1682.0</ele><time>2026-05-03T13:27:43.117Z</time></trkpt><trkpt lat="44.39516" lon="6.9408967"><ele>1680.0</ele><time>2026-05-03T13:27:44.117Z</time></trkpt><trkpt lat="44.3950719" lon="6.9411977"><ele>1680.0</ele><time>2026-05-03T13:27:45.118Z</time></trkpt><trkpt lat="44.3949657" lon="6.9414823"><ele>1680.0</ele><time>2026-05-03T13:27:46.118Z</time></trkpt><trkpt lat="44.3948599" lon="6.9417675"><ele>1681.0</ele><time>2026-05-03T13:27:47.117Z</time></trkpt><trkpt lat="44.3947595" lon="6.9420558"><ele>1682.0</ele><time>2026-05-03T13:27:48.118Z</time></trkpt><trkpt lat="44.3946526" lon="6.9423231"><ele>1683.0</ele><time>2026-05-03T13:27:49.118Z</time></trkpt><trkpt lat="44.3945545" lon="6.942575"><ele>1679.6666666666665</ele><time>2026-05-03T13:27:50.118Z</time></trkpt><trkpt lat="44.3944586" lon="6.9428242"><ele>1676.3333333333333</ele><time>2026-05-03T13:27:51.118Z</time></trkpt><trkpt lat="44.39437" lon="6.9430577"><ele>1673.0</ele><time>2026-05-03T13:27:52.118Z</time></trkpt><trkpt lat="44.3942833" lon="6.9432871"><ele>1673.0</ele><time>2026-05-03T13:27:53.117Z</time></trkpt><trkpt lat="44.3942179" lon="6.9435339"><ele>1673.0</ele><time>2026-05-03T13:27:54.118Z</time></trkpt><trkpt lat="44.3941762" lon="6.9438311"><ele>1673.0</ele><time>2026-05-03T13:27:55.118Z</time></trkpt><trkpt lat="44.3941481" lon="6.9441281"><ele>1673.0</ele><time>2026-05-03T13:27:56.118Z</time></trkpt><trkpt lat="44.3941488" lon="6.9444365"><ele>1673.0</ele><time>2026-05-03T13:27:57.117Z</time></trkpt><trkpt lat="44.3941387" lon="6.9447089"><ele>1673.0</ele><time>2026-05-03T13:27:58.118Z</time></trkpt><trkpt lat="44.3941369" lon="6.9450043"><ele>1672.0</ele><time>2026-05-03T13:27:59.118Z</time></trkpt><trkpt lat="44.3941351" lon="6.9452758"><ele>1671.0</ele><time>2026-05-03T13:28:00.118Z</time></trkpt><trkpt lat="44.3941351" lon="6.9455451"><ele>1670.0</ele><time>2026-05-03T13:28:01.118Z</time></trkpt><trkpt lat="44.3941472" lon="6.9458205"><ele>1669.3333333333333</ele><time>2026-05-03T13:28:02.117Z</time></trkpt><trkpt lat="44.3941361" lon="6.946087"><ele>1668.6666666666665</ele><time>2026-05-03T13:28:03.117Z</time></trkpt><trkpt lat="44.3941368" lon="6.9463545"><ele>1668.0</ele><time>2026-05-03T13:28:04.118Z</time></trkpt><trkpt lat="44.3941354" lon="6.9466269"><ele>1668.3333333333335</ele><time>2026-05-03T13:28:05.117Z</time></trkpt><trkpt lat="44.3941388" lon="6.9469003"><ele>1668.6666666666667</ele><time>2026-05-03T13:28:06.118Z</time></trkpt><trkpt lat="44.394131" lon="6.9471753"><ele>1669.0</ele><time>2026-05-03T13:28:07.118Z</time></trkpt><trkpt lat="44.3941258" lon="6.9474558"><ele>1668.6666666666667</ele><time>2026-05-03T13:28:08.118Z</time></trkpt><trkpt lat="44.3941188" lon="6.9477374"><ele>1668.3333333333335</ele><time>2026-05-03T13:28:09.118Z</time></trkpt><trkpt lat="44.3940976" lon="6.9480132"><ele>1668.0</ele><time>2026-05-03T13:28:10.118Z</time></trkpt><trkpt lat="44.3940597" lon="6.9482627"><ele>1666.6666666666665</ele><time>2026-05-03T13:28:11.118Z</time></trkpt><trkpt lat="44.3940133" lon="6.948499"><ele>1665.3333333333333</ele><time>2026-05-03T13:28:12.118Z</time></trkpt><trkpt lat="44.3939605" lon="6.9487146"><ele>1664.0</ele><time>2026-05-03T13:28:13.118Z</time></trkpt><trkpt lat="44.3939098" lon="6.9489283"><ele>1664.0</ele><time>2026-05-03T13:28:14.118Z</time></trkpt><trkpt lat="44.3938501" lon="6.9491552"><ele>1664.0</ele><time>2026-05-03T13:28:15.117Z</time></trkpt><trkpt lat="44.3937928" lon="6.9493317"><ele>1664.0</ele><time>2026-05-03T13:28:16.118Z</time></trkpt><trkpt lat="44.3937425" lon="6.9495218"><ele>1662.0</ele><time>2026-05-03T13:28:17.117Z</time></trkpt><trkpt lat="44.3936972" lon="6.9497"><ele>1660.0</ele><time>2026-05-03T13:28:18.118Z</time></trkpt><trkpt lat="44.3936581" lon="6.9498872"><ele>1658.0</ele><time>2026-05-03T13:28:19.117Z</time></trkpt><trkpt lat="44.3936457" lon="6.9500931"><ele>1656.0</ele><time>2026-05-03T13:28:20.118Z</time></trkpt><trkpt lat="44.3936526" lon="6.9503502"><ele>1655.3333333333335</ele><time>2026-05-03T13:28:21.117Z</time></trkpt><trkpt lat="44.3936502" lon="6.9506005"><ele>1654.6666666666667</ele><time>2026-05-03T13:28:22.118Z</time></trkpt><trkpt lat="44.3936595" lon="6.9508849"><ele>1654.0</ele><time>2026-05-03T13:28:23.118Z</time></trkpt><trkpt lat="44.3936641" lon="6.9511466"><ele>1654.0</ele><time>2026-05-03T13:28:24.118Z</time></trkpt><trkpt lat="44.3936729" lon="6.9514077"><ele>1654.0</ele><time>2026-05-03T13:28:25.118Z</time></trkpt><trkpt lat="44.3936863" lon="6.9516517"><ele>1654.0</ele><time>2026-05-03T13:28:26.117Z</time></trkpt><trkpt lat="44.3936706" lon="6.9518839"><ele>1653.3333333333335</ele><time>2026-05-03T13:28:27.118Z</time></trkpt><trkpt lat="44.3936378" lon="6.9521134"><ele>1652.6666666666665</ele><time>2026-05-03T13:28:28.118Z</time></trkpt><trkpt lat="44.3935729" lon="6.9523462"><ele>1652.0</ele><time>2026-05-03T13:28:29.118Z</time></trkpt><trkpt lat="44.3935018" lon="6.9525654"><ele>1653.6666666666665</ele><time>2026-05-03T13:28:30.117Z</time></trkpt><trkpt lat="44.3933887" lon="6.9527939"><ele>1655.3333333333335</ele><time>2026-05-03T13:28:31.118Z</time></trkpt><trkpt lat="44.3932739" lon="6.9530119"><ele>1657.0</ele><time>2026-05-03T13:28:32.118Z</time></trkpt><trkpt lat="44.3931697" lon="6.953231"><ele>1659.3333333333335</ele><time>2026-05-03T13:28:33.118Z</time></trkpt><trkpt lat="44.3930549" lon="6.9534378"><ele>1661.6666666666665</ele><time>2026-05-03T13:28:34.118Z</time></trkpt><trkpt lat="44.3929384" lon="6.9536589"><ele>1664.0</ele><time>2026-05-03T13:28:35.118Z</time></trkpt><trkpt lat="44.3928387" lon="6.9538442"><ele>1659.0</ele><time>2026-05-03T13:28:36.118Z</time></trkpt><trkpt lat="44.3927461" lon="6.9540451"><ele>1654.0</ele><time>2026-05-03T13:28:37.118Z</time></trkpt><trkpt lat="44.3926626" lon="6.9542407"><ele>1649.0</ele><time>2026-05-03T13:28:38.118Z</time></trkpt><trkpt lat="44.3926007" lon="6.9544557"><ele>1649.0</ele><time>2026-05-03T13:28:39.118Z</time></trkpt><trkpt lat="44.3925608" lon="6.9546796"><ele>1649.0</ele><time>2026-05-03T13:28:40.118Z</time></trkpt><trkpt lat="44.3925431" lon="6.954913"><ele>1649.0</ele><time>2026-05-03T13:28:41.118Z</time></trkpt><trkpt lat="44.3925307" lon="6.9551456"><ele>1649.0</ele><time>2026-05-03T13:28:42.118Z</time></trkpt><trkpt lat="44.3925582" lon="6.955416"><ele>1649.0</ele><time>2026-05-03T13:28:43.118Z</time></trkpt><trkpt lat="44.3925819" lon="6.9556903"><ele>1649.0</ele><time>2026-05-03T13:28:44.118Z</time></trkpt><trkpt lat="44.3925961" lon="6.9559634"><ele>1649.6666666666665</ele><time>2026-05-03T13:28:45.118Z</time></trkpt><trkpt lat="44.3925877" lon="6.9562206"><ele>1650.3333333333335</ele><time>2026-05-03T13:28:46.118Z</time></trkpt><trkpt lat="44.3925488" lon="6.9564557"><ele>1651.0</ele><time>2026-05-03T13:28:47.118Z</time></trkpt><trkpt lat="44.3924801" lon="6.9566673"><ele>1649.3333333333335</ele><time>2026-05-03T13:28:48.118Z</time></trkpt><trkpt lat="44.3923872" lon="6.9568761"><ele>1647.6666666666665</ele><time>2026-05-03T13:28:49.118Z</time></trkpt><trkpt lat="44.3922556" lon="6.9570811"><ele>1646.0</ele><time>2026-05-03T13:28:50.118Z</time></trkpt><trkpt lat="44.3921179" lon="6.9572792"><ele>1646.0</ele><time>2026-05-03T13:28:51.117Z</time></trkpt><trkpt lat="44.3919694" lon="6.9574853"><ele>1646.0</ele><time>2026-05-03T13:28:52.118Z</time></trkpt><trkpt lat="44.3918082" lon="6.9577006"><ele>1646.0</ele><time>2026-05-03T13:28:53.118Z</time></trkpt><trkpt lat="44.3916439" lon="6.9579138"><ele>1645.6666666666665</ele><time>2026-05-03T13:28:54.118Z</time></trkpt><trkpt lat="44.3914807" lon="6.958124"><ele>1645.3333333333335</ele><time>2026-05-03T13:28:55.117Z</time></trkpt><trkpt lat="44.3913226" lon="6.9583362"><ele>1645.0</ele><time>2026-05-03T13:28:56.118Z</time></trkpt><trkpt lat="44.3911629" lon="6.958548"><ele>1645.0</ele><time>2026-05-03T13:28:57.117Z</time></trkpt><trkpt lat="44.3910124" lon="6.9587728"><ele>1645.0</ele><time>2026-05-03T13:28:58.118Z</time></trkpt><trkpt lat="44.3908713" lon="6.9590131"><ele>1645.0</ele><time>2026-05-03T13:28:59.118Z</time></trkpt><trkpt lat="44.3907404" lon="6.9592651"><ele>1646.3333333333335</ele><time>2026-05-03T13:29:00.117Z</time></trkpt><trkpt lat="44.390609" lon="6.9595189"><ele>1647.6666666666665</ele><time>2026-05-03T13:29:01.118Z</time></trkpt><trkpt lat="44.390483" lon="6.9597709"><ele>1649.0</ele><time>2026-05-03T13:29:02.118Z</time></trkpt><trkpt lat="44.3903061" lon="6.9599821"><ele>1647.0</ele><time>2026-05-03T13:29:03.118Z</time></trkpt><trkpt lat="44.3901409" lon="6.9601942"><ele>1645.0</ele><time>2026-05-03T13:29:04.118Z</time></trkpt><trkpt lat="44.3899258" lon="6.9603897"><ele>1645.0</ele><time>2026-05-03T13:29:05.117Z</time></trkpt><trkpt lat="44.3897244" lon="6.9606014"><ele>1645.0</ele><time>2026-05-03T13:29:06.117Z</time></trkpt><trkpt lat="44.3895223" lon="6.9608092"><ele>1646.5</ele><time>2026-05-03T13:29:07.118Z</time></trkpt><trkpt lat="44.3893205" lon="6.9610156"><ele>1648.0</ele><time>2026-05-03T13:29:08.118Z</time></trkpt><trkpt lat="44.3891071" lon="6.961228"><ele>1648.0</ele><time>2026-05-03T13:29:09.118Z</time></trkpt><trkpt lat="44.3889064" lon="6.9614325"><ele>1648.0</ele><time>2026-05-03T13:29:10.118Z</time></trkpt><trkpt lat="44.3887185" lon="6.9616287"><ele>1646.6666666666667</ele><time>2026-05-03T13:29:11.118Z</time></trkpt><trkpt lat="44.3885325" lon="6.9618269"><ele>1645.3333333333335</ele><time>2026-05-03T13:29:12.118Z</time></trkpt><trkpt lat="44.3883635" lon="6.9619879"><ele>1644.0</ele><time>2026-05-03T13:29:13.118Z</time></trkpt><trkpt lat="44.3882084" lon="6.9621393"><ele>1644.0</ele><time>2026-05-03T13:29:14.118Z</time></trkpt><trkpt lat="44.388072" lon="6.9622805"><ele>1644.0</ele><time>2026-05-03T13:29:15.118Z</time></trkpt><trkpt lat="44.3879407" lon="6.962437"><ele>1644.0</ele><time>2026-05-03T13:29:16.118Z</time></trkpt><trkpt lat="44.387832" lon="6.9626267"><ele>1640.3333333333335</ele><time>2026-05-03T13:29:17.118Z</time></trkpt><trkpt lat="44.3877408" lon="6.9628393"><ele>1636.6666666666667</ele><time>2026-05-03T13:29:18.118Z</time></trkpt><trkpt lat="44.3876457" lon="6.9630633"><ele>1633.0</ele><time>2026-05-03T13:29:19.118Z</time></trkpt><trkpt lat="44.3875177" lon="6.9632707"><ele>1631.6666666666667</ele><time>2026-05-03T13:29:20.118Z</time></trkpt><trkpt lat="44.3873751" lon="6.9634642"><ele>1630.3333333333335</ele><time>2026-05-03T13:29:21.117Z</time></trkpt><trkpt lat="44.3872207" lon="6.9636373"><ele>1629.0</ele><time>2026-05-03T13:29:22.118Z</time></trkpt><trkpt lat="44.3870661" lon="6.9638019"><ele>1629.0</ele><time>2026-05-03T13:29:23.118Z</time></trkpt><trkpt lat="44.3869135" lon="6.9639563"><ele>1629.0</ele><time>2026-05-03T13:29:24.117Z</time></trkpt><trkpt lat="44.3867858" lon="6.9641064"><ele>1629.0</ele><time>2026-05-03T13:29:25.117Z</time></trkpt><trkpt lat="44.3866581" lon="6.9642434"><ele>1629.0</ele><time>2026-05-03T13:29:26.118Z</time></trkpt><trkpt lat="44.3865178" lon="6.9643631"><ele>1629.0</ele><time>2026-05-03T13:29:27.117Z</time></trkpt><trkpt lat="44.3863722" lon="6.9644837"><ele>1629.0</ele><time>2026-05-03T13:29:28.118Z</time></trkpt><trkpt lat="44.3862031" lon="6.9645375"><ele>1629.0</ele><time>2026-05-03T13:29:29.118Z</time></trkpt><trkpt lat="44.3860246" lon="6.9645776"><ele>1629.0</ele><time>2026-05-03T13:29:30.117Z</time></trkpt><trkpt lat="44.3858532" lon="6.9646159"><ele>1629.0</ele><time>2026-05-03T13:29:31.118Z</time></trkpt><trkpt lat="44.3856771" lon="6.9646333"><ele>1628.6666666666665</ele><time>2026-05-03T13:29:32.117Z</time></trkpt><trkpt lat="44.3855054" lon="6.9646789"><ele>1628.3333333333333</ele><time>2026-05-03T13:29:33.118Z</time></trkpt><trkpt lat="44.3853333" lon="6.9647023"><ele>1628.0</ele><time>2026-05-03T13:29:34.117Z</time></trkpt><trkpt lat="44.3851588" lon="6.9647333"><ele>1628.0</ele><time>2026-05-03T13:29:35.118Z</time></trkpt><trkpt lat="44.3849828" lon="6.9647547"><ele>1628.0</ele><time>2026-05-03T13:29:36.118Z</time></trkpt><trkpt lat="44.3848115" lon="6.9647818"><ele>1628.0</ele><time>2026-05-03T13:29:37.118Z</time></trkpt><trkpt lat="44.3846366" lon="6.9648064"><ele>1629.0</ele><time>2026-05-03T13:29:38.118Z</time></trkpt><trkpt lat="44.3844592" lon="6.9648388"><ele>1630.0</ele><time>2026-05-03T13:29:39.117Z</time></trkpt><trkpt lat="44.3842774" lon="6.9648759"><ele>1631.0</ele><time>2026-05-03T13:29:40.117Z</time></trkpt><trkpt lat="44.3840954" lon="6.9649116"><ele>1631.0</ele><time>2026-05-03T13:29:41.118Z</time></trkpt><trkpt lat="44.3839366" lon="6.9649468"><ele>1631.0</ele><time>2026-05-03T13:29:42.118Z</time></trkpt><trkpt lat="44.3837675" lon="6.9649821"><ele>1631.0</ele><time>2026-05-03T13:29:43.117Z</time></trkpt><trkpt lat="44.3836151" lon="6.9650493"><ele>1632.6666666666665</ele><time>2026-05-03T13:29:44.118Z</time></trkpt><trkpt lat="44.3834781" lon="6.9651301"><ele>1634.3333333333335</ele><time>2026-05-03T13:29:45.118Z</time></trkpt><trkpt lat="44.3833382" lon="6.9652236"><ele>1636.0</ele><time>2026-05-03T13:29:46.118Z</time></trkpt><trkpt lat="44.3831969" lon="6.9653154"><ele>1636.0</ele><time>2026-05-03T13:29:47.118Z</time></trkpt><trkpt lat="44.3830702" lon="6.9653937"><ele>1636.0</ele><time>2026-05-03T13:29:48.118Z</time></trkpt><trkpt lat="44.3829226" lon="6.9654939"><ele>1636.0</ele><time>2026-05-03T13:29:49.117Z</time></trkpt><trkpt lat="44.382781" lon="6.9655966"><ele>1636.0</ele><time>2026-05-03T13:29:50.118Z</time></trkpt><trkpt lat="44.3826401" lon="6.965699"><ele>1636.0</ele><time>2026-05-03T13:29:51.118Z</time></trkpt><trkpt lat="44.3824893" lon="6.9657887"><ele>1636.0</ele><time>2026-05-03T13:29:52.118Z</time></trkpt><trkpt lat="44.3823421" lon="6.9658904"><ele>1636.0</ele><time>2026-05-03T13:29:53.118Z</time></trkpt><trkpt lat="44.3821937" lon="6.9660025"><ele>1636.0</ele><time>2026-05-03T13:29:54.118Z</time></trkpt><trkpt lat="44.3820472" lon="6.9661115"><ele>1636.0</ele><time>2026-05-03T13:29:55.118Z</time></trkpt><trkpt lat="44.3819057" lon="6.9662332"><ele>1634.0</ele><time>2026-05-03T13:29:56.118Z</time></trkpt><trkpt lat="44.3817705" lon="6.9663675"><ele>1632.0</ele><time>2026-05-03T13:29:57.118Z</time></trkpt><trkpt lat="44.3816411" lon="6.9665121"><ele>1630.0</ele><time>2026-05-03T13:29:58.118Z</time></trkpt><trkpt lat="44.3815072" lon="6.9666389"><ele>1628.3333333333335</ele><time>2026-05-03T13:29:59.118Z</time></trkpt><trkpt lat="44.3813719" lon="6.966766"><ele>1626.6666666666665</ele><time>2026-05-03T13:30:00.118Z</time></trkpt><trkpt lat="44.381241" lon="6.966897"><ele>1625.0</ele><time>2026-05-03T13:30:01.118Z</time></trkpt><trkpt lat="44.3811308" lon="6.9670076"><ele>1625.0</ele><time>2026-05-03T13:30:02.118Z</time></trkpt><trkpt lat="44.3810135" lon="6.9671248"><ele>1625.0</ele><time>2026-05-03T13:30:03.118Z</time></trkpt><trkpt lat="44.3809012" lon="6.9672402"><ele>1625.0</ele><time>2026-05-03T13:30:04.117Z</time></trkpt><trkpt lat="44.3807814" lon="6.9673485"><ele>1625.0</ele><time>2026-05-03T13:30:05.118Z</time></trkpt><trkpt lat="44.3806685" lon="6.9674604"><ele>1624.5</ele><time>2026-05-03T13:30:06.118Z</time></trkpt><trkpt lat="44.3805578" lon="6.9675804"><ele>1624.0</ele><time>2026-05-03T13:30:07.118Z</time></trkpt><trkpt lat="44.3804474" lon="6.9677133"><ele>1623.5</ele><time>2026-05-03T13:30:08.118Z</time></trkpt><trkpt lat="44.3803523" lon="6.9678656"><ele>1623.0</ele><time>2026-05-03T13:30:09.118Z</time></trkpt><trkpt lat="44.3802696" lon="6.9680077"><ele>1623.0</ele><time>2026-05-03T13:30:10.118Z</time></trkpt><trkpt lat="44.3801827" lon="6.9681476"><ele>1623.0</ele><time>2026-05-03T13:30:11.118Z</time></trkpt><trkpt lat="44.3800908" lon="6.9682765"><ele>1623.0</ele><time>2026-05-03T13:30:12.118Z</time></trkpt><trkpt lat="44.3800045" lon="6.9684031"><ele>1623.0</ele><time>2026-05-03T13:30:13.117Z</time></trkpt><trkpt lat="44.3799068" lon="6.9685526"><ele>1623.25</ele><time>2026-05-03T13:30:14.118Z</time></trkpt><trkpt lat="44.3798054" lon="6.9686819"><ele>1623.5</ele><time>2026-05-03T13:30:15.117Z</time></trkpt><trkpt lat="44.3797033" lon="6.9688097"><ele>1623.75</ele><time>2026-05-03T13:30:16.118Z</time></trkpt><trkpt lat="44.3795709" lon="6.9688785"><ele>1624.0</ele><time>2026-05-03T13:30:17.118Z</time></trkpt><trkpt lat="44.3794455" lon="6.9689405"><ele>1622.75</ele><time>2026-05-03T13:30:18.118Z</time></trkpt><trkpt lat="44.3793197" lon="6.9690218"><ele>1621.5</ele><time>2026-05-03T13:30:19.117Z</time></trkpt><trkpt lat="44.3791965" lon="6.9691033"><ele>1620.25</ele><time>2026-05-03T13:30:20.118Z</time></trkpt><trkpt lat="44.3790805" lon="6.9691994"><ele>1619.0</ele><time>2026-05-03T13:30:21.118Z</time></trkpt><trkpt lat="44.3789581" lon="6.9692912"><ele>1615.75</ele><time>2026-05-03T13:30:22.118Z</time></trkpt><trkpt lat="44.3788331" lon="6.9693852"><ele>1612.5</ele><time>2026-05-03T13:30:23.118Z</time></trkpt><trkpt lat="44.3787075" lon="6.9694634"><ele>1609.25</ele><time>2026-05-03T13:30:24.118Z</time></trkpt><trkpt lat="44.3785806" lon="6.969524"><ele>1606.0</ele><time>2026-05-03T13:30:25.118Z</time></trkpt><trkpt lat="44.3784606" lon="6.9695701"><ele>1606.0</ele><time>2026-05-03T13:30:26.118Z</time></trkpt><trkpt lat="44.3783173" lon="6.96964"><ele>1606.0</ele><time>2026-05-03T13:30:27.118Z</time></trkpt><trkpt lat="44.378191" lon="6.9697596"><ele>1606.0</ele><time>2026-05-03T13:30:28.118Z</time></trkpt><trkpt lat="44.3780678" lon="6.9698844"><ele>1602.6666666666667</ele><time>2026-05-03T13:30:29.118Z</time></trkpt><trkpt lat="44.3779661" lon="6.9700543"><ele>1599.3333333333335</ele><time>2026-05-03T13:30:30.118Z</time></trkpt><trkpt lat="44.377865" lon="6.9702282"><ele>1596.0</ele><time>2026-05-03T13:30:31.118Z</time></trkpt><trkpt lat="44.3777606" lon="6.9704068"><ele>1596.0</ele><time>2026-05-03T13:30:32.118Z</time></trkpt><trkpt lat="44.377647" lon="6.9705817"><ele>1596.0</ele><time>2026-05-03T13:30:33.118Z</time></trkpt><trkpt lat="44.3775343" lon="6.9707542"><ele>1596.0</ele><time>2026-05-03T13:30:34.118Z</time></trkpt><trkpt lat="44.3773993" lon="6.9709406"><ele>1597.0</ele><time>2026-05-03T13:30:35.118Z</time></trkpt><trkpt lat="44.3772564" lon="6.9711235"><ele>1598.0</ele><time>2026-05-03T13:30:36.118Z</time></trkpt><trkpt lat="44.3771039" lon="6.9712998"><ele>1599.0</ele><time>2026-05-03T13:30:37.117Z</time></trkpt><trkpt lat="44.37696" lon="6.9714747"><ele>1595.3333333333335</ele><time>2026-05-03T13:30:38.118Z</time></trkpt><trkpt lat="44.3768154" lon="6.9716443"><ele>1591.6666666666667</ele><time>2026-05-03T13:30:39.118Z</time></trkpt><trkpt lat="44.3766788" lon="6.971806"><ele>1588.0</ele><time>2026-05-03T13:30:40.118Z</time></trkpt><trkpt lat="44.3765419" lon="6.9719641"><ele>1588.0</ele><time>2026-05-03T13:30:41.117Z</time></trkpt><trkpt lat="44.3764103" lon="6.9721284"><ele>1588.0</ele><time>2026-05-03T13:30:42.118Z</time></trkpt><trkpt lat="44.3762756" lon="6.9722939"><ele>1588.0</ele><time>2026-05-03T13:30:43.118Z</time></trkpt><trkpt lat="44.3761365" lon="6.9724574"><ele>1585.6666666666667</ele><time>2026-05-03T13:30:44.118Z</time></trkpt><trkpt lat="44.3760056" lon="6.972615"><ele>1583.3333333333335</ele><time>2026-05-03T13:30:45.118Z</time></trkpt><trkpt lat="44.3758723" lon="6.9727733"><ele>1581.0</ele><time>2026-05-03T13:30:46.118Z</time></trkpt><trkpt lat="44.3757408" lon="6.972944"><ele>1581.0</ele><time>2026-05-03T13:30:47.118Z</time></trkpt><trkpt lat="44.3756163" lon="6.9731282"><ele>1581.0</ele><time>2026-05-03T13:30:48.117Z</time></trkpt><trkpt lat="44.3754936" lon="6.9733824"><ele>1581.0</ele><time>2026-05-03T13:30:49.117Z</time></trkpt><trkpt lat="44.3753835" lon="6.9736231"><ele>1574.0</ele><time>2026-05-03T13:30:50.118Z</time></trkpt><trkpt lat="44.3752299" lon="6.9738913"><ele>1567.0</ele><time>2026-05-03T13:30:51.118Z</time></trkpt><trkpt lat="44.375086" lon="6.9741511"><ele>1566.6666666666667</ele><time>2026-05-03T13:30:52.118Z</time></trkpt><trkpt lat="44.3749334" lon="6.9743926"><ele>1566.3333333333335</ele><time>2026-05-03T13:30:53.118Z</time></trkpt><trkpt lat="44.3747912" lon="6.9746238"><ele>1566.0</ele><time>2026-05-03T13:30:54.118Z</time></trkpt><trkpt lat="44.374661" lon="6.9748416"><ele>1561.0</ele><time>2026-05-03T13:30:55.118Z</time></trkpt><trkpt lat="44.3745508" lon="6.9750487"><ele>1556.0</ele><time>2026-05-03T13:30:56.118Z</time></trkpt><trkpt lat="44.3744471" lon="6.9752202"><ele>1551.0</ele><time>2026-05-03T13:30:57.118Z</time></trkpt><trkpt lat="44.3743532" lon="6.9753682"><ele>1551.0</ele><time>2026-05-03T13:30:58.118Z</time></trkpt><trkpt lat="44.3742717" lon="6.975517"><ele>1551.0</ele><time>2026-05-03T13:30:59.117Z</time></trkpt><trkpt lat="44.3742081" lon="6.9756915"><ele>1551.0</ele><time>2026-05-03T13:31:00.117Z</time></trkpt><trkpt lat="44.3741798" lon="6.9758903"><ele>1551.0</ele><time>2026-05-03T13:31:01.118Z</time></trkpt><trkpt lat="44.3741435" lon="6.9760938"><ele>1551.4</ele><time>2026-05-03T13:31:02.118Z</time></trkpt><trkpt lat="44.3741908" lon="6.9762791"><ele>1551.8</ele><time>2026-05-03T13:31:03.117Z</time></trkpt><trkpt lat="44.3742161" lon="6.9764348"><ele>1552.2</ele><time>2026-05-03T13:31:04.118Z</time></trkpt><trkpt lat="44.3742142" lon="6.9765919"><ele>1552.6000000000001</ele><time>2026-05-03T13:31:05.117Z</time></trkpt><trkpt lat="44.3741852" lon="6.9766852"><ele>1553.0</ele><time>2026-05-03T13:31:06.117Z</time></trkpt><trkpt lat="44.3741202" lon="6.9767633"><ele>1553.0</ele><time>2026-05-03T13:31:07.118Z</time></trkpt><trkpt lat="44.3740548" lon="6.9768047"><ele>1553.0</ele><time>2026-05-03T13:31:08.118Z</time></trkpt><trkpt lat="44.3739819" lon="6.9767576"><ele>1553.0</ele><time>2026-05-03T13:31:09.118Z</time></trkpt><trkpt lat="44.3739177" lon="6.9766852"><ele>1553.0</ele><time>2026-05-03T13:31:10.118Z</time></trkpt><trkpt lat="44.373902" lon="6.9764991"><ele>1553.0</ele><time>2026-05-03T13:31:11.118Z</time></trkpt><trkpt lat="44.3738913" lon="6.9763116"><ele>1553.25</ele><time>2026-05-03T13:31:12.118Z</time></trkpt><trkpt lat="44.3738777" lon="6.9761124"><ele>1553.5</ele><time>2026-05-03T13:31:13.118Z</time></trkpt><trkpt lat="44.3738717" lon="6.9759245"><ele>1553.75</ele><time>2026-05-03T13:31:14.118Z</time></trkpt><trkpt lat="44.3738656" lon="6.9757482"><ele>1554.0</ele><time>2026-05-03T13:31:15.118Z</time></trkpt><trkpt lat="44.3738582" lon="6.9755966"><ele>1550.8333333333333</ele><time>2026-05-03T13:31:16.118Z</time></trkpt><trkpt lat="44.3738324" lon="6.975474"><ele>1547.6666666666667</ele><time>2026-05-03T13:31:17.118Z</time></trkpt><trkpt lat="44.3737837" lon="6.9753741"><ele>1544.5</ele><time>2026-05-03T13:31:18.117Z</time></trkpt><trkpt lat="44.373714" lon="6.9753318"><ele>1541.3333333333335</ele><time>2026-05-03T13:31:19.118Z</time></trkpt><trkpt lat="44.3736377" lon="6.9753281"><ele>1538.1666666666667</ele><time>2026-05-03T13:31:20.118Z</time></trkpt><trkpt lat="44.3735713" lon="6.9753819"><ele>1535.0</ele><time>2026-05-03T13:31:21.118Z</time></trkpt><trkpt lat="44.3734977" lon="6.9754595"><ele>1535.0</ele><time>2026-05-03T13:31:22.118Z</time></trkpt><trkpt lat="44.3734933" lon="6.9756546"><ele>1535.0</ele><time>2026-05-03T13:31:23.118Z</time></trkpt><trkpt lat="44.373468" lon="6.9758401"><ele>1535.0</ele><time>2026-05-03T13:31:24.118Z</time></trkpt><trkpt lat="44.3734438" lon="6.9760263"><ele>1535.0</ele><time>2026-05-03T13:31:25.118Z</time></trkpt><trkpt lat="44.3734222" lon="6.9762102"><ele>1534.75</ele><time>2026-05-03T13:31:26.118Z</time></trkpt><trkpt lat="44.373404" lon="6.9764304"><ele>1534.5</ele><time>2026-05-03T13:31:27.117Z</time></trkpt><trkpt lat="44.3734025" lon="6.9766292"><ele>1534.25</ele><time>2026-05-03T13:31:28.118Z</time></trkpt><trkpt lat="44.3734268" lon="6.9768247"><ele>1534.0</ele><time>2026-05-03T13:31:29.118Z</time></trkpt><trkpt lat="44.3734593" lon="6.9770237"><ele>1534.0</ele><time>2026-05-03T13:31:30.117Z</time></trkpt><trkpt lat="44.3734893" lon="6.9771888"><ele>1534.0</ele><time>2026-05-03T13:31:31.118Z</time></trkpt><trkpt lat="44.3735044" lon="6.9773251"><ele>1534.0</ele><time>2026-05-03T13:31:32.118Z</time></trkpt><trkpt lat="44.3734968" lon="6.9774351"><ele>1534.0</ele><time>2026-05-03T13:31:33.117Z</time></trkpt><trkpt lat="44.3734635" lon="6.9775291"><ele>1534.0</ele><time>2026-05-03T13:31:34.117Z</time></trkpt><trkpt lat="44.3733933" lon="6.9775578"><ele>1534.0</ele><time>2026-05-03T13:31:35.118Z</time></trkpt><trkpt lat="44.3732801" lon="6.9774586"><ele>1534.0</ele><time>2026-05-03T13:31:37.118Z</time></trkpt><trkpt lat="44.3732536" lon="6.9773283"><ele>1534.0</ele><time>2026-05-03T13:31:38.118Z</time></trkpt><trkpt lat="44.3732364" lon="6.9771603"><ele>1534.0</ele><time>2026-05-03T13:31:39.117Z</time></trkpt><trkpt lat="44.3732171" lon="6.9769798"><ele>1534.0</ele><time>2026-05-03T13:31:40.118Z</time></trkpt><trkpt lat="44.3731959" lon="6.9767728"><ele>1534.75</ele><time>2026-05-03T13:31:41.118Z</time></trkpt><trkpt lat="44.3731653" lon="6.9765689"><ele>1535.5</ele><time>2026-05-03T13:31:42.118Z</time></trkpt><trkpt lat="44.3731536" lon="6.976387"><ele>1536.25</ele><time>2026-05-03T13:31:43.118Z</time></trkpt><trkpt lat="44.3731366" lon="6.9762081"><ele>1537.0</ele><time>2026-05-03T13:31:44.118Z</time></trkpt><trkpt lat="44.3731255" lon="6.9760414"><ele>1537.0000000000002</ele><time>2026-05-03T13:31:45.118Z</time></trkpt><trkpt lat="44.3731117" lon="6.9758954"><ele>1537.0</ele><time>2026-05-03T13:31:46.117Z</time></trkpt><trkpt lat="44.3730953" lon="6.9757716"><ele>1537.0</ele><time>2026-05-03T13:31:47.117Z</time></trkpt><trkpt lat="44.3730635" lon="6.9756595"><ele>1537.0</ele><time>2026-05-03T13:31:48.118Z</time></trkpt><trkpt lat="44.3730069" lon="6.9755864"><ele>1537.0000000000002</ele><time>2026-05-03T13:31:49.117Z</time></trkpt><trkpt lat="44.3729482" lon="6.9755266"><ele>1537.0</ele><time>2026-05-03T13:31:50.118Z</time></trkpt><trkpt lat="44.3728297" lon="6.9755315"><ele>1535.0</ele><time>2026-05-03T13:31:52.118Z</time></trkpt><trkpt lat="44.372838" lon="6.9757882"><ele>1533.0</ele><time>2026-05-03T13:31:53.118Z</time></trkpt><trkpt lat="44.3728422" lon="6.9759542"><ele>1531.0</ele><time>2026-05-03T13:31:54.118Z</time></trkpt><trkpt lat="44.3728319" lon="6.9760977"><ele>1529.0</ele><time>2026-05-03T13:31:55.118Z</time></trkpt><trkpt lat="44.3728173" lon="6.9762402"><ele>1527.8000000000002</ele><time>2026-05-03T13:31:56.118Z</time></trkpt><trkpt lat="44.3727414" lon="6.9763281"><ele>1526.6000000000001</ele><time>2026-05-03T13:31:57.118Z</time></trkpt><trkpt lat="44.3726432" lon="6.9763853"><ele>1525.4</ele><time>2026-05-03T13:31:58.118Z</time></trkpt><trkpt lat="44.3725354" lon="6.9764338"><ele>1524.2</ele><time>2026-05-03T13:31:59.118Z</time></trkpt><trkpt lat="44.3724294" lon="6.9765122"><ele>1523.0</ele><time>2026-05-03T13:32:00.118Z</time></trkpt><trkpt lat="44.3723461" lon="6.9766364"><ele>1523.0</ele><time>2026-05-03T13:32:01.118Z</time></trkpt><trkpt lat="44.3722521" lon="6.9767443"><ele>1523.0</ele><time>2026-05-03T13:32:02.118Z</time></trkpt><trkpt lat="44.3722337" lon="6.976963"><ele>1523.0</ele><time>2026-05-03T13:32:03.118Z</time></trkpt><trkpt lat="44.3721803" lon="6.9771441"><ele>1523.0</ele><time>2026-05-03T13:32:04.117Z</time></trkpt><trkpt lat="44.3721126" lon="6.9773174"><ele>1523.0</ele><time>2026-05-03T13:32:05.118Z</time></trkpt><trkpt lat="44.3720416" lon="6.9774946"><ele>1523.0</ele><time>2026-05-03T13:32:06.118Z</time></trkpt><trkpt lat="44.3719486" lon="6.9776978"><ele>1523.0</ele><time>2026-05-03T13:32:07.118Z</time></trkpt><trkpt lat="44.3718509" lon="6.9778943"><ele>1520.6666666666667</ele><time>2026-05-03T13:32:08.117Z</time></trkpt><trkpt lat="44.3717407" lon="6.9781019"><ele>1518.3333333333333</ele><time>2026-05-03T13:32:09.118Z</time></trkpt><trkpt lat="44.3716263" lon="6.978305"><ele>1516.0</ele><time>2026-05-03T13:32:10.117Z</time></trkpt><trkpt lat="44.3715126" lon="6.9785004"><ele>1514.0</ele><time>2026-05-03T13:32:11.118Z</time></trkpt><trkpt lat="44.3714051" lon="6.9787114"><ele>1512.0</ele><time>2026-05-03T13:32:12.118Z</time></trkpt><trkpt lat="44.3712984" lon="6.978931"><ele>1510.0</ele><time>2026-05-03T13:32:13.118Z</time></trkpt><trkpt lat="44.3711827" lon="6.9791601"><ele>1508.3333333333333</ele><time>2026-05-03T13:32:14.117Z</time></trkpt><trkpt lat="44.3710676" lon="6.979379"><ele>1506.6666666666667</ele><time>2026-05-03T13:32:15.118Z</time></trkpt><trkpt lat="44.3709319" lon="6.9796239"><ele>1505.0</ele><time>2026-05-03T13:32:16.118Z</time></trkpt><trkpt lat="44.3708007" lon="6.9798597"><ele>1505.3333333333335</ele><time>2026-05-03T13:32:17.117Z</time></trkpt><trkpt lat="44.370664" lon="6.9800868"><ele>1505.6666666666667</ele><time>2026-05-03T13:32:18.118Z</time></trkpt><trkpt lat="44.3705356" lon="6.9803099"><ele>1506.0</ele><time>2026-05-03T13:32:19.118Z</time></trkpt><trkpt lat="44.3704126" lon="6.9805383"><ele>1506.0</ele><time>2026-05-03T13:32:20.117Z</time></trkpt><trkpt lat="44.3702862" lon="6.9807656"><ele>1506.0</ele><time>2026-05-03T13:32:21.118Z</time></trkpt><trkpt lat="44.3701623" lon="6.9809948"><ele>1506.0</ele><time>2026-05-03T13:32:22.118Z</time></trkpt><trkpt lat="44.3700433" lon="6.9812372"><ele>1503.0</ele><time>2026-05-03T13:32:23.118Z</time></trkpt><trkpt lat="44.3699185" lon="6.9814776"><ele>1500.0</ele><time>2026-05-03T13:32:24.118Z</time></trkpt><trkpt lat="44.3697878" lon="6.9817069"><ele>1497.0</ele><time>2026-05-03T13:32:25.118Z</time></trkpt><trkpt lat="44.369658" lon="6.9819408"><ele>1495.3333333333333</ele><time>2026-05-03T13:32:26.118Z</time></trkpt><trkpt lat="44.3695265" lon="6.9821828"><ele>1493.6666666666665</ele><time>2026-05-03T13:32:27.118Z</time></trkpt><trkpt lat="44.3693986" lon="6.9824233"><ele>1492.0</ele><time>2026-05-03T13:32:28.118Z</time></trkpt><trkpt lat="44.3692733" lon="6.9826559"><ele>1491.3333333333333</ele><time>2026-05-03T13:32:29.118Z</time></trkpt><trkpt lat="44.3691522" lon="6.9828702"><ele>1490.6666666666667</ele><time>2026-05-03T13:32:30.118Z</time></trkpt><trkpt lat="44.3690254" lon="6.9831194"><ele>1490.0</ele><time>2026-05-03T13:32:31.117Z</time></trkpt><trkpt lat="44.3689089" lon="6.9833506"><ele>1487.6666666666667</ele><time>2026-05-03T13:32:32.118Z</time></trkpt><trkpt lat="44.3687869" lon="6.98359"><ele>1485.3333333333333</ele><time>2026-05-03T13:32:33.118Z</time></trkpt><trkpt lat="44.3686649" lon="6.9838146"><ele>1483.0</ele><time>2026-05-03T13:32:34.118Z</time></trkpt><trkpt lat="44.3685397" lon="6.9840431"><ele>1482.3333333333333</ele><time>2026-05-03T13:32:35.118Z</time></trkpt><trkpt lat="44.3684196" lon="6.9842709"><ele>1481.6666666666667</ele><time>2026-05-03T13:32:36.117Z</time></trkpt><trkpt lat="44.3683029" lon="6.9844915"><ele>1481.0</ele><time>2026-05-03T13:32:37.118Z</time></trkpt><trkpt lat="44.36818" lon="6.9846916"><ele>1481.0</ele><time>2026-05-03T13:32:38.118Z</time></trkpt><trkpt lat="44.3680641" lon="6.9849414"><ele>1481.0</ele><time>2026-05-03T13:32:39.118Z</time></trkpt><trkpt lat="44.3679422" lon="6.9851704"><ele>1481.0</ele><time>2026-05-03T13:32:40.118Z</time></trkpt><trkpt lat="44.3678223" lon="6.9853939"><ele>1478.3333333333335</ele><time>2026-05-03T13:32:41.118Z</time></trkpt><trkpt lat="44.3677074" lon="6.9855906"><ele>1475.6666666666667</ele><time>2026-05-03T13:32:42.118Z</time></trkpt><trkpt lat="44.3675736" lon="6.9858483"><ele>1473.0</ele><time>2026-05-03T13:32:43.118Z</time></trkpt><trkpt lat="44.367427" lon="6.9860452"><ele>1473.0</ele><time>2026-05-03T13:32:44.118Z</time></trkpt><trkpt lat="44.3672737" lon="6.9862276"><ele>1473.0</ele><time>2026-05-03T13:32:45.118Z</time></trkpt><trkpt lat="44.3671037" lon="6.9863861"><ele>1473.0</ele><time>2026-05-03T13:32:46.118Z</time></trkpt><trkpt lat="44.3669289" lon="6.9865307"><ele>1472.3333333333333</ele><time>2026-05-03T13:32:47.117Z</time></trkpt><trkpt lat="44.3667606" lon="6.9866738"><ele>1471.6666666666665</ele><time>2026-05-03T13:32:48.118Z</time></trkpt><trkpt lat="44.3665985" lon="6.9868193"><ele>1471.0</ele><time>2026-05-03T13:32:49.118Z</time></trkpt><trkpt lat="44.3664411" lon="6.9869734"><ele>1470.0</ele><time>2026-05-03T13:32:50.118Z</time></trkpt><trkpt lat="44.366291" lon="6.9871648"><ele>1469.0</ele><time>2026-05-03T13:32:51.118Z</time></trkpt><trkpt lat="44.366149" lon="6.9873745"><ele>1468.0</ele><time>2026-05-03T13:32:52.118Z</time></trkpt><trkpt lat="44.3660413" lon="6.9876275"><ele>1467.6666666666665</ele><time>2026-05-03T13:32:53.117Z</time></trkpt><trkpt lat="44.3659436" lon="6.9878846"><ele>1467.3333333333333</ele><time>2026-05-03T13:32:54.118Z</time></trkpt><trkpt lat="44.3658681" lon="6.9881642"><ele>1467.0</ele><time>2026-05-03T13:32:55.118Z</time></trkpt><trkpt lat="44.3657811" lon="6.9884251"><ele>1467.0</ele><time>2026-05-03T13:32:56.117Z</time></trkpt><trkpt lat="44.3656837" lon="6.9886858"><ele>1467.0</ele><time>2026-05-03T13:32:57.118Z</time></trkpt><trkpt lat="44.3655754" lon="6.9889286"><ele>1467.0</ele><time>2026-05-03T13:32:58.118Z</time></trkpt><trkpt lat="44.3654265" lon="6.9891594"><ele>1463.6666666666667</ele><time>2026-05-03T13:32:59.118Z</time></trkpt><trkpt lat="44.3652676" lon="6.9893734"><ele>1460.3333333333335</ele><time>2026-05-03T13:33:00.118Z</time></trkpt><trkpt lat="44.3650989" lon="6.9895763"><ele>1457.0</ele><time>2026-05-03T13:33:01.118Z</time></trkpt><trkpt lat="44.3649353" lon="6.9897764"><ele>1457.0</ele><time>2026-05-03T13:33:02.118Z</time></trkpt><trkpt lat="44.3647684" lon="6.98998"><ele>1457.0</ele><time>2026-05-03T13:33:03.117Z</time></trkpt><trkpt lat="44.3646109" lon="6.9901927"><ele>1457.0</ele><time>2026-05-03T13:33:04.118Z</time></trkpt><trkpt lat="44.3644583" lon="6.9904265"><ele>1456.0</ele><time>2026-05-03T13:33:05.118Z</time></trkpt><trkpt lat="44.364306" lon="6.990669"><ele>1455.0</ele><time>2026-05-03T13:33:06.118Z</time></trkpt><trkpt lat="44.364161" lon="6.9909115"><ele>1458.5</ele><time>2026-05-03T13:33:07.117Z</time></trkpt><trkpt lat="44.3640121" lon="6.9911552"><ele>1462.0</ele><time>2026-05-03T13:33:08.118Z</time></trkpt><trkpt lat="44.3638669" lon="6.9914037"><ele>1461.0</ele><time>2026-05-03T13:33:09.118Z</time></trkpt><trkpt lat="44.3637218" lon="6.9916417"><ele>1460.0</ele><time>2026-05-03T13:33:10.117Z</time></trkpt><trkpt lat="44.3635783" lon="6.9918766"><ele>1459.0</ele><time>2026-05-03T13:33:11.118Z</time></trkpt><trkpt lat="44.3634341" lon="6.9921146"><ele>1459.0</ele><time>2026-05-03T13:33:12.118Z</time></trkpt><trkpt lat="44.3632946" lon="6.9923424"><ele>1459.0</ele><time>2026-05-03T13:33:13.118Z</time></trkpt><trkpt lat="44.363159" lon="6.9925677"><ele>1459.0</ele><time>2026-05-03T13:33:14.118Z</time></trkpt><trkpt lat="44.3630175" lon="6.9927797"><ele>1457.6666666666665</ele><time>2026-05-03T13:33:15.118Z</time></trkpt><trkpt lat="44.3628668" lon="6.9929645"><ele>1456.3333333333333</ele><time>2026-05-03T13:33:16.118Z</time></trkpt><trkpt lat="44.3626976" lon="6.993139"><ele>1455.0</ele><time>2026-05-03T13:33:17.118Z</time></trkpt><trkpt lat="44.3625146" lon="6.9932682"><ele>1456.3333333333333</ele><time>2026-05-03T13:33:18.118Z</time></trkpt><trkpt lat="44.3623363" lon="6.9933879"><ele>1457.6666666666665</ele><time>2026-05-03T13:33:19.117Z</time></trkpt><trkpt lat="44.3621697" lon="6.9935071"><ele>1459.0</ele><time>2026-05-03T13:33:20.117Z</time></trkpt><trkpt lat="44.362014" lon="6.9936275"><ele>1459.0</ele><time>2026-05-03T13:33:21.118Z</time></trkpt><trkpt lat="44.3618583" lon="6.9937713"><ele>1459.0</ele><time>2026-05-03T13:33:22.118Z</time></trkpt><trkpt lat="44.361711" lon="6.9939484"><ele>1459.0</ele><time>2026-05-03T13:33:23.117Z</time></trkpt><trkpt lat="44.3615575" lon="6.9941505"><ele>1458.0</ele><time>2026-05-03T13:33:24.118Z</time></trkpt><trkpt lat="44.361408" lon="6.994352"><ele>1457.0</ele><time>2026-05-03T13:33:25.118Z</time></trkpt><trkpt lat="44.361254" lon="6.9945453"><ele>1456.0</ele><time>2026-05-03T13:33:26.118Z</time></trkpt><trkpt lat="44.3611049" lon="6.9947307"><ele>1456.0</ele><time>2026-05-03T13:33:27.118Z</time></trkpt><trkpt lat="44.3609677" lon="6.9948958"><ele>1456.0</ele><time>2026-05-03T13:33:28.118Z</time></trkpt><trkpt lat="44.3608436" lon="6.9950428"><ele>1456.0</ele><time>2026-05-03T13:33:29.118Z</time></trkpt><trkpt lat="44.3607315" lon="6.9951716"><ele>1454.25</ele><time>2026-05-03T13:33:30.118Z</time></trkpt><trkpt lat="44.3606071" lon="6.9952358"><ele>1452.5</ele><time>2026-05-03T13:33:31.118Z</time></trkpt><trkpt lat="44.3604633" lon="6.995263"><ele>1450.75</ele><time>2026-05-03T13:33:32.118Z</time></trkpt><trkpt lat="44.3603332" lon="6.9952966"><ele>1449.0</ele><time>2026-05-03T13:33:33.118Z</time></trkpt><trkpt lat="44.3602085" lon="6.9953058"><ele>1449.0</ele><time>2026-05-03T13:33:34.118Z</time></trkpt><trkpt lat="44.360085" lon="6.9953565"><ele>1449.0</ele><time>2026-05-03T13:33:35.118Z</time></trkpt><trkpt lat="44.3599593" lon="6.9954559"><ele>1449.0</ele><time>2026-05-03T13:33:36.118Z</time></trkpt><trkpt lat="44.3598432" lon="6.9955561"><ele>1449.0</ele><time>2026-05-03T13:33:37.118Z</time></trkpt><trkpt lat="44.3597219" lon="6.9957059"><ele>1446.25</ele><time>2026-05-03T13:33:38.118Z</time></trkpt><trkpt lat="44.3595976" lon="6.9958311"><ele>1443.5</ele><time>2026-05-03T13:33:39.118Z</time></trkpt><trkpt lat="44.3594899" lon="6.9959406"><ele>1440.75</ele><time>2026-05-03T13:33:40.117Z</time></trkpt><trkpt lat="44.3594365" lon="6.9961165"><ele>1438.0</ele><time>2026-05-03T13:33:41.118Z</time></trkpt><trkpt lat="44.3593757" lon="6.9962624"><ele>1438.0</ele><time>2026-05-03T13:33:42.118Z</time></trkpt><trkpt lat="44.3593868" lon="6.9964826"><ele>1438.0</ele><time>2026-05-03T13:33:43.118Z</time></trkpt><trkpt lat="44.3594038" lon="6.9967086"><ele>1438.0</ele><time>2026-05-03T13:33:44.117Z</time></trkpt><trkpt lat="44.3594181" lon="6.9969416"><ele>1437.0</ele><time>2026-05-03T13:33:45.118Z</time></trkpt><trkpt lat="44.3594095" lon="6.997162"><ele>1436.0</ele><time>2026-05-03T13:33:46.118Z</time></trkpt><trkpt lat="44.3593718" lon="6.9973585"><ele>1435.0</ele><time>2026-05-03T13:33:47.117Z</time></trkpt><trkpt lat="44.3593365" lon="6.9975629"><ele>1433.25</ele><time>2026-05-03T13:33:48.118Z</time></trkpt><trkpt lat="44.3593356" lon="6.9977775"><ele>1431.5</ele><time>2026-05-03T13:33:49.117Z</time></trkpt><trkpt lat="44.3593473" lon="6.9979644"><ele>1429.75</ele><time>2026-05-03T13:33:50.117Z</time></trkpt><trkpt lat="44.3594015" lon="6.9981194"><ele>1428.0</ele><time>2026-05-03T13:33:51.118Z</time></trkpt><trkpt lat="44.3594496" lon="6.9982485"><ele>1427.2</ele><time>2026-05-03T13:33:52.118Z</time></trkpt><trkpt lat="44.3595268" lon="6.9983648"><ele>1426.4</ele><time>2026-05-03T13:33:53.118Z</time></trkpt><trkpt lat="44.3595989" lon="6.9984685"><ele>1425.6000000000001</ele><time>2026-05-03T13:33:54.117Z</time></trkpt><trkpt lat="44.3596699" lon="6.9985706"><ele>1424.8000000000002</ele><time>2026-05-03T13:33:55.118Z</time></trkpt><trkpt lat="44.3597405" lon="6.9986858"><ele>1424.0</ele><time>2026-05-03T13:33:56.118Z</time></trkpt><trkpt lat="44.3597586" lon="6.9987954"><ele>1424.0</ele><time>2026-05-03T13:33:57.118Z</time></trkpt><trkpt lat="44.3597113" lon="6.9988895"><ele>1424.0</ele><time>2026-05-03T13:33:58.118Z</time></trkpt><trkpt lat="44.3596487" lon="6.9989423"><ele>1424.0</ele><time>2026-05-03T13:33:59.118Z</time></trkpt><trkpt lat="44.3595667" lon="6.9989196"><ele>1424.0</ele><time>2026-05-03T13:34:00.118Z</time></trkpt><trkpt lat="44.3594933" lon="6.99883"><ele>1424.0</ele><time>2026-05-03T13:34:01.118Z</time></trkpt><trkpt lat="44.3594131" lon="6.9987136"><ele>1423.0</ele><time>2026-05-03T13:34:02.117Z</time></trkpt><trkpt lat="44.3593248" lon="6.9985787"><ele>1422.0</ele><time>2026-05-03T13:34:03.118Z</time></trkpt><trkpt lat="44.3592165" lon="6.9984355"><ele>1421.0</ele><time>2026-05-03T13:34:04.118Z</time></trkpt><trkpt lat="44.3591118" lon="6.998303"><ele>1420.0</ele><time>2026-05-03T13:34:05.118Z</time></trkpt><trkpt lat="44.3590086" lon="6.9981828"><ele>1419.5</ele><time>2026-05-03T13:34:06.118Z</time></trkpt><trkpt lat="44.358926" lon="6.9980351"><ele>1419.0</ele><time>2026-05-03T13:34:07.118Z</time></trkpt><trkpt lat="44.3588462" lon="6.9979076"><ele>1418.5</ele><time>2026-05-03T13:34:08.118Z</time></trkpt><trkpt lat="44.3587728" lon="6.9977968"><ele>1418.0</ele><time>2026-05-03T13:34:09.118Z</time></trkpt><trkpt lat="44.3586886" lon="6.9977223"><ele>1418.0</ele><time>2026-05-03T13:34:10.118Z</time></trkpt><trkpt lat="44.3586122" lon="6.9976672"><ele>1418.0</ele><time>2026-05-03T13:34:11.117Z</time></trkpt><trkpt lat="44.3585284" lon="6.9976639"><ele>1418.0</ele><time>2026-05-03T13:34:12.117Z</time></trkpt><trkpt lat="44.3584632" lon="6.9977499"><ele>1418.0</ele><time>2026-05-03T13:34:13.118Z</time></trkpt><trkpt lat="44.3584099" lon="6.997797"><ele>1418.0</ele><time>2026-05-03T13:34:14.118Z</time></trkpt><trkpt lat="44.3583631" lon="6.9978749"><ele>1418.0</ele><time>2026-05-03T13:34:15.117Z</time></trkpt><trkpt lat="44.3584757" lon="6.9980652"><ele>1418.0</ele><time>2026-05-03T13:34:16.117Z</time></trkpt><trkpt lat="44.3585382" lon="6.9982548"><ele>1418.0</ele><time>2026-05-03T13:34:17.118Z</time></trkpt><trkpt lat="44.3585919" lon="6.9984573"><ele>1418.0</ele><time>2026-05-03T13:34:18.118Z</time></trkpt><trkpt lat="44.3586468" lon="6.9986529"><ele>1416.3333333333335</ele><time>2026-05-03T13:34:19.118Z</time></trkpt><trkpt lat="44.3586964" lon="6.9988863"><ele>1414.6666666666667</ele><time>2026-05-03T13:34:20.118Z</time></trkpt><trkpt lat="44.3587409" lon="6.9991178"><ele>1413.0</ele><time>2026-05-03T13:34:21.118Z</time></trkpt><trkpt lat="44.3587723" lon="6.9993339"><ele>1413.0</ele><time>2026-05-03T13:34:22.118Z</time></trkpt><trkpt lat="44.3587982" lon="6.9995482"><ele>1413.0</ele><time>2026-05-03T13:34:23.117Z</time></trkpt><trkpt lat="44.3588105" lon="6.9997665"><ele>1413.0</ele><time>2026-05-03T13:34:24.118Z</time></trkpt><trkpt lat="44.3588159" lon="6.9999682"><ele>1413.0</ele><time>2026-05-03T13:34:25.118Z</time></trkpt><trkpt lat="44.3588136" lon="7.000165"><ele>1413.0</ele><time>2026-05-03T13:34:26.118Z</time></trkpt><trkpt lat="44.3588088" lon="7.0003648"><ele>1413.0</ele><time>2026-05-03T13:34:27.118Z</time></trkpt><trkpt lat="44.3588004" lon="7.000564"><ele>1413.0</ele><time>2026-05-03T13:34:28.117Z</time></trkpt><trkpt lat="44.3587969" lon="7.0007598"><ele>1415.5</ele><time>2026-05-03T13:34:29.117Z</time></trkpt><trkpt lat="44.3587906" lon="7.0009585"><ele>1418.0</ele><time>2026-05-03T13:34:30.117Z</time></trkpt><trkpt lat="44.3587795" lon="7.0011619"><ele>1420.5</ele><time>2026-05-03T13:34:31.118Z</time></trkpt><trkpt lat="44.3587468" lon="7.0013437"><ele>1423.0</ele><time>2026-05-03T13:34:32.118Z</time></trkpt><trkpt lat="44.358724" lon="7.0015168"><ele>1433.0</ele><time>2026-05-03T13:34:33.117Z</time></trkpt><trkpt lat="44.3586954" lon="7.0016934"><ele>1443.0</ele><time>2026-05-03T13:34:34.118Z</time></trkpt><trkpt lat="44.3550871" lon="7.0101006"><ele>1422.3333333333333</ele><time>2026-05-03T13:35:17.104Z</time></trkpt><trkpt lat="44.3549024" lon="7.0101474"><ele>1401.6666666666665</ele><time>2026-05-03T13:35:18.102Z</time></trkpt><trkpt lat="44.3547108" lon="7.0101691"><ele>1381.0</ele><time>2026-05-03T13:35:19.102Z</time></trkpt><trkpt lat="44.3545318" lon="7.0102672"><ele>1381.0</ele><time>2026-05-03T13:35:20.102Z</time></trkpt><trkpt lat="44.3543381" lon="7.0104039"><ele>1381.0</ele><time>2026-05-03T13:35:21.102Z</time></trkpt><trkpt lat="44.3541742" lon="7.0105599"><ele>1381.0</ele><time>2026-05-03T13:35:22.101Z</time></trkpt><trkpt lat="44.3540203" lon="7.0107502"><ele>1383.0</ele><time>2026-05-03T13:35:23.1Z</time></trkpt><trkpt lat="44.3538789" lon="7.0109644"><ele>1385.0</ele><time>2026-05-03T13:35:24.101Z</time></trkpt><trkpt lat="44.3537443" lon="7.0111792"><ele>1387.0</ele><time>2026-05-03T13:35:25.101Z</time></trkpt><trkpt lat="44.3536087" lon="7.0114147"><ele>1387.0</ele><time>2026-05-03T13:35:26.101Z</time></trkpt><trkpt lat="44.3534698" lon="7.0116437"><ele>1387.0</ele><time>2026-05-03T13:35:27.1Z</time></trkpt><trkpt lat="44.3533399" lon="7.0118702"><ele>1387.0</ele><time>2026-05-03T13:35:28.101Z</time></trkpt><trkpt lat="44.3532082" lon="7.0120949"><ele>1382.0</ele><time>2026-05-03T13:35:29.1Z</time></trkpt><trkpt lat="44.353074" lon="7.0123222"><ele>1377.0</ele><time>2026-05-03T13:35:30.101Z</time></trkpt><trkpt lat="44.3529431" lon="7.0125596"><ele>1372.0</ele><time>2026-05-03T13:35:31.101Z</time></trkpt><trkpt lat="44.3528154" lon="7.0127955"><ele>1372.0</ele><time>2026-05-03T13:35:32.101Z</time></trkpt><trkpt lat="44.352695" lon="7.0130293"><ele>1372.0</ele><time>2026-05-03T13:35:33.101Z</time></trkpt><trkpt lat="44.352571" lon="7.0132641"><ele>1372.0</ele><time>2026-05-03T13:35:34.1Z</time></trkpt><trkpt lat="44.3524436" lon="7.0134944"><ele>1371.0</ele><time>2026-05-03T13:35:35.1Z</time></trkpt><trkpt lat="44.3523229" lon="7.0137348"><ele>1370.0</ele><time>2026-05-03T13:35:36.101Z</time></trkpt><trkpt lat="44.3522412" lon="7.0139881"><ele>1369.0</ele><time>2026-05-03T13:35:37.101Z</time></trkpt><trkpt lat="44.3521457" lon="7.0142345"><ele>1369.0</ele><time>2026-05-03T13:35:38.1Z</time></trkpt><trkpt lat="44.3520642" lon="7.0144852"><ele>1369.0</ele><time>2026-05-03T13:35:39.101Z</time></trkpt><trkpt lat="44.3519909" lon="7.0147525"><ele>1369.0</ele><time>2026-05-03T13:35:40.101Z</time></trkpt><trkpt lat="44.3519205" lon="7.0150317"><ele>1365.6666666666665</ele><time>2026-05-03T13:35:41.1Z</time></trkpt><trkpt lat="44.3518772" lon="7.0152932"><ele>1362.3333333333333</ele><time>2026-05-03T13:35:42.101Z</time></trkpt><trkpt lat="44.3518357" lon="7.0155342"><ele>1359.0</ele><time>2026-05-03T13:35:43.101Z</time></trkpt><trkpt lat="44.3517959" lon="7.0157783"><ele>1356.25</ele><time>2026-05-03T13:35:44.101Z</time></trkpt><trkpt lat="44.3517757" lon="7.0160269"><ele>1353.5</ele><time>2026-05-03T13:35:45.101Z</time></trkpt><trkpt lat="44.3517573" lon="7.0162226"><ele>1350.75</ele><time>2026-05-03T13:35:46.101Z</time></trkpt><trkpt lat="44.3517427" lon="7.0163922"><ele>1348.0</ele><time>2026-05-03T13:35:47.101Z</time></trkpt><trkpt lat="44.3517258" lon="7.0165474"><ele>1344.4</ele><time>2026-05-03T13:35:48.101Z</time></trkpt><trkpt lat="44.3516883" lon="7.016688"><ele>1340.8000000000002</ele><time>2026-05-03T13:35:49.101Z</time></trkpt><trkpt lat="44.3516595" lon="7.0168183"><ele>1337.2</ele><time>2026-05-03T13:35:50.101Z</time></trkpt><trkpt lat="44.3516047" lon="7.0169159"><ele>1333.6</ele><time>2026-05-03T13:35:51.101Z</time></trkpt><trkpt lat="44.3515441" lon="7.016992"><ele>1330.0</ele><time>2026-05-03T13:35:52.101Z</time></trkpt><trkpt lat="44.3514446" lon="7.0170173"><ele>1333.25</ele><time>2026-05-03T13:35:53.101Z</time></trkpt><trkpt lat="44.3513318" lon="7.0170363"><ele>1336.5</ele><time>2026-05-03T13:35:54.101Z</time></trkpt><trkpt lat="44.35116" lon="7.0170484"><ele>1339.75</ele><time>2026-05-03T13:35:55.101Z</time></trkpt><trkpt lat="44.3510016" lon="7.0170539"><ele>1343.0</ele><time>2026-05-03T13:35:56.1Z</time></trkpt><trkpt lat="44.3508734" lon="7.0170383"><ele>1343.0</ele><time>2026-05-03T13:35:57.101Z</time></trkpt><trkpt lat="44.3507398" lon="7.0169989"><ele>1343.0</ele><time>2026-05-03T13:35:58.101Z</time></trkpt><trkpt lat="44.3506074" lon="7.016961"><ele>1343.0</ele><time>2026-05-03T13:35:59.101Z</time></trkpt><trkpt lat="44.3504794" lon="7.0169077"><ele>1343.0</ele><time>2026-05-03T13:36:00.101Z</time></trkpt><trkpt lat="44.3503537" lon="7.0168464"><ele>1344.25</ele><time>2026-05-03T13:36:01.101Z</time></trkpt><trkpt lat="44.350223" lon="7.0167992"><ele>1345.5</ele><time>2026-05-03T13:36:02.1Z</time></trkpt><trkpt lat="44.3501069" lon="7.0167317"><ele>1346.75</ele><time>2026-05-03T13:36:03.101Z</time></trkpt><trkpt lat="44.3499823" lon="7.016649"><ele>1348.0</ele><time>2026-05-03T13:36:04.101Z</time></trkpt><trkpt lat="44.3498665" lon="7.0165612"><ele>1348.0</ele><time>2026-05-03T13:36:05.101Z</time></trkpt><trkpt lat="44.349756" lon="7.0164329"><ele>1348.0</ele><time>2026-05-03T13:36:06.101Z</time></trkpt><trkpt lat="44.3496369" lon="7.0162707"><ele>1348.0</ele><time>2026-05-03T13:36:07.101Z</time></trkpt><trkpt lat="44.349516" lon="7.0161283"><ele>1342.6666666666665</ele><time>2026-05-03T13:36:08.101Z</time></trkpt><trkpt lat="44.3493979" lon="7.0159749"><ele>1337.3333333333333</ele><time>2026-05-03T13:36:09.101Z</time></trkpt><trkpt lat="44.3492827" lon="7.0158079"><ele>1332.0</ele><time>2026-05-03T13:36:10.101Z</time></trkpt><trkpt lat="44.3491762" lon="7.0156417"><ele>1332.0</ele><time>2026-05-03T13:36:11.1Z</time></trkpt><trkpt lat="44.3490691" lon="7.0154787"><ele>1332.0</ele><time>2026-05-03T13:36:12.101Z</time></trkpt><trkpt lat="44.3489553" lon="7.0153019"><ele>1332.0</ele><time>2026-05-03T13:36:13.101Z</time></trkpt><trkpt lat="44.3488515" lon="7.0151154"><ele>1329.3333333333333</ele><time>2026-05-03T13:36:14.101Z</time></trkpt><trkpt lat="44.3487391" lon="7.014936"><ele>1326.6666666666665</ele><time>2026-05-03T13:36:15.101Z</time></trkpt><trkpt lat="44.3486359" lon="7.0147643"><ele>1324.0</ele><time>2026-05-03T13:36:16.101Z</time></trkpt><trkpt lat="44.3485439" lon="7.0146265"><ele>1324.0</ele><time>2026-05-03T13:36:17.101Z</time></trkpt><trkpt lat="44.3484541" lon="7.0144958"><ele>1324.0</ele><time>2026-05-03T13:36:18.101Z</time></trkpt><trkpt lat="44.3483652" lon="7.0144168"><ele>1324.0</ele><time>2026-05-03T13:36:19.101Z</time></trkpt><trkpt lat="44.3482623" lon="7.0143454"><ele>1324.0</ele><time>2026-05-03T13:36:20.101Z</time></trkpt><trkpt lat="44.3481621" lon="7.0142678"><ele>1326.25</ele><time>2026-05-03T13:36:21.101Z</time></trkpt><trkpt lat="44.3480325" lon="7.0143005"><ele>1328.5</ele><time>2026-05-03T13:36:22.101Z</time></trkpt><trkpt lat="44.3479184" lon="7.0143404"><ele>1330.75</ele><time>2026-05-03T13:36:23.101Z</time></trkpt><trkpt lat="44.3478127" lon="7.01444"><ele>1333.0</ele><time>2026-05-03T13:36:24.101Z</time></trkpt><trkpt lat="44.3477367" lon="7.0145836"><ele>1333.0</ele><time>2026-05-03T13:36:25.101Z</time></trkpt><trkpt lat="44.347686" lon="7.0147569"><ele>1333.0</ele><time>2026-05-03T13:36:26.101Z</time></trkpt><trkpt lat="44.3476299" lon="7.0149049"><ele>1333.0</ele><time>2026-05-03T13:36:27.101Z</time></trkpt><trkpt lat="44.3475897" lon="7.0150529"><ele>1333.0</ele><time>2026-05-03T13:36:28.101Z</time></trkpt><trkpt lat="44.3476021" lon="7.0151675"><ele>1333.5</ele><time>2026-05-03T13:36:29.101Z</time></trkpt><trkpt lat="44.3476372" lon="7.0152872"><ele>1334.0</ele><time>2026-05-03T13:36:30.101Z</time></trkpt><trkpt lat="44.3477247" lon="7.0154039"><ele>1334.5</ele><time>2026-05-03T13:36:31.101Z</time></trkpt><trkpt lat="44.3478543" lon="7.0155262"><ele>1335.0</ele><time>2026-05-03T13:36:32.1Z</time></trkpt><trkpt lat="44.3480379" lon="7.0156467"><ele>1322.0</ele><time>2026-05-03T13:36:33.1Z</time></trkpt><trkpt lat="44.3483345" lon="7.0157663"><ele>1309.0</ele><time>2026-05-03T13:36:34.101Z</time></trkpt><trkpt lat="44.3484952" lon="7.0158913"><ele>1307.0</ele><time>2026-05-03T13:36:35.101Z</time></trkpt><trkpt lat="44.3486441" lon="7.0160597"><ele>1305.0</ele><time>2026-05-03T13:36:36.101Z</time></trkpt><trkpt lat="44.3487674" lon="7.0162357"><ele>1303.0</ele><time>2026-05-03T13:36:37.101Z</time></trkpt><trkpt lat="44.3488684" lon="7.0164162"><ele>1302.3333333333333</ele><time>2026-05-03T13:36:38.101Z</time></trkpt><trkpt lat="44.3489419" lon="7.016639"><ele>1301.6666666666667</ele><time>2026-05-03T13:36:39.101Z</time></trkpt><trkpt lat="44.3490017" lon="7.0168646"><ele>1301.0</ele><time>2026-05-03T13:36:40.101Z</time></trkpt><trkpt lat="44.3490476" lon="7.0171041"><ele>1301.0</ele><time>2026-05-03T13:36:41.1Z</time></trkpt><trkpt lat="44.3490837" lon="7.0173563"><ele>1301.0</ele><time>2026-05-03T13:36:42.101Z</time></trkpt><trkpt lat="44.3491245" lon="7.0175945"><ele>1301.0</ele><time>2026-05-03T13:36:43.101Z</time></trkpt><trkpt lat="44.3491361" lon="7.0178715"><ele>1298.0</ele><time>2026-05-03T13:36:44.101Z</time></trkpt><trkpt lat="44.3491123" lon="7.0181352"><ele>1295.0</ele><time>2026-05-03T13:36:45.101Z</time></trkpt><trkpt lat="44.3490881" lon="7.0184041"><ele>1292.0</ele><time>2026-05-03T13:36:46.101Z</time></trkpt><trkpt lat="44.3490257" lon="7.0186752"><ele>1288.6666666666667</ele><time>2026-05-03T13:36:47.101Z</time></trkpt><trkpt lat="44.3489464" lon="7.018947"><ele>1285.3333333333333</ele><time>2026-05-03T13:36:48.1Z</time></trkpt><trkpt lat="44.3488629" lon="7.0192275"><ele>1282.0</ele><time>2026-05-03T13:36:49.101Z</time></trkpt><trkpt lat="44.3487766" lon="7.0195063"><ele>1279.0</ele><time>2026-05-03T13:36:50.101Z</time></trkpt><trkpt lat="44.3486858" lon="7.0197874"><ele>1276.0</ele><time>2026-05-03T13:36:51.101Z</time></trkpt><trkpt lat="44.3485843" lon="7.0200638"><ele>1273.0</ele><time>2026-05-03T13:36:52.101Z</time></trkpt><trkpt lat="44.3485077" lon="7.0203659"><ele>1273.0</ele><time>2026-05-03T13:36:53.101Z</time></trkpt><trkpt lat="44.3484194" lon="7.0206709"><ele>1273.0</ele><time>2026-05-03T13:36:54.101Z</time></trkpt><trkpt lat="44.3483275" lon="7.0209752"><ele>1275.0</ele><time>2026-05-03T13:36:55.101Z</time></trkpt><trkpt lat="44.3482315" lon="7.021273"><ele>1277.0</ele><time>2026-05-03T13:36:56.101Z</time></trkpt><trkpt lat="44.3481405" lon="7.0215689"><ele>1276.0</ele><time>2026-05-03T13:36:57.101Z</time></trkpt><trkpt lat="44.3480468" lon="7.0218675"><ele>1275.0</ele><time>2026-05-03T13:36:58.101Z</time></trkpt><trkpt lat="44.3479521" lon="7.0221604"><ele>1275.0</ele><time>2026-05-03T13:36:59.101Z</time></trkpt><trkpt lat="44.3478708" lon="7.0224485"><ele>1275.0</ele><time>2026-05-03T13:37:00.101Z</time></trkpt><trkpt lat="44.3477861" lon="7.0227461"><ele>1272.0</ele><time>2026-05-03T13:37:01.101Z</time></trkpt><trkpt lat="44.3477103" lon="7.0229931"><ele>1269.0</ele><time>2026-05-03T13:37:02.1Z</time></trkpt><trkpt lat="44.3476315" lon="7.0232506"><ele>1266.0</ele><time>2026-05-03T13:37:03.101Z</time></trkpt><trkpt lat="44.3475278" lon="7.0234801"><ele>1266.0</ele><time>2026-05-03T13:37:04.101Z</time></trkpt><trkpt lat="44.3474165" lon="7.0237192"><ele>1266.0</ele><time>2026-05-03T13:37:05.101Z</time></trkpt><trkpt lat="44.3472917" lon="7.0239496"><ele>1266.0</ele><time>2026-05-03T13:37:06.101Z</time></trkpt><trkpt lat="44.3471706" lon="7.0241801"><ele>1265.3333333333333</ele><time>2026-05-03T13:37:07.101Z</time></trkpt><trkpt lat="44.3470515" lon="7.0244191"><ele>1264.6666666666665</ele><time>2026-05-03T13:37:08.101Z</time></trkpt><trkpt lat="44.3469458" lon="7.0246633"><ele>1264.0</ele><time>2026-05-03T13:37:09.101Z</time></trkpt><trkpt lat="44.3468405" lon="7.0248981"><ele>1262.3333333333333</ele><time>2026-05-03T13:37:10.101Z</time></trkpt><trkpt lat="44.3467964" lon="7.0252087"><ele>1260.6666666666667</ele><time>2026-05-03T13:37:11.101Z</time></trkpt><trkpt lat="44.3467554" lon="7.0255049"><ele>1259.0</ele><time>2026-05-03T13:37:12.101Z</time></trkpt><trkpt lat="44.3467414" lon="7.0258133"><ele>1259.0</ele><time>2026-05-03T13:37:13.101Z</time></trkpt><trkpt lat="44.3467065" lon="7.0261056"><ele>1259.0</ele><time>2026-05-03T13:37:14.101Z</time></trkpt><trkpt lat="44.3466493" lon="7.0263755"><ele>1259.0</ele><time>2026-05-03T13:37:15.101Z</time></trkpt><trkpt lat="44.3465897" lon="7.0266458"><ele>1259.0</ele><time>2026-05-03T13:37:16.101Z</time></trkpt><trkpt lat="44.346482" lon="7.0268887"><ele>1259.0</ele><time>2026-05-03T13:37:17.101Z</time></trkpt><trkpt lat="44.3463646" lon="7.0271045"><ele>1259.0</ele><time>2026-05-03T13:37:18.101Z</time></trkpt><trkpt lat="44.3462519" lon="7.0273247"><ele>1255.6666666666667</ele><time>2026-05-03T13:37:19.101Z</time></trkpt><trkpt lat="44.3461579" lon="7.0275458"><ele>1252.3333333333333</ele><time>2026-05-03T13:37:20.1Z</time></trkpt><trkpt lat="44.3460594" lon="7.0277553"><ele>1249.0</ele><time>2026-05-03T13:37:21.101Z</time></trkpt><trkpt lat="44.345979" lon="7.027988"><ele>1249.0</ele><time>2026-05-03T13:37:22.101Z</time></trkpt><trkpt lat="44.3459174" lon="7.0282681"><ele>1249.0</ele><time>2026-05-03T13:37:23.101Z</time></trkpt><trkpt lat="44.3458613" lon="7.0285286"><ele>1249.0</ele><time>2026-05-03T13:37:24.101Z</time></trkpt><trkpt lat="44.3458153" lon="7.0288051"><ele>1250.6666666666665</ele><time>2026-05-03T13:37:25.101Z</time></trkpt><trkpt lat="44.3457686" lon="7.0290735"><ele>1252.3333333333333</ele><time>2026-05-03T13:37:26.101Z</time></trkpt><trkpt lat="44.3457383" lon="7.0293247"><ele>1254.0</ele><time>2026-05-03T13:37:27.101Z</time></trkpt><trkpt lat="44.3457023" lon="7.0295657"><ele>1253.0</ele><time>2026-05-03T13:37:28.101Z</time></trkpt><trkpt lat="44.3456592" lon="7.0298009"><ele>1252.0</ele><time>2026-05-03T13:37:29.101Z</time></trkpt><trkpt lat="44.3456071" lon="7.0300223"><ele>1251.0</ele><time>2026-05-03T13:37:30.101Z</time></trkpt><trkpt lat="44.3455266" lon="7.0302141"><ele>1251.0</ele><time>2026-05-03T13:37:31.1Z</time></trkpt><trkpt lat="44.3454369" lon="7.0303923"><ele>1251.0</ele><time>2026-05-03T13:37:32.101Z</time></trkpt><trkpt lat="44.3453087" lon="7.030539"><ele>1251.0</ele><time>2026-05-03T13:37:33.101Z</time></trkpt><trkpt lat="44.3451726" lon="7.0306606"><ele>1251.0</ele><time>2026-05-03T13:37:34.101Z</time></trkpt><trkpt lat="44.3450298" lon="7.0307673"><ele>1251.0</ele><time>2026-05-03T13:37:35.101Z</time></trkpt><trkpt lat="44.3448885" lon="7.0308705"><ele>1251.0</ele><time>2026-05-03T13:37:36.101Z</time></trkpt><trkpt lat="44.3447577" lon="7.0309757"><ele>1248.25</ele><time>2026-05-03T13:37:37.1Z</time></trkpt><trkpt lat="44.344626" lon="7.0310804"><ele>1245.5</ele><time>2026-05-03T13:37:38.101Z</time></trkpt><trkpt lat="44.3445372" lon="7.0311861"><ele>1242.75</ele><time>2026-05-03T13:37:39.101Z</time></trkpt><trkpt lat="44.3444283" lon="7.0312921"><ele>1240.0</ele><time>2026-05-03T13:37:40.101Z</time></trkpt><trkpt lat="44.3443096" lon="7.031436"><ele>1240.0</ele><time>2026-05-03T13:37:41.101Z</time></trkpt><trkpt lat="44.3442807" lon="7.0316236"><ele>1240.0</ele><time>2026-05-03T13:37:42.1Z</time></trkpt><trkpt lat="44.3442413" lon="7.0318348"><ele>1240.0</ele><time>2026-05-03T13:37:43.101Z</time></trkpt><trkpt lat="44.3442055" lon="7.032061"><ele>1239.3333333333333</ele><time>2026-05-03T13:37:44.101Z</time></trkpt><trkpt lat="44.3441658" lon="7.0322814"><ele>1238.6666666666667</ele><time>2026-05-03T13:37:45.101Z</time></trkpt><trkpt lat="44.3441192" lon="7.0324963"><ele>1238.0</ele><time>2026-05-03T13:37:46.1Z</time></trkpt><trkpt lat="44.3440873" lon="7.0327093"><ele>1238.0</ele><time>2026-05-03T13:37:47.101Z</time></trkpt><trkpt lat="44.3440375" lon="7.0329146"><ele>1238.0</ele><time>2026-05-03T13:37:48.101Z</time></trkpt><trkpt lat="44.3440406" lon="7.0331267"><ele>1238.0</ele><time>2026-05-03T13:37:49.101Z</time></trkpt><trkpt lat="44.3440361" lon="7.0333347"><ele>1239.3333333333335</ele><time>2026-05-03T13:37:50.101Z</time></trkpt><trkpt lat="44.344031" lon="7.0335454"><ele>1240.6666666666667</ele><time>2026-05-03T13:37:51.101Z</time></trkpt><trkpt lat="44.3440214" lon="7.0337711"><ele>1242.0</ele><time>2026-05-03T13:37:52.101Z</time></trkpt><trkpt lat="44.3440008" lon="7.0339822"><ele>1242.0</ele><time>2026-05-03T13:37:53.101Z</time></trkpt><trkpt lat="44.3439727" lon="7.0341944"><ele>1242.0</ele><time>2026-05-03T13:37:54.101Z</time></trkpt><trkpt lat="44.3439409" lon="7.0344024"><ele>1242.0</ele><time>2026-05-03T13:37:55.101Z</time></trkpt><trkpt lat="44.3438926" lon="7.0346092"><ele>1238.0</ele><time>2026-05-03T13:37:56.101Z</time></trkpt><trkpt lat="44.3438445" lon="7.0347988"><ele>1234.0</ele><time>2026-05-03T13:37:57.101Z</time></trkpt><trkpt lat="44.3437829" lon="7.0349818"><ele>1230.0</ele><time>2026-05-03T13:37:58.101Z</time></trkpt><trkpt lat="44.3437143" lon="7.0351605"><ele>1226.0</ele><time>2026-05-03T13:37:59.1Z</time></trkpt><trkpt lat="44.3436362" lon="7.0353277"><ele>1226.0</ele><time>2026-05-03T13:38:00.101Z</time></trkpt><trkpt lat="44.3435564" lon="7.0354952"><ele>1226.0</ele><time>2026-05-03T13:38:01.1Z</time></trkpt><trkpt lat="44.3434473" lon="7.035623"><ele>1226.0</ele><time>2026-05-03T13:38:02.101Z</time></trkpt><trkpt lat="44.3433441" lon="7.0357285"><ele>1226.0</ele><time>2026-05-03T13:38:03.1Z</time></trkpt><trkpt lat="44.3432401" lon="7.0358348"><ele>1225.3999999999999</ele><time>2026-05-03T13:38:04.101Z</time></trkpt><trkpt lat="44.3431308" lon="7.0359186"><ele>1224.8</ele><time>2026-05-03T13:38:05.101Z</time></trkpt><trkpt lat="44.3430939" lon="7.0359906"><ele>1224.1999999999998</ele><time>2026-05-03T13:38:06.101Z</time></trkpt><trkpt lat="44.34304" lon="7.0360798"><ele>1223.6</ele><time>2026-05-03T13:38:07.101Z</time></trkpt><trkpt lat="44.343009" lon="7.0361808"><ele>1223.0</ele><time>2026-05-03T13:38:08.101Z</time></trkpt><trkpt lat="44.3430025" lon="7.0363225"><ele>1224.75</ele><time>2026-05-03T13:38:09.101Z</time></trkpt><trkpt lat="44.3430508" lon="7.0365001"><ele>1226.5</ele><time>2026-05-03T13:38:10.101Z</time></trkpt><trkpt lat="44.3431062" lon="7.0366843"><ele>1228.25</ele><time>2026-05-03T13:38:11.101Z</time></trkpt><trkpt lat="44.343193" lon="7.0368583"><ele>1230.0</ele><time>2026-05-03T13:38:12.101Z</time></trkpt><trkpt lat="44.3432925" lon="7.0370379"><ele>1230.0</ele><time>2026-05-03T13:38:13.1Z</time></trkpt><trkpt lat="44.3433831" lon="7.0372297"><ele>1230.0</ele><time>2026-05-03T13:38:14.101Z</time></trkpt><trkpt lat="44.343462" lon="7.0374325"><ele>1230.0</ele><time>2026-05-03T13:38:15.101Z</time></trkpt><trkpt lat="44.3435301" lon="7.0376392"><ele>1227.0</ele><time>2026-05-03T13:38:16.101Z</time></trkpt><trkpt lat="44.3436014" lon="7.0378551"><ele>1224.0</ele><time>2026-05-03T13:38:17.101Z</time></trkpt><trkpt lat="44.3436749" lon="7.0380632"><ele>1221.0</ele><time>2026-05-03T13:38:18.101Z</time></trkpt><trkpt lat="44.343741" lon="7.0382718"><ele>1219.6666666666667</ele><time>2026-05-03T13:38:19.101Z</time></trkpt><trkpt lat="44.3437995" lon="7.0384669"><ele>1218.3333333333335</ele><time>2026-05-03T13:38:20.101Z</time></trkpt><trkpt lat="44.3438661" lon="7.038671"><ele>1217.0</ele><time>2026-05-03T13:38:21.101Z</time></trkpt><trkpt lat="44.3439202" lon="7.0388606"><ele>1224.3333333333335</ele><time>2026-05-03T13:38:22.101Z</time></trkpt><trkpt lat="44.3439784" lon="7.0390704"><ele>1231.6666666666667</ele><time>2026-05-03T13:38:23.101Z</time></trkpt><trkpt lat="44.3440506" lon="7.0392587"><ele>1239.0</ele><time>2026-05-03T13:38:24.101Z</time></trkpt><trkpt lat="44.3440958" lon="7.03947"><ele>1240.0</ele><time>2026-05-03T13:38:25.101Z</time></trkpt><trkpt lat="44.3440839" lon="7.0397125"><ele>1241.0</ele><time>2026-05-03T13:38:26.101Z</time></trkpt><trkpt lat="44.3440716" lon="7.0399577"><ele>1242.0</ele><time>2026-05-03T13:38:27.1Z</time></trkpt><trkpt lat="44.3440534" lon="7.0401968"><ele>1239.3333333333333</ele><time>2026-05-03T13:38:28.101Z</time></trkpt><trkpt lat="44.3440267" lon="7.0404472"><ele>1236.6666666666665</ele><time>2026-05-03T13:38:29.101Z</time></trkpt><trkpt lat="44.3439803" lon="7.0407053"><ele>1234.0</ele><time>2026-05-03T13:38:30.101Z</time></trkpt><trkpt lat="44.3439408" lon="7.0409702"><ele>1233.6666666666665</ele><time>2026-05-03T13:38:31.101Z</time></trkpt><trkpt lat="44.3439009" lon="7.041239"><ele>1233.3333333333333</ele><time>2026-05-03T13:38:32.1Z</time></trkpt><trkpt lat="44.3438615" lon="7.0414952"><ele>1233.0</ele><time>2026-05-03T13:38:33.1Z</time></trkpt><trkpt lat="44.343822" lon="7.0417495"><ele>1223.6666666666667</ele><time>2026-05-03T13:38:34.101Z</time></trkpt><trkpt lat="44.3437796" lon="7.042002"><ele>1214.3333333333335</ele><time>2026-05-03T13:38:35.101Z</time></trkpt><trkpt lat="44.3437329" lon="7.04224"><ele>1205.0</ele><time>2026-05-03T13:38:36.101Z</time></trkpt><trkpt lat="44.3436828" lon="7.0424675"><ele>1205.0</ele><time>2026-05-03T13:38:37.101Z</time></trkpt><trkpt lat="44.3435542" lon="7.0426592"><ele>1205.0</ele><time>2026-05-03T13:38:38.101Z</time></trkpt><trkpt lat="44.3434242" lon="7.0428508"><ele>1205.0</ele><time>2026-05-03T13:38:39.101Z</time></trkpt><trkpt lat="44.3432925" lon="7.0430321"><ele>1205.0</ele><time>2026-05-03T13:38:40.101Z</time></trkpt><trkpt lat="44.3431771" lon="7.0432313"><ele>1205.0</ele><time>2026-05-03T13:38:41.101Z</time></trkpt><trkpt lat="44.3430699" lon="7.0434299"><ele>1205.0</ele><time>2026-05-03T13:38:42.101Z</time></trkpt><trkpt lat="44.3429643" lon="7.0436007"><ele>1202.6666666666667</ele><time>2026-05-03T13:38:43.101Z</time></trkpt><trkpt lat="44.3428738" lon="7.0437897"><ele>1200.3333333333333</ele><time>2026-05-03T13:38:44.101Z</time></trkpt><trkpt lat="44.3428083" lon="7.0440148"><ele>1198.0</ele><time>2026-05-03T13:38:45.101Z</time></trkpt><trkpt lat="44.3427606" lon="7.0442726"><ele>1198.0</ele><time>2026-05-03T13:38:46.101Z</time></trkpt><trkpt lat="44.3426939" lon="7.044533"><ele>1198.0</ele><time>2026-05-03T13:38:47.101Z</time></trkpt><trkpt lat="44.3426397" lon="7.0448412"><ele>1198.0</ele><time>2026-05-03T13:38:48.101Z</time></trkpt><trkpt lat="44.3425791" lon="7.0451466"><ele>1198.6666666666665</ele><time>2026-05-03T13:38:49.1Z</time></trkpt><trkpt lat="44.3425297" lon="7.0454429"><ele>1199.3333333333333</ele><time>2026-05-03T13:38:50.101Z</time></trkpt><trkpt lat="44.34248" lon="7.0457418"><ele>1200.0</ele><time>2026-05-03T13:38:51.101Z</time></trkpt><trkpt lat="44.3424307" lon="7.046031"><ele>1201.6666666666667</ele><time>2026-05-03T13:38:52.101Z</time></trkpt><trkpt lat="44.342409" lon="7.0463075"><ele>1203.3333333333335</ele><time>2026-05-03T13:38:53.101Z</time></trkpt><trkpt lat="44.3423817" lon="7.0465713"><ele>1205.0</ele><time>2026-05-03T13:38:54.101Z</time></trkpt><trkpt lat="44.3423615" lon="7.046831"><ele>1208.3333333333335</ele><time>2026-05-03T13:38:55.1Z</time></trkpt><trkpt lat="44.3423444" lon="7.0471062"><ele>1211.6666666666667</ele><time>2026-05-03T13:38:56.101Z</time></trkpt><trkpt lat="44.3422869" lon="7.0473583"><ele>1215.0</ele><time>2026-05-03T13:38:57.101Z</time></trkpt><trkpt lat="44.3422307" lon="7.0476165"><ele>1207.3333333333333</ele><time>2026-05-03T13:38:58.101Z</time></trkpt><trkpt lat="44.3421841" lon="7.0478664"><ele>1199.6666666666665</ele><time>2026-05-03T13:38:59.101Z</time></trkpt><trkpt lat="44.3421401" lon="7.0481201"><ele>1192.0</ele><time>2026-05-03T13:39:00.101Z</time></trkpt><trkpt lat="44.342093" lon="7.048378"><ele>1190.0</ele><time>2026-05-03T13:39:01.101Z</time></trkpt><trkpt lat="44.3420258" lon="7.0486191"><ele>1188.0</ele><time>2026-05-03T13:39:02.101Z</time></trkpt><trkpt lat="44.3419681" lon="7.0488533"><ele>1186.0</ele><time>2026-05-03T13:39:03.101Z</time></trkpt><trkpt lat="44.3419126" lon="7.0490802"><ele>1186.3333333333333</ele><time>2026-05-03T13:39:04.101Z</time></trkpt><trkpt lat="44.3418696" lon="7.0493121"><ele>1186.6666666666667</ele><time>2026-05-03T13:39:05.1Z</time></trkpt><trkpt lat="44.3418334" lon="7.049545"><ele>1187.0</ele><time>2026-05-03T13:39:06.101Z</time></trkpt><trkpt lat="44.341847" lon="7.0497956"><ele>1186.3333333333335</ele><time>2026-05-03T13:39:07.101Z</time></trkpt><trkpt lat="44.3418646" lon="7.0500335"><ele>1185.6666666666667</ele><time>2026-05-03T13:39:08.1Z</time></trkpt><trkpt lat="44.3418785" lon="7.0502711"><ele>1185.0</ele><time>2026-05-03T13:39:09.101Z</time></trkpt><trkpt lat="44.3418526" lon="7.0504679"><ele>1185.0</ele><time>2026-05-03T13:39:10.1Z</time></trkpt><trkpt lat="44.3418111" lon="7.0506566"><ele>1185.0</ele><time>2026-05-03T13:39:11.101Z</time></trkpt><trkpt lat="44.3417797" lon="7.0508441"><ele>1185.0</ele><time>2026-05-03T13:39:12.101Z</time></trkpt><trkpt lat="44.3417843" lon="7.0510604"><ele>1185.0</ele><time>2026-05-03T13:39:13.101Z</time></trkpt><trkpt lat="44.3417876" lon="7.0512786"><ele>1185.0</ele><time>2026-05-03T13:39:14.101Z</time></trkpt><trkpt lat="44.3418097" lon="7.0515124"><ele>1185.0</ele><time>2026-05-03T13:39:15.101Z</time></trkpt><trkpt lat="44.3418351" lon="7.0517327"><ele>1185.0</ele><time>2026-05-03T13:39:16.101Z</time></trkpt><trkpt lat="44.3418451" lon="7.0519561"><ele>1184.0</ele><time>2026-05-03T13:39:17.101Z</time></trkpt><trkpt lat="44.341834" lon="7.0521797"><ele>1183.0</ele><time>2026-05-03T13:39:18.101Z</time></trkpt><trkpt lat="44.3418122" lon="7.0524026"><ele>1182.0</ele><time>2026-05-03T13:39:19.1Z</time></trkpt><trkpt lat="44.3417792" lon="7.0526312"><ele>1181.6666666666667</ele><time>2026-05-03T13:39:20.101Z</time></trkpt><trkpt lat="44.341717" lon="7.0528468"><ele>1181.3333333333335</ele><time>2026-05-03T13:39:21.101Z</time></trkpt><trkpt lat="44.3416643" lon="7.0530786"><ele>1181.0</ele><time>2026-05-03T13:39:22.101Z</time></trkpt><trkpt lat="44.3416365" lon="7.0533135"><ele>1183.0</ele><time>2026-05-03T13:39:23.101Z</time></trkpt><trkpt lat="44.3416083" lon="7.0535445"><ele>1185.0</ele><time>2026-05-03T13:39:24.101Z</time></trkpt><trkpt lat="44.3415729" lon="7.0537638"><ele>1187.0</ele><time>2026-05-03T13:39:25.1Z</time></trkpt><trkpt lat="44.3415067" lon="7.0539702"><ele>1188.6666666666667</ele><time>2026-05-03T13:39:26.1Z</time></trkpt><trkpt lat="44.3414279" lon="7.0541508"><ele>1190.3333333333333</ele><time>2026-05-03T13:39:27.1Z</time></trkpt><trkpt lat="44.3413527" lon="7.0543275"><ele>1192.0</ele><time>2026-05-03T13:39:28.101Z</time></trkpt><trkpt lat="44.3412913" lon="7.0545252"><ele>1186.6666666666665</ele><time>2026-05-03T13:39:29.101Z</time></trkpt><trkpt lat="44.3412237" lon="7.0547257"><ele>1181.3333333333333</ele><time>2026-05-03T13:39:30.101Z</time></trkpt><trkpt lat="44.3411676" lon="7.0549344"><ele>1176.0</ele><time>2026-05-03T13:39:31.101Z</time></trkpt><trkpt lat="44.34112" lon="7.0551699"><ele>1175.6666666666667</ele><time>2026-05-03T13:39:32.101Z</time></trkpt><trkpt lat="44.3410772" lon="7.0554021"><ele>1175.3333333333335</ele><time>2026-05-03T13:39:33.101Z</time></trkpt><trkpt lat="44.3410347" lon="7.0556269"><ele>1175.0</ele><time>2026-05-03T13:39:34.1Z</time></trkpt><trkpt lat="44.3409924" lon="7.0558656"><ele>1175.0</ele><time>2026-05-03T13:39:35.101Z</time></trkpt><trkpt lat="44.3409493" lon="7.0561096"><ele>1175.0</ele><time>2026-05-03T13:39:36.101Z</time></trkpt><trkpt lat="44.340921" lon="7.0563649"><ele>1175.0</ele><time>2026-05-03T13:39:37.101Z</time></trkpt><trkpt lat="44.3408945" lon="7.0566217"><ele>1173.6666666666667</ele><time>2026-05-03T13:39:38.101Z</time></trkpt><trkpt lat="44.3408809" lon="7.0568854"><ele>1172.3333333333333</ele><time>2026-05-03T13:39:39.101Z</time></trkpt><trkpt lat="44.340862" lon="7.0571551"><ele>1171.0</ele><time>2026-05-03T13:39:40.101Z</time></trkpt><trkpt lat="44.3408392" lon="7.057429"><ele>1172.0</ele><time>2026-05-03T13:39:41.101Z</time></trkpt><trkpt lat="44.3408104" lon="7.0576898"><ele>1173.0</ele><time>2026-05-03T13:39:42.1Z</time></trkpt><trkpt lat="44.3407778" lon="7.0579528"><ele>1174.0</ele><time>2026-05-03T13:39:43.101Z</time></trkpt><trkpt lat="44.3407327" lon="7.058211"><ele>1175.0</ele><time>2026-05-03T13:39:44.101Z</time></trkpt><trkpt lat="44.3406571" lon="7.0584653"><ele>1176.0</ele><time>2026-05-03T13:39:45.101Z</time></trkpt><trkpt lat="44.3405707" lon="7.0587144"><ele>1177.0</ele><time>2026-05-03T13:39:46.101Z</time></trkpt><trkpt lat="44.3404863" lon="7.0589673"><ele>1170.6666666666665</ele><time>2026-05-03T13:39:47.101Z</time></trkpt><trkpt lat="44.3404027" lon="7.0592165"><ele>1164.3333333333333</ele><time>2026-05-03T13:39:48.101Z</time></trkpt><trkpt lat="44.3403355" lon="7.059476"><ele>1158.0</ele><time>2026-05-03T13:39:49.101Z</time></trkpt><trkpt lat="44.3402702" lon="7.0597273"><ele>1159.3333333333333</ele><time>2026-05-03T13:39:50.101Z</time></trkpt><trkpt lat="44.3402194" lon="7.0599904"><ele>1160.6666666666665</ele><time>2026-05-03T13:39:51.101Z</time></trkpt><trkpt lat="44.3401593" lon="7.0602277"><ele>1162.0</ele><time>2026-05-03T13:39:52.101Z</time></trkpt><trkpt lat="44.3400999" lon="7.0604425"><ele>1162.0</ele><time>2026-05-03T13:39:53.1Z</time></trkpt><trkpt lat="44.3400392" lon="7.0606627"><ele>1162.0</ele><time>2026-05-03T13:39:54.101Z</time></trkpt><trkpt lat="44.3399516" lon="7.0608343"><ele>1162.0</ele><time>2026-05-03T13:39:55.101Z</time></trkpt><trkpt lat="44.3398596" lon="7.0609899"><ele>1163.5</ele><time>2026-05-03T13:39:56.1Z</time></trkpt><trkpt lat="44.3397544" lon="7.0611346"><ele>1165.0</ele><time>2026-05-03T13:39:57.101Z</time></trkpt><trkpt lat="44.3396457" lon="7.0612752"><ele>1166.5</ele><time>2026-05-03T13:39:58.101Z</time></trkpt><trkpt lat="44.3395488" lon="7.061419"><ele>1168.0</ele><time>2026-05-03T13:39:59.101Z</time></trkpt><trkpt lat="44.3394577" lon="7.0615789"><ele>1165.3333333333333</ele><time>2026-05-03T13:40:00.1Z</time></trkpt><trkpt lat="44.3393685" lon="7.0617379"><ele>1162.6666666666667</ele><time>2026-05-03T13:40:01.101Z</time></trkpt><trkpt lat="44.3392873" lon="7.0619174"><ele>1160.0</ele><time>2026-05-03T13:40:02.101Z</time></trkpt><trkpt lat="44.3392262" lon="7.0621334"><ele>1160.0</ele><time>2026-05-03T13:40:03.101Z</time></trkpt><trkpt lat="44.3391739" lon="7.0623437"><ele>1160.0</ele><time>2026-05-03T13:40:04.101Z</time></trkpt><trkpt lat="44.3391271" lon="7.0625591"><ele>1160.0</ele><time>2026-05-03T13:40:05.101Z</time></trkpt><trkpt lat="44.339083" lon="7.0627847"><ele>1160.3333333333335</ele><time>2026-05-03T13:40:06.101Z</time></trkpt><trkpt lat="44.3390366" lon="7.0629962"><ele>1160.6666666666667</ele><time>2026-05-03T13:40:07.101Z</time></trkpt><trkpt lat="44.3389878" lon="7.0632086"><ele>1161.0</ele><time>2026-05-03T13:40:08.101Z</time></trkpt><trkpt lat="44.3389372" lon="7.0634132"><ele>1157.3333333333333</ele><time>2026-05-03T13:40:09.101Z</time></trkpt><trkpt lat="44.3388777" lon="7.0636162"><ele>1153.6666666666665</ele><time>2026-05-03T13:40:10.101Z</time></trkpt><trkpt lat="44.3388095" lon="7.0638233"><ele>1150.0</ele><time>2026-05-03T13:40:11.101Z</time></trkpt><trkpt lat="44.3387304" lon="7.0640252"><ele>1149.0</ele><time>2026-05-03T13:40:12.101Z</time></trkpt><trkpt lat="44.338635" lon="7.0642222"><ele>1148.0</ele><time>2026-05-03T13:40:13.101Z</time></trkpt><trkpt lat="44.3385359" lon="7.0644195"><ele>1147.0</ele><time>2026-05-03T13:40:14.101Z</time></trkpt><trkpt lat="44.338438" lon="7.0646109"><ele>1147.0</ele><time>2026-05-03T13:40:15.1Z</time></trkpt><trkpt lat="44.3383495" lon="7.0647938"><ele>1147.0</ele><time>2026-05-03T13:40:16.101Z</time></trkpt><trkpt lat="44.3382598" lon="7.0649605"><ele>1147.0</ele><time>2026-05-03T13:40:17.101Z</time></trkpt><trkpt lat="44.3381717" lon="7.0651217"><ele>1147.5</ele><time>2026-05-03T13:40:18.1Z</time></trkpt><trkpt lat="44.3380781" lon="7.0652859"><ele>1148.0</ele><time>2026-05-03T13:40:19.101Z</time></trkpt><trkpt lat="44.3380349" lon="7.065433"><ele>1148.5</ele><time>2026-05-03T13:40:20.101Z</time></trkpt><trkpt lat="44.3379916" lon="7.0656314"><ele>1149.0</ele><time>2026-05-03T13:40:21.101Z</time></trkpt><trkpt lat="44.3379531" lon="7.0658307"><ele>1147.3333333333333</ele><time>2026-05-03T13:40:22.101Z</time></trkpt><trkpt lat="44.3379343" lon="7.066038"><ele>1145.6666666666665</ele><time>2026-05-03T13:40:23.1Z</time></trkpt><trkpt lat="44.3379308" lon="7.066234"><ele>1144.0</ele><time>2026-05-03T13:40:24.101Z</time></trkpt><trkpt lat="44.3379388" lon="7.0665249"><ele>1141.6666666666665</ele><time>2026-05-03T13:40:25.101Z</time></trkpt><trkpt lat="44.3379357" lon="7.0668054"><ele>1139.3333333333333</ele><time>2026-05-03T13:40:26.101Z</time></trkpt><trkpt lat="44.3379142" lon="7.0670619"><ele>1137.0</ele><time>2026-05-03T13:40:27.1Z</time></trkpt><trkpt lat="44.337873" lon="7.0672876"><ele>1134.0</ele><time>2026-05-03T13:40:28.1Z</time></trkpt><trkpt lat="44.3378218" lon="7.0675203"><ele>1131.0</ele><time>2026-05-03T13:40:29.101Z</time></trkpt><trkpt lat="44.3377681" lon="7.0677385"><ele>1128.0</ele><time>2026-05-03T13:40:30.101Z</time></trkpt><trkpt lat="44.3377143" lon="7.0679515"><ele>1128.0</ele><time>2026-05-03T13:40:31.101Z</time></trkpt><trkpt lat="44.337649" lon="7.068182"><ele>1128.0</ele><time>2026-05-03T13:40:32.1Z</time></trkpt><trkpt lat="44.3375752" lon="7.0684156"><ele>1128.0</ele><time>2026-05-03T13:40:33.101Z</time></trkpt><trkpt lat="44.3374668" lon="7.0685937"><ele>1128.0</ele><time>2026-05-03T13:40:34.1Z</time></trkpt><trkpt lat="44.3373742" lon="7.0687869"><ele>1128.0</ele><time>2026-05-03T13:40:35.101Z</time></trkpt><trkpt lat="44.3372814" lon="7.0689762"><ele>1128.0</ele><time>2026-05-03T13:40:36.101Z</time></trkpt><trkpt lat="44.3372094" lon="7.0691721"><ele>1131.5</ele><time>2026-05-03T13:40:37.1Z</time></trkpt><trkpt lat="44.3371578" lon="7.069477"><ele>1135.0</ele><time>2026-05-03T13:40:38.101Z</time></trkpt><trkpt lat="44.3371312" lon="7.0697912"><ele>1132.3333333333333</ele><time>2026-05-03T13:40:39.101Z</time></trkpt><trkpt lat="44.3370905" lon="7.0701048"><ele>1129.6666666666667</ele><time>2026-05-03T13:40:40.101Z</time></trkpt><trkpt lat="44.3370324" lon="7.0703971"><ele>1127.0</ele><time>2026-05-03T13:40:41.101Z</time></trkpt><trkpt lat="44.3369714" lon="7.0706758"><ele>1125.6666666666667</ele><time>2026-05-03T13:40:42.1Z</time></trkpt><trkpt lat="44.3369224" lon="7.0709391"><ele>1124.3333333333333</ele><time>2026-05-03T13:40:43.101Z</time></trkpt><trkpt lat="44.3368679" lon="7.0712123"><ele>1123.0</ele><time>2026-05-03T13:40:44.101Z</time></trkpt><trkpt lat="44.3367625" lon="7.0714113"><ele>1123.0</ele><time>2026-05-03T13:40:45.1Z</time></trkpt><trkpt lat="44.3366542" lon="7.0716281"><ele>1123.0</ele><time>2026-05-03T13:40:46.101Z</time></trkpt><trkpt lat="44.3365226" lon="7.0718336"><ele>1123.0</ele><time>2026-05-03T13:40:47.101Z</time></trkpt><trkpt lat="44.3363736" lon="7.0720206"><ele>1121.6666666666665</ele><time>2026-05-03T13:40:48.101Z</time></trkpt><trkpt lat="44.3362041" lon="7.0721845"><ele>1120.3333333333333</ele><time>2026-05-03T13:40:49.101Z</time></trkpt><trkpt lat="44.3360329" lon="7.072349"><ele>1119.0</ele><time>2026-05-03T13:40:50.101Z</time></trkpt><trkpt lat="44.3358591" lon="7.0725155"><ele>1118.6666666666667</ele><time>2026-05-03T13:40:51.1Z</time></trkpt><trkpt lat="44.3356854" lon="7.0726893"><ele>1118.3333333333335</ele><time>2026-05-03T13:40:52.101Z</time></trkpt><trkpt lat="44.3355235" lon="7.0728604"><ele>1118.0</ele><time>2026-05-03T13:40:53.101Z</time></trkpt><trkpt lat="44.3353705" lon="7.0730266"><ele>1117.6666666666667</ele><time>2026-05-03T13:40:54.101Z</time></trkpt><trkpt lat="44.3352195" lon="7.0731914"><ele>1117.3333333333333</ele><time>2026-05-03T13:40:55.101Z</time></trkpt><trkpt lat="44.3350879" lon="7.0733503"><ele>1117.0</ele><time>2026-05-03T13:40:56.101Z</time></trkpt><trkpt lat="44.3349591" lon="7.0734911"><ele>1115.5</ele><time>2026-05-03T13:40:57.1Z</time></trkpt><trkpt lat="44.3348397" lon="7.073607"><ele>1114.0</ele><time>2026-05-03T13:40:58.101Z</time></trkpt><trkpt lat="44.3347152" lon="7.0737065"><ele>1112.5</ele><time>2026-05-03T13:40:59.101Z</time></trkpt><trkpt lat="44.3345837" lon="7.0737741"><ele>1111.0</ele><time>2026-05-03T13:41:00.101Z</time></trkpt><trkpt lat="44.3344583" lon="7.0738313"><ele>1111.5</ele><time>2026-05-03T13:41:01.101Z</time></trkpt><trkpt lat="44.3343422" lon="7.0739103"><ele>1112.0</ele><time>2026-05-03T13:41:02.101Z</time></trkpt><trkpt lat="44.334241" lon="7.0740343"><ele>1112.5</ele><time>2026-05-03T13:41:03.101Z</time></trkpt><trkpt lat="44.3341575" lon="7.0741937"><ele>1113.0</ele><time>2026-05-03T13:41:04.101Z</time></trkpt><trkpt lat="44.3340733" lon="7.0743568"><ele>1113.0</ele><time>2026-05-03T13:41:05.101Z</time></trkpt><trkpt lat="44.3339934" lon="7.0745133"><ele>1113.0</ele><time>2026-05-03T13:41:06.101Z</time></trkpt><trkpt lat="44.3339195" lon="7.0746756"><ele>1113.0</ele><time>2026-05-03T13:41:07.1Z</time></trkpt><trkpt lat="44.333843" lon="7.0748286"><ele>1113.0</ele><time>2026-05-03T13:41:08.101Z</time></trkpt><trkpt lat="44.3337816" lon="7.0749853"><ele>1117.0</ele><time>2026-05-03T13:41:09.101Z</time></trkpt><trkpt lat="44.3337682" lon="7.0751948"><ele>1121.0</ele><time>2026-05-03T13:41:10.101Z</time></trkpt><trkpt lat="44.3337957" lon="7.0754469"><ele>1125.0</ele><time>2026-05-03T13:41:11.101Z</time></trkpt><trkpt lat="44.3338074" lon="7.0756928"><ele>1117.6666666666667</ele><time>2026-05-03T13:41:12.101Z</time></trkpt><trkpt lat="44.3338187" lon="7.0759448"><ele>1110.3333333333335</ele><time>2026-05-03T13:41:13.101Z</time></trkpt><trkpt lat="44.3338206" lon="7.0761906"><ele>1103.0</ele><time>2026-05-03T13:41:14.101Z</time></trkpt><trkpt lat="44.3338089" lon="7.0764134"><ele>1101.0</ele><time>2026-05-03T13:41:15.101Z</time></trkpt><trkpt lat="44.3337839" lon="7.0766072"><ele>1099.0</ele><time>2026-05-03T13:41:16.101Z</time></trkpt><trkpt lat="44.3337415" lon="7.0767865"><ele>1097.0</ele><time>2026-05-03T13:41:17.1Z</time></trkpt><trkpt lat="44.3336828" lon="7.0769705"><ele>1095.0</ele><time>2026-05-03T13:41:18.101Z</time></trkpt><trkpt lat="44.3335794" lon="7.0770965"><ele>1095.0</ele><time>2026-05-03T13:41:19.101Z</time></trkpt><trkpt lat="44.3334852" lon="7.0771987"><ele>1095.0</ele><time>2026-05-03T13:41:20.101Z</time></trkpt><trkpt lat="44.3333725" lon="7.0772999"><ele>1095.0</ele><time>2026-05-03T13:41:21.101Z</time></trkpt><trkpt lat="44.3332639" lon="7.0773873"><ele>1095.0</ele><time>2026-05-03T13:41:22.101Z</time></trkpt><trkpt lat="44.3331251" lon="7.0774789"><ele>1094.0</ele><time>2026-05-03T13:41:23.101Z</time></trkpt><trkpt lat="44.33299" lon="7.0775786"><ele>1093.0</ele><time>2026-05-03T13:41:24.101Z</time></trkpt><trkpt lat="44.3328479" lon="7.077676"><ele>1092.0</ele><time>2026-05-03T13:41:25.101Z</time></trkpt><trkpt lat="44.332714" lon="7.077768"><ele>1092.0</ele><time>2026-05-03T13:41:26.1Z</time></trkpt><trkpt lat="44.3325788" lon="7.077877"><ele>1092.0</ele><time>2026-05-03T13:41:27.101Z</time></trkpt><trkpt lat="44.3324775" lon="7.078022"><ele>1092.0</ele><time>2026-05-03T13:41:28.101Z</time></trkpt><trkpt lat="44.3323718" lon="7.0781663"><ele>1092.0</ele><time>2026-05-03T13:41:29.101Z</time></trkpt><trkpt lat="44.332282" lon="7.0783317"><ele>1090.75</ele><time>2026-05-03T13:41:30.101Z</time></trkpt><trkpt lat="44.332199" lon="7.0784871"><ele>1089.5</ele><time>2026-05-03T13:41:31.101Z</time></trkpt><trkpt lat="44.332146" lon="7.0786681"><ele>1088.25</ele><time>2026-05-03T13:41:32.101Z</time></trkpt><trkpt lat="44.3321081" lon="7.0788549"><ele>1087.0</ele><time>2026-05-03T13:41:33.101Z</time></trkpt><trkpt lat="44.3320675" lon="7.0790409"><ele>1086.5</ele><time>2026-05-03T13:41:34.101Z</time></trkpt><trkpt lat="44.3320484" lon="7.0792073"><ele>1086.0</ele><time>2026-05-03T13:41:35.101Z</time></trkpt><trkpt lat="44.3320339" lon="7.0794069"><ele>1085.5</ele><time>2026-05-03T13:41:36.101Z</time></trkpt><trkpt lat="44.3320126" lon="7.0795932"><ele>1085.0</ele><time>2026-05-03T13:41:37.101Z</time></trkpt><trkpt lat="44.3319842" lon="7.0797897"><ele>1084.75</ele><time>2026-05-03T13:41:38.101Z</time></trkpt><trkpt lat="44.3319544" lon="7.0799937"><ele>1084.5</ele><time>2026-05-03T13:41:39.101Z</time></trkpt><trkpt lat="44.3319315" lon="7.0801906"><ele>1084.25</ele><time>2026-05-03T13:41:40.1Z</time></trkpt><trkpt lat="44.3319019" lon="7.0803934"><ele>1084.0</ele><time>2026-05-03T13:41:41.101Z</time></trkpt><trkpt lat="44.3318105" lon="7.0805853"><ele>1084.0</ele><time>2026-05-03T13:41:42.101Z</time></trkpt><trkpt lat="44.3317027" lon="7.0807566"><ele>1084.0</ele><time>2026-05-03T13:41:43.101Z</time></trkpt><trkpt lat="44.3315971" lon="7.0809329"><ele>1084.0</ele><time>2026-05-03T13:41:44.101Z</time></trkpt><trkpt lat="44.3314666" lon="7.0810558"><ele>1082.0</ele><time>2026-05-03T13:41:45.101Z</time></trkpt><trkpt lat="44.3313196" lon="7.0811791"><ele>1080.0</ele><time>2026-05-03T13:41:46.101Z</time></trkpt><trkpt lat="44.3311839" lon="7.0813249"><ele>1078.0</ele><time>2026-05-03T13:41:47.101Z</time></trkpt><trkpt lat="44.331049" lon="7.0814605"><ele>1078.3333333333333</ele><time>2026-05-03T13:41:48.1Z</time></trkpt><trkpt lat="44.3309202" lon="7.0816439"><ele>1078.6666666666667</ele><time>2026-05-03T13:41:49.101Z</time></trkpt><trkpt lat="44.3308121" lon="7.0819093"><ele>1079.0</ele><time>2026-05-03T13:41:50.1Z</time></trkpt><trkpt lat="44.3306962" lon="7.0821364"><ele>1079.0</ele><time>2026-05-03T13:41:51.101Z</time></trkpt><trkpt lat="44.3305773" lon="7.0823764"><ele>1079.0</ele><time>2026-05-03T13:41:52.101Z</time></trkpt><trkpt lat="44.3304867" lon="7.0825966"><ele>1079.0</ele><time>2026-05-03T13:41:53.1Z</time></trkpt><trkpt lat="44.3303984" lon="7.0828134"><ele>1077.3333333333335</ele><time>2026-05-03T13:41:54.101Z</time></trkpt><trkpt lat="44.3303089" lon="7.0830222"><ele>1075.6666666666667</ele><time>2026-05-03T13:41:55.101Z</time></trkpt><trkpt lat="44.3302178" lon="7.0832143"><ele>1074.0</ele><time>2026-05-03T13:41:56.101Z</time></trkpt><trkpt lat="44.3301231" lon="7.0834033"><ele>1074.0</ele><time>2026-05-03T13:41:57.101Z</time></trkpt><trkpt lat="44.3300311" lon="7.0835798"><ele>1074.0</ele><time>2026-05-03T13:41:58.101Z</time></trkpt><trkpt lat="44.3299402" lon="7.0837555"><ele>1074.0</ele><time>2026-05-03T13:41:59.101Z</time></trkpt><trkpt lat="44.329822" lon="7.0839466"><ele>1072.0</ele><time>2026-05-03T13:42:00.101Z</time></trkpt><trkpt lat="44.3297116" lon="7.0841317"><ele>1070.0</ele><time>2026-05-03T13:42:01.1Z</time></trkpt><trkpt lat="44.3295907" lon="7.0843074"><ele>1068.0</ele><time>2026-05-03T13:42:02.101Z</time></trkpt><trkpt lat="44.3294782" lon="7.084487"><ele>1068.0</ele><time>2026-05-03T13:42:03.101Z</time></trkpt><trkpt lat="44.3293525" lon="7.0846443"><ele>1068.0</ele><time>2026-05-03T13:42:04.1Z</time></trkpt><trkpt lat="44.3292213" lon="7.084807"><ele>1068.0</ele><time>2026-05-03T13:42:05.101Z</time></trkpt><trkpt lat="44.3290763" lon="7.084973"><ele>1067.3333333333333</ele><time>2026-05-03T13:42:06.101Z</time></trkpt><trkpt lat="44.3289439" lon="7.0851372"><ele>1066.6666666666665</ele><time>2026-05-03T13:42:07.1Z</time></trkpt><trkpt lat="44.3288047" lon="7.085307"><ele>1066.0</ele><time>2026-05-03T13:42:08.1Z</time></trkpt><trkpt lat="44.328668" lon="7.0854458"><ele>1066.0</ele><time>2026-05-03T13:42:09.101Z</time></trkpt><trkpt lat="44.3285295" lon="7.0855906"><ele>1066.0</ele><time>2026-05-03T13:42:10.101Z</time></trkpt><trkpt lat="44.3283898" lon="7.0857475"><ele>1066.0</ele><time>2026-05-03T13:42:11.101Z</time></trkpt><trkpt lat="44.3282527" lon="7.0859148"><ele>1065.6666666666665</ele><time>2026-05-03T13:42:12.1Z</time></trkpt><trkpt lat="44.3281157" lon="7.0860819"><ele>1065.3333333333333</ele><time>2026-05-03T13:42:13.101Z</time></trkpt><trkpt lat="44.3279743" lon="7.0862232"><ele>1065.0</ele><time>2026-05-03T13:42:14.101Z</time></trkpt><trkpt lat="44.3278406" lon="7.0863794"><ele>1065.0</ele><time>2026-05-03T13:42:15.101Z</time></trkpt><trkpt lat="44.3277124" lon="7.0865513"><ele>1065.0</ele><time>2026-05-03T13:42:16.101Z</time></trkpt><trkpt lat="44.3275998" lon="7.0867164"><ele>1065.0</ele><time>2026-05-03T13:42:17.101Z</time></trkpt><trkpt lat="44.327483" lon="7.086893"><ele>1066.0</ele><time>2026-05-03T13:42:18.101Z</time></trkpt><trkpt lat="44.3273627" lon="7.0870607"><ele>1067.0</ele><time>2026-05-03T13:42:19.101Z</time></trkpt><trkpt lat="44.3272416" lon="7.0872346"><ele>1068.0</ele><time>2026-05-03T13:42:20.101Z</time></trkpt><trkpt lat="44.3270998" lon="7.0873996"><ele>1064.6666666666667</ele><time>2026-05-03T13:42:21.101Z</time></trkpt><trkpt lat="44.3269277" lon="7.0875437"><ele>1061.3333333333335</ele><time>2026-05-03T13:42:22.1Z</time></trkpt><trkpt lat="44.3267352" lon="7.0876816"><ele>1058.0</ele><time>2026-05-03T13:42:23.1Z</time></trkpt><trkpt lat="44.3265488" lon="7.0878563"><ele>1058.5</ele><time>2026-05-03T13:42:24.101Z</time></trkpt><trkpt lat="44.3263529" lon="7.0880247"><ele>1059.0</ele><time>2026-05-03T13:42:25.101Z</time></trkpt><trkpt lat="44.32616" lon="7.0881775"><ele>1057.6666666666667</ele><time>2026-05-03T13:42:26.101Z</time></trkpt><trkpt lat="44.3259818" lon="7.0883227"><ele>1056.3333333333335</ele><time>2026-05-03T13:42:27.1Z</time></trkpt><trkpt lat="44.3258034" lon="7.0884516"><ele>1055.0</ele><time>2026-05-03T13:42:28.101Z</time></trkpt><trkpt lat="44.3256539" lon="7.0885663"><ele>1055.0</ele><time>2026-05-03T13:42:29.1Z</time></trkpt><trkpt lat="44.3255125" lon="7.0886677"><ele>1055.0</ele><time>2026-05-03T13:42:30.101Z</time></trkpt><trkpt lat="44.3253687" lon="7.0887358"><ele>1055.0</ele><time>2026-05-03T13:42:31.101Z</time></trkpt><trkpt lat="44.3252154" lon="7.0888019"><ele>1055.0</ele><time>2026-05-03T13:42:32.101Z</time></trkpt><trkpt lat="44.3250583" lon="7.0888548"><ele>1055.0</ele><time>2026-05-03T13:42:33.101Z</time></trkpt><trkpt lat="44.3249153" lon="7.0888431"><ele>1055.0</ele><time>2026-05-03T13:42:34.101Z</time></trkpt><trkpt lat="44.3247656" lon="7.0888432"><ele>1055.25</ele><time>2026-05-03T13:42:35.1Z</time></trkpt><trkpt lat="44.3246465" lon="7.0888363"><ele>1055.5</ele><time>2026-05-03T13:42:36.101Z</time></trkpt><trkpt lat="44.3245279" lon="7.0888298"><ele>1055.75</ele><time>2026-05-03T13:42:37.101Z</time></trkpt><trkpt lat="44.3244061" lon="7.0888229"><ele>1056.0</ele><time>2026-05-03T13:42:38.101Z</time></trkpt><trkpt lat="44.3242808" lon="7.0888342"><ele>1056.0</ele><time>2026-05-03T13:42:39.101Z</time></trkpt><trkpt lat="44.3241426" lon="7.0888658"><ele>1056.0</ele><time>2026-05-03T13:42:40.101Z</time></trkpt><trkpt lat="44.3240354" lon="7.08891"><ele>1056.0</ele><time>2026-05-03T13:42:41.101Z</time></trkpt><trkpt lat="44.323931" lon="7.0889905"><ele>1056.0</ele><time>2026-05-03T13:42:42.101Z</time></trkpt><trkpt lat="44.3238369" lon="7.089108"><ele>1056.0</ele><time>2026-05-03T13:42:43.101Z</time></trkpt><trkpt lat="44.3237428" lon="7.0892592"><ele>1056.0</ele><time>2026-05-03T13:42:44.101Z</time></trkpt><trkpt lat="44.3236463" lon="7.0894627"><ele>1056.0</ele><time>2026-05-03T13:42:45.1Z</time></trkpt><trkpt lat="44.3235368" lon="7.0896685"><ele>1056.0</ele><time>2026-05-03T13:42:46.101Z</time></trkpt><trkpt lat="44.3234255" lon="7.0898546"><ele>1056.0</ele><time>2026-05-03T13:42:47.101Z</time></trkpt><trkpt lat="44.3233212" lon="7.0900414"><ele>1056.0</ele><time>2026-05-03T13:42:48.101Z</time></trkpt><trkpt lat="44.323219" lon="7.0902199"><ele>1055.75</ele><time>2026-05-03T13:42:49.1Z</time></trkpt><trkpt lat="44.3231185" lon="7.090385"><ele>1055.5</ele><time>2026-05-03T13:42:50.101Z</time></trkpt><trkpt lat="44.3230224" lon="7.0905452"><ele>1055.25</ele><time>2026-05-03T13:42:51.101Z</time></trkpt><trkpt lat="44.3229248" lon="7.0906862"><ele>1055.0</ele><time>2026-05-03T13:42:52.1Z</time></trkpt><trkpt lat="44.3228235" lon="7.0908002"><ele>1054.0</ele><time>2026-05-03T13:42:53.101Z</time></trkpt><trkpt lat="44.3227316" lon="7.0909181"><ele>1053.0</ele><time>2026-05-03T13:42:54.101Z</time></trkpt><trkpt lat="44.3226313" lon="7.091012"><ele>1052.0</ele><time>2026-05-03T13:42:55.101Z</time></trkpt><trkpt lat="44.322534" lon="7.0911096"><ele>1051.0</ele><time>2026-05-03T13:42:56.101Z</time></trkpt><trkpt lat="44.3224549" lon="7.0912137"><ele>1051.0</ele><time>2026-05-03T13:42:57.101Z</time></trkpt><trkpt lat="44.3223855" lon="7.0913641"><ele>1051.0</ele><time>2026-05-03T13:42:58.101Z</time></trkpt><trkpt lat="44.3223347" lon="7.0915388"><ele>1051.0</ele><time>2026-05-03T13:42:59.101Z</time></trkpt><trkpt lat="44.3222812" lon="7.0917351"><ele>1051.0</ele><time>2026-05-03T13:43:00.101Z</time></trkpt><trkpt lat="44.3222297" lon="7.0919203"><ele>1052.3333333333333</ele><time>2026-05-03T13:43:01.101Z</time></trkpt><trkpt lat="44.3221515" lon="7.0921059"><ele>1053.6666666666667</ele><time>2026-05-03T13:43:02.101Z</time></trkpt><trkpt lat="44.3220688" lon="7.0923177"><ele>1055.0</ele><time>2026-05-03T13:43:03.1Z</time></trkpt><trkpt lat="44.321989" lon="7.092511"><ele>1050.0</ele><time>2026-05-03T13:43:04.101Z</time></trkpt><trkpt lat="44.3218806" lon="7.0927183"><ele>1045.0</ele><time>2026-05-03T13:43:05.1Z</time></trkpt><trkpt lat="44.321758" lon="7.0929363"><ele>1040.0</ele><time>2026-05-03T13:43:06.1Z</time></trkpt><trkpt lat="44.3216383" lon="7.0931689"><ele>1040.6666666666667</ele><time>2026-05-03T13:43:07.101Z</time></trkpt><trkpt lat="44.3215212" lon="7.0934118"><ele>1041.3333333333333</ele><time>2026-05-03T13:43:08.101Z</time></trkpt><trkpt lat="44.3213959" lon="7.0936347"><ele>1042.0</ele><time>2026-05-03T13:43:09.101Z</time></trkpt><trkpt lat="44.3212762" lon="7.0938534"><ele>1042.6666666666665</ele><time>2026-05-03T13:43:10.101Z</time></trkpt><trkpt lat="44.3211618" lon="7.0940458"><ele>1043.3333333333333</ele><time>2026-05-03T13:43:11.1Z</time></trkpt><trkpt lat="44.3210526" lon="7.0942433"><ele>1044.0</ele><time>2026-05-03T13:43:12.101Z</time></trkpt><trkpt lat="44.3209597" lon="7.0944251"><ele>1043.6666666666667</ele><time>2026-05-03T13:43:13.101Z</time></trkpt><trkpt lat="44.3208548" lon="7.0945892"><ele>1043.3333333333335</ele><time>2026-05-03T13:43:14.101Z</time></trkpt><trkpt lat="44.320732" lon="7.0947465"><ele>1043.0</ele><time>2026-05-03T13:43:15.101Z</time></trkpt><trkpt lat="44.3205974" lon="7.0949263"><ele>1040.3333333333335</ele><time>2026-05-03T13:43:16.101Z</time></trkpt><trkpt lat="44.3204556" lon="7.0951048"><ele>1037.6666666666667</ele><time>2026-05-03T13:43:17.101Z</time></trkpt><trkpt lat="44.3202764" lon="7.0953127"><ele>1035.0</ele><time>2026-05-03T13:43:18.101Z</time></trkpt><trkpt lat="44.3200796" lon="7.095506"><ele>1035.0</ele><time>2026-05-03T13:43:19.101Z</time></trkpt><trkpt lat="44.3198798" lon="7.0956803"><ele>1035.0</ele><time>2026-05-03T13:43:20.1Z</time></trkpt><trkpt lat="44.319682" lon="7.0958813"><ele>1036.5</ele><time>2026-05-03T13:43:21.101Z</time></trkpt><trkpt lat="44.3194823" lon="7.0960673"><ele>1038.0</ele><time>2026-05-03T13:43:22.1Z</time></trkpt><trkpt lat="44.3192876" lon="7.0962534"><ele>1038.0</ele><time>2026-05-03T13:43:23.101Z</time></trkpt><trkpt lat="44.3191066" lon="7.0964399"><ele>1038.0</ele><time>2026-05-03T13:43:24.101Z</time></trkpt><trkpt lat="44.3189312" lon="7.0966126"><ele>1038.0</ele><time>2026-05-03T13:43:25.101Z</time></trkpt><trkpt lat="44.3187565" lon="7.0967773"><ele>1035.3333333333333</ele><time>2026-05-03T13:43:26.101Z</time></trkpt><trkpt lat="44.3185755" lon="7.0969418"><ele>1032.6666666666665</ele><time>2026-05-03T13:43:27.101Z</time></trkpt><trkpt lat="44.3183892" lon="7.0971128"><ele>1030.0</ele><time>2026-05-03T13:43:28.101Z</time></trkpt><trkpt lat="44.31823" lon="7.0972734"><ele>1028.3333333333333</ele><time>2026-05-03T13:43:29.101Z</time></trkpt><trkpt lat="44.3180626" lon="7.0974494"><ele>1026.6666666666667</ele><time>2026-05-03T13:43:30.101Z</time></trkpt><trkpt lat="44.3179047" lon="7.0976245"><ele>1025.0</ele><time>2026-05-03T13:43:31.101Z</time></trkpt><trkpt lat="44.3177539" lon="7.0978186"><ele>1025.0</ele><time>2026-05-03T13:43:32.101Z</time></trkpt><trkpt lat="44.3175941" lon="7.0980052"><ele>1025.0</ele><time>2026-05-03T13:43:33.101Z</time></trkpt><trkpt lat="44.3174446" lon="7.0982075"><ele>1025.0</ele><time>2026-05-03T13:43:34.101Z</time></trkpt><trkpt lat="44.3164582" lon="7.0996632"><ele>1024.3333333333335</ele><time>2026-05-03T13:43:41.1Z</time></trkpt><trkpt lat="44.3163457" lon="7.0998481"><ele>1023.6666666666667</ele><time>2026-05-03T13:43:42.101Z</time></trkpt><trkpt lat="44.3161886" lon="7.1000357"><ele>1023.0</ele><time>2026-05-03T13:43:43.1Z</time></trkpt><trkpt lat="44.3160451" lon="7.1002382"><ele>1023.0</ele><time>2026-05-03T13:43:44.101Z</time></trkpt><trkpt lat="44.3159104" lon="7.1004438"><ele>1023.0</ele><time>2026-05-03T13:43:45.101Z</time></trkpt><trkpt lat="44.3157691" lon="7.1006464"><ele>1023.0</ele><time>2026-05-03T13:43:46.1Z</time></trkpt><trkpt lat="44.3156298" lon="7.1008514"><ele>1024.0</ele><time>2026-05-03T13:43:47.101Z</time></trkpt><trkpt lat="44.3150062" lon="7.1015592"><ele>1027.6666666666665</ele><time>2026-05-03T13:43:51.101Z</time></trkpt><trkpt lat="44.314843" lon="7.1017003"><ele>1031.3333333333333</ele><time>2026-05-03T13:43:52.101Z</time></trkpt><trkpt lat="44.3146328" lon="7.101768"><ele>1035.0</ele><time>2026-05-03T13:43:53.101Z</time></trkpt><trkpt lat="44.3144441" lon="7.1018364"><ele>1035.0</ele><time>2026-05-03T13:43:54.101Z</time></trkpt><trkpt lat="44.3142644" lon="7.1019299"><ele>1035.0</ele><time>2026-05-03T13:43:55.101Z</time></trkpt><trkpt lat="44.3141027" lon="7.1020219"><ele>1035.0</ele><time>2026-05-03T13:43:56.101Z</time></trkpt><trkpt lat="44.3139472" lon="7.1021184"><ele>1034.6666666666667</ele><time>2026-05-03T13:43:57.101Z</time></trkpt><trkpt lat="44.3138042" lon="7.1022408"><ele>1034.3333333333335</ele><time>2026-05-03T13:43:58.101Z</time></trkpt><trkpt lat="44.3136716" lon="7.1023807"><ele>1034.0</ele><time>2026-05-03T13:43:59.101Z</time></trkpt><trkpt lat="44.3135332" lon="7.1025404"><ele>1034.0</ele><time>2026-05-03T13:44:00.101Z</time></trkpt><trkpt lat="44.313409" lon="7.1027394"><ele>1034.0</ele><time>2026-05-03T13:44:01.101Z</time></trkpt><trkpt lat="44.3132714" lon="7.1029154"><ele>1034.0</ele><time>2026-05-03T13:44:02.101Z</time></trkpt><trkpt lat="44.3131248" lon="7.103096"><ele>1027.0</ele><time>2026-05-03T13:44:03.101Z</time></trkpt><trkpt lat="44.3129653" lon="7.1032705"><ele>1020.0</ele><time>2026-05-03T13:44:04.101Z</time></trkpt><trkpt lat="44.3127973" lon="7.1034296"><ele>1013.0</ele><time>2026-05-03T13:44:05.101Z</time></trkpt><trkpt lat="44.3126252" lon="7.1035699"><ele>1013.0</ele><time>2026-05-03T13:44:06.101Z</time></trkpt><trkpt lat="44.3124349" lon="7.1037116"><ele>1013.0</ele><time>2026-05-03T13:44:07.101Z</time></trkpt><trkpt lat="44.312259" lon="7.1038662"><ele>1013.0</ele><time>2026-05-03T13:44:08.101Z</time></trkpt><trkpt lat="44.3120745" lon="7.1040404"><ele>1016.0</ele><time>2026-05-03T13:44:09.101Z</time></trkpt><trkpt lat="44.3118904" lon="7.1042245"><ele>1019.0</ele><time>2026-05-03T13:44:10.1Z</time></trkpt><trkpt lat="44.3117117" lon="7.1044168"><ele>1019.0</ele><time>2026-05-03T13:44:11.101Z</time></trkpt><trkpt lat="44.3115353" lon="7.1046022"><ele>1019.0</ele><time>2026-05-03T13:44:12.101Z</time></trkpt><trkpt lat="44.3113497" lon="7.1048092"><ele>1015.0</ele><time>2026-05-03T13:44:13.101Z</time></trkpt><trkpt lat="44.3111818" lon="7.105008"><ele>1011.0</ele><time>2026-05-03T13:44:14.101Z</time></trkpt><trkpt lat="44.3110123" lon="7.1052188"><ele>1007.0</ele><time>2026-05-03T13:44:15.101Z</time></trkpt><trkpt lat="44.3108299" lon="7.105426"><ele>1007.0</ele><time>2026-05-03T13:44:16.101Z</time></trkpt><trkpt lat="44.31065" lon="7.105634"><ele>1007.0</ele><time>2026-05-03T13:44:17.101Z</time></trkpt><trkpt lat="44.3104601" lon="7.1057761"><ele>1007.0</ele><time>2026-05-03T13:44:18.101Z</time></trkpt><trkpt lat="44.3102762" lon="7.1059373"><ele>1007.0</ele><time>2026-05-03T13:44:19.101Z</time></trkpt><trkpt lat="44.3100991" lon="7.1060946"><ele>1007.0</ele><time>2026-05-03T13:44:20.101Z</time></trkpt><trkpt lat="44.3099093" lon="7.1062881"><ele>1007.0</ele><time>2026-05-03T13:44:21.101Z</time></trkpt><trkpt lat="44.309741" lon="7.1064892"><ele>1003.0</ele><time>2026-05-03T13:44:22.101Z</time></trkpt><trkpt lat="44.3095859" lon="7.1067076"><ele>999.0</ele><time>2026-05-03T13:44:23.1Z</time></trkpt><trkpt lat="44.3094346" lon="7.1069312"><ele>995.0</ele><time>2026-05-03T13:44:24.101Z</time></trkpt><trkpt lat="44.3088982" lon="7.1076574"><ele>996.6666666666667</ele><time>2026-05-03T13:44:27.101Z</time></trkpt><trkpt lat="44.308771" lon="7.1078608"><ele>998.3333333333333</ele><time>2026-05-03T13:44:28.101Z</time></trkpt><trkpt lat="44.3085773" lon="7.1080806"><ele>1000.0</ele><time>2026-05-03T13:44:29.101Z</time></trkpt><trkpt lat="44.3083827" lon="7.1082985"><ele>1000.0</ele><time>2026-05-03T13:44:30.101Z</time></trkpt><trkpt lat="44.308195" lon="7.1085203"><ele>1000.0</ele><time>2026-05-03T13:44:31.101Z</time></trkpt><trkpt lat="44.3080075" lon="7.1087424"><ele>989.0</ele><time>2026-05-03T13:44:32.101Z</time></trkpt><trkpt lat="44.3073893" lon="7.1093464"><ele>986.5</ele><time>2026-05-03T13:44:35.101Z</time></trkpt><trkpt lat="44.3071162" lon="7.1095236"><ele>984.0</ele><time>2026-05-03T13:44:36.101Z</time></trkpt><trkpt lat="44.3069046" lon="7.1097089"><ele>980.0</ele><time>2026-05-03T13:44:37.101Z</time></trkpt><trkpt lat="44.3066885" lon="7.109915"><ele>976.0</ele><time>2026-05-03T13:44:38.101Z</time></trkpt><trkpt lat="44.3064909" lon="7.1101355"><ele>976.5</ele><time>2026-05-03T13:44:39.101Z</time></trkpt><trkpt lat="44.3062974" lon="7.1103603"><ele>977.0</ele><time>2026-05-03T13:44:40.101Z</time></trkpt><trkpt lat="44.3060938" lon="7.1105814"><ele>976.5</ele><time>2026-05-03T13:44:41.101Z</time></trkpt><trkpt lat="44.3058881" lon="7.1107841"><ele>976.0</ele><time>2026-05-03T13:44:42.101Z</time></trkpt><trkpt lat="44.3056856" lon="7.1109952"><ele>975.5</ele><time>2026-05-03T13:44:43.101Z</time></trkpt><trkpt lat="44.3054783" lon="7.1112161"><ele>975.0</ele><time>2026-05-03T13:44:44.101Z</time></trkpt><trkpt lat="44.3052851" lon="7.111433"><ele>975.0</ele><time>2026-05-03T13:44:45.101Z</time></trkpt><trkpt lat="44.3050837" lon="7.1116339"><ele>975.0</ele><time>2026-05-03T13:44:46.101Z</time></trkpt><trkpt lat="44.3048817" lon="7.1118469"><ele>971.5</ele><time>2026-05-03T13:44:47.101Z</time></trkpt><trkpt lat="44.304689" lon="7.1120528"><ele>968.0</ele><time>2026-05-03T13:44:48.101Z</time></trkpt><trkpt lat="44.3044933" lon="7.1122492"><ele>969.3333333333334</ele><time>2026-05-03T13:44:49.101Z</time></trkpt><trkpt lat="44.3042968" lon="7.1124501"><ele>970.6666666666667</ele><time>2026-05-03T13:44:50.1Z</time></trkpt><trkpt lat="44.3041449" lon="7.1126193"><ele>972.0</ele><time>2026-05-03T13:44:51.101Z</time></trkpt><trkpt lat="44.30398" lon="7.1127851"><ele>971.3333333333333</ele><time>2026-05-03T13:44:52.1Z</time></trkpt><trkpt lat="44.3038368" lon="7.1129532"><ele>970.6666666666666</ele><time>2026-05-03T13:44:53.101Z</time></trkpt><trkpt lat="44.3036903" lon="7.1131163"><ele>970.0</ele><time>2026-05-03T13:44:54.101Z</time></trkpt><trkpt lat="44.303595" lon="7.1133399"><ele>970.0</ele><time>2026-05-03T13:44:55.1Z</time></trkpt><trkpt lat="44.3034929" lon="7.1135447"><ele>970.0</ele><time>2026-05-03T13:44:56.1Z</time></trkpt><trkpt lat="44.3033951" lon="7.1137438"><ele>970.0</ele><time>2026-05-03T13:44:57.1Z</time></trkpt><trkpt lat="44.3032988" lon="7.1139261"><ele>969.0</ele><time>2026-05-03T13:44:58.1Z</time></trkpt><trkpt lat="44.3032052" lon="7.1140804"><ele>968.0</ele><time>2026-05-03T13:44:59.1Z</time></trkpt><trkpt lat="44.3031114" lon="7.1142151"><ele>967.0</ele><time>2026-05-03T13:45:00.101Z</time></trkpt><trkpt lat="44.3030246" lon="7.1143361"><ele>966.0</ele><time>2026-05-03T13:45:01.101Z</time></trkpt><trkpt lat="44.3029348" lon="7.1144366"><ele>966.0</ele><time>2026-05-03T13:45:02.101Z</time></trkpt><trkpt lat="44.3028997" lon="7.1145828"><ele>966.0</ele><time>2026-05-03T13:45:03.101Z</time></trkpt><trkpt lat="44.3028676" lon="7.1147259"><ele>966.0</ele><time>2026-05-03T13:45:04.101Z</time></trkpt><trkpt lat="44.3028373" lon="7.1148833"><ele>966.0</ele><time>2026-05-03T13:45:05.101Z</time></trkpt><trkpt lat="44.3028048" lon="7.115047"><ele>964.0</ele><time>2026-05-03T13:45:06.101Z</time></trkpt><trkpt lat="44.3028223" lon="7.1152856"><ele>962.0</ele><time>2026-05-03T13:45:07.101Z</time></trkpt><trkpt lat="44.3028049" lon="7.1154914"><ele>960.0</ele><time>2026-05-03T13:45:08.1Z</time></trkpt><trkpt lat="44.3027564" lon="7.1157106"><ele>960.0</ele><time>2026-05-03T13:45:09.1Z</time></trkpt><trkpt lat="44.3026943" lon="7.1159102"><ele>960.0</ele><time>2026-05-03T13:45:10.101Z</time></trkpt><trkpt lat="44.3026123" lon="7.1161185"><ele>960.0</ele><time>2026-05-03T13:45:11.101Z</time></trkpt><trkpt lat="44.3025188" lon="7.1163219"><ele>960.0</ele><time>2026-05-03T13:45:12.101Z</time></trkpt><trkpt lat="44.3024172" lon="7.1165242"><ele>960.0</ele><time>2026-05-03T13:45:13.101Z</time></trkpt><trkpt lat="44.3023086" lon="7.1167169"><ele>960.0</ele><time>2026-05-03T13:45:14.101Z</time></trkpt><trkpt lat="44.3021977" lon="7.1169098"><ele>959.0</ele><time>2026-05-03T13:45:15.101Z</time></trkpt><trkpt lat="44.3020964" lon="7.1171051"><ele>958.0</ele><time>2026-05-03T13:45:16.101Z</time></trkpt><trkpt lat="44.3019678" lon="7.117294"><ele>957.0</ele><time>2026-05-03T13:45:17.101Z</time></trkpt><trkpt lat="44.301854" lon="7.1174835"><ele>957.0</ele><time>2026-05-03T13:45:18.101Z</time></trkpt><trkpt lat="44.3017285" lon="7.1176745"><ele>957.0</ele><time>2026-05-03T13:45:19.101Z</time></trkpt><trkpt lat="44.3016195" lon="7.1178762"><ele>957.0</ele><time>2026-05-03T13:45:20.101Z</time></trkpt><trkpt lat="44.3015136" lon="7.1180641"><ele>961.0</ele><time>2026-05-03T13:45:21.101Z</time></trkpt><trkpt lat="44.3014147" lon="7.1182483"><ele>965.0</ele><time>2026-05-03T13:45:22.101Z</time></trkpt><trkpt lat="44.3013203" lon="7.1184111"><ele>969.0</ele><time>2026-05-03T13:45:23.101Z</time></trkpt><trkpt lat="44.3012457" lon="7.1185841"><ele>969.0</ele><time>2026-05-03T13:45:24.101Z</time></trkpt><trkpt lat="44.3011838" lon="7.1187529"><ele>969.0</ele><time>2026-05-03T13:45:25.101Z</time></trkpt><trkpt lat="44.3011334" lon="7.1189386"><ele>969.0</ele><time>2026-05-03T13:45:26.101Z</time></trkpt><trkpt lat="44.3011358" lon="7.1191879"><ele>969.3333333333333</ele><time>2026-05-03T13:45:27.101Z</time></trkpt><trkpt lat="44.3011456" lon="7.1194224"><ele>969.6666666666666</ele><time>2026-05-03T13:45:28.1Z</time></trkpt><trkpt lat="44.301207" lon="7.1196788"><ele>970.0</ele><time>2026-05-03T13:45:29.101Z</time></trkpt><trkpt lat="44.3012596" lon="7.1199258"><ele>969.0</ele><time>2026-05-03T13:45:30.101Z</time></trkpt><trkpt lat="44.3013202" lon="7.1201974"><ele>968.0</ele><time>2026-05-03T13:45:31.1Z</time></trkpt><trkpt lat="44.3013479" lon="7.1204456"><ele>967.0</ele><time>2026-05-03T13:45:32.101Z</time></trkpt><trkpt lat="44.3013455" lon="7.1206863"><ele>963.0</ele><time>2026-05-03T13:45:33.101Z</time></trkpt><trkpt lat="44.3013204" lon="7.1209061"><ele>959.0</ele><time>2026-05-03T13:45:34.101Z</time></trkpt><trkpt lat="44.3011671" lon="7.1210874"><ele>955.0</ele><time>2026-05-03T13:45:35.101Z</time></trkpt><trkpt lat="44.3010361" lon="7.1212575"><ele>955.0</ele><time>2026-05-03T13:45:36.101Z</time></trkpt><trkpt lat="44.3008825" lon="7.1214115"><ele>955.0</ele><time>2026-05-03T13:45:37.101Z</time></trkpt><trkpt lat="44.3007398" lon="7.1215692"><ele>955.0</ele><time>2026-05-03T13:45:38.101Z</time></trkpt><trkpt lat="44.300602" lon="7.1217154"><ele>958.3333333333333</ele><time>2026-05-03T13:45:39.101Z</time></trkpt><trkpt lat="44.3004799" lon="7.1218758"><ele>961.6666666666667</ele><time>2026-05-03T13:45:40.101Z</time></trkpt><trkpt lat="44.3003668" lon="7.1220567"><ele>965.0</ele><time>2026-05-03T13:45:41.101Z</time></trkpt><trkpt lat="44.3002712" lon="7.1222587"><ele>960.0</ele><time>2026-05-03T13:45:42.101Z</time></trkpt><trkpt lat="44.3002014" lon="7.1224822"><ele>955.0</ele><time>2026-05-03T13:45:43.101Z</time></trkpt><trkpt lat="44.3001331" lon="7.1226961"><ele>950.0</ele><time>2026-05-03T13:45:44.101Z</time></trkpt><trkpt lat="44.3000725" lon="7.1228864"><ele>950.0</ele><time>2026-05-03T13:45:45.1Z</time></trkpt><trkpt lat="44.3000183" lon="7.1230576"><ele>950.0</ele><time>2026-05-03T13:45:46.101Z</time></trkpt><trkpt lat="44.2999766" lon="7.1232246"><ele>950.0</ele><time>2026-05-03T13:45:47.1Z</time></trkpt><trkpt lat="44.2999504" lon="7.1233909"><ele>950.0</ele><time>2026-05-03T13:45:48.101Z</time></trkpt><trkpt lat="44.2999778" lon="7.123559"><ele>949.5</ele><time>2026-05-03T13:45:49.101Z</time></trkpt><trkpt lat="44.3000033" lon="7.1237255"><ele>949.0</ele><time>2026-05-03T13:45:50.101Z</time></trkpt><trkpt lat="44.3000556" lon="7.1239189"><ele>948.5</ele><time>2026-05-03T13:45:51.101Z</time></trkpt><trkpt lat="44.3001652" lon="7.1241"><ele>948.0</ele><time>2026-05-03T13:45:52.101Z</time></trkpt><trkpt lat="44.3002367" lon="7.1243016"><ele>946.3333333333333</ele><time>2026-05-03T13:45:53.101Z</time></trkpt><trkpt lat="44.3003201" lon="7.1245099"><ele>944.6666666666666</ele><time>2026-05-03T13:45:54.101Z</time></trkpt><trkpt lat="44.3003756" lon="7.1247066"><ele>943.0</ele><time>2026-05-03T13:45:55.101Z</time></trkpt><trkpt lat="44.3004355" lon="7.1249148"><ele>942.0</ele><time>2026-05-03T13:45:56.101Z</time></trkpt><trkpt lat="44.3004884" lon="7.1251223"><ele>941.0</ele><time>2026-05-03T13:45:57.101Z</time></trkpt><trkpt lat="44.3005182" lon="7.1253137"><ele>940.0</ele><time>2026-05-03T13:45:58.1Z</time></trkpt><trkpt lat="44.300554" lon="7.1255098"><ele>939.0</ele><time>2026-05-03T13:45:59.1Z</time></trkpt><trkpt lat="44.3005919" lon="7.1257028"><ele>942.75</ele><time>2026-05-03T13:46:00.101Z</time></trkpt><trkpt lat="44.300626" lon="7.1259074"><ele>946.5</ele><time>2026-05-03T13:46:01.101Z</time></trkpt><trkpt lat="44.3006569" lon="7.1260967"><ele>950.25</ele><time>2026-05-03T13:46:02.101Z</time></trkpt><trkpt lat="44.3006804" lon="7.1262767"><ele>954.0</ele><time>2026-05-03T13:46:03.1Z</time></trkpt><trkpt lat="44.3007036" lon="7.1264629"><ele>953.5</ele><time>2026-05-03T13:46:04.101Z</time></trkpt><trkpt lat="44.3007173" lon="7.1266488"><ele>953.0</ele><time>2026-05-03T13:46:05.101Z</time></trkpt><trkpt lat="44.3005133" lon="7.1283863"><ele>943.6666666666667</ele><time>2026-05-03T13:46:14.101Z</time></trkpt><trkpt lat="44.300457" lon="7.1286102"><ele>934.3333333333333</ele><time>2026-05-03T13:46:15.101Z</time></trkpt><trkpt lat="44.300392" lon="7.1288067"><ele>925.0</ele><time>2026-05-03T13:46:16.101Z</time></trkpt><trkpt lat="44.3003689" lon="7.12907"><ele>925.0</ele><time>2026-05-03T13:46:17.101Z</time></trkpt><trkpt lat="44.3003494" lon="7.1292839"><ele>925.0</ele><time>2026-05-03T13:46:18.101Z</time></trkpt><trkpt lat="44.3003401" lon="7.1294905"><ele>925.0</ele><time>2026-05-03T13:46:19.101Z</time></trkpt><trkpt lat="44.3003403" lon="7.1297065"><ele>924.0</ele><time>2026-05-03T13:46:20.101Z</time></trkpt><trkpt lat="44.3003373" lon="7.129928"><ele>923.0</ele><time>2026-05-03T13:46:21.101Z</time></trkpt><trkpt lat="44.3003334" lon="7.130186"><ele>922.0</ele><time>2026-05-03T13:46:22.101Z</time></trkpt><trkpt lat="44.3003374" lon="7.1304276"><ele>921.0</ele><time>2026-05-03T13:46:23.101Z</time></trkpt><trkpt lat="44.3003031" lon="7.1307331"><ele>920.0</ele><time>2026-05-03T13:46:24.1Z</time></trkpt><trkpt lat="44.3002938" lon="7.131043"><ele>919.0</ele><time>2026-05-03T13:46:25.1Z</time></trkpt><trkpt lat="44.3002857" lon="7.1313797"><ele>918.5</ele><time>2026-05-03T13:46:26.1Z</time></trkpt><trkpt lat="44.300277" lon="7.1317174"><ele>918.0</ele><time>2026-05-03T13:46:27.101Z</time></trkpt><trkpt lat="44.3002723" lon="7.1320668"><ele>918.5</ele><time>2026-05-03T13:46:28.101Z</time></trkpt><trkpt lat="44.3002743" lon="7.1324128"><ele>919.0</ele><time>2026-05-03T13:46:29.101Z</time></trkpt><trkpt lat="44.300276" lon="7.1327589"><ele>919.0</ele><time>2026-05-03T13:46:30.101Z</time></trkpt><trkpt lat="44.3002592" lon="7.1330714"><ele>919.0</ele><time>2026-05-03T13:46:31.101Z</time></trkpt><trkpt lat="44.3002407" lon="7.1333889"><ele>920.0</ele><time>2026-05-03T13:46:32.1Z</time></trkpt><trkpt lat="44.3002071" lon="7.1337102"><ele>921.0</ele><time>2026-05-03T13:46:33.101Z</time></trkpt><trkpt lat="44.3001725" lon="7.1340239"><ele>921.5</ele><time>2026-05-03T13:46:34.101Z</time></trkpt><trkpt lat="44.300135" lon="7.1343319"><ele>922.0</ele><time>2026-05-03T13:46:35.101Z</time></trkpt><trkpt lat="44.3001053" lon="7.1346551"><ele>921.0</ele><time>2026-05-03T13:46:36.101Z</time></trkpt><trkpt lat="44.3000777" lon="7.1349632"><ele>920.0</ele><time>2026-05-03T13:46:37.101Z</time></trkpt><trkpt lat="44.3000431" lon="7.135289"><ele>920.0</ele><time>2026-05-03T13:46:38.1Z</time></trkpt><trkpt lat="44.3000185" lon="7.1356223"><ele>920.0</ele><time>2026-05-03T13:46:39.101Z</time></trkpt><trkpt lat="44.2999732" lon="7.1359529"><ele>920.0</ele><time>2026-05-03T13:46:40.1Z</time></trkpt><trkpt lat="44.299934" lon="7.1362884"><ele>920.0</ele><time>2026-05-03T13:46:41.101Z</time></trkpt><trkpt lat="44.2998941" lon="7.136614"><ele>920.0</ele><time>2026-05-03T13:46:42.101Z</time></trkpt><trkpt lat="44.2998642" lon="7.1369489"><ele>920.0</ele><time>2026-05-03T13:46:43.101Z</time></trkpt><trkpt lat="44.2998175" lon="7.1372688"><ele>921.0</ele><time>2026-05-03T13:46:44.101Z</time></trkpt><trkpt lat="44.299778" lon="7.1375945"><ele>922.0</ele><time>2026-05-03T13:46:45.1Z</time></trkpt><trkpt lat="44.2997401" lon="7.137907"><ele>918.0</ele><time>2026-05-03T13:46:46.101Z</time></trkpt><trkpt lat="44.2996998" lon="7.1382068"><ele>914.0</ele><time>2026-05-03T13:46:47.101Z</time></trkpt><trkpt lat="44.299662" lon="7.138514"><ele>910.0</ele><time>2026-05-03T13:46:48.101Z</time></trkpt><trkpt lat="44.2996268" lon="7.1388231"><ele>909.3333333333333</ele><time>2026-05-03T13:46:49.101Z</time></trkpt><trkpt lat="44.2995906" lon="7.1391291"><ele>908.6666666666667</ele><time>2026-05-03T13:46:50.101Z</time></trkpt><trkpt lat="44.2995486" lon="7.1394343"><ele>908.0</ele><time>2026-05-03T13:46:51.101Z</time></trkpt><trkpt lat="44.2995151" lon="7.1397309"><ele>908.6666666666667</ele><time>2026-05-03T13:46:52.101Z</time></trkpt><trkpt lat="44.299486" lon="7.1400152"><ele>909.3333333333333</ele><time>2026-05-03T13:46:53.101Z</time></trkpt><trkpt lat="44.2994596" lon="7.1402828"><ele>910.0</ele><time>2026-05-03T13:46:54.101Z</time></trkpt><trkpt lat="44.2994542" lon="7.1405576"><ele>909.6666666666666</ele><time>2026-05-03T13:46:55.101Z</time></trkpt><trkpt lat="44.2994722" lon="7.1408237"><ele>909.3333333333333</ele><time>2026-05-03T13:46:56.101Z</time></trkpt><trkpt lat="44.2995172" lon="7.1410788"><ele>909.0</ele><time>2026-05-03T13:46:57.101Z</time></trkpt><trkpt lat="44.2995904" lon="7.1413344"><ele>908.3333333333333</ele><time>2026-05-03T13:46:58.101Z</time></trkpt><trkpt lat="44.2996648" lon="7.1415654"><ele>907.6666666666666</ele><time>2026-05-03T13:46:59.101Z</time></trkpt><trkpt lat="44.2997376" lon="7.1417779"><ele>907.0</ele><time>2026-05-03T13:47:00.101Z</time></trkpt><trkpt lat="44.2998377" lon="7.1419895"><ele>906.3333333333333</ele><time>2026-05-03T13:47:01.1Z</time></trkpt><trkpt lat="44.2999507" lon="7.1421656"><ele>905.6666666666667</ele><time>2026-05-03T13:47:02.101Z</time></trkpt><trkpt lat="44.3001405" lon="7.1423076"><ele>905.0</ele><time>2026-05-03T13:47:03.101Z</time></trkpt><trkpt lat="44.3002923" lon="7.1424596"><ele>905.0</ele><time>2026-05-03T13:47:04.101Z</time></trkpt><trkpt lat="44.3004366" lon="7.1426225"><ele>905.0</ele><time>2026-05-03T13:47:05.101Z</time></trkpt><trkpt lat="44.3005891" lon="7.1428011"><ele>905.0</ele><time>2026-05-03T13:47:06.101Z</time></trkpt><trkpt lat="44.3007297" lon="7.1430006"><ele>905.6666666666667</ele><time>2026-05-03T13:47:07.101Z</time></trkpt><trkpt lat="44.3008703" lon="7.1432128"><ele>906.3333333333333</ele><time>2026-05-03T13:47:08.101Z</time></trkpt><trkpt lat="44.3010056" lon="7.1434388"><ele>907.0</ele><time>2026-05-03T13:47:09.101Z</time></trkpt><trkpt lat="44.301141" lon="7.1436759"><ele>907.0</ele><time>2026-05-03T13:47:10.101Z</time></trkpt><trkpt lat="44.3012613" lon="7.1439201"><ele>907.0</ele><time>2026-05-03T13:47:11.101Z</time></trkpt><trkpt lat="44.3013692" lon="7.1441743"><ele>907.0</ele><time>2026-05-03T13:47:12.101Z</time></trkpt><trkpt lat="44.3014774" lon="7.1444442"><ele>911.0</ele><time>2026-05-03T13:47:13.101Z</time></trkpt><trkpt lat="44.3015232" lon="7.1447021"><ele>915.0</ele><time>2026-05-03T13:47:14.101Z</time></trkpt><trkpt lat="44.3015763" lon="7.1449688"><ele>919.0</ele><time>2026-05-03T13:47:15.101Z</time></trkpt><trkpt lat="44.3016277" lon="7.1452369"><ele>919.0</ele><time>2026-05-03T13:47:16.101Z</time></trkpt><trkpt lat="44.3016813" lon="7.1455157"><ele>919.0</ele><time>2026-05-03T13:47:17.101Z</time></trkpt><trkpt lat="44.3017332" lon="7.1457963"><ele>919.0</ele><time>2026-05-03T13:47:18.101Z</time></trkpt><trkpt lat="44.3017941" lon="7.1460772"><ele>915.6666666666666</ele><time>2026-05-03T13:47:19.101Z</time></trkpt><trkpt lat="44.3018476" lon="7.1463445"><ele>912.3333333333333</ele><time>2026-05-03T13:47:20.101Z</time></trkpt><trkpt lat="44.3019046" lon="7.1466154"><ele>909.0</ele><time>2026-05-03T13:47:21.101Z</time></trkpt><trkpt lat="44.3019577" lon="7.1468588"><ele>908.3333333333333</ele><time>2026-05-03T13:47:22.101Z</time></trkpt><trkpt lat="44.3019842" lon="7.1471345"><ele>907.6666666666666</ele><time>2026-05-03T13:47:23.101Z</time></trkpt><trkpt lat="44.302011" lon="7.1474094"><ele>907.0</ele><time>2026-05-03T13:47:24.1Z</time></trkpt><trkpt lat="44.3020095" lon="7.1476886"><ele>905.0</ele><time>2026-05-03T13:47:25.101Z</time></trkpt><trkpt lat="44.3020097" lon="7.1479681"><ele>903.0</ele><time>2026-05-03T13:47:26.101Z</time></trkpt><trkpt lat="44.3020155" lon="7.148263"><ele>901.0</ele><time>2026-05-03T13:47:27.1Z</time></trkpt><trkpt lat="44.3020324" lon="7.1485583"><ele>900.3333333333333</ele><time>2026-05-03T13:47:28.1Z</time></trkpt><trkpt lat="44.3020601" lon="7.1488423"><ele>899.6666666666667</ele><time>2026-05-03T13:47:29.101Z</time></trkpt><trkpt lat="44.3021042" lon="7.1491243"><ele>899.0</ele><time>2026-05-03T13:47:30.101Z</time></trkpt><trkpt lat="44.3021543" lon="7.1493936"><ele>897.3333333333334</ele><time>2026-05-03T13:47:31.101Z</time></trkpt><trkpt lat="44.302213" lon="7.1496502"><ele>895.6666666666667</ele><time>2026-05-03T13:47:32.101Z</time></trkpt><trkpt lat="44.3022779" lon="7.1499264"><ele>894.0</ele><time>2026-05-03T13:47:33.101Z</time></trkpt><trkpt lat="44.3023728" lon="7.1501491"><ele>894.0</ele><time>2026-05-03T13:47:34.101Z</time></trkpt><trkpt lat="44.3024855" lon="7.1503815"><ele>894.0</ele><time>2026-05-03T13:47:35.101Z</time></trkpt><trkpt lat="44.3026156" lon="7.1505775"><ele>894.0</ele><time>2026-05-03T13:47:36.1Z</time></trkpt><trkpt lat="44.3027609" lon="7.1507703"><ele>894.0</ele><time>2026-05-03T13:47:37.101Z</time></trkpt><trkpt lat="44.3029052" lon="7.1509663"><ele>894.0</ele><time>2026-05-03T13:47:38.101Z</time></trkpt><trkpt lat="44.3030441" lon="7.1511964"><ele>894.0</ele><time>2026-05-03T13:47:39.101Z</time></trkpt><trkpt lat="44.3031756" lon="7.151446"><ele>896.6666666666667</ele><time>2026-05-03T13:47:40.101Z</time></trkpt><trkpt lat="44.3032979" lon="7.151717"><ele>899.3333333333334</ele><time>2026-05-03T13:47:41.101Z</time></trkpt><trkpt lat="44.3034126" lon="7.1519794"><ele>902.0</ele><time>2026-05-03T13:47:42.101Z</time></trkpt><trkpt lat="44.3035269" lon="7.1522351"><ele>899.0</ele><time>2026-05-03T13:47:43.101Z</time></trkpt><trkpt lat="44.3036511" lon="7.1524848"><ele>896.0</ele><time>2026-05-03T13:47:44.101Z</time></trkpt><trkpt lat="44.3037795" lon="7.1527297"><ele>893.0</ele><time>2026-05-03T13:47:45.101Z</time></trkpt><trkpt lat="44.303908" lon="7.1529705"><ele>898.0</ele><time>2026-05-03T13:47:46.101Z</time></trkpt><trkpt lat="44.3040235" lon="7.1532088"><ele>903.0</ele><time>2026-05-03T13:47:47.101Z</time></trkpt><trkpt lat="44.3041362" lon="7.1534442"><ele>908.0</ele><time>2026-05-03T13:47:48.101Z</time></trkpt><trkpt lat="44.3042226" lon="7.1536873"><ele>908.0</ele><time>2026-05-03T13:47:49.101Z</time></trkpt><trkpt lat="44.3043156" lon="7.1539296"><ele>908.0</ele><time>2026-05-03T13:47:50.101Z</time></trkpt><trkpt lat="44.3043488" lon="7.1542096"><ele>908.0</ele><time>2026-05-03T13:47:51.101Z</time></trkpt><trkpt lat="44.3043906" lon="7.1544996"><ele>901.5</ele><time>2026-05-03T13:47:52.101Z</time></trkpt><trkpt lat="44.3044431" lon="7.1548033"><ele>895.0</ele><time>2026-05-03T13:47:53.101Z</time></trkpt><trkpt lat="44.3044903" lon="7.1551158"><ele>890.5</ele><time>2026-05-03T13:47:54.101Z</time></trkpt><trkpt lat="44.3045422" lon="7.155446"><ele>886.0</ele><time>2026-05-03T13:47:55.1Z</time></trkpt><trkpt lat="44.3045987" lon="7.1557704"><ele>885.0</ele><time>2026-05-03T13:47:56.101Z</time></trkpt><trkpt lat="44.3046476" lon="7.156069"><ele>884.0</ele><time>2026-05-03T13:47:57.101Z</time></trkpt><trkpt lat="44.3046808" lon="7.1563746"><ele>883.0</ele><time>2026-05-03T13:47:58.101Z</time></trkpt><trkpt lat="44.3047395" lon="7.1566763"><ele>890.0</ele><time>2026-05-03T13:47:59.101Z</time></trkpt><trkpt lat="44.3048057" lon="7.1569674"><ele>897.0</ele><time>2026-05-03T13:48:00.101Z</time></trkpt><trkpt lat="44.3048947" lon="7.1572659"><ele>893.5</ele><time>2026-05-03T13:48:01.1Z</time></trkpt><trkpt lat="44.3049903" lon="7.1575655"><ele>890.0</ele><time>2026-05-03T13:48:02.101Z</time></trkpt><trkpt lat="44.3050757" lon="7.1578553"><ele>890.0</ele><time>2026-05-03T13:48:03.101Z</time></trkpt><trkpt lat="44.3051495" lon="7.1581195"><ele>890.0</ele><time>2026-05-03T13:48:04.101Z</time></trkpt><trkpt lat="44.3052324" lon="7.158387"><ele>890.0</ele><time>2026-05-03T13:48:05.1Z</time></trkpt><trkpt lat="44.3053239" lon="7.1586528"><ele>888.0</ele><time>2026-05-03T13:48:06.101Z</time></trkpt><trkpt lat="44.3054181" lon="7.1589172"><ele>886.0</ele><time>2026-05-03T13:48:07.101Z</time></trkpt><trkpt lat="44.305502" lon="7.1591914"><ele>884.0</ele><time>2026-05-03T13:48:08.101Z</time></trkpt><trkpt lat="44.3055924" lon="7.1594551"><ele>887.6666666666667</ele><time>2026-05-03T13:48:09.101Z</time></trkpt><trkpt lat="44.3056745" lon="7.1597248"><ele>891.3333333333333</ele><time>2026-05-03T13:48:10.101Z</time></trkpt><trkpt lat="44.3057457" lon="7.1599975"><ele>895.0</ele><time>2026-05-03T13:48:11.101Z</time></trkpt><trkpt lat="44.3058167" lon="7.1602895"><ele>895.0</ele><time>2026-05-03T13:48:12.101Z</time></trkpt><trkpt lat="44.3058801" lon="7.1605856"><ele>895.0</ele><time>2026-05-03T13:48:13.101Z</time></trkpt><trkpt lat="44.3059274" lon="7.1608832"><ele>895.0</ele><time>2026-05-03T13:48:14.101Z</time></trkpt><trkpt lat="44.3059621" lon="7.1611837"><ele>892.3333333333333</ele><time>2026-05-03T13:48:15.101Z</time></trkpt><trkpt lat="44.3059732" lon="7.1614822"><ele>889.6666666666667</ele><time>2026-05-03T13:48:16.101Z</time></trkpt><trkpt lat="44.3059672" lon="7.1617853"><ele>887.0</ele><time>2026-05-03T13:48:17.101Z</time></trkpt><trkpt lat="44.3059479" lon="7.1620668"><ele>886.3333333333334</ele><time>2026-05-03T13:48:18.101Z</time></trkpt><trkpt lat="44.3059227" lon="7.1623304"><ele>885.6666666666667</ele><time>2026-05-03T13:48:19.101Z</time></trkpt><trkpt lat="44.3058949" lon="7.1626061"><ele>885.0</ele><time>2026-05-03T13:48:20.101Z</time></trkpt><trkpt lat="44.3058845" lon="7.1628482"><ele>883.6666666666667</ele><time>2026-05-03T13:48:21.101Z</time></trkpt><trkpt lat="44.3058997" lon="7.1631175"><ele>882.3333333333334</ele><time>2026-05-03T13:48:22.101Z</time></trkpt><trkpt lat="44.3059406" lon="7.1633796"><ele>881.0</ele><time>2026-05-03T13:48:23.101Z</time></trkpt><trkpt lat="44.306013" lon="7.1636508"><ele>880.3333333333334</ele><time>2026-05-03T13:48:24.101Z</time></trkpt><trkpt lat="44.3060906" lon="7.163929"><ele>879.6666666666667</ele><time>2026-05-03T13:48:25.1Z</time></trkpt><trkpt lat="44.3061983" lon="7.1642077"><ele>879.0</ele><time>2026-05-03T13:48:26.1Z</time></trkpt><trkpt lat="44.3062995" lon="7.1644806"><ele>885.5</ele><time>2026-05-03T13:48:27.101Z</time></trkpt><trkpt lat="44.306419" lon="7.1647517"><ele>892.0</ele><time>2026-05-03T13:48:28.101Z</time></trkpt><trkpt lat="44.3065272" lon="7.1650224"><ele>892.0</ele><time>2026-05-03T13:48:29.101Z</time></trkpt><trkpt lat="44.3066306" lon="7.1652829"><ele>892.0</ele><time>2026-05-03T13:48:30.101Z</time></trkpt><trkpt lat="44.3066928" lon="7.1656232"><ele>890.0</ele><time>2026-05-03T13:48:31.101Z</time></trkpt><trkpt lat="44.3067776" lon="7.1659127"><ele>888.0</ele><time>2026-05-03T13:48:32.101Z</time></trkpt><trkpt lat="44.3068664" lon="7.1662188"><ele>888.0</ele><time>2026-05-03T13:48:33.101Z</time></trkpt><trkpt lat="44.3069462" lon="7.1664919"><ele>888.0</ele><time>2026-05-03T13:48:34.101Z</time></trkpt><trkpt lat="44.3070224" lon="7.1667633"><ele>888.0</ele><time>2026-05-03T13:48:35.101Z</time></trkpt><trkpt lat="44.3070836" lon="7.167015"><ele>887.3333333333333</ele><time>2026-05-03T13:48:36.101Z</time></trkpt><trkpt lat="44.3071436" lon="7.167245"><ele>886.6666666666666</ele><time>2026-05-03T13:48:37.101Z</time></trkpt><trkpt lat="44.3071972" lon="7.1674712"><ele>886.0</ele><time>2026-05-03T13:48:38.101Z</time></trkpt><trkpt lat="44.3072317" lon="7.1676974"><ele>895.3333333333333</ele><time>2026-05-03T13:48:39.101Z</time></trkpt><trkpt lat="44.3072535" lon="7.167943"><ele>904.6666666666667</ele><time>2026-05-03T13:48:40.101Z</time></trkpt><trkpt lat="44.3072792" lon="7.1681948"><ele>914.0</ele><time>2026-05-03T13:48:41.101Z</time></trkpt><trkpt lat="44.3073046" lon="7.1684465"><ele>914.0</ele><time>2026-05-03T13:48:42.101Z</time></trkpt><trkpt lat="44.3073397" lon="7.1686928"><ele>914.0</ele><time>2026-05-03T13:48:43.1Z</time></trkpt><trkpt lat="44.3073911" lon="7.1689238"><ele>914.0</ele><time>2026-05-03T13:48:44.101Z</time></trkpt><trkpt lat="44.3074424" lon="7.1691528"><ele>913.0</ele><time>2026-05-03T13:48:45.101Z</time></trkpt><trkpt lat="44.3074763" lon="7.1693898"><ele>912.0</ele><time>2026-05-03T13:48:46.101Z</time></trkpt><trkpt lat="44.3074765" lon="7.1696199"><ele>911.0</ele><time>2026-05-03T13:48:47.101Z</time></trkpt><trkpt lat="44.3074683" lon="7.1698343"><ele>911.0</ele><time>2026-05-03T13:48:48.1Z</time></trkpt><trkpt lat="44.3074234" lon="7.1700237"><ele>911.0</ele><time>2026-05-03T13:48:49.101Z</time></trkpt><trkpt lat="44.3073569" lon="7.170197"><ele>911.0</ele><time>2026-05-03T13:48:50.1Z</time></trkpt><trkpt lat="44.3072927" lon="7.1703709"><ele>911.0</ele><time>2026-05-03T13:48:51.101Z</time></trkpt><trkpt lat="44.3072195" lon="7.1705512"><ele>908.5</ele><time>2026-05-03T13:48:52.101Z</time></trkpt><trkpt lat="44.3071461" lon="7.1707305"><ele>906.0</ele><time>2026-05-03T13:48:53.101Z</time></trkpt><trkpt lat="44.3070778" lon="7.1709143"><ele>903.5</ele><time>2026-05-03T13:48:54.101Z</time></trkpt><trkpt lat="44.3070092" lon="7.1710943"><ele>901.0</ele><time>2026-05-03T13:48:55.101Z</time></trkpt><trkpt lat="44.3069365" lon="7.1712744"><ele>901.0</ele><time>2026-05-03T13:48:56.1Z</time></trkpt><trkpt lat="44.3068695" lon="7.1714419"><ele>901.0</ele><time>2026-05-03T13:48:57.1Z</time></trkpt><trkpt lat="44.306798" lon="7.1715931"><ele>901.0</ele><time>2026-05-03T13:48:58.1Z</time></trkpt><trkpt lat="44.306723" lon="7.1717553"><ele>901.0</ele><time>2026-05-03T13:48:59.101Z</time></trkpt><trkpt lat="44.3066635" lon="7.1719048"><ele>901.0</ele><time>2026-05-03T13:49:00.101Z</time></trkpt><trkpt lat="44.3066173" lon="7.172073"><ele>901.0</ele><time>2026-05-03T13:49:01.101Z</time></trkpt><trkpt lat="44.3065919" lon="7.1722474"><ele>901.0</ele><time>2026-05-03T13:49:02.101Z</time></trkpt><trkpt lat="44.3065736" lon="7.172417"><ele>901.0</ele><time>2026-05-03T13:49:03.101Z</time></trkpt><trkpt lat="44.3065616" lon="7.1725739"><ele>901.25</ele><time>2026-05-03T13:49:04.101Z</time></trkpt><trkpt lat="44.3065559" lon="7.1727382"><ele>901.5</ele><time>2026-05-03T13:49:05.101Z</time></trkpt><trkpt lat="44.3065533" lon="7.1728977"><ele>901.75</ele><time>2026-05-03T13:49:06.101Z</time></trkpt><trkpt lat="44.3065455" lon="7.173039"><ele>902.0</ele><time>2026-05-03T13:49:07.101Z</time></trkpt><trkpt lat="44.3065653" lon="7.1732123"><ele>902.4000000000001</ele><time>2026-05-03T13:49:08.101Z</time></trkpt><trkpt lat="44.3065745" lon="7.1733689"><ele>902.8000000000001</ele><time>2026-05-03T13:49:09.101Z</time></trkpt><trkpt lat="44.3065903" lon="7.1735211"><ele>903.2</ele><time>2026-05-03T13:49:10.101Z</time></trkpt><trkpt lat="44.3066029" lon="7.1736641"><ele>903.6</ele><time>2026-05-03T13:49:11.101Z</time></trkpt><trkpt lat="44.3066216" lon="7.1738129"><ele>904.0</ele><time>2026-05-03T13:49:12.101Z</time></trkpt><trkpt lat="44.3066322" lon="7.1739672"><ele>903.75</ele><time>2026-05-03T13:49:13.1Z</time></trkpt><trkpt lat="44.3066441" lon="7.1741276"><ele>903.5</ele><time>2026-05-03T13:49:14.101Z</time></trkpt><trkpt lat="44.3066531" lon="7.1742971"><ele>903.25</ele><time>2026-05-03T13:49:15.101Z</time></trkpt><trkpt lat="44.3066646" lon="7.1744828"><ele>903.0</ele><time>2026-05-03T13:49:16.101Z</time></trkpt><trkpt lat="44.3066796" lon="7.1746725"><ele>903.0</ele><time>2026-05-03T13:49:17.101Z</time></trkpt><trkpt lat="44.3066924" lon="7.1748516"><ele>903.0</ele><time>2026-05-03T13:49:18.1Z</time></trkpt><trkpt lat="44.3067263" lon="7.1750494"><ele>903.0</ele><time>2026-05-03T13:49:19.101Z</time></trkpt><trkpt lat="44.3067784" lon="7.1752345"><ele>903.0</ele><time>2026-05-03T13:49:20.101Z</time></trkpt><trkpt lat="44.3068454" lon="7.1754096"><ele>902.0</ele><time>2026-05-03T13:49:21.101Z</time></trkpt><trkpt lat="44.306922" lon="7.1755351"><ele>901.0</ele><time>2026-05-03T13:49:22.101Z</time></trkpt><trkpt lat="44.3070221" lon="7.1756631"><ele>900.0</ele><time>2026-05-03T13:49:23.101Z</time></trkpt><trkpt lat="44.3071324" lon="7.1757793"><ele>899.0</ele><time>2026-05-03T13:49:24.101Z</time></trkpt><trkpt lat="44.307234" lon="7.1758795"><ele>898.75</ele><time>2026-05-03T13:49:25.101Z</time></trkpt><trkpt lat="44.3073447" lon="7.1759933"><ele>898.5</ele><time>2026-05-03T13:49:26.1Z</time></trkpt><trkpt lat="44.3074404" lon="7.17609"><ele>898.25</ele><time>2026-05-03T13:49:27.101Z</time></trkpt><trkpt lat="44.3075403" lon="7.1761828"><ele>898.0</ele><time>2026-05-03T13:49:28.101Z</time></trkpt><trkpt lat="44.3076402" lon="7.1762728"><ele>898.0</ele><time>2026-05-03T13:49:29.101Z</time></trkpt><trkpt lat="44.3077277" lon="7.176361"><ele>898.0</ele><time>2026-05-03T13:49:30.101Z</time></trkpt><trkpt lat="44.3078127" lon="7.1764432"><ele>898.0</ele><time>2026-05-03T13:49:31.101Z</time></trkpt><trkpt lat="44.3078944" lon="7.1765342"><ele>898.0</ele><time>2026-05-03T13:49:32.101Z</time></trkpt><trkpt lat="44.3079651" lon="7.1766056"><ele>898.0</ele><time>2026-05-03T13:49:33.101Z</time></trkpt><trkpt lat="44.3080538" lon="7.176697"><ele>897.0</ele><time>2026-05-03T13:49:34.101Z</time></trkpt><trkpt lat="44.3081438" lon="7.1767852"><ele>896.0</ele><time>2026-05-03T13:49:35.101Z</time></trkpt><trkpt lat="44.308257" lon="7.1768818"><ele>895.0</ele><time>2026-05-03T13:49:36.101Z</time></trkpt><trkpt lat="44.3083715" lon="7.1769886"><ele>894.0</ele><time>2026-05-03T13:49:37.101Z</time></trkpt><trkpt lat="44.30848" lon="7.1770908"><ele>894.0</ele><time>2026-05-03T13:49:38.101Z</time></trkpt><trkpt lat="44.3085876" lon="7.1771861"><ele>894.0</ele><time>2026-05-03T13:49:39.1Z</time></trkpt><trkpt lat="44.3086864" lon="7.1772822"><ele>894.0</ele><time>2026-05-03T13:49:40.101Z</time></trkpt><trkpt lat="44.3087824" lon="7.1773717"><ele>894.0</ele><time>2026-05-03T13:49:41.101Z</time></trkpt><trkpt lat="44.308865" lon="7.1774616"><ele>894.6</ele><time>2026-05-03T13:49:42.101Z</time></trkpt><trkpt lat="44.3089447" lon="7.1775533"><ele>895.2</ele><time>2026-05-03T13:49:43.101Z</time></trkpt><trkpt lat="44.3090227" lon="7.1776468"><ele>895.8000000000001</ele><time>2026-05-03T13:49:44.101Z</time></trkpt><trkpt lat="44.3090814" lon="7.1777342"><ele>896.4000000000001</ele><time>2026-05-03T13:49:45.101Z</time></trkpt><trkpt lat="44.3091182" lon="7.1778127"><ele>897.0</ele><time>2026-05-03T13:49:46.101Z</time></trkpt><trkpt lat="44.3091668" lon="7.177966"><ele>897.0</ele><time>2026-05-03T13:49:48.101Z</time></trkpt><trkpt lat="44.3091971" lon="7.1780555"><ele>897.0</ele><time>2026-05-03T13:49:49.101Z</time></trkpt><trkpt lat="44.3092315" lon="7.1781417"><ele>897.0</ele><time>2026-05-03T13:49:50.101Z</time></trkpt><trkpt lat="44.3092487" lon="7.1782653"><ele>897.0</ele><time>2026-05-03T13:49:52.101Z</time></trkpt><trkpt lat="44.30928" lon="7.1784443"><ele>897.0</ele><time>2026-05-03T13:49:54.1Z</time></trkpt><trkpt lat="44.3093075" lon="7.1786019"><ele>895.6</ele><time>2026-05-03T13:49:55.101Z</time></trkpt><trkpt lat="44.3093351" lon="7.1787455"><ele>894.2</ele><time>2026-05-03T13:49:56.101Z</time></trkpt><trkpt lat="44.3093626" lon="7.1788857"><ele>892.8</ele><time>2026-05-03T13:49:57.101Z</time></trkpt><trkpt lat="44.3093892" lon="7.1790113"><ele>891.4</ele><time>2026-05-03T13:49:58.101Z</time></trkpt><trkpt lat="44.3094074" lon="7.1791026"><ele>890.0</ele><time>2026-05-03T13:49:59.101Z</time></trkpt><trkpt lat="44.309444" lon="7.179261"><ele>890.0000000000001</ele><time>2026-05-03T13:50:01.1Z</time></trkpt><trkpt lat="44.3094472" lon="7.1793585"><ele>890.0</ele><time>2026-05-03T13:50:04.1Z</time></trkpt><trkpt lat="44.3094731" lon="7.1792505"><ele>890.0</ele><time>2026-05-03T13:50:34.101Z</time></trkpt><trkpt lat="44.3094522" lon="7.1791466"><ele>890.0</ele><time>2026-05-03T13:50:35.101Z</time></trkpt><trkpt lat="44.3094253" lon="7.1790623"><ele>890.0000000000001</ele><time>2026-05-03T13:50:36.101Z</time></trkpt><trkpt lat="44.3093926" lon="7.1789421"><ele>890.0</ele><time>2026-05-03T13:50:37.101Z</time></trkpt><trkpt lat="44.3093726" lon="7.1787531"><ele>890.0</ele><time>2026-05-03T13:50:38.101Z</time></trkpt><trkpt lat="44.3093416" lon="7.1785847"><ele>890.0</ele><time>2026-05-03T13:50:39.101Z</time></trkpt><trkpt lat="44.3093072" lon="7.17844"><ele>890.0</ele><time>2026-05-03T13:50:40.101Z</time></trkpt><trkpt lat="44.3092675" lon="7.1782954"><ele>890.0</ele><time>2026-05-03T13:50:41.101Z</time></trkpt><trkpt lat="44.3092275" lon="7.1781345"><ele>891.75</ele><time>2026-05-03T13:50:42.101Z</time></trkpt><trkpt lat="44.309174" lon="7.1779803"><ele>893.5</ele><time>2026-05-03T13:50:43.1Z</time></trkpt><trkpt lat="44.3091226" lon="7.1778311"><ele>895.25</ele><time>2026-05-03T13:50:44.101Z</time></trkpt><trkpt lat="44.3090468" lon="7.1777142"><ele>897.0</ele><time>2026-05-03T13:50:45.101Z</time></trkpt><trkpt lat="44.3089708" lon="7.1775988"><ele>896.25</ele><time>2026-05-03T13:50:46.101Z</time></trkpt><trkpt lat="44.3088883" lon="7.1774922"><ele>895.5</ele><time>2026-05-03T13:50:47.101Z</time></trkpt><trkpt lat="44.3087675" lon="7.1773646"><ele>894.75</ele><time>2026-05-03T13:50:48.101Z</time></trkpt><trkpt lat="44.3086507" lon="7.1772526"><ele>894.0</ele><time>2026-05-03T13:50:49.101Z</time></trkpt><trkpt lat="44.3085354" lon="7.1771471"><ele>894.0</ele><time>2026-05-03T13:50:50.101Z</time></trkpt><trkpt lat="44.3084459" lon="7.1770272"><ele>894.0</ele><time>2026-05-03T13:50:51.101Z</time></trkpt><trkpt lat="44.3083485" lon="7.176919"><ele>894.0</ele><time>2026-05-03T13:50:52.1Z</time></trkpt><trkpt lat="44.3082502" lon="7.1768142"><ele>894.0</ele><time>2026-05-03T13:50:53.101Z</time></trkpt><trkpt lat="44.3081592" lon="7.1767239"><ele>894.0</ele><time>2026-05-03T13:50:54.101Z</time></trkpt><trkpt lat="44.3080775" lon="7.1766503"><ele>894.0</ele><time>2026-05-03T13:50:55.1Z</time></trkpt><trkpt lat="44.3079989" lon="7.1765781"><ele>894.0</ele><time>2026-05-03T13:50:56.101Z</time></trkpt><trkpt lat="44.307941" lon="7.1765277"><ele>894.0</ele><time>2026-05-03T13:50:57.101Z</time></trkpt><trkpt lat="44.3078666" lon="7.1764515"><ele>894.0</ele><time>2026-05-03T13:50:59.101Z</time></trkpt><trkpt lat="44.3078263" lon="7.176526"><ele>894.0</ele><time>2026-05-03T13:51:01.101Z</time></trkpt><trkpt lat="44.3078463" lon="7.1766213"><ele>893.0</ele><time>2026-05-03T13:51:03.101Z</time></trkpt><trkpt lat="44.3078912" lon="7.1767824"><ele>892.0000000000001</ele><time>2026-05-03T13:51:05.101Z</time></trkpt><trkpt lat="44.3079033" lon="7.1768819"><ele>891.0000000000001</ele><time>2026-05-03T13:51:06.1Z</time></trkpt><trkpt lat="44.3079398" lon="7.1770127"><ele>890.0</ele><time>2026-05-03T13:51:07.101Z</time></trkpt><trkpt lat="44.3079541" lon="7.1771157"><ele>889.0</ele><time>2026-05-03T13:51:08.101Z</time></trkpt><trkpt lat="44.3079808" lon="7.177236"><ele>889.0</ele><time>2026-05-03T13:51:09.101Z</time></trkpt><trkpt lat="44.3079978" lon="7.1773487"><ele>889.0000000000001</ele><time>2026-05-03T13:51:10.1Z</time></trkpt><trkpt lat="44.3080307" lon="7.1774812"><ele>889.0000000000001</ele><time>2026-05-03T13:51:11.101Z</time></trkpt><trkpt lat="44.3080563" lon="7.1776148"><ele>889.0</ele><time>2026-05-03T13:51:12.101Z</time></trkpt><trkpt lat="44.3080784" lon="7.1777612"><ele>889.0</ele><time>2026-05-03T13:51:13.101Z</time></trkpt><trkpt lat="44.3081172" lon="7.1779055"><ele>888.2</ele><time>2026-05-03T13:51:14.101Z</time></trkpt><trkpt lat="44.3081625" lon="7.1780574"><ele>887.4000000000001</ele><time>2026-05-03T13:51:15.101Z</time></trkpt><trkpt lat="44.3082013" lon="7.178204"><ele>886.6</ele><time>2026-05-03T13:51:16.101Z</time></trkpt><trkpt lat="44.3082385" lon="7.1783445"><ele>885.8</ele><time>2026-05-03T13:51:17.101Z</time></trkpt><trkpt lat="44.3082811" lon="7.1784867"><ele>885.0</ele><time>2026-05-03T13:51:18.101Z</time></trkpt><trkpt lat="44.3083176" lon="7.1786148"><ele>883.6</ele><time>2026-05-03T13:51:19.1Z</time></trkpt><trkpt lat="44.3083449" lon="7.1787506"><ele>882.2</ele><time>2026-05-03T13:51:20.101Z</time></trkpt><trkpt lat="44.3083875" lon="7.1788829"><ele>880.8</ele><time>2026-05-03T13:51:21.101Z</time></trkpt><trkpt lat="44.3084141" lon="7.179006"><ele>879.4</ele><time>2026-05-03T13:51:22.101Z</time></trkpt><trkpt lat="44.3084445" lon="7.1791488"><ele>878.0</ele><time>2026-05-03T13:51:23.1Z</time></trkpt><trkpt lat="44.308488" lon="7.1793061"><ele>877.0</ele><time>2026-05-03T13:51:24.101Z</time></trkpt><trkpt lat="44.3085216" lon="7.1794472"><ele>876.0</ele><time>2026-05-03T13:51:25.101Z</time></trkpt><trkpt lat="44.3085662" lon="7.1796173"><ele>875.0</ele><time>2026-05-03T13:51:26.101Z</time></trkpt><trkpt lat="44.3085909" lon="7.1797233"><ele>874.0</ele><time>2026-05-03T13:51:27.101Z</time></trkpt><trkpt lat="44.3086392" lon="7.1798441"><ele>873.0</ele><time>2026-05-03T13:51:28.101Z</time></trkpt><trkpt lat="44.3087165" lon="7.1799671"><ele>874.0</ele><time>2026-05-03T13:51:29.101Z</time></trkpt><trkpt lat="44.3088035" lon="7.1800784"><ele>875.0</ele><time>2026-05-03T13:51:30.101Z</time></trkpt><trkpt lat="44.308894" lon="7.180177"><ele>876.0</ele><time>2026-05-03T13:51:31.101Z</time></trkpt><trkpt lat="44.3089941" lon="7.1803498"><ele>877.0</ele><time>2026-05-03T13:51:32.101Z</time></trkpt><trkpt lat="44.3090775" lon="7.1805241"><ele>874.6666666666666</ele><time>2026-05-03T13:51:33.101Z</time></trkpt><trkpt lat="44.3091643" lon="7.1806951"><ele>872.3333333333333</ele><time>2026-05-03T13:51:34.101Z</time></trkpt><trkpt lat="44.3092136" lon="7.1809105"><ele>870.0</ele><time>2026-05-03T13:51:35.101Z</time></trkpt><trkpt lat="44.3092489" lon="7.1811283"><ele>870.0</ele><time>2026-05-03T13:51:36.101Z</time></trkpt><trkpt lat="44.3092759" lon="7.1813351"><ele>870.0</ele><time>2026-05-03T13:51:37.101Z</time></trkpt><trkpt lat="44.3092988" lon="7.1815878"><ele>870.0</ele><time>2026-05-03T13:51:38.101Z</time></trkpt><trkpt lat="44.3093134" lon="7.1818243"><ele>867.3333333333333</ele><time>2026-05-03T13:51:39.101Z</time></trkpt><trkpt lat="44.3093296" lon="7.1820616"><ele>864.6666666666666</ele><time>2026-05-03T13:51:40.1Z</time></trkpt><trkpt lat="44.30934" lon="7.1822847"><ele>862.0</ele><time>2026-05-03T13:51:41.101Z</time></trkpt><trkpt lat="44.3093454" lon="7.1825075"><ele>858.3333333333333</ele><time>2026-05-03T13:51:42.101Z</time></trkpt><trkpt lat="44.3093248" lon="7.1827238"><ele>854.6666666666667</ele><time>2026-05-03T13:51:43.101Z</time></trkpt><trkpt lat="44.3092825" lon="7.1829413"><ele>851.0</ele><time>2026-05-03T13:51:44.101Z</time></trkpt><trkpt lat="44.3092122" lon="7.1831505"><ele>849.3333333333334</ele><time>2026-05-03T13:51:45.101Z</time></trkpt><trkpt lat="44.3091521" lon="7.1833571"><ele>847.6666666666667</ele><time>2026-05-03T13:51:46.101Z</time></trkpt><trkpt lat="44.3090841" lon="7.1835984"><ele>846.0</ele><time>2026-05-03T13:51:47.101Z</time></trkpt><trkpt lat="44.3090196" lon="7.1838179"><ele>845.6666666666667</ele><time>2026-05-03T13:51:48.101Z</time></trkpt><trkpt lat="44.3089553" lon="7.1840253"><ele>845.3333333333334</ele><time>2026-05-03T13:51:49.101Z</time></trkpt><trkpt lat="44.3088672" lon="7.1842196"><ele>845.0</ele><time>2026-05-03T13:51:50.101Z</time></trkpt><trkpt lat="44.3087567" lon="7.1843943"><ele>845.0</ele><time>2026-05-03T13:51:51.101Z</time></trkpt><trkpt lat="44.3086336" lon="7.1845723"><ele>845.0</ele><time>2026-05-03T13:51:52.101Z</time></trkpt><trkpt lat="44.3085037" lon="7.1847239"><ele>845.0</ele><time>2026-05-03T13:51:53.1Z</time></trkpt><trkpt lat="44.308382" lon="7.1848738"><ele>844.0</ele><time>2026-05-03T13:51:54.101Z</time></trkpt><trkpt lat="44.3082514" lon="7.1850306"><ele>843.0</ele><time>2026-05-03T13:51:55.101Z</time></trkpt><trkpt lat="44.3081183" lon="7.1851852"><ele>842.0</ele><time>2026-05-03T13:51:56.101Z</time></trkpt><trkpt lat="44.3079912" lon="7.1853449"><ele>841.6666666666667</ele><time>2026-05-03T13:51:57.101Z</time></trkpt><trkpt lat="44.3078551" lon="7.1854962"><ele>841.3333333333333</ele><time>2026-05-03T13:51:58.101Z</time></trkpt><trkpt lat="44.307725" lon="7.185643"><ele>841.0</ele><time>2026-05-03T13:51:59.101Z</time></trkpt><trkpt lat="44.3075846" lon="7.1857862"><ele>842.0</ele><time>2026-05-03T13:52:00.101Z</time></trkpt><trkpt lat="44.307436" lon="7.1859302"><ele>843.0</ele><time>2026-05-03T13:52:01.101Z</time></trkpt><trkpt lat="44.3072969" lon="7.1860873"><ele>844.0</ele><time>2026-05-03T13:52:02.101Z</time></trkpt><trkpt lat="44.3071787" lon="7.1862751"><ele>844.0</ele><time>2026-05-03T13:52:03.101Z</time></trkpt><trkpt lat="44.3070697" lon="7.1864684"><ele>844.0</ele><time>2026-05-03T13:52:04.101Z</time></trkpt><trkpt lat="44.3069819" lon="7.1866771"><ele>844.0</ele><time>2026-05-03T13:52:05.1Z</time></trkpt><trkpt lat="44.3068948" lon="7.1868762"><ele>843.75</ele><time>2026-05-03T13:52:06.101Z</time></trkpt><trkpt lat="44.3068132" lon="7.187054"><ele>843.5</ele><time>2026-05-03T13:52:07.101Z</time></trkpt><trkpt lat="44.3067343" lon="7.1872231"><ele>843.25</ele><time>2026-05-03T13:52:08.1Z</time></trkpt><trkpt lat="44.3066637" lon="7.1873846"><ele>843.0</ele><time>2026-05-03T13:52:09.101Z</time></trkpt><trkpt lat="44.3065999" lon="7.1875474"><ele>843.0</ele><time>2026-05-03T13:52:10.101Z</time></trkpt><trkpt lat="44.3065255" lon="7.1876841"><ele>843.0</ele><time>2026-05-03T13:52:11.101Z</time></trkpt><trkpt lat="44.3064514" lon="7.1878252"><ele>843.0</ele><time>2026-05-03T13:52:12.101Z</time></trkpt><trkpt lat="44.3063824" lon="7.1879535"><ele>843.0</ele><time>2026-05-03T13:52:13.101Z</time></trkpt><trkpt lat="44.3063157" lon="7.188061"><ele>843.0</ele><time>2026-05-03T13:52:14.101Z</time></trkpt><trkpt lat="44.3062498" lon="7.188191"><ele>843.0</ele><time>2026-05-03T13:52:15.101Z</time></trkpt><trkpt lat="44.3061897" lon="7.1883259"><ele>843.0</ele><time>2026-05-03T13:52:16.101Z</time></trkpt><trkpt lat="44.3061459" lon="7.1884414"><ele>843.0</ele><time>2026-05-03T13:52:17.101Z</time></trkpt><trkpt lat="44.3060871" lon="7.1885603"><ele>843.0</ele><time>2026-05-03T13:52:18.101Z</time></trkpt><trkpt lat="44.3060202" lon="7.1886821"><ele>843.0</ele><time>2026-05-03T13:52:19.101Z</time></trkpt><trkpt lat="44.305958" lon="7.1888112"><ele>843.0</ele><time>2026-05-03T13:52:20.101Z</time></trkpt><trkpt lat="44.3058839" lon="7.1889225"><ele>843.0</ele><time>2026-05-03T13:52:21.101Z</time></trkpt><trkpt lat="44.3058178" lon="7.1890523"><ele>843.0</ele><time>2026-05-03T13:52:22.101Z</time></trkpt><trkpt lat="44.3057562" lon="7.1892029"><ele>843.0</ele><time>2026-05-03T13:52:23.101Z</time></trkpt><trkpt lat="44.3057013" lon="7.1893615"><ele>843.0</ele><time>2026-05-03T13:52:24.101Z</time></trkpt><trkpt lat="44.3056598" lon="7.1895311"><ele>843.0</ele><time>2026-05-03T13:52:25.101Z</time></trkpt><trkpt lat="44.3056347" lon="7.1897197"><ele>843.0</ele><time>2026-05-03T13:52:26.101Z</time></trkpt><trkpt lat="44.3056436" lon="7.1899187"><ele>842.5</ele><time>2026-05-03T13:52:27.101Z</time></trkpt><trkpt lat="44.3056908" lon="7.1901232"><ele>842.0</ele><time>2026-05-03T13:52:28.101Z</time></trkpt><trkpt lat="44.3057161" lon="7.1903095"><ele>841.5</ele><time>2026-05-03T13:52:29.101Z</time></trkpt><trkpt lat="44.3057499" lon="7.1905043"><ele>841.0</ele><time>2026-05-03T13:52:30.101Z</time></trkpt><trkpt lat="44.3057975" lon="7.1906739"><ele>841.3333333333333</ele><time>2026-05-03T13:52:31.101Z</time></trkpt><trkpt lat="44.3058312" lon="7.1908537"><ele>841.6666666666667</ele><time>2026-05-03T13:52:32.1Z</time></trkpt><trkpt lat="44.3058941" lon="7.1910752"><ele>842.0</ele><time>2026-05-03T13:52:33.101Z</time></trkpt><trkpt lat="44.305939" lon="7.1913044"><ele>840.6666666666667</ele><time>2026-05-03T13:52:34.1Z</time></trkpt><trkpt lat="44.3059744" lon="7.1915304"><ele>839.3333333333333</ele><time>2026-05-03T13:52:35.101Z</time></trkpt><trkpt lat="44.3060035" lon="7.1917439"><ele>838.0</ele><time>2026-05-03T13:52:36.1Z</time></trkpt><trkpt lat="44.3060102" lon="7.191955"><ele>838.0</ele><time>2026-05-03T13:52:37.101Z</time></trkpt><trkpt lat="44.3059947" lon="7.1921567"><ele>838.0</ele><time>2026-05-03T13:52:38.101Z</time></trkpt><trkpt lat="44.3059491" lon="7.1923553"><ele>838.0</ele><time>2026-05-03T13:52:39.101Z</time></trkpt><trkpt lat="44.305893" lon="7.1925481"><ele>838.0</ele><time>2026-05-03T13:52:40.101Z</time></trkpt><trkpt lat="44.3058362" lon="7.1927551"><ele>837.6666666666666</ele><time>2026-05-03T13:52:41.101Z</time></trkpt><trkpt lat="44.30577" lon="7.1929808"><ele>837.3333333333333</ele><time>2026-05-03T13:52:42.101Z</time></trkpt><trkpt lat="44.3056965" lon="7.193211"><ele>837.0</ele><time>2026-05-03T13:52:43.1Z</time></trkpt><trkpt lat="44.3056214" lon="7.1934487"><ele>839.3333333333333</ele><time>2026-05-03T13:52:44.101Z</time></trkpt><trkpt lat="44.3055448" lon="7.1936634"><ele>841.6666666666666</ele><time>2026-05-03T13:52:45.101Z</time></trkpt><trkpt lat="44.3054672" lon="7.1938926"><ele>844.0</ele><time>2026-05-03T13:52:46.101Z</time></trkpt><trkpt lat="44.3053914" lon="7.1941381"><ele>844.0</ele><time>2026-05-03T13:52:47.101Z</time></trkpt><trkpt lat="44.3053254" lon="7.1943416"><ele>844.0</ele><time>2026-05-03T13:52:48.101Z</time></trkpt><trkpt lat="44.3052631" lon="7.1945562"><ele>844.0</ele><time>2026-05-03T13:52:49.1Z</time></trkpt><trkpt lat="44.3052033" lon="7.194747"><ele>842.25</ele><time>2026-05-03T13:52:50.1Z</time></trkpt><trkpt lat="44.3051403" lon="7.1949324"><ele>840.5</ele><time>2026-05-03T13:52:51.1Z</time></trkpt><trkpt lat="44.3050816" lon="7.1951312"><ele>838.75</ele><time>2026-05-03T13:52:52.1Z</time></trkpt><trkpt lat="44.3050201" lon="7.1953187"><ele>837.0</ele><time>2026-05-03T13:52:53.101Z</time></trkpt><trkpt lat="44.3049707" lon="7.1955152"><ele>835.75</ele><time>2026-05-03T13:52:54.101Z</time></trkpt><trkpt lat="44.304918" lon="7.1956969"><ele>834.5</ele><time>2026-05-03T13:52:55.101Z</time></trkpt><trkpt lat="44.304865" lon="7.1958793"><ele>833.25</ele><time>2026-05-03T13:52:56.101Z</time></trkpt><trkpt lat="44.3048388" lon="7.1960835"><ele>832.0</ele><time>2026-05-03T13:52:57.101Z</time></trkpt><trkpt lat="44.3048115" lon="7.1962927"><ele>832.0</ele><time>2026-05-03T13:52:58.101Z</time></trkpt><trkpt lat="44.3048011" lon="7.1964914"><ele>832.0</ele><time>2026-05-03T13:52:59.101Z</time></trkpt><trkpt lat="44.304793" lon="7.196679"><ele>832.0</ele><time>2026-05-03T13:53:00.101Z</time></trkpt><trkpt lat="44.3047758" lon="7.1968509"><ele>832.0</ele><time>2026-05-03T13:53:01.101Z</time></trkpt><trkpt lat="44.3047566" lon="7.1970143"><ele>832.0</ele><time>2026-05-03T13:53:02.101Z</time></trkpt><trkpt lat="44.3047509" lon="7.1971789"><ele>832.0</ele><time>2026-05-03T13:53:03.101Z</time></trkpt><trkpt lat="44.3047627" lon="7.1973614"><ele>832.0</ele><time>2026-05-03T13:53:04.101Z</time></trkpt><trkpt lat="44.3048131" lon="7.1975742"><ele>832.0</ele><time>2026-05-03T13:53:05.1Z</time></trkpt><trkpt lat="44.3048512" lon="7.1977763"><ele>832.0</ele><time>2026-05-03T13:53:06.101Z</time></trkpt><trkpt lat="44.3048901" lon="7.1979664"><ele>832.0</ele><time>2026-05-03T13:53:07.101Z</time></trkpt><trkpt lat="44.3049654" lon="7.1981813"><ele>832.0</ele><time>2026-05-03T13:53:08.101Z</time></trkpt><trkpt lat="44.3050247" lon="7.1983758"><ele>832.0</ele><time>2026-05-03T13:53:09.1Z</time></trkpt><trkpt lat="44.3050809" lon="7.1985701"><ele>832.0</ele><time>2026-05-03T13:53:10.101Z</time></trkpt><trkpt lat="44.3051475" lon="7.1987576"><ele>832.0</ele><time>2026-05-03T13:53:11.101Z</time></trkpt><trkpt lat="44.3051879" lon="7.1989573"><ele>832.0</ele><time>2026-05-03T13:53:12.101Z</time></trkpt><trkpt lat="44.3052051" lon="7.1992007"><ele>832.0</ele><time>2026-05-03T13:53:13.101Z</time></trkpt><trkpt lat="44.3052083" lon="7.1994433"><ele>832.0</ele><time>2026-05-03T13:53:14.101Z</time></trkpt><trkpt lat="44.3052091" lon="7.1996834"><ele>832.0</ele><time>2026-05-03T13:53:15.101Z</time></trkpt><trkpt lat="44.3051916" lon="7.1999437"><ele>831.0</ele><time>2026-05-03T13:53:16.101Z</time></trkpt><trkpt lat="44.3051847" lon="7.2002107"><ele>830.0</ele><time>2026-05-03T13:53:17.101Z</time></trkpt><trkpt lat="44.3051889" lon="7.2004785"><ele>829.0</ele><time>2026-05-03T13:53:18.101Z</time></trkpt><trkpt lat="44.3052188" lon="7.200735"><ele>829.0</ele><time>2026-05-03T13:53:19.101Z</time></trkpt><trkpt lat="44.3052546" lon="7.2010002"><ele>829.0</ele><time>2026-05-03T13:53:20.101Z</time></trkpt><trkpt lat="44.3052812" lon="7.2012201"><ele>829.0</ele><time>2026-05-03T13:53:21.101Z</time></trkpt><trkpt lat="44.3052937" lon="7.2014431"><ele>829.0</ele><time>2026-05-03T13:53:22.1Z</time></trkpt><trkpt lat="44.305296" lon="7.2016648"><ele>829.0</ele><time>2026-05-03T13:53:23.101Z</time></trkpt><trkpt lat="44.3052607" lon="7.2018984"><ele>829.0</ele><time>2026-05-03T13:53:24.1Z</time></trkpt><trkpt lat="44.3052068" lon="7.2021398"><ele>828.3333333333333</ele><time>2026-05-03T13:53:25.1Z</time></trkpt><trkpt lat="44.3051788" lon="7.2023869"><ele>827.6666666666667</ele><time>2026-05-03T13:53:26.101Z</time></trkpt><trkpt lat="44.3051922" lon="7.2026413"><ele>827.0</ele><time>2026-05-03T13:53:27.101Z</time></trkpt><trkpt lat="44.305213" lon="7.2028975"><ele>827.0</ele><time>2026-05-03T13:53:28.1Z</time></trkpt><trkpt lat="44.3052739" lon="7.2031598"><ele>827.0</ele><time>2026-05-03T13:53:29.1Z</time></trkpt><trkpt lat="44.3053318" lon="7.2034153"><ele>827.0</ele><time>2026-05-03T13:53:30.1Z</time></trkpt><trkpt lat="44.3053755" lon="7.2036636"><ele>828.3333333333334</ele><time>2026-05-03T13:53:31.101Z</time></trkpt><trkpt lat="44.305405" lon="7.2039088"><ele>829.6666666666667</ele><time>2026-05-03T13:53:32.101Z</time></trkpt><trkpt lat="44.3054242" lon="7.2041573"><ele>831.0</ele><time>2026-05-03T13:53:33.101Z</time></trkpt><trkpt lat="44.3054542" lon="7.2043917"><ele>831.3333333333333</ele><time>2026-05-03T13:53:34.101Z</time></trkpt><trkpt lat="44.3054827" lon="7.204632"><ele>831.6666666666666</ele><time>2026-05-03T13:53:35.101Z</time></trkpt><trkpt lat="44.3055547" lon="7.2048463"><ele>832.0</ele><time>2026-05-03T13:53:36.101Z</time></trkpt><trkpt lat="44.3056578" lon="7.2050588"><ele>832.3333333333333</ele><time>2026-05-03T13:53:37.101Z</time></trkpt><trkpt lat="44.3057667" lon="7.2052725"><ele>832.6666666666667</ele><time>2026-05-03T13:53:38.101Z</time></trkpt><trkpt lat="44.3059135" lon="7.2054798"><ele>833.0</ele><time>2026-05-03T13:53:39.101Z</time></trkpt><trkpt lat="44.3060656" lon="7.2056791"><ele>833.0</ele><time>2026-05-03T13:53:40.1Z</time></trkpt><trkpt lat="44.3062124" lon="7.2058577"><ele>833.0</ele><time>2026-05-03T13:53:41.101Z</time></trkpt><trkpt lat="44.3063513" lon="7.206033"><ele>833.0</ele><time>2026-05-03T13:53:42.101Z</time></trkpt><trkpt lat="44.3064468" lon="7.2061758"><ele>831.6666666666667</ele><time>2026-05-03T13:53:43.101Z</time></trkpt><trkpt lat="44.3065197" lon="7.2063278"><ele>830.3333333333333</ele><time>2026-05-03T13:53:44.101Z</time></trkpt><trkpt lat="44.306589" lon="7.2064985"><ele>829.0</ele><time>2026-05-03T13:53:45.101Z</time></trkpt><trkpt lat="44.3066028" lon="7.2067484"><ele>829.0</ele><time>2026-05-03T13:53:46.101Z</time></trkpt><trkpt lat="44.3066407" lon="7.2069819"><ele>829.0</ele><time>2026-05-03T13:53:47.101Z</time></trkpt><trkpt lat="44.3066795" lon="7.2072273"><ele>829.0</ele><time>2026-05-03T13:53:48.101Z</time></trkpt><trkpt lat="44.3067188" lon="7.2074596"><ele>830.0</ele><time>2026-05-03T13:53:49.101Z</time></trkpt><trkpt lat="44.3067582" lon="7.207716"><ele>831.0</ele><time>2026-05-03T13:53:50.101Z</time></trkpt><trkpt lat="44.3067959" lon="7.2079574"><ele>832.0</ele><time>2026-05-03T13:53:51.1Z</time></trkpt><trkpt lat="44.306841" lon="7.2081998"><ele>833.3333333333333</ele><time>2026-05-03T13:53:52.101Z</time></trkpt><trkpt lat="44.3068657" lon="7.2084525"><ele>834.6666666666667</ele><time>2026-05-03T13:53:53.101Z</time></trkpt><trkpt lat="44.3068878" lon="7.208704"><ele>836.0</ele><time>2026-05-03T13:53:54.101Z</time></trkpt><trkpt lat="44.3069033" lon="7.2089774"><ele>835.3333333333334</ele><time>2026-05-03T13:53:55.101Z</time></trkpt><trkpt lat="44.3069149" lon="7.2092413"><ele>834.6666666666667</ele><time>2026-05-03T13:53:56.1Z</time></trkpt><trkpt lat="44.3069203" lon="7.2094903"><ele>834.0</ele><time>2026-05-03T13:53:57.1Z</time></trkpt><trkpt lat="44.3069302" lon="7.2097389"><ele>834.0</ele><time>2026-05-03T13:53:58.101Z</time></trkpt><trkpt lat="44.3069486" lon="7.2099906"><ele>834.0</ele><time>2026-05-03T13:53:59.101Z</time></trkpt><trkpt lat="44.3069526" lon="7.2102442"><ele>834.0</ele><time>2026-05-03T13:54:00.101Z</time></trkpt><trkpt lat="44.306953" lon="7.2105138"><ele>833.6666666666667</ele><time>2026-05-03T13:54:01.101Z</time></trkpt><trkpt lat="44.306946" lon="7.2107827"><ele>833.3333333333334</ele><time>2026-05-03T13:54:02.101Z</time></trkpt><trkpt lat="44.3069459" lon="7.2110689"><ele>833.0</ele><time>2026-05-03T13:54:03.101Z</time></trkpt><trkpt lat="44.306949" lon="7.2113784"><ele>831.0</ele><time>2026-05-03T13:54:04.1Z</time></trkpt><trkpt lat="44.3069438" lon="7.2116812"><ele>829.0</ele><time>2026-05-03T13:54:05.101Z</time></trkpt><trkpt lat="44.3069474" lon="7.2119996"><ele>827.0</ele><time>2026-05-03T13:54:06.1Z</time></trkpt><trkpt lat="44.3069795" lon="7.2123369"><ele>824.5</ele><time>2026-05-03T13:54:07.101Z</time></trkpt><trkpt lat="44.3069955" lon="7.2126749"><ele>822.0</ele><time>2026-05-03T13:54:08.101Z</time></trkpt><trkpt lat="44.3070136" lon="7.2130079"><ele>821.0</ele><time>2026-05-03T13:54:09.101Z</time></trkpt><trkpt lat="44.3070152" lon="7.2133534"><ele>820.0</ele><time>2026-05-03T13:54:10.1Z</time></trkpt><trkpt lat="44.3070284" lon="7.2136831"><ele>818.0</ele><time>2026-05-03T13:54:11.1Z</time></trkpt><trkpt lat="44.3070426" lon="7.2140235"><ele>816.0</ele><time>2026-05-03T13:54:12.101Z</time></trkpt><trkpt lat="44.3070594" lon="7.2143694"><ele>816.0</ele><time>2026-05-03T13:54:13.101Z</time></trkpt><trkpt lat="44.3070743" lon="7.2147123"><ele>816.0</ele><time>2026-05-03T13:54:14.101Z</time></trkpt><trkpt lat="44.3071305" lon="7.2150191"><ele>814.0</ele><time>2026-05-03T13:54:15.101Z</time></trkpt><trkpt lat="44.3071413" lon="7.2153699"><ele>812.0</ele><time>2026-05-03T13:54:16.101Z</time></trkpt><trkpt lat="44.3071446" lon="7.2157108"><ele>811.0</ele><time>2026-05-03T13:54:17.101Z</time></trkpt><trkpt lat="44.3071375" lon="7.2160489"><ele>810.0</ele><time>2026-05-03T13:54:18.101Z</time></trkpt><trkpt lat="44.3071319" lon="7.216393"><ele>809.5</ele><time>2026-05-03T13:54:19.101Z</time></trkpt><trkpt lat="44.3071377" lon="7.2167421"><ele>809.0</ele><time>2026-05-03T13:54:20.101Z</time></trkpt><trkpt lat="44.3071366" lon="7.2170897"><ele>809.0</ele><time>2026-05-03T13:54:21.101Z</time></trkpt><trkpt lat="44.3071372" lon="7.2174328"><ele>809.0</ele><time>2026-05-03T13:54:22.101Z</time></trkpt><trkpt lat="44.3071333" lon="7.2177791"><ele>809.0</ele><time>2026-05-03T13:54:23.1Z</time></trkpt><trkpt lat="44.307139" lon="7.2181205"><ele>809.0</ele><time>2026-05-03T13:54:24.101Z</time></trkpt><trkpt lat="44.3071394" lon="7.2184654"><ele>809.5</ele><time>2026-05-03T13:54:25.1Z</time></trkpt><trkpt lat="44.3071357" lon="7.2188079"><ele>810.0</ele><time>2026-05-03T13:54:26.101Z</time></trkpt><trkpt lat="44.3071301" lon="7.219148"><ele>811.3333333333333</ele><time>2026-05-03T13:54:27.1Z</time></trkpt><trkpt lat="44.3071292" lon="7.2194595"><ele>812.6666666666666</ele><time>2026-05-03T13:54:28.101Z</time></trkpt><trkpt lat="44.3071275" lon="7.2197657"><ele>814.0</ele><time>2026-05-03T13:54:29.101Z</time></trkpt><trkpt lat="44.307128" lon="7.2200479"><ele>815.0</ele><time>2026-05-03T13:54:30.101Z</time></trkpt><trkpt lat="44.3071308" lon="7.2203057"><ele>816.0</ele><time>2026-05-03T13:54:31.101Z</time></trkpt><trkpt lat="44.3071318" lon="7.220553"><ele>817.0</ele><time>2026-05-03T13:54:32.101Z</time></trkpt><trkpt lat="44.3071395" lon="7.2208004"><ele>817.0</ele><time>2026-05-03T13:54:33.101Z</time></trkpt><trkpt lat="44.3071505" lon="7.2210424"><ele>817.0</ele><time>2026-05-03T13:54:34.101Z</time></trkpt><trkpt lat="44.3071617" lon="7.2212604"><ele>817.0</ele><time>2026-05-03T13:54:35.101Z</time></trkpt><trkpt lat="44.3071877" lon="7.2214578"><ele>817.25</ele><time>2026-05-03T13:54:36.101Z</time></trkpt><trkpt lat="44.3072146" lon="7.2216562"><ele>817.5</ele><time>2026-05-03T13:54:37.101Z</time></trkpt><trkpt lat="44.3072372" lon="7.2218642"><ele>817.75</ele><time>2026-05-03T13:54:38.101Z</time></trkpt><trkpt lat="44.3072583" lon="7.2220702"><ele>818.0</ele><time>2026-05-03T13:54:39.101Z</time></trkpt><trkpt lat="44.3072939" lon="7.2223128"><ele>814.6666666666667</ele><time>2026-05-03T13:54:40.101Z</time></trkpt><trkpt lat="44.3073242" lon="7.2225582"><ele>811.3333333333333</ele><time>2026-05-03T13:54:41.101Z</time></trkpt><trkpt lat="44.3073537" lon="7.2228174"><ele>808.0</ele><time>2026-05-03T13:54:42.101Z</time></trkpt><trkpt lat="44.3073896" lon="7.2230889"><ele>808.6666666666666</ele><time>2026-05-03T13:54:43.1Z</time></trkpt><trkpt lat="44.3074239" lon="7.2233701"><ele>809.3333333333333</ele><time>2026-05-03T13:54:44.101Z</time></trkpt><trkpt lat="44.3074563" lon="7.2236478"><ele>810.0</ele><time>2026-05-03T13:54:45.101Z</time></trkpt><trkpt lat="44.3074776" lon="7.2239278"><ele>809.6666666666667</ele><time>2026-05-03T13:54:46.101Z</time></trkpt><trkpt lat="44.3074694" lon="7.2242082"><ele>809.3333333333334</ele><time>2026-05-03T13:54:47.101Z</time></trkpt><trkpt lat="44.3074483" lon="7.2244938"><ele>809.0</ele><time>2026-05-03T13:54:48.101Z</time></trkpt><trkpt lat="44.3074239" lon="7.224792"><ele>808.3333333333334</ele><time>2026-05-03T13:54:49.101Z</time></trkpt><trkpt lat="44.3074015" lon="7.2250896"><ele>807.6666666666667</ele><time>2026-05-03T13:54:50.1Z</time></trkpt><trkpt lat="44.3073823" lon="7.2253862"><ele>807.0</ele><time>2026-05-03T13:54:51.101Z</time></trkpt><trkpt lat="44.3073656" lon="7.225695"><ele>805.0</ele><time>2026-05-03T13:54:52.101Z</time></trkpt><trkpt lat="44.3073395" lon="7.2260064"><ele>803.0</ele><time>2026-05-03T13:54:53.101Z</time></trkpt><trkpt lat="44.3073213" lon="7.2263246"><ele>802.5</ele><time>2026-05-03T13:54:54.101Z</time></trkpt><trkpt lat="44.3073127" lon="7.2266488"><ele>802.0</ele><time>2026-05-03T13:54:55.101Z</time></trkpt><trkpt lat="44.3072807" lon="7.2269596"><ele>802.0</ele><time>2026-05-03T13:54:56.101Z</time></trkpt><trkpt lat="44.3072688" lon="7.2272765"><ele>802.0</ele><time>2026-05-03T13:54:57.1Z</time></trkpt><trkpt lat="44.3072427" lon="7.2276077"><ele>802.5</ele><time>2026-05-03T13:54:58.1Z</time></trkpt><trkpt lat="44.3072147" lon="7.2279309"><ele>803.0</ele><time>2026-05-03T13:54:59.101Z</time></trkpt><trkpt lat="44.3071927" lon="7.2282518"><ele>801.0</ele><time>2026-05-03T13:55:00.101Z</time></trkpt><trkpt lat="44.3071853" lon="7.2285895"><ele>799.0</ele><time>2026-05-03T13:55:01.1Z</time></trkpt><trkpt lat="44.3071442" lon="7.228908"><ele>798.5</ele><time>2026-05-03T13:55:02.101Z</time></trkpt><trkpt lat="44.3071214" lon="7.2292315"><ele>798.0</ele><time>2026-05-03T13:55:03.101Z</time></trkpt><trkpt lat="44.3071059" lon="7.229548"><ele>797.6666666666667</ele><time>2026-05-03T13:55:04.101Z</time></trkpt><trkpt lat="44.307074" lon="7.2298566"><ele>797.3333333333334</ele><time>2026-05-03T13:55:05.101Z</time></trkpt><trkpt lat="44.3070455" lon="7.230159"><ele>797.0</ele><time>2026-05-03T13:55:06.101Z</time></trkpt><trkpt lat="44.3070306" lon="7.2304492"><ele>796.6666666666667</ele><time>2026-05-03T13:55:07.101Z</time></trkpt><trkpt lat="44.3070059" lon="7.2307186"><ele>796.3333333333333</ele><time>2026-05-03T13:55:08.101Z</time></trkpt><trkpt lat="44.306992" lon="7.2309812"><ele>796.0</ele><time>2026-05-03T13:55:09.101Z</time></trkpt><trkpt lat="44.3069887" lon="7.2312228"><ele>796.0</ele><time>2026-05-03T13:55:10.1Z</time></trkpt><trkpt lat="44.3069962" lon="7.231469"><ele>796.0</ele><time>2026-05-03T13:55:11.101Z</time></trkpt><trkpt lat="44.3070319" lon="7.2317112"><ele>796.0</ele><time>2026-05-03T13:55:12.101Z</time></trkpt><trkpt lat="44.3071022" lon="7.2319599"><ele>796.0</ele><time>2026-05-03T13:55:13.1Z</time></trkpt><trkpt lat="44.3071864" lon="7.2322156"><ele>796.0</ele><time>2026-05-03T13:55:14.101Z</time></trkpt><trkpt lat="44.3073059" lon="7.232469"><ele>796.0</ele><time>2026-05-03T13:55:15.101Z</time></trkpt><trkpt lat="44.3074097" lon="7.2327276"><ele>796.3333333333333</ele><time>2026-05-03T13:55:16.101Z</time></trkpt><trkpt lat="44.3075202" lon="7.2329892"><ele>796.6666666666667</ele><time>2026-05-03T13:55:17.1Z</time></trkpt><trkpt lat="44.3076278" lon="7.2332554"><ele>797.0</ele><time>2026-05-03T13:55:18.101Z</time></trkpt><trkpt lat="44.3077203" lon="7.2335035"><ele>797.0</ele><time>2026-05-03T13:55:19.101Z</time></trkpt><trkpt lat="44.307804" lon="7.2337287"><ele>797.0</ele><time>2026-05-03T13:55:20.101Z</time></trkpt><trkpt lat="44.3078831" lon="7.2339728"><ele>797.0</ele><time>2026-05-03T13:55:21.1Z</time></trkpt><trkpt lat="44.307959" lon="7.2342026"><ele>798.0</ele><time>2026-05-03T13:55:22.101Z</time></trkpt><trkpt lat="44.3079995" lon="7.2344848"><ele>799.0</ele><time>2026-05-03T13:55:23.101Z</time></trkpt><trkpt lat="44.3080213" lon="7.2347708"><ele>800.0</ele><time>2026-05-03T13:55:24.101Z</time></trkpt><trkpt lat="44.3080317" lon="7.235049"><ele>801.0</ele><time>2026-05-03T13:55:25.101Z</time></trkpt><trkpt lat="44.308021" lon="7.2353713"><ele>802.0</ele><time>2026-05-03T13:55:26.1Z</time></trkpt><trkpt lat="44.3080063" lon="7.2356901"><ele>806.0</ele><time>2026-05-03T13:55:27.101Z</time></trkpt><trkpt lat="44.3080064" lon="7.2360019"><ele>810.0</ele><time>2026-05-03T13:55:28.101Z</time></trkpt><trkpt lat="44.3080141" lon="7.2363304"><ele>814.0</ele><time>2026-05-03T13:55:29.101Z</time></trkpt><trkpt lat="44.3080097" lon="7.2365914"><ele>818.0</ele><time>2026-05-03T13:55:30.1Z</time></trkpt><trkpt lat="44.3080103" lon="7.2368652"><ele>822.0</ele><time>2026-05-03T13:55:31.101Z</time></trkpt><trkpt lat="44.3080045" lon="7.2371363"><ele>826.3333333333333</ele><time>2026-05-03T13:55:32.101Z</time></trkpt><trkpt lat="44.3080179" lon="7.2373953"><ele>830.6666666666666</ele><time>2026-05-03T13:55:33.101Z</time></trkpt><trkpt lat="44.3080615" lon="7.2376486"><ele>835.0</ele><time>2026-05-03T13:55:34.101Z</time></trkpt><trkpt lat="44.3081809" lon="7.2379429"><ele>826.6666666666666</ele><time>2026-05-03T13:55:35.101Z</time></trkpt><trkpt lat="44.308285" lon="7.2382176"><ele>818.3333333333333</ele><time>2026-05-03T13:55:36.1Z</time></trkpt><trkpt lat="44.308375" lon="7.2384863"><ele>810.0</ele><time>2026-05-03T13:55:37.1Z</time></trkpt><trkpt lat="44.3084655" lon="7.2387396"><ele>813.3333333333333</ele><time>2026-05-03T13:55:38.101Z</time></trkpt><trkpt lat="44.3085485" lon="7.2389789"><ele>816.6666666666666</ele><time>2026-05-03T13:55:39.101Z</time></trkpt><trkpt lat="44.3086254" lon="7.2392048"><ele>820.0</ele><time>2026-05-03T13:55:40.101Z</time></trkpt><trkpt lat="44.3086838" lon="7.2394085"><ele>820.0</ele><time>2026-05-03T13:55:41.101Z</time></trkpt><trkpt lat="44.3087451" lon="7.2396146"><ele>820.0</ele><time>2026-05-03T13:55:42.1Z</time></trkpt><trkpt lat="44.3088142" lon="7.2398234"><ele>820.0</ele><time>2026-05-03T13:55:43.101Z</time></trkpt><trkpt lat="44.3088927" lon="7.2400505"><ele>815.3333333333333</ele><time>2026-05-03T13:55:44.1Z</time></trkpt><trkpt lat="44.308962" lon="7.2402827"><ele>810.6666666666667</ele><time>2026-05-03T13:55:45.101Z</time></trkpt><trkpt lat="44.3090287" lon="7.2404933"><ele>806.0</ele><time>2026-05-03T13:55:46.101Z</time></trkpt><trkpt lat="44.3090918" lon="7.2407051"><ele>806.0</ele><time>2026-05-03T13:55:47.1Z</time></trkpt><trkpt lat="44.3091469" lon="7.2409098"><ele>806.0</ele><time>2026-05-03T13:55:48.101Z</time></trkpt><trkpt lat="44.3092025" lon="7.2411085"><ele>806.0</ele><time>2026-05-03T13:55:49.101Z</time></trkpt><trkpt lat="44.3092209" lon="7.2413185"><ele>806.3333333333334</ele><time>2026-05-03T13:55:50.101Z</time></trkpt><trkpt lat="44.3092082" lon="7.2415277"><ele>806.6666666666667</ele><time>2026-05-03T13:55:51.101Z</time></trkpt><trkpt lat="44.3091886" lon="7.2417374"><ele>807.0</ele><time>2026-05-03T13:55:52.101Z</time></trkpt><trkpt lat="44.3091437" lon="7.2419752"><ele>807.0</ele><time>2026-05-03T13:55:53.1Z</time></trkpt><trkpt lat="44.3091028" lon="7.2422093"><ele>807.0</ele><time>2026-05-03T13:55:54.101Z</time></trkpt><trkpt lat="44.3090414" lon="7.2425182"><ele>807.0</ele><time>2026-05-03T13:55:55.101Z</time></trkpt><trkpt lat="44.3089728" lon="7.2428095"><ele>809.0</ele><time>2026-05-03T13:55:56.101Z</time></trkpt><trkpt lat="44.3089001" lon="7.2430995"><ele>811.0</ele><time>2026-05-03T13:55:57.101Z</time></trkpt><trkpt lat="44.3088228" lon="7.2433721"><ele>813.0</ele><time>2026-05-03T13:55:58.101Z</time></trkpt><trkpt lat="44.3087514" lon="7.2436489"><ele>813.3333333333333</ele><time>2026-05-03T13:55:59.101Z</time></trkpt><trkpt lat="44.3086888" lon="7.243908"><ele>813.6666666666666</ele><time>2026-05-03T13:56:00.101Z</time></trkpt><trkpt lat="44.308633" lon="7.2441395"><ele>814.0</ele><time>2026-05-03T13:56:01.101Z</time></trkpt><trkpt lat="44.3085745" lon="7.2443532"><ele>813.5</ele><time>2026-05-03T13:56:02.1Z</time></trkpt><trkpt lat="44.3085325" lon="7.2445544"><ele>813.0</ele><time>2026-05-03T13:56:03.1Z</time></trkpt><trkpt lat="44.3084885" lon="7.2447425"><ele>812.5</ele><time>2026-05-03T13:56:04.101Z</time></trkpt><trkpt lat="44.3084459" lon="7.2449275"><ele>812.0</ele><time>2026-05-03T13:56:05.101Z</time></trkpt><trkpt lat="44.3083927" lon="7.2451273"><ele>811.75</ele><time>2026-05-03T13:56:06.101Z</time></trkpt><trkpt lat="44.3083389" lon="7.2453149"><ele>811.5</ele><time>2026-05-03T13:56:07.101Z</time></trkpt><trkpt lat="44.3082752" lon="7.245501"><ele>811.25</ele><time>2026-05-03T13:56:08.101Z</time></trkpt><trkpt lat="44.3082025" lon="7.2456783"><ele>811.0</ele><time>2026-05-03T13:56:09.1Z</time></trkpt><trkpt lat="44.3081297" lon="7.2458455"><ele>813.3333333333333</ele><time>2026-05-03T13:56:10.101Z</time></trkpt><trkpt lat="44.3080414" lon="7.2460352"><ele>815.6666666666667</ele><time>2026-05-03T13:56:11.101Z</time></trkpt><trkpt lat="44.3079781" lon="7.246226"><ele>818.0</ele><time>2026-05-03T13:56:12.101Z</time></trkpt><trkpt lat="44.3079094" lon="7.2464279"><ele>817.3333333333334</ele><time>2026-05-03T13:56:13.1Z</time></trkpt><trkpt lat="44.3078412" lon="7.2466367"><ele>816.6666666666667</ele><time>2026-05-03T13:56:14.1Z</time></trkpt><trkpt lat="44.3077808" lon="7.2468512"><ele>816.0</ele><time>2026-05-03T13:56:15.101Z</time></trkpt><trkpt lat="44.3077143" lon="7.2470631"><ele>816.0</ele><time>2026-05-03T13:56:16.101Z</time></trkpt><trkpt lat="44.3076589" lon="7.247291"><ele>816.0</ele><time>2026-05-03T13:56:17.101Z</time></trkpt><trkpt lat="44.307597" lon="7.2475162"><ele>816.0</ele><time>2026-05-03T13:56:18.1Z</time></trkpt><trkpt lat="44.3075483" lon="7.247744"><ele>815.0</ele><time>2026-05-03T13:56:19.101Z</time></trkpt><trkpt lat="44.3074962" lon="7.247964"><ele>814.0</ele><time>2026-05-03T13:56:20.101Z</time></trkpt><trkpt lat="44.3074877" lon="7.248199"><ele>813.0</ele><time>2026-05-03T13:56:21.101Z</time></trkpt><trkpt lat="44.3074835" lon="7.2484231"><ele>812.3333333333333</ele><time>2026-05-03T13:56:22.101Z</time></trkpt><trkpt lat="44.3074709" lon="7.2486473"><ele>811.6666666666666</ele><time>2026-05-03T13:56:23.101Z</time></trkpt><trkpt lat="44.3074515" lon="7.2488755"><ele>811.0</ele><time>2026-05-03T13:56:24.101Z</time></trkpt><trkpt lat="44.3074066" lon="7.249098"><ele>810.6666666666666</ele><time>2026-05-03T13:56:25.101Z</time></trkpt><trkpt lat="44.3073709" lon="7.249311"><ele>810.3333333333333</ele><time>2026-05-03T13:56:26.1Z</time></trkpt><trkpt lat="44.3073302" lon="7.249528"><ele>810.0</ele><time>2026-05-03T13:56:27.101Z</time></trkpt><trkpt lat="44.3072906" lon="7.2497449"><ele>810.6666666666667</ele><time>2026-05-03T13:56:28.101Z</time></trkpt><trkpt lat="44.3072547" lon="7.2499644"><ele>811.3333333333334</ele><time>2026-05-03T13:56:29.1Z</time></trkpt><trkpt lat="44.3072193" lon="7.2501744"><ele>812.0</ele><time>2026-05-03T13:56:30.101Z</time></trkpt><trkpt lat="44.307178" lon="7.2503815"><ele>811.6666666666667</ele><time>2026-05-03T13:56:31.101Z</time></trkpt><trkpt lat="44.307134" lon="7.2506175"><ele>811.3333333333333</ele><time>2026-05-03T13:56:32.101Z</time></trkpt><trkpt lat="44.3070926" lon="7.2508503"><ele>811.0</ele><time>2026-05-03T13:56:33.1Z</time></trkpt><trkpt lat="44.3070347" lon="7.2510942"><ele>811.0</ele><time>2026-05-03T13:56:34.1Z</time></trkpt><trkpt lat="44.3069906" lon="7.2513323"><ele>811.0</ele><time>2026-05-03T13:56:35.1Z</time></trkpt><trkpt lat="44.3069441" lon="7.2515677"><ele>811.0</ele><time>2026-05-03T13:56:36.101Z</time></trkpt><trkpt lat="44.3068935" lon="7.2518007"><ele>811.3333333333333</ele><time>2026-05-03T13:56:37.101Z</time></trkpt><trkpt lat="44.3068533" lon="7.2520332"><ele>811.6666666666667</ele><time>2026-05-03T13:56:38.1Z</time></trkpt><trkpt lat="44.3068158" lon="7.2522609"><ele>812.0</ele><time>2026-05-03T13:56:39.101Z</time></trkpt><trkpt lat="44.3067722" lon="7.2524862"><ele>812.0</ele><time>2026-05-03T13:56:40.101Z</time></trkpt><trkpt lat="44.3067365" lon="7.252714"><ele>812.0</ele><time>2026-05-03T13:56:41.101Z</time></trkpt><trkpt lat="44.3066906" lon="7.2529046"><ele>812.0</ele><time>2026-05-03T13:56:42.1Z</time></trkpt><trkpt lat="44.306651" lon="7.253094"><ele>811.25</ele><time>2026-05-03T13:56:43.1Z</time></trkpt><trkpt lat="44.3066269" lon="7.2532836"><ele>810.5</ele><time>2026-05-03T13:56:44.101Z</time></trkpt><trkpt lat="44.3066242" lon="7.2534568"><ele>809.75</ele><time>2026-05-03T13:56:45.101Z</time></trkpt><trkpt lat="44.3066522" lon="7.2536404"><ele>809.0</ele><time>2026-05-03T13:56:46.101Z</time></trkpt><trkpt lat="44.3066921" lon="7.253832"><ele>809.0</ele><time>2026-05-03T13:56:47.101Z</time></trkpt><trkpt lat="44.3067617" lon="7.2540392"><ele>809.0</ele><time>2026-05-03T13:56:48.101Z</time></trkpt><trkpt lat="44.3068492" lon="7.2542433"><ele>809.0</ele><time>2026-05-03T13:56:49.1Z</time></trkpt><trkpt lat="44.3069366" lon="7.2544518"><ele>809.0</ele><time>2026-05-03T13:56:50.101Z</time></trkpt><trkpt lat="44.3070225" lon="7.254666"><ele>809.0</ele><time>2026-05-03T13:56:51.1Z</time></trkpt><trkpt lat="44.3071079" lon="7.2548684"><ele>809.0</ele><time>2026-05-03T13:56:52.101Z</time></trkpt><trkpt lat="44.3071816" lon="7.2550813"><ele>806.3333333333334</ele><time>2026-05-03T13:56:53.101Z</time></trkpt><trkpt lat="44.3072536" lon="7.2553047"><ele>803.6666666666667</ele><time>2026-05-03T13:56:54.101Z</time></trkpt><trkpt lat="44.3073497" lon="7.2555084"><ele>801.0</ele><time>2026-05-03T13:56:55.101Z</time></trkpt><trkpt lat="44.3074238" lon="7.2557305"><ele>800.0</ele><time>2026-05-03T13:56:56.101Z</time></trkpt><trkpt lat="44.3074933" lon="7.2559585"><ele>799.0</ele><time>2026-05-03T13:56:57.101Z</time></trkpt><trkpt lat="44.3075534" lon="7.2562063"><ele>798.0</ele><time>2026-05-03T13:56:58.101Z</time></trkpt><trkpt lat="44.3076268" lon="7.25646"><ele>797.0</ele><time>2026-05-03T13:56:59.1Z</time></trkpt><trkpt lat="44.3076907" lon="7.2567209"><ele>796.0</ele><time>2026-05-03T13:57:00.101Z</time></trkpt><trkpt lat="44.3077671" lon="7.2569894"><ele>795.0</ele><time>2026-05-03T13:57:01.101Z</time></trkpt><trkpt lat="44.307831" lon="7.2572521"><ele>793.6666666666667</ele><time>2026-05-03T13:57:02.101Z</time></trkpt><trkpt lat="44.3079018" lon="7.2575253"><ele>792.3333333333334</ele><time>2026-05-03T13:57:03.101Z</time></trkpt><trkpt lat="44.30795" lon="7.2577859"><ele>791.0</ele><time>2026-05-03T13:57:04.101Z</time></trkpt><trkpt lat="44.3080195" lon="7.2580653"><ele>788.0</ele><time>2026-05-03T13:57:05.1Z</time></trkpt><trkpt lat="44.3080793" lon="7.2583308"><ele>785.0</ele><time>2026-05-03T13:57:06.101Z</time></trkpt><trkpt lat="44.3081359" lon="7.2585949"><ele>782.0</ele><time>2026-05-03T13:57:07.101Z</time></trkpt><trkpt lat="44.3081941" lon="7.2588561"><ele>782.0</ele><time>2026-05-03T13:57:08.101Z</time></trkpt><trkpt lat="44.3082635" lon="7.2591134"><ele>782.0</ele><time>2026-05-03T13:57:09.101Z</time></trkpt><trkpt lat="44.3083322" lon="7.259369"><ele>782.0</ele><time>2026-05-03T13:57:10.101Z</time></trkpt><trkpt lat="44.3084013" lon="7.259619"><ele>781.0</ele><time>2026-05-03T13:57:11.1Z</time></trkpt><trkpt lat="44.3084687" lon="7.2598908"><ele>780.0</ele><time>2026-05-03T13:57:12.1Z</time></trkpt><trkpt lat="44.3085428" lon="7.2601653"><ele>779.0</ele><time>2026-05-03T13:57:13.1Z</time></trkpt><trkpt lat="44.3085616" lon="7.260477"><ele>777.6666666666667</ele><time>2026-05-03T13:57:14.101Z</time></trkpt><trkpt lat="44.3085603" lon="7.2607823"><ele>776.3333333333333</ele><time>2026-05-03T13:57:15.101Z</time></trkpt><trkpt lat="44.3085582" lon="7.2610888"><ele>775.0</ele><time>2026-05-03T13:57:16.101Z</time></trkpt><trkpt lat="44.3085556" lon="7.261396"><ele>774.0</ele><time>2026-05-03T13:57:17.101Z</time></trkpt><trkpt lat="44.3085621" lon="7.261707"><ele>773.0</ele><time>2026-05-03T13:57:18.101Z</time></trkpt><trkpt lat="44.3085535" lon="7.2620199"><ele>772.0</ele><time>2026-05-03T13:57:19.101Z</time></trkpt><trkpt lat="44.308545" lon="7.2623344"><ele>771.3333333333333</ele><time>2026-05-03T13:57:20.101Z</time></trkpt><trkpt lat="44.3085419" lon="7.262645"><ele>770.6666666666667</ele><time>2026-05-03T13:57:21.101Z</time></trkpt><trkpt lat="44.3085454" lon="7.26294"><ele>770.0</ele><time>2026-05-03T13:57:22.101Z</time></trkpt><trkpt lat="44.3085393" lon="7.263242"><ele>769.0</ele><time>2026-05-03T13:57:23.1Z</time></trkpt><trkpt lat="44.3085352" lon="7.2635389"><ele>768.0</ele><time>2026-05-03T13:57:24.101Z</time></trkpt><trkpt lat="44.3085313" lon="7.2638372"><ele>767.0</ele><time>2026-05-03T13:57:25.101Z</time></trkpt><trkpt lat="44.3085382" lon="7.2641242"><ele>766.6666666666666</ele><time>2026-05-03T13:57:26.101Z</time></trkpt><trkpt lat="44.3085355" lon="7.2643978"><ele>766.3333333333334</ele><time>2026-05-03T13:57:27.101Z</time></trkpt><trkpt lat="44.308521" lon="7.2647032"><ele>766.0</ele><time>2026-05-03T13:57:28.101Z</time></trkpt><trkpt lat="44.3085155" lon="7.2649943"><ele>766.0</ele><time>2026-05-03T13:57:29.1Z</time></trkpt><trkpt lat="44.3085112" lon="7.265286"><ele>766.0</ele><time>2026-05-03T13:57:30.1Z</time></trkpt><trkpt lat="44.308509" lon="7.2655636"><ele>766.0</ele><time>2026-05-03T13:57:31.101Z</time></trkpt><trkpt lat="44.3085006" lon="7.2658455"><ele>765.6666666666667</ele><time>2026-05-03T13:57:32.101Z</time></trkpt><trkpt lat="44.3085083" lon="7.2661193"><ele>765.3333333333334</ele><time>2026-05-03T13:57:33.101Z</time></trkpt><trkpt lat="44.3084974" lon="7.2664006"><ele>765.0</ele><time>2026-05-03T13:57:34.101Z</time></trkpt><trkpt lat="44.3084884" lon="7.2666781"><ele>764.0</ele><time>2026-05-03T13:57:35.101Z</time></trkpt><trkpt lat="44.3084839" lon="7.2669547"><ele>763.0</ele><time>2026-05-03T13:57:36.101Z</time></trkpt><trkpt lat="44.3084841" lon="7.2672418"><ele>762.0</ele><time>2026-05-03T13:57:37.101Z</time></trkpt><trkpt lat="44.308491" lon="7.2675324"><ele>761.6666666666666</ele><time>2026-05-03T13:57:38.101Z</time></trkpt><trkpt lat="44.3085088" lon="7.2678295"><ele>761.3333333333333</ele><time>2026-05-03T13:57:39.1Z</time></trkpt><trkpt lat="44.3085304" lon="7.2681155"><ele>761.0</ele><time>2026-05-03T13:57:40.1Z</time></trkpt><trkpt lat="44.3085563" lon="7.2684127"><ele>760.6666666666666</ele><time>2026-05-03T13:57:41.101Z</time></trkpt><trkpt lat="44.3085864" lon="7.2687047"><ele>760.3333333333334</ele><time>2026-05-03T13:57:42.101Z</time></trkpt><trkpt lat="44.3086148" lon="7.2690084"><ele>760.0</ele><time>2026-05-03T13:57:43.101Z</time></trkpt><trkpt lat="44.3086361" lon="7.2693069"><ele>760.0</ele><time>2026-05-03T13:57:44.1Z</time></trkpt><trkpt lat="44.3086588" lon="7.2696035"><ele>760.0</ele><time>2026-05-03T13:57:45.1Z</time></trkpt><trkpt lat="44.3086791" lon="7.2698951"><ele>760.0</ele><time>2026-05-03T13:57:46.101Z</time></trkpt><trkpt lat="44.3086951" lon="7.2701846"><ele>760.3333333333334</ele><time>2026-05-03T13:57:47.101Z</time></trkpt><trkpt lat="44.3087145" lon="7.270489"><ele>760.6666666666666</ele><time>2026-05-03T13:57:48.1Z</time></trkpt><trkpt lat="44.3087355" lon="7.2707919"><ele>761.0</ele><time>2026-05-03T13:57:49.101Z</time></trkpt><trkpt lat="44.3087672" lon="7.271081"><ele>761.0</ele><time>2026-05-03T13:57:50.101Z</time></trkpt><trkpt lat="44.3087848" lon="7.2713914"><ele>761.0</ele><time>2026-05-03T13:57:51.1Z</time></trkpt><trkpt lat="44.3088006" lon="7.2716856"><ele>761.0</ele><time>2026-05-03T13:57:52.101Z</time></trkpt><trkpt lat="44.3088267" lon="7.2720029"><ele>759.0</ele><time>2026-05-03T13:57:53.1Z</time></trkpt><trkpt lat="44.3088473" lon="7.2723109"><ele>757.0</ele><time>2026-05-03T13:57:54.101Z</time></trkpt><trkpt lat="44.308865" lon="7.2726173"><ele>755.0</ele><time>2026-05-03T13:57:55.101Z</time></trkpt><trkpt lat="44.3088883" lon="7.2729227"><ele>753.6666666666666</ele><time>2026-05-03T13:57:56.101Z</time></trkpt><trkpt lat="44.3089136" lon="7.2732328"><ele>752.3333333333334</ele><time>2026-05-03T13:57:57.101Z</time></trkpt><trkpt lat="44.3089351" lon="7.2735349"><ele>751.0</ele><time>2026-05-03T13:57:58.101Z</time></trkpt><trkpt lat="44.3089574" lon="7.2738491"><ele>751.0</ele><time>2026-05-03T13:57:59.1Z</time></trkpt><trkpt lat="44.3089814" lon="7.2741517"><ele>751.0</ele><time>2026-05-03T13:58:00.101Z</time></trkpt><trkpt lat="44.3090036" lon="7.2744633"><ele>751.0</ele><time>2026-05-03T13:58:01.101Z</time></trkpt><trkpt lat="44.3090238" lon="7.2747745"><ele>751.0</ele><time>2026-05-03T13:58:02.101Z</time></trkpt><trkpt lat="44.3090414" lon="7.2750793"><ele>751.0</ele><time>2026-05-03T13:58:03.101Z</time></trkpt><trkpt lat="44.3090638" lon="7.2753859"><ele>751.0</ele><time>2026-05-03T13:58:04.101Z</time></trkpt><trkpt lat="44.3090868" lon="7.275679"><ele>751.0</ele><time>2026-05-03T13:58:05.101Z</time></trkpt><trkpt lat="44.3091132" lon="7.2759668"><ele>751.0</ele><time>2026-05-03T13:58:06.101Z</time></trkpt><trkpt lat="44.3091329" lon="7.2762491"><ele>751.0</ele><time>2026-05-03T13:58:07.101Z</time></trkpt><trkpt lat="44.3091497" lon="7.276509"><ele>751.0</ele><time>2026-05-03T13:58:08.101Z</time></trkpt><trkpt lat="44.3091621" lon="7.2767507"><ele>751.0</ele><time>2026-05-03T13:58:09.101Z</time></trkpt><trkpt lat="44.3091757" lon="7.2769768"><ele>751.0</ele><time>2026-05-03T13:58:10.1Z</time></trkpt><trkpt lat="44.3091849" lon="7.2771836"><ele>750.75</ele><time>2026-05-03T13:58:11.1Z</time></trkpt><trkpt lat="44.3091934" lon="7.2773754"><ele>750.5</ele><time>2026-05-03T13:58:12.101Z</time></trkpt><trkpt lat="44.3091863" lon="7.2775441"><ele>750.25</ele><time>2026-05-03T13:58:13.1Z</time></trkpt><trkpt lat="44.309165" lon="7.2776867"><ele>750.0</ele><time>2026-05-03T13:58:14.101Z</time></trkpt><trkpt lat="44.3091134" lon="7.2778356"><ele>750.0</ele><time>2026-05-03T13:58:15.101Z</time></trkpt><trkpt lat="44.3090269" lon="7.2779728"><ele>750.0</ele><time>2026-05-03T13:58:16.1Z</time></trkpt><trkpt lat="44.3089394" lon="7.2781116"><ele>750.0</ele><time>2026-05-03T13:58:17.101Z</time></trkpt><trkpt lat="44.3088177" lon="7.2782643"><ele>750.0</ele><time>2026-05-03T13:58:18.101Z</time></trkpt><trkpt lat="44.3087059" lon="7.2784239"><ele>751.0</ele><time>2026-05-03T13:58:19.101Z</time></trkpt><trkpt lat="44.3085889" lon="7.2785943"><ele>752.0</ele><time>2026-05-03T13:58:20.101Z</time></trkpt><trkpt lat="44.3084711" lon="7.2787629"><ele>753.0</ele><time>2026-05-03T13:58:21.101Z</time></trkpt><trkpt lat="44.3083518" lon="7.2789334"><ele>752.0</ele><time>2026-05-03T13:58:22.101Z</time></trkpt><trkpt lat="44.3082327" lon="7.2791019"><ele>751.0</ele><time>2026-05-03T13:58:23.101Z</time></trkpt><trkpt lat="44.3081212" lon="7.2792712"><ele>750.0</ele><time>2026-05-03T13:58:24.101Z</time></trkpt><trkpt lat="44.3080092" lon="7.2794374"><ele>751.3333333333334</ele><time>2026-05-03T13:58:25.1Z</time></trkpt><trkpt lat="44.3078985" lon="7.2796091"><ele>752.6666666666667</ele><time>2026-05-03T13:58:26.101Z</time></trkpt><trkpt lat="44.3077854" lon="7.279771"><ele>754.0</ele><time>2026-05-03T13:58:27.1Z</time></trkpt><trkpt lat="44.3076991" lon="7.2800121"><ele>754.0</ele><time>2026-05-03T13:58:28.101Z</time></trkpt><trkpt lat="44.3075981" lon="7.280226"><ele>754.0</ele><time>2026-05-03T13:58:29.101Z</time></trkpt><trkpt lat="44.3075176" lon="7.2804516"><ele>754.0</ele><time>2026-05-03T13:58:30.101Z</time></trkpt><trkpt lat="44.3074413" lon="7.2806736"><ele>752.6666666666667</ele><time>2026-05-03T13:58:31.101Z</time></trkpt><trkpt lat="44.3073641" lon="7.2809007"><ele>751.3333333333334</ele><time>2026-05-03T13:58:32.101Z</time></trkpt><trkpt lat="44.3072748" lon="7.2811201"><ele>750.0</ele><time>2026-05-03T13:58:33.101Z</time></trkpt><trkpt lat="44.3071761" lon="7.2813314"><ele>752.6666666666666</ele><time>2026-05-03T13:58:34.101Z</time></trkpt><trkpt lat="44.3070759" lon="7.2815412"><ele>755.3333333333333</ele><time>2026-05-03T13:58:35.101Z</time></trkpt><trkpt lat="44.3069917" lon="7.2817488"><ele>758.0</ele><time>2026-05-03T13:58:36.101Z</time></trkpt><trkpt lat="44.306916" lon="7.2819669"><ele>758.0</ele><time>2026-05-03T13:58:37.101Z</time></trkpt><trkpt lat="44.306861" lon="7.2821892"><ele>758.0</ele><time>2026-05-03T13:58:38.101Z</time></trkpt><trkpt lat="44.306862" lon="7.2824475"><ele>758.0</ele><time>2026-05-03T13:58:39.101Z</time></trkpt><trkpt lat="44.3068768" lon="7.2826961"><ele>758.0</ele><time>2026-05-03T13:58:40.1Z</time></trkpt><trkpt lat="44.3069132" lon="7.2829491"><ele>758.0</ele><time>2026-05-03T13:58:41.101Z</time></trkpt><trkpt lat="44.3069539" lon="7.2831961"><ele>758.0</ele><time>2026-05-03T13:58:42.101Z</time></trkpt><trkpt lat="44.307012" lon="7.2834423"><ele>759.0</ele><time>2026-05-03T13:58:43.101Z</time></trkpt><trkpt lat="44.3070847" lon="7.2836907"><ele>760.0</ele><time>2026-05-03T13:58:44.101Z</time></trkpt><trkpt lat="44.3071379" lon="7.2839153"><ele>761.0</ele><time>2026-05-03T13:58:45.101Z</time></trkpt><trkpt lat="44.307195" lon="7.2841343"><ele>762.3333333333333</ele><time>2026-05-03T13:58:46.1Z</time></trkpt><trkpt lat="44.3072182" lon="7.2843861"><ele>763.6666666666666</ele><time>2026-05-03T13:58:47.101Z</time></trkpt><trkpt lat="44.3072603" lon="7.2846297"><ele>765.0</ele><time>2026-05-03T13:58:48.101Z</time></trkpt><trkpt lat="44.3072684" lon="7.2848735"><ele>765.6666666666666</ele><time>2026-05-03T13:58:49.101Z</time></trkpt><trkpt lat="44.3072821" lon="7.2851074"><ele>766.3333333333333</ele><time>2026-05-03T13:58:50.101Z</time></trkpt><trkpt lat="44.30727" lon="7.2853145"><ele>767.0</ele><time>2026-05-03T13:58:51.101Z</time></trkpt><trkpt lat="44.3072421" lon="7.2855324"><ele>766.3333333333333</ele><time>2026-05-03T13:58:52.101Z</time></trkpt><trkpt lat="44.3072135" lon="7.2857498"><ele>765.6666666666666</ele><time>2026-05-03T13:58:53.101Z</time></trkpt><trkpt lat="44.307151" lon="7.285943"><ele>765.0</ele><time>2026-05-03T13:58:54.101Z</time></trkpt><trkpt lat="44.3070722" lon="7.28613"><ele>765.0</ele><time>2026-05-03T13:58:55.101Z</time></trkpt><trkpt lat="44.3069814" lon="7.2863073"><ele>765.0</ele><time>2026-05-03T13:58:56.101Z</time></trkpt><trkpt lat="44.3068844" lon="7.2864844"><ele>765.0</ele><time>2026-05-03T13:58:57.101Z</time></trkpt><trkpt lat="44.3068028" lon="7.2866482"><ele>763.0</ele><time>2026-05-03T13:58:58.101Z</time></trkpt><trkpt lat="44.3066995" lon="7.2868042"><ele>761.0</ele><time>2026-05-03T13:58:59.101Z</time></trkpt><trkpt lat="44.3065837" lon="7.2869378"><ele>759.0</ele><time>2026-05-03T13:59:00.101Z</time></trkpt><trkpt lat="44.3064656" lon="7.2870725"><ele>765.25</ele><time>2026-05-03T13:59:01.101Z</time></trkpt><trkpt lat="44.3063605" lon="7.2872141"><ele>771.5</ele><time>2026-05-03T13:59:02.101Z</time></trkpt><trkpt lat="44.3062541" lon="7.2873617"><ele>777.75</ele><time>2026-05-03T13:59:03.101Z</time></trkpt><trkpt lat="44.3061659" lon="7.287494"><ele>784.0</ele><time>2026-05-03T13:59:04.101Z</time></trkpt><trkpt lat="44.3061369" lon="7.2876667"><ele>784.0</ele><time>2026-05-03T13:59:05.101Z</time></trkpt><trkpt lat="44.3060666" lon="7.287822"><ele>784.0</ele><time>2026-05-03T13:59:06.101Z</time></trkpt><trkpt lat="44.306012" lon="7.2879824"><ele>784.0</ele><time>2026-05-03T13:59:07.101Z</time></trkpt><trkpt lat="44.3059713" lon="7.2881644"><ele>784.0</ele><time>2026-05-03T13:59:08.1Z</time></trkpt><trkpt lat="44.3059493" lon="7.2883397"><ele>783.3333333333333</ele><time>2026-05-03T13:59:09.1Z</time></trkpt><trkpt lat="44.3059308" lon="7.2885586"><ele>782.6666666666667</ele><time>2026-05-03T13:59:10.1Z</time></trkpt><trkpt lat="44.3059677" lon="7.2888051"><ele>782.0</ele><time>2026-05-03T13:59:11.1Z</time></trkpt><trkpt lat="44.3059802" lon="7.2890099"><ele>782.0</ele><time>2026-05-03T13:59:12.101Z</time></trkpt><trkpt lat="44.3060011" lon="7.2892449"><ele>782.0</ele><time>2026-05-03T13:59:13.101Z</time></trkpt><trkpt lat="44.3060084" lon="7.2893886"><ele>782.0</ele><time>2026-05-03T13:59:14.101Z</time></trkpt><trkpt lat="44.3060189" lon="7.2895393"><ele>782.0</ele><time>2026-05-03T13:59:15.101Z</time></trkpt><trkpt lat="44.3059955" lon="7.2897107"><ele>782.8</ele><time>2026-05-03T13:59:16.101Z</time></trkpt><trkpt lat="44.305949" lon="7.2898569"><ele>783.6</ele><time>2026-05-03T13:59:17.101Z</time></trkpt><trkpt lat="44.3059086" lon="7.2900027"><ele>784.4</ele><time>2026-05-03T13:59:18.101Z</time></trkpt><trkpt lat="44.3058843" lon="7.2901624"><ele>785.1999999999999</ele><time>2026-05-03T13:59:19.101Z</time></trkpt><trkpt lat="44.3058817" lon="7.2903054"><ele>786.0</ele><time>2026-05-03T13:59:20.1Z</time></trkpt><trkpt lat="44.3058823" lon="7.2904189"><ele>786.0</ele><time>2026-05-03T13:59:21.101Z</time></trkpt><trkpt lat="44.3058698" lon="7.2905264"><ele>786.0</ele><time>2026-05-03T13:59:22.101Z</time></trkpt><trkpt lat="44.3058435" lon="7.2906796"><ele>786.0</ele><time>2026-05-03T13:59:23.101Z</time></trkpt><trkpt lat="44.3057673" lon="7.2908135"><ele>786.0</ele><time>2026-05-03T13:59:24.101Z</time></trkpt><trkpt lat="44.3057063" lon="7.2909449"><ele>786.0</ele><time>2026-05-03T13:59:25.101Z</time></trkpt><trkpt lat="44.3056324" lon="7.2910652"><ele>783.5</ele><time>2026-05-03T13:59:26.101Z</time></trkpt><trkpt lat="44.3055639" lon="7.2912065"><ele>781.0</ele><time>2026-05-03T13:59:27.101Z</time></trkpt><trkpt lat="44.3055258" lon="7.2913566"><ele>778.5</ele><time>2026-05-03T13:59:28.101Z</time></trkpt><trkpt lat="44.3055974" lon="7.2915199"><ele>776.0</ele><time>2026-05-03T13:59:29.1Z</time></trkpt><trkpt lat="44.3056242" lon="7.2916524"><ele>776.0</ele><time>2026-05-03T13:59:30.101Z</time></trkpt><trkpt lat="44.3056404" lon="7.2917929"><ele>776.0</ele><time>2026-05-03T13:59:31.101Z</time></trkpt><trkpt lat="44.3056349" lon="7.2919408"><ele>776.0</ele><time>2026-05-03T13:59:32.101Z</time></trkpt><trkpt lat="44.3055723" lon="7.2920558"><ele>776.0</ele><time>2026-05-03T13:59:33.101Z</time></trkpt><trkpt lat="44.3054626" lon="7.292106"><ele>776.0</ele><time>2026-05-03T13:59:34.101Z</time></trkpt><trkpt lat="44.3054113" lon="7.292218"><ele>783.75</ele><time>2026-05-03T13:59:35.101Z</time></trkpt><trkpt lat="44.3053735" lon="7.2923421"><ele>791.5</ele><time>2026-05-03T13:59:36.101Z</time></trkpt><trkpt lat="44.3053896" lon="7.2924976"><ele>799.25</ele><time>2026-05-03T13:59:37.101Z</time></trkpt><trkpt lat="44.3054543" lon="7.2926973"><ele>807.0</ele><time>2026-05-03T13:59:38.101Z</time></trkpt><trkpt lat="44.305504" lon="7.2929053"><ele>807.0</ele><time>2026-05-03T13:59:39.101Z</time></trkpt><trkpt lat="44.3055466" lon="7.2930879"><ele>807.0</ele><time>2026-05-03T13:59:40.101Z</time></trkpt><trkpt lat="44.3055656" lon="7.2932888"><ele>807.0</ele><time>2026-05-03T13:59:41.101Z</time></trkpt><trkpt lat="44.3055698" lon="7.2934871"><ele>807.0</ele><time>2026-05-03T13:59:42.101Z</time></trkpt><trkpt lat="44.3055949" lon="7.2936942"><ele>807.0</ele><time>2026-05-03T13:59:43.101Z</time></trkpt><trkpt lat="44.305587" lon="7.2938241"><ele>807.0</ele><time>2026-05-03T13:59:44.1Z</time></trkpt><trkpt lat="44.3055723" lon="7.2939427"><ele>807.0</ele><time>2026-05-03T13:59:45.101Z</time></trkpt><trkpt lat="44.3055154" lon="7.2940546"><ele>807.0</ele><time>2026-05-03T13:59:46.101Z</time></trkpt><trkpt lat="44.3054767" lon="7.2941731"><ele>807.0</ele><time>2026-05-03T13:59:47.101Z</time></trkpt><trkpt lat="44.3054817" lon="7.2942909"><ele>807.0</ele><time>2026-05-03T13:59:48.101Z</time></trkpt><trkpt lat="44.3054881" lon="7.2944166"><ele>807.0</ele><time>2026-05-03T13:59:49.101Z</time></trkpt><trkpt lat="44.3055016" lon="7.2945305"><ele>807.0</ele><time>2026-05-03T13:59:50.101Z</time></trkpt><trkpt lat="44.3055479" lon="7.2947087"><ele>807.0</ele><time>2026-05-03T13:59:51.101Z</time></trkpt><trkpt lat="44.3055687" lon="7.2948731"><ele>807.0</ele><time>2026-05-03T13:59:52.101Z</time></trkpt><trkpt lat="44.3055751" lon="7.2950331"><ele>797.0</ele><time>2026-05-03T13:59:53.101Z</time></trkpt><trkpt lat="44.3055797" lon="7.2952193"><ele>787.0</ele><time>2026-05-03T13:59:54.101Z</time></trkpt><trkpt lat="44.3055846" lon="7.2954036"><ele>777.0</ele><time>2026-05-03T13:59:55.101Z</time></trkpt><trkpt lat="44.3056083" lon="7.2956509"><ele>767.0</ele><time>2026-05-03T13:59:56.101Z</time></trkpt><trkpt lat="44.3056305" lon="7.2958166"><ele>767.0</ele><time>2026-05-03T13:59:57.1Z</time></trkpt><trkpt lat="44.3056745" lon="7.2960142"><ele>767.0</ele><time>2026-05-03T13:59:58.1Z</time></trkpt><trkpt lat="44.3057024" lon="7.2962218"><ele>767.0</ele><time>2026-05-03T13:59:59.101Z</time></trkpt><trkpt lat="44.3057259" lon="7.2964214"><ele>767.0</ele><time>2026-05-03T14:00:00.101Z</time></trkpt><trkpt lat="44.3057825" lon="7.2966207"><ele>766.75</ele><time>2026-05-03T14:00:01.1Z</time></trkpt><trkpt lat="44.3058263" lon="7.2968181"><ele>766.5</ele><time>2026-05-03T14:00:02.101Z</time></trkpt><trkpt lat="44.3058898" lon="7.2970028"><ele>766.25</ele><time>2026-05-03T14:00:03.101Z</time></trkpt><trkpt lat="44.305946" lon="7.2971652"><ele>766.0</ele><time>2026-05-03T14:00:04.101Z</time></trkpt><trkpt lat="44.3059722" lon="7.2973268"><ele>765.6666666666667</ele><time>2026-05-03T14:00:05.101Z</time></trkpt><trkpt lat="44.306032" lon="7.2975243"><ele>765.3333333333334</ele><time>2026-05-03T14:00:06.1Z</time></trkpt><trkpt lat="44.3060845" lon="7.297742"><ele>765.0</ele><time>2026-05-03T14:00:07.101Z</time></trkpt><trkpt lat="44.3061375" lon="7.2980135"><ele>765.3333333333334</ele><time>2026-05-03T14:00:08.101Z</time></trkpt><trkpt lat="44.306128" lon="7.2982911"><ele>765.6666666666667</ele><time>2026-05-03T14:00:09.101Z</time></trkpt><trkpt lat="44.3061045" lon="7.298532"><ele>766.0</ele><time>2026-05-03T14:00:10.101Z</time></trkpt><trkpt lat="44.3060847" lon="7.2987669"><ele>764.3333333333334</ele><time>2026-05-03T14:00:11.101Z</time></trkpt><trkpt lat="44.3060845" lon="7.2989967"><ele>762.6666666666666</ele><time>2026-05-03T14:00:12.1Z</time></trkpt><trkpt lat="44.306076" lon="7.2992269"><ele>761.0</ele><time>2026-05-03T14:00:13.101Z</time></trkpt><trkpt lat="44.3060455" lon="7.2994406"><ele>761.0</ele><time>2026-05-03T14:00:14.101Z</time></trkpt><trkpt lat="44.3059937" lon="7.2996593"><ele>761.0</ele><time>2026-05-03T14:00:15.101Z</time></trkpt><trkpt lat="44.3059209" lon="7.2998798"><ele>761.0</ele><time>2026-05-03T14:00:16.101Z</time></trkpt><trkpt lat="44.3058469" lon="7.3001093"><ele>764.0</ele><time>2026-05-03T14:00:17.1Z</time></trkpt><trkpt lat="44.3057513" lon="7.3003149"><ele>767.0</ele><time>2026-05-03T14:00:18.1Z</time></trkpt><trkpt lat="44.305646" lon="7.3005196"><ele>770.0</ele><time>2026-05-03T14:00:19.101Z</time></trkpt><trkpt lat="44.3055572" lon="7.3007305"><ele>770.0</ele><time>2026-05-03T14:00:20.101Z</time></trkpt><trkpt lat="44.3054675" lon="7.3009315"><ele>770.0</ele><time>2026-05-03T14:00:21.101Z</time></trkpt><trkpt lat="44.3053685" lon="7.3011269"><ele>770.0</ele><time>2026-05-03T14:00:22.101Z</time></trkpt><trkpt lat="44.305253" lon="7.3013176"><ele>763.3333333333334</ele><time>2026-05-03T14:00:23.1Z</time></trkpt><trkpt lat="44.3051393" lon="7.3014996"><ele>756.6666666666667</ele><time>2026-05-03T14:00:24.101Z</time></trkpt><trkpt lat="44.3050305" lon="7.3016813"><ele>750.0</ele><time>2026-05-03T14:00:25.101Z</time></trkpt><trkpt lat="44.3049349" lon="7.3018668"><ele>750.0</ele><time>2026-05-03T14:00:26.101Z</time></trkpt><trkpt lat="44.3048527" lon="7.3020684"><ele>750.0</ele><time>2026-05-03T14:00:27.101Z</time></trkpt><trkpt lat="44.3047814" lon="7.3022764"><ele>750.0</ele><time>2026-05-03T14:00:28.101Z</time></trkpt><trkpt lat="44.3047133" lon="7.3024897"><ele>752.0</ele><time>2026-05-03T14:00:29.101Z</time></trkpt><trkpt lat="44.3046696" lon="7.3027177"><ele>754.0</ele><time>2026-05-03T14:00:30.101Z</time></trkpt><trkpt lat="44.3046466" lon="7.3029653"><ele>756.0</ele><time>2026-05-03T14:00:31.101Z</time></trkpt><trkpt lat="44.3046293" lon="7.3031949"><ele>756.0</ele><time>2026-05-03T14:00:32.101Z</time></trkpt><trkpt lat="44.3046207" lon="7.3034088"><ele>756.0</ele><time>2026-05-03T14:00:33.1Z</time></trkpt><trkpt lat="44.304629" lon="7.3036221"><ele>756.0</ele><time>2026-05-03T14:00:34.101Z</time></trkpt><trkpt lat="44.304639" lon="7.3038242"><ele>756.25</ele><time>2026-05-03T14:00:35.101Z</time></trkpt><trkpt lat="44.3046778" lon="7.3040328"><ele>756.5</ele><time>2026-05-03T14:00:36.1Z</time></trkpt><trkpt lat="44.3047311" lon="7.3042042"><ele>756.75</ele><time>2026-05-03T14:00:37.101Z</time></trkpt><trkpt lat="44.3047626" lon="7.3043742"><ele>757.0</ele><time>2026-05-03T14:00:38.1Z</time></trkpt><trkpt lat="44.3047917" lon="7.3045173"><ele>752.75</ele><time>2026-05-03T14:00:39.1Z</time></trkpt><trkpt lat="44.304809" lon="7.3046653"><ele>748.5</ele><time>2026-05-03T14:00:40.101Z</time></trkpt><trkpt lat="44.3048257" lon="7.3048555"><ele>744.25</ele><time>2026-05-03T14:00:41.101Z</time></trkpt><trkpt lat="44.3047964" lon="7.3050625"><ele>740.0</ele><time>2026-05-03T14:00:42.101Z</time></trkpt><trkpt lat="44.3047763" lon="7.3053249"><ele>740.0</ele><time>2026-05-03T14:00:43.101Z</time></trkpt><trkpt lat="44.3047559" lon="7.3055741"><ele>740.0</ele><time>2026-05-03T14:00:44.101Z</time></trkpt><trkpt lat="44.3047356" lon="7.3058209"><ele>740.0</ele><time>2026-05-03T14:00:45.101Z</time></trkpt><trkpt lat="44.3047107" lon="7.3060666"><ele>744.6666666666666</ele><time>2026-05-03T14:00:46.101Z</time></trkpt><trkpt lat="44.3046946" lon="7.3063296"><ele>749.3333333333334</ele><time>2026-05-03T14:00:47.1Z</time></trkpt><trkpt lat="44.3046728" lon="7.3065757"><ele>754.0</ele><time>2026-05-03T14:00:48.101Z</time></trkpt><trkpt lat="44.3046578" lon="7.3068213"><ele>754.0</ele><time>2026-05-03T14:00:49.101Z</time></trkpt><trkpt lat="44.3046396" lon="7.3070726"><ele>754.0</ele><time>2026-05-03T14:00:50.101Z</time></trkpt><trkpt lat="44.304624" lon="7.3073245"><ele>754.0</ele><time>2026-05-03T14:00:51.101Z</time></trkpt><trkpt lat="44.3046057" lon="7.307581"><ele>754.0</ele><time>2026-05-03T14:00:52.101Z</time></trkpt><trkpt lat="44.3045909" lon="7.3078449"><ele>754.0</ele><time>2026-05-03T14:00:53.101Z</time></trkpt><trkpt lat="44.3045709" lon="7.308104"><ele>754.0</ele><time>2026-05-03T14:00:54.101Z</time></trkpt><trkpt lat="44.3045485" lon="7.3083853"><ele>753.6666666666667</ele><time>2026-05-03T14:00:55.101Z</time></trkpt><trkpt lat="44.3045283" lon="7.3086397"><ele>753.3333333333334</ele><time>2026-05-03T14:00:56.101Z</time></trkpt><trkpt lat="44.3045061" lon="7.3088984"><ele>753.0</ele><time>2026-05-03T14:00:57.1Z</time></trkpt><trkpt lat="44.3044883" lon="7.309158"><ele>750.3333333333334</ele><time>2026-05-03T14:00:58.101Z</time></trkpt><trkpt lat="44.3044702" lon="7.3094187"><ele>747.6666666666667</ele><time>2026-05-03T14:00:59.101Z</time></trkpt><trkpt lat="44.304445" lon="7.3096736"><ele>745.0</ele><time>2026-05-03T14:01:00.101Z</time></trkpt><trkpt lat="44.304428" lon="7.3099405"><ele>744.0</ele><time>2026-05-03T14:01:01.101Z</time></trkpt><trkpt lat="44.3044044" lon="7.3101984"><ele>743.0</ele><time>2026-05-03T14:01:02.101Z</time></trkpt><trkpt lat="44.3043939" lon="7.3104674"><ele>742.0</ele><time>2026-05-03T14:01:03.101Z</time></trkpt><trkpt lat="44.3043656" lon="7.3107235"><ele>740.6666666666667</ele><time>2026-05-03T14:01:04.101Z</time></trkpt><trkpt lat="44.3043604" lon="7.3109929"><ele>739.3333333333334</ele><time>2026-05-03T14:01:05.1Z</time></trkpt><trkpt lat="44.3043098" lon="7.3112298"><ele>738.0</ele><time>2026-05-03T14:01:06.101Z</time></trkpt><trkpt lat="44.3042416" lon="7.3114594"><ele>735.6666666666666</ele><time>2026-05-03T14:01:07.1Z</time></trkpt><trkpt lat="44.304157" lon="7.3116807"><ele>733.3333333333333</ele><time>2026-05-03T14:01:08.1Z</time></trkpt><trkpt lat="44.3040643" lon="7.3118986"><ele>731.0</ele><time>2026-05-03T14:01:09.101Z</time></trkpt><trkpt lat="44.3039799" lon="7.3121096"><ele>733.3333333333333</ele><time>2026-05-03T14:01:10.101Z</time></trkpt><trkpt lat="44.3039025" lon="7.3123176"><ele>735.6666666666666</ele><time>2026-05-03T14:01:11.101Z</time></trkpt><trkpt lat="44.3038294" lon="7.3125103"><ele>738.0</ele><time>2026-05-03T14:01:12.101Z</time></trkpt><trkpt lat="44.3037642" lon="7.312693"><ele>738.0</ele><time>2026-05-03T14:01:13.101Z</time></trkpt><trkpt lat="44.3037076" lon="7.3128713"><ele>738.0</ele><time>2026-05-03T14:01:14.1Z</time></trkpt><trkpt lat="44.3036413" lon="7.3130482"><ele>738.0</ele><time>2026-05-03T14:01:15.1Z</time></trkpt><trkpt lat="44.3035554" lon="7.3132308"><ele>738.0</ele><time>2026-05-03T14:01:16.101Z</time></trkpt><trkpt lat="44.3034817" lon="7.3134336"><ele>737.6666666666666</ele><time>2026-05-03T14:01:17.101Z</time></trkpt><trkpt lat="44.303393" lon="7.3136369"><ele>737.3333333333333</ele><time>2026-05-03T14:01:18.101Z</time></trkpt><trkpt lat="44.3032989" lon="7.313853"><ele>737.0</ele><time>2026-05-03T14:01:19.101Z</time></trkpt><trkpt lat="44.3032089" lon="7.3140705"><ele>735.3333333333333</ele><time>2026-05-03T14:01:20.101Z</time></trkpt><trkpt lat="44.3031515" lon="7.3143"><ele>733.6666666666666</ele><time>2026-05-03T14:01:21.1Z</time></trkpt><trkpt lat="44.3030839" lon="7.3145345"><ele>732.0</ele><time>2026-05-03T14:01:22.101Z</time></trkpt><trkpt lat="44.3030278" lon="7.3147738"><ele>736.0</ele><time>2026-05-03T14:01:23.101Z</time></trkpt><trkpt lat="44.3029887" lon="7.3150338"><ele>740.0</ele><time>2026-05-03T14:01:24.1Z</time></trkpt><trkpt lat="44.3029366" lon="7.3152888"><ele>744.0</ele><time>2026-05-03T14:01:25.1Z</time></trkpt><trkpt lat="44.302864" lon="7.3155397"><ele>741.6666666666666</ele><time>2026-05-03T14:01:26.101Z</time></trkpt><trkpt lat="44.3027779" lon="7.3157868"><ele>739.3333333333333</ele><time>2026-05-03T14:01:27.101Z</time></trkpt><trkpt lat="44.3026949" lon="7.3160319"><ele>737.0</ele><time>2026-05-03T14:01:28.101Z</time></trkpt><trkpt lat="44.3026035" lon="7.3163002"><ele>733.6666666666666</ele><time>2026-05-03T14:01:29.101Z</time></trkpt><trkpt lat="44.3025141" lon="7.3165613"><ele>730.3333333333334</ele><time>2026-05-03T14:01:30.101Z</time></trkpt><trkpt lat="44.3024347" lon="7.3168282"><ele>727.0</ele><time>2026-05-03T14:01:31.101Z</time></trkpt><trkpt lat="44.302389" lon="7.3171271"><ele>726.3333333333334</ele><time>2026-05-03T14:01:32.101Z</time></trkpt><trkpt lat="44.3023257" lon="7.3174217"><ele>725.6666666666666</ele><time>2026-05-03T14:01:33.101Z</time></trkpt><trkpt lat="44.3022559" lon="7.3177151"><ele>725.0</ele><time>2026-05-03T14:01:34.101Z</time></trkpt><trkpt lat="44.3021884" lon="7.3180159"><ele>726.3333333333333</ele><time>2026-05-03T14:01:35.101Z</time></trkpt><trkpt lat="44.3021295" lon="7.3183198"><ele>727.6666666666666</ele><time>2026-05-03T14:01:36.101Z</time></trkpt><trkpt lat="44.3020639" lon="7.3185981"><ele>729.0</ele><time>2026-05-03T14:01:37.101Z</time></trkpt><trkpt lat="44.3019996" lon="7.318869"><ele>728.3333333333334</ele><time>2026-05-03T14:01:38.101Z</time></trkpt><trkpt lat="44.3019201" lon="7.3191323"><ele>727.6666666666667</ele><time>2026-05-03T14:01:39.101Z</time></trkpt><trkpt lat="44.3017982" lon="7.3194145"><ele>727.0</ele><time>2026-05-03T14:01:40.101Z</time></trkpt><trkpt lat="44.3016917" lon="7.3196787"><ele>726.3333333333334</ele><time>2026-05-03T14:01:41.101Z</time></trkpt><trkpt lat="44.3015759" lon="7.3199556"><ele>725.6666666666666</ele><time>2026-05-03T14:01:42.101Z</time></trkpt><trkpt lat="44.3014612" lon="7.3202107"><ele>725.0</ele><time>2026-05-03T14:01:43.101Z</time></trkpt><trkpt lat="44.3013522" lon="7.320463"><ele>726.3333333333333</ele><time>2026-05-03T14:01:44.101Z</time></trkpt><trkpt lat="44.3012433" lon="7.3206991"><ele>727.6666666666666</ele><time>2026-05-03T14:01:45.101Z</time></trkpt><trkpt lat="44.3011451" lon="7.3209184"><ele>729.0</ele><time>2026-05-03T14:01:46.1Z</time></trkpt><trkpt lat="44.3010456" lon="7.3211284"><ele>729.0</ele><time>2026-05-03T14:01:47.1Z</time></trkpt><trkpt lat="44.3009639" lon="7.321337"><ele>729.0</ele><time>2026-05-03T14:01:48.101Z</time></trkpt><trkpt lat="44.3008878" lon="7.3215447"><ele>729.0</ele><time>2026-05-03T14:01:49.101Z</time></trkpt><trkpt lat="44.3008303" lon="7.3217669"><ele>727.3333333333334</ele><time>2026-05-03T14:01:50.101Z</time></trkpt><trkpt lat="44.3007998" lon="7.3220199"><ele>725.6666666666667</ele><time>2026-05-03T14:01:51.101Z</time></trkpt><trkpt lat="44.3007631" lon="7.3222637"><ele>724.0</ele><time>2026-05-03T14:01:52.101Z</time></trkpt><trkpt lat="44.3008189" lon="7.3225934"><ele>723.6666666666667</ele><time>2026-05-03T14:01:53.101Z</time></trkpt><trkpt lat="44.3008464" lon="7.3229019"><ele>723.3333333333334</ele><time>2026-05-03T14:01:54.1Z</time></trkpt><trkpt lat="44.3008585" lon="7.3232059"><ele>723.0</ele><time>2026-05-03T14:01:55.1Z</time></trkpt><trkpt lat="44.3008887" lon="7.3235177"><ele>722.6666666666666</ele><time>2026-05-03T14:01:56.1Z</time></trkpt><trkpt lat="44.3009297" lon="7.3238328"><ele>722.3333333333333</ele><time>2026-05-03T14:01:57.1Z</time></trkpt><trkpt lat="44.3009627" lon="7.3241353"><ele>722.0</ele><time>2026-05-03T14:01:58.101Z</time></trkpt><trkpt lat="44.3009933" lon="7.3244337"><ele>721.6666666666666</ele><time>2026-05-03T14:01:59.1Z</time></trkpt><trkpt lat="44.3010223" lon="7.3247116"><ele>721.3333333333334</ele><time>2026-05-03T14:02:00.101Z</time></trkpt><trkpt lat="44.3010498" lon="7.3250004"><ele>721.0</ele><time>2026-05-03T14:02:01.1Z</time></trkpt><trkpt lat="44.3010754" lon="7.3252781"><ele>721.0</ele><time>2026-05-03T14:02:02.101Z</time></trkpt><trkpt lat="44.3010992" lon="7.3255554"><ele>721.0</ele><time>2026-05-03T14:02:03.1Z</time></trkpt><trkpt lat="44.301126" lon="7.3258152"><ele>721.0</ele><time>2026-05-03T14:02:04.101Z</time></trkpt><trkpt lat="44.3011432" lon="7.3260289"><ele>721.6666666666667</ele><time>2026-05-03T14:02:05.101Z</time></trkpt><trkpt lat="44.3011732" lon="7.326259"><ele>722.3333333333334</ele><time>2026-05-03T14:02:06.101Z</time></trkpt><trkpt lat="44.3012111" lon="7.3264713"><ele>723.0</ele><time>2026-05-03T14:02:07.101Z</time></trkpt><trkpt lat="44.3012527" lon="7.3266831"><ele>723.0</ele><time>2026-05-03T14:02:08.1Z</time></trkpt><trkpt lat="44.3013344" lon="7.3268823"><ele>723.0</ele><time>2026-05-03T14:02:09.101Z</time></trkpt><trkpt lat="44.3014163" lon="7.3270813"><ele>723.0</ele><time>2026-05-03T14:02:10.1Z</time></trkpt><trkpt lat="44.3015022" lon="7.3272775"><ele>723.0</ele><time>2026-05-03T14:02:11.1Z</time></trkpt><trkpt lat="44.3015772" lon="7.327469"><ele>723.0</ele><time>2026-05-03T14:02:12.101Z</time></trkpt><trkpt lat="44.3016454" lon="7.3276479"><ele>723.0</ele><time>2026-05-03T14:02:13.101Z</time></trkpt><trkpt lat="44.3017048" lon="7.3278141"><ele>723.0</ele><time>2026-05-03T14:02:14.101Z</time></trkpt><trkpt lat="44.3017749" lon="7.3279684"><ele>724.0</ele><time>2026-05-03T14:02:15.101Z</time></trkpt><trkpt lat="44.3018422" lon="7.3281289"><ele>725.0</ele><time>2026-05-03T14:02:16.1Z</time></trkpt><trkpt lat="44.3019081" lon="7.3283053"><ele>726.0</ele><time>2026-05-03T14:02:17.101Z</time></trkpt><trkpt lat="44.3019473" lon="7.3284481"><ele>727.0</ele><time>2026-05-03T14:02:18.101Z</time></trkpt><trkpt lat="44.3020096" lon="7.328583"><ele>727.0</ele><time>2026-05-03T14:02:19.101Z</time></trkpt><trkpt lat="44.3020726" lon="7.3287236"><ele>727.0</ele><time>2026-05-03T14:02:20.1Z</time></trkpt><trkpt lat="44.3021286" lon="7.3288719"><ele>727.0</ele><time>2026-05-03T14:02:21.101Z</time></trkpt><trkpt lat="44.3021835" lon="7.3290353"><ele>727.0</ele><time>2026-05-03T14:02:22.101Z</time></trkpt><trkpt lat="44.302244" lon="7.3291881"><ele>726.0</ele><time>2026-05-03T14:02:23.101Z</time></trkpt><trkpt lat="44.3022996" lon="7.3293423"><ele>725.0</ele><time>2026-05-03T14:02:24.101Z</time></trkpt><trkpt lat="44.3023603" lon="7.3294964"><ele>724.0</ele><time>2026-05-03T14:02:25.101Z</time></trkpt><trkpt lat="44.3024188" lon="7.3296677"><ele>723.0</ele><time>2026-05-03T14:02:26.101Z</time></trkpt><trkpt lat="44.3024746" lon="7.3298643"><ele>723.0</ele><time>2026-05-03T14:02:27.101Z</time></trkpt><trkpt lat="44.3025156" lon="7.330086"><ele>723.0</ele><time>2026-05-03T14:02:28.101Z</time></trkpt><trkpt lat="44.3025463" lon="7.3303085"><ele>723.0</ele><time>2026-05-03T14:02:29.101Z</time></trkpt><trkpt lat="44.3025788" lon="7.3305418"><ele>723.3333333333334</ele><time>2026-05-03T14:02:30.101Z</time></trkpt><trkpt lat="44.3026115" lon="7.3307544"><ele>723.6666666666667</ele><time>2026-05-03T14:02:31.101Z</time></trkpt><trkpt lat="44.3026425" lon="7.3309648"><ele>724.0</ele><time>2026-05-03T14:02:32.101Z</time></trkpt><trkpt lat="44.3026691" lon="7.331167"><ele>724.0</ele><time>2026-05-03T14:02:33.101Z</time></trkpt><trkpt lat="44.3026911" lon="7.3313606"><ele>724.0</ele><time>2026-05-03T14:02:34.101Z</time></trkpt><trkpt lat="44.3027026" lon="7.3315597"><ele>724.0</ele><time>2026-05-03T14:02:35.101Z</time></trkpt><trkpt lat="44.3027304" lon="7.3317631"><ele>724.0</ele><time>2026-05-03T14:02:36.101Z</time></trkpt><trkpt lat="44.302756" lon="7.3319735"><ele>724.0</ele><time>2026-05-03T14:02:37.101Z</time></trkpt><trkpt lat="44.3027571" lon="7.3321629"><ele>724.0</ele><time>2026-05-03T14:02:38.101Z</time></trkpt><trkpt lat="44.3027568" lon="7.3323426"><ele>724.0</ele><time>2026-05-03T14:02:39.101Z</time></trkpt><trkpt lat="44.3027492" lon="7.3325205"><ele>724.0</ele><time>2026-05-03T14:02:40.101Z</time></trkpt><trkpt lat="44.3027372" lon="7.3326776"><ele>724.0</ele><time>2026-05-03T14:02:41.1Z</time></trkpt><trkpt lat="44.3027046" lon="7.3328366"><ele>724.0</ele><time>2026-05-03T14:02:42.101Z</time></trkpt><trkpt lat="44.3026796" lon="7.3330007"><ele>724.0</ele><time>2026-05-03T14:02:43.101Z</time></trkpt><trkpt lat="44.3026356" lon="7.333169"><ele>724.0</ele><time>2026-05-03T14:02:44.101Z</time></trkpt><trkpt lat="44.3025912" lon="7.3333307"><ele>724.0</ele><time>2026-05-03T14:02:45.1Z</time></trkpt><trkpt lat="44.3025541" lon="7.3334753"><ele>724.0</ele><time>2026-05-03T14:02:46.101Z</time></trkpt><trkpt lat="44.3025185" lon="7.3336104"><ele>724.0</ele><time>2026-05-03T14:02:47.101Z</time></trkpt><trkpt lat="44.3024878" lon="7.3337438"><ele>724.0</ele><time>2026-05-03T14:02:48.101Z</time></trkpt><trkpt lat="44.3024586" lon="7.3338883"><ele>724.0</ele><time>2026-05-03T14:02:49.101Z</time></trkpt><trkpt lat="44.3024319" lon="7.3340402"><ele>723.75</ele><time>2026-05-03T14:02:50.101Z</time></trkpt><trkpt lat="44.3024126" lon="7.3342176"><ele>723.5</ele><time>2026-05-03T14:02:51.101Z</time></trkpt><trkpt lat="44.3023904" lon="7.3344069"><ele>723.25</ele><time>2026-05-03T14:02:52.101Z</time></trkpt><trkpt lat="44.3023685" lon="7.3345977"><ele>723.0</ele><time>2026-05-03T14:02:53.101Z</time></trkpt><trkpt lat="44.3023375" lon="7.3347807"><ele>722.5</ele><time>2026-05-03T14:02:54.101Z</time></trkpt><trkpt lat="44.3023292" lon="7.334952"><ele>722.0</ele><time>2026-05-03T14:02:55.1Z</time></trkpt><trkpt lat="44.3023174" lon="7.3351102"><ele>721.5</ele><time>2026-05-03T14:02:56.101Z</time></trkpt><trkpt lat="44.3023021" lon="7.335278"><ele>721.0</ele><time>2026-05-03T14:02:57.101Z</time></trkpt><trkpt lat="44.302314" lon="7.335446"><ele>722.75</ele><time>2026-05-03T14:02:58.101Z</time></trkpt><trkpt lat="44.3023379" lon="7.3356217"><ele>724.5</ele><time>2026-05-03T14:02:59.101Z</time></trkpt><trkpt lat="44.3023635" lon="7.3357877"><ele>726.25</ele><time>2026-05-03T14:03:00.101Z</time></trkpt><trkpt lat="44.3024087" lon="7.3359476"><ele>728.0</ele><time>2026-05-03T14:03:01.101Z</time></trkpt><trkpt lat="44.3024545" lon="7.3360888"><ele>728.0</ele><time>2026-05-03T14:03:02.101Z</time></trkpt><trkpt lat="44.3025049" lon="7.3362316"><ele>728.0</ele><time>2026-05-03T14:03:03.101Z</time></trkpt><trkpt lat="44.3025471" lon="7.3363701"><ele>728.0</ele><time>2026-05-03T14:03:04.101Z</time></trkpt><trkpt lat="44.302558" lon="7.336505"><ele>728.0</ele><time>2026-05-03T14:03:05.101Z</time></trkpt><trkpt lat="44.3025889" lon="7.3366914"><ele>728.75</ele><time>2026-05-03T14:03:06.101Z</time></trkpt><trkpt lat="44.3025942" lon="7.3368469"><ele>729.5</ele><time>2026-05-03T14:03:07.101Z</time></trkpt><trkpt lat="44.3026007" lon="7.3370171"><ele>730.25</ele><time>2026-05-03T14:03:08.101Z</time></trkpt><trkpt lat="44.3025959" lon="7.3371868"><ele>731.0</ele><time>2026-05-03T14:03:09.101Z</time></trkpt><trkpt lat="44.3025795" lon="7.3373618"><ele>731.0</ele><time>2026-05-03T14:03:10.101Z</time></trkpt><trkpt lat="44.3025592" lon="7.3375514"><ele>731.0</ele><time>2026-05-03T14:03:11.101Z</time></trkpt><trkpt lat="44.302527" lon="7.3377136"><ele>731.0</ele><time>2026-05-03T14:03:12.1Z</time></trkpt><trkpt lat="44.3025142" lon="7.3378838"><ele>731.0</ele><time>2026-05-03T14:03:13.101Z</time></trkpt><trkpt lat="44.3024828" lon="7.338034"><ele>730.5999999999999</ele><time>2026-05-03T14:03:14.101Z</time></trkpt><trkpt lat="44.3024479" lon="7.338173"><ele>730.2</ele><time>2026-05-03T14:03:15.101Z</time></trkpt><trkpt lat="44.3024231" lon="7.338307"><ele>729.8</ele><time>2026-05-03T14:03:16.101Z</time></trkpt><trkpt lat="44.3023726" lon="7.338417"><ele>729.4000000000001</ele><time>2026-05-03T14:03:17.1Z</time></trkpt><trkpt lat="44.3023089" lon="7.3385011"><ele>729.0</ele><time>2026-05-03T14:03:18.1Z</time></trkpt><trkpt lat="44.3022109" lon="7.3385528"><ele>729.0</ele><time>2026-05-03T14:03:19.101Z</time></trkpt><trkpt lat="44.3021058" lon="7.3385992"><ele>729.0</ele><time>2026-05-03T14:03:20.101Z</time></trkpt><trkpt lat="44.3020077" lon="7.338645"><ele>729.0</ele><time>2026-05-03T14:03:21.1Z</time></trkpt><trkpt lat="44.3019144" lon="7.3387139"><ele>729.0</ele><time>2026-05-03T14:03:22.101Z</time></trkpt><trkpt lat="44.3018258" lon="7.3387903"><ele>729.0</ele><time>2026-05-03T14:03:23.101Z</time></trkpt><trkpt lat="44.3017657" lon="7.3389405"><ele>728.6666666666666</ele><time>2026-05-03T14:03:24.1Z</time></trkpt><trkpt lat="44.3017279" lon="7.3391299"><ele>728.3333333333333</ele><time>2026-05-03T14:03:25.101Z</time></trkpt><trkpt lat="44.3017075" lon="7.3393418"><ele>728.0</ele><time>2026-05-03T14:03:26.101Z</time></trkpt><trkpt lat="44.3016824" lon="7.3395814"><ele>728.3333333333333</ele><time>2026-05-03T14:03:27.1Z</time></trkpt><trkpt lat="44.3016694" lon="7.3398504"><ele>728.6666666666666</ele><time>2026-05-03T14:03:28.101Z</time></trkpt><trkpt lat="44.3016721" lon="7.3401361"><ele>729.0</ele><time>2026-05-03T14:03:29.101Z</time></trkpt><trkpt lat="44.3016872" lon="7.3404146"><ele>729.0</ele><time>2026-05-03T14:03:30.101Z</time></trkpt><trkpt lat="44.3017051" lon="7.3406823"><ele>729.0</ele><time>2026-05-03T14:03:31.101Z</time></trkpt><trkpt lat="44.3017244" lon="7.3409403"><ele>729.0</ele><time>2026-05-03T14:03:32.1Z</time></trkpt><trkpt lat="44.3017448" lon="7.3411879"><ele>729.3333333333334</ele><time>2026-05-03T14:03:33.1Z</time></trkpt><trkpt lat="44.3017646" lon="7.3414215"><ele>729.6666666666667</ele><time>2026-05-03T14:03:34.1Z</time></trkpt><trkpt lat="44.3017797" lon="7.3416404"><ele>730.0</ele><time>2026-05-03T14:03:35.101Z</time></trkpt><trkpt lat="44.3018051" lon="7.3418582"><ele>730.0</ele><time>2026-05-03T14:03:36.1Z</time></trkpt><trkpt lat="44.3018197" lon="7.3420398"><ele>730.0</ele><time>2026-05-03T14:03:37.101Z</time></trkpt><trkpt lat="44.3018329" lon="7.3422146"><ele>730.0</ele><time>2026-05-03T14:03:38.101Z</time></trkpt><trkpt lat="44.3018368" lon="7.34237"><ele>730.0</ele><time>2026-05-03T14:03:39.101Z</time></trkpt><trkpt lat="44.3018459" lon="7.3425103"><ele>730.6</ele><time>2026-05-03T14:03:40.101Z</time></trkpt><trkpt lat="44.3018739" lon="7.3426604"><ele>731.2</ele><time>2026-05-03T14:03:42.101Z</time></trkpt><trkpt lat="44.3019378" lon="7.3427909"><ele>731.8</ele><time>2026-05-03T14:03:44.1Z</time></trkpt><trkpt lat="44.3020029" lon="7.3429119"><ele>732.4</ele><time>2026-05-03T14:03:45.101Z</time></trkpt><trkpt lat="44.3020702" lon="7.343021"><ele>733.0</ele><time>2026-05-03T14:03:46.101Z</time></trkpt><trkpt lat="44.3021274" lon="7.3431089"><ele>733.5</ele><time>2026-05-03T14:03:47.1Z</time></trkpt><trkpt lat="44.3021932" lon="7.3431835"><ele>734.0</ele><time>2026-05-03T14:03:48.101Z</time></trkpt><trkpt lat="44.3023076" lon="7.343202"><ele>734.5</ele><time>2026-05-03T14:03:49.101Z</time></trkpt><trkpt lat="44.3024649" lon="7.3431593"><ele>735.0</ele><time>2026-05-03T14:03:50.101Z</time></trkpt><trkpt lat="44.3025994" lon="7.34314"><ele>730.6666666666666</ele><time>2026-05-03T14:03:51.101Z</time></trkpt><trkpt lat="44.302785" lon="7.3431216"><ele>726.3333333333333</ele><time>2026-05-03T14:03:52.1Z</time></trkpt><trkpt lat="44.3029584" lon="7.3431202"><ele>722.0</ele><time>2026-05-03T14:03:53.101Z</time></trkpt><trkpt lat="44.3031403" lon="7.3431169"><ele>719.3333333333333</ele><time>2026-05-03T14:03:54.101Z</time></trkpt><trkpt lat="44.303324" lon="7.3431143"><ele>716.6666666666666</ele><time>2026-05-03T14:03:55.101Z</time></trkpt><trkpt lat="44.3034943" lon="7.343135"><ele>714.0</ele><time>2026-05-03T14:03:56.101Z</time></trkpt><trkpt lat="44.303653" lon="7.3431631"><ele>714.0</ele><time>2026-05-03T14:03:57.101Z</time></trkpt><trkpt lat="44.3038252" lon="7.3431937"><ele>714.0</ele><time>2026-05-03T14:03:58.101Z</time></trkpt><trkpt lat="44.3039942" lon="7.3432226"><ele>714.0</ele><time>2026-05-03T14:03:59.101Z</time></trkpt><trkpt lat="44.3041674" lon="7.343302"><ele>712.6666666666666</ele><time>2026-05-03T14:04:00.1Z</time></trkpt><trkpt lat="44.3043309" lon="7.3433913"><ele>711.3333333333333</ele><time>2026-05-03T14:04:01.101Z</time></trkpt><trkpt lat="44.3045034" lon="7.3434868"><ele>710.0</ele><time>2026-05-03T14:04:02.101Z</time></trkpt><trkpt lat="44.3046882" lon="7.3435816"><ele>708.6666666666666</ele><time>2026-05-03T14:04:03.101Z</time></trkpt><trkpt lat="44.3048931" lon="7.3436603"><ele>707.3333333333334</ele><time>2026-05-03T14:04:04.101Z</time></trkpt><trkpt lat="44.3050917" lon="7.3437334"><ele>706.0</ele><time>2026-05-03T14:04:05.1Z</time></trkpt><trkpt lat="44.3052986" lon="7.3437872"><ele>706.0</ele><time>2026-05-03T14:04:06.101Z</time></trkpt><trkpt lat="44.3054962" lon="7.3438424"><ele>706.0</ele><time>2026-05-03T14:04:07.101Z</time></trkpt><trkpt lat="44.3056946" lon="7.343889"><ele>706.0</ele><time>2026-05-03T14:04:08.101Z</time></trkpt><trkpt lat="44.3058906" lon="7.3439325"><ele>704.0</ele><time>2026-05-03T14:04:09.101Z</time></trkpt><trkpt lat="44.3060926" lon="7.3439683"><ele>702.0</ele><time>2026-05-03T14:04:10.1Z</time></trkpt><trkpt lat="44.3062911" lon="7.3440142"><ele>700.0</ele><time>2026-05-03T14:04:11.1Z</time></trkpt><trkpt lat="44.3064916" lon="7.3440495"><ele>698.6666666666667</ele><time>2026-05-03T14:04:12.101Z</time></trkpt><trkpt lat="44.3066934" lon="7.3440903"><ele>697.3333333333334</ele><time>2026-05-03T14:04:13.101Z</time></trkpt><trkpt lat="44.3068932" lon="7.3441279"><ele>696.0</ele><time>2026-05-03T14:04:14.1Z</time></trkpt><trkpt lat="44.3070887" lon="7.3441687"><ele>696.0</ele><time>2026-05-03T14:04:15.101Z</time></trkpt><trkpt lat="44.3072822" lon="7.344204"><ele>696.0</ele><time>2026-05-03T14:04:16.101Z</time></trkpt><trkpt lat="44.3074774" lon="7.3442376"><ele>696.0</ele><time>2026-05-03T14:04:17.101Z</time></trkpt><trkpt lat="44.3076709" lon="7.3442731"><ele>696.0</ele><time>2026-05-03T14:04:18.101Z</time></trkpt><trkpt lat="44.3078641" lon="7.3443057"><ele>696.0</ele><time>2026-05-03T14:04:19.101Z</time></trkpt><trkpt lat="44.3080516" lon="7.344337"><ele>696.0</ele><time>2026-05-03T14:04:20.101Z</time></trkpt><trkpt lat="44.3082446" lon="7.3443653"><ele>696.6666666666666</ele><time>2026-05-03T14:04:21.101Z</time></trkpt><trkpt lat="44.3084335" lon="7.3443857"><ele>697.3333333333333</ele><time>2026-05-03T14:04:22.1Z</time></trkpt><trkpt lat="44.3086235" lon="7.3443944"><ele>698.0</ele><time>2026-05-03T14:04:23.101Z</time></trkpt><trkpt lat="44.308828" lon="7.3444063"><ele>697.6666666666666</ele><time>2026-05-03T14:04:24.101Z</time></trkpt><trkpt lat="44.3090145" lon="7.3444297"><ele>697.3333333333334</ele><time>2026-05-03T14:04:25.101Z</time></trkpt><trkpt lat="44.3092058" lon="7.3444487"><ele>697.0</ele><time>2026-05-03T14:04:26.101Z</time></trkpt><trkpt lat="44.3093865" lon="7.3444629"><ele>697.0</ele><time>2026-05-03T14:04:27.101Z</time></trkpt><trkpt lat="44.3095956" lon="7.3444715"><ele>697.0</ele><time>2026-05-03T14:04:28.101Z</time></trkpt><trkpt lat="44.3097908" lon="7.3444961"><ele>697.0</ele><time>2026-05-03T14:04:29.1Z</time></trkpt><trkpt lat="44.3099869" lon="7.3445216"><ele>697.0</ele><time>2026-05-03T14:04:30.101Z</time></trkpt><trkpt lat="44.3101814" lon="7.3445449"><ele>697.0</ele><time>2026-05-03T14:04:31.101Z</time></trkpt><trkpt lat="44.3103757" lon="7.3445672"><ele>697.0</ele><time>2026-05-03T14:04:32.1Z</time></trkpt><trkpt lat="44.3105803" lon="7.3445923"><ele>697.0</ele><time>2026-05-03T14:04:33.101Z</time></trkpt><trkpt lat="44.310749" lon="7.3446175"><ele>697.0</ele><time>2026-05-03T14:04:34.101Z</time></trkpt><trkpt lat="44.3109393" lon="7.3446409"><ele>697.0</ele><time>2026-05-03T14:04:35.101Z</time></trkpt><trkpt lat="44.3111224" lon="7.3446624"><ele>697.0</ele><time>2026-05-03T14:04:36.101Z</time></trkpt><trkpt lat="44.3113095" lon="7.3446788"><ele>697.0</ele><time>2026-05-03T14:04:37.101Z</time></trkpt><trkpt lat="44.3114927" lon="7.3447009"><ele>697.0</ele><time>2026-05-03T14:04:38.101Z</time></trkpt><trkpt lat="44.3116658" lon="7.3447223"><ele>695.6666666666667</ele><time>2026-05-03T14:04:39.101Z</time></trkpt><trkpt lat="44.3118234" lon="7.3447459"><ele>694.3333333333334</ele><time>2026-05-03T14:04:40.101Z</time></trkpt><trkpt lat="44.3119796" lon="7.3447615"><ele>693.0</ele><time>2026-05-03T14:04:41.101Z</time></trkpt><trkpt lat="44.312132" lon="7.3447825"><ele>694.0</ele><time>2026-05-03T14:04:42.101Z</time></trkpt><trkpt lat="44.3122658" lon="7.3447983"><ele>695.0</ele><time>2026-05-03T14:04:43.101Z</time></trkpt><trkpt lat="44.3123813" lon="7.3448176"><ele>696.0</ele><time>2026-05-03T14:04:44.101Z</time></trkpt><trkpt lat="44.3124902" lon="7.3448338"><ele>697.0</ele><time>2026-05-03T14:04:45.1Z</time></trkpt><trkpt lat="44.312587" lon="7.3448569"><ele>697.0</ele><time>2026-05-03T14:04:46.101Z</time></trkpt><trkpt lat="44.3126722" lon="7.3448903"><ele>697.0</ele><time>2026-05-03T14:04:47.101Z</time></trkpt><trkpt lat="44.3127527" lon="7.3449419"><ele>697.0</ele><time>2026-05-03T14:04:48.101Z</time></trkpt><trkpt lat="44.3127891" lon="7.345064"><ele>697.0</ele><time>2026-05-03T14:04:49.101Z</time></trkpt><trkpt lat="44.3128157" lon="7.3451998"><ele>697.0</ele><time>2026-05-03T14:04:50.101Z</time></trkpt><trkpt lat="44.312813" lon="7.3453715"><ele>696.3333333333334</ele><time>2026-05-03T14:04:51.101Z</time></trkpt><trkpt lat="44.3127838" lon="7.3455575"><ele>695.6666666666666</ele><time>2026-05-03T14:04:52.1Z</time></trkpt><trkpt lat="44.3127588" lon="7.3457757"><ele>695.0</ele><time>2026-05-03T14:04:53.101Z</time></trkpt><trkpt lat="44.3127215" lon="7.3459894"><ele>695.0</ele><time>2026-05-03T14:04:54.101Z</time></trkpt><trkpt lat="44.3126892" lon="7.3462675"><ele>695.0</ele><time>2026-05-03T14:04:55.101Z</time></trkpt><trkpt lat="44.3126491" lon="7.3465333"><ele>695.0</ele><time>2026-05-03T14:04:56.101Z</time></trkpt><trkpt lat="44.3126129" lon="7.3468154"><ele>695.0</ele><time>2026-05-03T14:04:57.101Z</time></trkpt><trkpt lat="44.3125759" lon="7.3470939"><ele>695.0</ele><time>2026-05-03T14:04:58.101Z</time></trkpt><trkpt lat="44.3125344" lon="7.3473754"><ele>695.0</ele><time>2026-05-03T14:04:59.1Z</time></trkpt><trkpt lat="44.3124942" lon="7.347656"><ele>695.0</ele><time>2026-05-03T14:05:00.1Z</time></trkpt><trkpt lat="44.3124528" lon="7.3479429"><ele>695.0</ele><time>2026-05-03T14:05:01.101Z</time></trkpt><trkpt lat="44.3124113" lon="7.3482398"><ele>695.0</ele><time>2026-05-03T14:05:02.1Z</time></trkpt><trkpt lat="44.3123658" lon="7.3485293"><ele>694.6666666666666</ele><time>2026-05-03T14:05:03.101Z</time></trkpt><trkpt lat="44.3123273" lon="7.3488348"><ele>694.3333333333334</ele><time>2026-05-03T14:05:04.101Z</time></trkpt><trkpt lat="44.3122901" lon="7.3491221"><ele>694.0</ele><time>2026-05-03T14:05:05.101Z</time></trkpt><trkpt lat="44.3122484" lon="7.3494109"><ele>693.3333333333334</ele><time>2026-05-03T14:05:06.1Z</time></trkpt><trkpt lat="44.3122053" lon="7.3497041"><ele>692.6666666666666</ele><time>2026-05-03T14:05:07.101Z</time></trkpt><trkpt lat="44.3121647" lon="7.350007"><ele>692.0</ele><time>2026-05-03T14:05:08.101Z</time></trkpt><trkpt lat="44.3121205" lon="7.3503049"><ele>692.0</ele><time>2026-05-03T14:05:09.101Z</time></trkpt><trkpt lat="44.3120719" lon="7.350603"><ele>692.0</ele><time>2026-05-03T14:05:10.101Z</time></trkpt><trkpt lat="44.3120307" lon="7.3509038"><ele>692.0</ele><time>2026-05-03T14:05:11.101Z</time></trkpt><trkpt lat="44.3119871" lon="7.3512041"><ele>692.3333333333333</ele><time>2026-05-03T14:05:12.101Z</time></trkpt><trkpt lat="44.311941" lon="7.3515098"><ele>692.6666666666666</ele><time>2026-05-03T14:05:13.1Z</time></trkpt><trkpt lat="44.311896" lon="7.3518057"><ele>693.0</ele><time>2026-05-03T14:05:14.101Z</time></trkpt><trkpt lat="44.3118515" lon="7.3521118"><ele>693.3333333333334</ele><time>2026-05-03T14:05:15.101Z</time></trkpt><trkpt lat="44.3118065" lon="7.3524181"><ele>693.6666666666667</ele><time>2026-05-03T14:05:16.101Z</time></trkpt><trkpt lat="44.3117678" lon="7.3527216"><ele>694.0</ele><time>2026-05-03T14:05:17.1Z</time></trkpt><trkpt lat="44.3117263" lon="7.3530338"><ele>695.5</ele><time>2026-05-03T14:05:18.101Z</time></trkpt><trkpt lat="44.3116832" lon="7.3533481"><ele>697.0</ele><time>2026-05-03T14:05:19.101Z</time></trkpt><trkpt lat="44.3116443" lon="7.3536541"><ele>698.5</ele><time>2026-05-03T14:05:20.101Z</time></trkpt><trkpt lat="44.3115994" lon="7.353965"><ele>700.0</ele><time>2026-05-03T14:05:21.101Z</time></trkpt><trkpt lat="44.3115521" lon="7.3542714"><ele>700.0</ele><time>2026-05-03T14:05:22.101Z</time></trkpt><trkpt lat="44.3115064" lon="7.354578"><ele>700.0</ele><time>2026-05-03T14:05:23.101Z</time></trkpt><trkpt lat="44.3114643" lon="7.3548844"><ele>700.0</ele><time>2026-05-03T14:05:24.101Z</time></trkpt><trkpt lat="44.3114147" lon="7.3551902"><ele>695.0</ele><time>2026-05-03T14:05:25.1Z</time></trkpt><trkpt lat="44.3113725" lon="7.3555006"><ele>690.0</ele><time>2026-05-03T14:05:26.101Z</time></trkpt><trkpt lat="44.3113292" lon="7.3558087"><ele>690.0</ele><time>2026-05-03T14:05:27.101Z</time></trkpt><trkpt lat="44.3112862" lon="7.3561183"><ele>690.0</ele><time>2026-05-03T14:05:28.101Z</time></trkpt><trkpt lat="44.311254" lon="7.3564296"><ele>690.0</ele><time>2026-05-03T14:05:29.1Z</time></trkpt><trkpt lat="44.3112239" lon="7.3567315"><ele>690.0</ele><time>2026-05-03T14:05:30.101Z</time></trkpt><trkpt lat="44.3111978" lon="7.3570513"><ele>690.0</ele><time>2026-05-03T14:05:31.1Z</time></trkpt><trkpt lat="44.3111686" lon="7.3573629"><ele>690.0</ele><time>2026-05-03T14:05:32.1Z</time></trkpt><trkpt lat="44.3111469" lon="7.3576761"><ele>690.0</ele><time>2026-05-03T14:05:33.101Z</time></trkpt><trkpt lat="44.3111275" lon="7.3580092"><ele>689.5</ele><time>2026-05-03T14:05:34.101Z</time></trkpt><trkpt lat="44.311099" lon="7.3583329"><ele>689.0</ele><time>2026-05-03T14:05:35.101Z</time></trkpt><trkpt lat="44.3110693" lon="7.358659"><ele>688.5</ele><time>2026-05-03T14:05:36.101Z</time></trkpt><trkpt lat="44.3110453" lon="7.3589902"><ele>688.0</ele><time>2026-05-03T14:05:37.101Z</time></trkpt><trkpt lat="44.3110298" lon="7.3593319"><ele>688.0</ele><time>2026-05-03T14:05:38.1Z</time></trkpt><trkpt lat="44.3110038" lon="7.3596691"><ele>688.0</ele><time>2026-05-03T14:05:39.101Z</time></trkpt><trkpt lat="44.310977" lon="7.3599889"><ele>688.5</ele><time>2026-05-03T14:05:40.101Z</time></trkpt><trkpt lat="44.3109467" lon="7.3603174"><ele>689.0</ele><time>2026-05-03T14:05:41.101Z</time></trkpt><trkpt lat="44.3109128" lon="7.3606655"><ele>689.0</ele><time>2026-05-03T14:05:42.101Z</time></trkpt><trkpt lat="44.3108798" lon="7.3609898"><ele>689.0</ele><time>2026-05-03T14:05:43.101Z</time></trkpt><trkpt lat="44.31085" lon="7.3613294"><ele>689.0</ele><time>2026-05-03T14:05:44.1Z</time></trkpt><trkpt lat="44.3108243" lon="7.3616656"><ele>689.0</ele><time>2026-05-03T14:05:45.101Z</time></trkpt><trkpt lat="44.3107947" lon="7.361991"><ele>688.0</ele><time>2026-05-03T14:05:46.101Z</time></trkpt><trkpt lat="44.3107648" lon="7.3623147"><ele>687.0</ele><time>2026-05-03T14:05:47.1Z</time></trkpt><trkpt lat="44.3107317" lon="7.3626355"><ele>687.0</ele><time>2026-05-03T14:05:48.101Z</time></trkpt><trkpt lat="44.3106949" lon="7.3629482"><ele>687.0</ele><time>2026-05-03T14:05:49.101Z</time></trkpt><trkpt lat="44.3106667" lon="7.363279"><ele>685.5</ele><time>2026-05-03T14:05:50.101Z</time></trkpt><trkpt lat="44.3106426" lon="7.3635983"><ele>684.0</ele><time>2026-05-03T14:05:51.101Z</time></trkpt><trkpt lat="44.3106086" lon="7.3639182"><ele>684.0</ele><time>2026-05-03T14:05:52.101Z</time></trkpt><trkpt lat="44.3105835" lon="7.3642431"><ele>684.0</ele><time>2026-05-03T14:05:53.101Z</time></trkpt><trkpt lat="44.3105499" lon="7.3645586"><ele>682.5</ele><time>2026-05-03T14:05:54.101Z</time></trkpt><trkpt lat="44.3105282" lon="7.3648748"><ele>681.0</ele><time>2026-05-03T14:05:55.101Z</time></trkpt><trkpt lat="44.3104978" lon="7.3651954"><ele>681.0</ele><time>2026-05-03T14:05:56.101Z</time></trkpt><trkpt lat="44.3104693" lon="7.3655131"><ele>681.0</ele><time>2026-05-03T14:05:57.101Z</time></trkpt><trkpt lat="44.3104443" lon="7.3658214"><ele>681.5</ele><time>2026-05-03T14:05:58.101Z</time></trkpt><trkpt lat="44.3104193" lon="7.3661344"><ele>682.0</ele><time>2026-05-03T14:05:59.101Z</time></trkpt><trkpt lat="44.3103947" lon="7.3664485"><ele>682.0</ele><time>2026-05-03T14:06:00.101Z</time></trkpt><trkpt lat="44.3103764" lon="7.3667638"><ele>682.0</ele><time>2026-05-03T14:06:01.101Z</time></trkpt><trkpt lat="44.3103579" lon="7.367074"><ele>682.0</ele><time>2026-05-03T14:06:02.1Z</time></trkpt><trkpt lat="44.3103821" lon="7.3673988"><ele>682.0</ele><time>2026-05-03T14:06:03.101Z</time></trkpt><trkpt lat="44.3104168" lon="7.3677167"><ele>682.0</ele><time>2026-05-03T14:06:04.101Z</time></trkpt><trkpt lat="44.3104481" lon="7.3680379"><ele>680.5</ele><time>2026-05-03T14:06:05.1Z</time></trkpt><trkpt lat="44.3105197" lon="7.3683498"><ele>679.0</ele><time>2026-05-03T14:06:06.101Z</time></trkpt><trkpt lat="44.3105865" lon="7.3686588"><ele>681.0</ele><time>2026-05-03T14:06:07.101Z</time></trkpt><trkpt lat="44.3106561" lon="7.3689567"><ele>683.0</ele><time>2026-05-03T14:06:08.101Z</time></trkpt><trkpt lat="44.3107217" lon="7.3692483"><ele>685.0</ele><time>2026-05-03T14:06:09.101Z</time></trkpt><trkpt lat="44.3107909" lon="7.3695314"><ele>684.3333333333334</ele><time>2026-05-03T14:06:10.1Z</time></trkpt><trkpt lat="44.3108603" lon="7.3698157"><ele>683.6666666666666</ele><time>2026-05-03T14:06:11.101Z</time></trkpt><trkpt lat="44.3109238" lon="7.370101"><ele>683.0</ele><time>2026-05-03T14:06:12.1Z</time></trkpt><trkpt lat="44.3109884" lon="7.3703765"><ele>682.6666666666666</ele><time>2026-05-03T14:06:13.101Z</time></trkpt><trkpt lat="44.3110552" lon="7.370651"><ele>682.3333333333334</ele><time>2026-05-03T14:06:14.101Z</time></trkpt><trkpt lat="44.3111194" lon="7.3709308"><ele>682.0</ele><time>2026-05-03T14:06:15.1Z</time></trkpt><trkpt lat="44.3111839" lon="7.3712053"><ele>681.0</ele><time>2026-05-03T14:06:16.1Z</time></trkpt><trkpt lat="44.3112491" lon="7.3714857"><ele>680.0</ele><time>2026-05-03T14:06:17.1Z</time></trkpt><trkpt lat="44.3113119" lon="7.3717649"><ele>679.0</ele><time>2026-05-03T14:06:18.101Z</time></trkpt><trkpt lat="44.3113836" lon="7.3720545"><ele>681.5</ele><time>2026-05-03T14:06:19.101Z</time></trkpt><trkpt lat="44.3114593" lon="7.3723516"><ele>684.0</ele><time>2026-05-03T14:06:20.101Z</time></trkpt><trkpt lat="44.3115399" lon="7.3726592"><ele>684.0</ele><time>2026-05-03T14:06:21.1Z</time></trkpt><trkpt lat="44.3116143" lon="7.3729642"><ele>684.0</ele><time>2026-05-03T14:06:22.101Z</time></trkpt><trkpt lat="44.3116865" lon="7.3732723"><ele>682.0</ele><time>2026-05-03T14:06:23.101Z</time></trkpt><trkpt lat="44.3117538" lon="7.3735868"><ele>680.0</ele><time>2026-05-03T14:06:24.101Z</time></trkpt><trkpt lat="44.3118221" lon="7.3739031"><ele>679.0</ele><time>2026-05-03T14:06:25.101Z</time></trkpt><trkpt lat="44.3118884" lon="7.3742227"><ele>678.0</ele><time>2026-05-03T14:06:26.101Z</time></trkpt><trkpt lat="44.3119572" lon="7.3745421"><ele>676.5</ele><time>2026-05-03T14:06:27.101Z</time></trkpt><trkpt lat="44.3120309" lon="7.3748523"><ele>675.0</ele><time>2026-05-03T14:06:28.101Z</time></trkpt><trkpt lat="44.3121011" lon="7.3751636"><ele>675.0</ele><time>2026-05-03T14:06:29.101Z</time></trkpt><trkpt lat="44.3121751" lon="7.3754692"><ele>675.0</ele><time>2026-05-03T14:06:30.101Z</time></trkpt><trkpt lat="44.3122549" lon="7.3757824"><ele>680.0</ele><time>2026-05-03T14:06:31.101Z</time></trkpt><trkpt lat="44.3123267" lon="7.3760869"><ele>685.0</ele><time>2026-05-03T14:06:32.101Z</time></trkpt><trkpt lat="44.3124012" lon="7.3763823"><ele>685.0</ele><time>2026-05-03T14:06:33.101Z</time></trkpt><trkpt lat="44.3124759" lon="7.3766817"><ele>685.0</ele><time>2026-05-03T14:06:34.101Z</time></trkpt><trkpt lat="44.3125456" lon="7.3769771"><ele>685.0</ele><time>2026-05-03T14:06:35.101Z</time></trkpt><trkpt lat="44.3126176" lon="7.3772696"><ele>684.0</ele><time>2026-05-03T14:06:36.101Z</time></trkpt><trkpt lat="44.3126895" lon="7.3775578"><ele>683.0</ele><time>2026-05-03T14:06:37.101Z</time></trkpt><trkpt lat="44.3127601" lon="7.3778484"><ele>682.0</ele><time>2026-05-03T14:06:38.101Z</time></trkpt><trkpt lat="44.312833" lon="7.3781477"><ele>680.0</ele><time>2026-05-03T14:06:39.1Z</time></trkpt><trkpt lat="44.3129062" lon="7.3784381"><ele>678.0</ele><time>2026-05-03T14:06:40.101Z</time></trkpt><trkpt lat="44.3129728" lon="7.3787256"><ele>676.0</ele><time>2026-05-03T14:06:41.101Z</time></trkpt><trkpt lat="44.3130376" lon="7.3790035"><ele>680.0</ele><time>2026-05-03T14:06:42.101Z</time></trkpt><trkpt lat="44.3131021" lon="7.3792789"><ele>684.0</ele><time>2026-05-03T14:06:43.101Z</time></trkpt><trkpt lat="44.3131641" lon="7.3795587"><ele>688.0</ele><time>2026-05-03T14:06:44.101Z</time></trkpt><trkpt lat="44.3132181" lon="7.3798324"><ele>688.0</ele><time>2026-05-03T14:06:45.101Z</time></trkpt><trkpt lat="44.3132698" lon="7.3801362"><ele>688.0</ele><time>2026-05-03T14:06:46.101Z</time></trkpt><trkpt lat="44.3133124" lon="7.380431"><ele>688.0</ele><time>2026-05-03T14:06:47.1Z</time></trkpt><trkpt lat="44.3133563" lon="7.3807245"><ele>687.6666666666667</ele><time>2026-05-03T14:06:48.1Z</time></trkpt><trkpt lat="44.3133926" lon="7.3809973"><ele>687.3333333333334</ele><time>2026-05-03T14:06:49.101Z</time></trkpt><trkpt lat="44.3134307" lon="7.3812573"><ele>687.0</ele><time>2026-05-03T14:06:50.101Z</time></trkpt><trkpt lat="44.3134689" lon="7.3815105"><ele>685.3333333333334</ele><time>2026-05-03T14:06:51.1Z</time></trkpt><trkpt lat="44.3135074" lon="7.3817475"><ele>683.6666666666667</ele><time>2026-05-03T14:06:52.101Z</time></trkpt><trkpt lat="44.313543" lon="7.3819752"><ele>682.0</ele><time>2026-05-03T14:06:53.101Z</time></trkpt><trkpt lat="44.3135755" lon="7.3821984"><ele>680.3333333333334</ele><time>2026-05-03T14:06:54.101Z</time></trkpt><trkpt lat="44.3136128" lon="7.3824221"><ele>678.6666666666666</ele><time>2026-05-03T14:06:55.1Z</time></trkpt><trkpt lat="44.3136492" lon="7.3826484"><ele>677.0</ele><time>2026-05-03T14:06:56.101Z</time></trkpt><trkpt lat="44.3136976" lon="7.3828776"><ele>676.0</ele><time>2026-05-03T14:06:57.101Z</time></trkpt><trkpt lat="44.3137592" lon="7.3830853"><ele>675.0</ele><time>2026-05-03T14:06:58.101Z</time></trkpt><trkpt lat="44.3138258" lon="7.3832809"><ele>674.0</ele><time>2026-05-03T14:06:59.101Z</time></trkpt><trkpt lat="44.3138925" lon="7.3834777"><ele>673.6666666666666</ele><time>2026-05-03T14:07:00.101Z</time></trkpt><trkpt lat="44.3139889" lon="7.3836427"><ele>673.3333333333334</ele><time>2026-05-03T14:07:01.101Z</time></trkpt><trkpt lat="44.3140792" lon="7.3838172"><ele>673.0</ele><time>2026-05-03T14:07:02.101Z</time></trkpt><trkpt lat="44.3141659" lon="7.3839915"><ele>673.0</ele><time>2026-05-03T14:07:03.101Z</time></trkpt><trkpt lat="44.3142495" lon="7.3841451"><ele>673.0</ele><time>2026-05-03T14:07:04.101Z</time></trkpt><trkpt lat="44.3143341" lon="7.384303"><ele>673.0</ele><time>2026-05-03T14:07:05.101Z</time></trkpt><trkpt lat="44.3144306" lon="7.3844541"><ele>673.0</ele><time>2026-05-03T14:07:06.101Z</time></trkpt><trkpt lat="44.3145264" lon="7.3846097"><ele>671.3333333333334</ele><time>2026-05-03T14:07:07.101Z</time></trkpt><trkpt lat="44.3146235" lon="7.3847677"><ele>669.6666666666666</ele><time>2026-05-03T14:07:08.101Z</time></trkpt><trkpt lat="44.3147081" lon="7.3849383"><ele>668.0</ele><time>2026-05-03T14:07:09.1Z</time></trkpt><trkpt lat="44.3148014" lon="7.3851097"><ele>672.0</ele><time>2026-05-03T14:07:10.101Z</time></trkpt><trkpt lat="44.3149407" lon="7.3852507"><ele>676.0</ele><time>2026-05-03T14:07:11.101Z</time></trkpt><trkpt lat="44.3150778" lon="7.3854203"><ele>680.0</ele><time>2026-05-03T14:07:12.101Z</time></trkpt><trkpt lat="44.3152581" lon="7.3854844"><ele>679.6666666666666</ele><time>2026-05-03T14:07:13.101Z</time></trkpt><trkpt lat="44.3154142" lon="7.3855848"><ele>679.3333333333334</ele><time>2026-05-03T14:07:14.101Z</time></trkpt><trkpt lat="44.3155718" lon="7.3857085"><ele>679.0</ele><time>2026-05-03T14:07:15.101Z</time></trkpt><trkpt lat="44.315736" lon="7.3858194"><ele>679.0</ele><time>2026-05-03T14:07:16.101Z</time></trkpt><trkpt lat="44.3159128" lon="7.3859209"><ele>679.0</ele><time>2026-05-03T14:07:17.101Z</time></trkpt><trkpt lat="44.3161094" lon="7.3860204"><ele>679.0</ele><time>2026-05-03T14:07:18.101Z</time></trkpt><trkpt lat="44.3163104" lon="7.386108"><ele>682.6666666666667</ele><time>2026-05-03T14:07:19.101Z</time></trkpt><trkpt lat="44.3164892" lon="7.386145"><ele>686.3333333333334</ele><time>2026-05-03T14:07:20.1Z</time></trkpt><trkpt lat="44.3166568" lon="7.3861921"><ele>690.0</ele><time>2026-05-03T14:07:21.101Z</time></trkpt><trkpt lat="44.3168155" lon="7.3862471"><ele>690.0</ele><time>2026-05-03T14:07:22.101Z</time></trkpt><trkpt lat="44.3169641" lon="7.3863202"><ele>690.0</ele><time>2026-05-03T14:07:23.101Z</time></trkpt><trkpt lat="44.3171038" lon="7.3864008"><ele>690.0</ele><time>2026-05-03T14:07:24.101Z</time></trkpt><trkpt lat="44.3172397" lon="7.3864959"><ele>689.0</ele><time>2026-05-03T14:07:25.1Z</time></trkpt><trkpt lat="44.3173618" lon="7.3866089"><ele>688.0</ele><time>2026-05-03T14:07:26.101Z</time></trkpt><trkpt lat="44.3174739" lon="7.3867128"><ele>687.0</ele><time>2026-05-03T14:07:27.1Z</time></trkpt><trkpt lat="44.3175705" lon="7.386819"><ele>686.0</ele><time>2026-05-03T14:07:28.101Z</time></trkpt><trkpt lat="44.3176632" lon="7.3869232"><ele>686.0</ele><time>2026-05-03T14:07:29.101Z</time></trkpt><trkpt lat="44.3177543" lon="7.387029"><ele>686.0</ele><time>2026-05-03T14:07:30.101Z</time></trkpt><trkpt lat="44.3178293" lon="7.3871108"><ele>686.0</ele><time>2026-05-03T14:07:31.1Z</time></trkpt><trkpt lat="44.3179008" lon="7.3872043"><ele>686.0</ele><time>2026-05-03T14:07:32.101Z</time></trkpt><trkpt lat="44.3179673" lon="7.3872881"><ele>686.0</ele><time>2026-05-03T14:07:33.101Z</time></trkpt><trkpt lat="44.3180318" lon="7.3873903"><ele>686.0</ele><time>2026-05-03T14:07:34.101Z</time></trkpt><trkpt lat="44.3180979" lon="7.3874959"><ele>686.0</ele><time>2026-05-03T14:07:35.101Z</time></trkpt><trkpt lat="44.3181411" lon="7.3875726"><ele>686.0</ele><time>2026-05-03T14:07:36.101Z</time></trkpt><trkpt lat="44.3181949" lon="7.3876449"><ele>686.0</ele><time>2026-05-03T14:07:37.101Z</time></trkpt><trkpt lat="44.3182626" lon="7.3877552"><ele>686.0</ele><time>2026-05-03T14:07:38.1Z</time></trkpt><trkpt lat="44.318324" lon="7.387858"><ele>686.0</ele><time>2026-05-03T14:07:39.101Z</time></trkpt><trkpt lat="44.3183842" lon="7.3879621"><ele>685.5999999999999</ele><time>2026-05-03T14:07:40.101Z</time></trkpt><trkpt lat="44.3184505" lon="7.3880665"><ele>685.2</ele><time>2026-05-03T14:07:41.101Z</time></trkpt><trkpt lat="44.318514" lon="7.3881707"><ele>684.8</ele><time>2026-05-03T14:07:42.101Z</time></trkpt><trkpt lat="44.3185805" lon="7.3882697"><ele>684.4000000000001</ele><time>2026-05-03T14:07:43.101Z</time></trkpt><trkpt lat="44.3186471" lon="7.3883724"><ele>684.0</ele><time>2026-05-03T14:07:44.1Z</time></trkpt><trkpt lat="44.3187086" lon="7.3884846"><ele>684.0</ele><time>2026-05-03T14:07:45.101Z</time></trkpt><trkpt lat="44.3187767" lon="7.3885967"><ele>684.0</ele><time>2026-05-03T14:07:46.101Z</time></trkpt><trkpt lat="44.318844" lon="7.3887028"><ele>684.0</ele><time>2026-05-03T14:07:47.101Z</time></trkpt><trkpt lat="44.3189184" lon="7.3888089"><ele>684.0</ele><time>2026-05-03T14:07:48.101Z</time></trkpt><trkpt lat="44.3190167" lon="7.3889141"><ele>684.0</ele><time>2026-05-03T14:07:49.101Z</time></trkpt><trkpt lat="44.319096" lon="7.3890331"><ele>685.0</ele><time>2026-05-03T14:07:50.101Z</time></trkpt><trkpt lat="44.3191788" lon="7.3891362"><ele>686.0</ele><time>2026-05-03T14:07:51.101Z</time></trkpt><trkpt lat="44.3192606" lon="7.3892433"><ele>687.0</ele><time>2026-05-03T14:07:52.101Z</time></trkpt><trkpt lat="44.3193397" lon="7.3893514"><ele>688.0</ele><time>2026-05-03T14:07:53.101Z</time></trkpt><trkpt lat="44.3194148" lon="7.3894481"><ele>689.0</ele><time>2026-05-03T14:07:54.101Z</time></trkpt><trkpt lat="44.3195001" lon="7.3895464"><ele>689.0</ele><time>2026-05-03T14:07:55.1Z</time></trkpt><trkpt lat="44.3195873" lon="7.3896492"><ele>689.0</ele><time>2026-05-03T14:07:56.101Z</time></trkpt><trkpt lat="44.3196725" lon="7.3897417"><ele>689.0</ele><time>2026-05-03T14:07:57.101Z</time></trkpt><trkpt lat="44.3197505" lon="7.3898418"><ele>689.0</ele><time>2026-05-03T14:07:58.1Z</time></trkpt><trkpt lat="44.319843" lon="7.389931"><ele>689.0</ele><time>2026-05-03T14:07:59.101Z</time></trkpt><trkpt lat="44.3199426" lon="7.3900206"><ele>689.0</ele><time>2026-05-03T14:08:00.101Z</time></trkpt><trkpt lat="44.3200422" lon="7.3901103"><ele>689.0</ele><time>2026-05-03T14:08:01.1Z</time></trkpt><trkpt lat="44.320134" lon="7.3901946"><ele>689.0</ele><time>2026-05-03T14:08:02.1Z</time></trkpt><trkpt lat="44.3202377" lon="7.3902822"><ele>689.0</ele><time>2026-05-03T14:08:03.101Z</time></trkpt><trkpt lat="44.3203449" lon="7.3903728"><ele>689.0</ele><time>2026-05-03T14:08:04.101Z</time></trkpt><trkpt lat="44.320447" lon="7.3904702"><ele>689.0</ele><time>2026-05-03T14:08:05.101Z</time></trkpt><trkpt lat="44.3205648" lon="7.3905745"><ele>689.0</ele><time>2026-05-03T14:08:06.101Z</time></trkpt><trkpt lat="44.3207054" lon="7.3906788"><ele>689.0</ele><time>2026-05-03T14:08:07.101Z</time></trkpt><trkpt lat="44.3208532" lon="7.3907935"><ele>688.3333333333333</ele><time>2026-05-03T14:08:08.101Z</time></trkpt><trkpt lat="44.3210136" lon="7.3909151"><ele>687.6666666666666</ele><time>2026-05-03T14:08:09.101Z</time></trkpt><trkpt lat="44.3211903" lon="7.3910538"><ele>687.0</ele><time>2026-05-03T14:08:10.101Z</time></trkpt><trkpt lat="44.3213721" lon="7.3912153"><ele>685.5</ele><time>2026-05-03T14:08:11.101Z</time></trkpt><trkpt lat="44.3215649" lon="7.3913841"><ele>684.0</ele><time>2026-05-03T14:08:12.101Z</time></trkpt><trkpt lat="44.3217688" lon="7.3915596"><ele>684.0</ele><time>2026-05-03T14:08:13.101Z</time></trkpt><trkpt lat="44.3219796" lon="7.391739"><ele>684.0</ele><time>2026-05-03T14:08:14.101Z</time></trkpt><trkpt lat="44.3221963" lon="7.3919215"><ele>686.5</ele><time>2026-05-03T14:08:15.101Z</time></trkpt><trkpt lat="44.3223973" lon="7.3921029"><ele>689.0</ele><time>2026-05-03T14:08:16.1Z</time></trkpt><trkpt lat="44.3225957" lon="7.3922928"><ele>689.0</ele><time>2026-05-03T14:08:17.101Z</time></trkpt><trkpt lat="44.3227941" lon="7.3924753"><ele>689.0</ele><time>2026-05-03T14:08:18.1Z</time></trkpt><trkpt lat="44.3229648" lon="7.3926213"><ele>689.0</ele><time>2026-05-03T14:08:19.101Z</time></trkpt><trkpt lat="44.3231345" lon="7.3927719"><ele>688.0</ele><time>2026-05-03T14:08:20.101Z</time></trkpt><trkpt lat="44.323302" lon="7.3929344"><ele>687.0</ele><time>2026-05-03T14:08:21.101Z</time></trkpt><trkpt lat="44.3234797" lon="7.3930717"><ele>686.0</ele><time>2026-05-03T14:08:22.101Z</time></trkpt><trkpt lat="44.3236616" lon="7.3932339"><ele>686.0</ele><time>2026-05-03T14:08:23.101Z</time></trkpt><trkpt lat="44.323835" lon="7.3933861"><ele>686.0</ele><time>2026-05-03T14:08:24.101Z</time></trkpt><trkpt lat="44.3240037" lon="7.3935453"><ele>686.0</ele><time>2026-05-03T14:08:25.101Z</time></trkpt><trkpt lat="44.3241614" lon="7.3937086"><ele>688.3333333333333</ele><time>2026-05-03T14:08:26.101Z</time></trkpt><trkpt lat="44.3243067" lon="7.3939383"><ele>690.6666666666666</ele><time>2026-05-03T14:08:27.1Z</time></trkpt><trkpt lat="44.3244397" lon="7.3941865"><ele>693.0</ele><time>2026-05-03T14:08:28.101Z</time></trkpt><trkpt lat="44.324576" lon="7.3944254"><ele>689.3333333333334</ele><time>2026-05-03T14:08:29.101Z</time></trkpt><trkpt lat="44.3246942" lon="7.3946837"><ele>685.6666666666667</ele><time>2026-05-03T14:08:30.101Z</time></trkpt><trkpt lat="44.3248096" lon="7.3949543"><ele>682.0</ele><time>2026-05-03T14:08:31.1Z</time></trkpt><trkpt lat="44.3249132" lon="7.3952155"><ele>686.0</ele><time>2026-05-03T14:08:32.101Z</time></trkpt><trkpt lat="44.3250064" lon="7.3954749"><ele>690.0</ele><time>2026-05-03T14:08:33.101Z</time></trkpt><trkpt lat="44.3251053" lon="7.3957195"><ele>694.0</ele><time>2026-05-03T14:08:34.101Z</time></trkpt><trkpt lat="44.3252092" lon="7.3959457"><ele>694.0</ele><time>2026-05-03T14:08:35.1Z</time></trkpt><trkpt lat="44.3253209" lon="7.3961474"><ele>694.0</ele><time>2026-05-03T14:08:36.101Z</time></trkpt><trkpt lat="44.3254308" lon="7.3963428"><ele>694.0</ele><time>2026-05-03T14:08:37.101Z</time></trkpt><trkpt lat="44.325542" lon="7.3964907"><ele>696.0</ele><time>2026-05-03T14:08:38.101Z</time></trkpt><trkpt lat="44.3256508" lon="7.3966278"><ele>698.0</ele><time>2026-05-03T14:08:39.101Z</time></trkpt><trkpt lat="44.3257812" lon="7.3967437"><ele>700.0</ele><time>2026-05-03T14:08:40.101Z</time></trkpt><trkpt lat="44.3259234" lon="7.3968311"><ele>700.0</ele><time>2026-05-03T14:08:41.101Z</time></trkpt><trkpt lat="44.3260638" lon="7.3968987"><ele>700.0</ele><time>2026-05-03T14:08:42.101Z</time></trkpt><trkpt lat="44.3262178" lon="7.3969229"><ele>700.0</ele><time>2026-05-03T14:08:43.101Z</time></trkpt><trkpt lat="44.3263658" lon="7.3969354"><ele>702.6666666666667</ele><time>2026-05-03T14:08:44.101Z</time></trkpt><trkpt lat="44.3265399" lon="7.3968853"><ele>705.3333333333334</ele><time>2026-05-03T14:08:45.101Z</time></trkpt><trkpt lat="44.3267082" lon="7.3968267"><ele>708.0</ele><time>2026-05-03T14:08:46.1Z</time></trkpt><trkpt lat="44.3268678" lon="7.3967652"><ele>708.0</ele><time>2026-05-03T14:08:47.101Z</time></trkpt><trkpt lat="44.3270191" lon="7.3967063"><ele>708.0</ele><time>2026-05-03T14:08:48.101Z</time></trkpt><trkpt lat="44.3271695" lon="7.3966456"><ele>708.0</ele><time>2026-05-03T14:08:49.101Z</time></trkpt><trkpt lat="44.3273115" lon="7.3965798"><ele>705.0</ele><time>2026-05-03T14:08:50.101Z</time></trkpt><trkpt lat="44.3274566" lon="7.3965136"><ele>702.0</ele><time>2026-05-03T14:08:51.101Z</time></trkpt><trkpt lat="44.3275963" lon="7.3964503"><ele>699.0</ele><time>2026-05-03T14:08:52.101Z</time></trkpt><trkpt lat="44.3277335" lon="7.3963856"><ele>696.0</ele><time>2026-05-03T14:08:53.101Z</time></trkpt><trkpt lat="44.3278613" lon="7.3963377"><ele>699.0</ele><time>2026-05-03T14:08:54.1Z</time></trkpt><trkpt lat="44.3280094" lon="7.3962711"><ele>702.0</ele><time>2026-05-03T14:08:55.101Z</time></trkpt><trkpt lat="44.3281519" lon="7.3962011"><ele>705.0</ele><time>2026-05-03T14:08:56.1Z</time></trkpt><trkpt lat="44.3283171" lon="7.3961376"><ele>705.0</ele><time>2026-05-03T14:08:57.1Z</time></trkpt><trkpt lat="44.328461" lon="7.396084"><ele>705.0</ele><time>2026-05-03T14:08:58.101Z</time></trkpt><trkpt lat="44.3286238" lon="7.3960266"><ele>705.0</ele><time>2026-05-03T14:08:59.1Z</time></trkpt><trkpt lat="44.3287785" lon="7.3959634"><ele>704.6666666666666</ele><time>2026-05-03T14:09:00.101Z</time></trkpt><trkpt lat="44.3289336" lon="7.3959004"><ele>704.3333333333333</ele><time>2026-05-03T14:09:01.101Z</time></trkpt><trkpt lat="44.3290761" lon="7.3958339"><ele>704.0</ele><time>2026-05-03T14:09:02.101Z</time></trkpt><trkpt lat="44.329233" lon="7.3957729"><ele>704.0</ele><time>2026-05-03T14:09:03.101Z</time></trkpt><trkpt lat="44.3293922" lon="7.3957135"><ele>704.0</ele><time>2026-05-03T14:09:04.101Z</time></trkpt><trkpt lat="44.3295549" lon="7.3956681"><ele>704.0</ele><time>2026-05-03T14:09:05.101Z</time></trkpt><trkpt lat="44.3297168" lon="7.3956345"><ele>704.3333333333333</ele><time>2026-05-03T14:09:06.101Z</time></trkpt><trkpt lat="44.3298883" lon="7.3956147"><ele>704.6666666666666</ele><time>2026-05-03T14:09:07.101Z</time></trkpt><trkpt lat="44.3300588" lon="7.3956097"><ele>705.0</ele><time>2026-05-03T14:09:08.101Z</time></trkpt><trkpt lat="44.330222" lon="7.3956387"><ele>705.0</ele><time>2026-05-03T14:09:09.101Z</time></trkpt><trkpt lat="44.3303767" lon="7.3956653"><ele>705.0</ele><time>2026-05-03T14:09:10.1Z</time></trkpt><trkpt lat="44.3305187" lon="7.3957406"><ele>705.0</ele><time>2026-05-03T14:09:11.1Z</time></trkpt><trkpt lat="44.3306647" lon="7.3958048"><ele>706.0</ele><time>2026-05-03T14:09:12.1Z</time></trkpt><trkpt lat="44.3307913" lon="7.3959122"><ele>707.0</ele><time>2026-05-03T14:09:13.101Z</time></trkpt><trkpt lat="44.3309067" lon="7.3960245"><ele>708.0</ele><time>2026-05-03T14:09:14.101Z</time></trkpt><trkpt lat="44.3310319" lon="7.3961429"><ele>709.0</ele><time>2026-05-03T14:09:15.101Z</time></trkpt><trkpt lat="44.3311499" lon="7.3962552"><ele>707.6666666666667</ele><time>2026-05-03T14:09:16.1Z</time></trkpt><trkpt lat="44.3312752" lon="7.3963855"><ele>706.3333333333334</ele><time>2026-05-03T14:09:17.101Z</time></trkpt><trkpt lat="44.3313911" lon="7.3965078"><ele>705.0</ele><time>2026-05-03T14:09:18.1Z</time></trkpt><trkpt lat="44.3315226" lon="7.3966458"><ele>705.0</ele><time>2026-05-03T14:09:19.1Z</time></trkpt><trkpt lat="44.3316463" lon="7.3967912"><ele>705.0</ele><time>2026-05-03T14:09:20.101Z</time></trkpt><trkpt lat="44.331758" lon="7.3969548"><ele>705.0</ele><time>2026-05-03T14:09:21.101Z</time></trkpt><trkpt lat="44.33186" lon="7.3971254"><ele>705.3333333333334</ele><time>2026-05-03T14:09:22.101Z</time></trkpt><trkpt lat="44.3319471" lon="7.3973101"><ele>705.6666666666667</ele><time>2026-05-03T14:09:23.101Z</time></trkpt><trkpt lat="44.3320187" lon="7.3974984"><ele>706.0</ele><time>2026-05-03T14:09:24.101Z</time></trkpt><trkpt lat="44.332082" lon="7.3977115"><ele>706.0</ele><time>2026-05-03T14:09:25.101Z</time></trkpt><trkpt lat="44.3321379" lon="7.3979304"><ele>706.0</ele><time>2026-05-03T14:09:26.1Z</time></trkpt><trkpt lat="44.3321842" lon="7.3981635"><ele>706.0</ele><time>2026-05-03T14:09:27.101Z</time></trkpt><trkpt lat="44.3322187" lon="7.3983847"><ele>707.3333333333334</ele><time>2026-05-03T14:09:28.101Z</time></trkpt><trkpt lat="44.3322511" lon="7.398607"><ele>708.6666666666666</ele><time>2026-05-03T14:09:29.101Z</time></trkpt><trkpt lat="44.3322814" lon="7.3988303"><ele>710.0</ele><time>2026-05-03T14:09:30.101Z</time></trkpt><trkpt lat="44.3323117" lon="7.3990263"><ele>710.0</ele><time>2026-05-03T14:09:31.101Z</time></trkpt><trkpt lat="44.3323446" lon="7.3992398"><ele>710.0</ele><time>2026-05-03T14:09:32.101Z</time></trkpt><trkpt lat="44.3323765" lon="7.3994545"><ele>710.0</ele><time>2026-05-03T14:09:33.1Z</time></trkpt><trkpt lat="44.3324079" lon="7.3996717"><ele>709.0</ele><time>2026-05-03T14:09:34.101Z</time></trkpt><trkpt lat="44.3324405" lon="7.3998829"><ele>708.0</ele><time>2026-05-03T14:09:35.101Z</time></trkpt><trkpt lat="44.3324749" lon="7.4001146"><ele>707.0</ele><time>2026-05-03T14:09:36.101Z</time></trkpt><trkpt lat="44.3325142" lon="7.4003111"><ele>706.25</ele><time>2026-05-03T14:09:37.101Z</time></trkpt><trkpt lat="44.3325435" lon="7.4005083"><ele>705.5</ele><time>2026-05-03T14:09:38.101Z</time></trkpt><trkpt lat="44.3325777" lon="7.400705"><ele>704.75</ele><time>2026-05-03T14:09:39.1Z</time></trkpt><trkpt lat="44.332606" lon="7.4008984"><ele>704.0</ele><time>2026-05-03T14:09:40.101Z</time></trkpt><trkpt lat="44.3326361" lon="7.4010996"><ele>704.0</ele><time>2026-05-03T14:09:41.101Z</time></trkpt><trkpt lat="44.3326585" lon="7.4012875"><ele>704.0</ele><time>2026-05-03T14:09:42.101Z</time></trkpt><trkpt lat="44.3326977" lon="7.4015089"><ele>704.0</ele><time>2026-05-03T14:09:43.101Z</time></trkpt><trkpt lat="44.332729" lon="7.4017237"><ele>703.3333333333333</ele><time>2026-05-03T14:09:44.101Z</time></trkpt><trkpt lat="44.3327592" lon="7.4019374"><ele>702.6666666666666</ele><time>2026-05-03T14:09:45.101Z</time></trkpt><trkpt lat="44.3327918" lon="7.4021487"><ele>702.0</ele><time>2026-05-03T14:09:46.101Z</time></trkpt><trkpt lat="44.3328269" lon="7.4023618"><ele>701.0</ele><time>2026-05-03T14:09:47.1Z</time></trkpt><trkpt lat="44.3328599" lon="7.4025704"><ele>700.0</ele><time>2026-05-03T14:09:48.101Z</time></trkpt><trkpt lat="44.3328926" lon="7.4027819"><ele>699.0</ele><time>2026-05-03T14:09:49.101Z</time></trkpt><trkpt lat="44.3329162" lon="7.4029789"><ele>699.0</ele><time>2026-05-03T14:09:50.101Z</time></trkpt><trkpt lat="44.332943" lon="7.4031744"><ele>699.0</ele><time>2026-05-03T14:09:51.101Z</time></trkpt><trkpt lat="44.332972" lon="7.4033547"><ele>699.0</ele><time>2026-05-03T14:09:52.1Z</time></trkpt><trkpt lat="44.3329965" lon="7.4035341"><ele>699.0</ele><time>2026-05-03T14:09:53.101Z</time></trkpt><trkpt lat="44.3330195" lon="7.4037063"><ele>699.0</ele><time>2026-05-03T14:09:54.101Z</time></trkpt><trkpt lat="44.3330478" lon="7.4038796"><ele>699.0</ele><time>2026-05-03T14:09:55.101Z</time></trkpt><trkpt lat="44.3330737" lon="7.4040509"><ele>699.0</ele><time>2026-05-03T14:09:56.101Z</time></trkpt><trkpt lat="44.3331011" lon="7.4042364"><ele>699.0</ele><time>2026-05-03T14:09:57.101Z</time></trkpt><trkpt lat="44.3331287" lon="7.4044211"><ele>699.25</ele><time>2026-05-03T14:09:58.101Z</time></trkpt><trkpt lat="44.3331555" lon="7.4046015"><ele>699.5</ele><time>2026-05-03T14:09:59.101Z</time></trkpt><trkpt lat="44.3331837" lon="7.4047819"><ele>699.75</ele><time>2026-05-03T14:10:00.101Z</time></trkpt><trkpt lat="44.3332132" lon="7.4049725"><ele>700.0</ele><time>2026-05-03T14:10:01.1Z</time></trkpt><trkpt lat="44.3332363" lon="7.4051336"><ele>699.75</ele><time>2026-05-03T14:10:02.101Z</time></trkpt><trkpt lat="44.3332619" lon="7.4052908"><ele>699.5</ele><time>2026-05-03T14:10:03.101Z</time></trkpt><trkpt lat="44.3332881" lon="7.4054502"><ele>699.25</ele><time>2026-05-03T14:10:04.101Z</time></trkpt><trkpt lat="44.3333136" lon="7.4056005"><ele>699.0</ele><time>2026-05-03T14:10:05.101Z</time></trkpt><trkpt lat="44.3333369" lon="7.4057534"><ele>699.0</ele><time>2026-05-03T14:10:06.101Z</time></trkpt><trkpt lat="44.3333624" lon="7.4059091"><ele>699.0</ele><time>2026-05-03T14:10:07.101Z</time></trkpt><trkpt lat="44.3333992" lon="7.4060693"><ele>699.0</ele><time>2026-05-03T14:10:08.101Z</time></trkpt><trkpt lat="44.3334363" lon="7.4062257"><ele>699.0</ele><time>2026-05-03T14:10:09.101Z</time></trkpt><trkpt lat="44.3334858" lon="7.406376"><ele>698.5</ele><time>2026-05-03T14:10:10.101Z</time></trkpt><trkpt lat="44.3335524" lon="7.4065228"><ele>698.0</ele><time>2026-05-03T14:10:11.101Z</time></trkpt><trkpt lat="44.3336164" lon="7.4066671"><ele>697.5</ele><time>2026-05-03T14:10:12.1Z</time></trkpt><trkpt lat="44.3336929" lon="7.4068052"><ele>697.0</ele><time>2026-05-03T14:10:13.101Z</time></trkpt><trkpt lat="44.3337704" lon="7.4069389"><ele>697.0</ele><time>2026-05-03T14:10:14.101Z</time></trkpt><trkpt lat="44.3338362" lon="7.4070574"><ele>697.0</ele><time>2026-05-03T14:10:15.1Z</time></trkpt><trkpt lat="44.3339176" lon="7.407178"><ele>697.0</ele><time>2026-05-03T14:10:16.101Z</time></trkpt><trkpt lat="44.3340037" lon="7.4072998"><ele>697.0</ele><time>2026-05-03T14:10:17.1Z</time></trkpt><trkpt lat="44.3340885" lon="7.4074169"><ele>696.5</ele><time>2026-05-03T14:10:18.101Z</time></trkpt><trkpt lat="44.3341676" lon="7.4075291"><ele>696.0</ele><time>2026-05-03T14:10:19.101Z</time></trkpt><trkpt lat="44.3342493" lon="7.4076534"><ele>695.5</ele><time>2026-05-03T14:10:20.101Z</time></trkpt><trkpt lat="44.334327" lon="7.4077695"><ele>695.0</ele><time>2026-05-03T14:10:21.101Z</time></trkpt><trkpt lat="44.3344158" lon="7.4078801"><ele>695.0</ele><time>2026-05-03T14:10:22.1Z</time></trkpt><trkpt lat="44.3344837" lon="7.4079804"><ele>695.0</ele><time>2026-05-03T14:10:23.1Z</time></trkpt><trkpt lat="44.3345587" lon="7.4080836"><ele>695.0</ele><time>2026-05-03T14:10:24.101Z</time></trkpt><trkpt lat="44.3346311" lon="7.4081917"><ele>695.0</ele><time>2026-05-03T14:10:25.101Z</time></trkpt><trkpt lat="44.334699" lon="7.4082979"><ele>695.0</ele><time>2026-05-03T14:10:26.101Z</time></trkpt><trkpt lat="44.334783" lon="7.4084087"><ele>694.6</ele><time>2026-05-03T14:10:27.101Z</time></trkpt><trkpt lat="44.3348572" lon="7.4085207"><ele>694.2</ele><time>2026-05-03T14:10:28.101Z</time></trkpt><trkpt lat="44.3349263" lon="7.4086331"><ele>693.8</ele><time>2026-05-03T14:10:29.101Z</time></trkpt><trkpt lat="44.3350055" lon="7.4087561"><ele>693.4</ele><time>2026-05-03T14:10:30.101Z</time></trkpt><trkpt lat="44.3350735" lon="7.4088599"><ele>693.0</ele><time>2026-05-03T14:10:31.101Z</time></trkpt><trkpt lat="44.3351391" lon="7.4089605"><ele>693.0</ele><time>2026-05-03T14:10:32.101Z</time></trkpt><trkpt lat="44.3352144" lon="7.409063"><ele>693.0</ele><time>2026-05-03T14:10:33.101Z</time></trkpt><trkpt lat="44.3352914" lon="7.4091667"><ele>693.0</ele><time>2026-05-03T14:10:34.101Z</time></trkpt><trkpt lat="44.335365" lon="7.4092708"><ele>693.0</ele><time>2026-05-03T14:10:35.101Z</time></trkpt><trkpt lat="44.3354364" lon="7.4093738"><ele>693.0</ele><time>2026-05-03T14:10:36.101Z</time></trkpt><trkpt lat="44.3355106" lon="7.4094802"><ele>693.0</ele><time>2026-05-03T14:10:37.101Z</time></trkpt><trkpt lat="44.3355883" lon="7.4095892"><ele>693.0</ele><time>2026-05-03T14:10:38.101Z</time></trkpt><trkpt lat="44.3356578" lon="7.4097033"><ele>693.0</ele><time>2026-05-03T14:10:39.101Z</time></trkpt><trkpt lat="44.3357244" lon="7.4098208"><ele>693.0</ele><time>2026-05-03T14:10:40.1Z</time></trkpt><trkpt lat="44.3357852" lon="7.4099567"><ele>693.0</ele><time>2026-05-03T14:10:41.101Z</time></trkpt><trkpt lat="44.3358535" lon="7.4101133"><ele>692.5</ele><time>2026-05-03T14:10:42.101Z</time></trkpt><trkpt lat="44.3359144" lon="7.4102726"><ele>692.0</ele><time>2026-05-03T14:10:43.101Z</time></trkpt><trkpt lat="44.3359751" lon="7.4104294"><ele>691.5</ele><time>2026-05-03T14:10:44.1Z</time></trkpt><trkpt lat="44.336041" lon="7.410594"><ele>691.0</ele><time>2026-05-03T14:10:45.101Z</time></trkpt><trkpt lat="44.3360993" lon="7.4107649"><ele>690.25</ele><time>2026-05-03T14:10:46.101Z</time></trkpt><trkpt lat="44.336158" lon="7.4109419"><ele>689.5</ele><time>2026-05-03T14:10:47.101Z</time></trkpt><trkpt lat="44.3362191" lon="7.411109"><ele>688.75</ele><time>2026-05-03T14:10:48.101Z</time></trkpt><trkpt lat="44.3362775" lon="7.4112789"><ele>688.0</ele><time>2026-05-03T14:10:49.101Z</time></trkpt><trkpt lat="44.3363398" lon="7.4114532"><ele>687.75</ele><time>2026-05-03T14:10:50.101Z</time></trkpt><trkpt lat="44.3364011" lon="7.41163"><ele>687.5</ele><time>2026-05-03T14:10:51.101Z</time></trkpt><trkpt lat="44.3364712" lon="7.4118139"><ele>687.25</ele><time>2026-05-03T14:10:52.101Z</time></trkpt><trkpt lat="44.3365393" lon="7.4119935"><ele>687.0</ele><time>2026-05-03T14:10:53.101Z</time></trkpt><trkpt lat="44.3366012" lon="7.4121694"><ele>686.5</ele><time>2026-05-03T14:10:54.101Z</time></trkpt><trkpt lat="44.3366688" lon="7.4123463"><ele>686.0</ele><time>2026-05-03T14:10:55.101Z</time></trkpt><trkpt lat="44.3367335" lon="7.4125295"><ele>685.5</ele><time>2026-05-03T14:10:56.101Z</time></trkpt><trkpt lat="44.3367938" lon="7.4127049"><ele>685.0</ele><time>2026-05-03T14:10:57.101Z</time></trkpt><trkpt lat="44.3368579" lon="7.4128829"><ele>684.5</ele><time>2026-05-03T14:10:58.101Z</time></trkpt><trkpt lat="44.3369261" lon="7.4130567"><ele>684.0</ele><time>2026-05-03T14:10:59.101Z</time></trkpt><trkpt lat="44.3369872" lon="7.4132351"><ele>683.5</ele><time>2026-05-03T14:11:00.101Z</time></trkpt><trkpt lat="44.3370577" lon="7.4134207"><ele>683.0</ele><time>2026-05-03T14:11:01.1Z</time></trkpt><trkpt lat="44.3371132" lon="7.4136075"><ele>683.0</ele><time>2026-05-03T14:11:02.101Z</time></trkpt><trkpt lat="44.3371699" lon="7.4138027"><ele>683.0</ele><time>2026-05-03T14:11:03.101Z</time></trkpt><trkpt lat="44.3372058" lon="7.4140006"><ele>683.0</ele><time>2026-05-03T14:11:04.1Z</time></trkpt><trkpt lat="44.3372466" lon="7.4142086"><ele>683.0</ele><time>2026-05-03T14:11:05.101Z</time></trkpt><trkpt lat="44.33723" lon="7.4144103"><ele>683.0</ele><time>2026-05-03T14:11:06.101Z</time></trkpt><trkpt lat="44.3372031" lon="7.4146056"><ele>683.0</ele><time>2026-05-03T14:11:07.101Z</time></trkpt><trkpt lat="44.3371538" lon="7.4148077"><ele>683.0</ele><time>2026-05-03T14:11:08.101Z</time></trkpt><trkpt lat="44.3370903" lon="7.4150063"><ele>682.25</ele><time>2026-05-03T14:11:09.101Z</time></trkpt><trkpt lat="44.3370315" lon="7.4152004"><ele>681.5</ele><time>2026-05-03T14:11:10.101Z</time></trkpt><trkpt lat="44.3369705" lon="7.415381"><ele>680.75</ele><time>2026-05-03T14:11:11.101Z</time></trkpt><trkpt lat="44.3369105" lon="7.4155551"><ele>680.0</ele><time>2026-05-03T14:11:12.101Z</time></trkpt><trkpt lat="44.3368481" lon="7.415733"><ele>679.0</ele><time>2026-05-03T14:11:13.1Z</time></trkpt><trkpt lat="44.3367825" lon="7.4159164"><ele>678.0</ele><time>2026-05-03T14:11:14.101Z</time></trkpt><trkpt lat="44.3367212" lon="7.4161051"><ele>677.0</ele><time>2026-05-03T14:11:15.101Z</time></trkpt><trkpt lat="44.3366609" lon="7.416295"><ele>676.0</ele><time>2026-05-03T14:11:16.101Z</time></trkpt><trkpt lat="44.3366167" lon="7.416483"><ele>673.0</ele><time>2026-05-03T14:11:17.101Z</time></trkpt><trkpt lat="44.3365677" lon="7.4166691"><ele>670.0</ele><time>2026-05-03T14:11:18.101Z</time></trkpt><trkpt lat="44.3365086" lon="7.4168446"><ele>667.0</ele><time>2026-05-03T14:11:19.101Z</time></trkpt><trkpt lat="44.3364541" lon="7.4170001"><ele>664.0</ele><time>2026-05-03T14:11:20.101Z</time></trkpt><trkpt lat="44.3364087" lon="7.4171297"><ele>664.6</ele><time>2026-05-03T14:11:21.101Z</time></trkpt><trkpt lat="44.3363624" lon="7.4172576"><ele>665.2</ele><time>2026-05-03T14:11:22.101Z</time></trkpt><trkpt lat="44.3363289" lon="7.4173631"><ele>665.8000000000001</ele><time>2026-05-03T14:11:23.101Z</time></trkpt><trkpt lat="44.3362909" lon="7.4174723"><ele>666.4000000000001</ele><time>2026-05-03T14:11:24.101Z</time></trkpt><trkpt lat="44.3362425" lon="7.4176037"><ele>667.0</ele><time>2026-05-03T14:11:25.101Z</time></trkpt><trkpt lat="44.3362027" lon="7.4177399"><ele>667.0</ele><time>2026-05-03T14:11:26.101Z</time></trkpt><trkpt lat="44.3361594" lon="7.4178712"><ele>667.0</ele><time>2026-05-03T14:11:27.1Z</time></trkpt><trkpt lat="44.3360916" lon="7.4180027"><ele>667.0</ele><time>2026-05-03T14:11:28.1Z</time></trkpt><trkpt lat="44.3360205" lon="7.4181521"><ele>667.0</ele><time>2026-05-03T14:11:29.1Z</time></trkpt><trkpt lat="44.3359331" lon="7.418293"><ele>668.5</ele><time>2026-05-03T14:11:30.101Z</time></trkpt><trkpt lat="44.3358266" lon="7.4184141"><ele>670.0</ele><time>2026-05-03T14:11:31.101Z</time></trkpt><trkpt lat="44.3357133" lon="7.4185225"><ele>671.5</ele><time>2026-05-03T14:11:32.101Z</time></trkpt><trkpt lat="44.3355943" lon="7.4186242"><ele>673.0</ele><time>2026-05-03T14:11:33.101Z</time></trkpt><trkpt lat="44.3354726" lon="7.4187116"><ele>673.0</ele><time>2026-05-03T14:11:34.101Z</time></trkpt><trkpt lat="44.3353568" lon="7.4188118"><ele>673.0</ele><time>2026-05-03T14:11:35.101Z</time></trkpt><trkpt lat="44.3352318" lon="7.4188963"><ele>673.0</ele><time>2026-05-03T14:11:36.101Z</time></trkpt><trkpt lat="44.3351082" lon="7.4189858"><ele>673.0</ele><time>2026-05-03T14:11:37.101Z</time></trkpt><trkpt lat="44.3349874" lon="7.4190709"><ele>675.25</ele><time>2026-05-03T14:11:38.101Z</time></trkpt><trkpt lat="44.3348704" lon="7.4191618"><ele>677.5</ele><time>2026-05-03T14:11:39.101Z</time></trkpt><trkpt lat="44.3347458" lon="7.4192278"><ele>679.75</ele><time>2026-05-03T14:11:40.101Z</time></trkpt><trkpt lat="44.3346436" lon="7.4193427"><ele>682.0</ele><time>2026-05-03T14:11:41.101Z</time></trkpt><trkpt lat="44.3345276" lon="7.4194416"><ele>682.5</ele><time>2026-05-03T14:11:42.101Z</time></trkpt><trkpt lat="44.3344231" lon="7.4195362"><ele>683.0</ele><time>2026-05-03T14:11:43.101Z</time></trkpt><trkpt lat="44.3343487" lon="7.4197213"><ele>683.5</ele><time>2026-05-03T14:11:44.101Z</time></trkpt><trkpt lat="44.3342773" lon="7.4198952"><ele>684.0</ele><time>2026-05-03T14:11:45.101Z</time></trkpt><trkpt lat="44.3342185" lon="7.4200866"><ele>686.3333333333334</ele><time>2026-05-03T14:11:46.101Z</time></trkpt><trkpt lat="44.3341789" lon="7.4202947"><ele>688.6666666666667</ele><time>2026-05-03T14:11:47.1Z</time></trkpt><trkpt lat="44.334196" lon="7.4205207"><ele>691.0</ele><time>2026-05-03T14:11:48.101Z</time></trkpt><trkpt lat="44.3341868" lon="7.4207412"><ele>693.0</ele><time>2026-05-03T14:11:49.101Z</time></trkpt><trkpt lat="44.334202" lon="7.4210099"><ele>695.0</ele><time>2026-05-03T14:11:50.101Z</time></trkpt><trkpt lat="44.3342631" lon="7.4213144"><ele>697.0</ele><time>2026-05-03T14:11:51.101Z</time></trkpt><trkpt lat="44.3342989" lon="7.4216043"><ele>699.5</ele><time>2026-05-03T14:11:52.101Z</time></trkpt><trkpt lat="44.3343408" lon="7.4219351"><ele>702.0</ele><time>2026-05-03T14:11:53.101Z</time></trkpt><trkpt lat="44.3343865" lon="7.4222744"><ele>702.5</ele><time>2026-05-03T14:11:54.101Z</time></trkpt><trkpt lat="44.3344167" lon="7.422613"><ele>703.0</ele><time>2026-05-03T14:11:55.101Z</time></trkpt><trkpt lat="44.3344466" lon="7.4229283"><ele>703.6666666666667</ele><time>2026-05-03T14:11:56.1Z</time></trkpt><trkpt lat="44.3344896" lon="7.4231912"><ele>704.3333333333334</ele><time>2026-05-03T14:11:57.101Z</time></trkpt><trkpt lat="44.3345249" lon="7.4234737"><ele>705.0</ele><time>2026-05-03T14:11:58.1Z</time></trkpt><trkpt lat="44.3345689" lon="7.4237658"><ele>705.3333333333334</ele><time>2026-05-03T14:11:59.101Z</time></trkpt><trkpt lat="44.3346005" lon="7.4240292"><ele>705.6666666666667</ele><time>2026-05-03T14:12:00.101Z</time></trkpt><trkpt lat="44.3346365" lon="7.4242968"><ele>706.0</ele><time>2026-05-03T14:12:01.1Z</time></trkpt><trkpt lat="44.3346773" lon="7.4245674"><ele>705.3333333333334</ele><time>2026-05-03T14:12:02.1Z</time></trkpt><trkpt lat="44.3346999" lon="7.4248088"><ele>704.6666666666666</ele><time>2026-05-03T14:12:03.101Z</time></trkpt><trkpt lat="44.3347266" lon="7.4250494"><ele>704.0</ele><time>2026-05-03T14:12:04.101Z</time></trkpt><trkpt lat="44.334757" lon="7.4252766"><ele>702.6666666666666</ele><time>2026-05-03T14:12:05.101Z</time></trkpt><trkpt lat="44.3347959" lon="7.4255123"><ele>701.3333333333334</ele><time>2026-05-03T14:12:06.101Z</time></trkpt><trkpt lat="44.3348225" lon="7.4257443"><ele>700.0</ele><time>2026-05-03T14:12:07.101Z</time></trkpt><trkpt lat="44.3348555" lon="7.4259774"><ele>700.0</ele><time>2026-05-03T14:12:08.101Z</time></trkpt><trkpt lat="44.3348771" lon="7.4262141"><ele>700.0</ele><time>2026-05-03T14:12:09.101Z</time></trkpt><trkpt lat="44.334907" lon="7.4264505"><ele>700.0</ele><time>2026-05-03T14:12:10.101Z</time></trkpt><trkpt lat="44.3349369" lon="7.4266778"><ele>699.6666666666667</ele><time>2026-05-03T14:12:11.1Z</time></trkpt><trkpt lat="44.3349654" lon="7.4269054"><ele>699.3333333333334</ele><time>2026-05-03T14:12:12.101Z</time></trkpt><trkpt lat="44.3349948" lon="7.427125"><ele>699.0</ele><time>2026-05-03T14:12:13.101Z</time></trkpt><trkpt lat="44.3350248" lon="7.4273484"><ele>698.3333333333334</ele><time>2026-05-03T14:12:14.101Z</time></trkpt><trkpt lat="44.3350494" lon="7.4275692"><ele>697.6666666666667</ele><time>2026-05-03T14:12:15.101Z</time></trkpt><trkpt lat="44.3350782" lon="7.4277906"><ele>697.0</ele><time>2026-05-03T14:12:16.101Z</time></trkpt><trkpt lat="44.335106" lon="7.4279995"><ele>697.0</ele><time>2026-05-03T14:12:17.1Z</time></trkpt><trkpt lat="44.3351354" lon="7.4282104"><ele>697.0</ele><time>2026-05-03T14:12:18.101Z</time></trkpt><trkpt lat="44.3351613" lon="7.4284271"><ele>697.0</ele><time>2026-05-03T14:12:19.101Z</time></trkpt><trkpt lat="44.3351838" lon="7.4286429"><ele>697.3333333333334</ele><time>2026-05-03T14:12:20.101Z</time></trkpt><trkpt lat="44.3352147" lon="7.4288563"><ele>697.6666666666666</ele><time>2026-05-03T14:12:21.101Z</time></trkpt><trkpt lat="44.3352152" lon="7.4290656"><ele>698.0</ele><time>2026-05-03T14:12:22.101Z</time></trkpt><trkpt lat="44.3352146" lon="7.4292835"><ele>698.0</ele><time>2026-05-03T14:12:23.101Z</time></trkpt><trkpt lat="44.335214" lon="7.4294998"><ele>698.0</ele><time>2026-05-03T14:12:24.101Z</time></trkpt><trkpt lat="44.3351752" lon="7.4297051"><ele>698.0</ele><time>2026-05-03T14:12:25.101Z</time></trkpt><trkpt lat="44.3351431" lon="7.4299192"><ele>698.0</ele><time>2026-05-03T14:12:26.101Z</time></trkpt><trkpt lat="44.3351144" lon="7.4301242"><ele>698.0</ele><time>2026-05-03T14:12:27.101Z</time></trkpt><trkpt lat="44.3350805" lon="7.4303218"><ele>698.0</ele><time>2026-05-03T14:12:28.1Z</time></trkpt><trkpt lat="44.335053" lon="7.4305147"><ele>698.0</ele><time>2026-05-03T14:12:29.101Z</time></trkpt><trkpt lat="44.3350208" lon="7.4307146"><ele>697.5</ele><time>2026-05-03T14:12:30.101Z</time></trkpt><trkpt lat="44.334986" lon="7.4309182"><ele>697.0</ele><time>2026-05-03T14:12:31.101Z</time></trkpt><trkpt lat="44.3349536" lon="7.4311326"><ele>696.5</ele><time>2026-05-03T14:12:32.101Z</time></trkpt><trkpt lat="44.334926" lon="7.4313169"><ele>696.0</ele><time>2026-05-03T14:12:33.101Z</time></trkpt><trkpt lat="44.3348961" lon="7.4315004"><ele>695.75</ele><time>2026-05-03T14:12:34.1Z</time></trkpt><trkpt lat="44.3348645" lon="7.4316866"><ele>695.5</ele><time>2026-05-03T14:12:35.101Z</time></trkpt><trkpt lat="44.334834" lon="7.4318658"><ele>695.25</ele><time>2026-05-03T14:12:36.101Z</time></trkpt><trkpt lat="44.3348047" lon="7.4320435"><ele>695.0</ele><time>2026-05-03T14:12:37.101Z</time></trkpt><trkpt lat="44.3347763" lon="7.4322247"><ele>694.6666666666666</ele><time>2026-05-03T14:12:38.101Z</time></trkpt><trkpt lat="44.3347423" lon="7.432432"><ele>694.3333333333334</ele><time>2026-05-03T14:12:39.101Z</time></trkpt><trkpt lat="44.3347147" lon="7.4326423"><ele>694.0</ele><time>2026-05-03T14:12:40.1Z</time></trkpt><trkpt lat="44.3346831" lon="7.4328621"><ele>694.3333333333334</ele><time>2026-05-03T14:12:41.1Z</time></trkpt><trkpt lat="44.3346429" lon="7.4330782"><ele>694.6666666666666</ele><time>2026-05-03T14:12:42.101Z</time></trkpt><trkpt lat="44.3346064" lon="7.4332986"><ele>695.0</ele><time>2026-05-03T14:12:43.1Z</time></trkpt><trkpt lat="44.3345702" lon="7.4335236"><ele>695.0</ele><time>2026-05-03T14:12:44.1Z</time></trkpt><trkpt lat="44.3345377" lon="7.4337484"><ele>695.0</ele><time>2026-05-03T14:12:45.101Z</time></trkpt><trkpt lat="44.3345024" lon="7.4339756"><ele>695.0</ele><time>2026-05-03T14:12:46.101Z</time></trkpt><trkpt lat="44.3344734" lon="7.4342002"><ele>695.0</ele><time>2026-05-03T14:12:47.101Z</time></trkpt><trkpt lat="44.3344393" lon="7.434427"><ele>695.0</ele><time>2026-05-03T14:12:48.101Z</time></trkpt><trkpt lat="44.3344016" lon="7.4346465"><ele>695.0</ele><time>2026-05-03T14:12:49.101Z</time></trkpt><trkpt lat="44.3343596" lon="7.4348589"><ele>694.6666666666666</ele><time>2026-05-03T14:12:50.101Z</time></trkpt><trkpt lat="44.3343187" lon="7.4350731"><ele>694.3333333333334</ele><time>2026-05-03T14:12:51.101Z</time></trkpt><trkpt lat="44.3342973" lon="7.4352801"><ele>694.0</ele><time>2026-05-03T14:12:52.101Z</time></trkpt><trkpt lat="44.3342672" lon="7.4354915"><ele>694.0</ele><time>2026-05-03T14:12:53.101Z</time></trkpt><trkpt lat="44.3342457" lon="7.4357026"><ele>694.0</ele><time>2026-05-03T14:12:54.101Z</time></trkpt><trkpt lat="44.3342116" lon="7.4359159"><ele>694.0</ele><time>2026-05-03T14:12:55.101Z</time></trkpt><trkpt lat="44.3341805" lon="7.4361308"><ele>693.75</ele><time>2026-05-03T14:12:56.101Z</time></trkpt><trkpt lat="44.3341483" lon="7.4363505"><ele>693.5</ele><time>2026-05-03T14:12:57.101Z</time></trkpt><trkpt lat="44.3341161" lon="7.4365416"><ele>693.25</ele><time>2026-05-03T14:12:58.101Z</time></trkpt><trkpt lat="44.3340872" lon="7.4367408"><ele>693.0</ele><time>2026-05-03T14:12:59.1Z</time></trkpt><trkpt lat="44.3340523" lon="7.4369333"><ele>692.0</ele><time>2026-05-03T14:13:00.101Z</time></trkpt><trkpt lat="44.334013" lon="7.4371401"><ele>691.0</ele><time>2026-05-03T14:13:01.101Z</time></trkpt><trkpt lat="44.3339794" lon="7.4373419"><ele>690.0</ele><time>2026-05-03T14:13:02.101Z</time></trkpt><trkpt lat="44.3339348" lon="7.4375533"><ele>690.0</ele><time>2026-05-03T14:13:03.101Z</time></trkpt><trkpt lat="44.333883" lon="7.4377565"><ele>690.0</ele><time>2026-05-03T14:13:04.1Z</time></trkpt><trkpt lat="44.3338365" lon="7.4379677"><ele>690.0</ele><time>2026-05-03T14:13:05.101Z</time></trkpt><trkpt lat="44.3337852" lon="7.4381814"><ele>690.0</ele><time>2026-05-03T14:13:06.1Z</time></trkpt><trkpt lat="44.3337415" lon="7.4383921"><ele>690.0</ele><time>2026-05-03T14:13:07.1Z</time></trkpt><trkpt lat="44.3336915" lon="7.4385964"><ele>690.0</ele><time>2026-05-03T14:13:08.101Z</time></trkpt><trkpt lat="44.3336379" lon="7.4388031"><ele>689.6666666666666</ele><time>2026-05-03T14:13:09.101Z</time></trkpt><trkpt lat="44.3335881" lon="7.439015"><ele>689.3333333333333</ele><time>2026-05-03T14:13:10.101Z</time></trkpt><trkpt lat="44.3335401" lon="7.4392275"><ele>689.0</ele><time>2026-05-03T14:13:11.101Z</time></trkpt><trkpt lat="44.3334889" lon="7.4394402"><ele>688.6666666666666</ele><time>2026-05-03T14:13:12.101Z</time></trkpt><trkpt lat="44.333429" lon="7.4396487"><ele>688.3333333333334</ele><time>2026-05-03T14:13:13.101Z</time></trkpt><trkpt lat="44.3333759" lon="7.4398619"><ele>688.0</ele><time>2026-05-03T14:13:14.101Z</time></trkpt><trkpt lat="44.3333332" lon="7.4400643"><ele>688.0</ele><time>2026-05-03T14:13:15.101Z</time></trkpt><trkpt lat="44.3332963" lon="7.44027"><ele>688.0</ele><time>2026-05-03T14:13:16.101Z</time></trkpt><trkpt lat="44.3332568" lon="7.4404855"><ele>688.0</ele><time>2026-05-03T14:13:17.101Z</time></trkpt><trkpt lat="44.33325" lon="7.4407252"><ele>687.3333333333334</ele><time>2026-05-03T14:13:18.101Z</time></trkpt><trkpt lat="44.3332543" lon="7.4409703"><ele>686.6666666666666</ele><time>2026-05-03T14:13:19.101Z</time></trkpt><trkpt lat="44.3332643" lon="7.4412116"><ele>686.0</ele><time>2026-05-03T14:13:20.101Z</time></trkpt><trkpt lat="44.3332834" lon="7.4414511"><ele>686.0</ele><time>2026-05-03T14:13:21.101Z</time></trkpt><trkpt lat="44.3332993" lon="7.4416748"><ele>686.0</ele><time>2026-05-03T14:13:22.101Z</time></trkpt><trkpt lat="44.3333118" lon="7.4419081"><ele>686.0</ele><time>2026-05-03T14:13:23.101Z</time></trkpt><trkpt lat="44.33333" lon="7.4421122"><ele>686.3333333333333</ele><time>2026-05-03T14:13:24.101Z</time></trkpt><trkpt lat="44.3333473" lon="7.4423194"><ele>686.6666666666666</ele><time>2026-05-03T14:13:25.101Z</time></trkpt><trkpt lat="44.3333641" lon="7.4425322"><ele>687.0</ele><time>2026-05-03T14:13:26.101Z</time></trkpt><trkpt lat="44.3333803" lon="7.4427379"><ele>687.0</ele><time>2026-05-03T14:13:27.101Z</time></trkpt><trkpt lat="44.3333976" lon="7.4429444"><ele>687.0</ele><time>2026-05-03T14:13:28.1Z</time></trkpt><trkpt lat="44.3334149" lon="7.4431552"><ele>687.0</ele><time>2026-05-03T14:13:29.101Z</time></trkpt><trkpt lat="44.3334281" lon="7.4433656"><ele>686.5</ele><time>2026-05-03T14:13:30.1Z</time></trkpt><trkpt lat="44.3334469" lon="7.4435684"><ele>686.0</ele><time>2026-05-03T14:13:31.101Z</time></trkpt><trkpt lat="44.333462" lon="7.4437758"><ele>685.5</ele><time>2026-05-03T14:13:32.101Z</time></trkpt><trkpt lat="44.3334782" lon="7.4439877"><ele>685.0</ele><time>2026-05-03T14:13:33.101Z</time></trkpt><trkpt lat="44.3335014" lon="7.4441989"><ele>684.6666666666667</ele><time>2026-05-03T14:13:34.101Z</time></trkpt><trkpt lat="44.3335155" lon="7.4444246"><ele>684.3333333333334</ele><time>2026-05-03T14:13:35.101Z</time></trkpt><trkpt lat="44.3335351" lon="7.4446478"><ele>684.0</ele><time>2026-05-03T14:13:36.101Z</time></trkpt><trkpt lat="44.3335556" lon="7.4448779"><ele>683.6666666666666</ele><time>2026-05-03T14:13:37.101Z</time></trkpt><trkpt lat="44.3335685" lon="7.4451057"><ele>683.3333333333333</ele><time>2026-05-03T14:13:38.101Z</time></trkpt><trkpt lat="44.3335834" lon="7.4453419"><ele>683.0</ele><time>2026-05-03T14:13:39.101Z</time></trkpt><trkpt lat="44.3335976" lon="7.4455587"><ele>683.0</ele><time>2026-05-03T14:13:40.101Z</time></trkpt><trkpt lat="44.3336151" lon="7.4457836"><ele>683.0</ele><time>2026-05-03T14:13:41.101Z</time></trkpt><trkpt lat="44.333632" lon="7.4460086"><ele>683.0</ele><time>2026-05-03T14:13:42.101Z</time></trkpt><trkpt lat="44.3336448" lon="7.4462266"><ele>682.3333333333333</ele><time>2026-05-03T14:13:43.1Z</time></trkpt><trkpt lat="44.3336632" lon="7.4464444"><ele>681.6666666666666</ele><time>2026-05-03T14:13:44.101Z</time></trkpt><trkpt lat="44.3336798" lon="7.4466639"><ele>681.0</ele><time>2026-05-03T14:13:45.101Z</time></trkpt><trkpt lat="44.333696" lon="7.4468889"><ele>681.0</ele><time>2026-05-03T14:13:46.101Z</time></trkpt><trkpt lat="44.3337086" lon="7.4471035"><ele>681.0</ele><time>2026-05-03T14:13:47.101Z</time></trkpt><trkpt lat="44.3337257" lon="7.4473096"><ele>681.0</ele><time>2026-05-03T14:13:48.101Z</time></trkpt><trkpt lat="44.3337454" lon="7.4475179"><ele>681.0</ele><time>2026-05-03T14:13:49.101Z</time></trkpt><trkpt lat="44.3337652" lon="7.4477255"><ele>681.0</ele><time>2026-05-03T14:13:50.1Z</time></trkpt><trkpt lat="44.3337818" lon="7.447926"><ele>681.0</ele><time>2026-05-03T14:13:51.101Z</time></trkpt><trkpt lat="44.3337929" lon="7.4481353"><ele>681.0</ele><time>2026-05-03T14:13:52.101Z</time></trkpt><trkpt lat="44.333809" lon="7.4483505"><ele>681.3333333333334</ele><time>2026-05-03T14:13:53.101Z</time></trkpt><trkpt lat="44.3338243" lon="7.4485714"><ele>681.6666666666667</ele><time>2026-05-03T14:13:54.101Z</time></trkpt><trkpt lat="44.3338467" lon="7.4487901"><ele>682.0</ele><time>2026-05-03T14:13:55.101Z</time></trkpt><trkpt lat="44.3338627" lon="7.4490151"><ele>681.3333333333334</ele><time>2026-05-03T14:13:56.101Z</time></trkpt><trkpt lat="44.3338771" lon="7.4492477"><ele>680.6666666666666</ele><time>2026-05-03T14:13:57.101Z</time></trkpt><trkpt lat="44.3338924" lon="7.4494793"><ele>680.0</ele><time>2026-05-03T14:13:58.101Z</time></trkpt><trkpt lat="44.3339066" lon="7.4496995"><ele>679.6666666666666</ele><time>2026-05-03T14:13:59.101Z</time></trkpt><trkpt lat="44.3339239" lon="7.449917"><ele>679.3333333333334</ele><time>2026-05-03T14:14:00.101Z</time></trkpt><trkpt lat="44.3339472" lon="7.4501367"><ele>679.0</ele><time>2026-05-03T14:14:01.101Z</time></trkpt><trkpt lat="44.3339646" lon="7.4503561"><ele>677.3333333333334</ele><time>2026-05-03T14:14:02.101Z</time></trkpt><trkpt lat="44.3339821" lon="7.4505734"><ele>675.6666666666666</ele><time>2026-05-03T14:14:03.1Z</time></trkpt><trkpt lat="44.3339999" lon="7.4507933"><ele>674.0</ele><time>2026-05-03T14:14:04.101Z</time></trkpt><trkpt lat="44.3340149" lon="7.4510185"><ele>674.0</ele><time>2026-05-03T14:14:05.101Z</time></trkpt><trkpt lat="44.3340283" lon="7.4512441"><ele>674.0</ele><time>2026-05-03T14:14:06.1Z</time></trkpt><trkpt lat="44.3340439" lon="7.451474"><ele>674.0</ele><time>2026-05-03T14:14:07.101Z</time></trkpt><trkpt lat="44.334061" lon="7.4517051"><ele>673.6666666666666</ele><time>2026-05-03T14:14:08.101Z</time></trkpt><trkpt lat="44.3340746" lon="7.45193"><ele>673.3333333333334</ele><time>2026-05-03T14:14:09.101Z</time></trkpt><trkpt lat="44.3340895" lon="7.4521583"><ele>673.0</ele><time>2026-05-03T14:14:10.101Z</time></trkpt><trkpt lat="44.3341085" lon="7.4523759"><ele>673.0</ele><time>2026-05-03T14:14:11.101Z</time></trkpt><trkpt lat="44.334124" lon="7.4526011"><ele>673.0</ele><time>2026-05-03T14:14:12.101Z</time></trkpt><trkpt lat="44.3341412" lon="7.4528247"><ele>673.0</ele><time>2026-05-03T14:14:13.101Z</time></trkpt><trkpt lat="44.3341588" lon="7.4530403"><ele>673.0</ele><time>2026-05-03T14:14:14.101Z</time></trkpt><trkpt lat="44.3341683" lon="7.4532342"><ele>673.0</ele><time>2026-05-03T14:14:15.101Z</time></trkpt><trkpt lat="44.3341826" lon="7.4534312"><ele>673.0</ele><time>2026-05-03T14:14:16.101Z</time></trkpt><trkpt lat="44.3341987" lon="7.4536303"><ele>673.0</ele><time>2026-05-03T14:14:17.101Z</time></trkpt><trkpt lat="44.3342146" lon="7.4538264"><ele>673.25</ele><time>2026-05-03T14:14:18.101Z</time></trkpt><trkpt lat="44.3342233" lon="7.4540158"><ele>673.5</ele><time>2026-05-03T14:14:19.1Z</time></trkpt><trkpt lat="44.3342297" lon="7.454204"><ele>673.75</ele><time>2026-05-03T14:14:20.101Z</time></trkpt><trkpt lat="44.3342559" lon="7.4543995"><ele>674.0</ele><time>2026-05-03T14:14:21.1Z</time></trkpt><trkpt lat="44.3342764" lon="7.4545888"><ele>673.5</ele><time>2026-05-03T14:14:22.1Z</time></trkpt><trkpt lat="44.3342915" lon="7.4547738"><ele>673.0</ele><time>2026-05-03T14:14:23.101Z</time></trkpt><trkpt lat="44.3343036" lon="7.4549571"><ele>672.5</ele><time>2026-05-03T14:14:24.101Z</time></trkpt><trkpt lat="44.3343167" lon="7.4551424"><ele>672.0</ele><time>2026-05-03T14:14:25.101Z</time></trkpt><trkpt lat="44.334332" lon="7.4552992"><ele>672.0</ele><time>2026-05-03T14:14:26.101Z</time></trkpt><trkpt lat="44.3343368" lon="7.4554671"><ele>672.0</ele><time>2026-05-03T14:14:27.101Z</time></trkpt><trkpt lat="44.3343509" lon="7.4556236"><ele>672.0</ele><time>2026-05-03T14:14:28.101Z</time></trkpt><trkpt lat="44.3343611" lon="7.4557875"><ele>672.0</ele><time>2026-05-03T14:14:29.101Z</time></trkpt><trkpt lat="44.3343772" lon="7.4559515"><ele>672.0</ele><time>2026-05-03T14:14:30.101Z</time></trkpt><trkpt lat="44.3343858" lon="7.4561094"><ele>672.0</ele><time>2026-05-03T14:14:31.101Z</time></trkpt><trkpt lat="44.3344005" lon="7.4562691"><ele>672.0</ele><time>2026-05-03T14:14:32.1Z</time></trkpt><trkpt lat="44.33441" lon="7.4564111"><ele>672.0</ele><time>2026-05-03T14:14:33.101Z</time></trkpt><trkpt lat="44.3344161" lon="7.456529"><ele>672.0</ele><time>2026-05-03T14:14:34.101Z</time></trkpt><trkpt lat="44.334422" lon="7.4566336"><ele>672.0</ele><time>2026-05-03T14:14:35.101Z</time></trkpt><trkpt lat="44.3344283" lon="7.4567227"><ele>672.0</ele><time>2026-05-03T14:14:36.101Z</time></trkpt><trkpt lat="44.3344287" lon="7.4568137"><ele>672.0</ele><time>2026-05-03T14:14:37.101Z</time></trkpt><trkpt lat="44.3344385" lon="7.4569597"><ele>672.0</ele><time>2026-05-03T14:14:39.101Z</time></trkpt><trkpt lat="44.3344258" lon="7.4571173"><ele>672.0</ele><time>2026-05-03T14:14:41.1Z</time></trkpt><trkpt lat="44.3344473" lon="7.4572398"><ele>672.0</ele><time>2026-05-03T14:14:42.101Z</time></trkpt><trkpt lat="44.3344576" lon="7.4573583"><ele>672.0</ele><time>2026-05-03T14:14:43.101Z</time></trkpt><trkpt lat="44.3344705" lon="7.4574852"><ele>672.0</ele><time>2026-05-03T14:14:44.101Z</time></trkpt><trkpt lat="44.3344772" lon="7.4576158"><ele>672.0</ele><time>2026-05-03T14:14:45.101Z</time></trkpt><trkpt lat="44.3344888" lon="7.4577709"><ele>672.0</ele><time>2026-05-03T14:14:46.101Z</time></trkpt><trkpt lat="44.3345012" lon="7.4579279"><ele>672.0</ele><time>2026-05-03T14:14:47.101Z</time></trkpt><trkpt lat="44.3345267" lon="7.4580974"><ele>671.25</ele><time>2026-05-03T14:14:48.101Z</time></trkpt><trkpt lat="44.3345399" lon="7.4582612"><ele>670.5</ele><time>2026-05-03T14:14:49.101Z</time></trkpt><trkpt lat="44.3345498" lon="7.4584205"><ele>669.75</ele><time>2026-05-03T14:14:50.101Z</time></trkpt><trkpt lat="44.3345601" lon="7.4585844"><ele>669.0</ele><time>2026-05-03T14:14:51.101Z</time></trkpt><trkpt lat="44.3345713" lon="7.4587328"><ele>669.0</ele><time>2026-05-03T14:14:52.101Z</time></trkpt><trkpt lat="44.3345833" lon="7.4589152"><ele>669.0</ele><time>2026-05-03T14:14:53.101Z</time></trkpt><trkpt lat="44.3345999" lon="7.4590954"><ele>669.0</ele><time>2026-05-03T14:14:54.1Z</time></trkpt><trkpt lat="44.334612" lon="7.4592673"><ele>669.0</ele><time>2026-05-03T14:14:55.1Z</time></trkpt><trkpt lat="44.3346254" lon="7.4594455"><ele>669.0</ele><time>2026-05-03T14:14:56.101Z</time></trkpt><trkpt lat="44.3346411" lon="7.4596202"><ele>669.0</ele><time>2026-05-03T14:14:57.101Z</time></trkpt><trkpt lat="44.3346538" lon="7.4597937"><ele>669.0</ele><time>2026-05-03T14:14:58.101Z</time></trkpt><trkpt lat="44.3346658" lon="7.4599662"><ele>669.0</ele><time>2026-05-03T14:14:59.101Z</time></trkpt><trkpt lat="44.3346845" lon="7.4601307"><ele>669.0</ele><time>2026-05-03T14:15:00.101Z</time></trkpt><trkpt lat="44.3346929" lon="7.4603184"><ele>669.0</ele><time>2026-05-03T14:15:01.101Z</time></trkpt><trkpt lat="44.334698" lon="7.4604927"><ele>669.0</ele><time>2026-05-03T14:15:02.101Z</time></trkpt><trkpt lat="44.3346955" lon="7.4606674"><ele>669.0</ele><time>2026-05-03T14:15:03.101Z</time></trkpt><trkpt lat="44.334696" lon="7.460835"><ele>668.5</ele><time>2026-05-03T14:15:04.101Z</time></trkpt><trkpt lat="44.334679" lon="7.4610096"><ele>668.0</ele><time>2026-05-03T14:15:05.101Z</time></trkpt><trkpt lat="44.334665" lon="7.4611897"><ele>667.5</ele><time>2026-05-03T14:15:06.101Z</time></trkpt><trkpt lat="44.3346572" lon="7.4613686"><ele>667.0</ele><time>2026-05-03T14:15:07.101Z</time></trkpt><trkpt lat="44.3346399" lon="7.461551"><ele>666.75</ele><time>2026-05-03T14:15:08.101Z</time></trkpt><trkpt lat="44.3346225" lon="7.4617287"><ele>666.5</ele><time>2026-05-03T14:15:09.101Z</time></trkpt><trkpt lat="44.3346004" lon="7.4619147"><ele>666.25</ele><time>2026-05-03T14:15:10.101Z</time></trkpt><trkpt lat="44.3345904" lon="7.4621031"><ele>666.0</ele><time>2026-05-03T14:15:11.101Z</time></trkpt><trkpt lat="44.3345714" lon="7.4622793"><ele>665.5</ele><time>2026-05-03T14:15:12.101Z</time></trkpt><trkpt lat="44.3345499" lon="7.4624463"><ele>665.0</ele><time>2026-05-03T14:15:13.1Z</time></trkpt><trkpt lat="44.3345355" lon="7.4625995"><ele>664.5</ele><time>2026-05-03T14:15:14.101Z</time></trkpt><trkpt lat="44.3345273" lon="7.462758"><ele>664.0</ele><time>2026-05-03T14:15:15.1Z</time></trkpt><trkpt lat="44.3345141" lon="7.4629032"><ele>663.4000000000001</ele><time>2026-05-03T14:15:16.101Z</time></trkpt><trkpt lat="44.3345038" lon="7.4630522"><ele>662.8</ele><time>2026-05-03T14:15:17.101Z</time></trkpt><trkpt lat="44.3344879" lon="7.463192"><ele>662.2</ele><time>2026-05-03T14:15:18.101Z</time></trkpt><trkpt lat="44.3344747" lon="7.463335"><ele>661.5999999999999</ele><time>2026-05-03T14:15:19.1Z</time></trkpt><trkpt lat="44.3344601" lon="7.4634794"><ele>661.0</ele><time>2026-05-03T14:15:20.1Z</time></trkpt><trkpt lat="44.3344488" lon="7.4636359"><ele>661.1999999999999</ele><time>2026-05-03T14:15:21.101Z</time></trkpt><trkpt lat="44.3344349" lon="7.4637909"><ele>661.4</ele><time>2026-05-03T14:15:22.101Z</time></trkpt><trkpt lat="44.3344171" lon="7.4639478"><ele>661.6</ele><time>2026-05-03T14:15:23.101Z</time></trkpt><trkpt lat="44.3344139" lon="7.4640999"><ele>661.8</ele><time>2026-05-03T14:15:24.101Z</time></trkpt><trkpt lat="44.3343971" lon="7.4642529"><ele>662.0</ele><time>2026-05-03T14:15:25.101Z</time></trkpt><trkpt lat="44.3343807" lon="7.464413"><ele>662.0</ele><time>2026-05-03T14:15:26.101Z</time></trkpt><trkpt lat="44.3343644" lon="7.4645767"><ele>662.0</ele><time>2026-05-03T14:15:27.101Z</time></trkpt><trkpt lat="44.3343468" lon="7.4647485"><ele>662.0</ele><time>2026-05-03T14:15:28.101Z</time></trkpt><trkpt lat="44.3343298" lon="7.464914"><ele>662.0</ele><time>2026-05-03T14:15:29.1Z</time></trkpt><trkpt lat="44.3343135" lon="7.4650813"><ele>662.0</ele><time>2026-05-03T14:15:30.101Z</time></trkpt><trkpt lat="44.3342949" lon="7.4652531"><ele>662.0</ele><time>2026-05-03T14:15:31.101Z</time></trkpt><trkpt lat="44.3342783" lon="7.4654144"><ele>662.0</ele><time>2026-05-03T14:15:32.101Z</time></trkpt><trkpt lat="44.3342639" lon="7.4655829"><ele>662.0</ele><time>2026-05-03T14:15:33.101Z</time></trkpt><trkpt lat="44.3342428" lon="7.4657588"><ele>661.75</ele><time>2026-05-03T14:15:34.101Z</time></trkpt><trkpt lat="44.3342322" lon="7.4659387"><ele>661.5</ele><time>2026-05-03T14:15:35.101Z</time></trkpt><trkpt lat="44.3342119" lon="7.4661249"><ele>661.25</ele><time>2026-05-03T14:15:36.101Z</time></trkpt><trkpt lat="44.3341906" lon="7.4663126"><ele>661.0</ele><time>2026-05-03T14:15:37.101Z</time></trkpt><trkpt lat="44.3341673" lon="7.4665043"><ele>660.6666666666667</ele><time>2026-05-03T14:15:38.1Z</time></trkpt><trkpt lat="44.3341362" lon="7.4667092"><ele>660.3333333333334</ele><time>2026-05-03T14:15:39.101Z</time></trkpt><trkpt lat="44.3341009" lon="7.4669126"><ele>660.0</ele><time>2026-05-03T14:15:40.101Z</time></trkpt><trkpt lat="44.3340652" lon="7.4671206"><ele>659.5</ele><time>2026-05-03T14:15:41.101Z</time></trkpt><trkpt lat="44.3340293" lon="7.4673208"><ele>659.0</ele><time>2026-05-03T14:15:42.101Z</time></trkpt><trkpt lat="44.3339955" lon="7.4675233"><ele>658.5</ele><time>2026-05-03T14:15:43.1Z</time></trkpt><trkpt lat="44.3339546" lon="7.4677274"><ele>658.0</ele><time>2026-05-03T14:15:44.101Z</time></trkpt><trkpt lat="44.3339188" lon="7.4679222"><ele>657.75</ele><time>2026-05-03T14:15:45.101Z</time></trkpt><trkpt lat="44.3338723" lon="7.4681172"><ele>657.5</ele><time>2026-05-03T14:15:46.101Z</time></trkpt><trkpt lat="44.3338384" lon="7.4683225"><ele>657.25</ele><time>2026-05-03T14:15:47.101Z</time></trkpt><trkpt lat="44.3337889" lon="7.4685076"><ele>657.0</ele><time>2026-05-03T14:15:48.101Z</time></trkpt><trkpt lat="44.3337457" lon="7.4686865"><ele>657.0</ele><time>2026-05-03T14:15:49.1Z</time></trkpt><trkpt lat="44.333702" lon="7.4688605"><ele>657.0</ele><time>2026-05-03T14:15:50.101Z</time></trkpt><trkpt lat="44.3336618" lon="7.4690381"><ele>657.0</ele><time>2026-05-03T14:15:51.1Z</time></trkpt><trkpt lat="44.3336173" lon="7.4692164"><ele>657.0</ele><time>2026-05-03T14:15:52.101Z</time></trkpt><trkpt lat="44.3335752" lon="7.4693927"><ele>657.0</ele><time>2026-05-03T14:15:53.101Z</time></trkpt><trkpt lat="44.3335346" lon="7.4695688"><ele>657.0</ele><time>2026-05-03T14:15:54.101Z</time></trkpt><trkpt lat="44.333497" lon="7.4697385"><ele>657.0</ele><time>2026-05-03T14:15:55.101Z</time></trkpt><trkpt lat="44.3334533" lon="7.4698982"><ele>657.0</ele><time>2026-05-03T14:15:56.101Z</time></trkpt><trkpt lat="44.3334344" lon="7.4700686"><ele>657.0</ele><time>2026-05-03T14:15:57.101Z</time></trkpt><trkpt lat="44.3333988" lon="7.4702353"><ele>657.0</ele><time>2026-05-03T14:15:58.101Z</time></trkpt><trkpt lat="44.3333549" lon="7.470391"><ele>657.0</ele><time>2026-05-03T14:15:59.101Z</time></trkpt><trkpt lat="44.3333161" lon="7.4705493"><ele>657.0</ele><time>2026-05-03T14:16:00.101Z</time></trkpt><trkpt lat="44.3332751" lon="7.4707134"><ele>656.5</ele><time>2026-05-03T14:16:01.101Z</time></trkpt><trkpt lat="44.3332365" lon="7.4708743"><ele>656.0</ele><time>2026-05-03T14:16:02.101Z</time></trkpt><trkpt lat="44.3331965" lon="7.4710317"><ele>655.5</ele><time>2026-05-03T14:16:03.101Z</time></trkpt><trkpt lat="44.3331573" lon="7.4711877"><ele>655.0</ele><time>2026-05-03T14:16:04.101Z</time></trkpt><trkpt lat="44.33312" lon="7.4713502"><ele>655.25</ele><time>2026-05-03T14:16:05.101Z</time></trkpt><trkpt lat="44.3330818" lon="7.4715145"><ele>655.5</ele><time>2026-05-03T14:16:06.101Z</time></trkpt><trkpt lat="44.3330375" lon="7.4716804"><ele>655.75</ele><time>2026-05-03T14:16:07.101Z</time></trkpt><trkpt lat="44.3329994" lon="7.47185"><ele>656.0</ele><time>2026-05-03T14:16:08.101Z</time></trkpt><trkpt lat="44.3329574" lon="7.4720192"><ele>655.25</ele><time>2026-05-03T14:16:09.1Z</time></trkpt><trkpt lat="44.3329109" lon="7.472189"><ele>654.5</ele><time>2026-05-03T14:16:10.101Z</time></trkpt><trkpt lat="44.3328714" lon="7.4723536"><ele>653.75</ele><time>2026-05-03T14:16:11.101Z</time></trkpt><trkpt lat="44.3328323" lon="7.4725263"><ele>653.0</ele><time>2026-05-03T14:16:12.1Z</time></trkpt><trkpt lat="44.3328067" lon="7.4726805"><ele>653.0</ele><time>2026-05-03T14:16:13.101Z</time></trkpt><trkpt lat="44.3327648" lon="7.4728476"><ele>653.0</ele><time>2026-05-03T14:16:14.101Z</time></trkpt><trkpt lat="44.3327343" lon="7.473003"><ele>653.0</ele><time>2026-05-03T14:16:15.1Z</time></trkpt><trkpt lat="44.3326913" lon="7.4731491"><ele>653.0</ele><time>2026-05-03T14:16:16.101Z</time></trkpt><trkpt lat="44.3326546" lon="7.4732952"><ele>653.0</ele><time>2026-05-03T14:16:17.101Z</time></trkpt><trkpt lat="44.3326227" lon="7.4734354"><ele>653.0</ele><time>2026-05-03T14:16:18.101Z</time></trkpt><trkpt lat="44.3325829" lon="7.4735622"><ele>653.0</ele><time>2026-05-03T14:16:19.101Z</time></trkpt><trkpt lat="44.3325536" lon="7.4737092"><ele>653.0</ele><time>2026-05-03T14:16:20.101Z</time></trkpt><trkpt lat="44.3325247" lon="7.4738561"><ele>653.0</ele><time>2026-05-03T14:16:21.1Z</time></trkpt><trkpt lat="44.3324975" lon="7.4739923"><ele>653.0</ele><time>2026-05-03T14:16:22.101Z</time></trkpt><trkpt lat="44.332478" lon="7.4741267"><ele>653.0</ele><time>2026-05-03T14:16:23.1Z</time></trkpt><trkpt lat="44.3324638" lon="7.4742544"><ele>653.0</ele><time>2026-05-03T14:16:24.1Z</time></trkpt><trkpt lat="44.3324389" lon="7.4743962"><ele>653.0</ele><time>2026-05-03T14:16:25.1Z</time></trkpt><trkpt lat="44.3324052" lon="7.474532"><ele>653.0</ele><time>2026-05-03T14:16:26.101Z</time></trkpt><trkpt lat="44.332384" lon="7.4746723"><ele>653.2</ele><time>2026-05-03T14:16:27.1Z</time></trkpt><trkpt lat="44.3323616" lon="7.4748164"><ele>653.4</ele><time>2026-05-03T14:16:28.101Z</time></trkpt><trkpt lat="44.3323394" lon="7.4749614"><ele>653.6</ele><time>2026-05-03T14:16:29.1Z</time></trkpt><trkpt lat="44.332299" lon="7.4751032"><ele>653.8000000000001</ele><time>2026-05-03T14:16:30.101Z</time></trkpt><trkpt lat="44.3322432" lon="7.4752522"><ele>654.0</ele><time>2026-05-03T14:16:31.101Z</time></trkpt><trkpt lat="44.3321799" lon="7.4754127"><ele>653.25</ele><time>2026-05-03T14:16:32.101Z</time></trkpt><trkpt lat="44.3321272" lon="7.4755783"><ele>652.5</ele><time>2026-05-03T14:16:33.101Z</time></trkpt><trkpt lat="44.3320774" lon="7.4757453"><ele>651.75</ele><time>2026-05-03T14:16:34.101Z</time></trkpt><trkpt lat="44.3320266" lon="7.4759207"><ele>651.0</ele><time>2026-05-03T14:16:35.101Z</time></trkpt><trkpt lat="44.3319741" lon="7.4760985"><ele>650.5</ele><time>2026-05-03T14:16:36.101Z</time></trkpt><trkpt lat="44.3319266" lon="7.4762835"><ele>650.0</ele><time>2026-05-03T14:16:37.101Z</time></trkpt><trkpt lat="44.3318819" lon="7.4764645"><ele>649.5</ele><time>2026-05-03T14:16:38.101Z</time></trkpt><trkpt lat="44.3318402" lon="7.4766481"><ele>649.0</ele><time>2026-05-03T14:16:39.1Z</time></trkpt><trkpt lat="44.3318015" lon="7.4768271"><ele>649.0</ele><time>2026-05-03T14:16:40.101Z</time></trkpt><trkpt lat="44.3317577" lon="7.4770062"><ele>649.0</ele><time>2026-05-03T14:16:41.101Z</time></trkpt><trkpt lat="44.3317123" lon="7.4771836"><ele>649.0</ele><time>2026-05-03T14:16:42.101Z</time></trkpt><trkpt lat="44.3316709" lon="7.4773642"><ele>649.0</ele><time>2026-05-03T14:16:43.101Z</time></trkpt><trkpt lat="44.3316265" lon="7.4775375"><ele>648.5</ele><time>2026-05-03T14:16:44.1Z</time></trkpt><trkpt lat="44.3315843" lon="7.4777141"><ele>648.0</ele><time>2026-05-03T14:16:45.101Z</time></trkpt><trkpt lat="44.3315415" lon="7.4778896"><ele>647.5</ele><time>2026-05-03T14:16:46.101Z</time></trkpt><trkpt lat="44.3315008" lon="7.4780665"><ele>647.0</ele><time>2026-05-03T14:16:47.101Z</time></trkpt><trkpt lat="44.3314586" lon="7.4782473"><ele>647.0</ele><time>2026-05-03T14:16:48.101Z</time></trkpt><trkpt lat="44.3314166" lon="7.478434"><ele>647.0</ele><time>2026-05-03T14:16:49.101Z</time></trkpt><trkpt lat="44.3313748" lon="7.4786202"><ele>647.0</ele><time>2026-05-03T14:16:50.101Z</time></trkpt><trkpt lat="44.331336" lon="7.4788048"><ele>647.0</ele><time>2026-05-03T14:16:51.101Z</time></trkpt><trkpt lat="44.3312908" lon="7.4789707"><ele>647.0</ele><time>2026-05-03T14:16:52.101Z</time></trkpt><trkpt lat="44.3312505" lon="7.4791541"><ele>647.0</ele><time>2026-05-03T14:16:53.101Z</time></trkpt><trkpt lat="44.3312047" lon="7.4793326"><ele>647.0</ele><time>2026-05-03T14:16:54.101Z</time></trkpt><trkpt lat="44.3311648" lon="7.4795146"><ele>647.0</ele><time>2026-05-03T14:16:55.101Z</time></trkpt><trkpt lat="44.3311265" lon="7.4796907"><ele>647.0</ele><time>2026-05-03T14:16:56.101Z</time></trkpt><trkpt lat="44.3311078" lon="7.4798638"><ele>647.0</ele><time>2026-05-03T14:16:57.101Z</time></trkpt><trkpt lat="44.3310565" lon="7.4800797"><ele>647.0</ele><time>2026-05-03T14:16:58.101Z</time></trkpt><trkpt lat="44.3310187" lon="7.4802782"><ele>647.0</ele><time>2026-05-03T14:16:59.101Z</time></trkpt><trkpt lat="44.3309724" lon="7.48045"><ele>646.25</ele><time>2026-05-03T14:17:00.101Z</time></trkpt><trkpt lat="44.3309334" lon="7.4806218"><ele>645.5</ele><time>2026-05-03T14:17:01.101Z</time></trkpt><trkpt lat="44.3308971" lon="7.4807923"><ele>644.75</ele><time>2026-05-03T14:17:02.101Z</time></trkpt><trkpt lat="44.3308624" lon="7.4809771"><ele>644.0</ele><time>2026-05-03T14:17:03.101Z</time></trkpt><trkpt lat="44.3308296" lon="7.481145"><ele>644.0</ele><time>2026-05-03T14:17:04.1Z</time></trkpt><trkpt lat="44.3307892" lon="7.4813244"><ele>644.0</ele><time>2026-05-03T14:17:05.1Z</time></trkpt><trkpt lat="44.3307478" lon="7.4815034"><ele>644.0</ele><time>2026-05-03T14:17:06.101Z</time></trkpt><trkpt lat="44.3307058" lon="7.4816704"><ele>644.0</ele><time>2026-05-03T14:17:07.101Z</time></trkpt><trkpt lat="44.3306633" lon="7.4818451"><ele>644.0</ele><time>2026-05-03T14:17:08.101Z</time></trkpt><trkpt lat="44.3306199" lon="7.4820153"><ele>644.0</ele><time>2026-05-03T14:17:09.101Z</time></trkpt><trkpt lat="44.3305743" lon="7.4821928"><ele>644.0</ele><time>2026-05-03T14:17:10.101Z</time></trkpt><trkpt lat="44.3305344" lon="7.4823573"><ele>644.0</ele><time>2026-05-03T14:17:11.101Z</time></trkpt><trkpt lat="44.3304966" lon="7.4825188"><ele>644.0</ele><time>2026-05-03T14:17:12.101Z</time></trkpt><trkpt lat="44.3304595" lon="7.4826856"><ele>644.0</ele><time>2026-05-03T14:17:13.101Z</time></trkpt><trkpt lat="44.3304186" lon="7.4828626"><ele>644.0</ele><time>2026-05-03T14:17:14.101Z</time></trkpt><trkpt lat="44.3303767" lon="7.4830358"><ele>644.0</ele><time>2026-05-03T14:17:15.101Z</time></trkpt><trkpt lat="44.3303369" lon="7.4831824"><ele>643.6</ele><time>2026-05-03T14:17:16.101Z</time></trkpt><trkpt lat="44.3302955" lon="7.4833319"><ele>643.2</ele><time>2026-05-03T14:17:17.101Z</time></trkpt><trkpt lat="44.330259" lon="7.4834756"><ele>642.8000000000001</ele><time>2026-05-03T14:17:18.1Z</time></trkpt><trkpt lat="44.3302197" lon="7.4836143"><ele>642.4000000000001</ele><time>2026-05-03T14:17:19.101Z</time></trkpt><trkpt lat="44.3301944" lon="7.4837459"><ele>642.0</ele><time>2026-05-03T14:17:20.101Z</time></trkpt><trkpt lat="44.3301689" lon="7.4838666"><ele>642.0</ele><time>2026-05-03T14:17:21.101Z</time></trkpt><trkpt lat="44.3301451" lon="7.4839721"><ele>642.0</ele><time>2026-05-03T14:17:22.101Z</time></trkpt><trkpt lat="44.3301174" lon="7.4840809"><ele>642.0</ele><time>2026-05-03T14:17:23.101Z</time></trkpt><trkpt lat="44.3301222" lon="7.4841832"><ele>642.0</ele><time>2026-05-03T14:17:24.1Z</time></trkpt><trkpt lat="44.3301436" lon="7.4842888"><ele>642.0</ele><time>2026-05-03T14:17:25.101Z</time></trkpt><trkpt lat="44.3301552" lon="7.4843811"><ele>642.0</ele><time>2026-05-03T14:17:26.101Z</time></trkpt><trkpt lat="44.3302222" lon="7.48456"><ele>641.75</ele><time>2026-05-03T14:17:28.101Z</time></trkpt><trkpt lat="44.3302961" lon="7.4847034"><ele>641.5</ele><time>2026-05-03T14:17:29.101Z</time></trkpt><trkpt lat="44.3303486" lon="7.4848398"><ele>641.25</ele><time>2026-05-03T14:17:30.101Z</time></trkpt><trkpt lat="44.3304012" lon="7.4849786"><ele>641.0</ele><time>2026-05-03T14:17:31.1Z</time></trkpt><trkpt lat="44.3304644" lon="7.4851211"><ele>641.0</ele><time>2026-05-03T14:17:32.101Z</time></trkpt><trkpt lat="44.3305209" lon="7.4852843"><ele>641.0</ele><time>2026-05-03T14:17:33.1Z</time></trkpt><trkpt lat="44.3305931" lon="7.4854341"><ele>641.0</ele><time>2026-05-03T14:17:34.101Z</time></trkpt><trkpt lat="44.3306604" lon="7.4855881"><ele>641.0</ele><time>2026-05-03T14:17:35.101Z</time></trkpt><trkpt lat="44.330723" lon="7.4857487"><ele>641.0</ele><time>2026-05-03T14:17:36.101Z</time></trkpt><trkpt lat="44.3307841" lon="7.4859111"><ele>641.0</ele><time>2026-05-03T14:17:37.101Z</time></trkpt><trkpt lat="44.3308479" lon="7.4860613"><ele>641.0</ele><time>2026-05-03T14:17:38.101Z</time></trkpt><trkpt lat="44.3309105" lon="7.486211"><ele>641.0</ele><time>2026-05-03T14:17:39.101Z</time></trkpt><trkpt lat="44.3309668" lon="7.4863556"><ele>641.25</ele><time>2026-05-03T14:17:40.101Z</time></trkpt><trkpt lat="44.331029" lon="7.4865058"><ele>641.5</ele><time>2026-05-03T14:17:41.101Z</time></trkpt><trkpt lat="44.3310909" lon="7.4866473"><ele>641.75</ele><time>2026-05-03T14:17:42.101Z</time></trkpt><trkpt lat="44.3311655" lon="7.4867842"><ele>642.0</ele><time>2026-05-03T14:17:43.101Z</time></trkpt><trkpt lat="44.3312315" lon="7.4869174"><ele>642.0</ele><time>2026-05-03T14:17:44.101Z</time></trkpt><trkpt lat="44.3312888" lon="7.4870463"><ele>642.0</ele><time>2026-05-03T14:17:45.101Z</time></trkpt><trkpt lat="44.3313547" lon="7.4871671"><ele>642.0</ele><time>2026-05-03T14:17:46.101Z</time></trkpt><trkpt lat="44.3314178" lon="7.4872903"><ele>642.0</ele><time>2026-05-03T14:17:47.101Z</time></trkpt><trkpt lat="44.3314814" lon="7.4874134"><ele>642.0</ele><time>2026-05-03T14:17:48.1Z</time></trkpt><trkpt lat="44.3315426" lon="7.4875362"><ele>641.4</ele><time>2026-05-03T14:17:49.1Z</time></trkpt><trkpt lat="44.3315969" lon="7.487651"><ele>640.8000000000001</ele><time>2026-05-03T14:17:50.101Z</time></trkpt><trkpt lat="44.3316562" lon="7.4877672"><ele>640.2</ele><time>2026-05-03T14:17:51.101Z</time></trkpt><trkpt lat="44.3317063" lon="7.4878691"><ele>639.6</ele><time>2026-05-03T14:17:52.1Z</time></trkpt><trkpt lat="44.3317743" lon="7.4879894"><ele>639.0</ele><time>2026-05-03T14:17:53.1Z</time></trkpt><trkpt lat="44.3318297" lon="7.4880945"><ele>638.4</ele><time>2026-05-03T14:17:54.101Z</time></trkpt><trkpt lat="44.3318396" lon="7.4882949"><ele>637.8</ele><time>2026-05-03T14:17:56.101Z</time></trkpt><trkpt lat="44.3318649" lon="7.4883921"><ele>637.2</ele><time>2026-05-03T14:17:57.101Z</time></trkpt><trkpt lat="44.3318549" lon="7.4884922"><ele>636.6</ele><time>2026-05-03T14:17:58.101Z</time></trkpt><trkpt lat="44.3318334" lon="7.4885887"><ele>636.0</ele><time>2026-05-03T14:17:59.101Z</time></trkpt><trkpt lat="44.3318118" lon="7.4887438"><ele>636.0</ele><time>2026-05-03T14:18:01.101Z</time></trkpt><trkpt lat="44.3317607" lon="7.4888539"><ele>636.0</ele><time>2026-05-03T14:18:03.101Z</time></trkpt><trkpt lat="44.3316734" lon="7.4888936"><ele>636.0</ele><time>2026-05-03T14:18:06.101Z</time></trkpt><trkpt lat="44.3315539" lon="7.4888391"><ele>636.0</ele><time>2026-05-03T14:18:08.101Z</time></trkpt><trkpt lat="44.3314886" lon="7.4888216"><ele>636.0</ele><time>2026-05-03T14:18:09.101Z</time></trkpt><trkpt lat="44.3313854" lon="7.4887834"><ele>638.0</ele><time>2026-05-03T14:18:10.101Z</time></trkpt><trkpt lat="44.3313222" lon="7.4887522"><ele>639.0</ele><time>2026-05-03T14:18:11.1Z</time></trkpt><trkpt lat="44.3312478" lon="7.4887362"><ele>639.0</ele><time>2026-05-03T14:18:13.101Z</time></trkpt><trkpt lat="44.3311675" lon="7.4887251"><ele>639.0</ele><time>2026-05-03T14:18:16.101Z</time></trkpt></trkseg></trk></gpx>